<?xml version="1.0" encoding="UTF-8" standalone="no" ?>
<gpx xmlns="http://www.topografix.com/GPX/1/1" xmlns:xsi="http://www.w3.org/2001/XMLSchema-instance" xsi:schemaLocation="http://www.topografix.com/GPX/1/1 http://www.topografix.com/GPX/1/1/gpx.xsd" version="1.1" creator="VisuGPX - https://www.visugpx.com">
  <metadata>
    <name>MILLAU J1 et 2</name>
  </metadata>
  <trk>
    <name><![CDATA[Creissels VTT]]></name>
    <trkseg>
      <trkpt lat="44.07083" lon="3.06117">
        <ele>936.59997558594</ele>
        <time>2020-10-02T07:33:25.000Z</time>
      </trkpt>
      <trkpt lat="44.07079" lon="3.06108">
        <ele>936.40002441406</ele>
        <time>2020-10-02T07:33:28.000Z</time>
      </trkpt>
      <trkpt lat="44.07073" lon="3.06079">
        <ele>936.79998779297</ele>
        <time>2020-10-02T07:33:34.000Z</time>
      </trkpt>
      <trkpt lat="44.07065" lon="3.06039">
        <ele>936.40002441406</ele>
        <time>2020-10-02T07:33:43.000Z</time>
      </trkpt>
      <trkpt lat="44.07059" lon="3.06015">
        <ele>936.79998779297</ele>
        <time>2020-10-02T07:33:50.000Z</time>
      </trkpt>
      <trkpt lat="44.07052" lon="3.05987">
        <ele>936.79998779297</ele>
        <time>2020-10-02T07:33:58.000Z</time>
      </trkpt>
      <trkpt lat="44.0705" lon="3.05976">
        <ele>936.79998779297</ele>
        <time>2020-10-02T07:34:01.000Z</time>
      </trkpt>
      <trkpt lat="44.07046" lon="3.05972">
        <ele>936.79998779297</ele>
        <time>2020-10-02T07:34:05.000Z</time>
      </trkpt>
      <trkpt lat="44.07044" lon="3.05943">
        <ele>937</ele>
        <time>2020-10-02T07:34:12.000Z</time>
      </trkpt>
      <trkpt lat="44.07045" lon="3.05912">
        <ele>937</ele>
        <time>2020-10-02T07:34:19.000Z</time>
      </trkpt>
      <trkpt lat="44.07045" lon="3.05884">
        <ele>937</ele>
        <time>2020-10-02T07:34:26.000Z</time>
      </trkpt>
      <trkpt lat="44.07032" lon="3.05852">
        <ele>937.20001220703</ele>
        <time>2020-10-02T07:34:34.000Z</time>
      </trkpt>
      <trkpt lat="44.07026" lon="3.05841">
        <ele>937.20001220703</ele>
        <time>2020-10-02T07:34:37.000Z</time>
      </trkpt>
      <trkpt lat="44.07016" lon="3.05834">
        <ele>937.40002441406</ele>
        <time>2020-10-02T07:34:40.000Z</time>
      </trkpt>
      <trkpt lat="44.06999" lon="3.05825">
        <ele>937.20001220703</ele>
        <time>2020-10-02T07:34:44.000Z</time>
      </trkpt>
      <trkpt lat="44.0699" lon="3.05823">
        <ele>937.20001220703</ele>
        <time>2020-10-02T07:34:46.000Z</time>
      </trkpt>
      <trkpt lat="44.0697" lon="3.0582">
        <ele>937</ele>
        <time>2020-10-02T07:34:50.000Z</time>
      </trkpt>
      <trkpt lat="44.06958" lon="3.05813">
        <ele>936.40002441406</ele>
        <time>2020-10-02T07:34:52.000Z</time>
      </trkpt>
      <trkpt lat="44.06953" lon="3.05809">
        <ele>936.20001220703</ele>
        <time>2020-10-02T07:34:53.000Z</time>
      </trkpt>
      <trkpt lat="44.06943" lon="3.05803">
        <ele>935.79998779297</ele>
        <time>2020-10-02T07:34:55.000Z</time>
      </trkpt>
      <trkpt lat="44.06939" lon="3.05802">
        <ele>935.59997558594</ele>
        <time>2020-10-02T07:34:56.000Z</time>
      </trkpt>
      <trkpt lat="44.06924" lon="3.05797">
        <ele>935</ele>
        <time>2020-10-02T07:34:59.000Z</time>
      </trkpt>
      <trkpt lat="44.06918" lon="3.05794">
        <ele>934.40002441406</ele>
        <time>2020-10-02T07:35:00.000Z</time>
      </trkpt>
      <trkpt lat="44.06911" lon="3.05789">
        <ele>934</ele>
        <time>2020-10-02T07:35:01.000Z</time>
      </trkpt>
      <trkpt lat="44.06906" lon="3.05787">
        <ele>933.20001220703</ele>
        <time>2020-10-02T07:35:02.000Z</time>
      </trkpt>
      <trkpt lat="44.06901" lon="3.05788">
        <ele>932.59997558594</ele>
        <time>2020-10-02T07:35:03.000Z</time>
      </trkpt>
      <trkpt lat="44.06897" lon="3.05794">
        <ele>931.79998779297</ele>
        <time>2020-10-02T07:35:05.000Z</time>
      </trkpt>
      <trkpt lat="44.06892" lon="3.05797">
        <ele>930.20001220703</ele>
        <time>2020-10-02T07:35:07.000Z</time>
      </trkpt>
      <trkpt lat="44.06888" lon="3.05799">
        <ele>929.40002441406</ele>
        <time>2020-10-02T07:35:08.000Z</time>
      </trkpt>
      <trkpt lat="44.06884" lon="3.058">
        <ele>929</ele>
        <time>2020-10-02T07:35:09.000Z</time>
      </trkpt>
      <trkpt lat="44.06862" lon="3.05803">
        <ele>928</ele>
        <time>2020-10-02T07:35:14.000Z</time>
      </trkpt>
      <trkpt lat="44.06858" lon="3.05803">
        <ele>928</ele>
        <time>2020-10-02T07:35:15.000Z</time>
      </trkpt>
      <trkpt lat="44.06852" lon="3.05802">
        <ele>928</ele>
        <time>2020-10-02T07:35:16.000Z</time>
      </trkpt>
      <trkpt lat="44.06841" lon="3.05801">
        <ele>927.79998779297</ele>
        <time>2020-10-02T07:35:18.000Z</time>
      </trkpt>
      <trkpt lat="44.06834" lon="3.058">
        <ele>927.79998779297</ele>
        <time>2020-10-02T07:35:19.000Z</time>
      </trkpt>
      <trkpt lat="44.06816" lon="3.05798">
        <ele>926.79998779297</ele>
        <time>2020-10-02T07:35:22.000Z</time>
      </trkpt>
      <trkpt lat="44.06791" lon="3.05794">
        <ele>925.40002441406</ele>
        <time>2020-10-02T07:35:26.000Z</time>
      </trkpt>
      <trkpt lat="44.06785" lon="3.05791">
        <ele>925</ele>
        <time>2020-10-02T07:35:27.000Z</time>
      </trkpt>
      <trkpt lat="44.06775" lon="3.05782">
        <ele>924.40002441406</ele>
        <time>2020-10-02T07:35:29.000Z</time>
      </trkpt>
      <trkpt lat="44.06765" lon="3.05771">
        <ele>923.79998779297</ele>
        <time>2020-10-02T07:35:31.000Z</time>
      </trkpt>
      <trkpt lat="44.06757" lon="3.05755">
        <ele>923.40002441406</ele>
        <time>2020-10-02T07:35:34.000Z</time>
      </trkpt>
      <trkpt lat="44.06756" lon="3.05749">
        <ele>923</ele>
        <time>2020-10-02T07:35:35.000Z</time>
      </trkpt>
      <trkpt lat="44.06751" lon="3.0573">
        <ele>922.59997558594</ele>
        <time>2020-10-02T07:35:38.000Z</time>
      </trkpt>
      <trkpt lat="44.06746" lon="3.05721">
        <ele>922.59997558594</ele>
        <time>2020-10-02T07:35:40.000Z</time>
      </trkpt>
      <trkpt lat="44.06734" lon="3.05718">
        <ele>922.40002441406</ele>
        <time>2020-10-02T07:35:43.000Z</time>
      </trkpt>
      <trkpt lat="44.0673" lon="3.05719">
        <ele>922.40002441406</ele>
        <time>2020-10-02T07:35:44.000Z</time>
      </trkpt>
      <trkpt lat="44.06726" lon="3.0572">
        <ele>922.20001220703</ele>
        <time>2020-10-02T07:35:45.000Z</time>
      </trkpt>
      <trkpt lat="44.06717" lon="3.05721">
        <ele>922.20001220703</ele>
        <time>2020-10-02T07:35:47.000Z</time>
      </trkpt>
      <trkpt lat="44.06708" lon="3.05722">
        <ele>922.20001220703</ele>
        <time>2020-10-02T07:35:49.000Z</time>
      </trkpt>
      <trkpt lat="44.06676" lon="3.05723">
        <ele>921.59997558594</ele>
        <time>2020-10-02T07:35:56.000Z</time>
      </trkpt>
      <trkpt lat="44.06672" lon="3.05723">
        <ele>921.59997558594</ele>
        <time>2020-10-02T07:35:57.000Z</time>
      </trkpt>
      <trkpt lat="44.06656" lon="3.05729">
        <ele>921.40002441406</ele>
        <time>2020-10-02T07:36:01.000Z</time>
      </trkpt>
      <trkpt lat="44.06646" lon="3.05731">
        <ele>921.20001220703</ele>
        <time>2020-10-02T07:36:03.000Z</time>
      </trkpt>
      <trkpt lat="44.06637" lon="3.05735">
        <ele>921.20001220703</ele>
        <time>2020-10-02T07:36:05.000Z</time>
      </trkpt>
      <trkpt lat="44.06629" lon="3.05738">
        <ele>921.20001220703</ele>
        <time>2020-10-02T07:36:07.000Z</time>
      </trkpt>
      <trkpt lat="44.06615" lon="3.05749">
        <ele>921</ele>
        <time>2020-10-02T07:36:12.000Z</time>
      </trkpt>
      <trkpt lat="44.06612" lon="3.05752">
        <ele>921</ele>
        <time>2020-10-02T07:36:13.000Z</time>
      </trkpt>
      <trkpt lat="44.06605" lon="3.05768">
        <ele>920.79998779297</ele>
        <time>2020-10-02T07:36:17.000Z</time>
      </trkpt>
      <trkpt lat="44.06602" lon="3.05781">
        <ele>920.59997558594</ele>
        <time>2020-10-02T07:36:21.000Z</time>
      </trkpt>
      <trkpt lat="44.06601" lon="3.05782">
        <ele>920.59997558594</ele>
        <time>2020-10-02T07:36:22.000Z</time>
      </trkpt>
      <trkpt lat="44.06597" lon="3.05791">
        <ele>920.40002441406</ele>
        <time>2020-10-02T07:36:26.000Z</time>
      </trkpt>
      <trkpt lat="44.06595" lon="3.05795">
        <ele>920.40002441406</ele>
        <time>2020-10-02T07:36:28.000Z</time>
      </trkpt>
      <trkpt lat="44.0659" lon="3.05799">
        <ele>920.40002441406</ele>
        <time>2020-10-02T07:36:31.000Z</time>
      </trkpt>
      <trkpt lat="44.06574" lon="3.05802">
        <ele>920.40002441406</ele>
        <time>2020-10-02T07:36:37.000Z</time>
      </trkpt>
      <trkpt lat="44.06567" lon="3.05803">
        <ele>920.20001220703</ele>
        <time>2020-10-02T07:36:39.000Z</time>
      </trkpt>
      <trkpt lat="44.06558" lon="3.05802">
        <ele>920</ele>
        <time>2020-10-02T07:36:41.000Z</time>
      </trkpt>
      <trkpt lat="44.06553" lon="3.05801">
        <ele>920</ele>
        <time>2020-10-02T07:36:42.000Z</time>
      </trkpt>
      <trkpt lat="44.0653" lon="3.0579">
        <ele>919.20001220703</ele>
        <time>2020-10-02T07:36:47.000Z</time>
      </trkpt>
      <trkpt lat="44.06526" lon="3.05787">
        <ele>919</ele>
        <time>2020-10-02T07:36:48.000Z</time>
      </trkpt>
      <trkpt lat="44.06491" lon="3.05759">
        <ele>918.79998779297</ele>
        <time>2020-10-02T07:36:57.000Z</time>
      </trkpt>
      <trkpt lat="44.06454" lon="3.05731">
        <ele>919</ele>
        <time>2020-10-02T07:37:07.000Z</time>
      </trkpt>
      <trkpt lat="44.06423" lon="3.05709">
        <ele>919.59997558594</ele>
        <time>2020-10-02T07:37:16.000Z</time>
      </trkpt>
      <trkpt lat="44.06401" lon="3.05691">
        <ele>920.20001220703</ele>
        <time>2020-10-02T07:37:22.000Z</time>
      </trkpt>
      <trkpt lat="44.06398" lon="3.05687">
        <ele>920.40002441406</ele>
        <time>2020-10-02T07:37:23.000Z</time>
      </trkpt>
      <trkpt lat="44.06379" lon="3.05653">
        <ele>921</ele>
        <time>2020-10-02T07:37:31.000Z</time>
      </trkpt>
      <trkpt lat="44.06376" lon="3.05649">
        <ele>921.20001220703</ele>
        <time>2020-10-02T07:37:32.000Z</time>
      </trkpt>
      <trkpt lat="44.06361" lon="3.05634">
        <ele>922.20001220703</ele>
        <time>2020-10-02T07:37:38.000Z</time>
      </trkpt>
      <trkpt lat="44.06357" lon="3.05632">
        <ele>922.40002441406</ele>
        <time>2020-10-02T07:37:39.000Z</time>
      </trkpt>
      <trkpt lat="44.06345" lon="3.05623">
        <ele>923.40002441406</ele>
        <time>2020-10-02T07:37:43.000Z</time>
      </trkpt>
      <trkpt lat="44.06342" lon="3.0562">
        <ele>923.59997558594</ele>
        <time>2020-10-02T07:37:44.000Z</time>
      </trkpt>
      <trkpt lat="44.06322" lon="3.05602">
        <ele>924.59997558594</ele>
        <time>2020-10-02T07:37:52.000Z</time>
      </trkpt>
      <trkpt lat="44.0632" lon="3.05599">
        <ele>924.59997558594</ele>
        <time>2020-10-02T07:37:53.000Z</time>
      </trkpt>
      <trkpt lat="44.06307" lon="3.05586">
        <ele>925</ele>
        <time>2020-10-02T07:37:59.000Z</time>
      </trkpt>
      <trkpt lat="44.06303" lon="3.05583">
        <ele>925.59997558594</ele>
        <time>2020-10-02T07:38:03.000Z</time>
      </trkpt>
      <trkpt lat="44.06302" lon="3.05582">
        <ele>926</ele>
        <time>2020-10-02T07:38:05.000Z</time>
      </trkpt>
      <trkpt lat="44.06302" lon="3.05581">
        <ele>926.79998779297</ele>
        <time>2020-10-02T07:38:12.000Z</time>
      </trkpt>
      <trkpt lat="44.06302" lon="3.05581">
        <ele>927.59997558594</ele>
        <time>2020-10-02T07:38:16.000Z</time>
      </trkpt>
      <trkpt lat="44.06302" lon="3.05577">
        <ele>927.59997558594</ele>
        <time>2020-10-02T07:38:24.000Z</time>
      </trkpt>
      <trkpt lat="44.06297" lon="3.05572">
        <ele>927.79998779297</ele>
        <time>2020-10-02T07:38:33.000Z</time>
      </trkpt>
      <trkpt lat="44.06294" lon="3.05568">
        <ele>927.79998779297</ele>
        <time>2020-10-02T07:38:35.000Z</time>
      </trkpt>
      <trkpt lat="44.06288" lon="3.05558">
        <ele>928</ele>
        <time>2020-10-02T07:38:39.000Z</time>
      </trkpt>
      <trkpt lat="44.06282" lon="3.0555">
        <ele>928.40002441406</ele>
        <time>2020-10-02T07:38:42.000Z</time>
      </trkpt>
      <trkpt lat="44.06267" lon="3.05529">
        <ele>928.79998779297</ele>
        <time>2020-10-02T07:38:50.000Z</time>
      </trkpt>
      <trkpt lat="44.06266" lon="3.05527">
        <ele>929</ele>
        <time>2020-10-02T07:38:51.000Z</time>
      </trkpt>
      <trkpt lat="44.06256" lon="3.05511">
        <ele>930.20001220703</ele>
        <time>2020-10-02T07:38:57.000Z</time>
      </trkpt>
      <trkpt lat="44.06252" lon="3.05504">
        <ele>930.79998779297</ele>
        <time>2020-10-02T07:39:00.000Z</time>
      </trkpt>
      <trkpt lat="44.06248" lon="3.05497">
        <ele>931.40002441406</ele>
        <time>2020-10-02T07:39:03.000Z</time>
      </trkpt>
      <trkpt lat="44.06243" lon="3.05487">
        <ele>932.40002441406</ele>
        <time>2020-10-02T07:39:08.000Z</time>
      </trkpt>
      <trkpt lat="44.06242" lon="3.05485">
        <ele>932.79998779297</ele>
        <time>2020-10-02T07:39:09.000Z</time>
      </trkpt>
      <trkpt lat="44.0624" lon="3.05481">
        <ele>933.59997558594</ele>
        <time>2020-10-02T07:39:11.000Z</time>
      </trkpt>
      <trkpt lat="44.06235" lon="3.05471">
        <ele>934.59997558594</ele>
        <time>2020-10-02T07:39:17.000Z</time>
      </trkpt>
      <trkpt lat="44.06234" lon="3.05469">
        <ele>935</ele>
        <time>2020-10-02T07:39:18.000Z</time>
      </trkpt>
      <trkpt lat="44.0623" lon="3.05464">
        <ele>935.79998779297</ele>
        <time>2020-10-02T07:39:21.000Z</time>
      </trkpt>
      <trkpt lat="44.06223" lon="3.05454">
        <ele>937.20001220703</ele>
        <time>2020-10-02T07:39:27.000Z</time>
      </trkpt>
      <trkpt lat="44.06215" lon="3.05442">
        <ele>938.40002441406</ele>
        <time>2020-10-02T07:39:35.000Z</time>
      </trkpt>
      <trkpt lat="44.06209" lon="3.05433">
        <ele>939.79998779297</ele>
        <time>2020-10-02T07:39:40.000Z</time>
      </trkpt>
      <trkpt lat="44.06206" lon="3.05427">
        <ele>940.79998779297</ele>
        <time>2020-10-02T07:39:44.000Z</time>
      </trkpt>
      <trkpt lat="44.06202" lon="3.0542">
        <ele>941.40002441406</ele>
        <time>2020-10-02T07:39:48.000Z</time>
      </trkpt>
      <trkpt lat="44.06198" lon="3.05411">
        <ele>941.79998779297</ele>
        <time>2020-10-02T07:39:53.000Z</time>
      </trkpt>
      <trkpt lat="44.06195" lon="3.05406">
        <ele>942.40002441406</ele>
        <time>2020-10-02T07:39:56.000Z</time>
      </trkpt>
      <trkpt lat="44.06192" lon="3.054">
        <ele>942.79998779297</ele>
        <time>2020-10-02T07:39:59.000Z</time>
      </trkpt>
      <trkpt lat="44.06187" lon="3.0539">
        <ele>943.79998779297</ele>
        <time>2020-10-02T07:40:05.000Z</time>
      </trkpt>
      <trkpt lat="44.06186" lon="3.05388">
        <ele>944.20001220703</ele>
        <time>2020-10-02T07:40:06.000Z</time>
      </trkpt>
      <trkpt lat="44.06185" lon="3.05385">
        <ele>944.79998779297</ele>
        <time>2020-10-02T07:40:08.000Z</time>
      </trkpt>
      <trkpt lat="44.0618" lon="3.05373">
        <ele>946.20001220703</ele>
        <time>2020-10-02T07:40:14.000Z</time>
      </trkpt>
      <trkpt lat="44.06178" lon="3.05364">
        <ele>947.40002441406</ele>
        <time>2020-10-02T07:40:19.000Z</time>
      </trkpt>
      <trkpt lat="44.06175" lon="3.05345">
        <ele>948.20001220703</ele>
        <time>2020-10-02T07:40:28.000Z</time>
      </trkpt>
      <trkpt lat="44.06175" lon="3.05341">
        <ele>948.40002441406</ele>
        <time>2020-10-02T07:40:30.000Z</time>
      </trkpt>
      <trkpt lat="44.06174" lon="3.0533">
        <ele>949.59997558594</ele>
        <time>2020-10-02T07:40:35.000Z</time>
      </trkpt>
      <trkpt lat="44.06173" lon="3.05324">
        <ele>950.40002441406</ele>
        <time>2020-10-02T07:40:38.000Z</time>
      </trkpt>
      <trkpt lat="44.06172" lon="3.05322">
        <ele>950.79998779297</ele>
        <time>2020-10-02T07:40:39.000Z</time>
      </trkpt>
      <trkpt lat="44.0617" lon="3.05313">
        <ele>952.20001220703</ele>
        <time>2020-10-02T07:40:44.000Z</time>
      </trkpt>
      <trkpt lat="44.06169" lon="3.05308">
        <ele>952.79998779297</ele>
        <time>2020-10-02T07:40:47.000Z</time>
      </trkpt>
      <trkpt lat="44.06169" lon="3.05304">
        <ele>953.20001220703</ele>
        <time>2020-10-02T07:40:49.000Z</time>
      </trkpt>
      <trkpt lat="44.06168" lon="3.05299">
        <ele>954.40002441406</ele>
        <time>2020-10-02T07:40:52.000Z</time>
      </trkpt>
      <trkpt lat="44.06167" lon="3.05295">
        <ele>954.59997558594</ele>
        <time>2020-10-02T07:40:54.000Z</time>
      </trkpt>
      <trkpt lat="44.06166" lon="3.05293">
        <ele>954.79998779297</ele>
        <time>2020-10-02T07:40:55.000Z</time>
      </trkpt>
      <trkpt lat="44.06165" lon="3.05288">
        <ele>955.59997558594</ele>
        <time>2020-10-02T07:40:58.000Z</time>
      </trkpt>
      <trkpt lat="44.06163" lon="3.05275">
        <ele>956.40002441406</ele>
        <time>2020-10-02T07:41:05.000Z</time>
      </trkpt>
      <trkpt lat="44.06163" lon="3.05273">
        <ele>956.59997558594</ele>
        <time>2020-10-02T07:41:06.000Z</time>
      </trkpt>
      <trkpt lat="44.06161" lon="3.05266">
        <ele>957.79998779297</ele>
        <time>2020-10-02T07:41:10.000Z</time>
      </trkpt>
      <trkpt lat="44.06158" lon="3.05258">
        <ele>959</ele>
        <time>2020-10-02T07:41:14.000Z</time>
      </trkpt>
      <trkpt lat="44.06158" lon="3.05257">
        <ele>959</ele>
        <time>2020-10-02T07:41:15.000Z</time>
      </trkpt>
      <trkpt lat="44.06157" lon="3.05244">
        <ele>960</ele>
        <time>2020-10-02T07:41:22.000Z</time>
      </trkpt>
      <trkpt lat="44.06156" lon="3.05239">
        <ele>960.40002441406</ele>
        <time>2020-10-02T07:41:25.000Z</time>
      </trkpt>
      <trkpt lat="44.06156" lon="3.05231">
        <ele>961.20001220703</ele>
        <time>2020-10-02T07:41:29.000Z</time>
      </trkpt>
      <trkpt lat="44.06157" lon="3.05218">
        <ele>962.20001220703</ele>
        <time>2020-10-02T07:41:36.000Z</time>
      </trkpt>
      <trkpt lat="44.06157" lon="3.05208">
        <ele>963.40002441406</ele>
        <time>2020-10-02T07:41:41.000Z</time>
      </trkpt>
      <trkpt lat="44.06158" lon="3.05197">
        <ele>964.79998779297</ele>
        <time>2020-10-02T07:41:47.000Z</time>
      </trkpt>
      <trkpt lat="44.06159" lon="3.05196">
        <ele>965</ele>
        <time>2020-10-02T07:41:48.000Z</time>
      </trkpt>
      <trkpt lat="44.06165" lon="3.05195">
        <ele>965.59997558594</ele>
        <time>2020-10-02T07:41:52.000Z</time>
      </trkpt>
      <trkpt lat="44.06167" lon="3.05195">
        <ele>965.79998779297</ele>
        <time>2020-10-02T07:41:53.000Z</time>
      </trkpt>
      <trkpt lat="44.06168" lon="3.05195">
        <ele>966</ele>
        <time>2020-10-02T07:41:54.000Z</time>
      </trkpt>
      <trkpt lat="44.06179" lon="3.05192">
        <ele>966.79998779297</ele>
        <time>2020-10-02T07:42:01.000Z</time>
      </trkpt>
      <trkpt lat="44.06182" lon="3.0519">
        <ele>967</ele>
        <time>2020-10-02T07:42:03.000Z</time>
      </trkpt>
      <trkpt lat="44.06194" lon="3.05185">
        <ele>967.40002441406</ele>
        <time>2020-10-02T07:42:11.000Z</time>
      </trkpt>
      <trkpt lat="44.06208" lon="3.05178">
        <ele>967.79998779297</ele>
        <time>2020-10-02T07:42:21.000Z</time>
      </trkpt>
      <trkpt lat="44.06216" lon="3.05176">
        <ele>968</ele>
        <time>2020-10-02T07:42:28.000Z</time>
      </trkpt>
      <trkpt lat="44.06214" lon="3.05176">
        <ele>968</ele>
        <time>2020-10-02T07:42:39.000Z</time>
      </trkpt>
      <trkpt lat="44.06214" lon="3.05174">
        <ele>968</ele>
        <time>2020-10-02T07:43:00.000Z</time>
      </trkpt>
      <trkpt lat="44.06211" lon="3.05167">
        <ele>968.40002441406</ele>
        <time>2020-10-02T07:43:07.000Z</time>
      </trkpt>
      <trkpt lat="44.06211" lon="3.05166">
        <ele>968.40002441406</ele>
        <time>2020-10-02T07:43:08.000Z</time>
      </trkpt>
      <trkpt lat="44.0621" lon="3.05153">
        <ele>969.59997558594</ele>
        <time>2020-10-02T07:43:17.000Z</time>
      </trkpt>
      <trkpt lat="44.0621" lon="3.05151">
        <ele>969.79998779297</ele>
        <time>2020-10-02T07:43:18.000Z</time>
      </trkpt>
      <trkpt lat="44.06211" lon="3.05141">
        <ele>970</ele>
        <time>2020-10-02T07:43:23.000Z</time>
      </trkpt>
      <trkpt lat="44.06212" lon="3.05127">
        <ele>971</ele>
        <time>2020-10-02T07:43:29.000Z</time>
      </trkpt>
      <trkpt lat="44.06213" lon="3.05121">
        <ele>971.40002441406</ele>
        <time>2020-10-02T07:43:32.000Z</time>
      </trkpt>
      <trkpt lat="44.06216" lon="3.05105">
        <ele>972.40002441406</ele>
        <time>2020-10-02T07:43:39.000Z</time>
      </trkpt>
      <trkpt lat="44.06216" lon="3.05103">
        <ele>972.59997558594</ele>
        <time>2020-10-02T07:43:40.000Z</time>
      </trkpt>
      <trkpt lat="44.06217" lon="3.05093">
        <ele>973.40002441406</ele>
        <time>2020-10-02T07:43:46.000Z</time>
      </trkpt>
      <trkpt lat="44.06216" lon="3.05089">
        <ele>973.59997558594</ele>
        <time>2020-10-02T07:43:48.000Z</time>
      </trkpt>
      <trkpt lat="44.0621" lon="3.05079">
        <ele>975</ele>
        <time>2020-10-02T07:43:55.000Z</time>
      </trkpt>
      <trkpt lat="44.06207" lon="3.05076">
        <ele>975.59997558594</ele>
        <time>2020-10-02T07:43:57.000Z</time>
      </trkpt>
      <trkpt lat="44.06204" lon="3.05075">
        <ele>976</ele>
        <time>2020-10-02T07:43:59.000Z</time>
      </trkpt>
      <trkpt lat="44.06196" lon="3.05071">
        <ele>977.20001220703</ele>
        <time>2020-10-02T07:44:04.000Z</time>
      </trkpt>
      <trkpt lat="44.06188" lon="3.05068">
        <ele>978.20001220703</ele>
        <time>2020-10-02T07:44:09.000Z</time>
      </trkpt>
      <trkpt lat="44.06174" lon="3.05064">
        <ele>979.59997558594</ele>
        <time>2020-10-02T07:44:18.000Z</time>
      </trkpt>
      <trkpt lat="44.06159" lon="3.05061">
        <ele>980.79998779297</ele>
        <time>2020-10-02T07:44:27.000Z</time>
      </trkpt>
      <trkpt lat="44.06156" lon="3.0506">
        <ele>981</ele>
        <time>2020-10-02T07:44:29.000Z</time>
      </trkpt>
      <trkpt lat="44.06144" lon="3.05054">
        <ele>981.79998779297</ele>
        <time>2020-10-02T07:44:37.000Z</time>
      </trkpt>
      <trkpt lat="44.06143" lon="3.05052">
        <ele>982</ele>
        <time>2020-10-02T07:44:38.000Z</time>
      </trkpt>
      <trkpt lat="44.06135" lon="3.05043">
        <ele>983</ele>
        <time>2020-10-02T07:44:45.000Z</time>
      </trkpt>
      <trkpt lat="44.06131" lon="3.05029">
        <ele>984.20001220703</ele>
        <time>2020-10-02T07:44:52.000Z</time>
      </trkpt>
      <trkpt lat="44.06131" lon="3.05027">
        <ele>984.40002441406</ele>
        <time>2020-10-02T07:44:53.000Z</time>
      </trkpt>
      <trkpt lat="44.0613" lon="3.05009">
        <ele>985.20001220703</ele>
        <time>2020-10-02T07:45:00.000Z</time>
      </trkpt>
      <trkpt lat="44.0613" lon="3.05006">
        <ele>985.20001220703</ele>
        <time>2020-10-02T07:45:01.000Z</time>
      </trkpt>
      <trkpt lat="44.06126" lon="3.04986">
        <ele>985.59997558594</ele>
        <time>2020-10-02T07:45:07.000Z</time>
      </trkpt>
      <trkpt lat="44.06124" lon="3.04953">
        <ele>985.79998779297</ele>
        <time>2020-10-02T07:45:16.000Z</time>
      </trkpt>
      <trkpt lat="44.06128" lon="3.04924">
        <ele>985.40002441406</ele>
        <time>2020-10-02T07:45:23.000Z</time>
      </trkpt>
      <trkpt lat="44.06135" lon="3.04883">
        <ele>985.59997558594</ele>
        <time>2020-10-02T07:45:32.000Z</time>
      </trkpt>
      <trkpt lat="44.06143" lon="3.04858">
        <ele>986</ele>
        <time>2020-10-02T07:45:37.000Z</time>
      </trkpt>
      <trkpt lat="44.06153" lon="3.04815">
        <ele>986</ele>
        <time>2020-10-02T07:45:44.000Z</time>
      </trkpt>
      <trkpt lat="44.06163" lon="3.04771">
        <ele>985.79998779297</ele>
        <time>2020-10-02T07:45:50.000Z</time>
      </trkpt>
      <trkpt lat="44.06166" lon="3.0476">
        <ele>985.20001220703</ele>
        <time>2020-10-02T07:45:53.000Z</time>
      </trkpt>
      <trkpt lat="44.06166" lon="3.04759">
        <ele>984.40002441406</ele>
        <time>2020-10-02T07:45:55.000Z</time>
      </trkpt>
      <trkpt lat="44.06166" lon="3.04759">
        <ele>983.40002441406</ele>
        <time>2020-10-02T07:45:57.000Z</time>
      </trkpt>
      <trkpt lat="44.06166" lon="3.04759">
        <ele>982.79998779297</ele>
        <time>2020-10-02T07:45:58.000Z</time>
      </trkpt>
      <trkpt lat="44.06166" lon="3.0476">
        <ele>982.20001220703</ele>
        <time>2020-10-02T07:45:59.000Z</time>
      </trkpt>
      <trkpt lat="44.06166" lon="3.04761">
        <ele>981.59997558594</ele>
        <time>2020-10-02T07:46:21.000Z</time>
      </trkpt>
      <trkpt lat="44.06166" lon="3.04762">
        <ele>982</ele>
        <time>2020-10-02T07:46:46.000Z</time>
      </trkpt>
      <trkpt lat="44.06166" lon="3.04764">
        <ele>982.20001220703</ele>
        <time>2020-10-02T07:47:17.000Z</time>
      </trkpt>
      <trkpt lat="44.06166" lon="3.04764">
        <ele>982.40002441406</ele>
        <time>2020-10-02T07:47:46.000Z</time>
      </trkpt>
      <trkpt lat="44.06166" lon="3.04765">
        <ele>982.79998779297</ele>
        <time>2020-10-02T07:48:21.000Z</time>
      </trkpt>
      <trkpt lat="44.06166" lon="3.04766">
        <ele>983</ele>
        <time>2020-10-02T07:49:01.000Z</time>
      </trkpt>
      <trkpt lat="44.06166" lon="3.04767">
        <ele>983</ele>
        <time>2020-10-02T07:49:33.000Z</time>
      </trkpt>
      <trkpt lat="44.06166" lon="3.04768">
        <ele>983.20001220703</ele>
        <time>2020-10-02T07:50:04.000Z</time>
      </trkpt>
      <trkpt lat="44.06166" lon="3.04768">
        <ele>983.20001220703</ele>
        <time>2020-10-02T07:50:37.000Z</time>
      </trkpt>
      <trkpt lat="44.06166" lon="3.04768">
        <ele>983.40002441406</ele>
        <time>2020-10-02T07:51:09.000Z</time>
      </trkpt>
      <trkpt lat="44.06166" lon="3.04768">
        <ele>983.40002441406</ele>
        <time>2020-10-02T07:51:40.000Z</time>
      </trkpt>
      <trkpt lat="44.06167" lon="3.04768">
        <ele>983.59997558594</ele>
        <time>2020-10-02T07:52:14.000Z</time>
      </trkpt>
      <trkpt lat="44.06167" lon="3.04768">
        <ele>983.79998779297</ele>
        <time>2020-10-02T07:52:15.000Z</time>
      </trkpt>
      <trkpt lat="44.06167" lon="3.04768">
        <ele>984</ele>
        <time>2020-10-02T07:52:47.000Z</time>
      </trkpt>
      <trkpt lat="44.0617" lon="3.04767">
        <ele>983.59997558594</ele>
        <time>2020-10-02T07:53:12.000Z</time>
      </trkpt>
      <trkpt lat="44.06172" lon="3.04765">
        <ele>983.59997558594</ele>
        <time>2020-10-02T07:53:14.000Z</time>
      </trkpt>
      <trkpt lat="44.0618" lon="3.04752">
        <ele>982.79998779297</ele>
        <time>2020-10-02T07:53:19.000Z</time>
      </trkpt>
      <trkpt lat="44.06182" lon="3.04748">
        <ele>982.40002441406</ele>
        <time>2020-10-02T07:53:20.000Z</time>
      </trkpt>
      <trkpt lat="44.06196" lon="3.04727">
        <ele>981.20001220703</ele>
        <time>2020-10-02T07:53:24.000Z</time>
      </trkpt>
      <trkpt lat="44.06214" lon="3.04698">
        <ele>980</ele>
        <time>2020-10-02T07:53:28.000Z</time>
      </trkpt>
      <trkpt lat="44.06218" lon="3.0469">
        <ele>979.40002441406</ele>
        <time>2020-10-02T07:53:29.000Z</time>
      </trkpt>
      <trkpt lat="44.06223" lon="3.04683">
        <ele>979</ele>
        <time>2020-10-02T07:53:30.000Z</time>
      </trkpt>
      <trkpt lat="44.06226" lon="3.04675">
        <ele>978.40002441406</ele>
        <time>2020-10-02T07:53:31.000Z</time>
      </trkpt>
      <trkpt lat="44.06232" lon="3.04658">
        <ele>977.20001220703</ele>
        <time>2020-10-02T07:53:33.000Z</time>
      </trkpt>
      <trkpt lat="44.06238" lon="3.04639">
        <ele>975.59997558594</ele>
        <time>2020-10-02T07:53:35.000Z</time>
      </trkpt>
      <trkpt lat="44.06243" lon="3.04619">
        <ele>974.40002441406</ele>
        <time>2020-10-02T07:53:37.000Z</time>
      </trkpt>
      <trkpt lat="44.06248" lon="3.04599">
        <ele>973.40002441406</ele>
        <time>2020-10-02T07:53:39.000Z</time>
      </trkpt>
      <trkpt lat="44.06258" lon="3.04558">
        <ele>972.20001220703</ele>
        <time>2020-10-02T07:53:43.000Z</time>
      </trkpt>
      <trkpt lat="44.06269" lon="3.04518">
        <ele>970.79998779297</ele>
        <time>2020-10-02T07:53:47.000Z</time>
      </trkpt>
      <trkpt lat="44.06277" lon="3.04491">
        <ele>969.20001220703</ele>
        <time>2020-10-02T07:53:50.000Z</time>
      </trkpt>
      <trkpt lat="44.06282" lon="3.04474">
        <ele>968</ele>
        <time>2020-10-02T07:53:52.000Z</time>
      </trkpt>
      <trkpt lat="44.06285" lon="3.04467">
        <ele>967.40002441406</ele>
        <time>2020-10-02T07:53:53.000Z</time>
      </trkpt>
      <trkpt lat="44.06295" lon="3.04449">
        <ele>966.40002441406</ele>
        <time>2020-10-02T07:53:57.000Z</time>
      </trkpt>
      <trkpt lat="44.063" lon="3.0444">
        <ele>965</ele>
        <time>2020-10-02T07:53:59.000Z</time>
      </trkpt>
      <trkpt lat="44.06304" lon="3.04427">
        <ele>963.40002441406</ele>
        <time>2020-10-02T07:54:02.000Z</time>
      </trkpt>
      <trkpt lat="44.06308" lon="3.04418">
        <ele>962</ele>
        <time>2020-10-02T07:54:04.000Z</time>
      </trkpt>
      <trkpt lat="44.06311" lon="3.04413">
        <ele>961.40002441406</ele>
        <time>2020-10-02T07:54:05.000Z</time>
      </trkpt>
      <trkpt lat="44.06315" lon="3.04407">
        <ele>960.40002441406</ele>
        <time>2020-10-02T07:54:07.000Z</time>
      </trkpt>
      <trkpt lat="44.06317" lon="3.04406">
        <ele>959.20001220703</ele>
        <time>2020-10-02T07:54:08.000Z</time>
      </trkpt>
      <trkpt lat="44.06319" lon="3.04406">
        <ele>957.79998779297</ele>
        <time>2020-10-02T07:54:10.000Z</time>
      </trkpt>
      <trkpt lat="44.0632" lon="3.04406">
        <ele>956.59997558594</ele>
        <time>2020-10-02T07:54:11.000Z</time>
      </trkpt>
      <trkpt lat="44.06319" lon="3.04408">
        <ele>955.20001220703</ele>
        <time>2020-10-02T07:54:13.000Z</time>
      </trkpt>
      <trkpt lat="44.06319" lon="3.04408">
        <ele>953.40002441406</ele>
        <time>2020-10-02T07:54:14.000Z</time>
      </trkpt>
      <trkpt lat="44.06318" lon="3.0441">
        <ele>952.40002441406</ele>
        <time>2020-10-02T07:54:17.000Z</time>
      </trkpt>
      <trkpt lat="44.06318" lon="3.04411">
        <ele>952</ele>
        <time>2020-10-02T07:54:25.000Z</time>
      </trkpt>
      <trkpt lat="44.06317" lon="3.04416">
        <ele>952</ele>
        <time>2020-10-02T07:54:28.000Z</time>
      </trkpt>
      <trkpt lat="44.06316" lon="3.04426">
        <ele>952</ele>
        <time>2020-10-02T07:54:31.000Z</time>
      </trkpt>
      <trkpt lat="44.0631" lon="3.04448">
        <ele>952</ele>
        <time>2020-10-02T07:54:35.000Z</time>
      </trkpt>
      <trkpt lat="44.06311" lon="3.04457">
        <ele>952</ele>
        <time>2020-10-02T07:54:37.000Z</time>
      </trkpt>
      <trkpt lat="44.06312" lon="3.04457">
        <ele>951.79998779297</ele>
        <time>2020-10-02T07:54:38.000Z</time>
      </trkpt>
      <trkpt lat="44.06318" lon="3.0445">
        <ele>951.79998779297</ele>
        <time>2020-10-02T07:54:40.000Z</time>
      </trkpt>
      <trkpt lat="44.06328" lon="3.04438">
        <ele>951.40002441406</ele>
        <time>2020-10-02T07:54:42.000Z</time>
      </trkpt>
      <trkpt lat="44.06333" lon="3.04432">
        <ele>951</ele>
        <time>2020-10-02T07:54:43.000Z</time>
      </trkpt>
      <trkpt lat="44.06337" lon="3.04425">
        <ele>950</ele>
        <time>2020-10-02T07:54:44.000Z</time>
      </trkpt>
      <trkpt lat="44.06342" lon="3.04419">
        <ele>948.79998779297</ele>
        <time>2020-10-02T07:54:45.000Z</time>
      </trkpt>
      <trkpt lat="44.06346" lon="3.04413">
        <ele>947.79998779297</ele>
        <time>2020-10-02T07:54:46.000Z</time>
      </trkpt>
      <trkpt lat="44.0635" lon="3.04405">
        <ele>946.59997558594</ele>
        <time>2020-10-02T07:54:47.000Z</time>
      </trkpt>
      <trkpt lat="44.06353" lon="3.04398">
        <ele>945.40002441406</ele>
        <time>2020-10-02T07:54:48.000Z</time>
      </trkpt>
      <trkpt lat="44.06357" lon="3.04392">
        <ele>944.59997558594</ele>
        <time>2020-10-02T07:54:49.000Z</time>
      </trkpt>
      <trkpt lat="44.0636" lon="3.04386">
        <ele>943.20001220703</ele>
        <time>2020-10-02T07:54:50.000Z</time>
      </trkpt>
      <trkpt lat="44.06363" lon="3.04381">
        <ele>941.79998779297</ele>
        <time>2020-10-02T07:54:51.000Z</time>
      </trkpt>
      <trkpt lat="44.06365" lon="3.04375">
        <ele>940.40002441406</ele>
        <time>2020-10-02T07:54:52.000Z</time>
      </trkpt>
      <trkpt lat="44.06368" lon="3.04371">
        <ele>939.20001220703</ele>
        <time>2020-10-02T07:54:53.000Z</time>
      </trkpt>
      <trkpt lat="44.06372" lon="3.04367">
        <ele>938</ele>
        <time>2020-10-02T07:54:54.000Z</time>
      </trkpt>
      <trkpt lat="44.06376" lon="3.04363">
        <ele>936.79998779297</ele>
        <time>2020-10-02T07:54:55.000Z</time>
      </trkpt>
      <trkpt lat="44.0638" lon="3.04357">
        <ele>936.20001220703</ele>
        <time>2020-10-02T07:54:56.000Z</time>
      </trkpt>
      <trkpt lat="44.06385" lon="3.04352">
        <ele>935.40002441406</ele>
        <time>2020-10-02T07:54:57.000Z</time>
      </trkpt>
      <trkpt lat="44.0639" lon="3.04347">
        <ele>934.20001220703</ele>
        <time>2020-10-02T07:54:58.000Z</time>
      </trkpt>
      <trkpt lat="44.06395" lon="3.04343">
        <ele>933.20001220703</ele>
        <time>2020-10-02T07:54:59.000Z</time>
      </trkpt>
      <trkpt lat="44.064" lon="3.04341">
        <ele>932.40002441406</ele>
        <time>2020-10-02T07:55:00.000Z</time>
      </trkpt>
      <trkpt lat="44.06406" lon="3.04341">
        <ele>931.59997558594</ele>
        <time>2020-10-02T07:55:01.000Z</time>
      </trkpt>
      <trkpt lat="44.06411" lon="3.04343">
        <ele>930.59997558594</ele>
        <time>2020-10-02T07:55:02.000Z</time>
      </trkpt>
      <trkpt lat="44.06416" lon="3.04348">
        <ele>929.40002441406</ele>
        <time>2020-10-02T07:55:03.000Z</time>
      </trkpt>
      <trkpt lat="44.0642" lon="3.04353">
        <ele>928</ele>
        <time>2020-10-02T07:55:04.000Z</time>
      </trkpt>
      <trkpt lat="44.06423" lon="3.0436">
        <ele>926.20001220703</ele>
        <time>2020-10-02T07:55:05.000Z</time>
      </trkpt>
      <trkpt lat="44.06425" lon="3.04367">
        <ele>924.79998779297</ele>
        <time>2020-10-02T07:55:06.000Z</time>
      </trkpt>
      <trkpt lat="44.06425" lon="3.04374">
        <ele>923.59997558594</ele>
        <time>2020-10-02T07:55:07.000Z</time>
      </trkpt>
      <trkpt lat="44.06423" lon="3.0439">
        <ele>921.40002441406</ele>
        <time>2020-10-02T07:55:09.000Z</time>
      </trkpt>
      <trkpt lat="44.06425" lon="3.04399">
        <ele>919.79998779297</ele>
        <time>2020-10-02T07:55:11.000Z</time>
      </trkpt>
      <trkpt lat="44.06428" lon="3.044">
        <ele>918.40002441406</ele>
        <time>2020-10-02T07:55:12.000Z</time>
      </trkpt>
      <trkpt lat="44.06436" lon="3.04397">
        <ele>917.40002441406</ele>
        <time>2020-10-02T07:55:14.000Z</time>
      </trkpt>
      <trkpt lat="44.06439" lon="3.04393">
        <ele>917</ele>
        <time>2020-10-02T07:55:15.000Z</time>
      </trkpt>
      <trkpt lat="44.06444" lon="3.04383">
        <ele>915.20001220703</ele>
        <time>2020-10-02T07:55:18.000Z</time>
      </trkpt>
      <trkpt lat="44.06445" lon="3.04381">
        <ele>914</ele>
        <time>2020-10-02T07:55:19.000Z</time>
      </trkpt>
      <trkpt lat="44.0645" lon="3.04376">
        <ele>912</ele>
        <time>2020-10-02T07:55:21.000Z</time>
      </trkpt>
      <trkpt lat="44.06452" lon="3.04376">
        <ele>911</ele>
        <time>2020-10-02T07:55:22.000Z</time>
      </trkpt>
      <trkpt lat="44.06456" lon="3.04378">
        <ele>910.40002441406</ele>
        <time>2020-10-02T07:55:23.000Z</time>
      </trkpt>
      <trkpt lat="44.06464" lon="3.04383">
        <ele>908.59997558594</ele>
        <time>2020-10-02T07:55:25.000Z</time>
      </trkpt>
      <trkpt lat="44.06468" lon="3.04384">
        <ele>907.59997558594</ele>
        <time>2020-10-02T07:55:26.000Z</time>
      </trkpt>
      <trkpt lat="44.06473" lon="3.04383">
        <ele>906.59997558594</ele>
        <time>2020-10-02T07:55:27.000Z</time>
      </trkpt>
      <trkpt lat="44.06479" lon="3.0438">
        <ele>905.40002441406</ele>
        <time>2020-10-02T07:55:29.000Z</time>
      </trkpt>
      <trkpt lat="44.0648" lon="3.04379">
        <ele>904</ele>
        <time>2020-10-02T07:55:30.000Z</time>
      </trkpt>
      <trkpt lat="44.06482" lon="3.04378">
        <ele>902.79998779297</ele>
        <time>2020-10-02T07:55:31.000Z</time>
      </trkpt>
      <trkpt lat="44.06484" lon="3.04375">
        <ele>901.59997558594</ele>
        <time>2020-10-02T07:55:34.000Z</time>
      </trkpt>
      <trkpt lat="44.06484" lon="3.04374">
        <ele>901.59997558594</ele>
        <time>2020-10-02T07:55:35.000Z</time>
      </trkpt>
      <trkpt lat="44.06486" lon="3.0437">
        <ele>901.59997558594</ele>
        <time>2020-10-02T07:55:41.000Z</time>
      </trkpt>
      <trkpt lat="44.06488" lon="3.04366">
        <ele>902</ele>
        <time>2020-10-02T07:55:43.000Z</time>
      </trkpt>
      <trkpt lat="44.06496" lon="3.04353">
        <ele>902</ele>
        <time>2020-10-02T07:55:48.000Z</time>
      </trkpt>
      <trkpt lat="44.0651" lon="3.04344">
        <ele>902</ele>
        <time>2020-10-02T07:55:54.000Z</time>
      </trkpt>
      <trkpt lat="44.06515" lon="3.04336">
        <ele>900.59997558594</ele>
        <time>2020-10-02T07:55:56.000Z</time>
      </trkpt>
      <trkpt lat="44.06517" lon="3.04331">
        <ele>899.20001220703</ele>
        <time>2020-10-02T07:55:57.000Z</time>
      </trkpt>
      <trkpt lat="44.06519" lon="3.04328">
        <ele>898</ele>
        <time>2020-10-02T07:55:58.000Z</time>
      </trkpt>
      <trkpt lat="44.06522" lon="3.04324">
        <ele>896.59997558594</ele>
        <time>2020-10-02T07:55:59.000Z</time>
      </trkpt>
      <trkpt lat="44.06525" lon="3.0432">
        <ele>895</ele>
        <time>2020-10-02T07:56:00.000Z</time>
      </trkpt>
      <trkpt lat="44.06528" lon="3.04316">
        <ele>893.79998779297</ele>
        <time>2020-10-02T07:56:01.000Z</time>
      </trkpt>
      <trkpt lat="44.0653" lon="3.04311">
        <ele>892.59997558594</ele>
        <time>2020-10-02T07:56:02.000Z</time>
      </trkpt>
      <trkpt lat="44.06532" lon="3.04307">
        <ele>891.59997558594</ele>
        <time>2020-10-02T07:56:03.000Z</time>
      </trkpt>
      <trkpt lat="44.06536" lon="3.04302">
        <ele>890.79998779297</ele>
        <time>2020-10-02T07:56:04.000Z</time>
      </trkpt>
      <trkpt lat="44.06537" lon="3.04297">
        <ele>890</ele>
        <time>2020-10-02T07:56:05.000Z</time>
      </trkpt>
      <trkpt lat="44.06539" lon="3.04292">
        <ele>888.79998779297</ele>
        <time>2020-10-02T07:56:06.000Z</time>
      </trkpt>
      <trkpt lat="44.06541" lon="3.04287">
        <ele>887.59997558594</ele>
        <time>2020-10-02T07:56:07.000Z</time>
      </trkpt>
      <trkpt lat="44.06543" lon="3.04284">
        <ele>886.59997558594</ele>
        <time>2020-10-02T07:56:08.000Z</time>
      </trkpt>
      <trkpt lat="44.06544" lon="3.04282">
        <ele>885.79998779297</ele>
        <time>2020-10-02T07:56:09.000Z</time>
      </trkpt>
      <trkpt lat="44.06546" lon="3.04283">
        <ele>885</ele>
        <time>2020-10-02T07:56:10.000Z</time>
      </trkpt>
      <trkpt lat="44.06548" lon="3.04286">
        <ele>882.59997558594</ele>
        <time>2020-10-02T07:56:11.000Z</time>
      </trkpt>
      <trkpt lat="44.06549" lon="3.04289">
        <ele>881.40002441406</ele>
        <time>2020-10-02T07:56:12.000Z</time>
      </trkpt>
      <trkpt lat="44.06552" lon="3.04291">
        <ele>879.79998779297</ele>
        <time>2020-10-02T07:56:13.000Z</time>
      </trkpt>
      <trkpt lat="44.06553" lon="3.04293">
        <ele>878.59997558594</ele>
        <time>2020-10-02T07:56:14.000Z</time>
      </trkpt>
      <trkpt lat="44.06555" lon="3.04293">
        <ele>877.59997558594</ele>
        <time>2020-10-02T07:56:15.000Z</time>
      </trkpt>
      <trkpt lat="44.06556" lon="3.04292">
        <ele>876.79998779297</ele>
        <time>2020-10-02T07:56:16.000Z</time>
      </trkpt>
      <trkpt lat="44.06558" lon="3.0429">
        <ele>876.40002441406</ele>
        <time>2020-10-02T07:56:17.000Z</time>
      </trkpt>
      <trkpt lat="44.06561" lon="3.04289">
        <ele>875</ele>
        <time>2020-10-02T07:56:20.000Z</time>
      </trkpt>
      <trkpt lat="44.06563" lon="3.0429">
        <ele>874.40002441406</ele>
        <time>2020-10-02T07:56:21.000Z</time>
      </trkpt>
      <trkpt lat="44.06564" lon="3.04293">
        <ele>873.40002441406</ele>
        <time>2020-10-02T07:56:22.000Z</time>
      </trkpt>
      <trkpt lat="44.06568" lon="3.04297">
        <ele>872</ele>
        <time>2020-10-02T07:56:24.000Z</time>
      </trkpt>
      <trkpt lat="44.06571" lon="3.04298">
        <ele>871.40002441406</ele>
        <time>2020-10-02T07:56:25.000Z</time>
      </trkpt>
      <trkpt lat="44.06575" lon="3.04298">
        <ele>870.79998779297</ele>
        <time>2020-10-02T07:56:26.000Z</time>
      </trkpt>
      <trkpt lat="44.06589" lon="3.04299">
        <ele>869.40002441406</ele>
        <time>2020-10-02T07:56:28.000Z</time>
      </trkpt>
      <trkpt lat="44.06595" lon="3.04299">
        <ele>868.79998779297</ele>
        <time>2020-10-02T07:56:29.000Z</time>
      </trkpt>
      <trkpt lat="44.066" lon="3.043">
        <ele>868</ele>
        <time>2020-10-02T07:56:30.000Z</time>
      </trkpt>
      <trkpt lat="44.06602" lon="3.04299">
        <ele>867</ele>
        <time>2020-10-02T07:56:31.000Z</time>
      </trkpt>
      <trkpt lat="44.06604" lon="3.04299">
        <ele>866.20001220703</ele>
        <time>2020-10-02T07:56:32.000Z</time>
      </trkpt>
      <trkpt lat="44.06605" lon="3.04299">
        <ele>865.20001220703</ele>
        <time>2020-10-02T07:56:33.000Z</time>
      </trkpt>
      <trkpt lat="44.06605" lon="3.043">
        <ele>863.79998779297</ele>
        <time>2020-10-02T07:56:34.000Z</time>
      </trkpt>
      <trkpt lat="44.06605" lon="3.04301">
        <ele>862.40002441406</ele>
        <time>2020-10-02T07:56:35.000Z</time>
      </trkpt>
      <trkpt lat="44.06605" lon="3.04302">
        <ele>861.40002441406</ele>
        <time>2020-10-02T07:56:37.000Z</time>
      </trkpt>
      <trkpt lat="44.06606" lon="3.04303">
        <ele>861.20001220703</ele>
        <time>2020-10-02T07:56:38.000Z</time>
      </trkpt>
      <trkpt lat="44.06606" lon="3.04303">
        <ele>860.79998779297</ele>
        <time>2020-10-02T07:56:58.000Z</time>
      </trkpt>
      <trkpt lat="44.06606" lon="3.04303">
        <ele>860.40002441406</ele>
        <time>2020-10-02T07:57:23.000Z</time>
      </trkpt>
      <trkpt lat="44.06606" lon="3.04303">
        <ele>860</ele>
        <time>2020-10-02T07:57:27.000Z</time>
      </trkpt>
      <trkpt lat="44.06606" lon="3.04303">
        <ele>861</ele>
        <time>2020-10-02T07:57:54.000Z</time>
      </trkpt>
      <trkpt lat="44.06606" lon="3.04302">
        <ele>860.40002441406</ele>
        <time>2020-10-02T07:58:20.000Z</time>
      </trkpt>
      <trkpt lat="44.06606" lon="3.04302">
        <ele>860.59997558594</ele>
        <time>2020-10-02T07:58:47.000Z</time>
      </trkpt>
      <trkpt lat="44.06606" lon="3.04302">
        <ele>861</ele>
        <time>2020-10-02T07:59:27.000Z</time>
      </trkpt>
      <trkpt lat="44.06606" lon="3.04302">
        <ele>861</ele>
        <time>2020-10-02T07:59:47.000Z</time>
      </trkpt>
      <trkpt lat="44.06606" lon="3.04302">
        <ele>861</ele>
        <time>2020-10-02T08:00:02.000Z</time>
      </trkpt>
      <trkpt lat="44.06607" lon="3.04306">
        <ele>861</ele>
        <time>2020-10-02T08:00:12.000Z</time>
      </trkpt>
      <trkpt lat="44.06611" lon="3.04312">
        <ele>861</ele>
        <time>2020-10-02T08:00:14.000Z</time>
      </trkpt>
      <trkpt lat="44.06625" lon="3.0432">
        <ele>861</ele>
        <time>2020-10-02T08:00:17.000Z</time>
      </trkpt>
      <trkpt lat="44.06631" lon="3.04323">
        <ele>861</ele>
        <time>2020-10-02T08:00:18.000Z</time>
      </trkpt>
      <trkpt lat="44.06654" lon="3.04336">
        <ele>859.40002441406</ele>
        <time>2020-10-02T08:00:22.000Z</time>
      </trkpt>
      <trkpt lat="44.0666" lon="3.04338">
        <ele>858.59997558594</ele>
        <time>2020-10-02T08:00:23.000Z</time>
      </trkpt>
      <trkpt lat="44.06664" lon="3.04339">
        <ele>857.79998779297</ele>
        <time>2020-10-02T08:00:24.000Z</time>
      </trkpt>
      <trkpt lat="44.06671" lon="3.04337">
        <ele>855.79998779297</ele>
        <time>2020-10-02T08:00:26.000Z</time>
      </trkpt>
      <trkpt lat="44.06676" lon="3.0433">
        <ele>853.79998779297</ele>
        <time>2020-10-02T08:00:28.000Z</time>
      </trkpt>
      <trkpt lat="44.0668" lon="3.04326">
        <ele>853.20001220703</ele>
        <time>2020-10-02T08:00:29.000Z</time>
      </trkpt>
      <trkpt lat="44.06685" lon="3.04321">
        <ele>852.40002441406</ele>
        <time>2020-10-02T08:00:30.000Z</time>
      </trkpt>
      <trkpt lat="44.06694" lon="3.04314">
        <ele>851.40002441406</ele>
        <time>2020-10-02T08:00:32.000Z</time>
      </trkpt>
      <trkpt lat="44.06705" lon="3.0431">
        <ele>850.59997558594</ele>
        <time>2020-10-02T08:00:34.000Z</time>
      </trkpt>
      <trkpt lat="44.06711" lon="3.04309">
        <ele>850</ele>
        <time>2020-10-02T08:00:35.000Z</time>
      </trkpt>
      <trkpt lat="44.06722" lon="3.04309">
        <ele>848.59997558594</ele>
        <time>2020-10-02T08:00:37.000Z</time>
      </trkpt>
      <trkpt lat="44.06726" lon="3.04309">
        <ele>848.20001220703</ele>
        <time>2020-10-02T08:00:38.000Z</time>
      </trkpt>
      <trkpt lat="44.06735" lon="3.04304">
        <ele>847.40002441406</ele>
        <time>2020-10-02T08:00:40.000Z</time>
      </trkpt>
      <trkpt lat="44.06744" lon="3.04297">
        <ele>846.79998779297</ele>
        <time>2020-10-02T08:00:42.000Z</time>
      </trkpt>
      <trkpt lat="44.06749" lon="3.04292">
        <ele>846.20001220703</ele>
        <time>2020-10-02T08:00:43.000Z</time>
      </trkpt>
      <trkpt lat="44.06765" lon="3.04277">
        <ele>845</ele>
        <time>2020-10-02T08:00:46.000Z</time>
      </trkpt>
      <trkpt lat="44.06771" lon="3.04271">
        <ele>844.59997558594</ele>
        <time>2020-10-02T08:00:47.000Z</time>
      </trkpt>
      <trkpt lat="44.06782" lon="3.04262">
        <ele>843.59997558594</ele>
        <time>2020-10-02T08:00:49.000Z</time>
      </trkpt>
      <trkpt lat="44.06795" lon="3.04257">
        <ele>842.20001220703</ele>
        <time>2020-10-02T08:00:51.000Z</time>
      </trkpt>
      <trkpt lat="44.06807" lon="3.04249">
        <ele>840.79998779297</ele>
        <time>2020-10-02T08:00:54.000Z</time>
      </trkpt>
      <trkpt lat="44.06819" lon="3.04242">
        <ele>840.20001220703</ele>
        <time>2020-10-02T08:00:56.000Z</time>
      </trkpt>
      <trkpt lat="44.06831" lon="3.04239">
        <ele>839.40002441406</ele>
        <time>2020-10-02T08:00:58.000Z</time>
      </trkpt>
      <trkpt lat="44.06841" lon="3.04235">
        <ele>837.59997558594</ele>
        <time>2020-10-02T08:01:00.000Z</time>
      </trkpt>
      <trkpt lat="44.06844" lon="3.04233">
        <ele>837.20001220703</ele>
        <time>2020-10-02T08:01:01.000Z</time>
      </trkpt>
      <trkpt lat="44.06859" lon="3.04234">
        <ele>837</ele>
        <time>2020-10-02T08:01:05.000Z</time>
      </trkpt>
      <trkpt lat="44.06871" lon="3.04238">
        <ele>837.40002441406</ele>
        <time>2020-10-02T08:01:11.000Z</time>
      </trkpt>
      <trkpt lat="44.06876" lon="3.04241">
        <ele>838.59997558594</ele>
        <time>2020-10-02T08:01:16.000Z</time>
      </trkpt>
      <trkpt lat="44.06878" lon="3.04244">
        <ele>840</ele>
        <time>2020-10-02T08:01:20.000Z</time>
      </trkpt>
      <trkpt lat="44.06878" lon="3.04244">
        <ele>840.20001220703</ele>
        <time>2020-10-02T08:01:21.000Z</time>
      </trkpt>
      <trkpt lat="44.06882" lon="3.04248">
        <ele>840.79998779297</ele>
        <time>2020-10-02T08:01:32.000Z</time>
      </trkpt>
      <trkpt lat="44.06896" lon="3.04252">
        <ele>840</ele>
        <time>2020-10-02T08:01:38.000Z</time>
      </trkpt>
      <trkpt lat="44.06906" lon="3.04254">
        <ele>839.59997558594</ele>
        <time>2020-10-02T08:01:40.000Z</time>
      </trkpt>
      <trkpt lat="44.06912" lon="3.04253">
        <ele>839.40002441406</ele>
        <time>2020-10-02T08:01:41.000Z</time>
      </trkpt>
      <trkpt lat="44.06936" lon="3.04261">
        <ele>838.79998779297</ele>
        <time>2020-10-02T08:01:44.000Z</time>
      </trkpt>
      <trkpt lat="44.06952" lon="3.04275">
        <ele>837.40002441406</ele>
        <time>2020-10-02T08:01:47.000Z</time>
      </trkpt>
      <trkpt lat="44.06963" lon="3.04279">
        <ele>836</ele>
        <time>2020-10-02T08:01:49.000Z</time>
      </trkpt>
      <trkpt lat="44.06973" lon="3.04279">
        <ele>834.40002441406</ele>
        <time>2020-10-02T08:01:51.000Z</time>
      </trkpt>
      <trkpt lat="44.06982" lon="3.04276">
        <ele>833</ele>
        <time>2020-10-02T08:01:53.000Z</time>
      </trkpt>
      <trkpt lat="44.06991" lon="3.04269">
        <ele>830.79998779297</ele>
        <time>2020-10-02T08:01:55.000Z</time>
      </trkpt>
      <trkpt lat="44.06996" lon="3.04264">
        <ele>829.59997558594</ele>
        <time>2020-10-02T08:01:56.000Z</time>
      </trkpt>
      <trkpt lat="44.07008" lon="3.04257">
        <ele>827.59997558594</ele>
        <time>2020-10-02T08:01:58.000Z</time>
      </trkpt>
      <trkpt lat="44.07021" lon="3.04251">
        <ele>824</ele>
        <time>2020-10-02T08:02:00.000Z</time>
      </trkpt>
      <trkpt lat="44.07027" lon="3.04247">
        <ele>823</ele>
        <time>2020-10-02T08:02:01.000Z</time>
      </trkpt>
      <trkpt lat="44.07042" lon="3.04238">
        <ele>821.59997558594</ele>
        <time>2020-10-02T08:02:03.000Z</time>
      </trkpt>
      <trkpt lat="44.07049" lon="3.04234">
        <ele>820.20001220703</ele>
        <time>2020-10-02T08:02:04.000Z</time>
      </trkpt>
      <trkpt lat="44.07057" lon="3.04229">
        <ele>818.59997558594</ele>
        <time>2020-10-02T08:02:05.000Z</time>
      </trkpt>
      <trkpt lat="44.07064" lon="3.04226">
        <ele>816.79998779297</ele>
        <time>2020-10-02T08:02:06.000Z</time>
      </trkpt>
      <trkpt lat="44.07072" lon="3.04222">
        <ele>815.59997558594</ele>
        <time>2020-10-02T08:02:07.000Z</time>
      </trkpt>
      <trkpt lat="44.07088" lon="3.04216">
        <ele>813.40002441406</ele>
        <time>2020-10-02T08:02:09.000Z</time>
      </trkpt>
      <trkpt lat="44.07095" lon="3.04213">
        <ele>812</ele>
        <time>2020-10-02T08:02:10.000Z</time>
      </trkpt>
      <trkpt lat="44.07103" lon="3.04211">
        <ele>809.59997558594</ele>
        <time>2020-10-02T08:02:11.000Z</time>
      </trkpt>
      <trkpt lat="44.07111" lon="3.0421">
        <ele>807.59997558594</ele>
        <time>2020-10-02T08:02:12.000Z</time>
      </trkpt>
      <trkpt lat="44.07118" lon="3.04208">
        <ele>806</ele>
        <time>2020-10-02T08:02:13.000Z</time>
      </trkpt>
      <trkpt lat="44.07125" lon="3.04205">
        <ele>804.40002441406</ele>
        <time>2020-10-02T08:02:14.000Z</time>
      </trkpt>
      <trkpt lat="44.07132" lon="3.04202">
        <ele>802</ele>
        <time>2020-10-02T08:02:15.000Z</time>
      </trkpt>
      <trkpt lat="44.07138" lon="3.04201">
        <ele>799.79998779297</ele>
        <time>2020-10-02T08:02:16.000Z</time>
      </trkpt>
      <trkpt lat="44.07145" lon="3.04199">
        <ele>798</ele>
        <time>2020-10-02T08:02:17.000Z</time>
      </trkpt>
      <trkpt lat="44.07153" lon="3.04196">
        <ele>796.20001220703</ele>
        <time>2020-10-02T08:02:18.000Z</time>
      </trkpt>
      <trkpt lat="44.07161" lon="3.04194">
        <ele>794.20001220703</ele>
        <time>2020-10-02T08:02:19.000Z</time>
      </trkpt>
      <trkpt lat="44.07167" lon="3.0419">
        <ele>792.40002441406</ele>
        <time>2020-10-02T08:02:20.000Z</time>
      </trkpt>
      <trkpt lat="44.07174" lon="3.04188">
        <ele>790.79998779297</ele>
        <time>2020-10-02T08:02:21.000Z</time>
      </trkpt>
      <trkpt lat="44.0718" lon="3.04185">
        <ele>789.79998779297</ele>
        <time>2020-10-02T08:02:22.000Z</time>
      </trkpt>
      <trkpt lat="44.07185" lon="3.04182">
        <ele>788.79998779297</ele>
        <time>2020-10-02T08:02:23.000Z</time>
      </trkpt>
      <trkpt lat="44.07191" lon="3.04178">
        <ele>787.40002441406</ele>
        <time>2020-10-02T08:02:24.000Z</time>
      </trkpt>
      <trkpt lat="44.07197" lon="3.04175">
        <ele>785.59997558594</ele>
        <time>2020-10-02T08:02:25.000Z</time>
      </trkpt>
      <trkpt lat="44.07204" lon="3.04173">
        <ele>784.20001220703</ele>
        <time>2020-10-02T08:02:26.000Z</time>
      </trkpt>
      <trkpt lat="44.07212" lon="3.0417">
        <ele>782.79998779297</ele>
        <time>2020-10-02T08:02:27.000Z</time>
      </trkpt>
      <trkpt lat="44.07218" lon="3.04167">
        <ele>780.20001220703</ele>
        <time>2020-10-02T08:02:28.000Z</time>
      </trkpt>
      <trkpt lat="44.07224" lon="3.04163">
        <ele>778.79998779297</ele>
        <time>2020-10-02T08:02:29.000Z</time>
      </trkpt>
      <trkpt lat="44.07231" lon="3.04159">
        <ele>777.40002441406</ele>
        <time>2020-10-02T08:02:30.000Z</time>
      </trkpt>
      <trkpt lat="44.07236" lon="3.04154">
        <ele>776</ele>
        <time>2020-10-02T08:02:31.000Z</time>
      </trkpt>
      <trkpt lat="44.07243" lon="3.04149">
        <ele>774.59997558594</ele>
        <time>2020-10-02T08:02:32.000Z</time>
      </trkpt>
      <trkpt lat="44.07249" lon="3.04144">
        <ele>772.40002441406</ele>
        <time>2020-10-02T08:02:33.000Z</time>
      </trkpt>
      <trkpt lat="44.07254" lon="3.04139">
        <ele>770.40002441406</ele>
        <time>2020-10-02T08:02:34.000Z</time>
      </trkpt>
      <trkpt lat="44.07259" lon="3.04133">
        <ele>768.40002441406</ele>
        <time>2020-10-02T08:02:35.000Z</time>
      </trkpt>
      <trkpt lat="44.07264" lon="3.04127">
        <ele>766.79998779297</ele>
        <time>2020-10-02T08:02:36.000Z</time>
      </trkpt>
      <trkpt lat="44.07269" lon="3.04121">
        <ele>765.20001220703</ele>
        <time>2020-10-02T08:02:37.000Z</time>
      </trkpt>
      <trkpt lat="44.07273" lon="3.04113">
        <ele>763.40002441406</ele>
        <time>2020-10-02T08:02:38.000Z</time>
      </trkpt>
      <trkpt lat="44.07278" lon="3.04106">
        <ele>761.59997558594</ele>
        <time>2020-10-02T08:02:39.000Z</time>
      </trkpt>
      <trkpt lat="44.07282" lon="3.041">
        <ele>759.79998779297</ele>
        <time>2020-10-02T08:02:40.000Z</time>
      </trkpt>
      <trkpt lat="44.07286" lon="3.04094">
        <ele>758.40002441406</ele>
        <time>2020-10-02T08:02:41.000Z</time>
      </trkpt>
      <trkpt lat="44.0729" lon="3.04087">
        <ele>756.59997558594</ele>
        <time>2020-10-02T08:02:42.000Z</time>
      </trkpt>
      <trkpt lat="44.07293" lon="3.04081">
        <ele>755.40002441406</ele>
        <time>2020-10-02T08:02:43.000Z</time>
      </trkpt>
      <trkpt lat="44.07296" lon="3.04074">
        <ele>753.79998779297</ele>
        <time>2020-10-02T08:02:44.000Z</time>
      </trkpt>
      <trkpt lat="44.07298" lon="3.04068">
        <ele>752.40002441406</ele>
        <time>2020-10-02T08:02:45.000Z</time>
      </trkpt>
      <trkpt lat="44.073" lon="3.04063">
        <ele>751.20001220703</ele>
        <time>2020-10-02T08:02:46.000Z</time>
      </trkpt>
      <trkpt lat="44.07301" lon="3.04059">
        <ele>749.79998779297</ele>
        <time>2020-10-02T08:02:47.000Z</time>
      </trkpt>
      <trkpt lat="44.07302" lon="3.04054">
        <ele>748.20001220703</ele>
        <time>2020-10-02T08:02:48.000Z</time>
      </trkpt>
      <trkpt lat="44.07303" lon="3.04051">
        <ele>746.59997558594</ele>
        <time>2020-10-02T08:02:49.000Z</time>
      </trkpt>
      <trkpt lat="44.07305" lon="3.04046">
        <ele>745.20001220703</ele>
        <time>2020-10-02T08:02:50.000Z</time>
      </trkpt>
      <trkpt lat="44.07308" lon="3.04042">
        <ele>744</ele>
        <time>2020-10-02T08:02:51.000Z</time>
      </trkpt>
      <trkpt lat="44.0731" lon="3.04041">
        <ele>742.79998779297</ele>
        <time>2020-10-02T08:02:52.000Z</time>
      </trkpt>
      <trkpt lat="44.07316" lon="3.04046">
        <ele>741.40002441406</ele>
        <time>2020-10-02T08:02:54.000Z</time>
      </trkpt>
      <trkpt lat="44.07325" lon="3.04051">
        <ele>740.20001220703</ele>
        <time>2020-10-02T08:02:56.000Z</time>
      </trkpt>
      <trkpt lat="44.07331" lon="3.04054">
        <ele>739.40002441406</ele>
        <time>2020-10-02T08:02:57.000Z</time>
      </trkpt>
      <trkpt lat="44.07336" lon="3.04056">
        <ele>739</ele>
        <time>2020-10-02T08:02:58.000Z</time>
      </trkpt>
      <trkpt lat="44.07339" lon="3.04066">
        <ele>737.59997558594</ele>
        <time>2020-10-02T08:03:00.000Z</time>
      </trkpt>
      <trkpt lat="44.07338" lon="3.04076">
        <ele>735.59997558594</ele>
        <time>2020-10-02T08:03:02.000Z</time>
      </trkpt>
      <trkpt lat="44.07337" lon="3.04081">
        <ele>734</ele>
        <time>2020-10-02T08:03:03.000Z</time>
      </trkpt>
      <trkpt lat="44.07336" lon="3.04086">
        <ele>732.40002441406</ele>
        <time>2020-10-02T08:03:04.000Z</time>
      </trkpt>
      <trkpt lat="44.07333" lon="3.04092">
        <ele>731.20001220703</ele>
        <time>2020-10-02T08:03:06.000Z</time>
      </trkpt>
      <trkpt lat="44.07327" lon="3.04105">
        <ele>730.79998779297</ele>
        <time>2020-10-02T08:03:10.000Z</time>
      </trkpt>
      <trkpt lat="44.0732" lon="3.04115">
        <ele>730.79998779297</ele>
        <time>2020-10-02T08:03:16.000Z</time>
      </trkpt>
      <trkpt lat="44.07319" lon="3.04113">
        <ele>731</ele>
        <time>2020-10-02T08:03:25.000Z</time>
      </trkpt>
      <trkpt lat="44.07318" lon="3.04112">
        <ele>731</ele>
        <time>2020-10-02T08:03:46.000Z</time>
      </trkpt>
      <trkpt lat="44.07319" lon="3.04112">
        <ele>731.20001220703</ele>
        <time>2020-10-02T08:04:00.000Z</time>
      </trkpt>
      <trkpt lat="44.0732" lon="3.04112">
        <ele>731.59997558594</ele>
        <time>2020-10-02T08:04:21.000Z</time>
      </trkpt>
      <trkpt lat="44.07317" lon="3.04119">
        <ele>731.59997558594</ele>
        <time>2020-10-02T08:04:39.000Z</time>
      </trkpt>
      <trkpt lat="44.07312" lon="3.04137">
        <ele>731.59997558594</ele>
        <time>2020-10-02T08:04:43.000Z</time>
      </trkpt>
      <trkpt lat="44.07304" lon="3.04175">
        <ele>731.59997558594</ele>
        <time>2020-10-02T08:04:47.000Z</time>
      </trkpt>
      <trkpt lat="44.07293" lon="3.04209">
        <ele>730.20001220703</ele>
        <time>2020-10-02T08:04:51.000Z</time>
      </trkpt>
      <trkpt lat="44.07292" lon="3.04215">
        <ele>729.79998779297</ele>
        <time>2020-10-02T08:04:52.000Z</time>
      </trkpt>
      <trkpt lat="44.07291" lon="3.04222">
        <ele>728.59997558594</ele>
        <time>2020-10-02T08:04:53.000Z</time>
      </trkpt>
      <trkpt lat="44.07291" lon="3.04229">
        <ele>726.40002441406</ele>
        <time>2020-10-02T08:04:54.000Z</time>
      </trkpt>
      <trkpt lat="44.07288" lon="3.04242">
        <ele>725.40002441406</ele>
        <time>2020-10-02T08:04:56.000Z</time>
      </trkpt>
      <trkpt lat="44.07272" lon="3.04266">
        <ele>724.20001220703</ele>
        <time>2020-10-02T08:05:00.000Z</time>
      </trkpt>
      <trkpt lat="44.07264" lon="3.04275">
        <ele>723</ele>
        <time>2020-10-02T08:05:02.000Z</time>
      </trkpt>
      <trkpt lat="44.07257" lon="3.04285">
        <ele>722</ele>
        <time>2020-10-02T08:05:04.000Z</time>
      </trkpt>
      <trkpt lat="44.07254" lon="3.0429">
        <ele>721.79998779297</ele>
        <time>2020-10-02T08:05:05.000Z</time>
      </trkpt>
      <trkpt lat="44.07247" lon="3.04311">
        <ele>721</ele>
        <time>2020-10-02T08:05:09.000Z</time>
      </trkpt>
      <trkpt lat="44.07248" lon="3.04336">
        <ele>719.79998779297</ele>
        <time>2020-10-02T08:05:13.000Z</time>
      </trkpt>
      <trkpt lat="44.07249" lon="3.04342">
        <ele>719.59997558594</ele>
        <time>2020-10-02T08:05:14.000Z</time>
      </trkpt>
      <trkpt lat="44.07253" lon="3.04363">
        <ele>719</ele>
        <time>2020-10-02T08:05:17.000Z</time>
      </trkpt>
      <trkpt lat="44.07254" lon="3.0437">
        <ele>718.59997558594</ele>
        <time>2020-10-02T08:05:18.000Z</time>
      </trkpt>
      <trkpt lat="44.07253" lon="3.04377">
        <ele>718.20001220703</ele>
        <time>2020-10-02T08:05:19.000Z</time>
      </trkpt>
      <trkpt lat="44.07252" lon="3.04382">
        <ele>717.20001220703</ele>
        <time>2020-10-02T08:05:20.000Z</time>
      </trkpt>
      <trkpt lat="44.0725" lon="3.04387">
        <ele>715.59997558594</ele>
        <time>2020-10-02T08:05:21.000Z</time>
      </trkpt>
      <trkpt lat="44.07248" lon="3.04389">
        <ele>714.40002441406</ele>
        <time>2020-10-02T08:05:22.000Z</time>
      </trkpt>
      <trkpt lat="44.07247" lon="3.0439">
        <ele>712</ele>
        <time>2020-10-02T08:05:23.000Z</time>
      </trkpt>
      <trkpt lat="44.07246" lon="3.04391">
        <ele>710.40002441406</ele>
        <time>2020-10-02T08:05:24.000Z</time>
      </trkpt>
      <trkpt lat="44.07245" lon="3.04392">
        <ele>709.40002441406</ele>
        <time>2020-10-02T08:05:25.000Z</time>
      </trkpt>
      <trkpt lat="44.07244" lon="3.04392">
        <ele>709</ele>
        <time>2020-10-02T08:05:26.000Z</time>
      </trkpt>
      <trkpt lat="44.07244" lon="3.04392">
        <ele>708.79998779297</ele>
        <time>2020-10-02T08:05:27.000Z</time>
      </trkpt>
      <trkpt lat="44.07243" lon="3.04392">
        <ele>709.20001220703</ele>
        <time>2020-10-02T08:05:38.000Z</time>
      </trkpt>
      <trkpt lat="44.07242" lon="3.04398">
        <ele>709.79998779297</ele>
        <time>2020-10-02T08:06:02.000Z</time>
      </trkpt>
      <trkpt lat="44.0724" lon="3.04413">
        <ele>709.59997558594</ele>
        <time>2020-10-02T08:06:05.000Z</time>
      </trkpt>
      <trkpt lat="44.07237" lon="3.0442">
        <ele>709.59997558594</ele>
        <time>2020-10-02T08:06:06.000Z</time>
      </trkpt>
      <trkpt lat="44.07226" lon="3.04438">
        <ele>709.59997558594</ele>
        <time>2020-10-02T08:06:09.000Z</time>
      </trkpt>
      <trkpt lat="44.07222" lon="3.04445">
        <ele>709.40002441406</ele>
        <time>2020-10-02T08:06:10.000Z</time>
      </trkpt>
      <trkpt lat="44.07208" lon="3.04467">
        <ele>708</ele>
        <time>2020-10-02T08:06:13.000Z</time>
      </trkpt>
      <trkpt lat="44.07204" lon="3.04475">
        <ele>707.40002441406</ele>
        <time>2020-10-02T08:06:14.000Z</time>
      </trkpt>
      <trkpt lat="44.07198" lon="3.04484">
        <ele>706.79998779297</ele>
        <time>2020-10-02T08:06:15.000Z</time>
      </trkpt>
      <trkpt lat="44.07186" lon="3.04501">
        <ele>705.79998779297</ele>
        <time>2020-10-02T08:06:17.000Z</time>
      </trkpt>
      <trkpt lat="44.07182" lon="3.04507">
        <ele>705.59997558594</ele>
        <time>2020-10-02T08:06:18.000Z</time>
      </trkpt>
      <trkpt lat="44.07174" lon="3.04516">
        <ele>703.79998779297</ele>
        <time>2020-10-02T08:06:21.000Z</time>
      </trkpt>
      <trkpt lat="44.07172" lon="3.04519">
        <ele>702.20001220703</ele>
        <time>2020-10-02T08:06:23.000Z</time>
      </trkpt>
      <trkpt lat="44.07171" lon="3.0452">
        <ele>701</ele>
        <time>2020-10-02T08:06:24.000Z</time>
      </trkpt>
      <trkpt lat="44.07171" lon="3.04521">
        <ele>699.59997558594</ele>
        <time>2020-10-02T08:06:26.000Z</time>
      </trkpt>
      <trkpt lat="44.07168" lon="3.04526">
        <ele>698.59997558594</ele>
        <time>2020-10-02T08:06:40.000Z</time>
      </trkpt>
      <trkpt lat="44.07156" lon="3.04534">
        <ele>698.59997558594</ele>
        <time>2020-10-02T08:06:46.000Z</time>
      </trkpt>
      <trkpt lat="44.07147" lon="3.0454">
        <ele>698.20001220703</ele>
        <time>2020-10-02T08:06:49.000Z</time>
      </trkpt>
      <trkpt lat="44.07136" lon="3.04546">
        <ele>698.20001220703</ele>
        <time>2020-10-02T08:06:53.000Z</time>
      </trkpt>
      <trkpt lat="44.07115" lon="3.04566">
        <ele>699.79998779297</ele>
        <time>2020-10-02T08:07:00.000Z</time>
      </trkpt>
      <trkpt lat="44.07117" lon="3.04576">
        <ele>700.20001220703</ele>
        <time>2020-10-02T08:07:03.000Z</time>
      </trkpt>
      <trkpt lat="44.07119" lon="3.04593">
        <ele>700.40002441406</ele>
        <time>2020-10-02T08:07:07.000Z</time>
      </trkpt>
      <trkpt lat="44.07126" lon="3.04605">
        <ele>700.40002441406</ele>
        <time>2020-10-02T08:07:10.000Z</time>
      </trkpt>
      <trkpt lat="44.0713" lon="3.0461">
        <ele>699.40002441406</ele>
        <time>2020-10-02T08:07:12.000Z</time>
      </trkpt>
      <trkpt lat="44.07132" lon="3.04614">
        <ele>698</ele>
        <time>2020-10-02T08:07:14.000Z</time>
      </trkpt>
      <trkpt lat="44.07135" lon="3.04614">
        <ele>696.79998779297</ele>
        <time>2020-10-02T08:07:15.000Z</time>
      </trkpt>
      <trkpt lat="44.07138" lon="3.04614">
        <ele>694.79998779297</ele>
        <time>2020-10-02T08:07:16.000Z</time>
      </trkpt>
      <trkpt lat="44.0714" lon="3.04616">
        <ele>693</ele>
        <time>2020-10-02T08:07:17.000Z</time>
      </trkpt>
      <trkpt lat="44.07142" lon="3.04619">
        <ele>690</ele>
        <time>2020-10-02T08:07:18.000Z</time>
      </trkpt>
      <trkpt lat="44.07144" lon="3.04623">
        <ele>688.79998779297</ele>
        <time>2020-10-02T08:07:19.000Z</time>
      </trkpt>
      <trkpt lat="44.07145" lon="3.04627">
        <ele>687.79998779297</ele>
        <time>2020-10-02T08:07:20.000Z</time>
      </trkpt>
      <trkpt lat="44.07147" lon="3.04631">
        <ele>686.59997558594</ele>
        <time>2020-10-02T08:07:21.000Z</time>
      </trkpt>
      <trkpt lat="44.07148" lon="3.04638">
        <ele>684.59997558594</ele>
        <time>2020-10-02T08:07:23.000Z</time>
      </trkpt>
      <trkpt lat="44.07148" lon="3.04646">
        <ele>683.20001220703</ele>
        <time>2020-10-02T08:07:25.000Z</time>
      </trkpt>
      <trkpt lat="44.07149" lon="3.04656">
        <ele>681.40002441406</ele>
        <time>2020-10-02T08:07:27.000Z</time>
      </trkpt>
      <trkpt lat="44.07148" lon="3.04661">
        <ele>680.20001220703</ele>
        <time>2020-10-02T08:07:28.000Z</time>
      </trkpt>
      <trkpt lat="44.07147" lon="3.04667">
        <ele>679.20001220703</ele>
        <time>2020-10-02T08:07:29.000Z</time>
      </trkpt>
      <trkpt lat="44.07145" lon="3.04672">
        <ele>678.40002441406</ele>
        <time>2020-10-02T08:07:30.000Z</time>
      </trkpt>
      <trkpt lat="44.07143" lon="3.04677">
        <ele>677.79998779297</ele>
        <time>2020-10-02T08:07:31.000Z</time>
      </trkpt>
      <trkpt lat="44.07137" lon="3.04692">
        <ele>676.40002441406</ele>
        <time>2020-10-02T08:07:34.000Z</time>
      </trkpt>
      <trkpt lat="44.07135" lon="3.04702">
        <ele>675.20001220703</ele>
        <time>2020-10-02T08:07:36.000Z</time>
      </trkpt>
      <trkpt lat="44.07133" lon="3.04707">
        <ele>674.79998779297</ele>
        <time>2020-10-02T08:07:37.000Z</time>
      </trkpt>
      <trkpt lat="44.0713" lon="3.04713">
        <ele>674.59997558594</ele>
        <time>2020-10-02T08:07:38.000Z</time>
      </trkpt>
      <trkpt lat="44.0712" lon="3.04731">
        <ele>674.20001220703</ele>
        <time>2020-10-02T08:07:41.000Z</time>
      </trkpt>
      <trkpt lat="44.07117" lon="3.04738">
        <ele>674</ele>
        <time>2020-10-02T08:07:42.000Z</time>
      </trkpt>
      <trkpt lat="44.07109" lon="3.04763">
        <ele>673.40002441406</ele>
        <time>2020-10-02T08:07:45.000Z</time>
      </trkpt>
      <trkpt lat="44.07109" lon="3.04778">
        <ele>672.59997558594</ele>
        <time>2020-10-02T08:07:47.000Z</time>
      </trkpt>
      <trkpt lat="44.07107" lon="3.04789">
        <ele>670.79998779297</ele>
        <time>2020-10-02T08:07:49.000Z</time>
      </trkpt>
      <trkpt lat="44.07103" lon="3.04792">
        <ele>669.79998779297</ele>
        <time>2020-10-02T08:07:50.000Z</time>
      </trkpt>
      <trkpt lat="44.071" lon="3.04796">
        <ele>668.40002441406</ele>
        <time>2020-10-02T08:07:51.000Z</time>
      </trkpt>
      <trkpt lat="44.07095" lon="3.04799">
        <ele>667.40002441406</ele>
        <time>2020-10-02T08:07:52.000Z</time>
      </trkpt>
      <trkpt lat="44.07086" lon="3.04813">
        <ele>665.59997558594</ele>
        <time>2020-10-02T08:07:54.000Z</time>
      </trkpt>
      <trkpt lat="44.07083" lon="3.04821">
        <ele>664.40002441406</ele>
        <time>2020-10-02T08:07:55.000Z</time>
      </trkpt>
      <trkpt lat="44.0708" lon="3.04835">
        <ele>662.79998779297</ele>
        <time>2020-10-02T08:07:57.000Z</time>
      </trkpt>
      <trkpt lat="44.0708" lon="3.04842">
        <ele>662.20001220703</ele>
        <time>2020-10-02T08:07:58.000Z</time>
      </trkpt>
      <trkpt lat="44.07079" lon="3.04848">
        <ele>661.40002441406</ele>
        <time>2020-10-02T08:07:59.000Z</time>
      </trkpt>
      <trkpt lat="44.07078" lon="3.04858">
        <ele>660</ele>
        <time>2020-10-02T08:08:01.000Z</time>
      </trkpt>
      <trkpt lat="44.07076" lon="3.04865">
        <ele>658.40002441406</ele>
        <time>2020-10-02T08:08:03.000Z</time>
      </trkpt>
      <trkpt lat="44.07075" lon="3.0487">
        <ele>657.40002441406</ele>
        <time>2020-10-02T08:08:04.000Z</time>
      </trkpt>
      <trkpt lat="44.07074" lon="3.04874">
        <ele>656.40002441406</ele>
        <time>2020-10-02T08:08:05.000Z</time>
      </trkpt>
      <trkpt lat="44.07072" lon="3.04877">
        <ele>654.59997558594</ele>
        <time>2020-10-02T08:08:06.000Z</time>
      </trkpt>
      <trkpt lat="44.07072" lon="3.04881">
        <ele>653</ele>
        <time>2020-10-02T08:08:07.000Z</time>
      </trkpt>
      <trkpt lat="44.07072" lon="3.04883">
        <ele>652</ele>
        <time>2020-10-02T08:08:08.000Z</time>
      </trkpt>
      <trkpt lat="44.07073" lon="3.04886">
        <ele>650.79998779297</ele>
        <time>2020-10-02T08:08:09.000Z</time>
      </trkpt>
      <trkpt lat="44.07075" lon="3.0489">
        <ele>649.40002441406</ele>
        <time>2020-10-02T08:08:10.000Z</time>
      </trkpt>
      <trkpt lat="44.07076" lon="3.04894">
        <ele>648.20001220703</ele>
        <time>2020-10-02T08:08:11.000Z</time>
      </trkpt>
      <trkpt lat="44.07078" lon="3.04897">
        <ele>647.20001220703</ele>
        <time>2020-10-02T08:08:12.000Z</time>
      </trkpt>
      <trkpt lat="44.07081" lon="3.04903">
        <ele>645</ele>
        <time>2020-10-02T08:08:14.000Z</time>
      </trkpt>
      <trkpt lat="44.07081" lon="3.04908">
        <ele>642.79998779297</ele>
        <time>2020-10-02T08:08:15.000Z</time>
      </trkpt>
      <trkpt lat="44.07082" lon="3.04914">
        <ele>640.59997558594</ele>
        <time>2020-10-02T08:08:17.000Z</time>
      </trkpt>
      <trkpt lat="44.07084" lon="3.04916">
        <ele>639.40002441406</ele>
        <time>2020-10-02T08:08:18.000Z</time>
      </trkpt>
      <trkpt lat="44.07086" lon="3.04918">
        <ele>638.20001220703</ele>
        <time>2020-10-02T08:08:19.000Z</time>
      </trkpt>
      <trkpt lat="44.07089" lon="3.0492">
        <ele>637</ele>
        <time>2020-10-02T08:08:20.000Z</time>
      </trkpt>
      <trkpt lat="44.07091" lon="3.04923">
        <ele>635.79998779297</ele>
        <time>2020-10-02T08:08:21.000Z</time>
      </trkpt>
      <trkpt lat="44.07094" lon="3.04926">
        <ele>634.20001220703</ele>
        <time>2020-10-02T08:08:22.000Z</time>
      </trkpt>
      <trkpt lat="44.07098" lon="3.0493">
        <ele>632.79998779297</ele>
        <time>2020-10-02T08:08:23.000Z</time>
      </trkpt>
      <trkpt lat="44.07104" lon="3.04939">
        <ele>631</ele>
        <time>2020-10-02T08:08:25.000Z</time>
      </trkpt>
      <trkpt lat="44.07105" lon="3.04943">
        <ele>630.40002441406</ele>
        <time>2020-10-02T08:08:26.000Z</time>
      </trkpt>
      <trkpt lat="44.07105" lon="3.04947">
        <ele>630</ele>
        <time>2020-10-02T08:08:27.000Z</time>
      </trkpt>
      <trkpt lat="44.07104" lon="3.04951">
        <ele>629.79998779297</ele>
        <time>2020-10-02T08:08:28.000Z</time>
      </trkpt>
      <trkpt lat="44.07104" lon="3.04961">
        <ele>628.40002441406</ele>
        <time>2020-10-02T08:08:30.000Z</time>
      </trkpt>
      <trkpt lat="44.07105" lon="3.04965">
        <ele>627.59997558594</ele>
        <time>2020-10-02T08:08:31.000Z</time>
      </trkpt>
      <trkpt lat="44.07106" lon="3.04968">
        <ele>626.59997558594</ele>
        <time>2020-10-02T08:08:32.000Z</time>
      </trkpt>
      <trkpt lat="44.07107" lon="3.04971">
        <ele>625.40002441406</ele>
        <time>2020-10-02T08:08:33.000Z</time>
      </trkpt>
      <trkpt lat="44.07107" lon="3.04974">
        <ele>624.40002441406</ele>
        <time>2020-10-02T08:08:34.000Z</time>
      </trkpt>
      <trkpt lat="44.07108" lon="3.04976">
        <ele>623.40002441406</ele>
        <time>2020-10-02T08:08:35.000Z</time>
      </trkpt>
      <trkpt lat="44.07109" lon="3.04978">
        <ele>621.79998779297</ele>
        <time>2020-10-02T08:08:36.000Z</time>
      </trkpt>
      <trkpt lat="44.0711" lon="3.04979">
        <ele>620.79998779297</ele>
        <time>2020-10-02T08:08:37.000Z</time>
      </trkpt>
      <trkpt lat="44.0711" lon="3.04982">
        <ele>619.59997558594</ele>
        <time>2020-10-02T08:08:38.000Z</time>
      </trkpt>
      <trkpt lat="44.0711" lon="3.04986">
        <ele>618</ele>
        <time>2020-10-02T08:08:40.000Z</time>
      </trkpt>
      <trkpt lat="44.07111" lon="3.0499">
        <ele>616.40002441406</ele>
        <time>2020-10-02T08:08:42.000Z</time>
      </trkpt>
      <trkpt lat="44.07111" lon="3.04993">
        <ele>615.59997558594</ele>
        <time>2020-10-02T08:08:44.000Z</time>
      </trkpt>
      <trkpt lat="44.07112" lon="3.04994">
        <ele>615.40002441406</ele>
        <time>2020-10-02T08:08:46.000Z</time>
      </trkpt>
      <trkpt lat="44.07112" lon="3.04994">
        <ele>615.20001220703</ele>
        <time>2020-10-02T08:09:12.000Z</time>
      </trkpt>
      <trkpt lat="44.07117" lon="3.04997">
        <ele>615</ele>
        <time>2020-10-02T08:09:20.000Z</time>
      </trkpt>
      <trkpt lat="44.07119" lon="3.04998">
        <ele>615</ele>
        <time>2020-10-02T08:09:21.000Z</time>
      </trkpt>
      <trkpt lat="44.07137" lon="3.04998">
        <ele>614.59997558594</ele>
        <time>2020-10-02T08:09:26.000Z</time>
      </trkpt>
      <trkpt lat="44.07145" lon="3.04996">
        <ele>614.40002441406</ele>
        <time>2020-10-02T08:09:28.000Z</time>
      </trkpt>
      <trkpt lat="44.07161" lon="3.04994">
        <ele>614.40002441406</ele>
        <time>2020-10-02T08:09:32.000Z</time>
      </trkpt>
      <trkpt lat="44.07183" lon="3.04982">
        <ele>614.40002441406</ele>
        <time>2020-10-02T08:09:39.000Z</time>
      </trkpt>
      <trkpt lat="44.07201" lon="3.04965">
        <ele>614.79998779297</ele>
        <time>2020-10-02T08:09:45.000Z</time>
      </trkpt>
      <trkpt lat="44.07216" lon="3.04943">
        <ele>615.40002441406</ele>
        <time>2020-10-02T08:09:51.000Z</time>
      </trkpt>
      <trkpt lat="44.0722" lon="3.04935">
        <ele>615.59997558594</ele>
        <time>2020-10-02T08:09:53.000Z</time>
      </trkpt>
      <trkpt lat="44.07237" lon="3.04899">
        <ele>616.20001220703</ele>
        <time>2020-10-02T08:10:01.000Z</time>
      </trkpt>
      <trkpt lat="44.07248" lon="3.04881">
        <ele>616.40002441406</ele>
        <time>2020-10-02T08:10:06.000Z</time>
      </trkpt>
      <trkpt lat="44.07255" lon="3.04869">
        <ele>616.40002441406</ele>
        <time>2020-10-02T08:10:09.000Z</time>
      </trkpt>
      <trkpt lat="44.07261" lon="3.04859">
        <ele>616.40002441406</ele>
        <time>2020-10-02T08:10:11.000Z</time>
      </trkpt>
      <trkpt lat="44.07274" lon="3.04832">
        <ele>615.79998779297</ele>
        <time>2020-10-02T08:10:16.000Z</time>
      </trkpt>
      <trkpt lat="44.07288" lon="3.04816">
        <ele>615.59997558594</ele>
        <time>2020-10-02T08:10:21.000Z</time>
      </trkpt>
      <trkpt lat="44.07309" lon="3.048">
        <ele>615.59997558594</ele>
        <time>2020-10-02T08:10:27.000Z</time>
      </trkpt>
      <trkpt lat="44.07331" lon="3.04788">
        <ele>615.59997558594</ele>
        <time>2020-10-02T08:10:32.000Z</time>
      </trkpt>
      <trkpt lat="44.07358" lon="3.04778">
        <ele>615.79998779297</ele>
        <time>2020-10-02T08:10:39.000Z</time>
      </trkpt>
      <trkpt lat="44.0737" lon="3.04774">
        <ele>615.79998779297</ele>
        <time>2020-10-02T08:10:42.000Z</time>
      </trkpt>
      <trkpt lat="44.07382" lon="3.04768">
        <ele>615.79998779297</ele>
        <time>2020-10-02T08:10:45.000Z</time>
      </trkpt>
      <trkpt lat="44.07411" lon="3.04751">
        <ele>615.59997558594</ele>
        <time>2020-10-02T08:10:51.000Z</time>
      </trkpt>
      <trkpt lat="44.07451" lon="3.04725">
        <ele>614.59997558594</ele>
        <time>2020-10-02T08:10:57.000Z</time>
      </trkpt>
      <trkpt lat="44.07459" lon="3.04722">
        <ele>614.20001220703</ele>
        <time>2020-10-02T08:10:58.000Z</time>
      </trkpt>
      <trkpt lat="44.07483" lon="3.04725">
        <ele>613</ele>
        <time>2020-10-02T08:11:01.000Z</time>
      </trkpt>
      <trkpt lat="44.07507" lon="3.04747">
        <ele>611.59997558594</ele>
        <time>2020-10-02T08:11:04.000Z</time>
      </trkpt>
      <trkpt lat="44.07524" lon="3.04781">
        <ele>610</ele>
        <time>2020-10-02T08:11:07.000Z</time>
      </trkpt>
      <trkpt lat="44.07528" lon="3.04792">
        <ele>608.79998779297</ele>
        <time>2020-10-02T08:11:08.000Z</time>
      </trkpt>
      <trkpt lat="44.07535" lon="3.04803">
        <ele>608</ele>
        <time>2020-10-02T08:11:09.000Z</time>
      </trkpt>
      <trkpt lat="44.07542" lon="3.04811">
        <ele>607</ele>
        <time>2020-10-02T08:11:10.000Z</time>
      </trkpt>
      <trkpt lat="44.07549" lon="3.04817">
        <ele>606.20001220703</ele>
        <time>2020-10-02T08:11:11.000Z</time>
      </trkpt>
      <trkpt lat="44.07556" lon="3.0482">
        <ele>605.40002441406</ele>
        <time>2020-10-02T08:11:12.000Z</time>
      </trkpt>
      <trkpt lat="44.07567" lon="3.04821">
        <ele>603.79998779297</ele>
        <time>2020-10-02T08:11:14.000Z</time>
      </trkpt>
      <trkpt lat="44.07572" lon="3.04819">
        <ele>602.20001220703</ele>
        <time>2020-10-02T08:11:16.000Z</time>
      </trkpt>
      <trkpt lat="44.07573" lon="3.04818">
        <ele>601.40002441406</ele>
        <time>2020-10-02T08:11:17.000Z</time>
      </trkpt>
      <trkpt lat="44.07573" lon="3.04817">
        <ele>600.79998779297</ele>
        <time>2020-10-02T08:11:18.000Z</time>
      </trkpt>
      <trkpt lat="44.07573" lon="3.04816">
        <ele>599.59997558594</ele>
        <time>2020-10-02T08:11:20.000Z</time>
      </trkpt>
      <trkpt lat="44.07572" lon="3.04815">
        <ele>598.79998779297</ele>
        <time>2020-10-02T08:11:23.000Z</time>
      </trkpt>
    </trkseg>
  </trk>
  <trk>
    <name><![CDATA[MILLAU J1 - La Roque-Ste-Marguerite Run 3]]></name>
    <trkseg>
      <trkpt lat="44.14202" lon="3.2021">
        <ele>868.20001220703</ele>
        <time>2020-10-02T13:31:08.000Z</time>
      </trkpt>
      <trkpt lat="44.14201" lon="3.20215">
        <ele>865.40002441406</ele>
        <time>2020-10-02T13:31:12.000Z</time>
      </trkpt>
      <trkpt lat="44.14201" lon="3.20215">
        <ele>860.40002441406</ele>
        <time>2020-10-02T13:31:13.000Z</time>
      </trkpt>
      <trkpt lat="44.14201" lon="3.20215">
        <ele>862</ele>
        <time>2020-10-02T13:31:14.000Z</time>
      </trkpt>
      <trkpt lat="44.14202" lon="3.20215">
        <ele>863.20001220703</ele>
        <time>2020-10-02T13:31:16.000Z</time>
      </trkpt>
      <trkpt lat="44.14203" lon="3.20213">
        <ele>862.79998779297</ele>
        <time>2020-10-02T13:31:24.000Z</time>
      </trkpt>
      <trkpt lat="44.14203" lon="3.20213">
        <ele>862.40002441406</ele>
        <time>2020-10-02T13:31:27.000Z</time>
      </trkpt>
      <trkpt lat="44.14201" lon="3.20215">
        <ele>861.20001220703</ele>
        <time>2020-10-02T13:31:37.000Z</time>
      </trkpt>
      <trkpt lat="44.14201" lon="3.20216">
        <ele>861</ele>
        <time>2020-10-02T13:31:39.000Z</time>
      </trkpt>
      <trkpt lat="44.14201" lon="3.20217">
        <ele>860.40002441406</ele>
        <time>2020-10-02T13:31:42.000Z</time>
      </trkpt>
      <trkpt lat="44.142" lon="3.2022">
        <ele>859.79998779297</ele>
        <time>2020-10-02T13:31:53.000Z</time>
      </trkpt>
      <trkpt lat="44.142" lon="3.20218">
        <ele>859.79998779297</ele>
        <time>2020-10-02T13:31:58.000Z</time>
      </trkpt>
      <trkpt lat="44.14194" lon="3.20218">
        <ele>859.79998779297</ele>
        <time>2020-10-02T13:32:07.000Z</time>
      </trkpt>
      <trkpt lat="44.14192" lon="3.20218">
        <ele>859.79998779297</ele>
        <time>2020-10-02T13:32:09.000Z</time>
      </trkpt>
      <trkpt lat="44.14183" lon="3.20218">
        <ele>859.79998779297</ele>
        <time>2020-10-02T13:32:14.000Z</time>
      </trkpt>
      <trkpt lat="44.14171" lon="3.20218">
        <ele>859.79998779297</ele>
        <time>2020-10-02T13:32:19.000Z</time>
      </trkpt>
      <trkpt lat="44.14171" lon="3.20219">
        <ele>860.79998779297</ele>
        <time>2020-10-02T13:32:25.000Z</time>
      </trkpt>
      <trkpt lat="44.14171" lon="3.20219">
        <ele>861.59997558594</ele>
        <time>2020-10-02T13:32:28.000Z</time>
      </trkpt>
      <trkpt lat="44.14171" lon="3.20218">
        <ele>862.20001220703</ele>
        <time>2020-10-02T13:32:40.000Z</time>
      </trkpt>
      <trkpt lat="44.14173" lon="3.20219">
        <ele>862.59997558594</ele>
        <time>2020-10-02T13:32:55.000Z</time>
      </trkpt>
      <trkpt lat="44.14177" lon="3.20221">
        <ele>863.20001220703</ele>
        <time>2020-10-02T13:33:11.000Z</time>
      </trkpt>
      <trkpt lat="44.14175" lon="3.20225">
        <ele>864</ele>
        <time>2020-10-02T13:33:22.000Z</time>
      </trkpt>
      <trkpt lat="44.14175" lon="3.20224">
        <ele>864.40002441406</ele>
        <time>2020-10-02T13:33:26.000Z</time>
      </trkpt>
      <trkpt lat="44.14176" lon="3.20224">
        <ele>865.20001220703</ele>
        <time>2020-10-02T13:33:43.000Z</time>
      </trkpt>
      <trkpt lat="44.14175" lon="3.20223">
        <ele>866</ele>
        <time>2020-10-02T13:33:54.000Z</time>
      </trkpt>
      <trkpt lat="44.14174" lon="3.20223">
        <ele>866.40002441406</ele>
        <time>2020-10-02T13:33:59.000Z</time>
      </trkpt>
      <trkpt lat="44.14169" lon="3.2023">
        <ele>866.79998779297</ele>
        <time>2020-10-02T13:34:04.000Z</time>
      </trkpt>
      <trkpt lat="44.14164" lon="3.20231">
        <ele>866.79998779297</ele>
        <time>2020-10-02T13:34:06.000Z</time>
      </trkpt>
      <trkpt lat="44.14154" lon="3.20234">
        <ele>867.20001220703</ele>
        <time>2020-10-02T13:34:09.000Z</time>
      </trkpt>
      <trkpt lat="44.1415" lon="3.20234">
        <ele>867.20001220703</ele>
        <time>2020-10-02T13:34:10.000Z</time>
      </trkpt>
      <trkpt lat="44.14122" lon="3.2025">
        <ele>867.40002441406</ele>
        <time>2020-10-02T13:34:17.000Z</time>
      </trkpt>
      <trkpt lat="44.14117" lon="3.20256">
        <ele>867.40002441406</ele>
        <time>2020-10-02T13:34:18.000Z</time>
      </trkpt>
      <trkpt lat="44.14106" lon="3.20277">
        <ele>867.40002441406</ele>
        <time>2020-10-02T13:34:21.000Z</time>
      </trkpt>
      <trkpt lat="44.14089" lon="3.203">
        <ele>867.40002441406</ele>
        <time>2020-10-02T13:34:25.000Z</time>
      </trkpt>
      <trkpt lat="44.14085" lon="3.20303">
        <ele>867.20001220703</ele>
        <time>2020-10-02T13:34:26.000Z</time>
      </trkpt>
      <trkpt lat="44.14076" lon="3.20306">
        <ele>867.20001220703</ele>
        <time>2020-10-02T13:34:30.000Z</time>
      </trkpt>
      <trkpt lat="44.14071" lon="3.20307">
        <ele>867.20001220703</ele>
        <time>2020-10-02T13:34:34.000Z</time>
      </trkpt>
      <trkpt lat="44.14067" lon="3.20309">
        <ele>867.20001220703</ele>
        <time>2020-10-02T13:34:36.000Z</time>
      </trkpt>
      <trkpt lat="44.14064" lon="3.20311">
        <ele>867.20001220703</ele>
        <time>2020-10-02T13:34:43.000Z</time>
      </trkpt>
      <trkpt lat="44.14064" lon="3.20314">
        <ele>867.20001220703</ele>
        <time>2020-10-02T13:34:55.000Z</time>
      </trkpt>
      <trkpt lat="44.14064" lon="3.20316">
        <ele>867</ele>
        <time>2020-10-02T13:35:03.000Z</time>
      </trkpt>
      <trkpt lat="44.14068" lon="3.20318">
        <ele>867</ele>
        <time>2020-10-02T13:35:13.000Z</time>
      </trkpt>
      <trkpt lat="44.14069" lon="3.20319">
        <ele>866.59997558594</ele>
        <time>2020-10-02T13:35:20.000Z</time>
      </trkpt>
      <trkpt lat="44.14069" lon="3.20319">
        <ele>866.20001220703</ele>
        <time>2020-10-02T13:35:33.000Z</time>
      </trkpt>
      <trkpt lat="44.14069" lon="3.20319">
        <ele>866</ele>
        <time>2020-10-02T13:35:36.000Z</time>
      </trkpt>
      <trkpt lat="44.1407" lon="3.20319">
        <ele>865.40002441406</ele>
        <time>2020-10-02T13:35:54.000Z</time>
      </trkpt>
      <trkpt lat="44.14072" lon="3.20326">
        <ele>865</ele>
        <time>2020-10-02T13:36:09.000Z</time>
      </trkpt>
      <trkpt lat="44.14072" lon="3.20327">
        <ele>865</ele>
        <time>2020-10-02T13:36:10.000Z</time>
      </trkpt>
      <trkpt lat="44.14074" lon="3.20332">
        <ele>865</ele>
        <time>2020-10-02T13:36:13.000Z</time>
      </trkpt>
      <trkpt lat="44.14074" lon="3.20345">
        <ele>864.59997558594</ele>
        <time>2020-10-02T13:36:17.000Z</time>
      </trkpt>
      <trkpt lat="44.14077" lon="3.20356">
        <ele>864.40002441406</ele>
        <time>2020-10-02T13:36:20.000Z</time>
      </trkpt>
      <trkpt lat="44.14079" lon="3.20356">
        <ele>864.20001220703</ele>
        <time>2020-10-02T13:36:21.000Z</time>
      </trkpt>
      <trkpt lat="44.14079" lon="3.20354">
        <ele>864</ele>
        <time>2020-10-02T13:36:22.000Z</time>
      </trkpt>
      <trkpt lat="44.1408" lon="3.2035">
        <ele>863.40002441406</ele>
        <time>2020-10-02T13:36:25.000Z</time>
      </trkpt>
      <trkpt lat="44.14083" lon="3.20348">
        <ele>863.20001220703</ele>
        <time>2020-10-02T13:36:27.000Z</time>
      </trkpt>
      <trkpt lat="44.14089" lon="3.20351">
        <ele>863.20001220703</ele>
        <time>2020-10-02T13:36:29.000Z</time>
      </trkpt>
      <trkpt lat="44.14096" lon="3.20363">
        <ele>863</ele>
        <time>2020-10-02T13:36:33.000Z</time>
      </trkpt>
      <trkpt lat="44.14095" lon="3.20383">
        <ele>862.59997558594</ele>
        <time>2020-10-02T13:36:39.000Z</time>
      </trkpt>
      <trkpt lat="44.14092" lon="3.20393">
        <ele>862.40002441406</ele>
        <time>2020-10-02T13:36:45.000Z</time>
      </trkpt>
      <trkpt lat="44.14089" lon="3.20395">
        <ele>862.20001220703</ele>
        <time>2020-10-02T13:36:53.000Z</time>
      </trkpt>
      <trkpt lat="44.14089" lon="3.20397">
        <ele>862.40002441406</ele>
        <time>2020-10-02T13:36:58.000Z</time>
      </trkpt>
      <trkpt lat="44.1409" lon="3.20398">
        <ele>862.20001220703</ele>
        <time>2020-10-02T13:37:02.000Z</time>
      </trkpt>
      <trkpt lat="44.14091" lon="3.20402">
        <ele>862.20001220703</ele>
        <time>2020-10-02T13:37:11.000Z</time>
      </trkpt>
      <trkpt lat="44.14085" lon="3.20399">
        <ele>862.20001220703</ele>
        <time>2020-10-02T13:37:18.000Z</time>
      </trkpt>
      <trkpt lat="44.14085" lon="3.20399">
        <ele>861.79998779297</ele>
        <time>2020-10-02T13:37:22.000Z</time>
      </trkpt>
      <trkpt lat="44.14084" lon="3.20399">
        <ele>861.79998779297</ele>
        <time>2020-10-02T13:37:27.000Z</time>
      </trkpt>
      <trkpt lat="44.14082" lon="3.20399">
        <ele>861.79998779297</ele>
        <time>2020-10-02T13:37:30.000Z</time>
      </trkpt>
      <trkpt lat="44.14082" lon="3.20403">
        <ele>861.79998779297</ele>
        <time>2020-10-02T13:37:32.000Z</time>
      </trkpt>
      <trkpt lat="44.1408" lon="3.20416">
        <ele>861.79998779297</ele>
        <time>2020-10-02T13:37:36.000Z</time>
      </trkpt>
      <trkpt lat="44.14079" lon="3.20418">
        <ele>861.59997558594</ele>
        <time>2020-10-02T13:37:37.000Z</time>
      </trkpt>
      <trkpt lat="44.14078" lon="3.20419">
        <ele>861.40002441406</ele>
        <time>2020-10-02T13:37:38.000Z</time>
      </trkpt>
      <trkpt lat="44.14075" lon="3.20437">
        <ele>861.20001220703</ele>
        <time>2020-10-02T13:37:45.000Z</time>
      </trkpt>
      <trkpt lat="44.14072" lon="3.20454">
        <ele>861</ele>
        <time>2020-10-02T13:37:52.000Z</time>
      </trkpt>
      <trkpt lat="44.14067" lon="3.20471">
        <ele>861.20001220703</ele>
        <time>2020-10-02T13:37:59.000Z</time>
      </trkpt>
      <trkpt lat="44.14065" lon="3.20478">
        <ele>861.20001220703</ele>
        <time>2020-10-02T13:38:02.000Z</time>
      </trkpt>
      <trkpt lat="44.14062" lon="3.20488">
        <ele>861.20001220703</ele>
        <time>2020-10-02T13:38:06.000Z</time>
      </trkpt>
      <trkpt lat="44.1406" lon="3.2049">
        <ele>861.40002441406</ele>
        <time>2020-10-02T13:38:14.000Z</time>
      </trkpt>
      <trkpt lat="44.14061" lon="3.2049">
        <ele>861.79998779297</ele>
        <time>2020-10-02T13:38:33.000Z</time>
      </trkpt>
      <trkpt lat="44.14062" lon="3.20491">
        <ele>861.79998779297</ele>
        <time>2020-10-02T13:38:44.000Z</time>
      </trkpt>
      <trkpt lat="44.14063" lon="3.20492">
        <ele>861.79998779297</ele>
        <time>2020-10-02T13:38:48.000Z</time>
      </trkpt>
      <trkpt lat="44.14064" lon="3.20495">
        <ele>861.59997558594</ele>
        <time>2020-10-02T13:38:58.000Z</time>
      </trkpt>
      <trkpt lat="44.14062" lon="3.20496">
        <ele>861.20001220703</ele>
        <time>2020-10-02T13:39:09.000Z</time>
      </trkpt>
      <trkpt lat="44.1406" lon="3.20508">
        <ele>861.20001220703</ele>
        <time>2020-10-02T13:39:14.000Z</time>
      </trkpt>
      <trkpt lat="44.14056" lon="3.20526">
        <ele>861.20001220703</ele>
        <time>2020-10-02T13:39:17.000Z</time>
      </trkpt>
      <trkpt lat="44.14055" lon="3.20532">
        <ele>861</ele>
        <time>2020-10-02T13:39:18.000Z</time>
      </trkpt>
      <trkpt lat="44.14053" lon="3.20537">
        <ele>861</ele>
        <time>2020-10-02T13:39:19.000Z</time>
      </trkpt>
      <trkpt lat="44.14045" lon="3.20561">
        <ele>855.59997558594</ele>
        <time>2020-10-02T13:39:24.000Z</time>
      </trkpt>
      <trkpt lat="44.14044" lon="3.20565">
        <ele>833</ele>
        <time>2020-10-02T13:39:25.000Z</time>
      </trkpt>
      <trkpt lat="44.14042" lon="3.2057">
        <ele>822.59997558594</ele>
        <time>2020-10-02T13:39:26.000Z</time>
      </trkpt>
      <trkpt lat="44.1404" lon="3.20575">
        <ele>814.20001220703</ele>
        <time>2020-10-02T13:39:27.000Z</time>
      </trkpt>
      <trkpt lat="44.14038" lon="3.20579">
        <ele>807.59997558594</ele>
        <time>2020-10-02T13:39:28.000Z</time>
      </trkpt>
      <trkpt lat="44.14037" lon="3.20583">
        <ele>802.40002441406</ele>
        <time>2020-10-02T13:39:29.000Z</time>
      </trkpt>
      <trkpt lat="44.14035" lon="3.20588">
        <ele>798.79998779297</ele>
        <time>2020-10-02T13:39:30.000Z</time>
      </trkpt>
      <trkpt lat="44.14032" lon="3.20593">
        <ele>795.59997558594</ele>
        <time>2020-10-02T13:39:31.000Z</time>
      </trkpt>
      <trkpt lat="44.14029" lon="3.20598">
        <ele>793.20001220703</ele>
        <time>2020-10-02T13:39:32.000Z</time>
      </trkpt>
      <trkpt lat="44.14026" lon="3.20603">
        <ele>791.40002441406</ele>
        <time>2020-10-02T13:39:33.000Z</time>
      </trkpt>
      <trkpt lat="44.14024" lon="3.20608">
        <ele>790</ele>
        <time>2020-10-02T13:39:34.000Z</time>
      </trkpt>
      <trkpt lat="44.14022" lon="3.20613">
        <ele>788.59997558594</ele>
        <time>2020-10-02T13:39:35.000Z</time>
      </trkpt>
      <trkpt lat="44.14018" lon="3.20623">
        <ele>786.79998779297</ele>
        <time>2020-10-02T13:39:37.000Z</time>
      </trkpt>
      <trkpt lat="44.14016" lon="3.20629">
        <ele>786.20001220703</ele>
        <time>2020-10-02T13:39:38.000Z</time>
      </trkpt>
      <trkpt lat="44.14015" lon="3.20633">
        <ele>784.79998779297</ele>
        <time>2020-10-02T13:39:39.000Z</time>
      </trkpt>
      <trkpt lat="44.14015" lon="3.20637">
        <ele>783.59997558594</ele>
        <time>2020-10-02T13:39:40.000Z</time>
      </trkpt>
      <trkpt lat="44.14013" lon="3.20643">
        <ele>782.40002441406</ele>
        <time>2020-10-02T13:39:41.000Z</time>
      </trkpt>
      <trkpt lat="44.14012" lon="3.20648">
        <ele>781.20001220703</ele>
        <time>2020-10-02T13:39:42.000Z</time>
      </trkpt>
      <trkpt lat="44.14011" lon="3.20654">
        <ele>780</ele>
        <time>2020-10-02T13:39:43.000Z</time>
      </trkpt>
      <trkpt lat="44.14011" lon="3.20659">
        <ele>779</ele>
        <time>2020-10-02T13:39:44.000Z</time>
      </trkpt>
      <trkpt lat="44.14011" lon="3.20663">
        <ele>777.79998779297</ele>
        <time>2020-10-02T13:39:45.000Z</time>
      </trkpt>
      <trkpt lat="44.14009" lon="3.20666">
        <ele>776.59997558594</ele>
        <time>2020-10-02T13:39:46.000Z</time>
      </trkpt>
      <trkpt lat="44.14007" lon="3.20669">
        <ele>775.20001220703</ele>
        <time>2020-10-02T13:39:47.000Z</time>
      </trkpt>
      <trkpt lat="44.14006" lon="3.20672">
        <ele>774.20001220703</ele>
        <time>2020-10-02T13:39:48.000Z</time>
      </trkpt>
      <trkpt lat="44.14005" lon="3.20675">
        <ele>773</ele>
        <time>2020-10-02T13:39:49.000Z</time>
      </trkpt>
      <trkpt lat="44.14004" lon="3.20679">
        <ele>771.79998779297</ele>
        <time>2020-10-02T13:39:50.000Z</time>
      </trkpt>
      <trkpt lat="44.14003" lon="3.20683">
        <ele>770.40002441406</ele>
        <time>2020-10-02T13:39:51.000Z</time>
      </trkpt>
      <trkpt lat="44.14002" lon="3.20687">
        <ele>768.79998779297</ele>
        <time>2020-10-02T13:39:52.000Z</time>
      </trkpt>
      <trkpt lat="44.14002" lon="3.20692">
        <ele>767.59997558594</ele>
        <time>2020-10-02T13:39:53.000Z</time>
      </trkpt>
      <trkpt lat="44.14002" lon="3.20696">
        <ele>765.20001220703</ele>
        <time>2020-10-02T13:39:54.000Z</time>
      </trkpt>
      <trkpt lat="44.14002" lon="3.20705">
        <ele>763.59997558594</ele>
        <time>2020-10-02T13:39:56.000Z</time>
      </trkpt>
      <trkpt lat="44.14003" lon="3.20713">
        <ele>762.59997558594</ele>
        <time>2020-10-02T13:39:58.000Z</time>
      </trkpt>
      <trkpt lat="44.14004" lon="3.20715">
        <ele>762</ele>
        <time>2020-10-02T13:39:59.000Z</time>
      </trkpt>
      <trkpt lat="44.14005" lon="3.20717">
        <ele>761.40002441406</ele>
        <time>2020-10-02T13:40:00.000Z</time>
      </trkpt>
      <trkpt lat="44.14006" lon="3.2072">
        <ele>759.59997558594</ele>
        <time>2020-10-02T13:40:02.000Z</time>
      </trkpt>
      <trkpt lat="44.14007" lon="3.20725">
        <ele>757.59997558594</ele>
        <time>2020-10-02T13:40:04.000Z</time>
      </trkpt>
      <trkpt lat="44.14008" lon="3.20728">
        <ele>756.40002441406</ele>
        <time>2020-10-02T13:40:05.000Z</time>
      </trkpt>
      <trkpt lat="44.14009" lon="3.2073">
        <ele>755.20001220703</ele>
        <time>2020-10-02T13:40:06.000Z</time>
      </trkpt>
      <trkpt lat="44.1401" lon="3.20731">
        <ele>754.20001220703</ele>
        <time>2020-10-02T13:40:07.000Z</time>
      </trkpt>
      <trkpt lat="44.14011" lon="3.20735">
        <ele>751.79998779297</ele>
        <time>2020-10-02T13:40:09.000Z</time>
      </trkpt>
      <trkpt lat="44.14011" lon="3.20739">
        <ele>750.79998779297</ele>
        <time>2020-10-02T13:40:10.000Z</time>
      </trkpt>
      <trkpt lat="44.14013" lon="3.20743">
        <ele>749.59997558594</ele>
        <time>2020-10-02T13:40:11.000Z</time>
      </trkpt>
      <trkpt lat="44.14014" lon="3.20747">
        <ele>748.40002441406</ele>
        <time>2020-10-02T13:40:12.000Z</time>
      </trkpt>
      <trkpt lat="44.14016" lon="3.20753">
        <ele>747.40002441406</ele>
        <time>2020-10-02T13:40:13.000Z</time>
      </trkpt>
      <trkpt lat="44.14018" lon="3.20759">
        <ele>746.40002441406</ele>
        <time>2020-10-02T13:40:14.000Z</time>
      </trkpt>
      <trkpt lat="44.1402" lon="3.20764">
        <ele>745.20001220703</ele>
        <time>2020-10-02T13:40:15.000Z</time>
      </trkpt>
      <trkpt lat="44.14023" lon="3.2077">
        <ele>744.20001220703</ele>
        <time>2020-10-02T13:40:16.000Z</time>
      </trkpt>
      <trkpt lat="44.14025" lon="3.20773">
        <ele>743</ele>
        <time>2020-10-02T13:40:17.000Z</time>
      </trkpt>
      <trkpt lat="44.14026" lon="3.20775">
        <ele>742</ele>
        <time>2020-10-02T13:40:18.000Z</time>
      </trkpt>
      <trkpt lat="44.14027" lon="3.20775">
        <ele>740.59997558594</ele>
        <time>2020-10-02T13:40:19.000Z</time>
      </trkpt>
      <trkpt lat="44.1403" lon="3.20777">
        <ele>739.40002441406</ele>
        <time>2020-10-02T13:40:20.000Z</time>
      </trkpt>
      <trkpt lat="44.14033" lon="3.20782">
        <ele>737.40002441406</ele>
        <time>2020-10-02T13:40:22.000Z</time>
      </trkpt>
      <trkpt lat="44.14034" lon="3.20786">
        <ele>734.79998779297</ele>
        <time>2020-10-02T13:40:23.000Z</time>
      </trkpt>
      <trkpt lat="44.14033" lon="3.20791">
        <ele>733.79998779297</ele>
        <time>2020-10-02T13:40:24.000Z</time>
      </trkpt>
      <trkpt lat="44.14033" lon="3.20801">
        <ele>732.20001220703</ele>
        <time>2020-10-02T13:40:26.000Z</time>
      </trkpt>
      <trkpt lat="44.14032" lon="3.20805">
        <ele>731.79998779297</ele>
        <time>2020-10-02T13:40:27.000Z</time>
      </trkpt>
      <trkpt lat="44.1403" lon="3.2081">
        <ele>731</ele>
        <time>2020-10-02T13:40:29.000Z</time>
      </trkpt>
      <trkpt lat="44.14032" lon="3.20813">
        <ele>730</ele>
        <time>2020-10-02T13:40:31.000Z</time>
      </trkpt>
      <trkpt lat="44.14034" lon="3.20816">
        <ele>729.59997558594</ele>
        <time>2020-10-02T13:40:32.000Z</time>
      </trkpt>
      <trkpt lat="44.14037" lon="3.20824">
        <ele>728.40002441406</ele>
        <time>2020-10-02T13:40:34.000Z</time>
      </trkpt>
      <trkpt lat="44.14038" lon="3.20828">
        <ele>727.59997558594</ele>
        <time>2020-10-02T13:40:35.000Z</time>
      </trkpt>
      <trkpt lat="44.14039" lon="3.20833">
        <ele>726.79998779297</ele>
        <time>2020-10-02T13:40:36.000Z</time>
      </trkpt>
      <trkpt lat="44.14039" lon="3.20841">
        <ele>725</ele>
        <time>2020-10-02T13:40:38.000Z</time>
      </trkpt>
      <trkpt lat="44.14039" lon="3.20845">
        <ele>724</ele>
        <time>2020-10-02T13:40:40.000Z</time>
      </trkpt>
      <trkpt lat="44.14038" lon="3.20849">
        <ele>723</ele>
        <time>2020-10-02T13:40:43.000Z</time>
      </trkpt>
      <trkpt lat="44.14038" lon="3.20849">
        <ele>722.20001220703</ele>
        <time>2020-10-02T13:40:45.000Z</time>
      </trkpt>
      <trkpt lat="44.14039" lon="3.2085">
        <ele>721.79998779297</ele>
        <time>2020-10-02T13:40:46.000Z</time>
      </trkpt>
      <trkpt lat="44.14034" lon="3.20852">
        <ele>721</ele>
        <time>2020-10-02T13:40:52.000Z</time>
      </trkpt>
      <trkpt lat="44.14032" lon="3.20853">
        <ele>721</ele>
        <time>2020-10-02T13:40:53.000Z</time>
      </trkpt>
      <trkpt lat="44.14025" lon="3.20868">
        <ele>720.79998779297</ele>
        <time>2020-10-02T13:40:57.000Z</time>
      </trkpt>
      <trkpt lat="44.14023" lon="3.20873">
        <ele>720.79998779297</ele>
        <time>2020-10-02T13:40:58.000Z</time>
      </trkpt>
      <trkpt lat="44.14008" lon="3.20896">
        <ele>719.79998779297</ele>
        <time>2020-10-02T13:41:03.000Z</time>
      </trkpt>
      <trkpt lat="44.13993" lon="3.20902">
        <ele>718.59997558594</ele>
        <time>2020-10-02T13:41:07.000Z</time>
      </trkpt>
      <trkpt lat="44.13991" lon="3.20904">
        <ele>717.20001220703</ele>
        <time>2020-10-02T13:41:11.000Z</time>
      </trkpt>
      <trkpt lat="44.13991" lon="3.20905">
        <ele>716.79998779297</ele>
        <time>2020-10-02T13:41:12.000Z</time>
      </trkpt>
      <trkpt lat="44.13989" lon="3.20907">
        <ele>715.79998779297</ele>
        <time>2020-10-02T13:41:17.000Z</time>
      </trkpt>
      <trkpt lat="44.13987" lon="3.20908">
        <ele>715.59997558594</ele>
        <time>2020-10-02T13:41:24.000Z</time>
      </trkpt>
      <trkpt lat="44.13978" lon="3.20914">
        <ele>715.59997558594</ele>
        <time>2020-10-02T13:41:34.000Z</time>
      </trkpt>
      <trkpt lat="44.13966" lon="3.20921">
        <ele>715.59997558594</ele>
        <time>2020-10-02T13:41:38.000Z</time>
      </trkpt>
      <trkpt lat="44.13946" lon="3.20952">
        <ele>714.79998779297</ele>
        <time>2020-10-02T13:41:44.000Z</time>
      </trkpt>
      <trkpt lat="44.13944" lon="3.20956">
        <ele>714.40002441406</ele>
        <time>2020-10-02T13:41:45.000Z</time>
      </trkpt>
      <trkpt lat="44.13937" lon="3.20963">
        <ele>712.79998779297</ele>
        <time>2020-10-02T13:41:48.000Z</time>
      </trkpt>
      <trkpt lat="44.1392" lon="3.20969">
        <ele>712.59997558594</ele>
        <time>2020-10-02T13:41:52.000Z</time>
      </trkpt>
      <trkpt lat="44.13903" lon="3.20988">
        <ele>712.40002441406</ele>
        <time>2020-10-02T13:41:56.000Z</time>
      </trkpt>
      <trkpt lat="44.13895" lon="3.20993">
        <ele>712.40002441406</ele>
        <time>2020-10-02T13:41:58.000Z</time>
      </trkpt>
      <trkpt lat="44.13892" lon="3.20992">
        <ele>712.40002441406</ele>
        <time>2020-10-02T13:41:59.000Z</time>
      </trkpt>
      <trkpt lat="44.13869" lon="3.20983">
        <ele>711.40002441406</ele>
        <time>2020-10-02T13:42:04.000Z</time>
      </trkpt>
      <trkpt lat="44.13866" lon="3.2098">
        <ele>710.59997558594</ele>
        <time>2020-10-02T13:42:05.000Z</time>
      </trkpt>
      <trkpt lat="44.13862" lon="3.20979">
        <ele>709.79998779297</ele>
        <time>2020-10-02T13:42:06.000Z</time>
      </trkpt>
      <trkpt lat="44.13853" lon="3.20982">
        <ele>708.20001220703</ele>
        <time>2020-10-02T13:42:08.000Z</time>
      </trkpt>
      <trkpt lat="44.13846" lon="3.20989">
        <ele>707</ele>
        <time>2020-10-02T13:42:10.000Z</time>
      </trkpt>
      <trkpt lat="44.13837" lon="3.20997">
        <ele>706</ele>
        <time>2020-10-02T13:42:12.000Z</time>
      </trkpt>
      <trkpt lat="44.13833" lon="3.21">
        <ele>705.40002441406</ele>
        <time>2020-10-02T13:42:13.000Z</time>
      </trkpt>
      <trkpt lat="44.13825" lon="3.21006">
        <ele>704.79998779297</ele>
        <time>2020-10-02T13:42:15.000Z</time>
      </trkpt>
      <trkpt lat="44.13824" lon="3.21007">
        <ele>704.59997558594</ele>
        <time>2020-10-02T13:42:16.000Z</time>
      </trkpt>
      <trkpt lat="44.13821" lon="3.21009">
        <ele>703.79998779297</ele>
        <time>2020-10-02T13:42:18.000Z</time>
      </trkpt>
      <trkpt lat="44.13819" lon="3.21012">
        <ele>703</ele>
        <time>2020-10-02T13:42:21.000Z</time>
      </trkpt>
      <trkpt lat="44.13819" lon="3.21012">
        <ele>702.40002441406</ele>
        <time>2020-10-02T13:42:22.000Z</time>
      </trkpt>
      <trkpt lat="44.13819" lon="3.21011">
        <ele>701.20001220703</ele>
        <time>2020-10-02T13:42:25.000Z</time>
      </trkpt>
      <trkpt lat="44.13819" lon="3.21014">
        <ele>700.40002441406</ele>
        <time>2020-10-02T13:42:36.000Z</time>
      </trkpt>
      <trkpt lat="44.13818" lon="3.21019">
        <ele>700</ele>
        <time>2020-10-02T13:42:49.000Z</time>
      </trkpt>
      <trkpt lat="44.13818" lon="3.21019">
        <ele>700</ele>
        <time>2020-10-02T13:42:50.000Z</time>
      </trkpt>
      <trkpt lat="44.1382" lon="3.21027">
        <ele>699.59997558594</ele>
        <time>2020-10-02T13:43:01.000Z</time>
      </trkpt>
      <trkpt lat="44.13813" lon="3.21031">
        <ele>700.20001220703</ele>
        <time>2020-10-02T13:43:12.000Z</time>
      </trkpt>
      <trkpt lat="44.13808" lon="3.21033">
        <ele>700.79998779297</ele>
        <time>2020-10-02T13:43:17.000Z</time>
      </trkpt>
      <trkpt lat="44.13803" lon="3.21039">
        <ele>701.20001220703</ele>
        <time>2020-10-02T13:43:25.000Z</time>
      </trkpt>
      <trkpt lat="44.13799" lon="3.21042">
        <ele>701.79998779297</ele>
        <time>2020-10-02T13:43:30.000Z</time>
      </trkpt>
      <trkpt lat="44.1379" lon="3.21048">
        <ele>702.20001220703</ele>
        <time>2020-10-02T13:43:40.000Z</time>
      </trkpt>
      <trkpt lat="44.13787" lon="3.2105">
        <ele>702.79998779297</ele>
        <time>2020-10-02T13:43:44.000Z</time>
      </trkpt>
      <trkpt lat="44.13783" lon="3.21053">
        <ele>703.59997558594</ele>
        <time>2020-10-02T13:43:48.000Z</time>
      </trkpt>
      <trkpt lat="44.1378" lon="3.21055">
        <ele>703.79998779297</ele>
        <time>2020-10-02T13:43:53.000Z</time>
      </trkpt>
      <trkpt lat="44.13773" lon="3.21057">
        <ele>704</ele>
        <time>2020-10-02T13:44:03.000Z</time>
      </trkpt>
      <trkpt lat="44.13768" lon="3.2107">
        <ele>704.40002441406</ele>
        <time>2020-10-02T13:44:15.000Z</time>
      </trkpt>
      <trkpt lat="44.1376" lon="3.21075">
        <ele>704.40002441406</ele>
        <time>2020-10-02T13:44:19.000Z</time>
      </trkpt>
      <trkpt lat="44.13752" lon="3.21086">
        <ele>703.59997558594</ele>
        <time>2020-10-02T13:44:25.000Z</time>
      </trkpt>
      <trkpt lat="44.13747" lon="3.21093">
        <ele>702.59997558594</ele>
        <time>2020-10-02T13:44:27.000Z</time>
      </trkpt>
      <trkpt lat="44.13742" lon="3.211">
        <ele>701.59997558594</ele>
        <time>2020-10-02T13:44:29.000Z</time>
      </trkpt>
      <trkpt lat="44.1374" lon="3.21103">
        <ele>701</ele>
        <time>2020-10-02T13:44:30.000Z</time>
      </trkpt>
      <trkpt lat="44.13739" lon="3.21105">
        <ele>700.40002441406</ele>
        <time>2020-10-02T13:44:33.000Z</time>
      </trkpt>
      <trkpt lat="44.13738" lon="3.21105">
        <ele>700</ele>
        <time>2020-10-02T13:44:34.000Z</time>
      </trkpt>
      <trkpt lat="44.13738" lon="3.21106">
        <ele>698.79998779297</ele>
        <time>2020-10-02T13:44:38.000Z</time>
      </trkpt>
      <trkpt lat="44.13737" lon="3.2111">
        <ele>698.40002441406</ele>
        <time>2020-10-02T13:44:42.000Z</time>
      </trkpt>
      <trkpt lat="44.13734" lon="3.21123">
        <ele>698</ele>
        <time>2020-10-02T13:44:55.000Z</time>
      </trkpt>
      <trkpt lat="44.13734" lon="3.21128">
        <ele>698</ele>
        <time>2020-10-02T13:45:07.000Z</time>
      </trkpt>
      <trkpt lat="44.13729" lon="3.21138">
        <ele>697.59997558594</ele>
        <time>2020-10-02T13:45:14.000Z</time>
      </trkpt>
      <trkpt lat="44.13724" lon="3.21144">
        <ele>696.79998779297</ele>
        <time>2020-10-02T13:45:17.000Z</time>
      </trkpt>
      <trkpt lat="44.13722" lon="3.21147">
        <ele>696.40002441406</ele>
        <time>2020-10-02T13:45:18.000Z</time>
      </trkpt>
      <trkpt lat="44.13717" lon="3.21154">
        <ele>694.79998779297</ele>
        <time>2020-10-02T13:45:21.000Z</time>
      </trkpt>
      <trkpt lat="44.13715" lon="3.21161">
        <ele>693.59997558594</ele>
        <time>2020-10-02T13:45:23.000Z</time>
      </trkpt>
      <trkpt lat="44.13714" lon="3.21164">
        <ele>692.59997558594</ele>
        <time>2020-10-02T13:45:24.000Z</time>
      </trkpt>
      <trkpt lat="44.13712" lon="3.21168">
        <ele>691.59997558594</ele>
        <time>2020-10-02T13:45:25.000Z</time>
      </trkpt>
      <trkpt lat="44.13708" lon="3.21177">
        <ele>689.79998779297</ele>
        <time>2020-10-02T13:45:27.000Z</time>
      </trkpt>
      <trkpt lat="44.13706" lon="3.21181">
        <ele>689</ele>
        <time>2020-10-02T13:45:28.000Z</time>
      </trkpt>
      <trkpt lat="44.13705" lon="3.21184">
        <ele>688.40002441406</ele>
        <time>2020-10-02T13:45:29.000Z</time>
      </trkpt>
      <trkpt lat="44.13703" lon="3.21188">
        <ele>686.40002441406</ele>
        <time>2020-10-02T13:45:31.000Z</time>
      </trkpt>
      <trkpt lat="44.137" lon="3.21194">
        <ele>684.79998779297</ele>
        <time>2020-10-02T13:45:33.000Z</time>
      </trkpt>
      <trkpt lat="44.13698" lon="3.21198">
        <ele>683.59997558594</ele>
        <time>2020-10-02T13:45:34.000Z</time>
      </trkpt>
      <trkpt lat="44.13697" lon="3.21202">
        <ele>681.40002441406</ele>
        <time>2020-10-02T13:45:35.000Z</time>
      </trkpt>
      <trkpt lat="44.13695" lon="3.21208">
        <ele>679.79998779297</ele>
        <time>2020-10-02T13:45:37.000Z</time>
      </trkpt>
      <trkpt lat="44.13693" lon="3.21216">
        <ele>678.59997558594</ele>
        <time>2020-10-02T13:45:40.000Z</time>
      </trkpt>
      <trkpt lat="44.13691" lon="3.21224">
        <ele>678</ele>
        <time>2020-10-02T13:45:42.000Z</time>
      </trkpt>
      <trkpt lat="44.13689" lon="3.21231">
        <ele>677.20001220703</ele>
        <time>2020-10-02T13:45:44.000Z</time>
      </trkpt>
      <trkpt lat="44.13687" lon="3.21239">
        <ele>676.40002441406</ele>
        <time>2020-10-02T13:45:48.000Z</time>
      </trkpt>
      <trkpt lat="44.13686" lon="3.21249">
        <ele>676.20001220703</ele>
        <time>2020-10-02T13:45:53.000Z</time>
      </trkpt>
      <trkpt lat="44.13686" lon="3.21252">
        <ele>675.79998779297</ele>
        <time>2020-10-02T13:45:56.000Z</time>
      </trkpt>
      <trkpt lat="44.13686" lon="3.21256">
        <ele>675.79998779297</ele>
        <time>2020-10-02T13:46:10.000Z</time>
      </trkpt>
      <trkpt lat="44.13686" lon="3.21254">
        <ele>675.59997558594</ele>
        <time>2020-10-02T13:46:28.000Z</time>
      </trkpt>
      <trkpt lat="44.13678" lon="3.21255">
        <ele>675.40002441406</ele>
        <time>2020-10-02T13:46:44.000Z</time>
      </trkpt>
      <trkpt lat="44.13675" lon="3.21256">
        <ele>675.20001220703</ele>
        <time>2020-10-02T13:46:58.000Z</time>
      </trkpt>
      <trkpt lat="44.1367" lon="3.21261">
        <ele>675.59997558594</ele>
        <time>2020-10-02T13:47:13.000Z</time>
      </trkpt>
      <trkpt lat="44.13668" lon="3.21265">
        <ele>675.59997558594</ele>
        <time>2020-10-02T13:47:26.000Z</time>
      </trkpt>
      <trkpt lat="44.1367" lon="3.21262">
        <ele>675.59997558594</ele>
        <time>2020-10-02T13:47:41.000Z</time>
      </trkpt>
      <trkpt lat="44.13671" lon="3.21263">
        <ele>675.40002441406</ele>
        <time>2020-10-02T13:47:55.000Z</time>
      </trkpt>
      <trkpt lat="44.13671" lon="3.21263">
        <ele>674.79998779297</ele>
        <time>2020-10-02T13:48:13.000Z</time>
      </trkpt>
      <trkpt lat="44.13672" lon="3.21263">
        <ele>674.79998779297</ele>
        <time>2020-10-02T13:48:36.000Z</time>
      </trkpt>
      <trkpt lat="44.13673" lon="3.21265">
        <ele>675</ele>
        <time>2020-10-02T13:48:48.000Z</time>
      </trkpt>
      <trkpt lat="44.13674" lon="3.21265">
        <ele>675.20001220703</ele>
        <time>2020-10-02T13:48:52.000Z</time>
      </trkpt>
      <trkpt lat="44.13674" lon="3.21266">
        <ele>674.59997558594</ele>
        <time>2020-10-02T13:49:09.000Z</time>
      </trkpt>
      <trkpt lat="44.13672" lon="3.21265">
        <ele>675</ele>
        <time>2020-10-02T13:49:28.000Z</time>
      </trkpt>
      <trkpt lat="44.13669" lon="3.21266">
        <ele>675.20001220703</ele>
        <time>2020-10-02T13:49:47.000Z</time>
      </trkpt>
      <trkpt lat="44.13671" lon="3.21267">
        <ele>675</ele>
        <time>2020-10-02T13:50:02.000Z</time>
      </trkpt>
      <trkpt lat="44.13671" lon="3.21263">
        <ele>675.20001220703</ele>
        <time>2020-10-02T13:50:19.000Z</time>
      </trkpt>
      <trkpt lat="44.1367" lon="3.21261">
        <ele>675.40002441406</ele>
        <time>2020-10-02T13:50:38.000Z</time>
      </trkpt>
      <trkpt lat="44.13669" lon="3.21267">
        <ele>675</ele>
        <time>2020-10-02T13:50:53.000Z</time>
      </trkpt>
      <trkpt lat="44.13666" lon="3.2127">
        <ele>674.79998779297</ele>
        <time>2020-10-02T13:50:55.000Z</time>
      </trkpt>
      <trkpt lat="44.13662" lon="3.21273">
        <ele>674.79998779297</ele>
        <time>2020-10-02T13:50:57.000Z</time>
      </trkpt>
      <trkpt lat="44.13656" lon="3.21278">
        <ele>674.59997558594</ele>
        <time>2020-10-02T13:51:00.000Z</time>
      </trkpt>
      <trkpt lat="44.1365" lon="3.21285">
        <ele>674</ele>
        <time>2020-10-02T13:51:03.000Z</time>
      </trkpt>
      <trkpt lat="44.13648" lon="3.2129">
        <ele>673</ele>
        <time>2020-10-02T13:51:05.000Z</time>
      </trkpt>
      <trkpt lat="44.13645" lon="3.21295">
        <ele>671.40002441406</ele>
        <time>2020-10-02T13:51:07.000Z</time>
      </trkpt>
      <trkpt lat="44.13642" lon="3.21302">
        <ele>670.40002441406</ele>
        <time>2020-10-02T13:51:09.000Z</time>
      </trkpt>
      <trkpt lat="44.1364" lon="3.21308">
        <ele>669.20001220703</ele>
        <time>2020-10-02T13:51:11.000Z</time>
      </trkpt>
      <trkpt lat="44.13638" lon="3.21313">
        <ele>668</ele>
        <time>2020-10-02T13:51:13.000Z</time>
      </trkpt>
      <trkpt lat="44.13637" lon="3.21315">
        <ele>667.79998779297</ele>
        <time>2020-10-02T13:51:14.000Z</time>
      </trkpt>
      <trkpt lat="44.13637" lon="3.21317">
        <ele>667</ele>
        <time>2020-10-02T13:51:16.000Z</time>
      </trkpt>
      <trkpt lat="44.13635" lon="3.21325">
        <ele>665.79998779297</ele>
        <time>2020-10-02T13:51:20.000Z</time>
      </trkpt>
      <trkpt lat="44.1363" lon="3.21345">
        <ele>665.40002441406</ele>
        <time>2020-10-02T13:51:26.000Z</time>
      </trkpt>
      <trkpt lat="44.13628" lon="3.21348">
        <ele>665.40002441406</ele>
        <time>2020-10-02T13:51:27.000Z</time>
      </trkpt>
      <trkpt lat="44.13617" lon="3.21361">
        <ele>665.20001220703</ele>
        <time>2020-10-02T13:51:33.000Z</time>
      </trkpt>
      <trkpt lat="44.13613" lon="3.21369">
        <ele>664.79998779297</ele>
        <time>2020-10-02T13:51:39.000Z</time>
      </trkpt>
      <trkpt lat="44.13613" lon="3.21369">
        <ele>664.59997558594</ele>
        <time>2020-10-02T13:51:40.000Z</time>
      </trkpt>
      <trkpt lat="44.13607" lon="3.21371">
        <ele>663.59997558594</ele>
        <time>2020-10-02T13:51:47.000Z</time>
      </trkpt>
      <trkpt lat="44.13606" lon="3.21372">
        <ele>663.40002441406</ele>
        <time>2020-10-02T13:51:48.000Z</time>
      </trkpt>
      <trkpt lat="44.13601" lon="3.21382">
        <ele>662.40002441406</ele>
        <time>2020-10-02T13:51:59.000Z</time>
      </trkpt>
      <trkpt lat="44.136" lon="3.21384">
        <ele>662.20001220703</ele>
        <time>2020-10-02T13:52:02.000Z</time>
      </trkpt>
      <trkpt lat="44.13595" lon="3.21391">
        <ele>661.59997558594</ele>
        <time>2020-10-02T13:52:09.000Z</time>
      </trkpt>
      <trkpt lat="44.1359" lon="3.21399">
        <ele>661.20001220703</ele>
        <time>2020-10-02T13:52:13.000Z</time>
      </trkpt>
      <trkpt lat="44.13585" lon="3.21408">
        <ele>660.59997558594</ele>
        <time>2020-10-02T13:52:17.000Z</time>
      </trkpt>
      <trkpt lat="44.13584" lon="3.21414">
        <ele>660.20001220703</ele>
        <time>2020-10-02T13:52:19.000Z</time>
      </trkpt>
      <trkpt lat="44.13581" lon="3.21427">
        <ele>659</ele>
        <time>2020-10-02T13:52:22.000Z</time>
      </trkpt>
      <trkpt lat="44.13581" lon="3.21452">
        <ele>657.79998779297</ele>
        <time>2020-10-02T13:52:26.000Z</time>
      </trkpt>
      <trkpt lat="44.13582" lon="3.21459">
        <ele>657.40002441406</ele>
        <time>2020-10-02T13:52:27.000Z</time>
      </trkpt>
      <trkpt lat="44.13584" lon="3.2147">
        <ele>656.59997558594</ele>
        <time>2020-10-02T13:52:29.000Z</time>
      </trkpt>
      <trkpt lat="44.13588" lon="3.21484">
        <ele>655.40002441406</ele>
        <time>2020-10-02T13:52:32.000Z</time>
      </trkpt>
      <trkpt lat="44.13592" lon="3.21499">
        <ele>654.40002441406</ele>
        <time>2020-10-02T13:52:35.000Z</time>
      </trkpt>
      <trkpt lat="44.13593" lon="3.2151">
        <ele>653.59997558594</ele>
        <time>2020-10-02T13:52:37.000Z</time>
      </trkpt>
      <trkpt lat="44.13592" lon="3.21519">
        <ele>653.20001220703</ele>
        <time>2020-10-02T13:52:39.000Z</time>
      </trkpt>
      <trkpt lat="44.1359" lon="3.21525">
        <ele>653.20001220703</ele>
        <time>2020-10-02T13:52:40.000Z</time>
      </trkpt>
      <trkpt lat="44.13588" lon="3.21528">
        <ele>652.79998779297</ele>
        <time>2020-10-02T13:52:41.000Z</time>
      </trkpt>
      <trkpt lat="44.13584" lon="3.21535">
        <ele>651.79998779297</ele>
        <time>2020-10-02T13:52:43.000Z</time>
      </trkpt>
      <trkpt lat="44.13582" lon="3.2154">
        <ele>651.59997558594</ele>
        <time>2020-10-02T13:52:44.000Z</time>
      </trkpt>
      <trkpt lat="44.13581" lon="3.21545">
        <ele>651.40002441406</ele>
        <time>2020-10-02T13:52:45.000Z</time>
      </trkpt>
      <trkpt lat="44.13578" lon="3.21564">
        <ele>650.59997558594</ele>
        <time>2020-10-02T13:52:48.000Z</time>
      </trkpt>
      <trkpt lat="44.13578" lon="3.21575">
        <ele>650.20001220703</ele>
        <time>2020-10-02T13:52:50.000Z</time>
      </trkpt>
      <trkpt lat="44.13579" lon="3.21584">
        <ele>648.40002441406</ele>
        <time>2020-10-02T13:52:52.000Z</time>
      </trkpt>
      <trkpt lat="44.1358" lon="3.21589">
        <ele>647.40002441406</ele>
        <time>2020-10-02T13:52:53.000Z</time>
      </trkpt>
      <trkpt lat="44.13582" lon="3.21598">
        <ele>646.20001220703</ele>
        <time>2020-10-02T13:52:55.000Z</time>
      </trkpt>
      <trkpt lat="44.13583" lon="3.21606">
        <ele>644.40002441406</ele>
        <time>2020-10-02T13:52:57.000Z</time>
      </trkpt>
      <trkpt lat="44.13586" lon="3.21616">
        <ele>643.40002441406</ele>
        <time>2020-10-02T13:52:59.000Z</time>
      </trkpt>
      <trkpt lat="44.13587" lon="3.21622">
        <ele>643</ele>
        <time>2020-10-02T13:53:00.000Z</time>
      </trkpt>
      <trkpt lat="44.13589" lon="3.21632">
        <ele>642.20001220703</ele>
        <time>2020-10-02T13:53:02.000Z</time>
      </trkpt>
      <trkpt lat="44.13589" lon="3.21635">
        <ele>641.79998779297</ele>
        <time>2020-10-02T13:53:03.000Z</time>
      </trkpt>
      <trkpt lat="44.13589" lon="3.21637">
        <ele>641</ele>
        <time>2020-10-02T13:53:04.000Z</time>
      </trkpt>
      <trkpt lat="44.13588" lon="3.2164">
        <ele>639.40002441406</ele>
        <time>2020-10-02T13:53:06.000Z</time>
      </trkpt>
      <trkpt lat="44.13588" lon="3.21641">
        <ele>637.79998779297</ele>
        <time>2020-10-02T13:53:08.000Z</time>
      </trkpt>
      <trkpt lat="44.13587" lon="3.21642">
        <ele>636.79998779297</ele>
        <time>2020-10-02T13:53:09.000Z</time>
      </trkpt>
      <trkpt lat="44.13587" lon="3.21643">
        <ele>635</ele>
        <time>2020-10-02T13:53:10.000Z</time>
      </trkpt>
      <trkpt lat="44.13587" lon="3.21645">
        <ele>634</ele>
        <time>2020-10-02T13:53:13.000Z</time>
      </trkpt>
      <trkpt lat="44.13586" lon="3.21646">
        <ele>633.59997558594</ele>
        <time>2020-10-02T13:53:23.000Z</time>
      </trkpt>
      <trkpt lat="44.13586" lon="3.21646">
        <ele>633.40002441406</ele>
        <time>2020-10-02T13:53:43.000Z</time>
      </trkpt>
      <trkpt lat="44.13586" lon="3.21646">
        <ele>633.40002441406</ele>
        <time>2020-10-02T13:54:04.000Z</time>
      </trkpt>
      <trkpt lat="44.13585" lon="3.21647">
        <ele>633.40002441406</ele>
        <time>2020-10-02T13:54:19.000Z</time>
      </trkpt>
      <trkpt lat="44.13585" lon="3.21648">
        <ele>633.40002441406</ele>
        <time>2020-10-02T13:54:34.000Z</time>
      </trkpt>
      <trkpt lat="44.13586" lon="3.21651">
        <ele>633.59997558594</ele>
        <time>2020-10-02T13:54:36.000Z</time>
      </trkpt>
      <trkpt lat="44.13591" lon="3.21658">
        <ele>633.59997558594</ele>
        <time>2020-10-02T13:54:39.000Z</time>
      </trkpt>
      <trkpt lat="44.13594" lon="3.21661">
        <ele>633.59997558594</ele>
        <time>2020-10-02T13:54:40.000Z</time>
      </trkpt>
      <trkpt lat="44.13598" lon="3.21664">
        <ele>633.40002441406</ele>
        <time>2020-10-02T13:54:41.000Z</time>
      </trkpt>
      <trkpt lat="44.13606" lon="3.21667">
        <ele>633.20001220703</ele>
        <time>2020-10-02T13:54:43.000Z</time>
      </trkpt>
      <trkpt lat="44.1361" lon="3.21669">
        <ele>633.20001220703</ele>
        <time>2020-10-02T13:54:44.000Z</time>
      </trkpt>
      <trkpt lat="44.13625" lon="3.21676">
        <ele>632</ele>
        <time>2020-10-02T13:54:47.000Z</time>
      </trkpt>
      <trkpt lat="44.13633" lon="3.21688">
        <ele>630.79998779297</ele>
        <time>2020-10-02T13:54:49.000Z</time>
      </trkpt>
      <trkpt lat="44.13636" lon="3.21692">
        <ele>630.20001220703</ele>
        <time>2020-10-02T13:54:50.000Z</time>
      </trkpt>
      <trkpt lat="44.13639" lon="3.21697">
        <ele>629.79998779297</ele>
        <time>2020-10-02T13:54:51.000Z</time>
      </trkpt>
      <trkpt lat="44.13644" lon="3.21702">
        <ele>628.59997558594</ele>
        <time>2020-10-02T13:54:53.000Z</time>
      </trkpt>
      <trkpt lat="44.13649" lon="3.21701">
        <ele>628</ele>
        <time>2020-10-02T13:54:54.000Z</time>
      </trkpt>
      <trkpt lat="44.13652" lon="3.21702">
        <ele>627.20001220703</ele>
        <time>2020-10-02T13:54:55.000Z</time>
      </trkpt>
      <trkpt lat="44.13659" lon="3.21703">
        <ele>625.59997558594</ele>
        <time>2020-10-02T13:54:57.000Z</time>
      </trkpt>
      <trkpt lat="44.13666" lon="3.21702">
        <ele>624</ele>
        <time>2020-10-02T13:54:59.000Z</time>
      </trkpt>
      <trkpt lat="44.13669" lon="3.21701">
        <ele>623</ele>
        <time>2020-10-02T13:55:00.000Z</time>
      </trkpt>
      <trkpt lat="44.13678" lon="3.217">
        <ele>622</ele>
        <time>2020-10-02T13:55:02.000Z</time>
      </trkpt>
      <trkpt lat="44.13688" lon="3.21702">
        <ele>621</ele>
        <time>2020-10-02T13:55:05.000Z</time>
      </trkpt>
      <trkpt lat="44.13692" lon="3.217">
        <ele>621</ele>
        <time>2020-10-02T13:55:07.000Z</time>
      </trkpt>
      <trkpt lat="44.13695" lon="3.21699">
        <ele>620.79998779297</ele>
        <time>2020-10-02T13:55:08.000Z</time>
      </trkpt>
      <trkpt lat="44.13695" lon="3.21702">
        <ele>620.79998779297</ele>
        <time>2020-10-02T13:55:09.000Z</time>
      </trkpt>
      <trkpt lat="44.13698" lon="3.21706">
        <ele>620.59997558594</ele>
        <time>2020-10-02T13:55:13.000Z</time>
      </trkpt>
      <trkpt lat="44.13701" lon="3.21705">
        <ele>619.59997558594</ele>
        <time>2020-10-02T13:55:15.000Z</time>
      </trkpt>
      <trkpt lat="44.13704" lon="3.21705">
        <ele>618.59997558594</ele>
        <time>2020-10-02T13:55:17.000Z</time>
      </trkpt>
      <trkpt lat="44.13706" lon="3.2171">
        <ele>617.40002441406</ele>
        <time>2020-10-02T13:55:19.000Z</time>
      </trkpt>
      <trkpt lat="44.13705" lon="3.21711">
        <ele>617</ele>
        <time>2020-10-02T13:55:20.000Z</time>
      </trkpt>
      <trkpt lat="44.13704" lon="3.21712">
        <ele>616.20001220703</ele>
        <time>2020-10-02T13:55:21.000Z</time>
      </trkpt>
      <trkpt lat="44.13702" lon="3.21716">
        <ele>614.79998779297</ele>
        <time>2020-10-02T13:55:23.000Z</time>
      </trkpt>
      <trkpt lat="44.13703" lon="3.21718">
        <ele>614.20001220703</ele>
        <time>2020-10-02T13:55:24.000Z</time>
      </trkpt>
      <trkpt lat="44.13705" lon="3.2172">
        <ele>613.59997558594</ele>
        <time>2020-10-02T13:55:25.000Z</time>
      </trkpt>
      <trkpt lat="44.13709" lon="3.21721">
        <ele>612.20001220703</ele>
        <time>2020-10-02T13:55:27.000Z</time>
      </trkpt>
      <trkpt lat="44.13711" lon="3.2172">
        <ele>611.40002441406</ele>
        <time>2020-10-02T13:55:28.000Z</time>
      </trkpt>
      <trkpt lat="44.13713" lon="3.21721">
        <ele>610</ele>
        <time>2020-10-02T13:55:29.000Z</time>
      </trkpt>
      <trkpt lat="44.13714" lon="3.21726">
        <ele>608.20001220703</ele>
        <time>2020-10-02T13:55:31.000Z</time>
      </trkpt>
      <trkpt lat="44.13716" lon="3.21727">
        <ele>605.40002441406</ele>
        <time>2020-10-02T13:55:33.000Z</time>
      </trkpt>
      <trkpt lat="44.13717" lon="3.21727">
        <ele>604.79998779297</ele>
        <time>2020-10-02T13:55:34.000Z</time>
      </trkpt>
      <trkpt lat="44.13717" lon="3.21727">
        <ele>603.79998779297</ele>
        <time>2020-10-02T13:55:35.000Z</time>
      </trkpt>
      <trkpt lat="44.13718" lon="3.21728">
        <ele>602</ele>
        <time>2020-10-02T13:55:37.000Z</time>
      </trkpt>
      <trkpt lat="44.1372" lon="3.21728">
        <ele>600.59997558594</ele>
        <time>2020-10-02T13:55:39.000Z</time>
      </trkpt>
      <trkpt lat="44.1372" lon="3.21728">
        <ele>599.59997558594</ele>
        <time>2020-10-02T13:55:41.000Z</time>
      </trkpt>
      <trkpt lat="44.13721" lon="3.2173">
        <ele>598.79998779297</ele>
        <time>2020-10-02T13:55:44.000Z</time>
      </trkpt>
      <trkpt lat="44.13721" lon="3.21732">
        <ele>598.40002441406</ele>
        <time>2020-10-02T13:55:46.000Z</time>
      </trkpt>
      <trkpt lat="44.13719" lon="3.21735">
        <ele>598.40002441406</ele>
        <time>2020-10-02T13:55:48.000Z</time>
      </trkpt>
      <trkpt lat="44.13715" lon="3.2174">
        <ele>598.20001220703</ele>
        <time>2020-10-02T13:55:51.000Z</time>
      </trkpt>
      <trkpt lat="44.13711" lon="3.21745">
        <ele>597.40002441406</ele>
        <time>2020-10-02T13:55:53.000Z</time>
      </trkpt>
      <trkpt lat="44.13704" lon="3.21754">
        <ele>596.20001220703</ele>
        <time>2020-10-02T13:55:56.000Z</time>
      </trkpt>
      <trkpt lat="44.13701" lon="3.21758">
        <ele>595</ele>
        <time>2020-10-02T13:55:58.000Z</time>
      </trkpt>
      <trkpt lat="44.137" lon="3.21761">
        <ele>593.59997558594</ele>
        <time>2020-10-02T13:56:00.000Z</time>
      </trkpt>
      <trkpt lat="44.137" lon="3.21762">
        <ele>591.40002441406</ele>
        <time>2020-10-02T13:56:01.000Z</time>
      </trkpt>
      <trkpt lat="44.137" lon="3.21763">
        <ele>590</ele>
        <time>2020-10-02T13:56:03.000Z</time>
      </trkpt>
      <trkpt lat="44.13698" lon="3.21762">
        <ele>589</ele>
        <time>2020-10-02T13:56:04.000Z</time>
      </trkpt>
      <trkpt lat="44.13696" lon="3.21763">
        <ele>587.79998779297</ele>
        <time>2020-10-02T13:56:05.000Z</time>
      </trkpt>
      <trkpt lat="44.13695" lon="3.21766">
        <ele>586.79998779297</ele>
        <time>2020-10-02T13:56:06.000Z</time>
      </trkpt>
      <trkpt lat="44.13693" lon="3.21769">
        <ele>585.40002441406</ele>
        <time>2020-10-02T13:56:08.000Z</time>
      </trkpt>
      <trkpt lat="44.13693" lon="3.2177">
        <ele>584.79998779297</ele>
        <time>2020-10-02T13:56:09.000Z</time>
      </trkpt>
      <trkpt lat="44.13693" lon="3.21772">
        <ele>584.20001220703</ele>
        <time>2020-10-02T13:56:11.000Z</time>
      </trkpt>
      <trkpt lat="44.13692" lon="3.21775">
        <ele>583</ele>
        <time>2020-10-02T13:56:15.000Z</time>
      </trkpt>
      <trkpt lat="44.13693" lon="3.21775">
        <ele>582</ele>
        <time>2020-10-02T13:56:25.000Z</time>
      </trkpt>
      <trkpt lat="44.13693" lon="3.21778">
        <ele>582.20001220703</ele>
        <time>2020-10-02T13:56:40.000Z</time>
      </trkpt>
      <trkpt lat="44.13691" lon="3.21781">
        <ele>582.40002441406</ele>
        <time>2020-10-02T13:56:53.000Z</time>
      </trkpt>
      <trkpt lat="44.13693" lon="3.21779">
        <ele>582.20001220703</ele>
        <time>2020-10-02T13:57:05.000Z</time>
      </trkpt>
      <trkpt lat="44.1369" lon="3.21778">
        <ele>582.40002441406</ele>
        <time>2020-10-02T13:57:17.000Z</time>
      </trkpt>
      <trkpt lat="44.13691" lon="3.21778">
        <ele>582.40002441406</ele>
        <time>2020-10-02T13:57:33.000Z</time>
      </trkpt>
      <trkpt lat="44.13693" lon="3.21778">
        <ele>582.40002441406</ele>
        <time>2020-10-02T13:57:47.000Z</time>
      </trkpt>
      <trkpt lat="44.13694" lon="3.21776">
        <ele>582.59997558594</ele>
        <time>2020-10-02T13:58:04.000Z</time>
      </trkpt>
      <trkpt lat="44.13694" lon="3.21775">
        <ele>582.59997558594</ele>
        <time>2020-10-02T13:58:17.000Z</time>
      </trkpt>
      <trkpt lat="44.13694" lon="3.21775">
        <ele>582.59997558594</ele>
        <time>2020-10-02T13:58:33.000Z</time>
      </trkpt>
      <trkpt lat="44.13697" lon="3.21775">
        <ele>582.79998779297</ele>
        <time>2020-10-02T13:58:44.000Z</time>
      </trkpt>
      <trkpt lat="44.13697" lon="3.21778">
        <ele>583</ele>
        <time>2020-10-02T13:58:58.000Z</time>
      </trkpt>
      <trkpt lat="44.13694" lon="3.21784">
        <ele>583</ele>
        <time>2020-10-02T13:59:11.000Z</time>
      </trkpt>
      <trkpt lat="44.13694" lon="3.21785">
        <ele>583.20001220703</ele>
        <time>2020-10-02T13:59:12.000Z</time>
      </trkpt>
      <trkpt lat="44.13693" lon="3.21787">
        <ele>583.20001220703</ele>
        <time>2020-10-02T13:59:24.000Z</time>
      </trkpt>
      <trkpt lat="44.13689" lon="3.21792">
        <ele>583</ele>
        <time>2020-10-02T13:59:31.000Z</time>
      </trkpt>
      <trkpt lat="44.13688" lon="3.21794">
        <ele>583</ele>
        <time>2020-10-02T13:59:32.000Z</time>
      </trkpt>
      <trkpt lat="44.13681" lon="3.21797">
        <ele>582.40002441406</ele>
        <time>2020-10-02T13:59:37.000Z</time>
      </trkpt>
      <trkpt lat="44.13679" lon="3.21797">
        <ele>582</ele>
        <time>2020-10-02T13:59:38.000Z</time>
      </trkpt>
      <trkpt lat="44.13677" lon="3.21797">
        <ele>581.20001220703</ele>
        <time>2020-10-02T13:59:39.000Z</time>
      </trkpt>
      <trkpt lat="44.13676" lon="3.21797">
        <ele>580.20001220703</ele>
        <time>2020-10-02T13:59:40.000Z</time>
      </trkpt>
      <trkpt lat="44.13675" lon="3.21797">
        <ele>579</ele>
        <time>2020-10-02T13:59:41.000Z</time>
      </trkpt>
      <trkpt lat="44.13675" lon="3.21798">
        <ele>577.79998779297</ele>
        <time>2020-10-02T13:59:42.000Z</time>
      </trkpt>
      <trkpt lat="44.13675" lon="3.21798">
        <ele>576.59997558594</ele>
        <time>2020-10-02T13:59:43.000Z</time>
      </trkpt>
      <trkpt lat="44.13676" lon="3.21799">
        <ele>575.20001220703</ele>
        <time>2020-10-02T13:59:45.000Z</time>
      </trkpt>
      <trkpt lat="44.13676" lon="3.218">
        <ele>573.79998779297</ele>
        <time>2020-10-02T13:59:47.000Z</time>
      </trkpt>
      <trkpt lat="44.13677" lon="3.218">
        <ele>572.20001220703</ele>
        <time>2020-10-02T13:59:49.000Z</time>
      </trkpt>
      <trkpt lat="44.13676" lon="3.21801">
        <ele>571.79998779297</ele>
        <time>2020-10-02T13:59:51.000Z</time>
      </trkpt>
      <trkpt lat="44.13679" lon="3.21811">
        <ele>571.40002441406</ele>
        <time>2020-10-02T13:59:59.000Z</time>
      </trkpt>
      <trkpt lat="44.13681" lon="3.21814">
        <ele>571.20001220703</ele>
        <time>2020-10-02T14:00:02.000Z</time>
      </trkpt>
      <trkpt lat="44.13683" lon="3.21817">
        <ele>569.40002441406</ele>
        <time>2020-10-02T14:00:05.000Z</time>
      </trkpt>
      <trkpt lat="44.13684" lon="3.21819">
        <ele>568</ele>
        <time>2020-10-02T14:00:07.000Z</time>
      </trkpt>
      <trkpt lat="44.13685" lon="3.21819">
        <ele>566.40002441406</ele>
        <time>2020-10-02T14:00:09.000Z</time>
      </trkpt>
      <trkpt lat="44.13685" lon="3.2182">
        <ele>565.59997558594</ele>
        <time>2020-10-02T14:00:10.000Z</time>
      </trkpt>
      <trkpt lat="44.13685" lon="3.2182">
        <ele>565</ele>
        <time>2020-10-02T14:00:11.000Z</time>
      </trkpt>
      <trkpt lat="44.13684" lon="3.21819">
        <ele>564</ele>
        <time>2020-10-02T14:00:22.000Z</time>
      </trkpt>
      <trkpt lat="44.13676" lon="3.21812">
        <ele>564</ele>
        <time>2020-10-02T14:00:28.000Z</time>
      </trkpt>
      <trkpt lat="44.13675" lon="3.21811">
        <ele>563.79998779297</ele>
        <time>2020-10-02T14:00:31.000Z</time>
      </trkpt>
      <trkpt lat="44.13676" lon="3.21809">
        <ele>563.59997558594</ele>
        <time>2020-10-02T14:00:33.000Z</time>
      </trkpt>
      <trkpt lat="44.13676" lon="3.21803">
        <ele>563.40002441406</ele>
        <time>2020-10-02T14:00:41.000Z</time>
      </trkpt>
      <trkpt lat="44.13674" lon="3.21803">
        <ele>563.40002441406</ele>
        <time>2020-10-02T14:00:48.000Z</time>
      </trkpt>
      <trkpt lat="44.13673" lon="3.21804">
        <ele>563.20001220703</ele>
        <time>2020-10-02T14:00:56.000Z</time>
      </trkpt>
      <trkpt lat="44.13673" lon="3.21805">
        <ele>563.40002441406</ele>
        <time>2020-10-02T14:01:04.000Z</time>
      </trkpt>
      <trkpt lat="44.13674" lon="3.21802">
        <ele>563.40002441406</ele>
        <time>2020-10-02T14:01:12.000Z</time>
      </trkpt>
      <trkpt lat="44.13674" lon="3.21793">
        <ele>563.59997558594</ele>
        <time>2020-10-02T14:01:21.000Z</time>
      </trkpt>
      <trkpt lat="44.13669" lon="3.21796">
        <ele>563.40002441406</ele>
        <time>2020-10-02T14:01:30.000Z</time>
      </trkpt>
      <trkpt lat="44.13668" lon="3.21802">
        <ele>563.40002441406</ele>
        <time>2020-10-02T14:01:36.000Z</time>
      </trkpt>
      <trkpt lat="44.13668" lon="3.21805">
        <ele>563.40002441406</ele>
        <time>2020-10-02T14:01:44.000Z</time>
      </trkpt>
      <trkpt lat="44.13667" lon="3.21809">
        <ele>563.59997558594</ele>
        <time>2020-10-02T14:01:50.000Z</time>
      </trkpt>
      <trkpt lat="44.13669" lon="3.21806">
        <ele>563.59997558594</ele>
        <time>2020-10-02T14:01:58.000Z</time>
      </trkpt>
      <trkpt lat="44.13668" lon="3.21806">
        <ele>564</ele>
        <time>2020-10-02T14:02:07.000Z</time>
      </trkpt>
      <trkpt lat="44.13666" lon="3.21811">
        <ele>564</ele>
        <time>2020-10-02T14:02:16.000Z</time>
      </trkpt>
      <trkpt lat="44.13666" lon="3.21816">
        <ele>564</ele>
        <time>2020-10-02T14:02:23.000Z</time>
      </trkpt>
      <trkpt lat="44.13666" lon="3.21818">
        <ele>563.79998779297</ele>
        <time>2020-10-02T14:02:31.000Z</time>
      </trkpt>
      <trkpt lat="44.13667" lon="3.21817">
        <ele>563.79998779297</ele>
        <time>2020-10-02T14:02:38.000Z</time>
      </trkpt>
      <trkpt lat="44.13668" lon="3.21817">
        <ele>563.79998779297</ele>
        <time>2020-10-02T14:02:45.000Z</time>
      </trkpt>
      <trkpt lat="44.13669" lon="3.21815">
        <ele>563.79998779297</ele>
        <time>2020-10-02T14:02:54.000Z</time>
      </trkpt>
      <trkpt lat="44.1367" lon="3.21813">
        <ele>563.79998779297</ele>
        <time>2020-10-02T14:03:03.000Z</time>
      </trkpt>
      <trkpt lat="44.1367" lon="3.21812">
        <ele>563.79998779297</ele>
        <time>2020-10-02T14:03:09.000Z</time>
      </trkpt>
      <trkpt lat="44.13668" lon="3.21817">
        <ele>563.59997558594</ele>
        <time>2020-10-02T14:03:17.000Z</time>
      </trkpt>
      <trkpt lat="44.13668" lon="3.21814">
        <ele>563.59997558594</ele>
        <time>2020-10-02T14:03:24.000Z</time>
      </trkpt>
      <trkpt lat="44.1367" lon="3.21811">
        <ele>563.20001220703</ele>
        <time>2020-10-02T14:03:32.000Z</time>
      </trkpt>
      <trkpt lat="44.1367" lon="3.21809">
        <ele>563.40002441406</ele>
        <time>2020-10-02T14:03:40.000Z</time>
      </trkpt>
      <trkpt lat="44.13672" lon="3.21808">
        <ele>563.40002441406</ele>
        <time>2020-10-02T14:03:48.000Z</time>
      </trkpt>
      <trkpt lat="44.13671" lon="3.21815">
        <ele>563.40002441406</ele>
        <time>2020-10-02T14:03:57.000Z</time>
      </trkpt>
      <trkpt lat="44.13672" lon="3.21812">
        <ele>563.20001220703</ele>
        <time>2020-10-02T14:04:06.000Z</time>
      </trkpt>
      <trkpt lat="44.13674" lon="3.2181">
        <ele>563.40002441406</ele>
        <time>2020-10-02T14:04:16.000Z</time>
      </trkpt>
      <trkpt lat="44.13674" lon="3.21812">
        <ele>563.59997558594</ele>
        <time>2020-10-02T14:04:24.000Z</time>
      </trkpt>
      <trkpt lat="44.13674" lon="3.21814">
        <ele>563.40002441406</ele>
        <time>2020-10-02T14:04:34.000Z</time>
      </trkpt>
      <trkpt lat="44.13675" lon="3.21813">
        <ele>563.40002441406</ele>
        <time>2020-10-02T14:04:44.000Z</time>
      </trkpt>
      <trkpt lat="44.13674" lon="3.21814">
        <ele>563.40002441406</ele>
        <time>2020-10-02T14:04:51.000Z</time>
      </trkpt>
      <trkpt lat="44.13673" lon="3.21815">
        <ele>563.40002441406</ele>
        <time>2020-10-02T14:04:58.000Z</time>
      </trkpt>
      <trkpt lat="44.13673" lon="3.21815">
        <ele>563.40002441406</ele>
        <time>2020-10-02T14:05:07.000Z</time>
      </trkpt>
      <trkpt lat="44.13672" lon="3.21817">
        <ele>563.40002441406</ele>
        <time>2020-10-02T14:05:15.000Z</time>
      </trkpt>
      <trkpt lat="44.13672" lon="3.21814">
        <ele>563.20001220703</ele>
        <time>2020-10-02T14:05:25.000Z</time>
      </trkpt>
      <trkpt lat="44.13671" lon="3.21816">
        <ele>563.40002441406</ele>
        <time>2020-10-02T14:05:33.000Z</time>
      </trkpt>
      <trkpt lat="44.13672" lon="3.21813">
        <ele>563</ele>
        <time>2020-10-02T14:05:41.000Z</time>
      </trkpt>
      <trkpt lat="44.13673" lon="3.21813">
        <ele>563.20001220703</ele>
        <time>2020-10-02T14:05:51.000Z</time>
      </trkpt>
      <trkpt lat="44.13673" lon="3.21814">
        <ele>563.20001220703</ele>
        <time>2020-10-02T14:05:52.000Z</time>
      </trkpt>
      <trkpt lat="44.13675" lon="3.21819">
        <ele>563.40002441406</ele>
        <time>2020-10-02T14:06:02.000Z</time>
      </trkpt>
      <trkpt lat="44.13676" lon="3.21818">
        <ele>563.40002441406</ele>
        <time>2020-10-02T14:06:11.000Z</time>
      </trkpt>
      <trkpt lat="44.13675" lon="3.2182">
        <ele>563.40002441406</ele>
        <time>2020-10-02T14:06:18.000Z</time>
      </trkpt>
      <trkpt lat="44.13674" lon="3.2182">
        <ele>563.40002441406</ele>
        <time>2020-10-02T14:06:21.000Z</time>
      </trkpt>
      <trkpt lat="44.13674" lon="3.21817">
        <ele>563</ele>
        <time>2020-10-02T14:06:30.000Z</time>
      </trkpt>
      <trkpt lat="44.13673" lon="3.21815">
        <ele>563</ele>
        <time>2020-10-02T14:06:38.000Z</time>
      </trkpt>
      <trkpt lat="44.1367" lon="3.21819">
        <ele>563</ele>
        <time>2020-10-02T14:06:45.000Z</time>
      </trkpt>
      <trkpt lat="44.13669" lon="3.21819">
        <ele>563</ele>
        <time>2020-10-02T14:06:46.000Z</time>
      </trkpt>
      <trkpt lat="44.13657" lon="3.2182">
        <ele>563.20001220703</ele>
        <time>2020-10-02T14:06:50.000Z</time>
      </trkpt>
      <trkpt lat="44.13649" lon="3.21818">
        <ele>563</ele>
        <time>2020-10-02T14:06:53.000Z</time>
      </trkpt>
      <trkpt lat="44.13648" lon="3.21816">
        <ele>563</ele>
        <time>2020-10-02T14:06:54.000Z</time>
      </trkpt>
      <trkpt lat="44.13645" lon="3.21812">
        <ele>562.59997558594</ele>
        <time>2020-10-02T14:06:57.000Z</time>
      </trkpt>
      <trkpt lat="44.13644" lon="3.2181">
        <ele>562</ele>
        <time>2020-10-02T14:06:59.000Z</time>
      </trkpt>
      <trkpt lat="44.13634" lon="3.21806">
        <ele>561.40002441406</ele>
        <time>2020-10-02T14:07:05.000Z</time>
      </trkpt>
      <trkpt lat="44.13632" lon="3.21806">
        <ele>561.20001220703</ele>
        <time>2020-10-02T14:07:06.000Z</time>
      </trkpt>
      <trkpt lat="44.13626" lon="3.21804">
        <ele>560.20001220703</ele>
        <time>2020-10-02T14:07:09.000Z</time>
      </trkpt>
      <trkpt lat="44.13623" lon="3.21803">
        <ele>559.40002441406</ele>
        <time>2020-10-02T14:07:11.000Z</time>
      </trkpt>
      <trkpt lat="44.13622" lon="3.21803">
        <ele>558.79998779297</ele>
        <time>2020-10-02T14:07:12.000Z</time>
      </trkpt>
      <trkpt lat="44.13621" lon="3.21805">
        <ele>558.40002441406</ele>
        <time>2020-10-02T14:07:13.000Z</time>
      </trkpt>
      <trkpt lat="44.13617" lon="3.21808">
        <ele>557.40002441406</ele>
        <time>2020-10-02T14:07:15.000Z</time>
      </trkpt>
      <trkpt lat="44.13616" lon="3.2181">
        <ele>556.59997558594</ele>
        <time>2020-10-02T14:07:16.000Z</time>
      </trkpt>
      <trkpt lat="44.13616" lon="3.21811">
        <ele>556.40002441406</ele>
        <time>2020-10-02T14:07:17.000Z</time>
      </trkpt>
      <trkpt lat="44.13614" lon="3.2181">
        <ele>556</ele>
        <time>2020-10-02T14:07:18.000Z</time>
      </trkpt>
      <trkpt lat="44.13611" lon="3.21806">
        <ele>555.59997558594</ele>
        <time>2020-10-02T14:07:20.000Z</time>
      </trkpt>
      <trkpt lat="44.13605" lon="3.21804">
        <ele>555</ele>
        <time>2020-10-02T14:07:23.000Z</time>
      </trkpt>
      <trkpt lat="44.13598" lon="3.21799">
        <ele>554.79998779297</ele>
        <time>2020-10-02T14:07:26.000Z</time>
      </trkpt>
      <trkpt lat="44.13586" lon="3.21789">
        <ele>554.59997558594</ele>
        <time>2020-10-02T14:07:32.000Z</time>
      </trkpt>
      <trkpt lat="44.13575" lon="3.21785">
        <ele>554.40002441406</ele>
        <time>2020-10-02T14:07:37.000Z</time>
      </trkpt>
      <trkpt lat="44.13571" lon="3.21787">
        <ele>554.40002441406</ele>
        <time>2020-10-02T14:07:38.000Z</time>
      </trkpt>
      <trkpt lat="44.13559" lon="3.21799">
        <ele>554.20001220703</ele>
        <time>2020-10-02T14:07:41.000Z</time>
      </trkpt>
      <trkpt lat="44.13548" lon="3.21808">
        <ele>554.20001220703</ele>
        <time>2020-10-02T14:07:44.000Z</time>
      </trkpt>
      <trkpt lat="44.13544" lon="3.21809">
        <ele>553.79998779297</ele>
        <time>2020-10-02T14:07:46.000Z</time>
      </trkpt>
      <trkpt lat="44.13542" lon="3.2181">
        <ele>553.79998779297</ele>
        <time>2020-10-02T14:07:47.000Z</time>
      </trkpt>
      <trkpt lat="44.13535" lon="3.21808">
        <ele>553.79998779297</ele>
        <time>2020-10-02T14:07:53.000Z</time>
      </trkpt>
      <trkpt lat="44.13527" lon="3.21808">
        <ele>553.59997558594</ele>
        <time>2020-10-02T14:08:00.000Z</time>
      </trkpt>
      <trkpt lat="44.13521" lon="3.21808">
        <ele>553.40002441406</ele>
        <time>2020-10-02T14:08:02.000Z</time>
      </trkpt>
      <trkpt lat="44.13501" lon="3.21807">
        <ele>553.20001220703</ele>
        <time>2020-10-02T14:08:06.000Z</time>
      </trkpt>
      <trkpt lat="44.13474" lon="3.21805">
        <ele>552.79998779297</ele>
        <time>2020-10-02T14:08:10.000Z</time>
      </trkpt>
      <trkpt lat="44.13454" lon="3.21817">
        <ele>551.79998779297</ele>
        <time>2020-10-02T14:08:13.000Z</time>
      </trkpt>
      <trkpt lat="44.13449" lon="3.2182">
        <ele>550.59997558594</ele>
        <time>2020-10-02T14:08:14.000Z</time>
      </trkpt>
      <trkpt lat="44.13444" lon="3.21823">
        <ele>549.40002441406</ele>
        <time>2020-10-02T14:08:15.000Z</time>
      </trkpt>
      <trkpt lat="44.13441" lon="3.21826">
        <ele>547.79998779297</ele>
        <time>2020-10-02T14:08:16.000Z</time>
      </trkpt>
      <trkpt lat="44.13438" lon="3.21828">
        <ele>546.79998779297</ele>
        <time>2020-10-02T14:08:17.000Z</time>
      </trkpt>
      <trkpt lat="44.13437" lon="3.21829">
        <ele>545.40002441406</ele>
        <time>2020-10-02T14:08:18.000Z</time>
      </trkpt>
      <trkpt lat="44.13438" lon="3.21828">
        <ele>544.40002441406</ele>
        <time>2020-10-02T14:08:19.000Z</time>
      </trkpt>
      <trkpt lat="44.13438" lon="3.21829">
        <ele>543.40002441406</ele>
        <time>2020-10-02T14:08:20.000Z</time>
      </trkpt>
      <trkpt lat="44.13439" lon="3.21829">
        <ele>542.40002441406</ele>
        <time>2020-10-02T14:08:21.000Z</time>
      </trkpt>
      <trkpt lat="44.13439" lon="3.21829">
        <ele>542</ele>
        <time>2020-10-02T14:08:22.000Z</time>
      </trkpt>
      <trkpt lat="44.13439" lon="3.21829">
        <ele>540.40002441406</ele>
        <time>2020-10-02T14:08:24.000Z</time>
      </trkpt>
      <trkpt lat="44.13439" lon="3.21829">
        <ele>539.20001220703</ele>
        <time>2020-10-02T14:08:27.000Z</time>
      </trkpt>
      <trkpt lat="44.13438" lon="3.21829">
        <ele>538.79998779297</ele>
        <time>2020-10-02T14:08:36.000Z</time>
      </trkpt>
      <trkpt lat="44.13433" lon="3.21834">
        <ele>538.79998779297</ele>
        <time>2020-10-02T14:08:46.000Z</time>
      </trkpt>
      <trkpt lat="44.13422" lon="3.21841">
        <ele>539</ele>
        <time>2020-10-02T14:08:52.000Z</time>
      </trkpt>
      <trkpt lat="44.13417" lon="3.21851">
        <ele>540.20001220703</ele>
        <time>2020-10-02T14:08:57.000Z</time>
      </trkpt>
      <trkpt lat="44.13416" lon="3.21852">
        <ele>540.20001220703</ele>
        <time>2020-10-02T14:08:58.000Z</time>
      </trkpt>
      <trkpt lat="44.13416" lon="3.21855">
        <ele>541.40002441406</ele>
        <time>2020-10-02T14:09:02.000Z</time>
      </trkpt>
      <trkpt lat="44.13416" lon="3.21857">
        <ele>542.20001220703</ele>
        <time>2020-10-02T14:09:05.000Z</time>
      </trkpt>
      <trkpt lat="44.13417" lon="3.21856">
        <ele>542.40002441406</ele>
        <time>2020-10-02T14:09:07.000Z</time>
      </trkpt>
      <trkpt lat="44.13416" lon="3.21852">
        <ele>542.20001220703</ele>
        <time>2020-10-02T14:09:18.000Z</time>
      </trkpt>
      <trkpt lat="44.13417" lon="3.2185">
        <ele>541.79998779297</ele>
        <time>2020-10-02T14:09:31.000Z</time>
      </trkpt>
      <trkpt lat="44.1342" lon="3.21848">
        <ele>541.79998779297</ele>
        <time>2020-10-02T14:09:32.000Z</time>
      </trkpt>
      <trkpt lat="44.13425" lon="3.21843">
        <ele>541.79998779297</ele>
        <time>2020-10-02T14:09:34.000Z</time>
      </trkpt>
      <trkpt lat="44.13435" lon="3.21834">
        <ele>541.59997558594</ele>
        <time>2020-10-02T14:09:38.000Z</time>
      </trkpt>
      <trkpt lat="44.13439" lon="3.2183">
        <ele>541</ele>
        <time>2020-10-02T14:09:40.000Z</time>
      </trkpt>
      <trkpt lat="44.13442" lon="3.21828">
        <ele>540.59997558594</ele>
        <time>2020-10-02T14:09:42.000Z</time>
      </trkpt>
      <trkpt lat="44.13443" lon="3.21828">
        <ele>540</ele>
        <time>2020-10-02T14:09:45.000Z</time>
      </trkpt>
      <trkpt lat="44.13444" lon="3.21827">
        <ele>538.79998779297</ele>
        <time>2020-10-02T14:09:48.000Z</time>
      </trkpt>
      <trkpt lat="44.13444" lon="3.21828">
        <ele>538.40002441406</ele>
        <time>2020-10-02T14:10:01.000Z</time>
      </trkpt>
      <trkpt lat="44.13444" lon="3.21823">
        <ele>538.20001220703</ele>
        <time>2020-10-02T14:10:16.000Z</time>
      </trkpt>
      <trkpt lat="44.13441" lon="3.21818">
        <ele>537.79998779297</ele>
        <time>2020-10-02T14:10:23.000Z</time>
      </trkpt>
      <trkpt lat="44.1344" lon="3.2182">
        <ele>537.79998779297</ele>
        <time>2020-10-02T14:10:24.000Z</time>
      </trkpt>
      <trkpt lat="44.13438" lon="3.21821">
        <ele>537.79998779297</ele>
        <time>2020-10-02T14:10:25.000Z</time>
      </trkpt>
      <trkpt lat="44.13438" lon="3.21823">
        <ele>537</ele>
        <time>2020-10-02T14:10:28.000Z</time>
      </trkpt>
      <trkpt lat="44.13438" lon="3.21824">
        <ele>536.59997558594</ele>
        <time>2020-10-02T14:10:29.000Z</time>
      </trkpt>
      <trkpt lat="44.13437" lon="3.21825">
        <ele>534.79998779297</ele>
        <time>2020-10-02T14:10:31.000Z</time>
      </trkpt>
      <trkpt lat="44.13436" lon="3.21824">
        <ele>534.20001220703</ele>
        <time>2020-10-02T14:10:32.000Z</time>
      </trkpt>
      <trkpt lat="44.13433" lon="3.21824">
        <ele>533.59997558594</ele>
        <time>2020-10-02T14:10:34.000Z</time>
      </trkpt>
      <trkpt lat="44.13423" lon="3.21825">
        <ele>533.20001220703</ele>
        <time>2020-10-02T14:10:38.000Z</time>
      </trkpt>
      <trkpt lat="44.13409" lon="3.21828">
        <ele>533.20001220703</ele>
        <time>2020-10-02T14:10:43.000Z</time>
      </trkpt>
      <trkpt lat="44.13403" lon="3.21829">
        <ele>533</ele>
        <time>2020-10-02T14:10:46.000Z</time>
      </trkpt>
      <trkpt lat="44.13399" lon="3.21831">
        <ele>532.79998779297</ele>
        <time>2020-10-02T14:10:48.000Z</time>
      </trkpt>
      <trkpt lat="44.13396" lon="3.2183">
        <ele>532.40002441406</ele>
        <time>2020-10-02T14:10:49.000Z</time>
      </trkpt>
      <trkpt lat="44.13388" lon="3.21834">
        <ele>530.79998779297</ele>
        <time>2020-10-02T14:10:52.000Z</time>
      </trkpt>
      <trkpt lat="44.13385" lon="3.21835">
        <ele>530.40002441406</ele>
        <time>2020-10-02T14:10:53.000Z</time>
      </trkpt>
      <trkpt lat="44.13383" lon="3.21835">
        <ele>529.79998779297</ele>
        <time>2020-10-02T14:10:54.000Z</time>
      </trkpt>
      <trkpt lat="44.13379" lon="3.21836">
        <ele>527.40002441406</ele>
        <time>2020-10-02T14:10:56.000Z</time>
      </trkpt>
      <trkpt lat="44.13377" lon="3.21836">
        <ele>526.20001220703</ele>
        <time>2020-10-02T14:10:57.000Z</time>
      </trkpt>
      <trkpt lat="44.13376" lon="3.21837">
        <ele>524.79998779297</ele>
        <time>2020-10-02T14:10:59.000Z</time>
      </trkpt>
      <trkpt lat="44.13377" lon="3.21839">
        <ele>523.59997558594</ele>
        <time>2020-10-02T14:11:02.000Z</time>
      </trkpt>
      <trkpt lat="44.13377" lon="3.21841">
        <ele>521.79998779297</ele>
        <time>2020-10-02T14:11:06.000Z</time>
      </trkpt>
      <trkpt lat="44.13377" lon="3.21841">
        <ele>520.79998779297</ele>
        <time>2020-10-02T14:11:09.000Z</time>
      </trkpt>
      <trkpt lat="44.13377" lon="3.21842">
        <ele>520.59997558594</ele>
        <time>2020-10-02T14:11:17.000Z</time>
      </trkpt>
      <trkpt lat="44.13372" lon="3.21847">
        <ele>520.20001220703</ele>
        <time>2020-10-02T14:11:26.000Z</time>
      </trkpt>
      <trkpt lat="44.13369" lon="3.21848">
        <ele>519.59997558594</ele>
        <time>2020-10-02T14:11:31.000Z</time>
      </trkpt>
      <trkpt lat="44.13368" lon="3.21849">
        <ele>519</ele>
        <time>2020-10-02T14:11:32.000Z</time>
      </trkpt>
      <trkpt lat="44.13364" lon="3.21848">
        <ele>518.20001220703</ele>
        <time>2020-10-02T14:11:34.000Z</time>
      </trkpt>
      <trkpt lat="44.13359" lon="3.21846">
        <ele>517.79998779297</ele>
        <time>2020-10-02T14:11:37.000Z</time>
      </trkpt>
      <trkpt lat="44.13358" lon="3.21848">
        <ele>517.59997558594</ele>
        <time>2020-10-02T14:11:39.000Z</time>
      </trkpt>
      <trkpt lat="44.13356" lon="3.21853">
        <ele>516.59997558594</ele>
        <time>2020-10-02T14:11:41.000Z</time>
      </trkpt>
      <trkpt lat="44.13354" lon="3.21859">
        <ele>514.79998779297</ele>
        <time>2020-10-02T14:11:43.000Z</time>
      </trkpt>
      <trkpt lat="44.13353" lon="3.21861">
        <ele>513.79998779297</ele>
        <time>2020-10-02T14:11:44.000Z</time>
      </trkpt>
      <trkpt lat="44.13353" lon="3.21864">
        <ele>513.20001220703</ele>
        <time>2020-10-02T14:11:45.000Z</time>
      </trkpt>
      <trkpt lat="44.13352" lon="3.21866">
        <ele>512.20001220703</ele>
        <time>2020-10-02T14:11:46.000Z</time>
      </trkpt>
      <trkpt lat="44.13349" lon="3.21871">
        <ele>511.60000610352</ele>
        <time>2020-10-02T14:11:48.000Z</time>
      </trkpt>
      <trkpt lat="44.13346" lon="3.21874">
        <ele>511.20001220703</ele>
        <time>2020-10-02T14:11:50.000Z</time>
      </trkpt>
      <trkpt lat="44.13339" lon="3.2188">
        <ele>510</ele>
        <time>2020-10-02T14:11:54.000Z</time>
      </trkpt>
      <trkpt lat="44.13336" lon="3.21883">
        <ele>509.39999389648</ele>
        <time>2020-10-02T14:11:55.000Z</time>
      </trkpt>
      <trkpt lat="44.13328" lon="3.21892">
        <ele>509</ele>
        <time>2020-10-02T14:11:59.000Z</time>
      </trkpt>
      <trkpt lat="44.13324" lon="3.21895">
        <ele>508.79998779297</ele>
        <time>2020-10-02T14:12:01.000Z</time>
      </trkpt>
      <trkpt lat="44.1332" lon="3.21897">
        <ele>507.60000610352</ele>
        <time>2020-10-02T14:12:04.000Z</time>
      </trkpt>
      <trkpt lat="44.1331" lon="3.21904">
        <ele>507</ele>
        <time>2020-10-02T14:12:08.000Z</time>
      </trkpt>
      <trkpt lat="44.13303" lon="3.21905">
        <ele>507</ele>
        <time>2020-10-02T14:12:10.000Z</time>
      </trkpt>
      <trkpt lat="44.13295" lon="3.21906">
        <ele>506.60000610352</ele>
        <time>2020-10-02T14:12:12.000Z</time>
      </trkpt>
      <trkpt lat="44.13289" lon="3.21906">
        <ele>506.39999389648</ele>
        <time>2020-10-02T14:12:14.000Z</time>
      </trkpt>
      <trkpt lat="44.13285" lon="3.21907">
        <ele>505.60000610352</ele>
        <time>2020-10-02T14:12:16.000Z</time>
      </trkpt>
      <trkpt lat="44.13283" lon="3.21909">
        <ele>505</ele>
        <time>2020-10-02T14:12:17.000Z</time>
      </trkpt>
      <trkpt lat="44.13279" lon="3.21911">
        <ele>503</ele>
        <time>2020-10-02T14:12:19.000Z</time>
      </trkpt>
      <trkpt lat="44.13279" lon="3.21912">
        <ele>502.20001220703</ele>
        <time>2020-10-02T14:12:21.000Z</time>
      </trkpt>
      <trkpt lat="44.13279" lon="3.21912">
        <ele>502</ele>
        <time>2020-10-02T14:12:22.000Z</time>
      </trkpt>
      <trkpt lat="44.13277" lon="3.21913">
        <ele>500.60000610352</ele>
        <time>2020-10-02T14:12:25.000Z</time>
      </trkpt>
      <trkpt lat="44.13277" lon="3.21913">
        <ele>499.39999389648</ele>
        <time>2020-10-02T14:12:27.000Z</time>
      </trkpt>
      <trkpt lat="44.13274" lon="3.21913">
        <ele>498.20001220703</ele>
        <time>2020-10-02T14:12:30.000Z</time>
      </trkpt>
      <trkpt lat="44.13268" lon="3.21916">
        <ele>497.79998779297</ele>
        <time>2020-10-02T14:12:37.000Z</time>
      </trkpt>
      <trkpt lat="44.13262" lon="3.21914">
        <ele>497.79998779297</ele>
        <time>2020-10-02T14:12:40.000Z</time>
      </trkpt>
      <trkpt lat="44.13256" lon="3.21914">
        <ele>497.39999389648</ele>
        <time>2020-10-02T14:12:43.000Z</time>
      </trkpt>
      <trkpt lat="44.13244" lon="3.21918">
        <ele>497.20001220703</ele>
        <time>2020-10-02T14:12:47.000Z</time>
      </trkpt>
      <trkpt lat="44.13236" lon="3.21921">
        <ele>496.79998779297</ele>
        <time>2020-10-02T14:12:51.000Z</time>
      </trkpt>
      <trkpt lat="44.13228" lon="3.21923">
        <ele>496</ele>
        <time>2020-10-02T14:13:00.000Z</time>
      </trkpt>
      <trkpt lat="44.13215" lon="3.21921">
        <ele>495.79998779297</ele>
        <time>2020-10-02T14:13:06.000Z</time>
      </trkpt>
      <trkpt lat="44.13197" lon="3.21923">
        <ele>495.20001220703</ele>
        <time>2020-10-02T14:13:11.000Z</time>
      </trkpt>
      <trkpt lat="44.13192" lon="3.21927">
        <ele>494.20001220703</ele>
        <time>2020-10-02T14:13:13.000Z</time>
      </trkpt>
      <trkpt lat="44.13182" lon="3.21934">
        <ele>492.79998779297</ele>
        <time>2020-10-02T14:13:17.000Z</time>
      </trkpt>
      <trkpt lat="44.13178" lon="3.21937">
        <ele>491.79998779297</ele>
        <time>2020-10-02T14:13:19.000Z</time>
      </trkpt>
      <trkpt lat="44.13172" lon="3.21942">
        <ele>490.60000610352</ele>
        <time>2020-10-02T14:13:22.000Z</time>
      </trkpt>
      <trkpt lat="44.13171" lon="3.21943">
        <ele>490.39999389648</ele>
        <time>2020-10-02T14:13:23.000Z</time>
      </trkpt>
      <trkpt lat="44.13162" lon="3.2196">
        <ele>489.60000610352</ele>
        <time>2020-10-02T14:13:28.000Z</time>
      </trkpt>
      <trkpt lat="44.13158" lon="3.21967">
        <ele>489.39999389648</ele>
        <time>2020-10-02T14:13:30.000Z</time>
      </trkpt>
      <trkpt lat="44.13155" lon="3.21974">
        <ele>489</ele>
        <time>2020-10-02T14:13:32.000Z</time>
      </trkpt>
      <trkpt lat="44.13153" lon="3.21975">
        <ele>488.60000610352</ele>
        <time>2020-10-02T14:13:33.000Z</time>
      </trkpt>
      <trkpt lat="44.13151" lon="3.21976">
        <ele>488.20001220703</ele>
        <time>2020-10-02T14:13:34.000Z</time>
      </trkpt>
      <trkpt lat="44.13144" lon="3.2198">
        <ele>487.79998779297</ele>
        <time>2020-10-02T14:13:38.000Z</time>
      </trkpt>
      <trkpt lat="44.1314" lon="3.21984">
        <ele>487</ele>
        <time>2020-10-02T14:13:40.000Z</time>
      </trkpt>
      <trkpt lat="44.13138" lon="3.21985">
        <ele>486.79998779297</ele>
        <time>2020-10-02T14:13:42.000Z</time>
      </trkpt>
      <trkpt lat="44.13138" lon="3.21986">
        <ele>486.60000610352</ele>
        <time>2020-10-02T14:13:43.000Z</time>
      </trkpt>
      <trkpt lat="44.13133" lon="3.21991">
        <ele>485.79998779297</ele>
        <time>2020-10-02T14:13:47.000Z</time>
      </trkpt>
      <trkpt lat="44.13128" lon="3.21994">
        <ele>485.79998779297</ele>
        <time>2020-10-02T14:13:50.000Z</time>
      </trkpt>
      <trkpt lat="44.13118" lon="3.21998">
        <ele>485.20001220703</ele>
        <time>2020-10-02T14:13:58.000Z</time>
      </trkpt>
      <trkpt lat="44.13107" lon="3.22012">
        <ele>485.20001220703</ele>
        <time>2020-10-02T14:14:01.000Z</time>
      </trkpt>
      <trkpt lat="44.131" lon="3.2202">
        <ele>485</ele>
        <time>2020-10-02T14:14:04.000Z</time>
      </trkpt>
      <trkpt lat="44.13093" lon="3.22019">
        <ele>484.20001220703</ele>
        <time>2020-10-02T14:14:07.000Z</time>
      </trkpt>
      <trkpt lat="44.1309" lon="3.22018">
        <ele>482</ele>
        <time>2020-10-02T14:14:08.000Z</time>
      </trkpt>
      <trkpt lat="44.13085" lon="3.2202">
        <ele>480.39999389648</ele>
        <time>2020-10-02T14:14:10.000Z</time>
      </trkpt>
      <trkpt lat="44.13077" lon="3.22022">
        <ele>479.60000610352</ele>
        <time>2020-10-02T14:14:12.000Z</time>
      </trkpt>
      <trkpt lat="44.13073" lon="3.22023">
        <ele>479.20001220703</ele>
        <time>2020-10-02T14:14:13.000Z</time>
      </trkpt>
      <trkpt lat="44.13064" lon="3.2203">
        <ele>478</ele>
        <time>2020-10-02T14:14:16.000Z</time>
      </trkpt>
      <trkpt lat="44.13058" lon="3.22036">
        <ele>476.79998779297</ele>
        <time>2020-10-02T14:14:19.000Z</time>
      </trkpt>
      <trkpt lat="44.13052" lon="3.22037">
        <ele>476.39999389648</ele>
        <time>2020-10-02T14:14:21.000Z</time>
      </trkpt>
      <trkpt lat="44.13048" lon="3.22041">
        <ele>476.20001220703</ele>
        <time>2020-10-02T14:14:23.000Z</time>
      </trkpt>
      <trkpt lat="44.13047" lon="3.22044">
        <ele>475.79998779297</ele>
        <time>2020-10-02T14:14:25.000Z</time>
      </trkpt>
      <trkpt lat="44.13044" lon="3.22046">
        <ele>475.60000610352</ele>
        <time>2020-10-02T14:14:29.000Z</time>
      </trkpt>
      <trkpt lat="44.13044" lon="3.22049">
        <ele>475.20001220703</ele>
        <time>2020-10-02T14:14:34.000Z</time>
      </trkpt>
      <trkpt lat="44.13038" lon="3.22054">
        <ele>475</ele>
        <time>2020-10-02T14:14:40.000Z</time>
      </trkpt>
      <trkpt lat="44.13037" lon="3.22056">
        <ele>475</ele>
        <time>2020-10-02T14:14:41.000Z</time>
      </trkpt>
      <trkpt lat="44.13029" lon="3.22064">
        <ele>475</ele>
        <time>2020-10-02T14:14:45.000Z</time>
      </trkpt>
      <trkpt lat="44.13027" lon="3.22066">
        <ele>475</ele>
        <time>2020-10-02T14:14:46.000Z</time>
      </trkpt>
      <trkpt lat="44.13021" lon="3.22068">
        <ele>474.60000610352</ele>
        <time>2020-10-02T14:14:50.000Z</time>
      </trkpt>
      <trkpt lat="44.13014" lon="3.22075">
        <ele>474.39999389648</ele>
        <time>2020-10-02T14:14:54.000Z</time>
      </trkpt>
      <trkpt lat="44.13015" lon="3.22091">
        <ele>474</ele>
        <time>2020-10-02T14:14:58.000Z</time>
      </trkpt>
      <trkpt lat="44.13014" lon="3.22094">
        <ele>474</ele>
        <time>2020-10-02T14:14:59.000Z</time>
      </trkpt>
      <trkpt lat="44.13009" lon="3.22101">
        <ele>473.39999389648</ele>
        <time>2020-10-02T14:15:02.000Z</time>
      </trkpt>
      <trkpt lat="44.13008" lon="3.22108">
        <ele>473.20001220703</ele>
        <time>2020-10-02T14:15:04.000Z</time>
      </trkpt>
      <trkpt lat="44.13007" lon="3.22117">
        <ele>472.39999389648</ele>
        <time>2020-10-02T14:15:06.000Z</time>
      </trkpt>
      <trkpt lat="44.13007" lon="3.2212">
        <ele>472.39999389648</ele>
        <time>2020-10-02T14:15:07.000Z</time>
      </trkpt>
      <trkpt lat="44.13001" lon="3.22139">
        <ele>471.39999389648</ele>
        <time>2020-10-02T14:15:12.000Z</time>
      </trkpt>
      <trkpt lat="44.12995" lon="3.22149">
        <ele>470</ele>
        <time>2020-10-02T14:15:17.000Z</time>
      </trkpt>
      <trkpt lat="44.12993" lon="3.2215">
        <ele>469.60000610352</ele>
        <time>2020-10-02T14:15:18.000Z</time>
      </trkpt>
      <trkpt lat="44.12987" lon="3.22155">
        <ele>468.79998779297</ele>
        <time>2020-10-02T14:15:21.000Z</time>
      </trkpt>
      <trkpt lat="44.1298" lon="3.22157">
        <ele>467.79998779297</ele>
        <time>2020-10-02T14:15:24.000Z</time>
      </trkpt>
      <trkpt lat="44.12978" lon="3.22158">
        <ele>467.39999389648</ele>
        <time>2020-10-02T14:15:25.000Z</time>
      </trkpt>
      <trkpt lat="44.12977" lon="3.2216">
        <ele>466.20001220703</ele>
        <time>2020-10-02T14:15:27.000Z</time>
      </trkpt>
      <trkpt lat="44.12977" lon="3.2216">
        <ele>465.79998779297</ele>
        <time>2020-10-02T14:15:28.000Z</time>
      </trkpt>
      <trkpt lat="44.12976" lon="3.22161">
        <ele>464.60000610352</ele>
        <time>2020-10-02T14:15:30.000Z</time>
      </trkpt>
      <trkpt lat="44.12974" lon="3.22163">
        <ele>463.39999389648</ele>
        <time>2020-10-02T14:15:33.000Z</time>
      </trkpt>
      <trkpt lat="44.12971" lon="3.22165">
        <ele>462.79998779297</ele>
        <time>2020-10-02T14:15:41.000Z</time>
      </trkpt>
      <trkpt lat="44.12971" lon="3.22166">
        <ele>462.39999389648</ele>
        <time>2020-10-02T14:16:01.000Z</time>
      </trkpt>
      <trkpt lat="44.12969" lon="3.22167">
        <ele>462.20001220703</ele>
        <time>2020-10-02T14:16:13.000Z</time>
      </trkpt>
      <trkpt lat="44.12959" lon="3.22169">
        <ele>462.20001220703</ele>
        <time>2020-10-02T14:16:22.000Z</time>
      </trkpt>
      <trkpt lat="44.12953" lon="3.22168">
        <ele>462.20001220703</ele>
        <time>2020-10-02T14:16:26.000Z</time>
      </trkpt>
      <trkpt lat="44.12952" lon="3.22167">
        <ele>461.79998779297</ele>
        <time>2020-10-02T14:16:29.000Z</time>
      </trkpt>
      <trkpt lat="44.12951" lon="3.22166">
        <ele>460.60000610352</ele>
        <time>2020-10-02T14:16:32.000Z</time>
      </trkpt>
      <trkpt lat="44.1295" lon="3.22166">
        <ele>460.39999389648</ele>
        <time>2020-10-02T14:16:33.000Z</time>
      </trkpt>
      <trkpt lat="44.1295" lon="3.22165">
        <ele>460</ele>
        <time>2020-10-02T14:16:42.000Z</time>
      </trkpt>
      <trkpt lat="44.12948" lon="3.22164">
        <ele>460</ele>
        <time>2020-10-02T14:16:59.000Z</time>
      </trkpt>
      <trkpt lat="44.12945" lon="3.22166">
        <ele>459.79998779297</ele>
        <time>2020-10-02T14:17:15.000Z</time>
      </trkpt>
      <trkpt lat="44.12938" lon="3.22158">
        <ele>459.79998779297</ele>
        <time>2020-10-02T14:17:21.000Z</time>
      </trkpt>
      <trkpt lat="44.12933" lon="3.22156">
        <ele>459.79998779297</ele>
        <time>2020-10-02T14:17:23.000Z</time>
      </trkpt>
      <trkpt lat="44.12922" lon="3.22148">
        <ele>459.20001220703</ele>
        <time>2020-10-02T14:17:27.000Z</time>
      </trkpt>
      <trkpt lat="44.12916" lon="3.22146">
        <ele>458.20001220703</ele>
        <time>2020-10-02T14:17:29.000Z</time>
      </trkpt>
      <trkpt lat="44.12913" lon="3.22145">
        <ele>458</ele>
        <time>2020-10-02T14:17:31.000Z</time>
      </trkpt>
      <trkpt lat="44.12909" lon="3.2214">
        <ele>457</ele>
        <time>2020-10-02T14:17:34.000Z</time>
      </trkpt>
      <trkpt lat="44.12905" lon="3.22137">
        <ele>456.60000610352</ele>
        <time>2020-10-02T14:17:36.000Z</time>
      </trkpt>
      <trkpt lat="44.12901" lon="3.22135">
        <ele>456.39999389648</ele>
        <time>2020-10-02T14:17:38.000Z</time>
      </trkpt>
      <trkpt lat="44.12896" lon="3.22135">
        <ele>456.20001220703</ele>
        <time>2020-10-02T14:17:41.000Z</time>
      </trkpt>
      <trkpt lat="44.12894" lon="3.22136">
        <ele>456</ele>
        <time>2020-10-02T14:17:42.000Z</time>
      </trkpt>
      <trkpt lat="44.1289" lon="3.22137">
        <ele>454.79998779297</ele>
        <time>2020-10-02T14:17:44.000Z</time>
      </trkpt>
      <trkpt lat="44.12884" lon="3.22135">
        <ele>453.79998779297</ele>
        <time>2020-10-02T14:17:47.000Z</time>
      </trkpt>
      <trkpt lat="44.12874" lon="3.22126">
        <ele>452.60000610352</ele>
        <time>2020-10-02T14:17:51.000Z</time>
      </trkpt>
      <trkpt lat="44.12873" lon="3.22124">
        <ele>452.20001220703</ele>
        <time>2020-10-02T14:17:52.000Z</time>
      </trkpt>
      <trkpt lat="44.1287" lon="3.22121">
        <ele>451.20001220703</ele>
        <time>2020-10-02T14:17:54.000Z</time>
      </trkpt>
      <trkpt lat="44.12865" lon="3.22119">
        <ele>450.20001220703</ele>
        <time>2020-10-02T14:17:57.000Z</time>
      </trkpt>
      <trkpt lat="44.12864" lon="3.22118">
        <ele>449.79998779297</ele>
        <time>2020-10-02T14:17:58.000Z</time>
      </trkpt>
      <trkpt lat="44.12858" lon="3.2211">
        <ele>448.60000610352</ele>
        <time>2020-10-02T14:18:02.000Z</time>
      </trkpt>
      <trkpt lat="44.12856" lon="3.22108">
        <ele>448</ele>
        <time>2020-10-02T14:18:03.000Z</time>
      </trkpt>
      <trkpt lat="44.12851" lon="3.22105">
        <ele>447.20001220703</ele>
        <time>2020-10-02T14:18:05.000Z</time>
      </trkpt>
      <trkpt lat="44.12841" lon="3.22099">
        <ele>446.39999389648</ele>
        <time>2020-10-02T14:18:08.000Z</time>
      </trkpt>
      <trkpt lat="44.12828" lon="3.22091">
        <ele>446</ele>
        <time>2020-10-02T14:18:11.000Z</time>
      </trkpt>
      <trkpt lat="44.12823" lon="3.22089">
        <ele>446</ele>
        <time>2020-10-02T14:18:13.000Z</time>
      </trkpt>
      <trkpt lat="44.12815" lon="3.22092">
        <ele>445.60000610352</ele>
        <time>2020-10-02T14:18:16.000Z</time>
      </trkpt>
      <trkpt lat="44.12803" lon="3.22102">
        <ele>445</ele>
        <time>2020-10-02T14:18:21.000Z</time>
      </trkpt>
      <trkpt lat="44.12796" lon="3.22106">
        <ele>444.20001220703</ele>
        <time>2020-10-02T14:18:23.000Z</time>
      </trkpt>
      <trkpt lat="44.12792" lon="3.22106">
        <ele>442.60000610352</ele>
        <time>2020-10-02T14:18:25.000Z</time>
      </trkpt>
      <trkpt lat="44.12784" lon="3.2211">
        <ele>441.39999389648</ele>
        <time>2020-10-02T14:18:28.000Z</time>
      </trkpt>
      <trkpt lat="44.12777" lon="3.22113">
        <ele>441</ele>
        <time>2020-10-02T14:18:30.000Z</time>
      </trkpt>
      <trkpt lat="44.12765" lon="3.22126">
        <ele>440.20001220703</ele>
        <time>2020-10-02T14:18:34.000Z</time>
      </trkpt>
      <trkpt lat="44.12762" lon="3.22128">
        <ele>439.79998779297</ele>
        <time>2020-10-02T14:18:35.000Z</time>
      </trkpt>
      <trkpt lat="44.12759" lon="3.22129">
        <ele>439</ele>
        <time>2020-10-02T14:18:36.000Z</time>
      </trkpt>
      <trkpt lat="44.12751" lon="3.2213">
        <ele>437.39999389648</ele>
        <time>2020-10-02T14:18:38.000Z</time>
      </trkpt>
      <trkpt lat="44.12744" lon="3.22133">
        <ele>436.20001220703</ele>
        <time>2020-10-02T14:18:40.000Z</time>
      </trkpt>
      <trkpt lat="44.12732" lon="3.2214">
        <ele>435</ele>
        <time>2020-10-02T14:18:43.000Z</time>
      </trkpt>
      <trkpt lat="44.12725" lon="3.22147">
        <ele>434.60000610352</ele>
        <time>2020-10-02T14:18:45.000Z</time>
      </trkpt>
      <trkpt lat="44.12711" lon="3.22162">
        <ele>433.60000610352</ele>
        <time>2020-10-02T14:18:49.000Z</time>
      </trkpt>
      <trkpt lat="44.12707" lon="3.22166">
        <ele>433.20001220703</ele>
        <time>2020-10-02T14:18:50.000Z</time>
      </trkpt>
      <trkpt lat="44.12701" lon="3.22178">
        <ele>432.60000610352</ele>
        <time>2020-10-02T14:18:52.000Z</time>
      </trkpt>
      <trkpt lat="44.12697" lon="3.22191">
        <ele>432</ele>
        <time>2020-10-02T14:18:54.000Z</time>
      </trkpt>
      <trkpt lat="44.12689" lon="3.22215">
        <ele>430.79998779297</ele>
        <time>2020-10-02T14:18:58.000Z</time>
      </trkpt>
      <trkpt lat="44.12686" lon="3.2222">
        <ele>430</ele>
        <time>2020-10-02T14:18:59.000Z</time>
      </trkpt>
      <trkpt lat="44.12683" lon="3.22226">
        <ele>429.60000610352</ele>
        <time>2020-10-02T14:19:00.000Z</time>
      </trkpt>
      <trkpt lat="44.12675" lon="3.22237">
        <ele>428.60000610352</ele>
        <time>2020-10-02T14:19:02.000Z</time>
      </trkpt>
      <trkpt lat="44.12671" lon="3.22241">
        <ele>428.39999389648</ele>
        <time>2020-10-02T14:19:03.000Z</time>
      </trkpt>
      <trkpt lat="44.12662" lon="3.22246">
        <ele>427</ele>
        <time>2020-10-02T14:19:05.000Z</time>
      </trkpt>
      <trkpt lat="44.12654" lon="3.2225">
        <ele>425.79998779297</ele>
        <time>2020-10-02T14:19:07.000Z</time>
      </trkpt>
      <trkpt lat="44.12647" lon="3.22248">
        <ele>424.39999389648</ele>
        <time>2020-10-02T14:19:09.000Z</time>
      </trkpt>
      <trkpt lat="44.12641" lon="3.22247">
        <ele>423.79998779297</ele>
        <time>2020-10-02T14:19:11.000Z</time>
      </trkpt>
      <trkpt lat="44.12638" lon="3.22249">
        <ele>423.39999389648</ele>
        <time>2020-10-02T14:19:14.000Z</time>
      </trkpt>
      <trkpt lat="44.12637" lon="3.22251">
        <ele>423.20001220703</ele>
        <time>2020-10-02T14:19:15.000Z</time>
      </trkpt>
      <trkpt lat="44.12637" lon="3.22255">
        <ele>422.39999389648</ele>
        <time>2020-10-02T14:19:26.000Z</time>
      </trkpt>
      <trkpt lat="44.12637" lon="3.22254">
        <ele>422.20001220703</ele>
        <time>2020-10-02T14:19:53.000Z</time>
      </trkpt>
      <trkpt lat="44.12637" lon="3.22254">
        <ele>422.20001220703</ele>
        <time>2020-10-02T14:20:20.000Z</time>
      </trkpt>
      <trkpt lat="44.12638" lon="3.22258">
        <ele>422.39999389648</ele>
        <time>2020-10-02T14:20:35.000Z</time>
      </trkpt>
      <trkpt lat="44.1264" lon="3.22266">
        <ele>422.39999389648</ele>
        <time>2020-10-02T14:20:48.000Z</time>
      </trkpt>
      <trkpt lat="44.12643" lon="3.22267">
        <ele>422.60000610352</ele>
        <time>2020-10-02T14:21:03.000Z</time>
      </trkpt>
      <trkpt lat="44.12641" lon="3.2227">
        <ele>422.39999389648</ele>
        <time>2020-10-02T14:21:17.000Z</time>
      </trkpt>
      <trkpt lat="44.1263" lon="3.22265">
        <ele>422.39999389648</ele>
        <time>2020-10-02T14:21:22.000Z</time>
      </trkpt>
      <trkpt lat="44.12616" lon="3.22264">
        <ele>422.39999389648</ele>
        <time>2020-10-02T14:21:25.000Z</time>
      </trkpt>
      <trkpt lat="44.1261" lon="3.22266">
        <ele>422.39999389648</ele>
        <time>2020-10-02T14:21:26.000Z</time>
      </trkpt>
      <trkpt lat="44.12582" lon="3.22281">
        <ele>422.39999389648</ele>
        <time>2020-10-02T14:21:30.000Z</time>
      </trkpt>
      <trkpt lat="44.12574" lon="3.22283">
        <ele>422.39999389648</ele>
        <time>2020-10-02T14:21:31.000Z</time>
      </trkpt>
      <trkpt lat="44.12558" lon="3.22282">
        <ele>421.39999389648</ele>
        <time>2020-10-02T14:21:33.000Z</time>
      </trkpt>
      <trkpt lat="44.12551" lon="3.22278">
        <ele>420.60000610352</ele>
        <time>2020-10-02T14:21:34.000Z</time>
      </trkpt>
      <trkpt lat="44.12544" lon="3.22272">
        <ele>419.60000610352</ele>
        <time>2020-10-02T14:21:35.000Z</time>
      </trkpt>
      <trkpt lat="44.12537" lon="3.22266">
        <ele>418.79998779297</ele>
        <time>2020-10-02T14:21:36.000Z</time>
      </trkpt>
      <trkpt lat="44.1253" lon="3.22259">
        <ele>418.20001220703</ele>
        <time>2020-10-02T14:21:37.000Z</time>
      </trkpt>
      <trkpt lat="44.12526" lon="3.22249">
        <ele>417.39999389648</ele>
        <time>2020-10-02T14:21:38.000Z</time>
      </trkpt>
      <trkpt lat="44.1252" lon="3.22239">
        <ele>416.79998779297</ele>
        <time>2020-10-02T14:21:39.000Z</time>
      </trkpt>
      <trkpt lat="44.1251" lon="3.22224">
        <ele>416</ele>
        <time>2020-10-02T14:21:41.000Z</time>
      </trkpt>
      <trkpt lat="44.12507" lon="3.22219">
        <ele>415.79998779297</ele>
        <time>2020-10-02T14:21:42.000Z</time>
      </trkpt>
      <trkpt lat="44.12505" lon="3.22216">
        <ele>415.39999389648</ele>
        <time>2020-10-02T14:21:43.000Z</time>
      </trkpt>
      <trkpt lat="44.12503" lon="3.22214">
        <ele>414.60000610352</ele>
        <time>2020-10-02T14:21:45.000Z</time>
      </trkpt>
      <trkpt lat="44.12502" lon="3.22214">
        <ele>414</ele>
        <time>2020-10-02T14:21:47.000Z</time>
      </trkpt>
      <trkpt lat="44.12498" lon="3.22207">
        <ele>413.60000610352</ele>
        <time>2020-10-02T14:21:54.000Z</time>
      </trkpt>
      <trkpt lat="44.12488" lon="3.22206">
        <ele>413.39999389648</ele>
        <time>2020-10-02T14:21:57.000Z</time>
      </trkpt>
      <trkpt lat="44.12483" lon="3.22206">
        <ele>413.39999389648</ele>
        <time>2020-10-02T14:21:58.000Z</time>
      </trkpt>
      <trkpt lat="44.12459" lon="3.22209">
        <ele>413.39999389648</ele>
        <time>2020-10-02T14:22:02.000Z</time>
      </trkpt>
      <trkpt lat="44.12435" lon="3.22222">
        <ele>412.79998779297</ele>
        <time>2020-10-02T14:22:05.000Z</time>
      </trkpt>
      <trkpt lat="44.12429" lon="3.22226">
        <ele>412.39999389648</ele>
        <time>2020-10-02T14:22:06.000Z</time>
      </trkpt>
      <trkpt lat="44.12424" lon="3.22231">
        <ele>412.20001220703</ele>
        <time>2020-10-02T14:22:07.000Z</time>
      </trkpt>
      <trkpt lat="44.12418" lon="3.22242">
        <ele>411.60000610352</ele>
        <time>2020-10-02T14:22:09.000Z</time>
      </trkpt>
      <trkpt lat="44.12416" lon="3.22247">
        <ele>411</ele>
        <time>2020-10-02T14:22:10.000Z</time>
      </trkpt>
      <trkpt lat="44.12415" lon="3.22252">
        <ele>410.39999389648</ele>
        <time>2020-10-02T14:22:11.000Z</time>
      </trkpt>
      <trkpt lat="44.12413" lon="3.22256">
        <ele>409.60000610352</ele>
        <time>2020-10-02T14:22:12.000Z</time>
      </trkpt>
      <trkpt lat="44.12413" lon="3.22258">
        <ele>409</ele>
        <time>2020-10-02T14:22:13.000Z</time>
      </trkpt>
      <trkpt lat="44.12414" lon="3.2226">
        <ele>408.60000610352</ele>
        <time>2020-10-02T14:22:14.000Z</time>
      </trkpt>
      <trkpt lat="44.12415" lon="3.22263">
        <ele>408.20001220703</ele>
        <time>2020-10-02T14:22:16.000Z</time>
      </trkpt>
      <trkpt lat="44.12413" lon="3.22263">
        <ele>408.20001220703</ele>
        <time>2020-10-02T14:22:17.000Z</time>
      </trkpt>
      <trkpt lat="44.12397" lon="3.22258">
        <ele>408.20001220703</ele>
        <time>2020-10-02T14:22:22.000Z</time>
      </trkpt>
      <trkpt lat="44.12377" lon="3.22245">
        <ele>408.20001220703</ele>
        <time>2020-10-02T14:22:27.000Z</time>
      </trkpt>
      <trkpt lat="44.12369" lon="3.22239">
        <ele>408.20001220703</ele>
        <time>2020-10-02T14:22:29.000Z</time>
      </trkpt>
      <trkpt lat="44.12348" lon="3.22212">
        <ele>408</ele>
        <time>2020-10-02T14:22:36.000Z</time>
      </trkpt>
      <trkpt lat="44.12344" lon="3.222">
        <ele>407.39999389648</ele>
        <time>2020-10-02T14:22:39.000Z</time>
      </trkpt>
      <trkpt lat="44.12339" lon="3.2219">
        <ele>407.20001220703</ele>
        <time>2020-10-02T14:22:42.000Z</time>
      </trkpt>
      <trkpt lat="44.12333" lon="3.22181">
        <ele>407</ele>
        <time>2020-10-02T14:22:45.000Z</time>
      </trkpt>
      <trkpt lat="44.12331" lon="3.22182">
        <ele>407</ele>
        <time>2020-10-02T14:22:46.000Z</time>
      </trkpt>
      <trkpt lat="44.12331" lon="3.22197">
        <ele>406.79998779297</ele>
        <time>2020-10-02T14:22:49.000Z</time>
      </trkpt>
      <trkpt lat="44.12339" lon="3.22212">
        <ele>406.79998779297</ele>
        <time>2020-10-02T14:22:52.000Z</time>
      </trkpt>
      <trkpt lat="44.1234" lon="3.22214">
        <ele>406.60000610352</ele>
        <time>2020-10-02T14:22:53.000Z</time>
      </trkpt>
      <trkpt lat="44.12341" lon="3.22215">
        <ele>406.20001220703</ele>
        <time>2020-10-02T14:22:56.000Z</time>
      </trkpt>
      <trkpt lat="44.1234" lon="3.2221">
        <ele>405.39999389648</ele>
        <time>2020-10-02T14:23:10.000Z</time>
      </trkpt>
      <trkpt lat="44.1234" lon="3.22209">
        <ele>405.20001220703</ele>
        <time>2020-10-02T14:23:34.000Z</time>
      </trkpt>
      <trkpt lat="44.1234" lon="3.22208">
        <ele>405.39999389648</ele>
        <time>2020-10-02T14:24:01.000Z</time>
      </trkpt>
    </trkseg>
  </trk>
  <trk>
    <name><![CDATA[MILLAU J1 - Millau Run 5]]></name>
    <trkseg>
      <trkpt lat="44.12282" lon="3.11865">
        <ele>886</ele>
        <time>2020-10-02T16:26:41.000Z</time>
      </trkpt>
      <trkpt lat="44.12284" lon="3.11865">
        <ele>869.40002441406</ele>
        <time>2020-10-02T16:26:42.000Z</time>
      </trkpt>
      <trkpt lat="44.12286" lon="3.11863">
        <ele>861.20001220703</ele>
        <time>2020-10-02T16:26:43.000Z</time>
      </trkpt>
      <trkpt lat="44.12295" lon="3.11856">
        <ele>856.59997558594</ele>
        <time>2020-10-02T16:26:45.000Z</time>
      </trkpt>
      <trkpt lat="44.12295" lon="3.11856">
        <ele>854</ele>
        <time>2020-10-02T16:26:46.000Z</time>
      </trkpt>
      <trkpt lat="44.12295" lon="3.11856">
        <ele>853</ele>
        <time>2020-10-02T16:26:47.000Z</time>
      </trkpt>
      <trkpt lat="44.12296" lon="3.11855">
        <ele>852.20001220703</ele>
        <time>2020-10-02T16:26:50.000Z</time>
      </trkpt>
      <trkpt lat="44.12302" lon="3.11855">
        <ele>851.59997558594</ele>
        <time>2020-10-02T16:26:53.000Z</time>
      </trkpt>
      <trkpt lat="44.12307" lon="3.11853">
        <ele>851.59997558594</ele>
        <time>2020-10-02T16:26:55.000Z</time>
      </trkpt>
      <trkpt lat="44.12318" lon="3.11846">
        <ele>851.59997558594</ele>
        <time>2020-10-02T16:27:01.000Z</time>
      </trkpt>
      <trkpt lat="44.12321" lon="3.11853">
        <ele>851.59997558594</ele>
        <time>2020-10-02T16:27:04.000Z</time>
      </trkpt>
      <trkpt lat="44.12322" lon="3.11856">
        <ele>851.40002441406</ele>
        <time>2020-10-02T16:27:05.000Z</time>
      </trkpt>
      <trkpt lat="44.12336" lon="3.11863">
        <ele>851.40002441406</ele>
        <time>2020-10-02T16:27:08.000Z</time>
      </trkpt>
      <trkpt lat="44.12347" lon="3.1186">
        <ele>851</ele>
        <time>2020-10-02T16:27:11.000Z</time>
      </trkpt>
      <trkpt lat="44.12351" lon="3.11858">
        <ele>850.79998779297</ele>
        <time>2020-10-02T16:27:12.000Z</time>
      </trkpt>
      <trkpt lat="44.12373" lon="3.1185">
        <ele>850.20001220703</ele>
        <time>2020-10-02T16:27:16.000Z</time>
      </trkpt>
      <trkpt lat="44.12382" lon="3.11853">
        <ele>849.79998779297</ele>
        <time>2020-10-02T16:27:17.000Z</time>
      </trkpt>
      <trkpt lat="44.12388" lon="3.11863">
        <ele>849.40002441406</ele>
        <time>2020-10-02T16:27:19.000Z</time>
      </trkpt>
      <trkpt lat="44.12407" lon="3.11874">
        <ele>848.20001220703</ele>
        <time>2020-10-02T16:27:23.000Z</time>
      </trkpt>
      <trkpt lat="44.12423" lon="3.11876">
        <ele>846.79998779297</ele>
        <time>2020-10-02T16:27:27.000Z</time>
      </trkpt>
      <trkpt lat="44.1243" lon="3.11872">
        <ele>846</ele>
        <time>2020-10-02T16:27:28.000Z</time>
      </trkpt>
      <trkpt lat="44.12436" lon="3.11869">
        <ele>845</ele>
        <time>2020-10-02T16:27:29.000Z</time>
      </trkpt>
      <trkpt lat="44.12443" lon="3.11866">
        <ele>844.40002441406</ele>
        <time>2020-10-02T16:27:30.000Z</time>
      </trkpt>
      <trkpt lat="44.12451" lon="3.11864">
        <ele>843.79998779297</ele>
        <time>2020-10-02T16:27:31.000Z</time>
      </trkpt>
      <trkpt lat="44.12465" lon="3.11861">
        <ele>842.59997558594</ele>
        <time>2020-10-02T16:27:33.000Z</time>
      </trkpt>
      <trkpt lat="44.12473" lon="3.11861">
        <ele>841.79998779297</ele>
        <time>2020-10-02T16:27:34.000Z</time>
      </trkpt>
      <trkpt lat="44.1248" lon="3.1186">
        <ele>841</ele>
        <time>2020-10-02T16:27:35.000Z</time>
      </trkpt>
      <trkpt lat="44.12495" lon="3.1186">
        <ele>839.40002441406</ele>
        <time>2020-10-02T16:27:37.000Z</time>
      </trkpt>
      <trkpt lat="44.12507" lon="3.11859">
        <ele>837.40002441406</ele>
        <time>2020-10-02T16:27:39.000Z</time>
      </trkpt>
      <trkpt lat="44.12514" lon="3.1186">
        <ele>836.59997558594</ele>
        <time>2020-10-02T16:27:40.000Z</time>
      </trkpt>
      <trkpt lat="44.12525" lon="3.11863">
        <ele>834.79998779297</ele>
        <time>2020-10-02T16:27:42.000Z</time>
      </trkpt>
      <trkpt lat="44.12531" lon="3.11863">
        <ele>834.20001220703</ele>
        <time>2020-10-02T16:27:43.000Z</time>
      </trkpt>
      <trkpt lat="44.12536" lon="3.11862">
        <ele>833.40002441406</ele>
        <time>2020-10-02T16:27:44.000Z</time>
      </trkpt>
      <trkpt lat="44.12547" lon="3.1186">
        <ele>832.40002441406</ele>
        <time>2020-10-02T16:27:46.000Z</time>
      </trkpt>
      <trkpt lat="44.12557" lon="3.11858">
        <ele>831</ele>
        <time>2020-10-02T16:27:48.000Z</time>
      </trkpt>
      <trkpt lat="44.12563" lon="3.11858">
        <ele>830.40002441406</ele>
        <time>2020-10-02T16:27:49.000Z</time>
      </trkpt>
      <trkpt lat="44.12574" lon="3.11857">
        <ele>829.79998779297</ele>
        <time>2020-10-02T16:27:51.000Z</time>
      </trkpt>
      <trkpt lat="44.1258" lon="3.11855">
        <ele>829.20001220703</ele>
        <time>2020-10-02T16:27:52.000Z</time>
      </trkpt>
      <trkpt lat="44.12592" lon="3.1185">
        <ele>828.79998779297</ele>
        <time>2020-10-02T16:27:54.000Z</time>
      </trkpt>
      <trkpt lat="44.12609" lon="3.11842">
        <ele>827.40002441406</ele>
        <time>2020-10-02T16:27:57.000Z</time>
      </trkpt>
      <trkpt lat="44.12619" lon="3.11837">
        <ele>826</ele>
        <time>2020-10-02T16:27:59.000Z</time>
      </trkpt>
      <trkpt lat="44.1263" lon="3.1183">
        <ele>824.59997558594</ele>
        <time>2020-10-02T16:28:01.000Z</time>
      </trkpt>
      <trkpt lat="44.12636" lon="3.11822">
        <ele>823</ele>
        <time>2020-10-02T16:28:03.000Z</time>
      </trkpt>
      <trkpt lat="44.12638" lon="3.11817">
        <ele>821.79998779297</ele>
        <time>2020-10-02T16:28:05.000Z</time>
      </trkpt>
      <trkpt lat="44.12641" lon="3.1181">
        <ele>820.79998779297</ele>
        <time>2020-10-02T16:28:07.000Z</time>
      </trkpt>
      <trkpt lat="44.12646" lon="3.11804">
        <ele>819.59997558594</ele>
        <time>2020-10-02T16:28:09.000Z</time>
      </trkpt>
      <trkpt lat="44.12646" lon="3.11799">
        <ele>818</ele>
        <time>2020-10-02T16:28:11.000Z</time>
      </trkpt>
      <trkpt lat="44.12648" lon="3.11798">
        <ele>817.40002441406</ele>
        <time>2020-10-02T16:28:12.000Z</time>
      </trkpt>
      <trkpt lat="44.12651" lon="3.11797">
        <ele>816.59997558594</ele>
        <time>2020-10-02T16:28:13.000Z</time>
      </trkpt>
      <trkpt lat="44.12659" lon="3.11792">
        <ele>814.59997558594</ele>
        <time>2020-10-02T16:28:15.000Z</time>
      </trkpt>
      <trkpt lat="44.12664" lon="3.11789">
        <ele>813.20001220703</ele>
        <time>2020-10-02T16:28:16.000Z</time>
      </trkpt>
      <trkpt lat="44.12669" lon="3.11785">
        <ele>812</ele>
        <time>2020-10-02T16:28:17.000Z</time>
      </trkpt>
      <trkpt lat="44.12675" lon="3.11776">
        <ele>810.59997558594</ele>
        <time>2020-10-02T16:28:19.000Z</time>
      </trkpt>
      <trkpt lat="44.12678" lon="3.11773">
        <ele>809.20001220703</ele>
        <time>2020-10-02T16:28:20.000Z</time>
      </trkpt>
      <trkpt lat="44.12686" lon="3.1177">
        <ele>807.59997558594</ele>
        <time>2020-10-02T16:28:22.000Z</time>
      </trkpt>
      <trkpt lat="44.12689" lon="3.11765">
        <ele>806</ele>
        <time>2020-10-02T16:28:24.000Z</time>
      </trkpt>
      <trkpt lat="44.12693" lon="3.11763">
        <ele>804.79998779297</ele>
        <time>2020-10-02T16:28:25.000Z</time>
      </trkpt>
      <trkpt lat="44.12698" lon="3.1176">
        <ele>803.40002441406</ele>
        <time>2020-10-02T16:28:27.000Z</time>
      </trkpt>
      <trkpt lat="44.12703" lon="3.11755">
        <ele>802.40002441406</ele>
        <time>2020-10-02T16:28:28.000Z</time>
      </trkpt>
      <trkpt lat="44.12706" lon="3.11752">
        <ele>801.59997558594</ele>
        <time>2020-10-02T16:28:29.000Z</time>
      </trkpt>
      <trkpt lat="44.12711" lon="3.11749">
        <ele>800.40002441406</ele>
        <time>2020-10-02T16:28:30.000Z</time>
      </trkpt>
      <trkpt lat="44.12714" lon="3.11746">
        <ele>799.20001220703</ele>
        <time>2020-10-02T16:28:31.000Z</time>
      </trkpt>
      <trkpt lat="44.12719" lon="3.11742">
        <ele>798</ele>
        <time>2020-10-02T16:28:32.000Z</time>
      </trkpt>
      <trkpt lat="44.1272" lon="3.1174">
        <ele>797</ele>
        <time>2020-10-02T16:28:33.000Z</time>
      </trkpt>
      <trkpt lat="44.1272" lon="3.11736">
        <ele>795.79998779297</ele>
        <time>2020-10-02T16:28:34.000Z</time>
      </trkpt>
      <trkpt lat="44.12725" lon="3.11732">
        <ele>794.20001220703</ele>
        <time>2020-10-02T16:28:36.000Z</time>
      </trkpt>
      <trkpt lat="44.1273" lon="3.11727">
        <ele>792.79998779297</ele>
        <time>2020-10-02T16:28:38.000Z</time>
      </trkpt>
      <trkpt lat="44.12737" lon="3.1172">
        <ele>791.40002441406</ele>
        <time>2020-10-02T16:28:40.000Z</time>
      </trkpt>
      <trkpt lat="44.12744" lon="3.11714">
        <ele>790.59997558594</ele>
        <time>2020-10-02T16:28:42.000Z</time>
      </trkpt>
      <trkpt lat="44.12748" lon="3.11712">
        <ele>790.40002441406</ele>
        <time>2020-10-02T16:28:43.000Z</time>
      </trkpt>
      <trkpt lat="44.12754" lon="3.11705">
        <ele>788.79998779297</ele>
        <time>2020-10-02T16:28:45.000Z</time>
      </trkpt>
      <trkpt lat="44.1276" lon="3.117">
        <ele>787.59997558594</ele>
        <time>2020-10-02T16:28:47.000Z</time>
      </trkpt>
      <trkpt lat="44.12765" lon="3.11695">
        <ele>785.79998779297</ele>
        <time>2020-10-02T16:28:49.000Z</time>
      </trkpt>
      <trkpt lat="44.12772" lon="3.11687">
        <ele>784.40002441406</ele>
        <time>2020-10-02T16:28:51.000Z</time>
      </trkpt>
      <trkpt lat="44.12774" lon="3.11679">
        <ele>783.59997558594</ele>
        <time>2020-10-02T16:28:53.000Z</time>
      </trkpt>
      <trkpt lat="44.12774" lon="3.11674">
        <ele>783.20001220703</ele>
        <time>2020-10-02T16:28:54.000Z</time>
      </trkpt>
      <trkpt lat="44.12783" lon="3.11654">
        <ele>781.79998779297</ele>
        <time>2020-10-02T16:28:57.000Z</time>
      </trkpt>
      <trkpt lat="44.12788" lon="3.11641">
        <ele>780</ele>
        <time>2020-10-02T16:28:59.000Z</time>
      </trkpt>
      <trkpt lat="44.12791" lon="3.11631">
        <ele>779.20001220703</ele>
        <time>2020-10-02T16:29:01.000Z</time>
      </trkpt>
      <trkpt lat="44.12793" lon="3.11627">
        <ele>778.79998779297</ele>
        <time>2020-10-02T16:29:02.000Z</time>
      </trkpt>
      <trkpt lat="44.12795" lon="3.1162">
        <ele>777.40002441406</ele>
        <time>2020-10-02T16:29:04.000Z</time>
      </trkpt>
      <trkpt lat="44.12798" lon="3.11617">
        <ele>776.20001220703</ele>
        <time>2020-10-02T16:29:05.000Z</time>
      </trkpt>
      <trkpt lat="44.12801" lon="3.11612">
        <ele>775.20001220703</ele>
        <time>2020-10-02T16:29:06.000Z</time>
      </trkpt>
      <trkpt lat="44.12807" lon="3.11598">
        <ele>773.59997558594</ele>
        <time>2020-10-02T16:29:09.000Z</time>
      </trkpt>
      <trkpt lat="44.1281" lon="3.1159">
        <ele>772.79998779297</ele>
        <time>2020-10-02T16:29:11.000Z</time>
      </trkpt>
      <trkpt lat="44.1281" lon="3.11586">
        <ele>772.20001220703</ele>
        <time>2020-10-02T16:29:12.000Z</time>
      </trkpt>
      <trkpt lat="44.12813" lon="3.11574">
        <ele>770</ele>
        <time>2020-10-02T16:29:14.000Z</time>
      </trkpt>
      <trkpt lat="44.12815" lon="3.11569">
        <ele>768.40002441406</ele>
        <time>2020-10-02T16:29:15.000Z</time>
      </trkpt>
      <trkpt lat="44.12818" lon="3.11564">
        <ele>766.79998779297</ele>
        <time>2020-10-02T16:29:16.000Z</time>
      </trkpt>
      <trkpt lat="44.12821" lon="3.11559">
        <ele>765.20001220703</ele>
        <time>2020-10-02T16:29:17.000Z</time>
      </trkpt>
      <trkpt lat="44.12821" lon="3.11554">
        <ele>762.79998779297</ele>
        <time>2020-10-02T16:29:18.000Z</time>
      </trkpt>
      <trkpt lat="44.12822" lon="3.11546">
        <ele>761.20001220703</ele>
        <time>2020-10-02T16:29:20.000Z</time>
      </trkpt>
      <trkpt lat="44.12821" lon="3.11541">
        <ele>760.20001220703</ele>
        <time>2020-10-02T16:29:21.000Z</time>
      </trkpt>
      <trkpt lat="44.12822" lon="3.11537">
        <ele>758.79998779297</ele>
        <time>2020-10-02T16:29:22.000Z</time>
      </trkpt>
      <trkpt lat="44.12822" lon="3.11533">
        <ele>757.40002441406</ele>
        <time>2020-10-02T16:29:23.000Z</time>
      </trkpt>
      <trkpt lat="44.12824" lon="3.11527">
        <ele>756.20001220703</ele>
        <time>2020-10-02T16:29:24.000Z</time>
      </trkpt>
      <trkpt lat="44.12824" lon="3.11523">
        <ele>754.79998779297</ele>
        <time>2020-10-02T16:29:25.000Z</time>
      </trkpt>
      <trkpt lat="44.12823" lon="3.11516">
        <ele>753.40002441406</ele>
        <time>2020-10-02T16:29:26.000Z</time>
      </trkpt>
      <trkpt lat="44.12824" lon="3.11509">
        <ele>752</ele>
        <time>2020-10-02T16:29:27.000Z</time>
      </trkpt>
      <trkpt lat="44.12825" lon="3.11502">
        <ele>750.59997558594</ele>
        <time>2020-10-02T16:29:28.000Z</time>
      </trkpt>
      <trkpt lat="44.12825" lon="3.11495">
        <ele>749.40002441406</ele>
        <time>2020-10-02T16:29:29.000Z</time>
      </trkpt>
      <trkpt lat="44.12824" lon="3.11488">
        <ele>748.40002441406</ele>
        <time>2020-10-02T16:29:30.000Z</time>
      </trkpt>
      <trkpt lat="44.12822" lon="3.11475">
        <ele>746.20001220703</ele>
        <time>2020-10-02T16:29:32.000Z</time>
      </trkpt>
      <trkpt lat="44.12821" lon="3.1147">
        <ele>745</ele>
        <time>2020-10-02T16:29:33.000Z</time>
      </trkpt>
      <trkpt lat="44.12822" lon="3.11466">
        <ele>743.59997558594</ele>
        <time>2020-10-02T16:29:34.000Z</time>
      </trkpt>
      <trkpt lat="44.12821" lon="3.1146">
        <ele>742.40002441406</ele>
        <time>2020-10-02T16:29:35.000Z</time>
      </trkpt>
      <trkpt lat="44.12822" lon="3.11455">
        <ele>741</ele>
        <time>2020-10-02T16:29:36.000Z</time>
      </trkpt>
      <trkpt lat="44.1282" lon="3.11449">
        <ele>739.40002441406</ele>
        <time>2020-10-02T16:29:37.000Z</time>
      </trkpt>
      <trkpt lat="44.12818" lon="3.11445">
        <ele>737.79998779297</ele>
        <time>2020-10-02T16:29:38.000Z</time>
      </trkpt>
      <trkpt lat="44.12817" lon="3.11442">
        <ele>736</ele>
        <time>2020-10-02T16:29:39.000Z</time>
      </trkpt>
      <trkpt lat="44.12817" lon="3.11441">
        <ele>734.20001220703</ele>
        <time>2020-10-02T16:29:40.000Z</time>
      </trkpt>
      <trkpt lat="44.12817" lon="3.1144">
        <ele>732.59997558594</ele>
        <time>2020-10-02T16:29:41.000Z</time>
      </trkpt>
      <trkpt lat="44.12817" lon="3.11439">
        <ele>731</ele>
        <time>2020-10-02T16:29:42.000Z</time>
      </trkpt>
      <trkpt lat="44.12815" lon="3.11438">
        <ele>729.59997558594</ele>
        <time>2020-10-02T16:29:43.000Z</time>
      </trkpt>
      <trkpt lat="44.12815" lon="3.11437">
        <ele>728.20001220703</ele>
        <time>2020-10-02T16:29:44.000Z</time>
      </trkpt>
      <trkpt lat="44.12815" lon="3.11437">
        <ele>727</ele>
        <time>2020-10-02T16:29:45.000Z</time>
      </trkpt>
      <trkpt lat="44.12815" lon="3.11437">
        <ele>724.79998779297</ele>
        <time>2020-10-02T16:29:46.000Z</time>
      </trkpt>
      <trkpt lat="44.12813" lon="3.11436">
        <ele>723.20001220703</ele>
        <time>2020-10-02T16:29:48.000Z</time>
      </trkpt>
      <trkpt lat="44.12813" lon="3.11436">
        <ele>723</ele>
        <time>2020-10-02T16:29:49.000Z</time>
      </trkpt>
      <trkpt lat="44.12813" lon="3.11433">
        <ele>722.79998779297</ele>
        <time>2020-10-02T16:29:56.000Z</time>
      </trkpt>
      <trkpt lat="44.12809" lon="3.11425">
        <ele>722.59997558594</ele>
        <time>2020-10-02T16:30:07.000Z</time>
      </trkpt>
      <trkpt lat="44.12807" lon="3.11416">
        <ele>721.79998779297</ele>
        <time>2020-10-02T16:30:18.000Z</time>
      </trkpt>
      <trkpt lat="44.1281" lon="3.11411">
        <ele>720.40002441406</ele>
        <time>2020-10-02T16:30:23.000Z</time>
      </trkpt>
      <trkpt lat="44.1281" lon="3.1141">
        <ele>719.20001220703</ele>
        <time>2020-10-02T16:30:26.000Z</time>
      </trkpt>
      <trkpt lat="44.1281" lon="3.11409">
        <ele>719</ele>
        <time>2020-10-02T16:30:27.000Z</time>
      </trkpt>
      <trkpt lat="44.12811" lon="3.11409">
        <ele>718</ele>
        <time>2020-10-02T16:30:30.000Z</time>
      </trkpt>
      <trkpt lat="44.12811" lon="3.11408">
        <ele>717</ele>
        <time>2020-10-02T16:30:32.000Z</time>
      </trkpt>
      <trkpt lat="44.1281" lon="3.11407">
        <ele>716</ele>
        <time>2020-10-02T16:30:40.000Z</time>
      </trkpt>
      <trkpt lat="44.12811" lon="3.11404">
        <ele>716</ele>
        <time>2020-10-02T16:30:52.000Z</time>
      </trkpt>
      <trkpt lat="44.12808" lon="3.11392">
        <ele>715.59997558594</ele>
        <time>2020-10-02T16:31:01.000Z</time>
      </trkpt>
      <trkpt lat="44.12808" lon="3.1139">
        <ele>715</ele>
        <time>2020-10-02T16:31:03.000Z</time>
      </trkpt>
      <trkpt lat="44.12806" lon="3.11388">
        <ele>714.40002441406</ele>
        <time>2020-10-02T16:31:05.000Z</time>
      </trkpt>
      <trkpt lat="44.12805" lon="3.11386">
        <ele>713.40002441406</ele>
        <time>2020-10-02T16:31:08.000Z</time>
      </trkpt>
      <trkpt lat="44.12804" lon="3.11385">
        <ele>712.20001220703</ele>
        <time>2020-10-02T16:31:12.000Z</time>
      </trkpt>
      <trkpt lat="44.12803" lon="3.11384">
        <ele>711.40002441406</ele>
        <time>2020-10-02T16:31:14.000Z</time>
      </trkpt>
      <trkpt lat="44.12803" lon="3.11383">
        <ele>711.20001220703</ele>
        <time>2020-10-02T16:31:27.000Z</time>
      </trkpt>
      <trkpt lat="44.12802" lon="3.11382">
        <ele>711</ele>
        <time>2020-10-02T16:31:39.000Z</time>
      </trkpt>
      <trkpt lat="44.12805" lon="3.1138">
        <ele>711.20001220703</ele>
        <time>2020-10-02T16:31:55.000Z</time>
      </trkpt>
      <trkpt lat="44.12805" lon="3.11379">
        <ele>711</ele>
        <time>2020-10-02T16:32:11.000Z</time>
      </trkpt>
      <trkpt lat="44.12802" lon="3.11377">
        <ele>710.79998779297</ele>
        <time>2020-10-02T16:32:22.000Z</time>
      </trkpt>
      <trkpt lat="44.12802" lon="3.11376">
        <ele>710.79998779297</ele>
        <time>2020-10-02T16:32:37.000Z</time>
      </trkpt>
      <trkpt lat="44.12802" lon="3.11375">
        <ele>710.20001220703</ele>
        <time>2020-10-02T16:32:54.000Z</time>
      </trkpt>
      <trkpt lat="44.128" lon="3.11375">
        <ele>710.59997558594</ele>
        <time>2020-10-02T16:33:09.000Z</time>
      </trkpt>
      <trkpt lat="44.128" lon="3.11364">
        <ele>710.59997558594</ele>
        <time>2020-10-02T16:33:21.000Z</time>
      </trkpt>
      <trkpt lat="44.12801" lon="3.11348">
        <ele>710.59997558594</ele>
        <time>2020-10-02T16:33:25.000Z</time>
      </trkpt>
      <trkpt lat="44.12802" lon="3.11332">
        <ele>709.59997558594</ele>
        <time>2020-10-02T16:33:29.000Z</time>
      </trkpt>
      <trkpt lat="44.12805" lon="3.11325">
        <ele>708.20001220703</ele>
        <time>2020-10-02T16:33:31.000Z</time>
      </trkpt>
      <trkpt lat="44.12806" lon="3.11322">
        <ele>707</ele>
        <time>2020-10-02T16:33:33.000Z</time>
      </trkpt>
      <trkpt lat="44.12806" lon="3.1132">
        <ele>706.40002441406</ele>
        <time>2020-10-02T16:33:35.000Z</time>
      </trkpt>
      <trkpt lat="44.12805" lon="3.11318">
        <ele>706</ele>
        <time>2020-10-02T16:33:36.000Z</time>
      </trkpt>
      <trkpt lat="44.12805" lon="3.11315">
        <ele>704.59997558594</ele>
        <time>2020-10-02T16:33:38.000Z</time>
      </trkpt>
      <trkpt lat="44.12804" lon="3.11313">
        <ele>703</ele>
        <time>2020-10-02T16:33:40.000Z</time>
      </trkpt>
      <trkpt lat="44.12804" lon="3.11312">
        <ele>702</ele>
        <time>2020-10-02T16:33:41.000Z</time>
      </trkpt>
      <trkpt lat="44.12803" lon="3.11311">
        <ele>701.40002441406</ele>
        <time>2020-10-02T16:33:42.000Z</time>
      </trkpt>
      <trkpt lat="44.12804" lon="3.11311">
        <ele>701</ele>
        <time>2020-10-02T16:33:43.000Z</time>
      </trkpt>
      <trkpt lat="44.12803" lon="3.11311">
        <ele>700.20001220703</ele>
        <time>2020-10-02T16:33:46.000Z</time>
      </trkpt>
      <trkpt lat="44.12803" lon="3.11312">
        <ele>699.79998779297</ele>
        <time>2020-10-02T16:33:47.000Z</time>
      </trkpt>
      <trkpt lat="44.12803" lon="3.11313">
        <ele>699.40002441406</ele>
        <time>2020-10-02T16:33:48.000Z</time>
      </trkpt>
      <trkpt lat="44.12803" lon="3.11314">
        <ele>699.20001220703</ele>
        <time>2020-10-02T16:33:49.000Z</time>
      </trkpt>
      <trkpt lat="44.12806" lon="3.11312">
        <ele>698.40002441406</ele>
        <time>2020-10-02T16:33:53.000Z</time>
      </trkpt>
      <trkpt lat="44.12807" lon="3.11311">
        <ele>698</ele>
        <time>2020-10-02T16:33:54.000Z</time>
      </trkpt>
      <trkpt lat="44.12808" lon="3.11308">
        <ele>697.40002441406</ele>
        <time>2020-10-02T16:33:56.000Z</time>
      </trkpt>
      <trkpt lat="44.12808" lon="3.11306">
        <ele>696.79998779297</ele>
        <time>2020-10-02T16:33:57.000Z</time>
      </trkpt>
      <trkpt lat="44.12809" lon="3.11301">
        <ele>695.59997558594</ele>
        <time>2020-10-02T16:34:00.000Z</time>
      </trkpt>
      <trkpt lat="44.12811" lon="3.11293">
        <ele>694.20001220703</ele>
        <time>2020-10-02T16:34:02.000Z</time>
      </trkpt>
      <trkpt lat="44.12812" lon="3.11289">
        <ele>693.59997558594</ele>
        <time>2020-10-02T16:34:03.000Z</time>
      </trkpt>
      <trkpt lat="44.12813" lon="3.11285">
        <ele>693</ele>
        <time>2020-10-02T16:34:04.000Z</time>
      </trkpt>
      <trkpt lat="44.12809" lon="3.11268">
        <ele>691.40002441406</ele>
        <time>2020-10-02T16:34:08.000Z</time>
      </trkpt>
      <trkpt lat="44.12806" lon="3.11263">
        <ele>689.59997558594</ele>
        <time>2020-10-02T16:34:10.000Z</time>
      </trkpt>
      <trkpt lat="44.12807" lon="3.1126">
        <ele>688.59997558594</ele>
        <time>2020-10-02T16:34:11.000Z</time>
      </trkpt>
      <trkpt lat="44.12807" lon="3.11257">
        <ele>687.40002441406</ele>
        <time>2020-10-02T16:34:12.000Z</time>
      </trkpt>
      <trkpt lat="44.12806" lon="3.11254">
        <ele>686.20001220703</ele>
        <time>2020-10-02T16:34:13.000Z</time>
      </trkpt>
      <trkpt lat="44.12806" lon="3.11253">
        <ele>685</ele>
        <time>2020-10-02T16:34:14.000Z</time>
      </trkpt>
      <trkpt lat="44.12806" lon="3.11252">
        <ele>683.79998779297</ele>
        <time>2020-10-02T16:34:15.000Z</time>
      </trkpt>
      <trkpt lat="44.12805" lon="3.11252">
        <ele>682.79998779297</ele>
        <time>2020-10-02T16:34:16.000Z</time>
      </trkpt>
      <trkpt lat="44.12805" lon="3.11253">
        <ele>681.79998779297</ele>
        <time>2020-10-02T16:34:17.000Z</time>
      </trkpt>
      <trkpt lat="44.12805" lon="3.11253">
        <ele>681.20001220703</ele>
        <time>2020-10-02T16:34:18.000Z</time>
      </trkpt>
      <trkpt lat="44.12803" lon="3.11254">
        <ele>680</ele>
        <time>2020-10-02T16:34:21.000Z</time>
      </trkpt>
      <trkpt lat="44.128" lon="3.11254">
        <ele>678.79998779297</ele>
        <time>2020-10-02T16:34:24.000Z</time>
      </trkpt>
      <trkpt lat="44.12798" lon="3.11253">
        <ele>678.79998779297</ele>
        <time>2020-10-02T16:34:25.000Z</time>
      </trkpt>
      <trkpt lat="44.12794" lon="3.1125">
        <ele>678.40002441406</ele>
        <time>2020-10-02T16:34:32.000Z</time>
      </trkpt>
      <trkpt lat="44.1279" lon="3.11243">
        <ele>678.59997558594</ele>
        <time>2020-10-02T16:34:39.000Z</time>
      </trkpt>
      <trkpt lat="44.12794" lon="3.11238">
        <ele>678.79998779297</ele>
        <time>2020-10-02T16:34:46.000Z</time>
      </trkpt>
      <trkpt lat="44.12798" lon="3.11231">
        <ele>678.79998779297</ele>
        <time>2020-10-02T16:34:51.000Z</time>
      </trkpt>
      <trkpt lat="44.12804" lon="3.11226">
        <ele>678.40002441406</ele>
        <time>2020-10-02T16:34:57.000Z</time>
      </trkpt>
      <trkpt lat="44.12803" lon="3.11225">
        <ele>677.79998779297</ele>
        <time>2020-10-02T16:34:59.000Z</time>
      </trkpt>
      <trkpt lat="44.12805" lon="3.11224">
        <ele>677.20001220703</ele>
        <time>2020-10-02T16:35:01.000Z</time>
      </trkpt>
      <trkpt lat="44.12806" lon="3.11224">
        <ele>676.59997558594</ele>
        <time>2020-10-02T16:35:03.000Z</time>
      </trkpt>
      <trkpt lat="44.12811" lon="3.11223">
        <ele>675.40002441406</ele>
        <time>2020-10-02T16:35:08.000Z</time>
      </trkpt>
      <trkpt lat="44.12815" lon="3.11224">
        <ele>674.79998779297</ele>
        <time>2020-10-02T16:35:11.000Z</time>
      </trkpt>
      <trkpt lat="44.12817" lon="3.11225">
        <ele>674.59997558594</ele>
        <time>2020-10-02T16:35:12.000Z</time>
      </trkpt>
      <trkpt lat="44.12821" lon="3.11226">
        <ele>674.40002441406</ele>
        <time>2020-10-02T16:35:14.000Z</time>
      </trkpt>
      <trkpt lat="44.12823" lon="3.11226">
        <ele>674.20001220703</ele>
        <time>2020-10-02T16:35:16.000Z</time>
      </trkpt>
      <trkpt lat="44.12826" lon="3.11225">
        <ele>674</ele>
        <time>2020-10-02T16:35:17.000Z</time>
      </trkpt>
      <trkpt lat="44.12832" lon="3.11218">
        <ele>673</ele>
        <time>2020-10-02T16:35:21.000Z</time>
      </trkpt>
      <trkpt lat="44.12838" lon="3.11211">
        <ele>671.79998779297</ele>
        <time>2020-10-02T16:35:23.000Z</time>
      </trkpt>
      <trkpt lat="44.12844" lon="3.11206">
        <ele>670.59997558594</ele>
        <time>2020-10-02T16:35:25.000Z</time>
      </trkpt>
      <trkpt lat="44.12849" lon="3.11201">
        <ele>669.20001220703</ele>
        <time>2020-10-02T16:35:27.000Z</time>
      </trkpt>
      <trkpt lat="44.12851" lon="3.11198">
        <ele>667.79998779297</ele>
        <time>2020-10-02T16:35:29.000Z</time>
      </trkpt>
      <trkpt lat="44.12853" lon="3.11197">
        <ele>666.79998779297</ele>
        <time>2020-10-02T16:35:30.000Z</time>
      </trkpt>
      <trkpt lat="44.12853" lon="3.11196">
        <ele>665.59997558594</ele>
        <time>2020-10-02T16:35:31.000Z</time>
      </trkpt>
      <trkpt lat="44.12854" lon="3.11195">
        <ele>664.40002441406</ele>
        <time>2020-10-02T16:35:32.000Z</time>
      </trkpt>
      <trkpt lat="44.12855" lon="3.11193">
        <ele>661.79998779297</ele>
        <time>2020-10-02T16:35:34.000Z</time>
      </trkpt>
      <trkpt lat="44.12853" lon="3.11192">
        <ele>660.20001220703</ele>
        <time>2020-10-02T16:35:36.000Z</time>
      </trkpt>
      <trkpt lat="44.12854" lon="3.11192">
        <ele>658.59997558594</ele>
        <time>2020-10-02T16:35:38.000Z</time>
      </trkpt>
      <trkpt lat="44.12855" lon="3.11192">
        <ele>657.59997558594</ele>
        <time>2020-10-02T16:35:40.000Z</time>
      </trkpt>
      <trkpt lat="44.12855" lon="3.11192">
        <ele>657</ele>
        <time>2020-10-02T16:35:42.000Z</time>
      </trkpt>
      <trkpt lat="44.12855" lon="3.11191">
        <ele>656.40002441406</ele>
        <time>2020-10-02T16:35:44.000Z</time>
      </trkpt>
      <trkpt lat="44.12855" lon="3.11191">
        <ele>655.20001220703</ele>
        <time>2020-10-02T16:35:47.000Z</time>
      </trkpt>
      <trkpt lat="44.12856" lon="3.11189">
        <ele>655</ele>
        <time>2020-10-02T16:35:50.000Z</time>
      </trkpt>
      <trkpt lat="44.12862" lon="3.11188">
        <ele>654.20001220703</ele>
        <time>2020-10-02T16:35:55.000Z</time>
      </trkpt>
      <trkpt lat="44.12863" lon="3.11188">
        <ele>654</ele>
        <time>2020-10-02T16:35:56.000Z</time>
      </trkpt>
      <trkpt lat="44.12865" lon="3.11186">
        <ele>653.20001220703</ele>
        <time>2020-10-02T16:36:00.000Z</time>
      </trkpt>
      <trkpt lat="44.12865" lon="3.11186">
        <ele>652.40002441406</ele>
        <time>2020-10-02T16:36:03.000Z</time>
      </trkpt>
      <trkpt lat="44.12861" lon="3.11186">
        <ele>652.20001220703</ele>
        <time>2020-10-02T16:36:10.000Z</time>
      </trkpt>
      <trkpt lat="44.12861" lon="3.11187">
        <ele>652</ele>
        <time>2020-10-02T16:36:11.000Z</time>
      </trkpt>
      <trkpt lat="44.1287" lon="3.11193">
        <ele>651.79998779297</ele>
        <time>2020-10-02T16:36:19.000Z</time>
      </trkpt>
      <trkpt lat="44.1287" lon="3.11195">
        <ele>651.79998779297</ele>
        <time>2020-10-02T16:36:20.000Z</time>
      </trkpt>
      <trkpt lat="44.12872" lon="3.11202">
        <ele>651.40002441406</ele>
        <time>2020-10-02T16:36:24.000Z</time>
      </trkpt>
      <trkpt lat="44.12873" lon="3.11202">
        <ele>651</ele>
        <time>2020-10-02T16:36:25.000Z</time>
      </trkpt>
      <trkpt lat="44.12878" lon="3.11198">
        <ele>650.20001220703</ele>
        <time>2020-10-02T16:36:28.000Z</time>
      </trkpt>
      <trkpt lat="44.12882" lon="3.11197">
        <ele>649.40002441406</ele>
        <time>2020-10-02T16:36:29.000Z</time>
      </trkpt>
      <trkpt lat="44.12885" lon="3.11196">
        <ele>648.20001220703</ele>
        <time>2020-10-02T16:36:30.000Z</time>
      </trkpt>
      <trkpt lat="44.12887" lon="3.11194">
        <ele>646.59997558594</ele>
        <time>2020-10-02T16:36:31.000Z</time>
      </trkpt>
      <trkpt lat="44.12889" lon="3.11192">
        <ele>644.20001220703</ele>
        <time>2020-10-02T16:36:32.000Z</time>
      </trkpt>
      <trkpt lat="44.12893" lon="3.11189">
        <ele>643</ele>
        <time>2020-10-02T16:36:33.000Z</time>
      </trkpt>
      <trkpt lat="44.12896" lon="3.11187">
        <ele>641.79998779297</ele>
        <time>2020-10-02T16:36:34.000Z</time>
      </trkpt>
      <trkpt lat="44.12903" lon="3.11183">
        <ele>639.79998779297</ele>
        <time>2020-10-02T16:36:36.000Z</time>
      </trkpt>
      <trkpt lat="44.12905" lon="3.11181">
        <ele>638.79998779297</ele>
        <time>2020-10-02T16:36:37.000Z</time>
      </trkpt>
      <trkpt lat="44.12908" lon="3.11178">
        <ele>637.79998779297</ele>
        <time>2020-10-02T16:36:38.000Z</time>
      </trkpt>
      <trkpt lat="44.12913" lon="3.11175">
        <ele>637</ele>
        <time>2020-10-02T16:36:39.000Z</time>
      </trkpt>
      <trkpt lat="44.12917" lon="3.11173">
        <ele>636</ele>
        <time>2020-10-02T16:36:40.000Z</time>
      </trkpt>
      <trkpt lat="44.12919" lon="3.11172">
        <ele>634.79998779297</ele>
        <time>2020-10-02T16:36:41.000Z</time>
      </trkpt>
      <trkpt lat="44.12923" lon="3.11168">
        <ele>633.40002441406</ele>
        <time>2020-10-02T16:36:43.000Z</time>
      </trkpt>
      <trkpt lat="44.12928" lon="3.1116">
        <ele>631.59997558594</ele>
        <time>2020-10-02T16:36:45.000Z</time>
      </trkpt>
      <trkpt lat="44.12931" lon="3.11154">
        <ele>630.20001220703</ele>
        <time>2020-10-02T16:36:47.000Z</time>
      </trkpt>
      <trkpt lat="44.12937" lon="3.11145">
        <ele>628.59997558594</ele>
        <time>2020-10-02T16:36:49.000Z</time>
      </trkpt>
      <trkpt lat="44.12939" lon="3.1114">
        <ele>627.40002441406</ele>
        <time>2020-10-02T16:36:50.000Z</time>
      </trkpt>
      <trkpt lat="44.12941" lon="3.11136">
        <ele>626</ele>
        <time>2020-10-02T16:36:51.000Z</time>
      </trkpt>
      <trkpt lat="44.12944" lon="3.11131">
        <ele>624.59997558594</ele>
        <time>2020-10-02T16:36:52.000Z</time>
      </trkpt>
      <trkpt lat="44.12946" lon="3.11127">
        <ele>623.40002441406</ele>
        <time>2020-10-02T16:36:53.000Z</time>
      </trkpt>
      <trkpt lat="44.12947" lon="3.11124">
        <ele>622</ele>
        <time>2020-10-02T16:36:54.000Z</time>
      </trkpt>
      <trkpt lat="44.12948" lon="3.11122">
        <ele>620.79998779297</ele>
        <time>2020-10-02T16:36:55.000Z</time>
      </trkpt>
      <trkpt lat="44.12949" lon="3.11119">
        <ele>619.40002441406</ele>
        <time>2020-10-02T16:36:56.000Z</time>
      </trkpt>
      <trkpt lat="44.12949" lon="3.11117">
        <ele>618.20001220703</ele>
        <time>2020-10-02T16:36:57.000Z</time>
      </trkpt>
      <trkpt lat="44.12948" lon="3.11116">
        <ele>617.20001220703</ele>
        <time>2020-10-02T16:36:58.000Z</time>
      </trkpt>
      <trkpt lat="44.12948" lon="3.11115">
        <ele>616</ele>
        <time>2020-10-02T16:36:59.000Z</time>
      </trkpt>
      <trkpt lat="44.12949" lon="3.11114">
        <ele>615</ele>
        <time>2020-10-02T16:37:00.000Z</time>
      </trkpt>
      <trkpt lat="44.1295" lon="3.11112">
        <ele>612.20001220703</ele>
        <time>2020-10-02T16:37:01.000Z</time>
      </trkpt>
      <trkpt lat="44.12952" lon="3.1111">
        <ele>611</ele>
        <time>2020-10-02T16:37:02.000Z</time>
      </trkpt>
      <trkpt lat="44.12957" lon="3.11105">
        <ele>609.40002441406</ele>
        <time>2020-10-02T16:37:04.000Z</time>
      </trkpt>
      <trkpt lat="44.12962" lon="3.11097">
        <ele>608.20001220703</ele>
        <time>2020-10-02T16:37:06.000Z</time>
      </trkpt>
      <trkpt lat="44.12964" lon="3.11094">
        <ele>607.20001220703</ele>
        <time>2020-10-02T16:37:08.000Z</time>
      </trkpt>
      <trkpt lat="44.12965" lon="3.11092">
        <ele>606.40002441406</ele>
        <time>2020-10-02T16:37:09.000Z</time>
      </trkpt>
      <trkpt lat="44.12966" lon="3.11089">
        <ele>605.20001220703</ele>
        <time>2020-10-02T16:37:10.000Z</time>
      </trkpt>
      <trkpt lat="44.12967" lon="3.11086">
        <ele>604</ele>
        <time>2020-10-02T16:37:11.000Z</time>
      </trkpt>
      <trkpt lat="44.12968" lon="3.11082">
        <ele>602.79998779297</ele>
        <time>2020-10-02T16:37:12.000Z</time>
      </trkpt>
      <trkpt lat="44.12968" lon="3.11082">
        <ele>601.79998779297</ele>
        <time>2020-10-02T16:37:13.000Z</time>
      </trkpt>
      <trkpt lat="44.12971" lon="3.11081">
        <ele>600.79998779297</ele>
        <time>2020-10-02T16:37:14.000Z</time>
      </trkpt>
      <trkpt lat="44.12973" lon="3.11082">
        <ele>599.79998779297</ele>
        <time>2020-10-02T16:37:15.000Z</time>
      </trkpt>
      <trkpt lat="44.12975" lon="3.11082">
        <ele>598.59997558594</ele>
        <time>2020-10-02T16:37:16.000Z</time>
      </trkpt>
      <trkpt lat="44.12976" lon="3.11082">
        <ele>597.59997558594</ele>
        <time>2020-10-02T16:37:17.000Z</time>
      </trkpt>
      <trkpt lat="44.12977" lon="3.11083">
        <ele>595.79998779297</ele>
        <time>2020-10-02T16:37:19.000Z</time>
      </trkpt>
      <trkpt lat="44.12978" lon="3.11085">
        <ele>594</ele>
        <time>2020-10-02T16:37:21.000Z</time>
      </trkpt>
      <trkpt lat="44.1298" lon="3.11085">
        <ele>592.20001220703</ele>
        <time>2020-10-02T16:37:23.000Z</time>
      </trkpt>
      <trkpt lat="44.12982" lon="3.11084">
        <ele>591.40002441406</ele>
        <time>2020-10-02T16:37:24.000Z</time>
      </trkpt>
      <trkpt lat="44.12983" lon="3.11083">
        <ele>590.79998779297</ele>
        <time>2020-10-02T16:37:25.000Z</time>
      </trkpt>
      <trkpt lat="44.12994" lon="3.11078">
        <ele>589.59997558594</ele>
        <time>2020-10-02T16:37:27.000Z</time>
      </trkpt>
      <trkpt lat="44.13003" lon="3.1107">
        <ele>588.40002441406</ele>
        <time>2020-10-02T16:37:29.000Z</time>
      </trkpt>
      <trkpt lat="44.13008" lon="3.11066">
        <ele>587</ele>
        <time>2020-10-02T16:37:30.000Z</time>
      </trkpt>
      <trkpt lat="44.13014" lon="3.11062">
        <ele>586.40002441406</ele>
        <time>2020-10-02T16:37:31.000Z</time>
      </trkpt>
      <trkpt lat="44.13021" lon="3.11059">
        <ele>585.59997558594</ele>
        <time>2020-10-02T16:37:32.000Z</time>
      </trkpt>
      <trkpt lat="44.13034" lon="3.11052">
        <ele>583.40002441406</ele>
        <time>2020-10-02T16:37:34.000Z</time>
      </trkpt>
      <trkpt lat="44.1304" lon="3.1105">
        <ele>581.59997558594</ele>
        <time>2020-10-02T16:37:35.000Z</time>
      </trkpt>
      <trkpt lat="44.13047" lon="3.11046">
        <ele>580.20001220703</ele>
        <time>2020-10-02T16:37:36.000Z</time>
      </trkpt>
      <trkpt lat="44.13053" lon="3.11042">
        <ele>578.79998779297</ele>
        <time>2020-10-02T16:37:37.000Z</time>
      </trkpt>
      <trkpt lat="44.13058" lon="3.11036">
        <ele>577.59997558594</ele>
        <time>2020-10-02T16:37:38.000Z</time>
      </trkpt>
      <trkpt lat="44.13063" lon="3.1103">
        <ele>576.59997558594</ele>
        <time>2020-10-02T16:37:39.000Z</time>
      </trkpt>
      <trkpt lat="44.13069" lon="3.11016">
        <ele>574.79998779297</ele>
        <time>2020-10-02T16:37:41.000Z</time>
      </trkpt>
      <trkpt lat="44.1307" lon="3.11013">
        <ele>574</ele>
        <time>2020-10-02T16:37:42.000Z</time>
      </trkpt>
      <trkpt lat="44.1307" lon="3.11012">
        <ele>573.20001220703</ele>
        <time>2020-10-02T16:37:43.000Z</time>
      </trkpt>
      <trkpt lat="44.1307" lon="3.11011">
        <ele>572.40002441406</ele>
        <time>2020-10-02T16:37:44.000Z</time>
      </trkpt>
      <trkpt lat="44.13071" lon="3.1101">
        <ele>572</ele>
        <time>2020-10-02T16:37:45.000Z</time>
      </trkpt>
      <trkpt lat="44.13071" lon="3.1101">
        <ele>570</ele>
        <time>2020-10-02T16:37:47.000Z</time>
      </trkpt>
      <trkpt lat="44.13072" lon="3.1101">
        <ele>568.79998779297</ele>
        <time>2020-10-02T16:37:48.000Z</time>
      </trkpt>
      <trkpt lat="44.13073" lon="3.1101">
        <ele>567.59997558594</ele>
        <time>2020-10-02T16:37:49.000Z</time>
      </trkpt>
      <trkpt lat="44.13074" lon="3.1101">
        <ele>566</ele>
        <time>2020-10-02T16:37:51.000Z</time>
      </trkpt>
      <trkpt lat="44.13075" lon="3.1101">
        <ele>564.79998779297</ele>
        <time>2020-10-02T16:37:54.000Z</time>
      </trkpt>
      <trkpt lat="44.13075" lon="3.11009">
        <ele>564.59997558594</ele>
        <time>2020-10-02T16:38:00.000Z</time>
      </trkpt>
      <trkpt lat="44.13075" lon="3.11008">
        <ele>564.40002441406</ele>
        <time>2020-10-02T16:38:09.000Z</time>
      </trkpt>
      <trkpt lat="44.13074" lon="3.1101">
        <ele>564.40002441406</ele>
        <time>2020-10-02T16:38:18.000Z</time>
      </trkpt>
      <trkpt lat="44.13072" lon="3.11011">
        <ele>564.40002441406</ele>
        <time>2020-10-02T16:38:26.000Z</time>
      </trkpt>
      <trkpt lat="44.13071" lon="3.11007">
        <ele>564.40002441406</ele>
        <time>2020-10-02T16:38:35.000Z</time>
      </trkpt>
      <trkpt lat="44.1307" lon="3.11004">
        <ele>564.40002441406</ele>
        <time>2020-10-02T16:38:42.000Z</time>
      </trkpt>
      <trkpt lat="44.1307" lon="3.11003">
        <ele>564.59997558594</ele>
        <time>2020-10-02T16:38:50.000Z</time>
      </trkpt>
      <trkpt lat="44.13071" lon="3.10999">
        <ele>564.79998779297</ele>
        <time>2020-10-02T16:39:00.000Z</time>
      </trkpt>
      <trkpt lat="44.1307" lon="3.10996">
        <ele>564.79998779297</ele>
        <time>2020-10-02T16:39:07.000Z</time>
      </trkpt>
      <trkpt lat="44.13069" lon="3.10993">
        <ele>564.79998779297</ele>
        <time>2020-10-02T16:39:13.000Z</time>
      </trkpt>
      <trkpt lat="44.13069" lon="3.10993">
        <ele>564.79998779297</ele>
        <time>2020-10-02T16:39:21.000Z</time>
      </trkpt>
      <trkpt lat="44.13069" lon="3.10994">
        <ele>565</ele>
        <time>2020-10-02T16:39:35.000Z</time>
      </trkpt>
      <trkpt lat="44.1307" lon="3.10997">
        <ele>565.20001220703</ele>
        <time>2020-10-02T16:39:48.000Z</time>
      </trkpt>
      <trkpt lat="44.13072" lon="3.10998">
        <ele>565.40002441406</ele>
        <time>2020-10-02T16:39:59.000Z</time>
      </trkpt>
      <trkpt lat="44.13077" lon="3.10998">
        <ele>565.59997558594</ele>
        <time>2020-10-02T16:40:13.000Z</time>
      </trkpt>
      <trkpt lat="44.13076" lon="3.10997">
        <ele>565.59997558594</ele>
        <time>2020-10-02T16:40:17.000Z</time>
      </trkpt>
      <trkpt lat="44.13075" lon="3.10997">
        <ele>565.79998779297</ele>
        <time>2020-10-02T16:40:26.000Z</time>
      </trkpt>
      <trkpt lat="44.13074" lon="3.10997">
        <ele>566</ele>
        <time>2020-10-02T16:40:39.000Z</time>
      </trkpt>
      <trkpt lat="44.13074" lon="3.11">
        <ele>566</ele>
        <time>2020-10-02T16:40:52.000Z</time>
      </trkpt>
      <trkpt lat="44.13076" lon="3.11001">
        <ele>566</ele>
        <time>2020-10-02T16:41:08.000Z</time>
      </trkpt>
      <trkpt lat="44.13076" lon="3.11003">
        <ele>566.20001220703</ele>
        <time>2020-10-02T16:41:21.000Z</time>
      </trkpt>
      <trkpt lat="44.13076" lon="3.11004">
        <ele>566.40002441406</ele>
        <time>2020-10-02T16:41:26.000Z</time>
      </trkpt>
      <trkpt lat="44.13075" lon="3.11005">
        <ele>566.79998779297</ele>
        <time>2020-10-02T16:41:37.000Z</time>
      </trkpt>
      <trkpt lat="44.13074" lon="3.11005">
        <ele>566.79998779297</ele>
        <time>2020-10-02T16:41:50.000Z</time>
      </trkpt>
      <trkpt lat="44.1308" lon="3.11007">
        <ele>567</ele>
        <time>2020-10-02T16:42:00.000Z</time>
      </trkpt>
      <trkpt lat="44.1308" lon="3.11005">
        <ele>567.20001220703</ele>
        <time>2020-10-02T16:42:11.000Z</time>
      </trkpt>
      <trkpt lat="44.13078" lon="3.11005">
        <ele>567.40002441406</ele>
        <time>2020-10-02T16:42:19.000Z</time>
      </trkpt>
      <trkpt lat="44.13078" lon="3.11005">
        <ele>567.59997558594</ele>
        <time>2020-10-02T16:42:23.000Z</time>
      </trkpt>
      <trkpt lat="44.13076" lon="3.11006">
        <ele>567.79998779297</ele>
        <time>2020-10-02T16:42:37.000Z</time>
      </trkpt>
      <trkpt lat="44.13076" lon="3.11006">
        <ele>568</ele>
        <time>2020-10-02T16:42:52.000Z</time>
      </trkpt>
      <trkpt lat="44.13076" lon="3.11006">
        <ele>568</ele>
        <time>2020-10-02T16:43:07.000Z</time>
      </trkpt>
      <trkpt lat="44.13072" lon="3.11006">
        <ele>568.20001220703</ele>
        <time>2020-10-02T16:43:21.000Z</time>
      </trkpt>
      <trkpt lat="44.1307" lon="3.11004">
        <ele>568</ele>
        <time>2020-10-02T16:43:34.000Z</time>
      </trkpt>
      <trkpt lat="44.1307" lon="3.11004">
        <ele>568</ele>
        <time>2020-10-02T16:43:49.000Z</time>
      </trkpt>
      <trkpt lat="44.13068" lon="3.11004">
        <ele>567.79998779297</ele>
        <time>2020-10-02T16:44:00.000Z</time>
      </trkpt>
      <trkpt lat="44.13068" lon="3.11005">
        <ele>567.59997558594</ele>
        <time>2020-10-02T16:44:14.000Z</time>
      </trkpt>
      <trkpt lat="44.13074" lon="3.11004">
        <ele>567.59997558594</ele>
        <time>2020-10-02T16:44:27.000Z</time>
      </trkpt>
      <trkpt lat="44.13076" lon="3.11004">
        <ele>567.40002441406</ele>
        <time>2020-10-02T16:44:43.000Z</time>
      </trkpt>
      <trkpt lat="44.13074" lon="3.11007">
        <ele>567</ele>
        <time>2020-10-02T16:44:58.000Z</time>
      </trkpt>
      <trkpt lat="44.13073" lon="3.11007">
        <ele>566.59997558594</ele>
        <time>2020-10-02T16:45:15.000Z</time>
      </trkpt>
      <trkpt lat="44.13073" lon="3.11007">
        <ele>566.40002441406</ele>
        <time>2020-10-02T16:45:18.000Z</time>
      </trkpt>
      <trkpt lat="44.13071" lon="3.11005">
        <ele>566.40002441406</ele>
        <time>2020-10-02T16:45:28.000Z</time>
      </trkpt>
      <trkpt lat="44.13069" lon="3.11005">
        <ele>566.40002441406</ele>
        <time>2020-10-02T16:45:41.000Z</time>
      </trkpt>
      <trkpt lat="44.13069" lon="3.11005">
        <ele>566.40002441406</ele>
        <time>2020-10-02T16:45:42.000Z</time>
      </trkpt>
      <trkpt lat="44.13069" lon="3.11005">
        <ele>566.20001220703</ele>
        <time>2020-10-02T16:45:55.000Z</time>
      </trkpt>
      <trkpt lat="44.13071" lon="3.11004">
        <ele>566.20001220703</ele>
        <time>2020-10-02T16:46:12.000Z</time>
      </trkpt>
      <trkpt lat="44.13074" lon="3.11003">
        <ele>566.20001220703</ele>
        <time>2020-10-02T16:46:25.000Z</time>
      </trkpt>
      <trkpt lat="44.13074" lon="3.10999">
        <ele>566.20001220703</ele>
        <time>2020-10-02T16:46:27.000Z</time>
      </trkpt>
      <trkpt lat="44.13075" lon="3.10989">
        <ele>566.20001220703</ele>
        <time>2020-10-02T16:46:30.000Z</time>
      </trkpt>
      <trkpt lat="44.13077" lon="3.10961">
        <ele>566</ele>
        <time>2020-10-02T16:46:35.000Z</time>
      </trkpt>
      <trkpt lat="44.13078" lon="3.10934">
        <ele>565.59997558594</ele>
        <time>2020-10-02T16:46:39.000Z</time>
      </trkpt>
      <trkpt lat="44.1308" lon="3.10922">
        <ele>565.40002441406</ele>
        <time>2020-10-02T16:46:41.000Z</time>
      </trkpt>
      <trkpt lat="44.13088" lon="3.10902">
        <ele>564.59997558594</ele>
        <time>2020-10-02T16:46:46.000Z</time>
      </trkpt>
      <trkpt lat="44.13096" lon="3.10877">
        <ele>564.40002441406</ele>
        <time>2020-10-02T16:46:52.000Z</time>
      </trkpt>
      <trkpt lat="44.13097" lon="3.10868">
        <ele>564.59997558594</ele>
        <time>2020-10-02T16:46:54.000Z</time>
      </trkpt>
      <trkpt lat="44.13097" lon="3.10852">
        <ele>564.59997558594</ele>
        <time>2020-10-02T16:46:57.000Z</time>
      </trkpt>
      <trkpt lat="44.13091" lon="3.10819">
        <ele>564.59997558594</ele>
        <time>2020-10-02T16:47:01.000Z</time>
      </trkpt>
      <trkpt lat="44.1308" lon="3.1077">
        <ele>564.40002441406</ele>
        <time>2020-10-02T16:47:06.000Z</time>
      </trkpt>
      <trkpt lat="44.1308" lon="3.10762">
        <ele>563.59997558594</ele>
        <time>2020-10-02T16:47:07.000Z</time>
      </trkpt>
      <trkpt lat="44.13078" lon="3.10756">
        <ele>563.20001220703</ele>
        <time>2020-10-02T16:47:08.000Z</time>
      </trkpt>
      <trkpt lat="44.13076" lon="3.10752">
        <ele>562.59997558594</ele>
        <time>2020-10-02T16:47:09.000Z</time>
      </trkpt>
      <trkpt lat="44.13074" lon="3.10751">
        <ele>561.59997558594</ele>
        <time>2020-10-02T16:47:10.000Z</time>
      </trkpt>
      <trkpt lat="44.13072" lon="3.1075">
        <ele>560.59997558594</ele>
        <time>2020-10-02T16:47:11.000Z</time>
      </trkpt>
      <trkpt lat="44.13072" lon="3.10751">
        <ele>559.20001220703</ele>
        <time>2020-10-02T16:47:12.000Z</time>
      </trkpt>
      <trkpt lat="44.13071" lon="3.10751">
        <ele>559</ele>
        <time>2020-10-02T16:47:13.000Z</time>
      </trkpt>
      <trkpt lat="44.1307" lon="3.10749">
        <ele>558.40002441406</ele>
        <time>2020-10-02T16:47:20.000Z</time>
      </trkpt>
      <trkpt lat="44.13066" lon="3.10746">
        <ele>558.40002441406</ele>
        <time>2020-10-02T16:47:27.000Z</time>
      </trkpt>
      <trkpt lat="44.13057" lon="3.10739">
        <ele>558.40002441406</ele>
        <time>2020-10-02T16:47:31.000Z</time>
      </trkpt>
      <trkpt lat="44.13041" lon="3.1073">
        <ele>558.20001220703</ele>
        <time>2020-10-02T16:47:36.000Z</time>
      </trkpt>
      <trkpt lat="44.13039" lon="3.10731">
        <ele>557.79998779297</ele>
        <time>2020-10-02T16:47:38.000Z</time>
      </trkpt>
      <trkpt lat="44.13039" lon="3.10735">
        <ele>557.40002441406</ele>
        <time>2020-10-02T16:47:39.000Z</time>
      </trkpt>
      <trkpt lat="44.13039" lon="3.10742">
        <ele>556</ele>
        <time>2020-10-02T16:47:40.000Z</time>
      </trkpt>
      <trkpt lat="44.13042" lon="3.10759">
        <ele>554.59997558594</ele>
        <time>2020-10-02T16:47:42.000Z</time>
      </trkpt>
      <trkpt lat="44.13044" lon="3.10775">
        <ele>552.79998779297</ele>
        <time>2020-10-02T16:47:44.000Z</time>
      </trkpt>
      <trkpt lat="44.13044" lon="3.10782">
        <ele>551.59997558594</ele>
        <time>2020-10-02T16:47:45.000Z</time>
      </trkpt>
      <trkpt lat="44.13044" lon="3.10791">
        <ele>550.59997558594</ele>
        <time>2020-10-02T16:47:46.000Z</time>
      </trkpt>
      <trkpt lat="44.13044" lon="3.10798">
        <ele>549.59997558594</ele>
        <time>2020-10-02T16:47:47.000Z</time>
      </trkpt>
      <trkpt lat="44.13042" lon="3.10805">
        <ele>548.59997558594</ele>
        <time>2020-10-02T16:47:48.000Z</time>
      </trkpt>
      <trkpt lat="44.13041" lon="3.1081">
        <ele>547.40002441406</ele>
        <time>2020-10-02T16:47:49.000Z</time>
      </trkpt>
      <trkpt lat="44.13037" lon="3.10813">
        <ele>546.20001220703</ele>
        <time>2020-10-02T16:47:50.000Z</time>
      </trkpt>
      <trkpt lat="44.13023" lon="3.10806">
        <ele>544.20001220703</ele>
        <time>2020-10-02T16:47:52.000Z</time>
      </trkpt>
      <trkpt lat="44.13014" lon="3.10801">
        <ele>543.20001220703</ele>
        <time>2020-10-02T16:47:53.000Z</time>
      </trkpt>
      <trkpt lat="44.12997" lon="3.10787">
        <ele>541.20001220703</ele>
        <time>2020-10-02T16:47:55.000Z</time>
      </trkpt>
      <trkpt lat="44.12984" lon="3.10769">
        <ele>540</ele>
        <time>2020-10-02T16:47:57.000Z</time>
      </trkpt>
      <trkpt lat="44.12977" lon="3.1076">
        <ele>539.40002441406</ele>
        <time>2020-10-02T16:47:58.000Z</time>
      </trkpt>
      <trkpt lat="44.12972" lon="3.10753">
        <ele>538.40002441406</ele>
        <time>2020-10-02T16:47:59.000Z</time>
      </trkpt>
      <trkpt lat="44.12967" lon="3.10748">
        <ele>537.20001220703</ele>
        <time>2020-10-02T16:48:00.000Z</time>
      </trkpt>
      <trkpt lat="44.12963" lon="3.10744">
        <ele>535.40002441406</ele>
        <time>2020-10-02T16:48:01.000Z</time>
      </trkpt>
      <trkpt lat="44.12961" lon="3.1074">
        <ele>533.40002441406</ele>
        <time>2020-10-02T16:48:02.000Z</time>
      </trkpt>
      <trkpt lat="44.12959" lon="3.10737">
        <ele>531.20001220703</ele>
        <time>2020-10-02T16:48:03.000Z</time>
      </trkpt>
      <trkpt lat="44.12956" lon="3.10737">
        <ele>529.20001220703</ele>
        <time>2020-10-02T16:48:04.000Z</time>
      </trkpt>
      <trkpt lat="44.12954" lon="3.10737">
        <ele>527.20001220703</ele>
        <time>2020-10-02T16:48:05.000Z</time>
      </trkpt>
      <trkpt lat="44.12951" lon="3.10738">
        <ele>525.20001220703</ele>
        <time>2020-10-02T16:48:06.000Z</time>
      </trkpt>
      <trkpt lat="44.12948" lon="3.10738">
        <ele>523.59997558594</ele>
        <time>2020-10-02T16:48:07.000Z</time>
      </trkpt>
      <trkpt lat="44.12945" lon="3.10737">
        <ele>522</ele>
        <time>2020-10-02T16:48:08.000Z</time>
      </trkpt>
      <trkpt lat="44.12942" lon="3.10736">
        <ele>520.40002441406</ele>
        <time>2020-10-02T16:48:09.000Z</time>
      </trkpt>
      <trkpt lat="44.1294" lon="3.10734">
        <ele>517.20001220703</ele>
        <time>2020-10-02T16:48:10.000Z</time>
      </trkpt>
      <trkpt lat="44.12935" lon="3.10732">
        <ele>516</ele>
        <time>2020-10-02T16:48:11.000Z</time>
      </trkpt>
      <trkpt lat="44.12923" lon="3.10727">
        <ele>514.40002441406</ele>
        <time>2020-10-02T16:48:13.000Z</time>
      </trkpt>
      <trkpt lat="44.12914" lon="3.10723">
        <ele>513.59997558594</ele>
        <time>2020-10-02T16:48:15.000Z</time>
      </trkpt>
      <trkpt lat="44.12908" lon="3.10722">
        <ele>513.20001220703</ele>
        <time>2020-10-02T16:48:16.000Z</time>
      </trkpt>
      <trkpt lat="44.12902" lon="3.10718">
        <ele>512.79998779297</ele>
        <time>2020-10-02T16:48:17.000Z</time>
      </trkpt>
      <trkpt lat="44.12896" lon="3.10717">
        <ele>512.59997558594</ele>
        <time>2020-10-02T16:48:18.000Z</time>
      </trkpt>
      <trkpt lat="44.12892" lon="3.10714">
        <ele>511.79998779297</ele>
        <time>2020-10-02T16:48:19.000Z</time>
      </trkpt>
      <trkpt lat="44.12884" lon="3.10706">
        <ele>509.60000610352</ele>
        <time>2020-10-02T16:48:21.000Z</time>
      </trkpt>
      <trkpt lat="44.12879" lon="3.10701">
        <ele>508.20001220703</ele>
        <time>2020-10-02T16:48:22.000Z</time>
      </trkpt>
      <trkpt lat="44.12873" lon="3.10697">
        <ele>506.79998779297</ele>
        <time>2020-10-02T16:48:23.000Z</time>
      </trkpt>
      <trkpt lat="44.12867" lon="3.10693">
        <ele>505.60000610352</ele>
        <time>2020-10-02T16:48:24.000Z</time>
      </trkpt>
      <trkpt lat="44.12861" lon="3.1069">
        <ele>504.60000610352</ele>
        <time>2020-10-02T16:48:25.000Z</time>
      </trkpt>
      <trkpt lat="44.12856" lon="3.10685">
        <ele>503.60000610352</ele>
        <time>2020-10-02T16:48:26.000Z</time>
      </trkpt>
      <trkpt lat="44.12847" lon="3.10676">
        <ele>502</ele>
        <time>2020-10-02T16:48:28.000Z</time>
      </trkpt>
      <trkpt lat="44.12842" lon="3.10672">
        <ele>500.79998779297</ele>
        <time>2020-10-02T16:48:29.000Z</time>
      </trkpt>
      <trkpt lat="44.12837" lon="3.10668">
        <ele>499.60000610352</ele>
        <time>2020-10-02T16:48:30.000Z</time>
      </trkpt>
      <trkpt lat="44.12834" lon="3.10665">
        <ele>498.20001220703</ele>
        <time>2020-10-02T16:48:31.000Z</time>
      </trkpt>
      <trkpt lat="44.12832" lon="3.10661">
        <ele>497</ele>
        <time>2020-10-02T16:48:32.000Z</time>
      </trkpt>
      <trkpt lat="44.1283" lon="3.10652">
        <ele>495.39999389648</ele>
        <time>2020-10-02T16:48:34.000Z</time>
      </trkpt>
      <trkpt lat="44.12828" lon="3.10645">
        <ele>494.39999389648</ele>
        <time>2020-10-02T16:48:35.000Z</time>
      </trkpt>
      <trkpt lat="44.12825" lon="3.10638">
        <ele>493.20001220703</ele>
        <time>2020-10-02T16:48:36.000Z</time>
      </trkpt>
      <trkpt lat="44.12822" lon="3.10632">
        <ele>491.79998779297</ele>
        <time>2020-10-02T16:48:37.000Z</time>
      </trkpt>
      <trkpt lat="44.12819" lon="3.10625">
        <ele>489.60000610352</ele>
        <time>2020-10-02T16:48:38.000Z</time>
      </trkpt>
      <trkpt lat="44.12812" lon="3.10615">
        <ele>488.20001220703</ele>
        <time>2020-10-02T16:48:40.000Z</time>
      </trkpt>
      <trkpt lat="44.12809" lon="3.10611">
        <ele>487.39999389648</ele>
        <time>2020-10-02T16:48:41.000Z</time>
      </trkpt>
      <trkpt lat="44.12807" lon="3.10604">
        <ele>486.60000610352</ele>
        <time>2020-10-02T16:48:42.000Z</time>
      </trkpt>
      <trkpt lat="44.12803" lon="3.10587">
        <ele>484.60000610352</ele>
        <time>2020-10-02T16:48:44.000Z</time>
      </trkpt>
      <trkpt lat="44.128" lon="3.10575">
        <ele>483</ele>
        <time>2020-10-02T16:48:45.000Z</time>
      </trkpt>
      <trkpt lat="44.12796" lon="3.10563">
        <ele>481.60000610352</ele>
        <time>2020-10-02T16:48:46.000Z</time>
      </trkpt>
      <trkpt lat="44.1279" lon="3.10549">
        <ele>480.60000610352</ele>
        <time>2020-10-02T16:48:47.000Z</time>
      </trkpt>
      <trkpt lat="44.1278" lon="3.10528">
        <ele>478.79998779297</ele>
        <time>2020-10-02T16:48:49.000Z</time>
      </trkpt>
      <trkpt lat="44.1277" lon="3.10511">
        <ele>477</ele>
        <time>2020-10-02T16:48:51.000Z</time>
      </trkpt>
      <trkpt lat="44.12768" lon="3.10504">
        <ele>475.60000610352</ele>
        <time>2020-10-02T16:48:52.000Z</time>
      </trkpt>
      <trkpt lat="44.12766" lon="3.10497">
        <ele>474</ele>
        <time>2020-10-02T16:48:53.000Z</time>
      </trkpt>
      <trkpt lat="44.12765" lon="3.10492">
        <ele>472.60000610352</ele>
        <time>2020-10-02T16:48:54.000Z</time>
      </trkpt>
      <trkpt lat="44.12765" lon="3.10487">
        <ele>470.79998779297</ele>
        <time>2020-10-02T16:48:55.000Z</time>
      </trkpt>
      <trkpt lat="44.12765" lon="3.10484">
        <ele>469</ele>
        <time>2020-10-02T16:48:56.000Z</time>
      </trkpt>
      <trkpt lat="44.12766" lon="3.10482">
        <ele>467.39999389648</ele>
        <time>2020-10-02T16:48:57.000Z</time>
      </trkpt>
      <trkpt lat="44.12766" lon="3.10481">
        <ele>466</ele>
        <time>2020-10-02T16:48:58.000Z</time>
      </trkpt>
      <trkpt lat="44.12765" lon="3.1048">
        <ele>464.39999389648</ele>
        <time>2020-10-02T16:48:59.000Z</time>
      </trkpt>
      <trkpt lat="44.12765" lon="3.1048">
        <ele>462.79998779297</ele>
        <time>2020-10-02T16:49:00.000Z</time>
      </trkpt>
      <trkpt lat="44.12766" lon="3.10479">
        <ele>461.39999389648</ele>
        <time>2020-10-02T16:49:01.000Z</time>
      </trkpt>
      <trkpt lat="44.12765" lon="3.10479">
        <ele>460</ele>
        <time>2020-10-02T16:49:02.000Z</time>
      </trkpt>
      <trkpt lat="44.12765" lon="3.10479">
        <ele>459</ele>
        <time>2020-10-02T16:49:03.000Z</time>
      </trkpt>
      <trkpt lat="44.12765" lon="3.10478">
        <ele>457.20001220703</ele>
        <time>2020-10-02T16:49:05.000Z</time>
      </trkpt>
      <trkpt lat="44.12764" lon="3.10479">
        <ele>456.20001220703</ele>
        <time>2020-10-02T16:49:07.000Z</time>
      </trkpt>
      <trkpt lat="44.12764" lon="3.10479">
        <ele>455.79998779297</ele>
        <time>2020-10-02T16:49:08.000Z</time>
      </trkpt>
      <trkpt lat="44.12765" lon="3.10479">
        <ele>455.39999389648</ele>
        <time>2020-10-02T16:49:15.000Z</time>
      </trkpt>
      <trkpt lat="44.12766" lon="3.10475">
        <ele>455.39999389648</ele>
        <time>2020-10-02T16:49:23.000Z</time>
      </trkpt>
      <trkpt lat="44.12766" lon="3.10473">
        <ele>455.20001220703</ele>
        <time>2020-10-02T16:49:31.000Z</time>
      </trkpt>
      <trkpt lat="44.12769" lon="3.10473">
        <ele>455.20001220703</ele>
        <time>2020-10-02T16:49:39.000Z</time>
      </trkpt>
      <trkpt lat="44.1277" lon="3.10475">
        <ele>455.20001220703</ele>
        <time>2020-10-02T16:49:50.000Z</time>
      </trkpt>
      <trkpt lat="44.12758" lon="3.10487">
        <ele>455.60000610352</ele>
        <time>2020-10-02T16:50:04.000Z</time>
      </trkpt>
      <trkpt lat="44.12747" lon="3.10494">
        <ele>455.39999389648</ele>
        <time>2020-10-02T16:50:20.000Z</time>
      </trkpt>
      <trkpt lat="44.12749" lon="3.10488">
        <ele>455.20001220703</ele>
        <time>2020-10-02T16:50:28.000Z</time>
      </trkpt>
      <trkpt lat="44.12749" lon="3.10485">
        <ele>455.20001220703</ele>
        <time>2020-10-02T16:50:29.000Z</time>
      </trkpt>
      <trkpt lat="44.12749" lon="3.10475">
        <ele>455.20001220703</ele>
        <time>2020-10-02T16:50:31.000Z</time>
      </trkpt>
      <trkpt lat="44.12744" lon="3.10452">
        <ele>454.79998779297</ele>
        <time>2020-10-02T16:50:34.000Z</time>
      </trkpt>
      <trkpt lat="44.12743" lon="3.10442">
        <ele>454.79998779297</ele>
        <time>2020-10-02T16:50:35.000Z</time>
      </trkpt>
      <trkpt lat="44.12746" lon="3.10407">
        <ele>454.60000610352</ele>
        <time>2020-10-02T16:50:38.000Z</time>
      </trkpt>
      <trkpt lat="44.12745" lon="3.10396">
        <ele>454.20001220703</ele>
        <time>2020-10-02T16:50:39.000Z</time>
      </trkpt>
      <trkpt lat="44.12741" lon="3.10384">
        <ele>453.60000610352</ele>
        <time>2020-10-02T16:50:40.000Z</time>
      </trkpt>
      <trkpt lat="44.12737" lon="3.10374">
        <ele>452.79998779297</ele>
        <time>2020-10-02T16:50:41.000Z</time>
      </trkpt>
      <trkpt lat="44.12731" lon="3.10364">
        <ele>451.79998779297</ele>
        <time>2020-10-02T16:50:42.000Z</time>
      </trkpt>
      <trkpt lat="44.1272" lon="3.10349">
        <ele>450</ele>
        <time>2020-10-02T16:50:44.000Z</time>
      </trkpt>
      <trkpt lat="44.12715" lon="3.10342">
        <ele>448.79998779297</ele>
        <time>2020-10-02T16:50:45.000Z</time>
      </trkpt>
      <trkpt lat="44.1271" lon="3.10335">
        <ele>447.60000610352</ele>
        <time>2020-10-02T16:50:46.000Z</time>
      </trkpt>
      <trkpt lat="44.12706" lon="3.1033">
        <ele>446.20001220703</ele>
        <time>2020-10-02T16:50:47.000Z</time>
      </trkpt>
      <trkpt lat="44.1271" lon="3.10328">
        <ele>445</ele>
        <time>2020-10-02T16:50:48.000Z</time>
      </trkpt>
      <trkpt lat="44.12712" lon="3.10327">
        <ele>444</ele>
        <time>2020-10-02T16:50:49.000Z</time>
      </trkpt>
      <trkpt lat="44.12717" lon="3.10329">
        <ele>442.79998779297</ele>
        <time>2020-10-02T16:50:51.000Z</time>
      </trkpt>
      <trkpt lat="44.12721" lon="3.10333">
        <ele>441.20001220703</ele>
        <time>2020-10-02T16:50:54.000Z</time>
      </trkpt>
      <trkpt lat="44.12724" lon="3.10335">
        <ele>440</ele>
        <time>2020-10-02T16:50:56.000Z</time>
      </trkpt>
      <trkpt lat="44.12727" lon="3.10339">
        <ele>438.60000610352</ele>
        <time>2020-10-02T16:50:59.000Z</time>
      </trkpt>
      <trkpt lat="44.1273" lon="3.10345">
        <ele>438.20001220703</ele>
        <time>2020-10-02T16:51:02.000Z</time>
      </trkpt>
      <trkpt lat="44.12733" lon="3.10352">
        <ele>438</ele>
        <time>2020-10-02T16:51:04.000Z</time>
      </trkpt>
      <trkpt lat="44.12738" lon="3.10364">
        <ele>438</ele>
        <time>2020-10-02T16:51:07.000Z</time>
      </trkpt>
      <trkpt lat="44.12753" lon="3.10382">
        <ele>438</ele>
        <time>2020-10-02T16:51:12.000Z</time>
      </trkpt>
      <trkpt lat="44.12765" lon="3.10379">
        <ele>437.79998779297</ele>
        <time>2020-10-02T16:51:14.000Z</time>
      </trkpt>
      <trkpt lat="44.1277" lon="3.10375">
        <ele>437.60000610352</ele>
        <time>2020-10-02T16:51:15.000Z</time>
      </trkpt>
      <trkpt lat="44.12784" lon="3.10351">
        <ele>437</ele>
        <time>2020-10-02T16:51:18.000Z</time>
      </trkpt>
      <trkpt lat="44.12794" lon="3.10335">
        <ele>436.60000610352</ele>
        <time>2020-10-02T16:51:20.000Z</time>
      </trkpt>
      <trkpt lat="44.12803" lon="3.10323">
        <ele>436.20001220703</ele>
        <time>2020-10-02T16:51:22.000Z</time>
      </trkpt>
      <trkpt lat="44.1281" lon="3.10314">
        <ele>435.20001220703</ele>
        <time>2020-10-02T16:51:24.000Z</time>
      </trkpt>
      <trkpt lat="44.12813" lon="3.10311">
        <ele>434</ele>
        <time>2020-10-02T16:51:25.000Z</time>
      </trkpt>
      <trkpt lat="44.12816" lon="3.10309">
        <ele>433.20001220703</ele>
        <time>2020-10-02T16:51:26.000Z</time>
      </trkpt>
      <trkpt lat="44.12819" lon="3.10306">
        <ele>432</ele>
        <time>2020-10-02T16:51:27.000Z</time>
      </trkpt>
      <trkpt lat="44.12822" lon="3.10304">
        <ele>431</ele>
        <time>2020-10-02T16:51:28.000Z</time>
      </trkpt>
      <trkpt lat="44.12833" lon="3.10298">
        <ele>430</ele>
        <time>2020-10-02T16:51:32.000Z</time>
      </trkpt>
      <trkpt lat="44.12835" lon="3.10297">
        <ele>430</ele>
        <time>2020-10-02T16:51:33.000Z</time>
      </trkpt>
      <trkpt lat="44.12841" lon="3.10294">
        <ele>430.20001220703</ele>
        <time>2020-10-02T16:51:37.000Z</time>
      </trkpt>
      <trkpt lat="44.12846" lon="3.1029">
        <ele>431.20001220703</ele>
        <time>2020-10-02T16:51:40.000Z</time>
      </trkpt>
      <trkpt lat="44.12848" lon="3.10286">
        <ele>431.60000610352</ele>
        <time>2020-10-02T16:51:41.000Z</time>
      </trkpt>
      <trkpt lat="44.12851" lon="3.10282">
        <ele>431.79998779297</ele>
        <time>2020-10-02T16:51:42.000Z</time>
      </trkpt>
      <trkpt lat="44.12859" lon="3.10264">
        <ele>431.79998779297</ele>
        <time>2020-10-02T16:51:45.000Z</time>
      </trkpt>
      <trkpt lat="44.12879" lon="3.10247">
        <ele>432</ele>
        <time>2020-10-02T16:51:49.000Z</time>
      </trkpt>
      <trkpt lat="44.12885" lon="3.10244">
        <ele>432</ele>
        <time>2020-10-02T16:51:50.000Z</time>
      </trkpt>
      <trkpt lat="44.12897" lon="3.1024">
        <ele>431.79998779297</ele>
        <time>2020-10-02T16:51:52.000Z</time>
      </trkpt>
      <trkpt lat="44.12911" lon="3.10238">
        <ele>431</ele>
        <time>2020-10-02T16:51:54.000Z</time>
      </trkpt>
      <trkpt lat="44.12925" lon="3.10238">
        <ele>429.79998779297</ele>
        <time>2020-10-02T16:51:56.000Z</time>
      </trkpt>
      <trkpt lat="44.12939" lon="3.10241">
        <ele>428.20001220703</ele>
        <time>2020-10-02T16:51:58.000Z</time>
      </trkpt>
      <trkpt lat="44.12945" lon="3.10244">
        <ele>427.39999389648</ele>
        <time>2020-10-02T16:51:59.000Z</time>
      </trkpt>
      <trkpt lat="44.12951" lon="3.10245">
        <ele>426.60000610352</ele>
        <time>2020-10-02T16:52:00.000Z</time>
      </trkpt>
      <trkpt lat="44.12962" lon="3.10243">
        <ele>424</ele>
        <time>2020-10-02T16:52:02.000Z</time>
      </trkpt>
      <trkpt lat="44.12967" lon="3.10239">
        <ele>423</ele>
        <time>2020-10-02T16:52:03.000Z</time>
      </trkpt>
      <trkpt lat="44.12968" lon="3.10233">
        <ele>422</ele>
        <time>2020-10-02T16:52:04.000Z</time>
      </trkpt>
      <trkpt lat="44.12965" lon="3.10228">
        <ele>421.20001220703</ele>
        <time>2020-10-02T16:52:05.000Z</time>
      </trkpt>
      <trkpt lat="44.12963" lon="3.10223">
        <ele>420.39999389648</ele>
        <time>2020-10-02T16:52:06.000Z</time>
      </trkpt>
      <trkpt lat="44.12953" lon="3.10213">
        <ele>418.60000610352</ele>
        <time>2020-10-02T16:52:08.000Z</time>
      </trkpt>
      <trkpt lat="44.12942" lon="3.102">
        <ele>416.79998779297</ele>
        <time>2020-10-02T16:52:10.000Z</time>
      </trkpt>
      <trkpt lat="44.12932" lon="3.10184">
        <ele>414.79998779297</ele>
        <time>2020-10-02T16:52:12.000Z</time>
      </trkpt>
      <trkpt lat="44.12927" lon="3.10175">
        <ele>414.20001220703</ele>
        <time>2020-10-02T16:52:13.000Z</time>
      </trkpt>
      <trkpt lat="44.12923" lon="3.10166">
        <ele>413.60000610352</ele>
        <time>2020-10-02T16:52:14.000Z</time>
      </trkpt>
      <trkpt lat="44.12913" lon="3.10149">
        <ele>412.20001220703</ele>
        <time>2020-10-02T16:52:16.000Z</time>
      </trkpt>
      <trkpt lat="44.12903" lon="3.10134">
        <ele>411</ele>
        <time>2020-10-02T16:52:18.000Z</time>
      </trkpt>
      <trkpt lat="44.12899" lon="3.10125">
        <ele>410.60000610352</ele>
        <time>2020-10-02T16:52:19.000Z</time>
      </trkpt>
      <trkpt lat="44.12895" lon="3.10106">
        <ele>409.79998779297</ele>
        <time>2020-10-02T16:52:21.000Z</time>
      </trkpt>
      <trkpt lat="44.12896" lon="3.10087">
        <ele>408.60000610352</ele>
        <time>2020-10-02T16:52:23.000Z</time>
      </trkpt>
      <trkpt lat="44.129" lon="3.1008">
        <ele>408</ele>
        <time>2020-10-02T16:52:24.000Z</time>
      </trkpt>
      <trkpt lat="44.12906" lon="3.10074">
        <ele>407.39999389648</ele>
        <time>2020-10-02T16:52:25.000Z</time>
      </trkpt>
      <trkpt lat="44.12926" lon="3.10063">
        <ele>406.79998779297</ele>
        <time>2020-10-02T16:52:27.000Z</time>
      </trkpt>
      <trkpt lat="44.12937" lon="3.10056">
        <ele>406.39999389648</ele>
        <time>2020-10-02T16:52:28.000Z</time>
      </trkpt>
      <trkpt lat="44.12945" lon="3.10048">
        <ele>405.60000610352</ele>
        <time>2020-10-02T16:52:29.000Z</time>
      </trkpt>
      <trkpt lat="44.1295" lon="3.1004">
        <ele>404.60000610352</ele>
        <time>2020-10-02T16:52:30.000Z</time>
      </trkpt>
      <trkpt lat="44.12952" lon="3.10032">
        <ele>402.79998779297</ele>
        <time>2020-10-02T16:52:31.000Z</time>
      </trkpt>
      <trkpt lat="44.12944" lon="3.10022">
        <ele>401.79998779297</ele>
        <time>2020-10-02T16:52:32.000Z</time>
      </trkpt>
      <trkpt lat="44.1293" lon="3.1002">
        <ele>400.60000610352</ele>
        <time>2020-10-02T16:52:33.000Z</time>
      </trkpt>
      <trkpt lat="44.12922" lon="3.10019">
        <ele>399.60000610352</ele>
        <time>2020-10-02T16:52:34.000Z</time>
      </trkpt>
      <trkpt lat="44.12914" lon="3.1002">
        <ele>398.39999389648</ele>
        <time>2020-10-02T16:52:35.000Z</time>
      </trkpt>
      <trkpt lat="44.12907" lon="3.10021">
        <ele>397.39999389648</ele>
        <time>2020-10-02T16:52:36.000Z</time>
      </trkpt>
      <trkpt lat="44.12901" lon="3.10023">
        <ele>396.20001220703</ele>
        <time>2020-10-02T16:52:37.000Z</time>
      </trkpt>
      <trkpt lat="44.12894" lon="3.10026">
        <ele>395.20001220703</ele>
        <time>2020-10-02T16:52:38.000Z</time>
      </trkpt>
      <trkpt lat="44.12889" lon="3.10029">
        <ele>393.60000610352</ele>
        <time>2020-10-02T16:52:39.000Z</time>
      </trkpt>
      <trkpt lat="44.12882" lon="3.10031">
        <ele>392.39999389648</ele>
        <time>2020-10-02T16:52:40.000Z</time>
      </trkpt>
      <trkpt lat="44.12876" lon="3.10032">
        <ele>391.20001220703</ele>
        <time>2020-10-02T16:52:41.000Z</time>
      </trkpt>
      <trkpt lat="44.1287" lon="3.10033">
        <ele>390.20001220703</ele>
        <time>2020-10-02T16:52:42.000Z</time>
      </trkpt>
      <trkpt lat="44.12863" lon="3.10034">
        <ele>389.39999389648</ele>
        <time>2020-10-02T16:52:43.000Z</time>
      </trkpt>
      <trkpt lat="44.12849" lon="3.10035">
        <ele>388</ele>
        <time>2020-10-02T16:52:45.000Z</time>
      </trkpt>
      <trkpt lat="44.12825" lon="3.10038">
        <ele>387.39999389648</ele>
        <time>2020-10-02T16:52:48.000Z</time>
      </trkpt>
      <trkpt lat="44.12818" lon="3.1004">
        <ele>387.20001220703</ele>
        <time>2020-10-02T16:52:49.000Z</time>
      </trkpt>
      <trkpt lat="44.1281" lon="3.10042">
        <ele>387</ele>
        <time>2020-10-02T16:52:50.000Z</time>
      </trkpt>
      <trkpt lat="44.12795" lon="3.10046">
        <ele>386.79998779297</ele>
        <time>2020-10-02T16:52:52.000Z</time>
      </trkpt>
      <trkpt lat="44.12789" lon="3.10047">
        <ele>385.79998779297</ele>
        <time>2020-10-02T16:52:53.000Z</time>
      </trkpt>
      <trkpt lat="44.12783" lon="3.10048">
        <ele>385.20001220703</ele>
        <time>2020-10-02T16:52:54.000Z</time>
      </trkpt>
      <trkpt lat="44.12776" lon="3.10048">
        <ele>384.39999389648</ele>
        <time>2020-10-02T16:52:55.000Z</time>
      </trkpt>
      <trkpt lat="44.1277" lon="3.10047">
        <ele>383.39999389648</ele>
        <time>2020-10-02T16:52:56.000Z</time>
      </trkpt>
      <trkpt lat="44.12764" lon="3.10048">
        <ele>382.79998779297</ele>
        <time>2020-10-02T16:52:57.000Z</time>
      </trkpt>
      <trkpt lat="44.12758" lon="3.10049">
        <ele>381.79998779297</ele>
        <time>2020-10-02T16:52:58.000Z</time>
      </trkpt>
      <trkpt lat="44.12751" lon="3.1005">
        <ele>379.60000610352</ele>
        <time>2020-10-02T16:52:59.000Z</time>
      </trkpt>
      <trkpt lat="44.1274" lon="3.10052">
        <ele>378.20001220703</ele>
        <time>2020-10-02T16:53:01.000Z</time>
      </trkpt>
      <trkpt lat="44.12729" lon="3.10052">
        <ele>376.60000610352</ele>
        <time>2020-10-02T16:53:03.000Z</time>
      </trkpt>
      <trkpt lat="44.12719" lon="3.10052">
        <ele>375.39999389648</ele>
        <time>2020-10-02T16:53:05.000Z</time>
      </trkpt>
      <trkpt lat="44.12707" lon="3.10053">
        <ele>375</ele>
        <time>2020-10-02T16:53:07.000Z</time>
      </trkpt>
      <trkpt lat="44.12684" lon="3.10054">
        <ele>374.39999389648</ele>
        <time>2020-10-02T16:53:11.000Z</time>
      </trkpt>
      <trkpt lat="44.12666" lon="3.10054">
        <ele>374.20001220703</ele>
        <time>2020-10-02T16:53:14.000Z</time>
      </trkpt>
      <trkpt lat="44.12632" lon="3.10057">
        <ele>373.79998779297</ele>
        <time>2020-10-02T16:53:20.000Z</time>
      </trkpt>
      <trkpt lat="44.12599" lon="3.10053">
        <ele>373.39999389648</ele>
        <time>2020-10-02T16:53:26.000Z</time>
      </trkpt>
      <trkpt lat="44.12594" lon="3.10052">
        <ele>373.39999389648</ele>
        <time>2020-10-02T16:53:27.000Z</time>
      </trkpt>
      <trkpt lat="44.12566" lon="3.10044">
        <ele>373</ele>
        <time>2020-10-02T16:53:32.000Z</time>
      </trkpt>
      <trkpt lat="44.12544" lon="3.10036">
        <ele>372.79998779297</ele>
        <time>2020-10-02T16:53:36.000Z</time>
      </trkpt>
      <trkpt lat="44.12509" lon="3.10019">
        <ele>372.60000610352</ele>
        <time>2020-10-02T16:53:42.000Z</time>
      </trkpt>
      <trkpt lat="44.12485" lon="3.10007">
        <ele>372.60000610352</ele>
        <time>2020-10-02T16:53:47.000Z</time>
      </trkpt>
      <trkpt lat="44.12467" lon="3.09992">
        <ele>372.60000610352</ele>
        <time>2020-10-02T16:53:51.000Z</time>
      </trkpt>
      <trkpt lat="44.12463" lon="3.09988">
        <ele>372.60000610352</ele>
        <time>2020-10-02T16:53:52.000Z</time>
      </trkpt>
      <trkpt lat="44.12455" lon="3.09978">
        <ele>372.79998779297</ele>
        <time>2020-10-02T16:53:54.000Z</time>
      </trkpt>
      <trkpt lat="44.12444" lon="3.09961">
        <ele>373</ele>
        <time>2020-10-02T16:53:57.000Z</time>
      </trkpt>
      <trkpt lat="44.12423" lon="3.09921">
        <ele>373</ele>
        <time>2020-10-02T16:54:03.000Z</time>
      </trkpt>
      <trkpt lat="44.12415" lon="3.09901">
        <ele>373.20001220703</ele>
        <time>2020-10-02T16:54:06.000Z</time>
      </trkpt>
      <trkpt lat="44.12411" lon="3.09889">
        <ele>373.20001220703</ele>
        <time>2020-10-02T16:54:08.000Z</time>
      </trkpt>
      <trkpt lat="44.1241" lon="3.09882">
        <ele>373.20001220703</ele>
        <time>2020-10-02T16:54:09.000Z</time>
      </trkpt>
      <trkpt lat="44.12405" lon="3.09854">
        <ele>373</ele>
        <time>2020-10-02T16:54:13.000Z</time>
      </trkpt>
      <trkpt lat="44.12404" lon="3.09847">
        <ele>373</ele>
        <time>2020-10-02T16:54:14.000Z</time>
      </trkpt>
      <trkpt lat="44.12396" lon="3.09824">
        <ele>373</ele>
        <time>2020-10-02T16:54:17.000Z</time>
      </trkpt>
      <trkpt lat="44.12387" lon="3.09803">
        <ele>372.79998779297</ele>
        <time>2020-10-02T16:54:20.000Z</time>
      </trkpt>
      <trkpt lat="44.12371" lon="3.09762">
        <ele>372.60000610352</ele>
        <time>2020-10-02T16:54:26.000Z</time>
      </trkpt>
      <trkpt lat="44.12369" lon="3.09756">
        <ele>372.60000610352</ele>
        <time>2020-10-02T16:54:27.000Z</time>
      </trkpt>
      <trkpt lat="44.12357" lon="3.09729">
        <ele>372.60000610352</ele>
        <time>2020-10-02T16:54:31.000Z</time>
      </trkpt>
      <trkpt lat="44.12353" lon="3.09724">
        <ele>372.39999389648</ele>
        <time>2020-10-02T16:54:32.000Z</time>
      </trkpt>
      <trkpt lat="44.12323" lon="3.09686">
        <ele>372.39999389648</ele>
        <time>2020-10-02T16:54:39.000Z</time>
      </trkpt>
      <trkpt lat="44.12297" lon="3.0965">
        <ele>372.20001220703</ele>
        <time>2020-10-02T16:54:46.000Z</time>
      </trkpt>
      <trkpt lat="44.12284" lon="3.0963">
        <ele>372</ele>
        <time>2020-10-02T16:54:50.000Z</time>
      </trkpt>
      <trkpt lat="44.12276" lon="3.09616">
        <ele>371.79998779297</ele>
        <time>2020-10-02T16:54:53.000Z</time>
      </trkpt>
      <trkpt lat="44.12254" lon="3.09588">
        <ele>371.60000610352</ele>
        <time>2020-10-02T16:54:59.000Z</time>
      </trkpt>
      <trkpt lat="44.12227" lon="3.09559">
        <ele>371.60000610352</ele>
        <time>2020-10-02T16:55:05.000Z</time>
      </trkpt>
      <trkpt lat="44.12221" lon="3.09549">
        <ele>371.39999389648</ele>
        <time>2020-10-02T16:55:07.000Z</time>
      </trkpt>
      <trkpt lat="44.12213" lon="3.09539">
        <ele>371.39999389648</ele>
        <time>2020-10-02T16:55:09.000Z</time>
      </trkpt>
      <trkpt lat="44.12209" lon="3.09534">
        <ele>371.39999389648</ele>
        <time>2020-10-02T16:55:10.000Z</time>
      </trkpt>
      <trkpt lat="44.12206" lon="3.09529">
        <ele>371.20001220703</ele>
        <time>2020-10-02T16:55:11.000Z</time>
      </trkpt>
      <trkpt lat="44.12182" lon="3.09498">
        <ele>370.79998779297</ele>
        <time>2020-10-02T16:55:17.000Z</time>
      </trkpt>
      <trkpt lat="44.12154" lon="3.09457">
        <ele>370.79998779297</ele>
        <time>2020-10-02T16:55:24.000Z</time>
      </trkpt>
      <trkpt lat="44.12151" lon="3.09451">
        <ele>370.79998779297</ele>
        <time>2020-10-02T16:55:25.000Z</time>
      </trkpt>
      <trkpt lat="44.12138" lon="3.09423">
        <ele>370.79998779297</ele>
        <time>2020-10-02T16:55:30.000Z</time>
      </trkpt>
      <trkpt lat="44.12125" lon="3.09405">
        <ele>370.79998779297</ele>
        <time>2020-10-02T16:55:35.000Z</time>
      </trkpt>
      <trkpt lat="44.12117" lon="3.09407">
        <ele>370.79998779297</ele>
        <time>2020-10-02T16:55:39.000Z</time>
      </trkpt>
      <trkpt lat="44.12112" lon="3.09407">
        <ele>370.60000610352</ele>
        <time>2020-10-02T16:55:44.000Z</time>
      </trkpt>
      <trkpt lat="44.12112" lon="3.09407">
        <ele>370.39999389648</ele>
        <time>2020-10-02T16:55:48.000Z</time>
      </trkpt>
    </trkseg>
  </trk>
  <trk>
    <name><![CDATA[MILLAU J1 - Creissels 2]]></name>
    <trkseg>
      <trkpt lat="44.07613" lon="3.13014">
        <ele>760</ele>
        <time>2020-10-02T12:21:27.000Z</time>
      </trkpt>
      <trkpt lat="44.07614" lon="3.1302">
        <ele>759.59997558594</ele>
        <time>2020-10-02T12:21:39.000Z</time>
      </trkpt>
      <trkpt lat="44.07614" lon="3.13023">
        <ele>759.40002441406</ele>
        <time>2020-10-02T12:21:40.000Z</time>
      </trkpt>
      <trkpt lat="44.07611" lon="3.13032">
        <ele>759</ele>
        <time>2020-10-02T12:21:42.000Z</time>
      </trkpt>
      <trkpt lat="44.07608" lon="3.13041">
        <ele>758.20001220703</ele>
        <time>2020-10-02T12:21:44.000Z</time>
      </trkpt>
      <trkpt lat="44.07605" lon="3.13057">
        <ele>757.79998779297</ele>
        <time>2020-10-02T12:21:47.000Z</time>
      </trkpt>
      <trkpt lat="44.076" lon="3.13083">
        <ele>757.59997558594</ele>
        <time>2020-10-02T12:21:51.000Z</time>
      </trkpt>
      <trkpt lat="44.07593" lon="3.1312">
        <ele>757.59997558594</ele>
        <time>2020-10-02T12:21:57.000Z</time>
      </trkpt>
      <trkpt lat="44.07589" lon="3.13152">
        <ele>757.59997558594</ele>
        <time>2020-10-02T12:22:02.000Z</time>
      </trkpt>
      <trkpt lat="44.07581" lon="3.13183">
        <ele>757.59997558594</ele>
        <time>2020-10-02T12:22:07.000Z</time>
      </trkpt>
      <trkpt lat="44.0758" lon="3.13205">
        <ele>758</ele>
        <time>2020-10-02T12:22:12.000Z</time>
      </trkpt>
      <trkpt lat="44.07575" lon="3.13241">
        <ele>758.59997558594</ele>
        <time>2020-10-02T12:22:20.000Z</time>
      </trkpt>
      <trkpt lat="44.07569" lon="3.13267">
        <ele>758.59997558594</ele>
        <time>2020-10-02T12:22:26.000Z</time>
      </trkpt>
      <trkpt lat="44.07556" lon="3.13313">
        <ele>758.59997558594</ele>
        <time>2020-10-02T12:22:36.000Z</time>
      </trkpt>
      <trkpt lat="44.07542" lon="3.13358">
        <ele>758.20001220703</ele>
        <time>2020-10-02T12:22:42.000Z</time>
      </trkpt>
      <trkpt lat="44.07532" lon="3.13389">
        <ele>758</ele>
        <time>2020-10-02T12:22:48.000Z</time>
      </trkpt>
      <trkpt lat="44.07515" lon="3.13426">
        <ele>757.20001220703</ele>
        <time>2020-10-02T12:22:55.000Z</time>
      </trkpt>
      <trkpt lat="44.0751" lon="3.13437">
        <ele>756.79998779297</ele>
        <time>2020-10-02T12:22:57.000Z</time>
      </trkpt>
      <trkpt lat="44.07491" lon="3.13471">
        <ele>756.20001220703</ele>
        <time>2020-10-02T12:23:02.000Z</time>
      </trkpt>
      <trkpt lat="44.07481" lon="3.1349">
        <ele>755.79998779297</ele>
        <time>2020-10-02T12:23:04.000Z</time>
      </trkpt>
      <trkpt lat="44.07479" lon="3.13498">
        <ele>755.20001220703</ele>
        <time>2020-10-02T12:23:05.000Z</time>
      </trkpt>
      <trkpt lat="44.07475" lon="3.13503">
        <ele>754.79998779297</ele>
        <time>2020-10-02T12:23:06.000Z</time>
      </trkpt>
      <trkpt lat="44.07471" lon="3.13509">
        <ele>754.59997558594</ele>
        <time>2020-10-02T12:23:07.000Z</time>
      </trkpt>
      <trkpt lat="44.07458" lon="3.13515">
        <ele>753.79998779297</ele>
        <time>2020-10-02T12:23:10.000Z</time>
      </trkpt>
      <trkpt lat="44.07454" lon="3.13515">
        <ele>753.59997558594</ele>
        <time>2020-10-02T12:23:11.000Z</time>
      </trkpt>
      <trkpt lat="44.07442" lon="3.13526">
        <ele>752</ele>
        <time>2020-10-02T12:23:14.000Z</time>
      </trkpt>
      <trkpt lat="44.07426" lon="3.13547">
        <ele>751</ele>
        <time>2020-10-02T12:23:18.000Z</time>
      </trkpt>
      <trkpt lat="44.07423" lon="3.13551">
        <ele>750.79998779297</ele>
        <time>2020-10-02T12:23:19.000Z</time>
      </trkpt>
      <trkpt lat="44.07402" lon="3.13578">
        <ele>750.79998779297</ele>
        <time>2020-10-02T12:23:25.000Z</time>
      </trkpt>
      <trkpt lat="44.07379" lon="3.13602">
        <ele>751.20001220703</ele>
        <time>2020-10-02T12:23:31.000Z</time>
      </trkpt>
      <trkpt lat="44.07362" lon="3.13625">
        <ele>751.20001220703</ele>
        <time>2020-10-02T12:23:35.000Z</time>
      </trkpt>
      <trkpt lat="44.07345" lon="3.13649">
        <ele>750.79998779297</ele>
        <time>2020-10-02T12:23:39.000Z</time>
      </trkpt>
      <trkpt lat="44.07344" lon="3.13655">
        <ele>749.59997558594</ele>
        <time>2020-10-02T12:23:41.000Z</time>
      </trkpt>
      <trkpt lat="44.07345" lon="3.13657">
        <ele>749.20001220703</ele>
        <time>2020-10-02T12:23:42.000Z</time>
      </trkpt>
      <trkpt lat="44.07347" lon="3.13657">
        <ele>748.59997558594</ele>
        <time>2020-10-02T12:23:43.000Z</time>
      </trkpt>
      <trkpt lat="44.07357" lon="3.1366">
        <ele>747</ele>
        <time>2020-10-02T12:23:45.000Z</time>
      </trkpt>
      <trkpt lat="44.07367" lon="3.13659">
        <ele>745.59997558594</ele>
        <time>2020-10-02T12:23:47.000Z</time>
      </trkpt>
      <trkpt lat="44.07373" lon="3.1366">
        <ele>745</ele>
        <time>2020-10-02T12:23:48.000Z</time>
      </trkpt>
      <trkpt lat="44.07381" lon="3.13659">
        <ele>744.20001220703</ele>
        <time>2020-10-02T12:23:49.000Z</time>
      </trkpt>
      <trkpt lat="44.07393" lon="3.13657">
        <ele>743</ele>
        <time>2020-10-02T12:23:51.000Z</time>
      </trkpt>
      <trkpt lat="44.07417" lon="3.13648">
        <ele>741.40002441406</ele>
        <time>2020-10-02T12:23:54.000Z</time>
      </trkpt>
      <trkpt lat="44.07431" lon="3.1364">
        <ele>739.79998779297</ele>
        <time>2020-10-02T12:23:56.000Z</time>
      </trkpt>
      <trkpt lat="44.0744" lon="3.13637">
        <ele>738.79998779297</ele>
        <time>2020-10-02T12:23:57.000Z</time>
      </trkpt>
      <trkpt lat="44.07447" lon="3.13633">
        <ele>737.40002441406</ele>
        <time>2020-10-02T12:23:58.000Z</time>
      </trkpt>
      <trkpt lat="44.07454" lon="3.1363">
        <ele>736.20001220703</ele>
        <time>2020-10-02T12:23:59.000Z</time>
      </trkpt>
      <trkpt lat="44.0746" lon="3.13629">
        <ele>735.20001220703</ele>
        <time>2020-10-02T12:24:00.000Z</time>
      </trkpt>
      <trkpt lat="44.07468" lon="3.13631">
        <ele>734.20001220703</ele>
        <time>2020-10-02T12:24:01.000Z</time>
      </trkpt>
      <trkpt lat="44.07481" lon="3.13638">
        <ele>732.20001220703</ele>
        <time>2020-10-02T12:24:03.000Z</time>
      </trkpt>
      <trkpt lat="44.07486" lon="3.13645">
        <ele>730.59997558594</ele>
        <time>2020-10-02T12:24:04.000Z</time>
      </trkpt>
      <trkpt lat="44.07488" lon="3.13666">
        <ele>729</ele>
        <time>2020-10-02T12:24:06.000Z</time>
      </trkpt>
      <trkpt lat="44.07493" lon="3.13669">
        <ele>727.59997558594</ele>
        <time>2020-10-02T12:24:07.000Z</time>
      </trkpt>
      <trkpt lat="44.07498" lon="3.1367">
        <ele>726.40002441406</ele>
        <time>2020-10-02T12:24:08.000Z</time>
      </trkpt>
      <trkpt lat="44.07501" lon="3.13671">
        <ele>725.20001220703</ele>
        <time>2020-10-02T12:24:09.000Z</time>
      </trkpt>
      <trkpt lat="44.07508" lon="3.13677">
        <ele>723.40002441406</ele>
        <time>2020-10-02T12:24:11.000Z</time>
      </trkpt>
      <trkpt lat="44.07511" lon="3.13679">
        <ele>722.20001220703</ele>
        <time>2020-10-02T12:24:12.000Z</time>
      </trkpt>
      <trkpt lat="44.07514" lon="3.13681">
        <ele>721.59997558594</ele>
        <time>2020-10-02T12:24:13.000Z</time>
      </trkpt>
      <trkpt lat="44.07518" lon="3.13681">
        <ele>721.20001220703</ele>
        <time>2020-10-02T12:24:14.000Z</time>
      </trkpt>
      <trkpt lat="44.07527" lon="3.13681">
        <ele>719.79998779297</ele>
        <time>2020-10-02T12:24:16.000Z</time>
      </trkpt>
      <trkpt lat="44.07534" lon="3.1368">
        <ele>719</ele>
        <time>2020-10-02T12:24:17.000Z</time>
      </trkpt>
      <trkpt lat="44.0754" lon="3.13678">
        <ele>717.59997558594</ele>
        <time>2020-10-02T12:24:18.000Z</time>
      </trkpt>
      <trkpt lat="44.07557" lon="3.13677">
        <ele>716.79998779297</ele>
        <time>2020-10-02T12:24:21.000Z</time>
      </trkpt>
      <trkpt lat="44.07563" lon="3.13679">
        <ele>716.40002441406</ele>
        <time>2020-10-02T12:24:22.000Z</time>
      </trkpt>
      <trkpt lat="44.07572" lon="3.13686">
        <ele>715.20001220703</ele>
        <time>2020-10-02T12:24:24.000Z</time>
      </trkpt>
      <trkpt lat="44.07582" lon="3.13695">
        <ele>714.40002441406</ele>
        <time>2020-10-02T12:24:26.000Z</time>
      </trkpt>
      <trkpt lat="44.07586" lon="3.13698">
        <ele>714</ele>
        <time>2020-10-02T12:24:27.000Z</time>
      </trkpt>
      <trkpt lat="44.07591" lon="3.137">
        <ele>713.59997558594</ele>
        <time>2020-10-02T12:24:28.000Z</time>
      </trkpt>
      <trkpt lat="44.07596" lon="3.13703">
        <ele>713</ele>
        <time>2020-10-02T12:24:29.000Z</time>
      </trkpt>
      <trkpt lat="44.07606" lon="3.13707">
        <ele>711.40002441406</ele>
        <time>2020-10-02T12:24:31.000Z</time>
      </trkpt>
      <trkpt lat="44.07619" lon="3.13707">
        <ele>709.79998779297</ele>
        <time>2020-10-02T12:24:33.000Z</time>
      </trkpt>
      <trkpt lat="44.07633" lon="3.13709">
        <ele>708.79998779297</ele>
        <time>2020-10-02T12:24:35.000Z</time>
      </trkpt>
      <trkpt lat="44.07639" lon="3.13711">
        <ele>708.40002441406</ele>
        <time>2020-10-02T12:24:36.000Z</time>
      </trkpt>
      <trkpt lat="44.0765" lon="3.13717">
        <ele>707.20001220703</ele>
        <time>2020-10-02T12:24:38.000Z</time>
      </trkpt>
      <trkpt lat="44.0766" lon="3.13726">
        <ele>706.59997558594</ele>
        <time>2020-10-02T12:24:40.000Z</time>
      </trkpt>
      <trkpt lat="44.07669" lon="3.1373">
        <ele>706</ele>
        <time>2020-10-02T12:24:41.000Z</time>
      </trkpt>
      <trkpt lat="44.07675" lon="3.13733">
        <ele>705.59997558594</ele>
        <time>2020-10-02T12:24:42.000Z</time>
      </trkpt>
      <trkpt lat="44.07682" lon="3.13735">
        <ele>705</ele>
        <time>2020-10-02T12:24:43.000Z</time>
      </trkpt>
      <trkpt lat="44.0769" lon="3.13736">
        <ele>703.79998779297</ele>
        <time>2020-10-02T12:24:44.000Z</time>
      </trkpt>
      <trkpt lat="44.07708" lon="3.13735">
        <ele>701.40002441406</ele>
        <time>2020-10-02T12:24:46.000Z</time>
      </trkpt>
      <trkpt lat="44.07716" lon="3.13734">
        <ele>701</ele>
        <time>2020-10-02T12:24:47.000Z</time>
      </trkpt>
      <trkpt lat="44.07726" lon="3.13736">
        <ele>700.20001220703</ele>
        <time>2020-10-02T12:24:49.000Z</time>
      </trkpt>
      <trkpt lat="44.07738" lon="3.13746">
        <ele>699</ele>
        <time>2020-10-02T12:24:52.000Z</time>
      </trkpt>
      <trkpt lat="44.07741" lon="3.13749">
        <ele>698.40002441406</ele>
        <time>2020-10-02T12:24:53.000Z</time>
      </trkpt>
      <trkpt lat="44.07745" lon="3.13753">
        <ele>697.59997558594</ele>
        <time>2020-10-02T12:24:54.000Z</time>
      </trkpt>
      <trkpt lat="44.07749" lon="3.13756">
        <ele>696.40002441406</ele>
        <time>2020-10-02T12:24:55.000Z</time>
      </trkpt>
      <trkpt lat="44.07753" lon="3.1376">
        <ele>695.40002441406</ele>
        <time>2020-10-02T12:24:56.000Z</time>
      </trkpt>
      <trkpt lat="44.07757" lon="3.13762">
        <ele>694.59997558594</ele>
        <time>2020-10-02T12:24:57.000Z</time>
      </trkpt>
      <trkpt lat="44.07763" lon="3.13762">
        <ele>694.20001220703</ele>
        <time>2020-10-02T12:24:58.000Z</time>
      </trkpt>
      <trkpt lat="44.07779" lon="3.13757">
        <ele>693.59997558594</ele>
        <time>2020-10-02T12:25:01.000Z</time>
      </trkpt>
      <trkpt lat="44.07794" lon="3.13755">
        <ele>693.40002441406</ele>
        <time>2020-10-02T12:25:05.000Z</time>
      </trkpt>
      <trkpt lat="44.07803" lon="3.13758">
        <ele>693</ele>
        <time>2020-10-02T12:25:07.000Z</time>
      </trkpt>
      <trkpt lat="44.07813" lon="3.13759">
        <ele>692.20001220703</ele>
        <time>2020-10-02T12:25:09.000Z</time>
      </trkpt>
      <trkpt lat="44.07819" lon="3.13759">
        <ele>692</ele>
        <time>2020-10-02T12:25:10.000Z</time>
      </trkpt>
      <trkpt lat="44.07823" lon="3.13757">
        <ele>691.59997558594</ele>
        <time>2020-10-02T12:25:11.000Z</time>
      </trkpt>
      <trkpt lat="44.07836" lon="3.13747">
        <ele>690.59997558594</ele>
        <time>2020-10-02T12:25:14.000Z</time>
      </trkpt>
      <trkpt lat="44.0784" lon="3.13742">
        <ele>690.20001220703</ele>
        <time>2020-10-02T12:25:15.000Z</time>
      </trkpt>
      <trkpt lat="44.07853" lon="3.13728">
        <ele>689.59997558594</ele>
        <time>2020-10-02T12:25:18.000Z</time>
      </trkpt>
      <trkpt lat="44.0787" lon="3.1371">
        <ele>688.79998779297</ele>
        <time>2020-10-02T12:25:21.000Z</time>
      </trkpt>
      <trkpt lat="44.07876" lon="3.13705">
        <ele>688.40002441406</ele>
        <time>2020-10-02T12:25:22.000Z</time>
      </trkpt>
      <trkpt lat="44.07886" lon="3.13692">
        <ele>687</ele>
        <time>2020-10-02T12:25:24.000Z</time>
      </trkpt>
      <trkpt lat="44.07894" lon="3.1368">
        <ele>685.59997558594</ele>
        <time>2020-10-02T12:25:26.000Z</time>
      </trkpt>
      <trkpt lat="44.07902" lon="3.13675">
        <ele>684</ele>
        <time>2020-10-02T12:25:28.000Z</time>
      </trkpt>
      <trkpt lat="44.0791" lon="3.13672">
        <ele>682.79998779297</ele>
        <time>2020-10-02T12:25:30.000Z</time>
      </trkpt>
      <trkpt lat="44.07925" lon="3.1367">
        <ele>681.59997558594</ele>
        <time>2020-10-02T12:25:33.000Z</time>
      </trkpt>
      <trkpt lat="44.07934" lon="3.13664">
        <ele>681.20001220703</ele>
        <time>2020-10-02T12:25:35.000Z</time>
      </trkpt>
      <trkpt lat="44.07945" lon="3.13657">
        <ele>680.59997558594</ele>
        <time>2020-10-02T12:25:39.000Z</time>
      </trkpt>
      <trkpt lat="44.07952" lon="3.13657">
        <ele>680.40002441406</ele>
        <time>2020-10-02T12:25:47.000Z</time>
      </trkpt>
      <trkpt lat="44.07958" lon="3.1366">
        <ele>680.20001220703</ele>
        <time>2020-10-02T12:25:54.000Z</time>
      </trkpt>
      <trkpt lat="44.07959" lon="3.13659">
        <ele>680.20001220703</ele>
        <time>2020-10-02T12:26:00.000Z</time>
      </trkpt>
      <trkpt lat="44.07961" lon="3.13656">
        <ele>680.40002441406</ele>
        <time>2020-10-02T12:26:05.000Z</time>
      </trkpt>
      <trkpt lat="44.07964" lon="3.13658">
        <ele>680.20001220703</ele>
        <time>2020-10-02T12:26:07.000Z</time>
      </trkpt>
      <trkpt lat="44.07966" lon="3.13663">
        <ele>680.20001220703</ele>
        <time>2020-10-02T12:26:11.000Z</time>
      </trkpt>
      <trkpt lat="44.07966" lon="3.13666">
        <ele>680.40002441406</ele>
        <time>2020-10-02T12:26:18.000Z</time>
      </trkpt>
      <trkpt lat="44.07966" lon="3.13666">
        <ele>680.20001220703</ele>
        <time>2020-10-02T12:26:30.000Z</time>
      </trkpt>
      <trkpt lat="44.07967" lon="3.13665">
        <ele>680.40002441406</ele>
        <time>2020-10-02T12:26:47.000Z</time>
      </trkpt>
      <trkpt lat="44.07969" lon="3.13665">
        <ele>680.59997558594</ele>
        <time>2020-10-02T12:27:06.000Z</time>
      </trkpt>
      <trkpt lat="44.0797" lon="3.13667">
        <ele>680.59997558594</ele>
        <time>2020-10-02T12:27:24.000Z</time>
      </trkpt>
      <trkpt lat="44.07968" lon="3.1367">
        <ele>680.79998779297</ele>
        <time>2020-10-02T12:27:37.000Z</time>
      </trkpt>
      <trkpt lat="44.07971" lon="3.13674">
        <ele>680.59997558594</ele>
        <time>2020-10-02T12:27:46.000Z</time>
      </trkpt>
      <trkpt lat="44.07973" lon="3.13678">
        <ele>680.59997558594</ele>
        <time>2020-10-02T12:27:48.000Z</time>
      </trkpt>
      <trkpt lat="44.07984" lon="3.13688">
        <ele>680.59997558594</ele>
        <time>2020-10-02T12:27:52.000Z</time>
      </trkpt>
      <trkpt lat="44.08006" lon="3.13703">
        <ele>680.59997558594</ele>
        <time>2020-10-02T12:27:58.000Z</time>
      </trkpt>
      <trkpt lat="44.08024" lon="3.1371">
        <ele>681</ele>
        <time>2020-10-02T12:28:03.000Z</time>
      </trkpt>
      <trkpt lat="44.08028" lon="3.13711">
        <ele>681.20001220703</ele>
        <time>2020-10-02T12:28:04.000Z</time>
      </trkpt>
      <trkpt lat="44.08039" lon="3.13714">
        <ele>682.40002441406</ele>
        <time>2020-10-02T12:28:07.000Z</time>
      </trkpt>
      <trkpt lat="44.08045" lon="3.13717">
        <ele>682.79998779297</ele>
        <time>2020-10-02T12:28:09.000Z</time>
      </trkpt>
      <trkpt lat="44.08064" lon="3.13728">
        <ele>683.20001220703</ele>
        <time>2020-10-02T12:28:14.000Z</time>
      </trkpt>
      <trkpt lat="44.08073" lon="3.13726">
        <ele>683.40002441406</ele>
        <time>2020-10-02T12:28:16.000Z</time>
      </trkpt>
      <trkpt lat="44.08081" lon="3.1372">
        <ele>683.59997558594</ele>
        <time>2020-10-02T12:28:18.000Z</time>
      </trkpt>
      <trkpt lat="44.08083" lon="3.13715">
        <ele>683.59997558594</ele>
        <time>2020-10-02T12:28:19.000Z</time>
      </trkpt>
      <trkpt lat="44.08084" lon="3.13703">
        <ele>683.79998779297</ele>
        <time>2020-10-02T12:28:21.000Z</time>
      </trkpt>
      <trkpt lat="44.08094" lon="3.13667">
        <ele>684</ele>
        <time>2020-10-02T12:28:27.000Z</time>
      </trkpt>
      <trkpt lat="44.08103" lon="3.13635">
        <ele>684</ele>
        <time>2020-10-02T12:28:33.000Z</time>
      </trkpt>
      <trkpt lat="44.0812" lon="3.13605">
        <ele>684</ele>
        <time>2020-10-02T12:28:39.000Z</time>
      </trkpt>
      <trkpt lat="44.08141" lon="3.13566">
        <ele>683.79998779297</ele>
        <time>2020-10-02T12:28:46.000Z</time>
      </trkpt>
      <trkpt lat="44.08163" lon="3.13531">
        <ele>683</ele>
        <time>2020-10-02T12:28:52.000Z</time>
      </trkpt>
      <trkpt lat="44.08165" lon="3.13525">
        <ele>682.59997558594</ele>
        <time>2020-10-02T12:28:53.000Z</time>
      </trkpt>
      <trkpt lat="44.08169" lon="3.13513">
        <ele>682</ele>
        <time>2020-10-02T12:28:55.000Z</time>
      </trkpt>
      <trkpt lat="44.08175" lon="3.13496">
        <ele>681.59997558594</ele>
        <time>2020-10-02T12:28:58.000Z</time>
      </trkpt>
      <trkpt lat="44.08181" lon="3.1348">
        <ele>681.59997558594</ele>
        <time>2020-10-02T12:29:01.000Z</time>
      </trkpt>
      <trkpt lat="44.08185" lon="3.13462">
        <ele>681.40002441406</ele>
        <time>2020-10-02T12:29:04.000Z</time>
      </trkpt>
      <trkpt lat="44.08189" lon="3.13417">
        <ele>681.40002441406</ele>
        <time>2020-10-02T12:29:10.000Z</time>
      </trkpt>
      <trkpt lat="44.08191" lon="3.1341">
        <ele>681.40002441406</ele>
        <time>2020-10-02T12:29:11.000Z</time>
      </trkpt>
      <trkpt lat="44.08199" lon="3.13397">
        <ele>680.79998779297</ele>
        <time>2020-10-02T12:29:14.000Z</time>
      </trkpt>
      <trkpt lat="44.08202" lon="3.13393">
        <ele>680.59997558594</ele>
        <time>2020-10-02T12:29:15.000Z</time>
      </trkpt>
      <trkpt lat="44.08205" lon="3.1339">
        <ele>680.40002441406</ele>
        <time>2020-10-02T12:29:16.000Z</time>
      </trkpt>
      <trkpt lat="44.08214" lon="3.13381">
        <ele>680</ele>
        <time>2020-10-02T12:29:21.000Z</time>
      </trkpt>
      <trkpt lat="44.0822" lon="3.13361">
        <ele>680</ele>
        <time>2020-10-02T12:29:29.000Z</time>
      </trkpt>
      <trkpt lat="44.08224" lon="3.13342">
        <ele>681.59997558594</ele>
        <time>2020-10-02T12:29:35.000Z</time>
      </trkpt>
      <trkpt lat="44.08224" lon="3.13337">
        <ele>681.79998779297</ele>
        <time>2020-10-02T12:29:36.000Z</time>
      </trkpt>
      <trkpt lat="44.08233" lon="3.13317">
        <ele>682.40002441406</ele>
        <time>2020-10-02T12:29:41.000Z</time>
      </trkpt>
      <trkpt lat="44.08245" lon="3.13289">
        <ele>682.79998779297</ele>
        <time>2020-10-02T12:29:48.000Z</time>
      </trkpt>
      <trkpt lat="44.08256" lon="3.13259">
        <ele>683</ele>
        <time>2020-10-02T12:29:55.000Z</time>
      </trkpt>
      <trkpt lat="44.08272" lon="3.13236">
        <ele>683.20001220703</ele>
        <time>2020-10-02T12:30:02.000Z</time>
      </trkpt>
      <trkpt lat="44.08292" lon="3.13217">
        <ele>683.59997558594</ele>
        <time>2020-10-02T12:30:08.000Z</time>
      </trkpt>
      <trkpt lat="44.08306" lon="3.1321">
        <ele>683.79998779297</ele>
        <time>2020-10-02T12:30:13.000Z</time>
      </trkpt>
      <trkpt lat="44.08325" lon="3.13218">
        <ele>684.79998779297</ele>
        <time>2020-10-02T12:30:19.000Z</time>
      </trkpt>
      <trkpt lat="44.08332" lon="3.13221">
        <ele>685</ele>
        <time>2020-10-02T12:30:21.000Z</time>
      </trkpt>
      <trkpt lat="44.08356" lon="3.1323">
        <ele>685.40002441406</ele>
        <time>2020-10-02T12:30:29.000Z</time>
      </trkpt>
      <trkpt lat="44.08376" lon="3.13229">
        <ele>686.20001220703</ele>
        <time>2020-10-02T12:30:35.000Z</time>
      </trkpt>
      <trkpt lat="44.08383" lon="3.13227">
        <ele>686.79998779297</ele>
        <time>2020-10-02T12:30:37.000Z</time>
      </trkpt>
      <trkpt lat="44.08394" lon="3.13224">
        <ele>687.40002441406</ele>
        <time>2020-10-02T12:30:40.000Z</time>
      </trkpt>
      <trkpt lat="44.08406" lon="3.13218">
        <ele>688</ele>
        <time>2020-10-02T12:30:43.000Z</time>
      </trkpt>
      <trkpt lat="44.08419" lon="3.1321">
        <ele>688.59997558594</ele>
        <time>2020-10-02T12:30:47.000Z</time>
      </trkpt>
      <trkpt lat="44.08432" lon="3.13206">
        <ele>688.79998779297</ele>
        <time>2020-10-02T12:30:51.000Z</time>
      </trkpt>
      <trkpt lat="44.08445" lon="3.13203">
        <ele>689.59997558594</ele>
        <time>2020-10-02T12:30:55.000Z</time>
      </trkpt>
      <trkpt lat="44.08452" lon="3.132">
        <ele>690.40002441406</ele>
        <time>2020-10-02T12:30:57.000Z</time>
      </trkpt>
      <trkpt lat="44.08456" lon="3.13199">
        <ele>691</ele>
        <time>2020-10-02T12:30:58.000Z</time>
      </trkpt>
      <trkpt lat="44.08474" lon="3.13191">
        <ele>691</ele>
        <time>2020-10-02T12:31:03.000Z</time>
      </trkpt>
      <trkpt lat="44.08501" lon="3.13188">
        <ele>691.20001220703</ele>
        <time>2020-10-02T12:31:10.000Z</time>
      </trkpt>
      <trkpt lat="44.08509" lon="3.132">
        <ele>691</ele>
        <time>2020-10-02T12:31:14.000Z</time>
      </trkpt>
      <trkpt lat="44.08521" lon="3.13222">
        <ele>691.20001220703</ele>
        <time>2020-10-02T12:31:21.000Z</time>
      </trkpt>
      <trkpt lat="44.0854" lon="3.13231">
        <ele>691.40002441406</ele>
        <time>2020-10-02T12:31:28.000Z</time>
      </trkpt>
      <trkpt lat="44.08561" lon="3.13229">
        <ele>692.40002441406</ele>
        <time>2020-10-02T12:31:34.000Z</time>
      </trkpt>
      <trkpt lat="44.08567" lon="3.13228">
        <ele>692.79998779297</ele>
        <time>2020-10-02T12:31:36.000Z</time>
      </trkpt>
      <trkpt lat="44.08578" lon="3.13227">
        <ele>693.40002441406</ele>
        <time>2020-10-02T12:31:39.000Z</time>
      </trkpt>
      <trkpt lat="44.08595" lon="3.13229">
        <ele>694.20001220703</ele>
        <time>2020-10-02T12:31:45.000Z</time>
      </trkpt>
      <trkpt lat="44.08598" lon="3.13229">
        <ele>694.40002441406</ele>
        <time>2020-10-02T12:31:46.000Z</time>
      </trkpt>
      <trkpt lat="44.0861" lon="3.13224">
        <ele>695.20001220703</ele>
        <time>2020-10-02T12:31:50.000Z</time>
      </trkpt>
      <trkpt lat="44.08617" lon="3.13226">
        <ele>695.40002441406</ele>
        <time>2020-10-02T12:31:52.000Z</time>
      </trkpt>
      <trkpt lat="44.0863" lon="3.13226">
        <ele>696.40002441406</ele>
        <time>2020-10-02T12:31:56.000Z</time>
      </trkpt>
      <trkpt lat="44.08639" lon="3.13224">
        <ele>696.79998779297</ele>
        <time>2020-10-02T12:31:59.000Z</time>
      </trkpt>
      <trkpt lat="44.0865" lon="3.13237">
        <ele>697.40002441406</ele>
        <time>2020-10-02T12:32:03.000Z</time>
      </trkpt>
      <trkpt lat="44.08658" lon="3.13265">
        <ele>697.59997558594</ele>
        <time>2020-10-02T12:32:09.000Z</time>
      </trkpt>
      <trkpt lat="44.08657" lon="3.1329">
        <ele>697.40002441406</ele>
        <time>2020-10-02T12:32:14.000Z</time>
      </trkpt>
      <trkpt lat="44.08653" lon="3.13313">
        <ele>697.59997558594</ele>
        <time>2020-10-02T12:32:20.000Z</time>
      </trkpt>
      <trkpt lat="44.08644" lon="3.13347">
        <ele>697.40002441406</ele>
        <time>2020-10-02T12:32:29.000Z</time>
      </trkpt>
      <trkpt lat="44.08633" lon="3.13369">
        <ele>697.40002441406</ele>
        <time>2020-10-02T12:32:35.000Z</time>
      </trkpt>
      <trkpt lat="44.08622" lon="3.13398">
        <ele>697.79998779297</ele>
        <time>2020-10-02T12:32:41.000Z</time>
      </trkpt>
      <trkpt lat="44.0863" lon="3.13416">
        <ele>698</ele>
        <time>2020-10-02T12:32:46.000Z</time>
      </trkpt>
      <trkpt lat="44.08638" lon="3.13417">
        <ele>698.20001220703</ele>
        <time>2020-10-02T12:32:47.000Z</time>
      </trkpt>
      <trkpt lat="44.08644" lon="3.13417">
        <ele>698.20001220703</ele>
        <time>2020-10-02T12:32:48.000Z</time>
      </trkpt>
      <trkpt lat="44.08657" lon="3.13417">
        <ele>698.40002441406</ele>
        <time>2020-10-02T12:32:50.000Z</time>
      </trkpt>
      <trkpt lat="44.08685" lon="3.13421">
        <ele>699.20001220703</ele>
        <time>2020-10-02T12:32:56.000Z</time>
      </trkpt>
      <trkpt lat="44.08714" lon="3.1343">
        <ele>699.59997558594</ele>
        <time>2020-10-02T12:33:04.000Z</time>
      </trkpt>
      <trkpt lat="44.08727" lon="3.13436">
        <ele>700.40002441406</ele>
        <time>2020-10-02T12:33:11.000Z</time>
      </trkpt>
      <trkpt lat="44.08729" lon="3.13435">
        <ele>700.59997558594</ele>
        <time>2020-10-02T12:33:13.000Z</time>
      </trkpt>
      <trkpt lat="44.08734" lon="3.13434">
        <ele>701</ele>
        <time>2020-10-02T12:33:17.000Z</time>
      </trkpt>
      <trkpt lat="44.08739" lon="3.13433">
        <ele>701.40002441406</ele>
        <time>2020-10-02T12:33:19.000Z</time>
      </trkpt>
      <trkpt lat="44.08742" lon="3.13433">
        <ele>702</ele>
        <time>2020-10-02T12:33:21.000Z</time>
      </trkpt>
      <trkpt lat="44.08743" lon="3.13435">
        <ele>702.40002441406</ele>
        <time>2020-10-02T12:33:23.000Z</time>
      </trkpt>
      <trkpt lat="44.08745" lon="3.13438">
        <ele>702.59997558594</ele>
        <time>2020-10-02T12:33:24.000Z</time>
      </trkpt>
      <trkpt lat="44.08753" lon="3.13445">
        <ele>703.79998779297</ele>
        <time>2020-10-02T12:33:29.000Z</time>
      </trkpt>
      <trkpt lat="44.08755" lon="3.13445">
        <ele>704</ele>
        <time>2020-10-02T12:33:30.000Z</time>
      </trkpt>
      <trkpt lat="44.08771" lon="3.13453">
        <ele>705.20001220703</ele>
        <time>2020-10-02T12:33:36.000Z</time>
      </trkpt>
      <trkpt lat="44.08777" lon="3.13457">
        <ele>706</ele>
        <time>2020-10-02T12:33:39.000Z</time>
      </trkpt>
      <trkpt lat="44.08785" lon="3.13459">
        <ele>706.40002441406</ele>
        <time>2020-10-02T12:33:42.000Z</time>
      </trkpt>
      <trkpt lat="44.08789" lon="3.1346">
        <ele>706.40002441406</ele>
        <time>2020-10-02T12:33:43.000Z</time>
      </trkpt>
      <trkpt lat="44.08808" lon="3.13462">
        <ele>706.59997558594</ele>
        <time>2020-10-02T12:33:48.000Z</time>
      </trkpt>
      <trkpt lat="44.0882" lon="3.13459">
        <ele>707.59997558594</ele>
        <time>2020-10-02T12:33:51.000Z</time>
      </trkpt>
      <trkpt lat="44.08832" lon="3.13454">
        <ele>708.20001220703</ele>
        <time>2020-10-02T12:33:55.000Z</time>
      </trkpt>
      <trkpt lat="44.08839" lon="3.13453">
        <ele>708.59997558594</ele>
        <time>2020-10-02T12:33:58.000Z</time>
      </trkpt>
      <trkpt lat="44.08841" lon="3.1345">
        <ele>708.79998779297</ele>
        <time>2020-10-02T12:33:59.000Z</time>
      </trkpt>
      <trkpt lat="44.08845" lon="3.1345">
        <ele>709.40002441406</ele>
        <time>2020-10-02T12:34:01.000Z</time>
      </trkpt>
      <trkpt lat="44.08849" lon="3.13452">
        <ele>709.79998779297</ele>
        <time>2020-10-02T12:34:03.000Z</time>
      </trkpt>
      <trkpt lat="44.08851" lon="3.13454">
        <ele>710</ele>
        <time>2020-10-02T12:34:04.000Z</time>
      </trkpt>
      <trkpt lat="44.08853" lon="3.13458">
        <ele>710.40002441406</ele>
        <time>2020-10-02T12:34:06.000Z</time>
      </trkpt>
      <trkpt lat="44.08854" lon="3.13463">
        <ele>710.79998779297</ele>
        <time>2020-10-02T12:34:08.000Z</time>
      </trkpt>
      <trkpt lat="44.08856" lon="3.13479">
        <ele>711.79998779297</ele>
        <time>2020-10-02T12:34:14.000Z</time>
      </trkpt>
      <trkpt lat="44.08857" lon="3.13484">
        <ele>712.20001220703</ele>
        <time>2020-10-02T12:34:16.000Z</time>
      </trkpt>
      <trkpt lat="44.08858" lon="3.13489">
        <ele>712.40002441406</ele>
        <time>2020-10-02T12:34:19.000Z</time>
      </trkpt>
      <trkpt lat="44.08872" lon="3.13497">
        <ele>712.79998779297</ele>
        <time>2020-10-02T12:34:27.000Z</time>
      </trkpt>
      <trkpt lat="44.08878" lon="3.135">
        <ele>712.79998779297</ele>
        <time>2020-10-02T12:34:37.000Z</time>
      </trkpt>
      <trkpt lat="44.08876" lon="3.13501">
        <ele>712.79998779297</ele>
        <time>2020-10-02T12:34:44.000Z</time>
      </trkpt>
      <trkpt lat="44.08873" lon="3.13501">
        <ele>712.79998779297</ele>
        <time>2020-10-02T12:34:52.000Z</time>
      </trkpt>
      <trkpt lat="44.08872" lon="3.13501">
        <ele>712.79998779297</ele>
        <time>2020-10-02T12:35:00.000Z</time>
      </trkpt>
      <trkpt lat="44.08873" lon="3.135">
        <ele>712.79998779297</ele>
        <time>2020-10-02T12:35:12.000Z</time>
      </trkpt>
      <trkpt lat="44.08874" lon="3.13498">
        <ele>712.79998779297</ele>
        <time>2020-10-02T12:35:24.000Z</time>
      </trkpt>
      <trkpt lat="44.08875" lon="3.13499">
        <ele>713</ele>
        <time>2020-10-02T12:35:40.000Z</time>
      </trkpt>
      <trkpt lat="44.08874" lon="3.13499">
        <ele>713.20001220703</ele>
        <time>2020-10-02T12:35:52.000Z</time>
      </trkpt>
      <trkpt lat="44.08874" lon="3.13503">
        <ele>713.20001220703</ele>
        <time>2020-10-02T12:36:06.000Z</time>
      </trkpt>
      <trkpt lat="44.08876" lon="3.13512">
        <ele>713.40002441406</ele>
        <time>2020-10-02T12:36:15.000Z</time>
      </trkpt>
      <trkpt lat="44.0888" lon="3.13513">
        <ele>713.40002441406</ele>
        <time>2020-10-02T12:36:18.000Z</time>
      </trkpt>
      <trkpt lat="44.08887" lon="3.13511">
        <ele>713.40002441406</ele>
        <time>2020-10-02T12:36:20.000Z</time>
      </trkpt>
      <trkpt lat="44.08897" lon="3.13506">
        <ele>713.40002441406</ele>
        <time>2020-10-02T12:36:22.000Z</time>
      </trkpt>
      <trkpt lat="44.08903" lon="3.13502">
        <ele>713.40002441406</ele>
        <time>2020-10-02T12:36:23.000Z</time>
      </trkpt>
      <trkpt lat="44.0892" lon="3.13479">
        <ele>710.79998779297</ele>
        <time>2020-10-02T12:36:27.000Z</time>
      </trkpt>
      <trkpt lat="44.08924" lon="3.13468">
        <ele>709.20001220703</ele>
        <time>2020-10-02T12:36:29.000Z</time>
      </trkpt>
      <trkpt lat="44.08928" lon="3.13458">
        <ele>707.79998779297</ele>
        <time>2020-10-02T12:36:31.000Z</time>
      </trkpt>
      <trkpt lat="44.08933" lon="3.13451">
        <ele>706.59997558594</ele>
        <time>2020-10-02T12:36:33.000Z</time>
      </trkpt>
      <trkpt lat="44.08937" lon="3.13449">
        <ele>705.59997558594</ele>
        <time>2020-10-02T12:36:34.000Z</time>
      </trkpt>
      <trkpt lat="44.0894" lon="3.13447">
        <ele>704.59997558594</ele>
        <time>2020-10-02T12:36:35.000Z</time>
      </trkpt>
      <trkpt lat="44.08945" lon="3.13445">
        <ele>703.79998779297</ele>
        <time>2020-10-02T12:36:36.000Z</time>
      </trkpt>
      <trkpt lat="44.08949" lon="3.13443">
        <ele>702.79998779297</ele>
        <time>2020-10-02T12:36:37.000Z</time>
      </trkpt>
      <trkpt lat="44.08956" lon="3.13438">
        <ele>701.20001220703</ele>
        <time>2020-10-02T12:36:39.000Z</time>
      </trkpt>
      <trkpt lat="44.08961" lon="3.13436">
        <ele>700.20001220703</ele>
        <time>2020-10-02T12:36:40.000Z</time>
      </trkpt>
      <trkpt lat="44.08965" lon="3.13434">
        <ele>698</ele>
        <time>2020-10-02T12:36:41.000Z</time>
      </trkpt>
      <trkpt lat="44.08973" lon="3.13427">
        <ele>695.59997558594</ele>
        <time>2020-10-02T12:36:43.000Z</time>
      </trkpt>
      <trkpt lat="44.08975" lon="3.13423">
        <ele>694.40002441406</ele>
        <time>2020-10-02T12:36:44.000Z</time>
      </trkpt>
      <trkpt lat="44.08977" lon="3.13419">
        <ele>693.40002441406</ele>
        <time>2020-10-02T12:36:45.000Z</time>
      </trkpt>
      <trkpt lat="44.0898" lon="3.13414">
        <ele>692.20001220703</ele>
        <time>2020-10-02T12:36:46.000Z</time>
      </trkpt>
      <trkpt lat="44.08982" lon="3.13409">
        <ele>690.59997558594</ele>
        <time>2020-10-02T12:36:47.000Z</time>
      </trkpt>
      <trkpt lat="44.08985" lon="3.13404">
        <ele>689.20001220703</ele>
        <time>2020-10-02T12:36:48.000Z</time>
      </trkpt>
      <trkpt lat="44.08988" lon="3.13398">
        <ele>687.59997558594</ele>
        <time>2020-10-02T12:36:49.000Z</time>
      </trkpt>
      <trkpt lat="44.08988" lon="3.13394">
        <ele>686.40002441406</ele>
        <time>2020-10-02T12:36:50.000Z</time>
      </trkpt>
      <trkpt lat="44.08989" lon="3.1339">
        <ele>685</ele>
        <time>2020-10-02T12:36:51.000Z</time>
      </trkpt>
      <trkpt lat="44.08988" lon="3.13387">
        <ele>683.40002441406</ele>
        <time>2020-10-02T12:36:52.000Z</time>
      </trkpt>
      <trkpt lat="44.08987" lon="3.13385">
        <ele>681.79998779297</ele>
        <time>2020-10-02T12:36:53.000Z</time>
      </trkpt>
      <trkpt lat="44.08984" lon="3.13383">
        <ele>680.59997558594</ele>
        <time>2020-10-02T12:36:54.000Z</time>
      </trkpt>
      <trkpt lat="44.08981" lon="3.13381">
        <ele>679.20001220703</ele>
        <time>2020-10-02T12:36:55.000Z</time>
      </trkpt>
      <trkpt lat="44.08978" lon="3.13379">
        <ele>677.59997558594</ele>
        <time>2020-10-02T12:36:56.000Z</time>
      </trkpt>
      <trkpt lat="44.08974" lon="3.13378">
        <ele>675.59997558594</ele>
        <time>2020-10-02T12:36:57.000Z</time>
      </trkpt>
      <trkpt lat="44.0897" lon="3.13375">
        <ele>674.20001220703</ele>
        <time>2020-10-02T12:36:58.000Z</time>
      </trkpt>
      <trkpt lat="44.08966" lon="3.13372">
        <ele>673.20001220703</ele>
        <time>2020-10-02T12:36:59.000Z</time>
      </trkpt>
      <trkpt lat="44.08962" lon="3.13371">
        <ele>672</ele>
        <time>2020-10-02T12:37:00.000Z</time>
      </trkpt>
      <trkpt lat="44.08959" lon="3.13369">
        <ele>671</ele>
        <time>2020-10-02T12:37:01.000Z</time>
      </trkpt>
      <trkpt lat="44.08955" lon="3.13367">
        <ele>669</ele>
        <time>2020-10-02T12:37:03.000Z</time>
      </trkpt>
      <trkpt lat="44.08952" lon="3.13367">
        <ele>667.79998779297</ele>
        <time>2020-10-02T12:37:04.000Z</time>
      </trkpt>
      <trkpt lat="44.08945" lon="3.13368">
        <ele>666</ele>
        <time>2020-10-02T12:37:06.000Z</time>
      </trkpt>
      <trkpt lat="44.08936" lon="3.13368">
        <ele>664</ele>
        <time>2020-10-02T12:37:08.000Z</time>
      </trkpt>
      <trkpt lat="44.08931" lon="3.13368">
        <ele>662</ele>
        <time>2020-10-02T12:37:09.000Z</time>
      </trkpt>
      <trkpt lat="44.08921" lon="3.13368">
        <ele>659.79998779297</ele>
        <time>2020-10-02T12:37:11.000Z</time>
      </trkpt>
      <trkpt lat="44.08909" lon="3.13365">
        <ele>658.20001220703</ele>
        <time>2020-10-02T12:37:13.000Z</time>
      </trkpt>
      <trkpt lat="44.08904" lon="3.13362">
        <ele>657.40002441406</ele>
        <time>2020-10-02T12:37:14.000Z</time>
      </trkpt>
      <trkpt lat="44.08898" lon="3.13359">
        <ele>656.40002441406</ele>
        <time>2020-10-02T12:37:15.000Z</time>
      </trkpt>
      <trkpt lat="44.08893" lon="3.13357">
        <ele>654.79998779297</ele>
        <time>2020-10-02T12:37:17.000Z</time>
      </trkpt>
      <trkpt lat="44.08887" lon="3.13357">
        <ele>652.40002441406</ele>
        <time>2020-10-02T12:37:19.000Z</time>
      </trkpt>
      <trkpt lat="44.08881" lon="3.13354">
        <ele>650.59997558594</ele>
        <time>2020-10-02T12:37:21.000Z</time>
      </trkpt>
      <trkpt lat="44.0887" lon="3.13352">
        <ele>648.59997558594</ele>
        <time>2020-10-02T12:37:23.000Z</time>
      </trkpt>
      <trkpt lat="44.0886" lon="3.13349">
        <ele>647.20001220703</ele>
        <time>2020-10-02T12:37:25.000Z</time>
      </trkpt>
      <trkpt lat="44.08849" lon="3.13344">
        <ele>645.40002441406</ele>
        <time>2020-10-02T12:37:27.000Z</time>
      </trkpt>
      <trkpt lat="44.08839" lon="3.13338">
        <ele>643.79998779297</ele>
        <time>2020-10-02T12:37:29.000Z</time>
      </trkpt>
      <trkpt lat="44.08832" lon="3.13337">
        <ele>642.59997558594</ele>
        <time>2020-10-02T12:37:30.000Z</time>
      </trkpt>
      <trkpt lat="44.08827" lon="3.13335">
        <ele>640.79998779297</ele>
        <time>2020-10-02T12:37:31.000Z</time>
      </trkpt>
      <trkpt lat="44.08826" lon="3.13331">
        <ele>639</ele>
        <time>2020-10-02T12:37:32.000Z</time>
      </trkpt>
      <trkpt lat="44.08824" lon="3.13329">
        <ele>637.40002441406</ele>
        <time>2020-10-02T12:37:33.000Z</time>
      </trkpt>
      <trkpt lat="44.08825" lon="3.13327">
        <ele>636.20001220703</ele>
        <time>2020-10-02T12:37:34.000Z</time>
      </trkpt>
      <trkpt lat="44.08827" lon="3.13326">
        <ele>634.40002441406</ele>
        <time>2020-10-02T12:37:35.000Z</time>
      </trkpt>
      <trkpt lat="44.08828" lon="3.13324">
        <ele>632.79998779297</ele>
        <time>2020-10-02T12:37:36.000Z</time>
      </trkpt>
      <trkpt lat="44.08831" lon="3.13321">
        <ele>629.20001220703</ele>
        <time>2020-10-02T12:37:37.000Z</time>
      </trkpt>
      <trkpt lat="44.08833" lon="3.13318">
        <ele>627.59997558594</ele>
        <time>2020-10-02T12:37:38.000Z</time>
      </trkpt>
      <trkpt lat="44.08835" lon="3.13315">
        <ele>625.79998779297</ele>
        <time>2020-10-02T12:37:39.000Z</time>
      </trkpt>
      <trkpt lat="44.08838" lon="3.13312">
        <ele>624.59997558594</ele>
        <time>2020-10-02T12:37:40.000Z</time>
      </trkpt>
      <trkpt lat="44.08841" lon="3.13309">
        <ele>623</ele>
        <time>2020-10-02T12:37:41.000Z</time>
      </trkpt>
      <trkpt lat="44.08844" lon="3.13306">
        <ele>621.79998779297</ele>
        <time>2020-10-02T12:37:42.000Z</time>
      </trkpt>
      <trkpt lat="44.08846" lon="3.13303">
        <ele>620.40002441406</ele>
        <time>2020-10-02T12:37:43.000Z</time>
      </trkpt>
      <trkpt lat="44.08848" lon="3.13301">
        <ele>619</ele>
        <time>2020-10-02T12:37:44.000Z</time>
      </trkpt>
      <trkpt lat="44.08852" lon="3.133">
        <ele>617.59997558594</ele>
        <time>2020-10-02T12:37:45.000Z</time>
      </trkpt>
      <trkpt lat="44.08856" lon="3.13298">
        <ele>616.40002441406</ele>
        <time>2020-10-02T12:37:46.000Z</time>
      </trkpt>
      <trkpt lat="44.08858" lon="3.13297">
        <ele>615</ele>
        <time>2020-10-02T12:37:47.000Z</time>
      </trkpt>
      <trkpt lat="44.0886" lon="3.13295">
        <ele>613.20001220703</ele>
        <time>2020-10-02T12:37:48.000Z</time>
      </trkpt>
      <trkpt lat="44.08861" lon="3.13292">
        <ele>611.79998779297</ele>
        <time>2020-10-02T12:37:49.000Z</time>
      </trkpt>
      <trkpt lat="44.08862" lon="3.1329">
        <ele>610.59997558594</ele>
        <time>2020-10-02T12:37:50.000Z</time>
      </trkpt>
      <trkpt lat="44.08864" lon="3.13288">
        <ele>609.20001220703</ele>
        <time>2020-10-02T12:37:51.000Z</time>
      </trkpt>
      <trkpt lat="44.08867" lon="3.13287">
        <ele>607.79998779297</ele>
        <time>2020-10-02T12:37:52.000Z</time>
      </trkpt>
      <trkpt lat="44.08869" lon="3.13283">
        <ele>606.40002441406</ele>
        <time>2020-10-02T12:37:53.000Z</time>
      </trkpt>
      <trkpt lat="44.08871" lon="3.1328">
        <ele>605</ele>
        <time>2020-10-02T12:37:54.000Z</time>
      </trkpt>
      <trkpt lat="44.08873" lon="3.13274">
        <ele>603.40002441406</ele>
        <time>2020-10-02T12:37:55.000Z</time>
      </trkpt>
      <trkpt lat="44.08875" lon="3.13271">
        <ele>601.79998779297</ele>
        <time>2020-10-02T12:37:56.000Z</time>
      </trkpt>
      <trkpt lat="44.08877" lon="3.13268">
        <ele>600.79998779297</ele>
        <time>2020-10-02T12:37:57.000Z</time>
      </trkpt>
      <trkpt lat="44.08879" lon="3.13264">
        <ele>599</ele>
        <time>2020-10-02T12:37:59.000Z</time>
      </trkpt>
      <trkpt lat="44.08879" lon="3.1326">
        <ele>598.20001220703</ele>
        <time>2020-10-02T12:38:00.000Z</time>
      </trkpt>
      <trkpt lat="44.08881" lon="3.13256">
        <ele>597.20001220703</ele>
        <time>2020-10-02T12:38:01.000Z</time>
      </trkpt>
      <trkpt lat="44.08885" lon="3.13248">
        <ele>595.20001220703</ele>
        <time>2020-10-02T12:38:03.000Z</time>
      </trkpt>
      <trkpt lat="44.08887" lon="3.13244">
        <ele>594.20001220703</ele>
        <time>2020-10-02T12:38:04.000Z</time>
      </trkpt>
      <trkpt lat="44.0889" lon="3.13241">
        <ele>593</ele>
        <time>2020-10-02T12:38:05.000Z</time>
      </trkpt>
      <trkpt lat="44.08893" lon="3.13237">
        <ele>591.20001220703</ele>
        <time>2020-10-02T12:38:06.000Z</time>
      </trkpt>
      <trkpt lat="44.089" lon="3.1323">
        <ele>589.79998779297</ele>
        <time>2020-10-02T12:38:08.000Z</time>
      </trkpt>
      <trkpt lat="44.08904" lon="3.13226">
        <ele>588.59997558594</ele>
        <time>2020-10-02T12:38:09.000Z</time>
      </trkpt>
      <trkpt lat="44.08909" lon="3.13218">
        <ele>587.40002441406</ele>
        <time>2020-10-02T12:38:10.000Z</time>
      </trkpt>
      <trkpt lat="44.08914" lon="3.13211">
        <ele>586</ele>
        <time>2020-10-02T12:38:11.000Z</time>
      </trkpt>
      <trkpt lat="44.0892" lon="3.13202">
        <ele>584.79998779297</ele>
        <time>2020-10-02T12:38:12.000Z</time>
      </trkpt>
      <trkpt lat="44.08925" lon="3.13195">
        <ele>583.79998779297</ele>
        <time>2020-10-02T12:38:13.000Z</time>
      </trkpt>
      <trkpt lat="44.0893" lon="3.13188">
        <ele>582.20001220703</ele>
        <time>2020-10-02T12:38:14.000Z</time>
      </trkpt>
      <trkpt lat="44.08935" lon="3.13179">
        <ele>581</ele>
        <time>2020-10-02T12:38:15.000Z</time>
      </trkpt>
      <trkpt lat="44.0894" lon="3.13167">
        <ele>579.79998779297</ele>
        <time>2020-10-02T12:38:16.000Z</time>
      </trkpt>
      <trkpt lat="44.08945" lon="3.13161">
        <ele>578.20001220703</ele>
        <time>2020-10-02T12:38:17.000Z</time>
      </trkpt>
      <trkpt lat="44.08951" lon="3.13154">
        <ele>576.59997558594</ele>
        <time>2020-10-02T12:38:18.000Z</time>
      </trkpt>
      <trkpt lat="44.08956" lon="3.13147">
        <ele>574.79998779297</ele>
        <time>2020-10-02T12:38:19.000Z</time>
      </trkpt>
      <trkpt lat="44.08962" lon="3.1314">
        <ele>573.40002441406</ele>
        <time>2020-10-02T12:38:20.000Z</time>
      </trkpt>
      <trkpt lat="44.08967" lon="3.13133">
        <ele>571.79998779297</ele>
        <time>2020-10-02T12:38:21.000Z</time>
      </trkpt>
      <trkpt lat="44.08972" lon="3.13128">
        <ele>570.79998779297</ele>
        <time>2020-10-02T12:38:22.000Z</time>
      </trkpt>
      <trkpt lat="44.08977" lon="3.13123">
        <ele>569.20001220703</ele>
        <time>2020-10-02T12:38:23.000Z</time>
      </trkpt>
      <trkpt lat="44.08981" lon="3.13118">
        <ele>567.40002441406</ele>
        <time>2020-10-02T12:38:24.000Z</time>
      </trkpt>
      <trkpt lat="44.08986" lon="3.13114">
        <ele>566.20001220703</ele>
        <time>2020-10-02T12:38:25.000Z</time>
      </trkpt>
      <trkpt lat="44.08991" lon="3.1311">
        <ele>564.20001220703</ele>
        <time>2020-10-02T12:38:26.000Z</time>
      </trkpt>
      <trkpt lat="44.08995" lon="3.13106">
        <ele>562</ele>
        <time>2020-10-02T12:38:27.000Z</time>
      </trkpt>
      <trkpt lat="44.09" lon="3.13102">
        <ele>560</ele>
        <time>2020-10-02T12:38:28.000Z</time>
      </trkpt>
      <trkpt lat="44.09005" lon="3.13098">
        <ele>558.20001220703</ele>
        <time>2020-10-02T12:38:29.000Z</time>
      </trkpt>
      <trkpt lat="44.0901" lon="3.13095">
        <ele>557</ele>
        <time>2020-10-02T12:38:30.000Z</time>
      </trkpt>
      <trkpt lat="44.09014" lon="3.13093">
        <ele>556</ele>
        <time>2020-10-02T12:38:31.000Z</time>
      </trkpt>
      <trkpt lat="44.09019" lon="3.13091">
        <ele>555.20001220703</ele>
        <time>2020-10-02T12:38:32.000Z</time>
      </trkpt>
      <trkpt lat="44.09023" lon="3.13088">
        <ele>554</ele>
        <time>2020-10-02T12:38:33.000Z</time>
      </trkpt>
      <trkpt lat="44.09027" lon="3.13086">
        <ele>552.40002441406</ele>
        <time>2020-10-02T12:38:34.000Z</time>
      </trkpt>
      <trkpt lat="44.0903" lon="3.13084">
        <ele>549.40002441406</ele>
        <time>2020-10-02T12:38:35.000Z</time>
      </trkpt>
      <trkpt lat="44.09033" lon="3.13081">
        <ele>547.59997558594</ele>
        <time>2020-10-02T12:38:36.000Z</time>
      </trkpt>
      <trkpt lat="44.09037" lon="3.13077">
        <ele>546</ele>
        <time>2020-10-02T12:38:37.000Z</time>
      </trkpt>
      <trkpt lat="44.09042" lon="3.13075">
        <ele>545</ele>
        <time>2020-10-02T12:38:38.000Z</time>
      </trkpt>
      <trkpt lat="44.09047" lon="3.13072">
        <ele>543.59997558594</ele>
        <time>2020-10-02T12:38:39.000Z</time>
      </trkpt>
      <trkpt lat="44.09052" lon="3.13069">
        <ele>541.59997558594</ele>
        <time>2020-10-02T12:38:40.000Z</time>
      </trkpt>
      <trkpt lat="44.09057" lon="3.13067">
        <ele>539.79998779297</ele>
        <time>2020-10-02T12:38:41.000Z</time>
      </trkpt>
      <trkpt lat="44.09061" lon="3.13066">
        <ele>538.40002441406</ele>
        <time>2020-10-02T12:38:42.000Z</time>
      </trkpt>
      <trkpt lat="44.09064" lon="3.13061">
        <ele>537.20001220703</ele>
        <time>2020-10-02T12:38:43.000Z</time>
      </trkpt>
      <trkpt lat="44.09067" lon="3.13058">
        <ele>535.79998779297</ele>
        <time>2020-10-02T12:38:44.000Z</time>
      </trkpt>
      <trkpt lat="44.09068" lon="3.13061">
        <ele>534.59997558594</ele>
        <time>2020-10-02T12:38:45.000Z</time>
      </trkpt>
      <trkpt lat="44.09068" lon="3.13063">
        <ele>532.79998779297</ele>
        <time>2020-10-02T12:38:46.000Z</time>
      </trkpt>
      <trkpt lat="44.09067" lon="3.13065">
        <ele>531</ele>
        <time>2020-10-02T12:38:47.000Z</time>
      </trkpt>
      <trkpt lat="44.09066" lon="3.13068">
        <ele>529</ele>
        <time>2020-10-02T12:38:48.000Z</time>
      </trkpt>
      <trkpt lat="44.09067" lon="3.1307">
        <ele>527.40002441406</ele>
        <time>2020-10-02T12:38:49.000Z</time>
      </trkpt>
      <trkpt lat="44.09068" lon="3.1307">
        <ele>525.79998779297</ele>
        <time>2020-10-02T12:38:50.000Z</time>
      </trkpt>
      <trkpt lat="44.09069" lon="3.13066">
        <ele>524</ele>
        <time>2020-10-02T12:38:51.000Z</time>
      </trkpt>
      <trkpt lat="44.09069" lon="3.13065">
        <ele>522.79998779297</ele>
        <time>2020-10-02T12:38:52.000Z</time>
      </trkpt>
      <trkpt lat="44.09069" lon="3.13067">
        <ele>521.59997558594</ele>
        <time>2020-10-02T12:38:53.000Z</time>
      </trkpt>
      <trkpt lat="44.0907" lon="3.13068">
        <ele>520.40002441406</ele>
        <time>2020-10-02T12:38:54.000Z</time>
      </trkpt>
      <trkpt lat="44.09071" lon="3.13069">
        <ele>519</ele>
        <time>2020-10-02T12:38:55.000Z</time>
      </trkpt>
      <trkpt lat="44.09073" lon="3.13068">
        <ele>518</ele>
        <time>2020-10-02T12:38:56.000Z</time>
      </trkpt>
      <trkpt lat="44.09079" lon="3.13063">
        <ele>515.79998779297</ele>
        <time>2020-10-02T12:38:58.000Z</time>
      </trkpt>
      <trkpt lat="44.09081" lon="3.13059">
        <ele>514.59997558594</ele>
        <time>2020-10-02T12:38:59.000Z</time>
      </trkpt>
      <trkpt lat="44.09081" lon="3.13056">
        <ele>513.40002441406</ele>
        <time>2020-10-02T12:39:00.000Z</time>
      </trkpt>
      <trkpt lat="44.09082" lon="3.1305">
        <ele>511</ele>
        <time>2020-10-02T12:39:02.000Z</time>
      </trkpt>
      <trkpt lat="44.09083" lon="3.13047">
        <ele>509.20001220703</ele>
        <time>2020-10-02T12:39:03.000Z</time>
      </trkpt>
      <trkpt lat="44.09085" lon="3.13041">
        <ele>507.60000610352</ele>
        <time>2020-10-02T12:39:05.000Z</time>
      </trkpt>
      <trkpt lat="44.09088" lon="3.13039">
        <ele>506.60000610352</ele>
        <time>2020-10-02T12:39:06.000Z</time>
      </trkpt>
      <trkpt lat="44.09091" lon="3.13037">
        <ele>505.79998779297</ele>
        <time>2020-10-02T12:39:07.000Z</time>
      </trkpt>
      <trkpt lat="44.09108" lon="3.13032">
        <ele>504</ele>
        <time>2020-10-02T12:39:10.000Z</time>
      </trkpt>
      <trkpt lat="44.09123" lon="3.13028">
        <ele>502.79998779297</ele>
        <time>2020-10-02T12:39:12.000Z</time>
      </trkpt>
      <trkpt lat="44.0913" lon="3.13025">
        <ele>501.60000610352</ele>
        <time>2020-10-02T12:39:13.000Z</time>
      </trkpt>
      <trkpt lat="44.09137" lon="3.13023">
        <ele>500.20001220703</ele>
        <time>2020-10-02T12:39:14.000Z</time>
      </trkpt>
      <trkpt lat="44.09147" lon="3.13022">
        <ele>498.79998779297</ele>
        <time>2020-10-02T12:39:15.000Z</time>
      </trkpt>
      <trkpt lat="44.09166" lon="3.13021">
        <ele>497.20001220703</ele>
        <time>2020-10-02T12:39:17.000Z</time>
      </trkpt>
      <trkpt lat="44.09175" lon="3.1302">
        <ele>496.39999389648</ele>
        <time>2020-10-02T12:39:18.000Z</time>
      </trkpt>
      <trkpt lat="44.09182" lon="3.13018">
        <ele>495.20001220703</ele>
        <time>2020-10-02T12:39:19.000Z</time>
      </trkpt>
      <trkpt lat="44.0919" lon="3.13015">
        <ele>494.20001220703</ele>
        <time>2020-10-02T12:39:20.000Z</time>
      </trkpt>
      <trkpt lat="44.09197" lon="3.13011">
        <ele>492.79998779297</ele>
        <time>2020-10-02T12:39:21.000Z</time>
      </trkpt>
      <trkpt lat="44.09211" lon="3.13">
        <ele>491.20001220703</ele>
        <time>2020-10-02T12:39:23.000Z</time>
      </trkpt>
      <trkpt lat="44.09226" lon="3.1299">
        <ele>490.20001220703</ele>
        <time>2020-10-02T12:39:25.000Z</time>
      </trkpt>
      <trkpt lat="44.09233" lon="3.12987">
        <ele>489.60000610352</ele>
        <time>2020-10-02T12:39:26.000Z</time>
      </trkpt>
      <trkpt lat="44.09241" lon="3.12983">
        <ele>488</ele>
        <time>2020-10-02T12:39:27.000Z</time>
      </trkpt>
      <trkpt lat="44.09249" lon="3.12979">
        <ele>486.39999389648</ele>
        <time>2020-10-02T12:39:28.000Z</time>
      </trkpt>
      <trkpt lat="44.09257" lon="3.12974">
        <ele>485.20001220703</ele>
        <time>2020-10-02T12:39:29.000Z</time>
      </trkpt>
      <trkpt lat="44.09265" lon="3.12968">
        <ele>483.79998779297</ele>
        <time>2020-10-02T12:39:30.000Z</time>
      </trkpt>
      <trkpt lat="44.09272" lon="3.12964">
        <ele>481</ele>
        <time>2020-10-02T12:39:31.000Z</time>
      </trkpt>
      <trkpt lat="44.09276" lon="3.1296">
        <ele>480.20001220703</ele>
        <time>2020-10-02T12:39:32.000Z</time>
      </trkpt>
      <trkpt lat="44.0928" lon="3.12954">
        <ele>478.79998779297</ele>
        <time>2020-10-02T12:39:33.000Z</time>
      </trkpt>
      <trkpt lat="44.09279" lon="3.12951">
        <ele>477.20001220703</ele>
        <time>2020-10-02T12:39:34.000Z</time>
      </trkpt>
      <trkpt lat="44.09276" lon="3.12948">
        <ele>475.79998779297</ele>
        <time>2020-10-02T12:39:35.000Z</time>
      </trkpt>
      <trkpt lat="44.09275" lon="3.12944">
        <ele>474.60000610352</ele>
        <time>2020-10-02T12:39:36.000Z</time>
      </trkpt>
      <trkpt lat="44.09276" lon="3.12938">
        <ele>473.60000610352</ele>
        <time>2020-10-02T12:39:37.000Z</time>
      </trkpt>
      <trkpt lat="44.09277" lon="3.12936">
        <ele>472.39999389648</ele>
        <time>2020-10-02T12:39:38.000Z</time>
      </trkpt>
      <trkpt lat="44.09279" lon="3.12931">
        <ele>471</ele>
        <time>2020-10-02T12:39:40.000Z</time>
      </trkpt>
      <trkpt lat="44.0928" lon="3.12929">
        <ele>470.39999389648</ele>
        <time>2020-10-02T12:39:41.000Z</time>
      </trkpt>
      <trkpt lat="44.09281" lon="3.12928">
        <ele>469.39999389648</ele>
        <time>2020-10-02T12:39:42.000Z</time>
      </trkpt>
      <trkpt lat="44.09286" lon="3.12926">
        <ele>468</ele>
        <time>2020-10-02T12:39:44.000Z</time>
      </trkpt>
      <trkpt lat="44.09293" lon="3.12922">
        <ele>467.20001220703</ele>
        <time>2020-10-02T12:39:47.000Z</time>
      </trkpt>
      <trkpt lat="44.09297" lon="3.12921">
        <ele>467</ele>
        <time>2020-10-02T12:39:49.000Z</time>
      </trkpt>
      <trkpt lat="44.09305" lon="3.12917">
        <ele>466</ele>
        <time>2020-10-02T12:39:53.000Z</time>
      </trkpt>
      <trkpt lat="44.09305" lon="3.12918">
        <ele>465.79998779297</ele>
        <time>2020-10-02T12:39:54.000Z</time>
      </trkpt>
      <trkpt lat="44.09304" lon="3.12917">
        <ele>464.39999389648</ele>
        <time>2020-10-02T12:39:57.000Z</time>
      </trkpt>
      <trkpt lat="44.09303" lon="3.12917">
        <ele>463</ele>
        <time>2020-10-02T12:40:00.000Z</time>
      </trkpt>
      <trkpt lat="44.09302" lon="3.12916">
        <ele>463</ele>
        <time>2020-10-02T12:40:01.000Z</time>
      </trkpt>
      <trkpt lat="44.09302" lon="3.12917">
        <ele>462.79998779297</ele>
        <time>2020-10-02T12:40:09.000Z</time>
      </trkpt>
      <trkpt lat="44.09304" lon="3.12916">
        <ele>462.60000610352</ele>
        <time>2020-10-02T12:40:24.000Z</time>
      </trkpt>
      <trkpt lat="44.09308" lon="3.12914">
        <ele>462</ele>
        <time>2020-10-02T12:40:40.000Z</time>
      </trkpt>
      <trkpt lat="44.09303" lon="3.12916">
        <ele>462</ele>
        <time>2020-10-02T12:40:54.000Z</time>
      </trkpt>
      <trkpt lat="44.093" lon="3.12915">
        <ele>462.60000610352</ele>
        <time>2020-10-02T12:41:03.000Z</time>
      </trkpt>
      <trkpt lat="44.09298" lon="3.12915">
        <ele>462.79998779297</ele>
        <time>2020-10-02T12:41:15.000Z</time>
      </trkpt>
      <trkpt lat="44.09296" lon="3.12916">
        <ele>463</ele>
        <time>2020-10-02T12:41:30.000Z</time>
      </trkpt>
      <trkpt lat="44.09295" lon="3.12916">
        <ele>463</ele>
        <time>2020-10-02T12:41:48.000Z</time>
      </trkpt>
      <trkpt lat="44.09295" lon="3.12915">
        <ele>463</ele>
        <time>2020-10-02T12:42:05.000Z</time>
      </trkpt>
      <trkpt lat="44.09296" lon="3.12913">
        <ele>463.20001220703</ele>
        <time>2020-10-02T12:42:12.000Z</time>
      </trkpt>
      <trkpt lat="44.09295" lon="3.12913">
        <ele>463.20001220703</ele>
        <time>2020-10-02T12:42:32.000Z</time>
      </trkpt>
      <trkpt lat="44.09294" lon="3.12915">
        <ele>463.20001220703</ele>
        <time>2020-10-02T12:42:47.000Z</time>
      </trkpt>
      <trkpt lat="44.09302" lon="3.12915">
        <ele>463.20001220703</ele>
        <time>2020-10-02T12:42:53.000Z</time>
      </trkpt>
      <trkpt lat="44.09304" lon="3.12922">
        <ele>463.20001220703</ele>
        <time>2020-10-02T12:42:57.000Z</time>
      </trkpt>
      <trkpt lat="44.09302" lon="3.12921">
        <ele>463</ele>
        <time>2020-10-02T12:43:00.000Z</time>
      </trkpt>
      <trkpt lat="44.09299" lon="3.1292">
        <ele>462.79998779297</ele>
        <time>2020-10-02T12:43:02.000Z</time>
      </trkpt>
      <trkpt lat="44.09295" lon="3.12919">
        <ele>462.79998779297</ele>
        <time>2020-10-02T12:43:04.000Z</time>
      </trkpt>
      <trkpt lat="44.09293" lon="3.12919">
        <ele>462.79998779297</ele>
        <time>2020-10-02T12:43:08.000Z</time>
      </trkpt>
      <trkpt lat="44.09293" lon="3.12916">
        <ele>463</ele>
        <time>2020-10-02T12:43:16.000Z</time>
      </trkpt>
      <trkpt lat="44.09297" lon="3.12915">
        <ele>463</ele>
        <time>2020-10-02T12:43:19.000Z</time>
      </trkpt>
      <trkpt lat="44.09301" lon="3.12914">
        <ele>463</ele>
        <time>2020-10-02T12:43:21.000Z</time>
      </trkpt>
      <trkpt lat="44.09307" lon="3.12912">
        <ele>463</ele>
        <time>2020-10-02T12:43:23.000Z</time>
      </trkpt>
      <trkpt lat="44.09313" lon="3.12911">
        <ele>463</ele>
        <time>2020-10-02T12:43:25.000Z</time>
      </trkpt>
      <trkpt lat="44.09327" lon="3.12908">
        <ele>462.79998779297</ele>
        <time>2020-10-02T12:43:28.000Z</time>
      </trkpt>
      <trkpt lat="44.09341" lon="3.12903">
        <ele>461</ele>
        <time>2020-10-02T12:43:33.000Z</time>
      </trkpt>
      <trkpt lat="44.09346" lon="3.12904">
        <ele>460</ele>
        <time>2020-10-02T12:43:35.000Z</time>
      </trkpt>
      <trkpt lat="44.09356" lon="3.12911">
        <ele>459.39999389648</ele>
        <time>2020-10-02T12:43:38.000Z</time>
      </trkpt>
      <trkpt lat="44.09363" lon="3.12917">
        <ele>458.60000610352</ele>
        <time>2020-10-02T12:43:40.000Z</time>
      </trkpt>
      <trkpt lat="44.09369" lon="3.12924">
        <ele>457.60000610352</ele>
        <time>2020-10-02T12:43:42.000Z</time>
      </trkpt>
      <trkpt lat="44.09371" lon="3.12926">
        <ele>457</ele>
        <time>2020-10-02T12:43:43.000Z</time>
      </trkpt>
      <trkpt lat="44.09375" lon="3.12927">
        <ele>455.79998779297</ele>
        <time>2020-10-02T12:43:46.000Z</time>
      </trkpt>
      <trkpt lat="44.09376" lon="3.12927">
        <ele>454.39999389648</ele>
        <time>2020-10-02T12:43:49.000Z</time>
      </trkpt>
      <trkpt lat="44.09375" lon="3.12926">
        <ele>452.79998779297</ele>
        <time>2020-10-02T12:43:51.000Z</time>
      </trkpt>
      <trkpt lat="44.09374" lon="3.12925">
        <ele>452.39999389648</ele>
        <time>2020-10-02T12:43:53.000Z</time>
      </trkpt>
      <trkpt lat="44.09372" lon="3.12921">
        <ele>452.20001220703</ele>
        <time>2020-10-02T12:43:59.000Z</time>
      </trkpt>
      <trkpt lat="44.09373" lon="3.12924">
        <ele>452.60000610352</ele>
        <time>2020-10-02T12:44:04.000Z</time>
      </trkpt>
      <trkpt lat="44.09375" lon="3.12926">
        <ele>452.79998779297</ele>
        <time>2020-10-02T12:44:05.000Z</time>
      </trkpt>
      <trkpt lat="44.09381" lon="3.12933">
        <ele>452.79998779297</ele>
        <time>2020-10-02T12:44:09.000Z</time>
      </trkpt>
      <trkpt lat="44.09384" lon="3.12937">
        <ele>452.79998779297</ele>
        <time>2020-10-02T12:44:11.000Z</time>
      </trkpt>
      <trkpt lat="44.09389" lon="3.12941">
        <ele>452.39999389648</ele>
        <time>2020-10-02T12:44:15.000Z</time>
      </trkpt>
      <trkpt lat="44.09392" lon="3.12943">
        <ele>451.60000610352</ele>
        <time>2020-10-02T12:44:17.000Z</time>
      </trkpt>
      <trkpt lat="44.09393" lon="3.12942">
        <ele>450.39999389648</ele>
        <time>2020-10-02T12:44:20.000Z</time>
      </trkpt>
      <trkpt lat="44.09392" lon="3.12943">
        <ele>450.20001220703</ele>
        <time>2020-10-02T12:44:21.000Z</time>
      </trkpt>
      <trkpt lat="44.09391" lon="3.12943">
        <ele>450.20001220703</ele>
        <time>2020-10-02T12:44:28.000Z</time>
      </trkpt>
      <trkpt lat="44.09391" lon="3.12942">
        <ele>450.20001220703</ele>
        <time>2020-10-02T12:44:44.000Z</time>
      </trkpt>
      <trkpt lat="44.0939" lon="3.12942">
        <ele>450</ele>
        <time>2020-10-02T12:45:01.000Z</time>
      </trkpt>
      <trkpt lat="44.09391" lon="3.12946">
        <ele>450.20001220703</ele>
        <time>2020-10-02T12:45:25.000Z</time>
      </trkpt>
      <trkpt lat="44.09402" lon="3.12951">
        <ele>450.20001220703</ele>
        <time>2020-10-02T12:45:33.000Z</time>
      </trkpt>
      <trkpt lat="44.09418" lon="3.12954">
        <ele>450</ele>
        <time>2020-10-02T12:45:37.000Z</time>
      </trkpt>
      <trkpt lat="44.09431" lon="3.12953">
        <ele>450</ele>
        <time>2020-10-02T12:45:40.000Z</time>
      </trkpt>
      <trkpt lat="44.09436" lon="3.12951">
        <ele>450</ele>
        <time>2020-10-02T12:45:41.000Z</time>
      </trkpt>
      <trkpt lat="44.0945" lon="3.1294">
        <ele>448</ele>
        <time>2020-10-02T12:45:45.000Z</time>
      </trkpt>
      <trkpt lat="44.09453" lon="3.12937">
        <ele>446.79998779297</ele>
        <time>2020-10-02T12:45:46.000Z</time>
      </trkpt>
      <trkpt lat="44.09458" lon="3.12934">
        <ele>445.20001220703</ele>
        <time>2020-10-02T12:45:48.000Z</time>
      </trkpt>
      <trkpt lat="44.0946" lon="3.12931">
        <ele>444.39999389648</ele>
        <time>2020-10-02T12:45:49.000Z</time>
      </trkpt>
      <trkpt lat="44.09463" lon="3.12928">
        <ele>444</ele>
        <time>2020-10-02T12:45:50.000Z</time>
      </trkpt>
      <trkpt lat="44.09474" lon="3.12916">
        <ele>442.60000610352</ele>
        <time>2020-10-02T12:45:54.000Z</time>
      </trkpt>
      <trkpt lat="44.09477" lon="3.12913">
        <ele>442</ele>
        <time>2020-10-02T12:45:55.000Z</time>
      </trkpt>
      <trkpt lat="44.09484" lon="3.12905">
        <ele>441.39999389648</ele>
        <time>2020-10-02T12:45:57.000Z</time>
      </trkpt>
      <trkpt lat="44.09497" lon="3.1289">
        <ele>440</ele>
        <time>2020-10-02T12:46:01.000Z</time>
      </trkpt>
      <trkpt lat="44.09503" lon="3.12875">
        <ele>438.79998779297</ele>
        <time>2020-10-02T12:46:05.000Z</time>
      </trkpt>
      <trkpt lat="44.09504" lon="3.12872">
        <ele>438.60000610352</ele>
        <time>2020-10-02T12:46:06.000Z</time>
      </trkpt>
      <trkpt lat="44.09503" lon="3.12866">
        <ele>437.60000610352</ele>
        <time>2020-10-02T12:46:08.000Z</time>
      </trkpt>
      <trkpt lat="44.09503" lon="3.12861">
        <ele>436.39999389648</ele>
        <time>2020-10-02T12:46:10.000Z</time>
      </trkpt>
      <trkpt lat="44.09503" lon="3.12859">
        <ele>435.79998779297</ele>
        <time>2020-10-02T12:46:11.000Z</time>
      </trkpt>
      <trkpt lat="44.09505" lon="3.12855">
        <ele>435</ele>
        <time>2020-10-02T12:46:13.000Z</time>
      </trkpt>
      <trkpt lat="44.09511" lon="3.12851">
        <ele>434.20001220703</ele>
        <time>2020-10-02T12:46:15.000Z</time>
      </trkpt>
      <trkpt lat="44.09519" lon="3.12838">
        <ele>433.79998779297</ele>
        <time>2020-10-02T12:46:20.000Z</time>
      </trkpt>
      <trkpt lat="44.09523" lon="3.12831">
        <ele>434.20001220703</ele>
        <time>2020-10-02T12:46:27.000Z</time>
      </trkpt>
      <trkpt lat="44.09528" lon="3.12828">
        <ele>435.60000610352</ele>
        <time>2020-10-02T12:46:34.000Z</time>
      </trkpt>
      <trkpt lat="44.0953" lon="3.12825">
        <ele>436</ele>
        <time>2020-10-02T12:46:38.000Z</time>
      </trkpt>
      <trkpt lat="44.09534" lon="3.12823">
        <ele>436.39999389648</ele>
        <time>2020-10-02T12:46:41.000Z</time>
      </trkpt>
      <trkpt lat="44.09536" lon="3.12823">
        <ele>436.39999389648</ele>
        <time>2020-10-02T12:46:42.000Z</time>
      </trkpt>
      <trkpt lat="44.0955" lon="3.12821">
        <ele>436.60000610352</ele>
        <time>2020-10-02T12:46:45.000Z</time>
      </trkpt>
      <trkpt lat="44.09567" lon="3.12819">
        <ele>436.60000610352</ele>
        <time>2020-10-02T12:46:50.000Z</time>
      </trkpt>
      <trkpt lat="44.09573" lon="3.12813">
        <ele>436.20001220703</ele>
        <time>2020-10-02T12:46:55.000Z</time>
      </trkpt>
      <trkpt lat="44.09588" lon="3.12806">
        <ele>436.39999389648</ele>
        <time>2020-10-02T12:47:01.000Z</time>
      </trkpt>
      <trkpt lat="44.09604" lon="3.128">
        <ele>436.39999389648</ele>
        <time>2020-10-02T12:47:06.000Z</time>
      </trkpt>
      <trkpt lat="44.09624" lon="3.1279">
        <ele>436.20001220703</ele>
        <time>2020-10-02T12:47:12.000Z</time>
      </trkpt>
      <trkpt lat="44.09639" lon="3.12777">
        <ele>435.79998779297</ele>
        <time>2020-10-02T12:47:17.000Z</time>
      </trkpt>
      <trkpt lat="44.09648" lon="3.1277">
        <ele>434.79998779297</ele>
        <time>2020-10-02T12:47:20.000Z</time>
      </trkpt>
      <trkpt lat="44.0965" lon="3.12771">
        <ele>433.20001220703</ele>
        <time>2020-10-02T12:47:22.000Z</time>
      </trkpt>
      <trkpt lat="44.09651" lon="3.12771">
        <ele>432</ele>
        <time>2020-10-02T12:47:23.000Z</time>
      </trkpt>
      <trkpt lat="44.09656" lon="3.12772">
        <ele>430.60000610352</ele>
        <time>2020-10-02T12:47:25.000Z</time>
      </trkpt>
      <trkpt lat="44.09658" lon="3.12772">
        <ele>429.60000610352</ele>
        <time>2020-10-02T12:47:26.000Z</time>
      </trkpt>
      <trkpt lat="44.09661" lon="3.12773">
        <ele>428.79998779297</ele>
        <time>2020-10-02T12:47:27.000Z</time>
      </trkpt>
      <trkpt lat="44.09664" lon="3.12775">
        <ele>427.20001220703</ele>
        <time>2020-10-02T12:47:29.000Z</time>
      </trkpt>
      <trkpt lat="44.09669" lon="3.12776">
        <ele>426.20001220703</ele>
        <time>2020-10-02T12:47:31.000Z</time>
      </trkpt>
      <trkpt lat="44.09672" lon="3.12775">
        <ele>425</ele>
        <time>2020-10-02T12:47:33.000Z</time>
      </trkpt>
      <trkpt lat="44.09674" lon="3.12776">
        <ele>424.39999389648</ele>
        <time>2020-10-02T12:47:34.000Z</time>
      </trkpt>
      <trkpt lat="44.09678" lon="3.12778">
        <ele>423.79998779297</ele>
        <time>2020-10-02T12:47:35.000Z</time>
      </trkpt>
      <trkpt lat="44.0968" lon="3.1278">
        <ele>423.20001220703</ele>
        <time>2020-10-02T12:47:36.000Z</time>
      </trkpt>
      <trkpt lat="44.09682" lon="3.12782">
        <ele>422.60000610352</ele>
        <time>2020-10-02T12:47:37.000Z</time>
      </trkpt>
      <trkpt lat="44.09683" lon="3.12784">
        <ele>422</ele>
        <time>2020-10-02T12:47:38.000Z</time>
      </trkpt>
      <trkpt lat="44.09684" lon="3.12786">
        <ele>421.39999389648</ele>
        <time>2020-10-02T12:47:39.000Z</time>
      </trkpt>
      <trkpt lat="44.09686" lon="3.12788">
        <ele>420.79998779297</ele>
        <time>2020-10-02T12:47:40.000Z</time>
      </trkpt>
      <trkpt lat="44.09689" lon="3.12789">
        <ele>420.20001220703</ele>
        <time>2020-10-02T12:47:41.000Z</time>
      </trkpt>
      <trkpt lat="44.09695" lon="3.12794">
        <ele>418.60000610352</ele>
        <time>2020-10-02T12:47:43.000Z</time>
      </trkpt>
      <trkpt lat="44.09696" lon="3.12799">
        <ele>418</ele>
        <time>2020-10-02T12:47:44.000Z</time>
      </trkpt>
      <trkpt lat="44.09698" lon="3.12803">
        <ele>417.39999389648</ele>
        <time>2020-10-02T12:47:45.000Z</time>
      </trkpt>
      <trkpt lat="44.09702" lon="3.12808">
        <ele>416</ele>
        <time>2020-10-02T12:47:47.000Z</time>
      </trkpt>
      <trkpt lat="44.09703" lon="3.12811">
        <ele>415.60000610352</ele>
        <time>2020-10-02T12:47:48.000Z</time>
      </trkpt>
      <trkpt lat="44.09703" lon="3.12814">
        <ele>415</ele>
        <time>2020-10-02T12:47:49.000Z</time>
      </trkpt>
      <trkpt lat="44.09706" lon="3.1282">
        <ele>413.79998779297</ele>
        <time>2020-10-02T12:47:51.000Z</time>
      </trkpt>
      <trkpt lat="44.09712" lon="3.12824">
        <ele>412.39999389648</ele>
        <time>2020-10-02T12:47:53.000Z</time>
      </trkpt>
      <trkpt lat="44.09723" lon="3.12827">
        <ele>411</ele>
        <time>2020-10-02T12:47:55.000Z</time>
      </trkpt>
      <trkpt lat="44.0973" lon="3.12828">
        <ele>410.39999389648</ele>
        <time>2020-10-02T12:47:56.000Z</time>
      </trkpt>
      <trkpt lat="44.09735" lon="3.12829">
        <ele>409.60000610352</ele>
        <time>2020-10-02T12:47:57.000Z</time>
      </trkpt>
      <trkpt lat="44.09744" lon="3.12832">
        <ele>408.20001220703</ele>
        <time>2020-10-02T12:47:59.000Z</time>
      </trkpt>
      <trkpt lat="44.0975" lon="3.12839">
        <ele>407.20001220703</ele>
        <time>2020-10-02T12:48:01.000Z</time>
      </trkpt>
      <trkpt lat="44.09755" lon="3.1284">
        <ele>406.79998779297</ele>
        <time>2020-10-02T12:48:02.000Z</time>
      </trkpt>
      <trkpt lat="44.0976" lon="3.12841">
        <ele>406</ele>
        <time>2020-10-02T12:48:03.000Z</time>
      </trkpt>
      <trkpt lat="44.09768" lon="3.12843">
        <ele>404.20001220703</ele>
        <time>2020-10-02T12:48:05.000Z</time>
      </trkpt>
      <trkpt lat="44.09781" lon="3.12843">
        <ele>403</ele>
        <time>2020-10-02T12:48:07.000Z</time>
      </trkpt>
      <trkpt lat="44.09794" lon="3.12839">
        <ele>401.39999389648</ele>
        <time>2020-10-02T12:48:09.000Z</time>
      </trkpt>
      <trkpt lat="44.09804" lon="3.12833">
        <ele>401</ele>
        <time>2020-10-02T12:48:11.000Z</time>
      </trkpt>
      <trkpt lat="44.09807" lon="3.12832">
        <ele>399.79998779297</ele>
        <time>2020-10-02T12:48:13.000Z</time>
      </trkpt>
      <trkpt lat="44.09808" lon="3.12832">
        <ele>399.20001220703</ele>
        <time>2020-10-02T12:48:14.000Z</time>
      </trkpt>
      <trkpt lat="44.09807" lon="3.12832">
        <ele>398.60000610352</ele>
        <time>2020-10-02T12:48:15.000Z</time>
      </trkpt>
      <trkpt lat="44.09808" lon="3.12832">
        <ele>397.20001220703</ele>
        <time>2020-10-02T12:48:17.000Z</time>
      </trkpt>
      <trkpt lat="44.09808" lon="3.12832">
        <ele>396</ele>
        <time>2020-10-02T12:48:18.000Z</time>
      </trkpt>
      <trkpt lat="44.09809" lon="3.12832">
        <ele>394.60000610352</ele>
        <time>2020-10-02T12:48:20.000Z</time>
      </trkpt>
      <trkpt lat="44.09811" lon="3.12835">
        <ele>393.60000610352</ele>
        <time>2020-10-02T12:48:26.000Z</time>
      </trkpt>
      <trkpt lat="44.09814" lon="3.12834">
        <ele>393.60000610352</ele>
        <time>2020-10-02T12:48:31.000Z</time>
      </trkpt>
      <trkpt lat="44.09824" lon="3.12829">
        <ele>393.60000610352</ele>
        <time>2020-10-02T12:48:36.000Z</time>
      </trkpt>
      <trkpt lat="44.09833" lon="3.12827">
        <ele>392.60000610352</ele>
        <time>2020-10-02T12:48:41.000Z</time>
      </trkpt>
      <trkpt lat="44.09835" lon="3.12826">
        <ele>392.39999389648</ele>
        <time>2020-10-02T12:48:42.000Z</time>
      </trkpt>
      <trkpt lat="44.09842" lon="3.12824">
        <ele>391.60000610352</ele>
        <time>2020-10-02T12:48:45.000Z</time>
      </trkpt>
      <trkpt lat="44.09848" lon="3.12822">
        <ele>391.39999389648</ele>
        <time>2020-10-02T12:48:47.000Z</time>
      </trkpt>
      <trkpt lat="44.09857" lon="3.12816">
        <ele>391</ele>
        <time>2020-10-02T12:48:52.000Z</time>
      </trkpt>
      <trkpt lat="44.09866" lon="3.12811">
        <ele>390.79998779297</ele>
        <time>2020-10-02T12:48:57.000Z</time>
      </trkpt>
      <trkpt lat="44.09872" lon="3.12809">
        <ele>390.60000610352</ele>
        <time>2020-10-02T12:48:59.000Z</time>
      </trkpt>
      <trkpt lat="44.0988" lon="3.12805">
        <ele>389.79998779297</ele>
        <time>2020-10-02T12:49:02.000Z</time>
      </trkpt>
      <trkpt lat="44.09884" lon="3.12803">
        <ele>389.20001220703</ele>
        <time>2020-10-02T12:49:04.000Z</time>
      </trkpt>
      <trkpt lat="44.09893" lon="3.128">
        <ele>388</ele>
        <time>2020-10-02T12:49:07.000Z</time>
      </trkpt>
      <trkpt lat="44.09902" lon="3.12797">
        <ele>387</ele>
        <time>2020-10-02T12:49:11.000Z</time>
      </trkpt>
      <trkpt lat="44.09907" lon="3.12794">
        <ele>386.60000610352</ele>
        <time>2020-10-02T12:49:13.000Z</time>
      </trkpt>
      <trkpt lat="44.09924" lon="3.12788">
        <ele>386.60000610352</ele>
        <time>2020-10-02T12:49:17.000Z</time>
      </trkpt>
      <trkpt lat="44.09941" lon="3.12781">
        <ele>386.39999389648</ele>
        <time>2020-10-02T12:49:20.000Z</time>
      </trkpt>
      <trkpt lat="44.09945" lon="3.1278">
        <ele>386.20001220703</ele>
        <time>2020-10-02T12:49:21.000Z</time>
      </trkpt>
      <trkpt lat="44.09952" lon="3.12779">
        <ele>385.79998779297</ele>
        <time>2020-10-02T12:49:23.000Z</time>
      </trkpt>
      <trkpt lat="44.09953" lon="3.12778">
        <ele>385.60000610352</ele>
        <time>2020-10-02T12:49:24.000Z</time>
      </trkpt>
      <trkpt lat="44.09955" lon="3.12776">
        <ele>384.39999389648</ele>
        <time>2020-10-02T12:49:26.000Z</time>
      </trkpt>
      <trkpt lat="44.09955" lon="3.12774">
        <ele>383.39999389648</ele>
        <time>2020-10-02T12:49:29.000Z</time>
      </trkpt>
      <trkpt lat="44.09956" lon="3.12773">
        <ele>383.39999389648</ele>
        <time>2020-10-02T12:49:30.000Z</time>
      </trkpt>
      <trkpt lat="44.09955" lon="3.12772">
        <ele>383.60000610352</ele>
        <time>2020-10-02T12:49:43.000Z</time>
      </trkpt>
      <trkpt lat="44.09965" lon="3.12772">
        <ele>383.39999389648</ele>
        <time>2020-10-02T12:49:51.000Z</time>
      </trkpt>
      <trkpt lat="44.09979" lon="3.12774">
        <ele>384</ele>
        <time>2020-10-02T12:50:01.000Z</time>
      </trkpt>
      <trkpt lat="44.09981" lon="3.12775">
        <ele>384.20001220703</ele>
        <time>2020-10-02T12:50:02.000Z</time>
      </trkpt>
      <trkpt lat="44.09983" lon="3.12775">
        <ele>384.39999389648</ele>
        <time>2020-10-02T12:50:03.000Z</time>
      </trkpt>
      <trkpt lat="44.09995" lon="3.12775">
        <ele>385</ele>
        <time>2020-10-02T12:50:07.000Z</time>
      </trkpt>
      <trkpt lat="44.10002" lon="3.12777">
        <ele>385.20001220703</ele>
        <time>2020-10-02T12:50:10.000Z</time>
      </trkpt>
      <trkpt lat="44.1001" lon="3.12779">
        <ele>385.39999389648</ele>
        <time>2020-10-02T12:50:13.000Z</time>
      </trkpt>
      <trkpt lat="44.10029" lon="3.12788">
        <ele>386.20001220703</ele>
        <time>2020-10-02T12:50:20.000Z</time>
      </trkpt>
      <trkpt lat="44.10046" lon="3.12794">
        <ele>387.20001220703</ele>
        <time>2020-10-02T12:50:25.000Z</time>
      </trkpt>
      <trkpt lat="44.1005" lon="3.12795">
        <ele>387.39999389648</ele>
        <time>2020-10-02T12:50:26.000Z</time>
      </trkpt>
      <trkpt lat="44.10068" lon="3.128">
        <ele>388.60000610352</ele>
        <time>2020-10-02T12:50:32.000Z</time>
      </trkpt>
      <trkpt lat="44.1007" lon="3.12801">
        <ele>388.79998779297</ele>
        <time>2020-10-02T12:50:33.000Z</time>
      </trkpt>
      <trkpt lat="44.10082" lon="3.12806">
        <ele>389.79998779297</ele>
        <time>2020-10-02T12:50:39.000Z</time>
      </trkpt>
      <trkpt lat="44.10087" lon="3.12807">
        <ele>390.20001220703</ele>
        <time>2020-10-02T12:50:41.000Z</time>
      </trkpt>
      <trkpt lat="44.10096" lon="3.12822">
        <ele>390.79998779297</ele>
        <time>2020-10-02T12:50:47.000Z</time>
      </trkpt>
      <trkpt lat="44.10097" lon="3.12826">
        <ele>390.79998779297</ele>
        <time>2020-10-02T12:50:48.000Z</time>
      </trkpt>
      <trkpt lat="44.10104" lon="3.12855">
        <ele>391.79998779297</ele>
        <time>2020-10-02T12:50:56.000Z</time>
      </trkpt>
      <trkpt lat="44.10105" lon="3.12858">
        <ele>392</ele>
        <time>2020-10-02T12:50:57.000Z</time>
      </trkpt>
      <trkpt lat="44.10111" lon="3.12873">
        <ele>393.20001220703</ele>
        <time>2020-10-02T12:51:02.000Z</time>
      </trkpt>
      <trkpt lat="44.10113" lon="3.1288">
        <ele>393.39999389648</ele>
        <time>2020-10-02T12:51:04.000Z</time>
      </trkpt>
      <trkpt lat="44.10121" lon="3.12902">
        <ele>393.60000610352</ele>
        <time>2020-10-02T12:51:11.000Z</time>
      </trkpt>
      <trkpt lat="44.10132" lon="3.12916">
        <ele>393.60000610352</ele>
        <time>2020-10-02T12:51:15.000Z</time>
      </trkpt>
      <trkpt lat="44.10145" lon="3.12944">
        <ele>393.60000610352</ele>
        <time>2020-10-02T12:51:19.000Z</time>
      </trkpt>
      <trkpt lat="44.10147" lon="3.12953">
        <ele>393.39999389648</ele>
        <time>2020-10-02T12:51:20.000Z</time>
      </trkpt>
      <trkpt lat="44.10165" lon="3.12982">
        <ele>392.79998779297</ele>
        <time>2020-10-02T12:51:23.000Z</time>
      </trkpt>
      <trkpt lat="44.10181" lon="3.12999">
        <ele>391.20001220703</ele>
        <time>2020-10-02T12:51:25.000Z</time>
      </trkpt>
      <trkpt lat="44.10188" lon="3.1301">
        <ele>390.39999389648</ele>
        <time>2020-10-02T12:51:26.000Z</time>
      </trkpt>
      <trkpt lat="44.10195" lon="3.13018">
        <ele>389.79998779297</ele>
        <time>2020-10-02T12:51:27.000Z</time>
      </trkpt>
      <trkpt lat="44.102" lon="3.13024">
        <ele>388.79998779297</ele>
        <time>2020-10-02T12:51:28.000Z</time>
      </trkpt>
      <trkpt lat="44.10206" lon="3.13028">
        <ele>387.20001220703</ele>
        <time>2020-10-02T12:51:29.000Z</time>
      </trkpt>
      <trkpt lat="44.10208" lon="3.13028">
        <ele>386.20001220703</ele>
        <time>2020-10-02T12:51:30.000Z</time>
      </trkpt>
      <trkpt lat="44.10208" lon="3.13028">
        <ele>385</ele>
        <time>2020-10-02T12:51:31.000Z</time>
      </trkpt>
      <trkpt lat="44.10208" lon="3.13025">
        <ele>383.79998779297</ele>
        <time>2020-10-02T12:51:32.000Z</time>
      </trkpt>
      <trkpt lat="44.10204" lon="3.13018">
        <ele>382.20001220703</ele>
        <time>2020-10-02T12:51:34.000Z</time>
      </trkpt>
      <trkpt lat="44.10198" lon="3.1301">
        <ele>380.39999389648</ele>
        <time>2020-10-02T12:51:36.000Z</time>
      </trkpt>
      <trkpt lat="44.10186" lon="3.12996">
        <ele>379.39999389648</ele>
        <time>2020-10-02T12:51:39.000Z</time>
      </trkpt>
      <trkpt lat="44.10181" lon="3.12991">
        <ele>379.20001220703</ele>
        <time>2020-10-02T12:51:40.000Z</time>
      </trkpt>
      <trkpt lat="44.10173" lon="3.1298">
        <ele>379</ele>
        <time>2020-10-02T12:51:42.000Z</time>
      </trkpt>
      <trkpt lat="44.10174" lon="3.12967">
        <ele>378.39999389648</ele>
        <time>2020-10-02T12:51:45.000Z</time>
      </trkpt>
      <trkpt lat="44.1018" lon="3.12959">
        <ele>377.20001220703</ele>
        <time>2020-10-02T12:51:48.000Z</time>
      </trkpt>
      <trkpt lat="44.10185" lon="3.12951">
        <ele>376</ele>
        <time>2020-10-02T12:51:50.000Z</time>
      </trkpt>
      <trkpt lat="44.10189" lon="3.12944">
        <ele>374.60000610352</ele>
        <time>2020-10-02T12:51:52.000Z</time>
      </trkpt>
      <trkpt lat="44.10194" lon="3.12937">
        <ele>374.39999389648</ele>
        <time>2020-10-02T12:51:55.000Z</time>
      </trkpt>
      <trkpt lat="44.10207" lon="3.12935">
        <ele>374.20001220703</ele>
        <time>2020-10-02T12:51:58.000Z</time>
      </trkpt>
      <trkpt lat="44.10211" lon="3.12936">
        <ele>374.20001220703</ele>
        <time>2020-10-02T12:51:59.000Z</time>
      </trkpt>
      <trkpt lat="44.10226" lon="3.12933">
        <ele>373.79998779297</ele>
        <time>2020-10-02T12:52:04.000Z</time>
      </trkpt>
      <trkpt lat="44.10229" lon="3.12934">
        <ele>373.39999389648</ele>
        <time>2020-10-02T12:52:05.000Z</time>
      </trkpt>
      <trkpt lat="44.10244" lon="3.12943">
        <ele>372.79998779297</ele>
        <time>2020-10-02T12:52:10.000Z</time>
      </trkpt>
      <trkpt lat="44.10259" lon="3.12958">
        <ele>372.79998779297</ele>
        <time>2020-10-02T12:52:16.000Z</time>
      </trkpt>
      <trkpt lat="44.10261" lon="3.12961">
        <ele>372.79998779297</ele>
        <time>2020-10-02T12:52:18.000Z</time>
      </trkpt>
      <trkpt lat="44.10261" lon="3.12964">
        <ele>373</ele>
        <time>2020-10-02T12:52:20.000Z</time>
      </trkpt>
      <trkpt lat="44.10265" lon="3.12968">
        <ele>373</ele>
        <time>2020-10-02T12:52:25.000Z</time>
      </trkpt>
      <trkpt lat="44.10268" lon="3.12962">
        <ele>372.39999389648</ele>
        <time>2020-10-02T12:52:31.000Z</time>
      </trkpt>
      <trkpt lat="44.10268" lon="3.12962">
        <ele>372.39999389648</ele>
        <time>2020-10-02T12:52:32.000Z</time>
      </trkpt>
    </trkseg>
  </trk>
  <trk>
    <name><![CDATA[MILLAU J1 - La Roque-Sainte-Marguerite VTT]]></name>
    <trkseg>
      <trkpt lat="44.10739" lon="3.2172">
        <ele>704.20001220703</ele>
        <time>2020-10-02T15:06:10.000Z</time>
      </trkpt>
      <trkpt lat="44.1074" lon="3.21719">
        <ele>701.79998779297</ele>
        <time>2020-10-02T15:06:11.000Z</time>
      </trkpt>
      <trkpt lat="44.10742" lon="3.21717">
        <ele>700.59997558594</ele>
        <time>2020-10-02T15:06:12.000Z</time>
      </trkpt>
      <trkpt lat="44.10743" lon="3.21715">
        <ele>699.59997558594</ele>
        <time>2020-10-02T15:06:14.000Z</time>
      </trkpt>
      <trkpt lat="44.10743" lon="3.21714">
        <ele>699.20001220703</ele>
        <time>2020-10-02T15:06:22.000Z</time>
      </trkpt>
      <trkpt lat="44.10744" lon="3.21713">
        <ele>699.40002441406</ele>
        <time>2020-10-02T15:06:37.000Z</time>
      </trkpt>
      <trkpt lat="44.10746" lon="3.21712">
        <ele>699.20001220703</ele>
        <time>2020-10-02T15:06:54.000Z</time>
      </trkpt>
      <trkpt lat="44.10743" lon="3.21711">
        <ele>699.20001220703</ele>
        <time>2020-10-02T15:07:12.000Z</time>
      </trkpt>
      <trkpt lat="44.10739" lon="3.21711">
        <ele>699.20001220703</ele>
        <time>2020-10-02T15:07:14.000Z</time>
      </trkpt>
      <trkpt lat="44.1073" lon="3.21713">
        <ele>699.40002441406</ele>
        <time>2020-10-02T15:07:19.000Z</time>
      </trkpt>
      <trkpt lat="44.10717" lon="3.21722">
        <ele>699.59997558594</ele>
        <time>2020-10-02T15:07:25.000Z</time>
      </trkpt>
      <trkpt lat="44.10714" lon="3.21734">
        <ele>700.20001220703</ele>
        <time>2020-10-02T15:07:30.000Z</time>
      </trkpt>
      <trkpt lat="44.10721" lon="3.21742">
        <ele>700.20001220703</ele>
        <time>2020-10-02T15:07:35.000Z</time>
      </trkpt>
      <trkpt lat="44.10725" lon="3.21743">
        <ele>700.40002441406</ele>
        <time>2020-10-02T15:07:37.000Z</time>
      </trkpt>
      <trkpt lat="44.10739" lon="3.21743">
        <ele>700.59997558594</ele>
        <time>2020-10-02T15:07:42.000Z</time>
      </trkpt>
      <trkpt lat="44.10743" lon="3.21748">
        <ele>701</ele>
        <time>2020-10-02T15:07:44.000Z</time>
      </trkpt>
      <trkpt lat="44.10744" lon="3.21753">
        <ele>701.20001220703</ele>
        <time>2020-10-02T15:07:45.000Z</time>
      </trkpt>
      <trkpt lat="44.10743" lon="3.2177">
        <ele>701.40002441406</ele>
        <time>2020-10-02T15:07:49.000Z</time>
      </trkpt>
      <trkpt lat="44.10743" lon="3.21774">
        <ele>701.40002441406</ele>
        <time>2020-10-02T15:07:50.000Z</time>
      </trkpt>
      <trkpt lat="44.10742" lon="3.21779">
        <ele>702.40002441406</ele>
        <time>2020-10-02T15:07:53.000Z</time>
      </trkpt>
      <trkpt lat="44.10742" lon="3.21779">
        <ele>702.40002441406</ele>
        <time>2020-10-02T15:07:54.000Z</time>
      </trkpt>
      <trkpt lat="44.1074" lon="3.21784">
        <ele>702.40002441406</ele>
        <time>2020-10-02T15:08:02.000Z</time>
      </trkpt>
      <trkpt lat="44.10738" lon="3.21789">
        <ele>702</ele>
        <time>2020-10-02T15:08:09.000Z</time>
      </trkpt>
      <trkpt lat="44.10742" lon="3.21786">
        <ele>702</ele>
        <time>2020-10-02T15:08:14.000Z</time>
      </trkpt>
      <trkpt lat="44.10744" lon="3.21781">
        <ele>702</ele>
        <time>2020-10-02T15:08:20.000Z</time>
      </trkpt>
      <trkpt lat="44.10744" lon="3.21775">
        <ele>702.40002441406</ele>
        <time>2020-10-02T15:08:27.000Z</time>
      </trkpt>
      <trkpt lat="44.10746" lon="3.2176">
        <ele>702.40002441406</ele>
        <time>2020-10-02T15:08:31.000Z</time>
      </trkpt>
      <trkpt lat="44.1075" lon="3.2175">
        <ele>702.40002441406</ele>
        <time>2020-10-02T15:08:33.000Z</time>
      </trkpt>
      <trkpt lat="44.10755" lon="3.21749">
        <ele>702.40002441406</ele>
        <time>2020-10-02T15:08:34.000Z</time>
      </trkpt>
      <trkpt lat="44.10766" lon="3.21746">
        <ele>702.40002441406</ele>
        <time>2020-10-02T15:08:37.000Z</time>
      </trkpt>
      <trkpt lat="44.10773" lon="3.21745">
        <ele>702.40002441406</ele>
        <time>2020-10-02T15:08:39.000Z</time>
      </trkpt>
      <trkpt lat="44.10793" lon="3.2175">
        <ele>702.20001220703</ele>
        <time>2020-10-02T15:08:45.000Z</time>
      </trkpt>
      <trkpt lat="44.10797" lon="3.21758">
        <ele>702.20001220703</ele>
        <time>2020-10-02T15:08:49.000Z</time>
      </trkpt>
      <trkpt lat="44.108" lon="3.21781">
        <ele>702.40002441406</ele>
        <time>2020-10-02T15:08:54.000Z</time>
      </trkpt>
      <trkpt lat="44.10813" lon="3.21805">
        <ele>702.20001220703</ele>
        <time>2020-10-02T15:08:58.000Z</time>
      </trkpt>
      <trkpt lat="44.1083" lon="3.2183">
        <ele>702</ele>
        <time>2020-10-02T15:09:01.000Z</time>
      </trkpt>
      <trkpt lat="44.10834" lon="3.21839">
        <ele>701.79998779297</ele>
        <time>2020-10-02T15:09:02.000Z</time>
      </trkpt>
      <trkpt lat="44.10837" lon="3.21849">
        <ele>701.40002441406</ele>
        <time>2020-10-02T15:09:03.000Z</time>
      </trkpt>
      <trkpt lat="44.10842" lon="3.21867">
        <ele>700.40002441406</ele>
        <time>2020-10-02T15:09:05.000Z</time>
      </trkpt>
      <trkpt lat="44.10847" lon="3.21873">
        <ele>700</ele>
        <time>2020-10-02T15:09:06.000Z</time>
      </trkpt>
      <trkpt lat="44.10856" lon="3.21883">
        <ele>698.59997558594</ele>
        <time>2020-10-02T15:09:08.000Z</time>
      </trkpt>
      <trkpt lat="44.10862" lon="3.21887">
        <ele>697.40002441406</ele>
        <time>2020-10-02T15:09:09.000Z</time>
      </trkpt>
      <trkpt lat="44.10866" lon="3.21891">
        <ele>696.20001220703</ele>
        <time>2020-10-02T15:09:10.000Z</time>
      </trkpt>
      <trkpt lat="44.1087" lon="3.21894">
        <ele>695.20001220703</ele>
        <time>2020-10-02T15:09:11.000Z</time>
      </trkpt>
      <trkpt lat="44.10875" lon="3.21898">
        <ele>693.79998779297</ele>
        <time>2020-10-02T15:09:12.000Z</time>
      </trkpt>
      <trkpt lat="44.10883" lon="3.21904">
        <ele>692.79998779297</ele>
        <time>2020-10-02T15:09:14.000Z</time>
      </trkpt>
      <trkpt lat="44.10894" lon="3.21912">
        <ele>692.59997558594</ele>
        <time>2020-10-02T15:09:17.000Z</time>
      </trkpt>
      <trkpt lat="44.10905" lon="3.21927">
        <ele>692.59997558594</ele>
        <time>2020-10-02T15:09:22.000Z</time>
      </trkpt>
      <trkpt lat="44.10917" lon="3.21938">
        <ele>693.40002441406</ele>
        <time>2020-10-02T15:09:28.000Z</time>
      </trkpt>
      <trkpt lat="44.10921" lon="3.21943">
        <ele>693.79998779297</ele>
        <time>2020-10-02T15:09:31.000Z</time>
      </trkpt>
      <trkpt lat="44.10924" lon="3.21949">
        <ele>694.59997558594</ele>
        <time>2020-10-02T15:09:34.000Z</time>
      </trkpt>
      <trkpt lat="44.10925" lon="3.21955">
        <ele>695</ele>
        <time>2020-10-02T15:09:36.000Z</time>
      </trkpt>
      <trkpt lat="44.10932" lon="3.21966">
        <ele>695.59997558594</ele>
        <time>2020-10-02T15:09:40.000Z</time>
      </trkpt>
      <trkpt lat="44.10935" lon="3.21972">
        <ele>696</ele>
        <time>2020-10-02T15:09:42.000Z</time>
      </trkpt>
      <trkpt lat="44.10945" lon="3.21984">
        <ele>697.20001220703</ele>
        <time>2020-10-02T15:09:46.000Z</time>
      </trkpt>
      <trkpt lat="44.10952" lon="3.21992">
        <ele>698.20001220703</ele>
        <time>2020-10-02T15:09:49.000Z</time>
      </trkpt>
      <trkpt lat="44.10954" lon="3.21995">
        <ele>698.40002441406</ele>
        <time>2020-10-02T15:09:50.000Z</time>
      </trkpt>
      <trkpt lat="44.10962" lon="3.22011">
        <ele>699.59997558594</ele>
        <time>2020-10-02T15:09:55.000Z</time>
      </trkpt>
      <trkpt lat="44.10965" lon="3.2202">
        <ele>700.20001220703</ele>
        <time>2020-10-02T15:09:57.000Z</time>
      </trkpt>
      <trkpt lat="44.1097" lon="3.22032">
        <ele>700.59997558594</ele>
        <time>2020-10-02T15:10:00.000Z</time>
      </trkpt>
      <trkpt lat="44.10973" lon="3.22038">
        <ele>700.79998779297</ele>
        <time>2020-10-02T15:10:02.000Z</time>
      </trkpt>
      <trkpt lat="44.10985" lon="3.22049">
        <ele>701.20001220703</ele>
        <time>2020-10-02T15:10:07.000Z</time>
      </trkpt>
      <trkpt lat="44.11003" lon="3.22064">
        <ele>701.59997558594</ele>
        <time>2020-10-02T15:10:13.000Z</time>
      </trkpt>
      <trkpt lat="44.11017" lon="3.22073">
        <ele>702.20001220703</ele>
        <time>2020-10-02T15:10:16.000Z</time>
      </trkpt>
      <trkpt lat="44.11028" lon="3.22096">
        <ele>702.59997558594</ele>
        <time>2020-10-02T15:10:22.000Z</time>
      </trkpt>
      <trkpt lat="44.11027" lon="3.22105">
        <ele>702.79998779297</ele>
        <time>2020-10-02T15:10:25.000Z</time>
      </trkpt>
      <trkpt lat="44.11025" lon="3.22111">
        <ele>703</ele>
        <time>2020-10-02T15:10:27.000Z</time>
      </trkpt>
      <trkpt lat="44.11022" lon="3.22131">
        <ele>703.79998779297</ele>
        <time>2020-10-02T15:10:34.000Z</time>
      </trkpt>
      <trkpt lat="44.11022" lon="3.2214">
        <ele>705.20001220703</ele>
        <time>2020-10-02T15:10:37.000Z</time>
      </trkpt>
      <trkpt lat="44.11021" lon="3.22147">
        <ele>706</ele>
        <time>2020-10-02T15:10:40.000Z</time>
      </trkpt>
      <trkpt lat="44.11021" lon="3.22158">
        <ele>707</ele>
        <time>2020-10-02T15:10:44.000Z</time>
      </trkpt>
      <trkpt lat="44.11021" lon="3.22164">
        <ele>707.40002441406</ele>
        <time>2020-10-02T15:10:46.000Z</time>
      </trkpt>
      <trkpt lat="44.11019" lon="3.22177">
        <ele>708</ele>
        <time>2020-10-02T15:10:51.000Z</time>
      </trkpt>
      <trkpt lat="44.11019" lon="3.22179">
        <ele>708.59997558594</ele>
        <time>2020-10-02T15:10:52.000Z</time>
      </trkpt>
      <trkpt lat="44.11019" lon="3.22191">
        <ele>709.59997558594</ele>
        <time>2020-10-02T15:10:56.000Z</time>
      </trkpt>
      <trkpt lat="44.11018" lon="3.22201">
        <ele>710.59997558594</ele>
        <time>2020-10-02T15:11:00.000Z</time>
      </trkpt>
      <trkpt lat="44.11018" lon="3.22204">
        <ele>710.79998779297</ele>
        <time>2020-10-02T15:11:01.000Z</time>
      </trkpt>
      <trkpt lat="44.11017" lon="3.22206">
        <ele>711</ele>
        <time>2020-10-02T15:11:02.000Z</time>
      </trkpt>
      <trkpt lat="44.11016" lon="3.22216">
        <ele>712</ele>
        <time>2020-10-02T15:11:06.000Z</time>
      </trkpt>
      <trkpt lat="44.11017" lon="3.22232">
        <ele>713</ele>
        <time>2020-10-02T15:11:11.000Z</time>
      </trkpt>
      <trkpt lat="44.11017" lon="3.22244">
        <ele>714</ele>
        <time>2020-10-02T15:11:15.000Z</time>
      </trkpt>
      <trkpt lat="44.11015" lon="3.2226">
        <ele>715.40002441406</ele>
        <time>2020-10-02T15:11:20.000Z</time>
      </trkpt>
      <trkpt lat="44.11013" lon="3.22271">
        <ele>716.59997558594</ele>
        <time>2020-10-02T15:11:24.000Z</time>
      </trkpt>
      <trkpt lat="44.11012" lon="3.22274">
        <ele>716.79998779297</ele>
        <time>2020-10-02T15:11:25.000Z</time>
      </trkpt>
      <trkpt lat="44.1101" lon="3.22289">
        <ele>717.59997558594</ele>
        <time>2020-10-02T15:11:30.000Z</time>
      </trkpt>
      <trkpt lat="44.11009" lon="3.22296">
        <ele>718</ele>
        <time>2020-10-02T15:11:32.000Z</time>
      </trkpt>
      <trkpt lat="44.11008" lon="3.2231">
        <ele>718.79998779297</ele>
        <time>2020-10-02T15:11:37.000Z</time>
      </trkpt>
      <trkpt lat="44.11008" lon="3.22323">
        <ele>720</ele>
        <time>2020-10-02T15:11:42.000Z</time>
      </trkpt>
      <trkpt lat="44.11008" lon="3.22325">
        <ele>720.20001220703</ele>
        <time>2020-10-02T15:11:43.000Z</time>
      </trkpt>
      <trkpt lat="44.11006" lon="3.22337">
        <ele>721.20001220703</ele>
        <time>2020-10-02T15:11:48.000Z</time>
      </trkpt>
      <trkpt lat="44.11004" lon="3.22348">
        <ele>722.20001220703</ele>
        <time>2020-10-02T15:11:52.000Z</time>
      </trkpt>
      <trkpt lat="44.11004" lon="3.22351">
        <ele>722.40002441406</ele>
        <time>2020-10-02T15:11:53.000Z</time>
      </trkpt>
      <trkpt lat="44.11002" lon="3.22366">
        <ele>723.40002441406</ele>
        <time>2020-10-02T15:11:58.000Z</time>
      </trkpt>
      <trkpt lat="44.11001" lon="3.22377">
        <ele>724.20001220703</ele>
        <time>2020-10-02T15:12:02.000Z</time>
      </trkpt>
      <trkpt lat="44.11001" lon="3.22382">
        <ele>724.59997558594</ele>
        <time>2020-10-02T15:12:04.000Z</time>
      </trkpt>
      <trkpt lat="44.11" lon="3.22398">
        <ele>725.79998779297</ele>
        <time>2020-10-02T15:12:10.000Z</time>
      </trkpt>
      <trkpt lat="44.11" lon="3.22401">
        <ele>726</ele>
        <time>2020-10-02T15:12:11.000Z</time>
      </trkpt>
      <trkpt lat="44.10998" lon="3.2241">
        <ele>726.79998779297</ele>
        <time>2020-10-02T15:12:15.000Z</time>
      </trkpt>
      <trkpt lat="44.10997" lon="3.22418">
        <ele>728</ele>
        <time>2020-10-02T15:12:18.000Z</time>
      </trkpt>
      <trkpt lat="44.10997" lon="3.22421">
        <ele>728.20001220703</ele>
        <time>2020-10-02T15:12:19.000Z</time>
      </trkpt>
      <trkpt lat="44.10994" lon="3.22434">
        <ele>729</ele>
        <time>2020-10-02T15:12:24.000Z</time>
      </trkpt>
      <trkpt lat="44.10993" lon="3.22446">
        <ele>729.79998779297</ele>
        <time>2020-10-02T15:12:29.000Z</time>
      </trkpt>
      <trkpt lat="44.10993" lon="3.22453">
        <ele>730.40002441406</ele>
        <time>2020-10-02T15:12:32.000Z</time>
      </trkpt>
      <trkpt lat="44.10992" lon="3.22463">
        <ele>731.40002441406</ele>
        <time>2020-10-02T15:12:37.000Z</time>
      </trkpt>
      <trkpt lat="44.10991" lon="3.22471">
        <ele>732</ele>
        <time>2020-10-02T15:12:40.000Z</time>
      </trkpt>
      <trkpt lat="44.10991" lon="3.22472">
        <ele>732.20001220703</ele>
        <time>2020-10-02T15:12:41.000Z</time>
      </trkpt>
      <trkpt lat="44.1099" lon="3.22473">
        <ele>732.40002441406</ele>
        <time>2020-10-02T15:12:42.000Z</time>
      </trkpt>
      <trkpt lat="44.10989" lon="3.22478">
        <ele>733</ele>
        <time>2020-10-02T15:12:45.000Z</time>
      </trkpt>
      <trkpt lat="44.10989" lon="3.2248">
        <ele>733.59997558594</ele>
        <time>2020-10-02T15:12:47.000Z</time>
      </trkpt>
      <trkpt lat="44.10985" lon="3.22483">
        <ele>734.40002441406</ele>
        <time>2020-10-02T15:12:51.000Z</time>
      </trkpt>
      <trkpt lat="44.10984" lon="3.22483">
        <ele>734.79998779297</ele>
        <time>2020-10-02T15:12:52.000Z</time>
      </trkpt>
      <trkpt lat="44.10984" lon="3.22487">
        <ele>735.40002441406</ele>
        <time>2020-10-02T15:12:55.000Z</time>
      </trkpt>
      <trkpt lat="44.10985" lon="3.2249">
        <ele>735.79998779297</ele>
        <time>2020-10-02T15:12:57.000Z</time>
      </trkpt>
      <trkpt lat="44.10987" lon="3.22502">
        <ele>737</ele>
        <time>2020-10-02T15:13:02.000Z</time>
      </trkpt>
      <trkpt lat="44.10988" lon="3.22503">
        <ele>737.20001220703</ele>
        <time>2020-10-02T15:13:03.000Z</time>
      </trkpt>
      <trkpt lat="44.1099" lon="3.22512">
        <ele>738</ele>
        <time>2020-10-02T15:13:07.000Z</time>
      </trkpt>
      <trkpt lat="44.1099" lon="3.22517">
        <ele>738.20001220703</ele>
        <time>2020-10-02T15:13:09.000Z</time>
      </trkpt>
      <trkpt lat="44.10989" lon="3.22522">
        <ele>739</ele>
        <time>2020-10-02T15:13:12.000Z</time>
      </trkpt>
      <trkpt lat="44.10989" lon="3.22532">
        <ele>740</ele>
        <time>2020-10-02T15:13:16.000Z</time>
      </trkpt>
      <trkpt lat="44.10989" lon="3.22539">
        <ele>740.59997558594</ele>
        <time>2020-10-02T15:13:18.000Z</time>
      </trkpt>
      <trkpt lat="44.10989" lon="3.22543">
        <ele>741.20001220703</ele>
        <time>2020-10-02T15:13:20.000Z</time>
      </trkpt>
      <trkpt lat="44.10986" lon="3.22562">
        <ele>742.40002441406</ele>
        <time>2020-10-02T15:13:28.000Z</time>
      </trkpt>
      <trkpt lat="44.10983" lon="3.22573">
        <ele>743.59997558594</ele>
        <time>2020-10-02T15:13:34.000Z</time>
      </trkpt>
      <trkpt lat="44.10983" lon="3.22576">
        <ele>744</ele>
        <time>2020-10-02T15:13:36.000Z</time>
      </trkpt>
      <trkpt lat="44.1098" lon="3.22579">
        <ele>744.20001220703</ele>
        <time>2020-10-02T15:13:39.000Z</time>
      </trkpt>
      <trkpt lat="44.10978" lon="3.22583">
        <ele>744.59997558594</ele>
        <time>2020-10-02T15:13:42.000Z</time>
      </trkpt>
      <trkpt lat="44.10978" lon="3.22584">
        <ele>744.59997558594</ele>
        <time>2020-10-02T15:13:43.000Z</time>
      </trkpt>
      <trkpt lat="44.10975" lon="3.22595">
        <ele>744.59997558594</ele>
        <time>2020-10-02T15:13:50.000Z</time>
      </trkpt>
      <trkpt lat="44.10972" lon="3.226">
        <ele>744.59997558594</ele>
        <time>2020-10-02T15:13:54.000Z</time>
      </trkpt>
      <trkpt lat="44.1097" lon="3.22601">
        <ele>744.59997558594</ele>
        <time>2020-10-02T15:13:56.000Z</time>
      </trkpt>
      <trkpt lat="44.10967" lon="3.22612">
        <ele>745</ele>
        <time>2020-10-02T15:14:05.000Z</time>
      </trkpt>
      <trkpt lat="44.10964" lon="3.22623">
        <ele>745.40002441406</ele>
        <time>2020-10-02T15:14:11.000Z</time>
      </trkpt>
      <trkpt lat="44.10963" lon="3.22627">
        <ele>745.59997558594</ele>
        <time>2020-10-02T15:14:14.000Z</time>
      </trkpt>
      <trkpt lat="44.10963" lon="3.22628">
        <ele>745.59997558594</ele>
        <time>2020-10-02T15:14:15.000Z</time>
      </trkpt>
      <trkpt lat="44.10963" lon="3.22631">
        <ele>745.79998779297</ele>
        <time>2020-10-02T15:14:17.000Z</time>
      </trkpt>
      <trkpt lat="44.10962" lon="3.22635">
        <ele>746</ele>
        <time>2020-10-02T15:14:19.000Z</time>
      </trkpt>
      <trkpt lat="44.10961" lon="3.22638">
        <ele>746.40002441406</ele>
        <time>2020-10-02T15:14:21.000Z</time>
      </trkpt>
      <trkpt lat="44.1096" lon="3.22646">
        <ele>747</ele>
        <time>2020-10-02T15:14:25.000Z</time>
      </trkpt>
      <trkpt lat="44.10962" lon="3.22655">
        <ele>747.59997558594</ele>
        <time>2020-10-02T15:14:28.000Z</time>
      </trkpt>
      <trkpt lat="44.10963" lon="3.2266">
        <ele>748</ele>
        <time>2020-10-02T15:14:30.000Z</time>
      </trkpt>
      <trkpt lat="44.10967" lon="3.22674">
        <ele>749</ele>
        <time>2020-10-02T15:14:34.000Z</time>
      </trkpt>
      <trkpt lat="44.10967" lon="3.22678">
        <ele>749.20001220703</ele>
        <time>2020-10-02T15:14:35.000Z</time>
      </trkpt>
      <trkpt lat="44.10965" lon="3.22685">
        <ele>749.59997558594</ele>
        <time>2020-10-02T15:14:37.000Z</time>
      </trkpt>
      <trkpt lat="44.1096" lon="3.22698">
        <ele>750.40002441406</ele>
        <time>2020-10-02T15:14:42.000Z</time>
      </trkpt>
      <trkpt lat="44.10953" lon="3.22711">
        <ele>751.20001220703</ele>
        <time>2020-10-02T15:14:48.000Z</time>
      </trkpt>
      <trkpt lat="44.10948" lon="3.22716">
        <ele>751.59997558594</ele>
        <time>2020-10-02T15:14:51.000Z</time>
      </trkpt>
      <trkpt lat="44.10939" lon="3.2273">
        <ele>752.40002441406</ele>
        <time>2020-10-02T15:14:59.000Z</time>
      </trkpt>
      <trkpt lat="44.10936" lon="3.22734">
        <ele>752.79998779297</ele>
        <time>2020-10-02T15:15:01.000Z</time>
      </trkpt>
      <trkpt lat="44.10927" lon="3.22747">
        <ele>753.79998779297</ele>
        <time>2020-10-02T15:15:08.000Z</time>
      </trkpt>
      <trkpt lat="44.10923" lon="3.22752">
        <ele>754.20001220703</ele>
        <time>2020-10-02T15:15:11.000Z</time>
      </trkpt>
      <trkpt lat="44.10913" lon="3.22759">
        <ele>754.79998779297</ele>
        <time>2020-10-02T15:15:17.000Z</time>
      </trkpt>
      <trkpt lat="44.10905" lon="3.22766">
        <ele>755.59997558594</ele>
        <time>2020-10-02T15:15:22.000Z</time>
      </trkpt>
      <trkpt lat="44.109" lon="3.22772">
        <ele>756</ele>
        <time>2020-10-02T15:15:26.000Z</time>
      </trkpt>
      <trkpt lat="44.10897" lon="3.22777">
        <ele>756.40002441406</ele>
        <time>2020-10-02T15:15:31.000Z</time>
      </trkpt>
      <trkpt lat="44.1089" lon="3.22793">
        <ele>757</ele>
        <time>2020-10-02T15:15:47.000Z</time>
      </trkpt>
      <trkpt lat="44.10893" lon="3.22797">
        <ele>757</ele>
        <time>2020-10-02T15:15:59.000Z</time>
      </trkpt>
      <trkpt lat="44.10893" lon="3.22799">
        <ele>757</ele>
        <time>2020-10-02T15:16:12.000Z</time>
      </trkpt>
      <trkpt lat="44.10892" lon="3.228">
        <ele>757.20001220703</ele>
        <time>2020-10-02T15:16:34.000Z</time>
      </trkpt>
      <trkpt lat="44.10886" lon="3.22806">
        <ele>757.20001220703</ele>
        <time>2020-10-02T15:16:43.000Z</time>
      </trkpt>
      <trkpt lat="44.10876" lon="3.22824">
        <ele>756.79998779297</ele>
        <time>2020-10-02T15:16:50.000Z</time>
      </trkpt>
      <trkpt lat="44.10861" lon="3.22858">
        <ele>755.59997558594</ele>
        <time>2020-10-02T15:16:58.000Z</time>
      </trkpt>
      <trkpt lat="44.10859" lon="3.22863">
        <ele>755.40002441406</ele>
        <time>2020-10-02T15:16:59.000Z</time>
      </trkpt>
      <trkpt lat="44.10853" lon="3.2289">
        <ele>754.59997558594</ele>
        <time>2020-10-02T15:17:04.000Z</time>
      </trkpt>
      <trkpt lat="44.10853" lon="3.22896">
        <ele>754.40002441406</ele>
        <time>2020-10-02T15:17:05.000Z</time>
      </trkpt>
      <trkpt lat="44.10853" lon="3.22902">
        <ele>754</ele>
        <time>2020-10-02T15:17:06.000Z</time>
      </trkpt>
      <trkpt lat="44.10852" lon="3.22923">
        <ele>753.59997558594</ele>
        <time>2020-10-02T15:17:09.000Z</time>
      </trkpt>
      <trkpt lat="44.10852" lon="3.22951">
        <ele>752.20001220703</ele>
        <time>2020-10-02T15:17:13.000Z</time>
      </trkpt>
      <trkpt lat="44.10853" lon="3.22957">
        <ele>751.79998779297</ele>
        <time>2020-10-02T15:17:14.000Z</time>
      </trkpt>
      <trkpt lat="44.10853" lon="3.22973">
        <ele>751.20001220703</ele>
        <time>2020-10-02T15:17:17.000Z</time>
      </trkpt>
      <trkpt lat="44.10853" lon="3.22986">
        <ele>750.79998779297</ele>
        <time>2020-10-02T15:17:20.000Z</time>
      </trkpt>
      <trkpt lat="44.10849" lon="3.2301">
        <ele>750.79998779297</ele>
        <time>2020-10-02T15:17:27.000Z</time>
      </trkpt>
      <trkpt lat="44.10842" lon="3.23036">
        <ele>751.79998779297</ele>
        <time>2020-10-02T15:17:35.000Z</time>
      </trkpt>
      <trkpt lat="44.1084" lon="3.23051">
        <ele>752.40002441406</ele>
        <time>2020-10-02T15:17:39.000Z</time>
      </trkpt>
      <trkpt lat="44.10833" lon="3.23076">
        <ele>753</ele>
        <time>2020-10-02T15:17:46.000Z</time>
      </trkpt>
      <trkpt lat="44.10828" lon="3.23096">
        <ele>753.40002441406</ele>
        <time>2020-10-02T15:17:52.000Z</time>
      </trkpt>
      <trkpt lat="44.10825" lon="3.23108">
        <ele>753.79998779297</ele>
        <time>2020-10-02T15:17:56.000Z</time>
      </trkpt>
      <trkpt lat="44.10821" lon="3.23119">
        <ele>754.59997558594</ele>
        <time>2020-10-02T15:18:00.000Z</time>
      </trkpt>
      <trkpt lat="44.1082" lon="3.23129">
        <ele>755.79998779297</ele>
        <time>2020-10-02T15:18:04.000Z</time>
      </trkpt>
      <trkpt lat="44.1082" lon="3.23136">
        <ele>756.20001220703</ele>
        <time>2020-10-02T15:18:07.000Z</time>
      </trkpt>
      <trkpt lat="44.10819" lon="3.23144">
        <ele>756.79998779297</ele>
        <time>2020-10-02T15:18:10.000Z</time>
      </trkpt>
      <trkpt lat="44.10818" lon="3.23157">
        <ele>757.79998779297</ele>
        <time>2020-10-02T15:18:15.000Z</time>
      </trkpt>
      <trkpt lat="44.10818" lon="3.23161">
        <ele>758.20001220703</ele>
        <time>2020-10-02T15:18:17.000Z</time>
      </trkpt>
      <trkpt lat="44.10818" lon="3.23168">
        <ele>759.20001220703</ele>
        <time>2020-10-02T15:18:20.000Z</time>
      </trkpt>
      <trkpt lat="44.10815" lon="3.23175">
        <ele>760.20001220703</ele>
        <time>2020-10-02T15:18:24.000Z</time>
      </trkpt>
      <trkpt lat="44.10814" lon="3.23179">
        <ele>760.59997558594</ele>
        <time>2020-10-02T15:18:26.000Z</time>
      </trkpt>
      <trkpt lat="44.10813" lon="3.23185">
        <ele>761.20001220703</ele>
        <time>2020-10-02T15:18:29.000Z</time>
      </trkpt>
      <trkpt lat="44.10812" lon="3.23192">
        <ele>762.40002441406</ele>
        <time>2020-10-02T15:18:32.000Z</time>
      </trkpt>
      <trkpt lat="44.10813" lon="3.232">
        <ele>763.40002441406</ele>
        <time>2020-10-02T15:18:36.000Z</time>
      </trkpt>
      <trkpt lat="44.10813" lon="3.23202">
        <ele>763.59997558594</ele>
        <time>2020-10-02T15:18:37.000Z</time>
      </trkpt>
      <trkpt lat="44.10811" lon="3.23206">
        <ele>764.59997558594</ele>
        <time>2020-10-02T15:18:41.000Z</time>
      </trkpt>
      <trkpt lat="44.10809" lon="3.23206">
        <ele>765</ele>
        <time>2020-10-02T15:18:42.000Z</time>
      </trkpt>
      <trkpt lat="44.10807" lon="3.23208">
        <ele>765.79998779297</ele>
        <time>2020-10-02T15:18:44.000Z</time>
      </trkpt>
      <trkpt lat="44.10805" lon="3.23217">
        <ele>767</ele>
        <time>2020-10-02T15:18:48.000Z</time>
      </trkpt>
      <trkpt lat="44.10805" lon="3.23225">
        <ele>768</ele>
        <time>2020-10-02T15:18:52.000Z</time>
      </trkpt>
      <trkpt lat="44.10806" lon="3.23227">
        <ele>768.20001220703</ele>
        <time>2020-10-02T15:18:53.000Z</time>
      </trkpt>
      <trkpt lat="44.10806" lon="3.2323">
        <ele>768.40002441406</ele>
        <time>2020-10-02T15:18:54.000Z</time>
      </trkpt>
      <trkpt lat="44.10806" lon="3.23239">
        <ele>769.40002441406</ele>
        <time>2020-10-02T15:18:59.000Z</time>
      </trkpt>
      <trkpt lat="44.10804" lon="3.23242">
        <ele>770.20001220703</ele>
        <time>2020-10-02T15:19:01.000Z</time>
      </trkpt>
      <trkpt lat="44.10802" lon="3.23243">
        <ele>770.59997558594</ele>
        <time>2020-10-02T15:19:03.000Z</time>
      </trkpt>
      <trkpt lat="44.10801" lon="3.23246">
        <ele>771</ele>
        <time>2020-10-02T15:19:06.000Z</time>
      </trkpt>
      <trkpt lat="44.10801" lon="3.23251">
        <ele>771.59997558594</ele>
        <time>2020-10-02T15:19:10.000Z</time>
      </trkpt>
      <trkpt lat="44.10803" lon="3.23253">
        <ele>771.79998779297</ele>
        <time>2020-10-02T15:19:12.000Z</time>
      </trkpt>
      <trkpt lat="44.10804" lon="3.23258">
        <ele>772.79998779297</ele>
        <time>2020-10-02T15:19:17.000Z</time>
      </trkpt>
      <trkpt lat="44.10804" lon="3.23262">
        <ele>773.20001220703</ele>
        <time>2020-10-02T15:19:20.000Z</time>
      </trkpt>
      <trkpt lat="44.10804" lon="3.23267">
        <ele>773.59997558594</ele>
        <time>2020-10-02T15:19:22.000Z</time>
      </trkpt>
      <trkpt lat="44.10803" lon="3.23269">
        <ele>774</ele>
        <time>2020-10-02T15:19:23.000Z</time>
      </trkpt>
      <trkpt lat="44.10803" lon="3.23282">
        <ele>775</ele>
        <time>2020-10-02T15:19:28.000Z</time>
      </trkpt>
      <trkpt lat="44.10803" lon="3.23286">
        <ele>775.59997558594</ele>
        <time>2020-10-02T15:19:30.000Z</time>
      </trkpt>
      <trkpt lat="44.10801" lon="3.2329">
        <ele>776.20001220703</ele>
        <time>2020-10-02T15:19:34.000Z</time>
      </trkpt>
      <trkpt lat="44.10802" lon="3.23291">
        <ele>776.40002441406</ele>
        <time>2020-10-02T15:19:35.000Z</time>
      </trkpt>
      <trkpt lat="44.10804" lon="3.23295">
        <ele>777</ele>
        <time>2020-10-02T15:19:39.000Z</time>
      </trkpt>
      <trkpt lat="44.10805" lon="3.23297">
        <ele>777.20001220703</ele>
        <time>2020-10-02T15:19:41.000Z</time>
      </trkpt>
      <trkpt lat="44.10803" lon="3.23307">
        <ele>777.40002441406</ele>
        <time>2020-10-02T15:19:44.000Z</time>
      </trkpt>
      <trkpt lat="44.10803" lon="3.2331">
        <ele>777.40002441406</ele>
        <time>2020-10-02T15:19:45.000Z</time>
      </trkpt>
      <trkpt lat="44.10803" lon="3.23314">
        <ele>777.59997558594</ele>
        <time>2020-10-02T15:19:46.000Z</time>
      </trkpt>
      <trkpt lat="44.10803" lon="3.23333">
        <ele>778.40002441406</ele>
        <time>2020-10-02T15:19:53.000Z</time>
      </trkpt>
      <trkpt lat="44.10803" lon="3.23336">
        <ele>778.79998779297</ele>
        <time>2020-10-02T15:19:54.000Z</time>
      </trkpt>
      <trkpt lat="44.10806" lon="3.23349">
        <ele>779.59997558594</ele>
        <time>2020-10-02T15:19:59.000Z</time>
      </trkpt>
      <trkpt lat="44.10809" lon="3.23358">
        <ele>780.40002441406</ele>
        <time>2020-10-02T15:20:03.000Z</time>
      </trkpt>
      <trkpt lat="44.10811" lon="3.23362">
        <ele>780.79998779297</ele>
        <time>2020-10-02T15:20:05.000Z</time>
      </trkpt>
      <trkpt lat="44.10811" lon="3.23379">
        <ele>781.20001220703</ele>
        <time>2020-10-02T15:20:10.000Z</time>
      </trkpt>
      <trkpt lat="44.1081" lon="3.23381">
        <ele>781.40002441406</ele>
        <time>2020-10-02T15:20:11.000Z</time>
      </trkpt>
      <trkpt lat="44.10808" lon="3.23387">
        <ele>781.79998779297</ele>
        <time>2020-10-02T15:20:13.000Z</time>
      </trkpt>
      <trkpt lat="44.10807" lon="3.23389">
        <ele>781.79998779297</ele>
        <time>2020-10-02T15:20:14.000Z</time>
      </trkpt>
      <trkpt lat="44.10808" lon="3.23395">
        <ele>782</ele>
        <time>2020-10-02T15:20:16.000Z</time>
      </trkpt>
      <trkpt lat="44.10806" lon="3.23407">
        <ele>782.79998779297</ele>
        <time>2020-10-02T15:20:21.000Z</time>
      </trkpt>
      <trkpt lat="44.10805" lon="3.23407">
        <ele>783.59997558594</ele>
        <time>2020-10-02T15:20:24.000Z</time>
      </trkpt>
      <trkpt lat="44.10804" lon="3.23408">
        <ele>784</ele>
        <time>2020-10-02T15:20:26.000Z</time>
      </trkpt>
      <trkpt lat="44.10805" lon="3.23415">
        <ele>784.59997558594</ele>
        <time>2020-10-02T15:20:29.000Z</time>
      </trkpt>
      <trkpt lat="44.10805" lon="3.23422">
        <ele>785.20001220703</ele>
        <time>2020-10-02T15:20:31.000Z</time>
      </trkpt>
      <trkpt lat="44.10805" lon="3.23425">
        <ele>785.40002441406</ele>
        <time>2020-10-02T15:20:32.000Z</time>
      </trkpt>
      <trkpt lat="44.10805" lon="3.23439">
        <ele>786.20001220703</ele>
        <time>2020-10-02T15:20:36.000Z</time>
      </trkpt>
      <trkpt lat="44.10807" lon="3.23452">
        <ele>787</ele>
        <time>2020-10-02T15:20:41.000Z</time>
      </trkpt>
      <trkpt lat="44.10806" lon="3.23457">
        <ele>787.40002441406</ele>
        <time>2020-10-02T15:20:43.000Z</time>
      </trkpt>
      <trkpt lat="44.10803" lon="3.23466">
        <ele>788</ele>
        <time>2020-10-02T15:20:47.000Z</time>
      </trkpt>
      <trkpt lat="44.10803" lon="3.23474">
        <ele>788.40002441406</ele>
        <time>2020-10-02T15:20:50.000Z</time>
      </trkpt>
      <trkpt lat="44.10806" lon="3.23483">
        <ele>789.40002441406</ele>
        <time>2020-10-02T15:20:55.000Z</time>
      </trkpt>
      <trkpt lat="44.1081" lon="3.23481">
        <ele>790.20001220703</ele>
        <time>2020-10-02T15:21:01.000Z</time>
      </trkpt>
      <trkpt lat="44.10808" lon="3.23475">
        <ele>790.20001220703</ele>
        <time>2020-10-02T15:21:09.000Z</time>
      </trkpt>
      <trkpt lat="44.10809" lon="3.23477">
        <ele>790.20001220703</ele>
        <time>2020-10-02T15:21:14.000Z</time>
      </trkpt>
      <trkpt lat="44.10808" lon="3.23477">
        <ele>790</ele>
        <time>2020-10-02T15:21:25.000Z</time>
      </trkpt>
      <trkpt lat="44.10811" lon="3.23485">
        <ele>790</ele>
        <time>2020-10-02T15:21:38.000Z</time>
      </trkpt>
      <trkpt lat="44.10812" lon="3.23485">
        <ele>790</ele>
        <time>2020-10-02T15:21:53.000Z</time>
      </trkpt>
      <trkpt lat="44.10816" lon="3.23485">
        <ele>789.79998779297</ele>
        <time>2020-10-02T15:22:06.000Z</time>
      </trkpt>
      <trkpt lat="44.10812" lon="3.23486">
        <ele>789.59997558594</ele>
        <time>2020-10-02T15:22:19.000Z</time>
      </trkpt>
      <trkpt lat="44.10811" lon="3.23476">
        <ele>789.59997558594</ele>
        <time>2020-10-02T15:22:31.000Z</time>
      </trkpt>
      <trkpt lat="44.10811" lon="3.23474">
        <ele>789.40002441406</ele>
        <time>2020-10-02T15:22:47.000Z</time>
      </trkpt>
      <trkpt lat="44.1081" lon="3.23474">
        <ele>789.20001220703</ele>
        <time>2020-10-02T15:23:03.000Z</time>
      </trkpt>
      <trkpt lat="44.10811" lon="3.23473">
        <ele>788.79998779297</ele>
        <time>2020-10-02T15:23:11.000Z</time>
      </trkpt>
      <trkpt lat="44.10817" lon="3.23473">
        <ele>788.59997558594</ele>
        <time>2020-10-02T15:23:18.000Z</time>
      </trkpt>
      <trkpt lat="44.10818" lon="3.23474">
        <ele>788.59997558594</ele>
        <time>2020-10-02T15:23:19.000Z</time>
      </trkpt>
      <trkpt lat="44.10832" lon="3.23492">
        <ele>788.40002441406</ele>
        <time>2020-10-02T15:23:24.000Z</time>
      </trkpt>
      <trkpt lat="44.10838" lon="3.23502">
        <ele>788.40002441406</ele>
        <time>2020-10-02T15:23:26.000Z</time>
      </trkpt>
      <trkpt lat="44.10851" lon="3.2352">
        <ele>787.79998779297</ele>
        <time>2020-10-02T15:23:30.000Z</time>
      </trkpt>
      <trkpt lat="44.10858" lon="3.23527">
        <ele>787.20001220703</ele>
        <time>2020-10-02T15:23:32.000Z</time>
      </trkpt>
      <trkpt lat="44.10873" lon="3.23527">
        <ele>786.59997558594</ele>
        <time>2020-10-02T15:23:36.000Z</time>
      </trkpt>
      <trkpt lat="44.10876" lon="3.23527">
        <ele>786.79998779297</ele>
        <time>2020-10-02T15:23:37.000Z</time>
      </trkpt>
      <trkpt lat="44.10899" lon="3.23532">
        <ele>786.20001220703</ele>
        <time>2020-10-02T15:23:43.000Z</time>
      </trkpt>
      <trkpt lat="44.10914" lon="3.23533">
        <ele>785.79998779297</ele>
        <time>2020-10-02T15:23:46.000Z</time>
      </trkpt>
      <trkpt lat="44.10926" lon="3.23531">
        <ele>785.20001220703</ele>
        <time>2020-10-02T15:23:48.000Z</time>
      </trkpt>
      <trkpt lat="44.1093" lon="3.23531">
        <ele>784.79998779297</ele>
        <time>2020-10-02T15:23:49.000Z</time>
      </trkpt>
      <trkpt lat="44.10935" lon="3.23532">
        <ele>784.20001220703</ele>
        <time>2020-10-02T15:23:51.000Z</time>
      </trkpt>
      <trkpt lat="44.10936" lon="3.23534">
        <ele>783.59997558594</ele>
        <time>2020-10-02T15:23:52.000Z</time>
      </trkpt>
      <trkpt lat="44.10936" lon="3.23535">
        <ele>782.40002441406</ele>
        <time>2020-10-02T15:23:54.000Z</time>
      </trkpt>
      <trkpt lat="44.10937" lon="3.23535">
        <ele>782</ele>
        <time>2020-10-02T15:23:55.000Z</time>
      </trkpt>
      <trkpt lat="44.10937" lon="3.23535">
        <ele>781.20001220703</ele>
        <time>2020-10-02T15:23:57.000Z</time>
      </trkpt>
      <trkpt lat="44.10937" lon="3.23535">
        <ele>780.20001220703</ele>
        <time>2020-10-02T15:24:02.000Z</time>
      </trkpt>
      <trkpt lat="44.10937" lon="3.23535">
        <ele>780</ele>
        <time>2020-10-02T15:24:09.000Z</time>
      </trkpt>
      <trkpt lat="44.10937" lon="3.23535">
        <ele>780</ele>
        <time>2020-10-02T15:24:39.000Z</time>
      </trkpt>
      <trkpt lat="44.10937" lon="3.23535">
        <ele>779.79998779297</ele>
        <time>2020-10-02T15:25:00.000Z</time>
      </trkpt>
      <trkpt lat="44.10937" lon="3.23534">
        <ele>779.79998779297</ele>
        <time>2020-10-02T15:25:29.000Z</time>
      </trkpt>
      <trkpt lat="44.10937" lon="3.23535">
        <ele>779.79998779297</ele>
        <time>2020-10-02T15:26:02.000Z</time>
      </trkpt>
      <trkpt lat="44.10938" lon="3.23537">
        <ele>780</ele>
        <time>2020-10-02T15:26:33.000Z</time>
      </trkpt>
      <trkpt lat="44.10941" lon="3.23544">
        <ele>780</ele>
        <time>2020-10-02T15:26:45.000Z</time>
      </trkpt>
      <trkpt lat="44.10946" lon="3.23562">
        <ele>779.79998779297</ele>
        <time>2020-10-02T15:26:51.000Z</time>
      </trkpt>
      <trkpt lat="44.10951" lon="3.2359">
        <ele>779.40002441406</ele>
        <time>2020-10-02T15:26:56.000Z</time>
      </trkpt>
      <trkpt lat="44.10952" lon="3.23596">
        <ele>779.20001220703</ele>
        <time>2020-10-02T15:26:57.000Z</time>
      </trkpt>
      <trkpt lat="44.10955" lon="3.2362">
        <ele>778.20001220703</ele>
        <time>2020-10-02T15:27:01.000Z</time>
      </trkpt>
      <trkpt lat="44.10958" lon="3.23642">
        <ele>777</ele>
        <time>2020-10-02T15:27:05.000Z</time>
      </trkpt>
      <trkpt lat="44.10962" lon="3.23666">
        <ele>776</ele>
        <time>2020-10-02T15:27:09.000Z</time>
      </trkpt>
      <trkpt lat="44.10962" lon="3.23676">
        <ele>775.59997558594</ele>
        <time>2020-10-02T15:27:11.000Z</time>
      </trkpt>
      <trkpt lat="44.10965" lon="3.23707">
        <ele>775.40002441406</ele>
        <time>2020-10-02T15:27:17.000Z</time>
      </trkpt>
      <trkpt lat="44.10958" lon="3.23735">
        <ele>775.59997558594</ele>
        <time>2020-10-02T15:27:25.000Z</time>
      </trkpt>
      <trkpt lat="44.1095" lon="3.23776">
        <ele>776.20001220703</ele>
        <time>2020-10-02T15:27:35.000Z</time>
      </trkpt>
      <trkpt lat="44.10947" lon="3.23806">
        <ele>777.20001220703</ele>
        <time>2020-10-02T15:27:44.000Z</time>
      </trkpt>
      <trkpt lat="44.10946" lon="3.23809">
        <ele>777.40002441406</ele>
        <time>2020-10-02T15:27:45.000Z</time>
      </trkpt>
      <trkpt lat="44.10944" lon="3.23827">
        <ele>778.40002441406</ele>
        <time>2020-10-02T15:27:51.000Z</time>
      </trkpt>
      <trkpt lat="44.10942" lon="3.23841">
        <ele>779.20001220703</ele>
        <time>2020-10-02T15:27:56.000Z</time>
      </trkpt>
      <trkpt lat="44.10942" lon="3.23844">
        <ele>779.40002441406</ele>
        <time>2020-10-02T15:27:57.000Z</time>
      </trkpt>
      <trkpt lat="44.10941" lon="3.23865">
        <ele>780.40002441406</ele>
        <time>2020-10-02T15:28:04.000Z</time>
      </trkpt>
      <trkpt lat="44.10939" lon="3.23874">
        <ele>781.20001220703</ele>
        <time>2020-10-02T15:28:07.000Z</time>
      </trkpt>
      <trkpt lat="44.10938" lon="3.23884">
        <ele>781.59997558594</ele>
        <time>2020-10-02T15:28:10.000Z</time>
      </trkpt>
      <trkpt lat="44.10932" lon="3.23916">
        <ele>782.79998779297</ele>
        <time>2020-10-02T15:28:20.000Z</time>
      </trkpt>
      <trkpt lat="44.10931" lon="3.23919">
        <ele>783</ele>
        <time>2020-10-02T15:28:21.000Z</time>
      </trkpt>
      <trkpt lat="44.10922" lon="3.23944">
        <ele>783.59997558594</ele>
        <time>2020-10-02T15:28:30.000Z</time>
      </trkpt>
      <trkpt lat="44.10916" lon="3.2396">
        <ele>784</ele>
        <time>2020-10-02T15:28:35.000Z</time>
      </trkpt>
      <trkpt lat="44.10911" lon="3.23974">
        <ele>784.20001220703</ele>
        <time>2020-10-02T15:28:39.000Z</time>
      </trkpt>
      <trkpt lat="44.10902" lon="3.24007">
        <ele>784.20001220703</ele>
        <time>2020-10-02T15:28:48.000Z</time>
      </trkpt>
      <trkpt lat="44.10907" lon="3.24027">
        <ele>784.20001220703</ele>
        <time>2020-10-02T15:28:53.000Z</time>
      </trkpt>
      <trkpt lat="44.10916" lon="3.2406">
        <ele>783.59997558594</ele>
        <time>2020-10-02T15:29:00.000Z</time>
      </trkpt>
      <trkpt lat="44.10922" lon="3.24089">
        <ele>782.79998779297</ele>
        <time>2020-10-02T15:29:06.000Z</time>
      </trkpt>
      <trkpt lat="44.10923" lon="3.24119">
        <ele>782.59997558594</ele>
        <time>2020-10-02T15:29:12.000Z</time>
      </trkpt>
      <trkpt lat="44.10917" lon="3.24146">
        <ele>782.40002441406</ele>
        <time>2020-10-02T15:29:16.000Z</time>
      </trkpt>
      <trkpt lat="44.10914" lon="3.24153">
        <ele>782.20001220703</ele>
        <time>2020-10-02T15:29:17.000Z</time>
      </trkpt>
      <trkpt lat="44.10908" lon="3.24171">
        <ele>781.79998779297</ele>
        <time>2020-10-02T15:29:19.000Z</time>
      </trkpt>
      <trkpt lat="44.10905" lon="3.24189">
        <ele>781.20001220703</ele>
        <time>2020-10-02T15:29:21.000Z</time>
      </trkpt>
      <trkpt lat="44.10904" lon="3.24198">
        <ele>780.59997558594</ele>
        <time>2020-10-02T15:29:22.000Z</time>
      </trkpt>
      <trkpt lat="44.10903" lon="3.24206">
        <ele>780</ele>
        <time>2020-10-02T15:29:23.000Z</time>
      </trkpt>
      <trkpt lat="44.10903" lon="3.24214">
        <ele>779</ele>
        <time>2020-10-02T15:29:24.000Z</time>
      </trkpt>
      <trkpt lat="44.10903" lon="3.2422">
        <ele>778</ele>
        <time>2020-10-02T15:29:25.000Z</time>
      </trkpt>
      <trkpt lat="44.10904" lon="3.24225">
        <ele>777.20001220703</ele>
        <time>2020-10-02T15:29:26.000Z</time>
      </trkpt>
      <trkpt lat="44.10904" lon="3.24229">
        <ele>776.59997558594</ele>
        <time>2020-10-02T15:29:27.000Z</time>
      </trkpt>
      <trkpt lat="44.10906" lon="3.24248">
        <ele>775.59997558594</ele>
        <time>2020-10-02T15:29:32.000Z</time>
      </trkpt>
      <trkpt lat="44.10904" lon="3.24256">
        <ele>775.40002441406</ele>
        <time>2020-10-02T15:29:34.000Z</time>
      </trkpt>
      <trkpt lat="44.10904" lon="3.24275">
        <ele>775.20001220703</ele>
        <time>2020-10-02T15:29:38.000Z</time>
      </trkpt>
      <trkpt lat="44.10906" lon="3.24278">
        <ele>775.20001220703</ele>
        <time>2020-10-02T15:29:39.000Z</time>
      </trkpt>
      <trkpt lat="44.10911" lon="3.24282">
        <ele>775</ele>
        <time>2020-10-02T15:29:41.000Z</time>
      </trkpt>
      <trkpt lat="44.10922" lon="3.24283">
        <ele>774.40002441406</ele>
        <time>2020-10-02T15:29:44.000Z</time>
      </trkpt>
      <trkpt lat="44.10931" lon="3.24285">
        <ele>773.79998779297</ele>
        <time>2020-10-02T15:29:47.000Z</time>
      </trkpt>
      <trkpt lat="44.1095" lon="3.24301">
        <ele>773.59997558594</ele>
        <time>2020-10-02T15:29:54.000Z</time>
      </trkpt>
      <trkpt lat="44.10971" lon="3.24308">
        <ele>774</ele>
        <time>2020-10-02T15:30:01.000Z</time>
      </trkpt>
      <trkpt lat="44.10991" lon="3.24296">
        <ele>775.20001220703</ele>
        <time>2020-10-02T15:30:09.000Z</time>
      </trkpt>
      <trkpt lat="44.10996" lon="3.24293">
        <ele>775.59997558594</ele>
        <time>2020-10-02T15:30:11.000Z</time>
      </trkpt>
      <trkpt lat="44.11008" lon="3.24285">
        <ele>776.79998779297</ele>
        <time>2020-10-02T15:30:17.000Z</time>
      </trkpt>
      <trkpt lat="44.11012" lon="3.24283">
        <ele>777.20001220703</ele>
        <time>2020-10-02T15:30:19.000Z</time>
      </trkpt>
      <trkpt lat="44.11017" lon="3.24281">
        <ele>778</ele>
        <time>2020-10-02T15:30:22.000Z</time>
      </trkpt>
      <trkpt lat="44.1103" lon="3.24277">
        <ele>779.20001220703</ele>
        <time>2020-10-02T15:30:28.000Z</time>
      </trkpt>
      <trkpt lat="44.11032" lon="3.24277">
        <ele>779.40002441406</ele>
        <time>2020-10-02T15:30:29.000Z</time>
      </trkpt>
      <trkpt lat="44.11038" lon="3.24275">
        <ele>780.20001220703</ele>
        <time>2020-10-02T15:30:32.000Z</time>
      </trkpt>
      <trkpt lat="44.11054" lon="3.24269">
        <ele>781.40002441406</ele>
        <time>2020-10-02T15:30:40.000Z</time>
      </trkpt>
      <trkpt lat="44.11056" lon="3.24268">
        <ele>781.40002441406</ele>
        <time>2020-10-02T15:30:41.000Z</time>
      </trkpt>
      <trkpt lat="44.1107" lon="3.2426">
        <ele>782</ele>
        <time>2020-10-02T15:30:48.000Z</time>
      </trkpt>
      <trkpt lat="44.11087" lon="3.24257">
        <ele>782</ele>
        <time>2020-10-02T15:30:54.000Z</time>
      </trkpt>
      <trkpt lat="44.1111" lon="3.24264">
        <ele>782</ele>
        <time>2020-10-02T15:31:00.000Z</time>
      </trkpt>
      <trkpt lat="44.1112" lon="3.2427">
        <ele>781.20001220703</ele>
        <time>2020-10-02T15:31:04.000Z</time>
      </trkpt>
      <trkpt lat="44.11123" lon="3.24271">
        <ele>780.40002441406</ele>
        <time>2020-10-02T15:31:06.000Z</time>
      </trkpt>
      <trkpt lat="44.11124" lon="3.24271">
        <ele>779.20001220703</ele>
        <time>2020-10-02T15:31:09.000Z</time>
      </trkpt>
      <trkpt lat="44.11124" lon="3.24271">
        <ele>778</ele>
        <time>2020-10-02T15:31:12.000Z</time>
      </trkpt>
      <trkpt lat="44.11124" lon="3.2427">
        <ele>777.20001220703</ele>
        <time>2020-10-02T15:31:27.000Z</time>
      </trkpt>
      <trkpt lat="44.11124" lon="3.2427">
        <ele>777.20001220703</ele>
        <time>2020-10-02T15:31:28.000Z</time>
      </trkpt>
      <trkpt lat="44.11125" lon="3.24268">
        <ele>777</ele>
        <time>2020-10-02T15:31:53.000Z</time>
      </trkpt>
      <trkpt lat="44.11132" lon="3.24275">
        <ele>776.79998779297</ele>
        <time>2020-10-02T15:32:01.000Z</time>
      </trkpt>
      <trkpt lat="44.11152" lon="3.24282">
        <ele>776.20001220703</ele>
        <time>2020-10-02T15:32:06.000Z</time>
      </trkpt>
      <trkpt lat="44.11159" lon="3.24283">
        <ele>775</ele>
        <time>2020-10-02T15:32:08.000Z</time>
      </trkpt>
      <trkpt lat="44.11168" lon="3.24288">
        <ele>773.59997558594</ele>
        <time>2020-10-02T15:32:11.000Z</time>
      </trkpt>
      <trkpt lat="44.1117" lon="3.2429">
        <ele>772.59997558594</ele>
        <time>2020-10-02T15:32:12.000Z</time>
      </trkpt>
      <trkpt lat="44.11172" lon="3.24292">
        <ele>771.40002441406</ele>
        <time>2020-10-02T15:32:13.000Z</time>
      </trkpt>
      <trkpt lat="44.11173" lon="3.24296">
        <ele>770</ele>
        <time>2020-10-02T15:32:14.000Z</time>
      </trkpt>
      <trkpt lat="44.11178" lon="3.24305">
        <ele>768.20001220703</ele>
        <time>2020-10-02T15:32:16.000Z</time>
      </trkpt>
      <trkpt lat="44.11181" lon="3.2431">
        <ele>767.20001220703</ele>
        <time>2020-10-02T15:32:17.000Z</time>
      </trkpt>
      <trkpt lat="44.11184" lon="3.24313">
        <ele>765.59997558594</ele>
        <time>2020-10-02T15:32:18.000Z</time>
      </trkpt>
      <trkpt lat="44.11186" lon="3.24316">
        <ele>764.20001220703</ele>
        <time>2020-10-02T15:32:19.000Z</time>
      </trkpt>
      <trkpt lat="44.11187" lon="3.24318">
        <ele>763.20001220703</ele>
        <time>2020-10-02T15:32:20.000Z</time>
      </trkpt>
      <trkpt lat="44.11191" lon="3.24318">
        <ele>761.40002441406</ele>
        <time>2020-10-02T15:32:21.000Z</time>
      </trkpt>
      <trkpt lat="44.11194" lon="3.24316">
        <ele>760</ele>
        <time>2020-10-02T15:32:22.000Z</time>
      </trkpt>
      <trkpt lat="44.11197" lon="3.24314">
        <ele>758.20001220703</ele>
        <time>2020-10-02T15:32:23.000Z</time>
      </trkpt>
      <trkpt lat="44.112" lon="3.24311">
        <ele>756.59997558594</ele>
        <time>2020-10-02T15:32:24.000Z</time>
      </trkpt>
      <trkpt lat="44.11204" lon="3.24307">
        <ele>755.20001220703</ele>
        <time>2020-10-02T15:32:25.000Z</time>
      </trkpt>
      <trkpt lat="44.11207" lon="3.24303">
        <ele>753.79998779297</ele>
        <time>2020-10-02T15:32:26.000Z</time>
      </trkpt>
      <trkpt lat="44.11211" lon="3.24299">
        <ele>751.59997558594</ele>
        <time>2020-10-02T15:32:27.000Z</time>
      </trkpt>
      <trkpt lat="44.11221" lon="3.24288">
        <ele>749.79998779297</ele>
        <time>2020-10-02T15:32:29.000Z</time>
      </trkpt>
      <trkpt lat="44.11226" lon="3.24282">
        <ele>749.20001220703</ele>
        <time>2020-10-02T15:32:30.000Z</time>
      </trkpt>
      <trkpt lat="44.11232" lon="3.24276">
        <ele>748.40002441406</ele>
        <time>2020-10-02T15:32:31.000Z</time>
      </trkpt>
      <trkpt lat="44.11246" lon="3.24263">
        <ele>747</ele>
        <time>2020-10-02T15:32:34.000Z</time>
      </trkpt>
      <trkpt lat="44.1125" lon="3.2426">
        <ele>746.20001220703</ele>
        <time>2020-10-02T15:32:35.000Z</time>
      </trkpt>
      <trkpt lat="44.11254" lon="3.24256">
        <ele>745.79998779297</ele>
        <time>2020-10-02T15:32:36.000Z</time>
      </trkpt>
      <trkpt lat="44.11266" lon="3.24248">
        <ele>745</ele>
        <time>2020-10-02T15:32:40.000Z</time>
      </trkpt>
      <trkpt lat="44.11288" lon="3.24231">
        <ele>744.59997558594</ele>
        <time>2020-10-02T15:32:45.000Z</time>
      </trkpt>
      <trkpt lat="44.11293" lon="3.24226">
        <ele>743</ele>
        <time>2020-10-02T15:32:49.000Z</time>
      </trkpt>
      <trkpt lat="44.11294" lon="3.24226">
        <ele>741.20001220703</ele>
        <time>2020-10-02T15:32:51.000Z</time>
      </trkpt>
      <trkpt lat="44.11295" lon="3.24226">
        <ele>740.20001220703</ele>
        <time>2020-10-02T15:32:52.000Z</time>
      </trkpt>
      <trkpt lat="44.11301" lon="3.24223">
        <ele>738.20001220703</ele>
        <time>2020-10-02T15:32:54.000Z</time>
      </trkpt>
      <trkpt lat="44.11309" lon="3.24218">
        <ele>736.20001220703</ele>
        <time>2020-10-02T15:32:56.000Z</time>
      </trkpt>
      <trkpt lat="44.11319" lon="3.24211">
        <ele>735</ele>
        <time>2020-10-02T15:32:58.000Z</time>
      </trkpt>
      <trkpt lat="44.11327" lon="3.24206">
        <ele>734</ele>
        <time>2020-10-02T15:33:00.000Z</time>
      </trkpt>
      <trkpt lat="44.1133" lon="3.24204">
        <ele>732.40002441406</ele>
        <time>2020-10-02T15:33:02.000Z</time>
      </trkpt>
      <trkpt lat="44.11331" lon="3.24208">
        <ele>730.40002441406</ele>
        <time>2020-10-02T15:33:04.000Z</time>
      </trkpt>
      <trkpt lat="44.11331" lon="3.24215">
        <ele>728.79998779297</ele>
        <time>2020-10-02T15:33:06.000Z</time>
      </trkpt>
      <trkpt lat="44.11329" lon="3.24218">
        <ele>727.59997558594</ele>
        <time>2020-10-02T15:33:07.000Z</time>
      </trkpt>
      <trkpt lat="44.11329" lon="3.24221">
        <ele>726.79998779297</ele>
        <time>2020-10-02T15:33:08.000Z</time>
      </trkpt>
      <trkpt lat="44.11329" lon="3.24224">
        <ele>726.20001220703</ele>
        <time>2020-10-02T15:33:09.000Z</time>
      </trkpt>
      <trkpt lat="44.11329" lon="3.24228">
        <ele>725.20001220703</ele>
        <time>2020-10-02T15:33:11.000Z</time>
      </trkpt>
      <trkpt lat="44.11331" lon="3.24227">
        <ele>723.79998779297</ele>
        <time>2020-10-02T15:33:13.000Z</time>
      </trkpt>
      <trkpt lat="44.11336" lon="3.24224">
        <ele>722</ele>
        <time>2020-10-02T15:33:15.000Z</time>
      </trkpt>
      <trkpt lat="44.11343" lon="3.24217">
        <ele>720.40002441406</ele>
        <time>2020-10-02T15:33:17.000Z</time>
      </trkpt>
      <trkpt lat="44.11348" lon="3.24212">
        <ele>719.20001220703</ele>
        <time>2020-10-02T15:33:19.000Z</time>
      </trkpt>
      <trkpt lat="44.1135" lon="3.2421">
        <ele>718.20001220703</ele>
        <time>2020-10-02T15:33:20.000Z</time>
      </trkpt>
      <trkpt lat="44.11353" lon="3.24209">
        <ele>717.40002441406</ele>
        <time>2020-10-02T15:33:21.000Z</time>
      </trkpt>
      <trkpt lat="44.11356" lon="3.24209">
        <ele>715.59997558594</ele>
        <time>2020-10-02T15:33:23.000Z</time>
      </trkpt>
      <trkpt lat="44.11355" lon="3.24209">
        <ele>714</ele>
        <time>2020-10-02T15:33:24.000Z</time>
      </trkpt>
      <trkpt lat="44.11355" lon="3.24211">
        <ele>713.40002441406</ele>
        <time>2020-10-02T15:33:25.000Z</time>
      </trkpt>
      <trkpt lat="44.11354" lon="3.24213">
        <ele>712.59997558594</ele>
        <time>2020-10-02T15:33:26.000Z</time>
      </trkpt>
      <trkpt lat="44.11352" lon="3.24219">
        <ele>711.40002441406</ele>
        <time>2020-10-02T15:33:28.000Z</time>
      </trkpt>
      <trkpt lat="44.1135" lon="3.24223">
        <ele>710.79998779297</ele>
        <time>2020-10-02T15:33:29.000Z</time>
      </trkpt>
      <trkpt lat="44.11349" lon="3.24227">
        <ele>710.20001220703</ele>
        <time>2020-10-02T15:33:30.000Z</time>
      </trkpt>
      <trkpt lat="44.11345" lon="3.24237">
        <ele>709.20001220703</ele>
        <time>2020-10-02T15:33:33.000Z</time>
      </trkpt>
      <trkpt lat="44.11343" lon="3.24241">
        <ele>707.79998779297</ele>
        <time>2020-10-02T15:33:35.000Z</time>
      </trkpt>
      <trkpt lat="44.11341" lon="3.24242">
        <ele>707.40002441406</ele>
        <time>2020-10-02T15:33:36.000Z</time>
      </trkpt>
      <trkpt lat="44.1134" lon="3.24243">
        <ele>706.40002441406</ele>
        <time>2020-10-02T15:33:38.000Z</time>
      </trkpt>
      <trkpt lat="44.1134" lon="3.24243">
        <ele>705</ele>
        <time>2020-10-02T15:33:40.000Z</time>
      </trkpt>
      <trkpt lat="44.11342" lon="3.24243">
        <ele>703.79998779297</ele>
        <time>2020-10-02T15:33:42.000Z</time>
      </trkpt>
      <trkpt lat="44.11344" lon="3.24244">
        <ele>702.79998779297</ele>
        <time>2020-10-02T15:33:45.000Z</time>
      </trkpt>
      <trkpt lat="44.11344" lon="3.24246">
        <ele>702.59997558594</ele>
        <time>2020-10-02T15:33:47.000Z</time>
      </trkpt>
      <trkpt lat="44.11343" lon="3.24248">
        <ele>702.59997558594</ele>
        <time>2020-10-02T15:33:48.000Z</time>
      </trkpt>
      <trkpt lat="44.11343" lon="3.2425">
        <ele>702.59997558594</ele>
        <time>2020-10-02T15:33:52.000Z</time>
      </trkpt>
      <trkpt lat="44.11344" lon="3.24246">
        <ele>702.40002441406</ele>
        <time>2020-10-02T15:33:56.000Z</time>
      </trkpt>
      <trkpt lat="44.11346" lon="3.24245">
        <ele>702.40002441406</ele>
        <time>2020-10-02T15:33:57.000Z</time>
      </trkpt>
      <trkpt lat="44.11357" lon="3.24232">
        <ele>702.20001220703</ele>
        <time>2020-10-02T15:34:02.000Z</time>
      </trkpt>
      <trkpt lat="44.11359" lon="3.24229">
        <ele>701.79998779297</ele>
        <time>2020-10-02T15:34:03.000Z</time>
      </trkpt>
      <trkpt lat="44.11363" lon="3.24223">
        <ele>700.59997558594</ele>
        <time>2020-10-02T15:34:05.000Z</time>
      </trkpt>
      <trkpt lat="44.11366" lon="3.2422">
        <ele>699.40002441406</ele>
        <time>2020-10-02T15:34:07.000Z</time>
      </trkpt>
      <trkpt lat="44.11365" lon="3.2422">
        <ele>698.79998779297</ele>
        <time>2020-10-02T15:34:08.000Z</time>
      </trkpt>
      <trkpt lat="44.11365" lon="3.2422">
        <ele>698</ele>
        <time>2020-10-02T15:34:09.000Z</time>
      </trkpt>
      <trkpt lat="44.11364" lon="3.24221">
        <ele>697.40002441406</ele>
        <time>2020-10-02T15:34:10.000Z</time>
      </trkpt>
      <trkpt lat="44.11364" lon="3.24223">
        <ele>697</ele>
        <time>2020-10-02T15:34:11.000Z</time>
      </trkpt>
      <trkpt lat="44.11362" lon="3.24227">
        <ele>696.20001220703</ele>
        <time>2020-10-02T15:34:13.000Z</time>
      </trkpt>
      <trkpt lat="44.1136" lon="3.24231">
        <ele>695.79998779297</ele>
        <time>2020-10-02T15:34:14.000Z</time>
      </trkpt>
      <trkpt lat="44.11357" lon="3.24243">
        <ele>694.59997558594</ele>
        <time>2020-10-02T15:34:17.000Z</time>
      </trkpt>
      <trkpt lat="44.11352" lon="3.24252">
        <ele>694.20001220703</ele>
        <time>2020-10-02T15:34:19.000Z</time>
      </trkpt>
      <trkpt lat="44.11347" lon="3.24258">
        <ele>693.40002441406</ele>
        <time>2020-10-02T15:34:21.000Z</time>
      </trkpt>
      <trkpt lat="44.11346" lon="3.24262">
        <ele>692.40002441406</ele>
        <time>2020-10-02T15:34:23.000Z</time>
      </trkpt>
      <trkpt lat="44.11347" lon="3.24263">
        <ele>691.79998779297</ele>
        <time>2020-10-02T15:34:24.000Z</time>
      </trkpt>
      <trkpt lat="44.11349" lon="3.24263">
        <ele>691</ele>
        <time>2020-10-02T15:34:26.000Z</time>
      </trkpt>
      <trkpt lat="44.11349" lon="3.24262">
        <ele>690.20001220703</ele>
        <time>2020-10-02T15:34:28.000Z</time>
      </trkpt>
      <trkpt lat="44.11352" lon="3.2426">
        <ele>689.59997558594</ele>
        <time>2020-10-02T15:34:29.000Z</time>
      </trkpt>
      <trkpt lat="44.11356" lon="3.24255">
        <ele>688</ele>
        <time>2020-10-02T15:34:31.000Z</time>
      </trkpt>
      <trkpt lat="44.11361" lon="3.24249">
        <ele>687</ele>
        <time>2020-10-02T15:34:33.000Z</time>
      </trkpt>
      <trkpt lat="44.11363" lon="3.24244">
        <ele>686.40002441406</ele>
        <time>2020-10-02T15:34:34.000Z</time>
      </trkpt>
      <trkpt lat="44.11367" lon="3.24238">
        <ele>685.79998779297</ele>
        <time>2020-10-02T15:34:36.000Z</time>
      </trkpt>
      <trkpt lat="44.11371" lon="3.24234">
        <ele>684.79998779297</ele>
        <time>2020-10-02T15:34:38.000Z</time>
      </trkpt>
      <trkpt lat="44.11373" lon="3.24232">
        <ele>684.20001220703</ele>
        <time>2020-10-02T15:34:39.000Z</time>
      </trkpt>
      <trkpt lat="44.11373" lon="3.24233">
        <ele>683.20001220703</ele>
        <time>2020-10-02T15:34:41.000Z</time>
      </trkpt>
      <trkpt lat="44.11372" lon="3.24234">
        <ele>682</ele>
        <time>2020-10-02T15:34:42.000Z</time>
      </trkpt>
      <trkpt lat="44.1137" lon="3.24236">
        <ele>681.40002441406</ele>
        <time>2020-10-02T15:34:43.000Z</time>
      </trkpt>
      <trkpt lat="44.11368" lon="3.24237">
        <ele>680.40002441406</ele>
        <time>2020-10-02T15:34:44.000Z</time>
      </trkpt>
      <trkpt lat="44.11369" lon="3.24242">
        <ele>678.59997558594</ele>
        <time>2020-10-02T15:34:46.000Z</time>
      </trkpt>
      <trkpt lat="44.11375" lon="3.24242">
        <ele>677.40002441406</ele>
        <time>2020-10-02T15:34:49.000Z</time>
      </trkpt>
      <trkpt lat="44.11377" lon="3.24242">
        <ele>676.59997558594</ele>
        <time>2020-10-02T15:34:50.000Z</time>
      </trkpt>
      <trkpt lat="44.11378" lon="3.2424">
        <ele>675.59997558594</ele>
        <time>2020-10-02T15:34:51.000Z</time>
      </trkpt>
      <trkpt lat="44.11381" lon="3.24234">
        <ele>674.59997558594</ele>
        <time>2020-10-02T15:34:53.000Z</time>
      </trkpt>
      <trkpt lat="44.11387" lon="3.2423">
        <ele>673.59997558594</ele>
        <time>2020-10-02T15:34:55.000Z</time>
      </trkpt>
      <trkpt lat="44.1139" lon="3.24228">
        <ele>673.20001220703</ele>
        <time>2020-10-02T15:34:56.000Z</time>
      </trkpt>
      <trkpt lat="44.11401" lon="3.24225">
        <ele>671.79998779297</ele>
        <time>2020-10-02T15:35:00.000Z</time>
      </trkpt>
      <trkpt lat="44.11401" lon="3.24225">
        <ele>671.59997558594</ele>
        <time>2020-10-02T15:35:01.000Z</time>
      </trkpt>
      <trkpt lat="44.11401" lon="3.24227">
        <ele>671</ele>
        <time>2020-10-02T15:35:02.000Z</time>
      </trkpt>
      <trkpt lat="44.11401" lon="3.24229">
        <ele>670.40002441406</ele>
        <time>2020-10-02T15:35:03.000Z</time>
      </trkpt>
      <trkpt lat="44.11397" lon="3.24234">
        <ele>669</ele>
        <time>2020-10-02T15:35:05.000Z</time>
      </trkpt>
      <trkpt lat="44.11395" lon="3.24236">
        <ele>668.40002441406</ele>
        <time>2020-10-02T15:35:06.000Z</time>
      </trkpt>
      <trkpt lat="44.11393" lon="3.24242">
        <ele>667.40002441406</ele>
        <time>2020-10-02T15:35:08.000Z</time>
      </trkpt>
      <trkpt lat="44.11395" lon="3.24251">
        <ele>666.40002441406</ele>
        <time>2020-10-02T15:35:10.000Z</time>
      </trkpt>
      <trkpt lat="44.11394" lon="3.24263">
        <ele>665</ele>
        <time>2020-10-02T15:35:12.000Z</time>
      </trkpt>
      <trkpt lat="44.11399" lon="3.24274">
        <ele>663.79998779297</ele>
        <time>2020-10-02T15:35:14.000Z</time>
      </trkpt>
      <trkpt lat="44.114" lon="3.24278">
        <ele>663.20001220703</ele>
        <time>2020-10-02T15:35:15.000Z</time>
      </trkpt>
      <trkpt lat="44.114" lon="3.24281">
        <ele>662.79998779297</ele>
        <time>2020-10-02T15:35:16.000Z</time>
      </trkpt>
      <trkpt lat="44.11398" lon="3.24287">
        <ele>660.59997558594</ele>
        <time>2020-10-02T15:35:18.000Z</time>
      </trkpt>
      <trkpt lat="44.11402" lon="3.24292">
        <ele>659.59997558594</ele>
        <time>2020-10-02T15:35:20.000Z</time>
      </trkpt>
      <trkpt lat="44.11399" lon="3.24298">
        <ele>658.59997558594</ele>
        <time>2020-10-02T15:35:22.000Z</time>
      </trkpt>
      <trkpt lat="44.11402" lon="3.24304">
        <ele>657</ele>
        <time>2020-10-02T15:35:26.000Z</time>
      </trkpt>
      <trkpt lat="44.11405" lon="3.24305">
        <ele>656.59997558594</ele>
        <time>2020-10-02T15:35:27.000Z</time>
      </trkpt>
      <trkpt lat="44.1141" lon="3.243">
        <ele>655.59997558594</ele>
        <time>2020-10-02T15:35:31.000Z</time>
      </trkpt>
      <trkpt lat="44.11411" lon="3.24298">
        <ele>655.20001220703</ele>
        <time>2020-10-02T15:35:32.000Z</time>
      </trkpt>
      <trkpt lat="44.11413" lon="3.24293">
        <ele>654.59997558594</ele>
        <time>2020-10-02T15:35:34.000Z</time>
      </trkpt>
      <trkpt lat="44.11419" lon="3.24279">
        <ele>653.20001220703</ele>
        <time>2020-10-02T15:35:38.000Z</time>
      </trkpt>
      <trkpt lat="44.11426" lon="3.24271">
        <ele>651.79998779297</ele>
        <time>2020-10-02T15:35:41.000Z</time>
      </trkpt>
      <trkpt lat="44.1143" lon="3.24267">
        <ele>650.40002441406</ele>
        <time>2020-10-02T15:35:43.000Z</time>
      </trkpt>
      <trkpt lat="44.11431" lon="3.24267">
        <ele>649.59997558594</ele>
        <time>2020-10-02T15:35:44.000Z</time>
      </trkpt>
      <trkpt lat="44.11432" lon="3.24267">
        <ele>648.79998779297</ele>
        <time>2020-10-02T15:35:45.000Z</time>
      </trkpt>
      <trkpt lat="44.11431" lon="3.24267">
        <ele>647.20001220703</ele>
        <time>2020-10-02T15:35:47.000Z</time>
      </trkpt>
      <trkpt lat="44.1143" lon="3.24266">
        <ele>645.20001220703</ele>
        <time>2020-10-02T15:35:48.000Z</time>
      </trkpt>
      <trkpt lat="44.11428" lon="3.24267">
        <ele>644</ele>
        <time>2020-10-02T15:35:50.000Z</time>
      </trkpt>
      <trkpt lat="44.11427" lon="3.24274">
        <ele>642.79998779297</ele>
        <time>2020-10-02T15:35:54.000Z</time>
      </trkpt>
      <trkpt lat="44.11429" lon="3.24281">
        <ele>642.20001220703</ele>
        <time>2020-10-02T15:35:57.000Z</time>
      </trkpt>
      <trkpt lat="44.11434" lon="3.24282">
        <ele>641.79998779297</ele>
        <time>2020-10-02T15:35:58.000Z</time>
      </trkpt>
      <trkpt lat="44.11435" lon="3.24282">
        <ele>641.40002441406</ele>
        <time>2020-10-02T15:35:59.000Z</time>
      </trkpt>
      <trkpt lat="44.11443" lon="3.24277">
        <ele>640</ele>
        <time>2020-10-02T15:36:02.000Z</time>
      </trkpt>
      <trkpt lat="44.11449" lon="3.24275">
        <ele>639</ele>
        <time>2020-10-02T15:36:04.000Z</time>
      </trkpt>
      <trkpt lat="44.11451" lon="3.24273">
        <ele>637.79998779297</ele>
        <time>2020-10-02T15:36:06.000Z</time>
      </trkpt>
      <trkpt lat="44.11453" lon="3.24273">
        <ele>636.20001220703</ele>
        <time>2020-10-02T15:36:08.000Z</time>
      </trkpt>
      <trkpt lat="44.11455" lon="3.24273">
        <ele>634</ele>
        <time>2020-10-02T15:36:10.000Z</time>
      </trkpt>
      <trkpt lat="44.11455" lon="3.24274">
        <ele>632.59997558594</ele>
        <time>2020-10-02T15:36:12.000Z</time>
      </trkpt>
      <trkpt lat="44.11455" lon="3.24275">
        <ele>631.40002441406</ele>
        <time>2020-10-02T15:36:14.000Z</time>
      </trkpt>
      <trkpt lat="44.11454" lon="3.24276">
        <ele>631.20001220703</ele>
        <time>2020-10-02T15:36:15.000Z</time>
      </trkpt>
      <trkpt lat="44.1145" lon="3.24282">
        <ele>630.59997558594</ele>
        <time>2020-10-02T15:36:18.000Z</time>
      </trkpt>
      <trkpt lat="44.1145" lon="3.24285">
        <ele>630.40002441406</ele>
        <time>2020-10-02T15:36:20.000Z</time>
      </trkpt>
      <trkpt lat="44.1145" lon="3.24284">
        <ele>629.40002441406</ele>
        <time>2020-10-02T15:36:23.000Z</time>
      </trkpt>
      <trkpt lat="44.11453" lon="3.24281">
        <ele>628.20001220703</ele>
        <time>2020-10-02T15:36:25.000Z</time>
      </trkpt>
      <trkpt lat="44.11466" lon="3.24277">
        <ele>626.79998779297</ele>
        <time>2020-10-02T15:36:28.000Z</time>
      </trkpt>
      <trkpt lat="44.11479" lon="3.24275">
        <ele>625.59997558594</ele>
        <time>2020-10-02T15:36:30.000Z</time>
      </trkpt>
      <trkpt lat="44.11493" lon="3.24274">
        <ele>623.79998779297</ele>
        <time>2020-10-02T15:36:32.000Z</time>
      </trkpt>
      <trkpt lat="44.11496" lon="3.24274">
        <ele>623.20001220703</ele>
        <time>2020-10-02T15:36:33.000Z</time>
      </trkpt>
      <trkpt lat="44.115" lon="3.24275">
        <ele>622.20001220703</ele>
        <time>2020-10-02T15:36:34.000Z</time>
      </trkpt>
      <trkpt lat="44.11502" lon="3.24275">
        <ele>621.20001220703</ele>
        <time>2020-10-02T15:36:35.000Z</time>
      </trkpt>
      <trkpt lat="44.11506" lon="3.24275">
        <ele>620</ele>
        <time>2020-10-02T15:36:36.000Z</time>
      </trkpt>
      <trkpt lat="44.11512" lon="3.24275">
        <ele>618.79998779297</ele>
        <time>2020-10-02T15:36:37.000Z</time>
      </trkpt>
      <trkpt lat="44.11521" lon="3.24276">
        <ele>617.20001220703</ele>
        <time>2020-10-02T15:36:39.000Z</time>
      </trkpt>
      <trkpt lat="44.1153" lon="3.24273">
        <ele>615.59997558594</ele>
        <time>2020-10-02T15:36:41.000Z</time>
      </trkpt>
      <trkpt lat="44.11533" lon="3.24269">
        <ele>613.79998779297</ele>
        <time>2020-10-02T15:36:43.000Z</time>
      </trkpt>
      <trkpt lat="44.11536" lon="3.24262">
        <ele>611.20001220703</ele>
        <time>2020-10-02T15:36:45.000Z</time>
      </trkpt>
      <trkpt lat="44.11537" lon="3.24258">
        <ele>609.59997558594</ele>
        <time>2020-10-02T15:36:47.000Z</time>
      </trkpt>
      <trkpt lat="44.11537" lon="3.24257">
        <ele>609</ele>
        <time>2020-10-02T15:36:48.000Z</time>
      </trkpt>
      <trkpt lat="44.11538" lon="3.24258">
        <ele>608.59997558594</ele>
        <time>2020-10-02T15:36:49.000Z</time>
      </trkpt>
      <trkpt lat="44.1154" lon="3.24262">
        <ele>607.20001220703</ele>
        <time>2020-10-02T15:36:51.000Z</time>
      </trkpt>
      <trkpt lat="44.11543" lon="3.24264">
        <ele>606.79998779297</ele>
        <time>2020-10-02T15:36:52.000Z</time>
      </trkpt>
      <trkpt lat="44.11546" lon="3.24265">
        <ele>606</ele>
        <time>2020-10-02T15:36:53.000Z</time>
      </trkpt>
      <trkpt lat="44.11549" lon="3.24267">
        <ele>605.20001220703</ele>
        <time>2020-10-02T15:36:54.000Z</time>
      </trkpt>
      <trkpt lat="44.11553" lon="3.2427">
        <ele>604.59997558594</ele>
        <time>2020-10-02T15:36:55.000Z</time>
      </trkpt>
      <trkpt lat="44.11556" lon="3.24274">
        <ele>604</ele>
        <time>2020-10-02T15:36:56.000Z</time>
      </trkpt>
      <trkpt lat="44.1156" lon="3.24278">
        <ele>603</ele>
        <time>2020-10-02T15:36:57.000Z</time>
      </trkpt>
      <trkpt lat="44.11564" lon="3.24282">
        <ele>602.20001220703</ele>
        <time>2020-10-02T15:36:58.000Z</time>
      </trkpt>
      <trkpt lat="44.11569" lon="3.24285">
        <ele>601.20001220703</ele>
        <time>2020-10-02T15:36:59.000Z</time>
      </trkpt>
      <trkpt lat="44.11575" lon="3.24292">
        <ele>599.59997558594</ele>
        <time>2020-10-02T15:37:01.000Z</time>
      </trkpt>
      <trkpt lat="44.1158" lon="3.24297">
        <ele>598</ele>
        <time>2020-10-02T15:37:03.000Z</time>
      </trkpt>
      <trkpt lat="44.11584" lon="3.24298">
        <ele>597.40002441406</ele>
        <time>2020-10-02T15:37:04.000Z</time>
      </trkpt>
      <trkpt lat="44.11588" lon="3.24298">
        <ele>596.40002441406</ele>
        <time>2020-10-02T15:37:05.000Z</time>
      </trkpt>
      <trkpt lat="44.11593" lon="3.24299">
        <ele>595.40002441406</ele>
        <time>2020-10-02T15:37:06.000Z</time>
      </trkpt>
      <trkpt lat="44.11601" lon="3.24299">
        <ele>593.20001220703</ele>
        <time>2020-10-02T15:37:08.000Z</time>
      </trkpt>
      <trkpt lat="44.11604" lon="3.24301">
        <ele>592.40002441406</ele>
        <time>2020-10-02T15:37:09.000Z</time>
      </trkpt>
      <trkpt lat="44.11607" lon="3.24303">
        <ele>591.40002441406</ele>
        <time>2020-10-02T15:37:10.000Z</time>
      </trkpt>
      <trkpt lat="44.11614" lon="3.24306">
        <ele>589.59997558594</ele>
        <time>2020-10-02T15:37:12.000Z</time>
      </trkpt>
      <trkpt lat="44.11619" lon="3.24306">
        <ele>589</ele>
        <time>2020-10-02T15:37:13.000Z</time>
      </trkpt>
      <trkpt lat="44.11622" lon="3.24303">
        <ele>587</ele>
        <time>2020-10-02T15:37:14.000Z</time>
      </trkpt>
      <trkpt lat="44.11627" lon="3.24299">
        <ele>585.79998779297</ele>
        <time>2020-10-02T15:37:16.000Z</time>
      </trkpt>
      <trkpt lat="44.1163" lon="3.24297">
        <ele>584.40002441406</ele>
        <time>2020-10-02T15:37:18.000Z</time>
      </trkpt>
      <trkpt lat="44.11635" lon="3.24299">
        <ele>583</ele>
        <time>2020-10-02T15:37:20.000Z</time>
      </trkpt>
      <trkpt lat="44.11638" lon="3.24306">
        <ele>581.20001220703</ele>
        <time>2020-10-02T15:37:22.000Z</time>
      </trkpt>
      <trkpt lat="44.11638" lon="3.24315">
        <ele>579.79998779297</ele>
        <time>2020-10-02T15:37:24.000Z</time>
      </trkpt>
      <trkpt lat="44.11637" lon="3.24321">
        <ele>578.40002441406</ele>
        <time>2020-10-02T15:37:26.000Z</time>
      </trkpt>
      <trkpt lat="44.11637" lon="3.24324">
        <ele>577.40002441406</ele>
        <time>2020-10-02T15:37:28.000Z</time>
      </trkpt>
      <trkpt lat="44.11638" lon="3.24324">
        <ele>577</ele>
        <time>2020-10-02T15:37:29.000Z</time>
      </trkpt>
      <trkpt lat="44.1164" lon="3.24324">
        <ele>576.59997558594</ele>
        <time>2020-10-02T15:37:30.000Z</time>
      </trkpt>
      <trkpt lat="44.11642" lon="3.24324">
        <ele>576.20001220703</ele>
        <time>2020-10-02T15:37:31.000Z</time>
      </trkpt>
      <trkpt lat="44.11648" lon="3.2432">
        <ele>574.79998779297</ele>
        <time>2020-10-02T15:37:33.000Z</time>
      </trkpt>
      <trkpt lat="44.11654" lon="3.24316">
        <ele>573.59997558594</ele>
        <time>2020-10-02T15:37:35.000Z</time>
      </trkpt>
      <trkpt lat="44.11657" lon="3.2431">
        <ele>572.20001220703</ele>
        <time>2020-10-02T15:37:37.000Z</time>
      </trkpt>
      <trkpt lat="44.11659" lon="3.24307">
        <ele>571</ele>
        <time>2020-10-02T15:37:38.000Z</time>
      </trkpt>
      <trkpt lat="44.1166" lon="3.24303">
        <ele>570.20001220703</ele>
        <time>2020-10-02T15:37:39.000Z</time>
      </trkpt>
      <trkpt lat="44.11661" lon="3.243">
        <ele>569.40002441406</ele>
        <time>2020-10-02T15:37:40.000Z</time>
      </trkpt>
      <trkpt lat="44.11658" lon="3.24294">
        <ele>566.79998779297</ele>
        <time>2020-10-02T15:37:42.000Z</time>
      </trkpt>
      <trkpt lat="44.11656" lon="3.24292">
        <ele>565.20001220703</ele>
        <time>2020-10-02T15:37:45.000Z</time>
      </trkpt>
      <trkpt lat="44.11656" lon="3.24293">
        <ele>564.59997558594</ele>
        <time>2020-10-02T15:37:46.000Z</time>
      </trkpt>
      <trkpt lat="44.11656" lon="3.24294">
        <ele>564</ele>
        <time>2020-10-02T15:37:47.000Z</time>
      </trkpt>
      <trkpt lat="44.11657" lon="3.24299">
        <ele>562.40002441406</ele>
        <time>2020-10-02T15:37:50.000Z</time>
      </trkpt>
      <trkpt lat="44.11659" lon="3.24304">
        <ele>561</ele>
        <time>2020-10-02T15:37:52.000Z</time>
      </trkpt>
      <trkpt lat="44.11661" lon="3.24306">
        <ele>560.59997558594</ele>
        <time>2020-10-02T15:37:53.000Z</time>
      </trkpt>
      <trkpt lat="44.11662" lon="3.2431">
        <ele>560</ele>
        <time>2020-10-02T15:37:54.000Z</time>
      </trkpt>
      <trkpt lat="44.11668" lon="3.24314">
        <ele>558.20001220703</ele>
        <time>2020-10-02T15:37:56.000Z</time>
      </trkpt>
      <trkpt lat="44.11671" lon="3.24314">
        <ele>557.40002441406</ele>
        <time>2020-10-02T15:37:57.000Z</time>
      </trkpt>
      <trkpt lat="44.11673" lon="3.24314">
        <ele>556.79998779297</ele>
        <time>2020-10-02T15:37:58.000Z</time>
      </trkpt>
      <trkpt lat="44.11677" lon="3.24311">
        <ele>555.79998779297</ele>
        <time>2020-10-02T15:38:00.000Z</time>
      </trkpt>
      <trkpt lat="44.11679" lon="3.24306">
        <ele>554.20001220703</ele>
        <time>2020-10-02T15:38:02.000Z</time>
      </trkpt>
      <trkpt lat="44.11679" lon="3.24302">
        <ele>553</ele>
        <time>2020-10-02T15:38:03.000Z</time>
      </trkpt>
      <trkpt lat="44.11678" lon="3.24295">
        <ele>551.40002441406</ele>
        <time>2020-10-02T15:38:05.000Z</time>
      </trkpt>
      <trkpt lat="44.11677" lon="3.2429">
        <ele>550.40002441406</ele>
        <time>2020-10-02T15:38:07.000Z</time>
      </trkpt>
      <trkpt lat="44.11677" lon="3.24287">
        <ele>549.79998779297</ele>
        <time>2020-10-02T15:38:08.000Z</time>
      </trkpt>
      <trkpt lat="44.11678" lon="3.24286">
        <ele>548.79998779297</ele>
        <time>2020-10-02T15:38:10.000Z</time>
      </trkpt>
      <trkpt lat="44.11678" lon="3.24288">
        <ele>547.79998779297</ele>
        <time>2020-10-02T15:38:11.000Z</time>
      </trkpt>
      <trkpt lat="44.11679" lon="3.2429">
        <ele>547.40002441406</ele>
        <time>2020-10-02T15:38:12.000Z</time>
      </trkpt>
      <trkpt lat="44.11683" lon="3.24296">
        <ele>546.40002441406</ele>
        <time>2020-10-02T15:38:14.000Z</time>
      </trkpt>
      <trkpt lat="44.11691" lon="3.24304">
        <ele>545.20001220703</ele>
        <time>2020-10-02T15:38:16.000Z</time>
      </trkpt>
      <trkpt lat="44.11695" lon="3.24307">
        <ele>544.40002441406</ele>
        <time>2020-10-02T15:38:17.000Z</time>
      </trkpt>
      <trkpt lat="44.11699" lon="3.24313">
        <ele>543.79998779297</ele>
        <time>2020-10-02T15:38:18.000Z</time>
      </trkpt>
      <trkpt lat="44.11708" lon="3.24324">
        <ele>542.40002441406</ele>
        <time>2020-10-02T15:38:20.000Z</time>
      </trkpt>
      <trkpt lat="44.11713" lon="3.24329">
        <ele>541.40002441406</ele>
        <time>2020-10-02T15:38:21.000Z</time>
      </trkpt>
      <trkpt lat="44.11717" lon="3.24334">
        <ele>540.59997558594</ele>
        <time>2020-10-02T15:38:22.000Z</time>
      </trkpt>
      <trkpt lat="44.11719" lon="3.2434">
        <ele>539.40002441406</ele>
        <time>2020-10-02T15:38:23.000Z</time>
      </trkpt>
      <trkpt lat="44.11721" lon="3.24347">
        <ele>538.40002441406</ele>
        <time>2020-10-02T15:38:24.000Z</time>
      </trkpt>
      <trkpt lat="44.11721" lon="3.24353">
        <ele>537</ele>
        <time>2020-10-02T15:38:25.000Z</time>
      </trkpt>
      <trkpt lat="44.11721" lon="3.24359">
        <ele>536</ele>
        <time>2020-10-02T15:38:26.000Z</time>
      </trkpt>
      <trkpt lat="44.1172" lon="3.24363">
        <ele>534.59997558594</ele>
        <time>2020-10-02T15:38:27.000Z</time>
      </trkpt>
      <trkpt lat="44.1172" lon="3.24366">
        <ele>533.40002441406</ele>
        <time>2020-10-02T15:38:28.000Z</time>
      </trkpt>
      <trkpt lat="44.11721" lon="3.24367">
        <ele>532.40002441406</ele>
        <time>2020-10-02T15:38:29.000Z</time>
      </trkpt>
      <trkpt lat="44.11722" lon="3.24367">
        <ele>531.40002441406</ele>
        <time>2020-10-02T15:38:30.000Z</time>
      </trkpt>
      <trkpt lat="44.11726" lon="3.24364">
        <ele>530.20001220703</ele>
        <time>2020-10-02T15:38:31.000Z</time>
      </trkpt>
      <trkpt lat="44.11735" lon="3.24362">
        <ele>528.40002441406</ele>
        <time>2020-10-02T15:38:33.000Z</time>
      </trkpt>
      <trkpt lat="44.11744" lon="3.24359">
        <ele>526.59997558594</ele>
        <time>2020-10-02T15:38:35.000Z</time>
      </trkpt>
      <trkpt lat="44.11751" lon="3.24352">
        <ele>525.40002441406</ele>
        <time>2020-10-02T15:38:37.000Z</time>
      </trkpt>
      <trkpt lat="44.11755" lon="3.24351">
        <ele>524.79998779297</ele>
        <time>2020-10-02T15:38:38.000Z</time>
      </trkpt>
      <trkpt lat="44.11757" lon="3.24351">
        <ele>524.59997558594</ele>
        <time>2020-10-02T15:38:39.000Z</time>
      </trkpt>
      <trkpt lat="44.11759" lon="3.24353">
        <ele>523</ele>
        <time>2020-10-02T15:38:40.000Z</time>
      </trkpt>
      <trkpt lat="44.1176" lon="3.24358">
        <ele>521.40002441406</ele>
        <time>2020-10-02T15:38:42.000Z</time>
      </trkpt>
      <trkpt lat="44.11761" lon="3.24361">
        <ele>520.20001220703</ele>
        <time>2020-10-02T15:38:43.000Z</time>
      </trkpt>
      <trkpt lat="44.11761" lon="3.24365">
        <ele>519</ele>
        <time>2020-10-02T15:38:44.000Z</time>
      </trkpt>
      <trkpt lat="44.1176" lon="3.2437">
        <ele>517.79998779297</ele>
        <time>2020-10-02T15:38:46.000Z</time>
      </trkpt>
      <trkpt lat="44.11759" lon="3.24371">
        <ele>517.40002441406</ele>
        <time>2020-10-02T15:38:47.000Z</time>
      </trkpt>
      <trkpt lat="44.11757" lon="3.24375">
        <ele>516.40002441406</ele>
        <time>2020-10-02T15:38:49.000Z</time>
      </trkpt>
      <trkpt lat="44.11758" lon="3.24376">
        <ele>515.59997558594</ele>
        <time>2020-10-02T15:38:51.000Z</time>
      </trkpt>
      <trkpt lat="44.1176" lon="3.24376">
        <ele>515</ele>
        <time>2020-10-02T15:38:52.000Z</time>
      </trkpt>
      <trkpt lat="44.11761" lon="3.24377">
        <ele>514</ele>
        <time>2020-10-02T15:38:53.000Z</time>
      </trkpt>
      <trkpt lat="44.11763" lon="3.24376">
        <ele>513</ele>
        <time>2020-10-02T15:38:54.000Z</time>
      </trkpt>
      <trkpt lat="44.11769" lon="3.24373">
        <ele>511.60000610352</ele>
        <time>2020-10-02T15:38:56.000Z</time>
      </trkpt>
      <trkpt lat="44.11776" lon="3.24368">
        <ele>511.20001220703</ele>
        <time>2020-10-02T15:38:57.000Z</time>
      </trkpt>
      <trkpt lat="44.11786" lon="3.24358">
        <ele>510.39999389648</ele>
        <time>2020-10-02T15:38:59.000Z</time>
      </trkpt>
      <trkpt lat="44.11793" lon="3.24351">
        <ele>509.60000610352</ele>
        <time>2020-10-02T15:39:01.000Z</time>
      </trkpt>
      <trkpt lat="44.11796" lon="3.24348">
        <ele>509.20001220703</ele>
        <time>2020-10-02T15:39:02.000Z</time>
      </trkpt>
      <trkpt lat="44.11799" lon="3.24345">
        <ele>507.39999389648</ele>
        <time>2020-10-02T15:39:04.000Z</time>
      </trkpt>
      <trkpt lat="44.118" lon="3.24344">
        <ele>506.60000610352</ele>
        <time>2020-10-02T15:39:05.000Z</time>
      </trkpt>
      <trkpt lat="44.11801" lon="3.24343">
        <ele>505.79998779297</ele>
        <time>2020-10-02T15:39:06.000Z</time>
      </trkpt>
      <trkpt lat="44.11803" lon="3.24343">
        <ele>502.79998779297</ele>
        <time>2020-10-02T15:39:08.000Z</time>
      </trkpt>
      <trkpt lat="44.11803" lon="3.24343">
        <ele>501.79998779297</ele>
        <time>2020-10-02T15:39:09.000Z</time>
      </trkpt>
      <trkpt lat="44.11803" lon="3.24344">
        <ele>500.39999389648</ele>
        <time>2020-10-02T15:39:11.000Z</time>
      </trkpt>
      <trkpt lat="44.11803" lon="3.24344">
        <ele>500</ele>
        <time>2020-10-02T15:39:12.000Z</time>
      </trkpt>
      <trkpt lat="44.11802" lon="3.24349">
        <ele>499.39999389648</ele>
        <time>2020-10-02T15:39:27.000Z</time>
      </trkpt>
      <trkpt lat="44.11802" lon="3.2435">
        <ele>499.39999389648</ele>
        <time>2020-10-02T15:39:31.000Z</time>
      </trkpt>
      <trkpt lat="44.11803" lon="3.24351">
        <ele>499.20001220703</ele>
        <time>2020-10-02T15:39:44.000Z</time>
      </trkpt>
      <trkpt lat="44.11802" lon="3.24351">
        <ele>499.39999389648</ele>
        <time>2020-10-02T15:39:59.000Z</time>
      </trkpt>
      <trkpt lat="44.11802" lon="3.24352">
        <ele>499.39999389648</ele>
        <time>2020-10-02T15:40:11.000Z</time>
      </trkpt>
      <trkpt lat="44.11802" lon="3.24351">
        <ele>499.39999389648</ele>
        <time>2020-10-02T15:40:26.000Z</time>
      </trkpt>
      <trkpt lat="44.11808" lon="3.24349">
        <ele>499.39999389648</ele>
        <time>2020-10-02T15:40:40.000Z</time>
      </trkpt>
      <trkpt lat="44.1181" lon="3.24344">
        <ele>499.60000610352</ele>
        <time>2020-10-02T15:40:53.000Z</time>
      </trkpt>
      <trkpt lat="44.11811" lon="3.24336">
        <ele>499.60000610352</ele>
        <time>2020-10-02T15:41:07.000Z</time>
      </trkpt>
      <trkpt lat="44.11809" lon="3.24328">
        <ele>499.39999389648</ele>
        <time>2020-10-02T15:41:22.000Z</time>
      </trkpt>
      <trkpt lat="44.11808" lon="3.24327">
        <ele>499.39999389648</ele>
        <time>2020-10-02T15:41:35.000Z</time>
      </trkpt>
      <trkpt lat="44.11808" lon="3.24331">
        <ele>499.39999389648</ele>
        <time>2020-10-02T15:41:49.000Z</time>
      </trkpt>
      <trkpt lat="44.11808" lon="3.2433">
        <ele>499.60000610352</ele>
        <time>2020-10-02T15:42:00.000Z</time>
      </trkpt>
      <trkpt lat="44.11809" lon="3.2433">
        <ele>499.79998779297</ele>
        <time>2020-10-02T15:42:16.000Z</time>
      </trkpt>
      <trkpt lat="44.1181" lon="3.2433">
        <ele>499.79998779297</ele>
        <time>2020-10-02T15:42:31.000Z</time>
      </trkpt>
      <trkpt lat="44.11813" lon="3.2432">
        <ele>499.79998779297</ele>
        <time>2020-10-02T15:42:43.000Z</time>
      </trkpt>
      <trkpt lat="44.11809" lon="3.243">
        <ele>499.60000610352</ele>
        <time>2020-10-02T15:42:47.000Z</time>
      </trkpt>
      <trkpt lat="44.11803" lon="3.24283">
        <ele>499.20001220703</ele>
        <time>2020-10-02T15:42:50.000Z</time>
      </trkpt>
      <trkpt lat="44.11802" lon="3.24277">
        <ele>498.39999389648</ele>
        <time>2020-10-02T15:42:52.000Z</time>
      </trkpt>
      <trkpt lat="44.11803" lon="3.24276">
        <ele>497.79998779297</ele>
        <time>2020-10-02T15:42:53.000Z</time>
      </trkpt>
      <trkpt lat="44.11807" lon="3.24277">
        <ele>496</ele>
        <time>2020-10-02T15:42:55.000Z</time>
      </trkpt>
      <trkpt lat="44.1181" lon="3.24279">
        <ele>495.20001220703</ele>
        <time>2020-10-02T15:42:56.000Z</time>
      </trkpt>
      <trkpt lat="44.11813" lon="3.24282">
        <ele>494.39999389648</ele>
        <time>2020-10-02T15:42:57.000Z</time>
      </trkpt>
      <trkpt lat="44.11817" lon="3.24286">
        <ele>493</ele>
        <time>2020-10-02T15:42:58.000Z</time>
      </trkpt>
      <trkpt lat="44.11821" lon="3.2429">
        <ele>492.20001220703</ele>
        <time>2020-10-02T15:42:59.000Z</time>
      </trkpt>
      <trkpt lat="44.11826" lon="3.24294">
        <ele>491.39999389648</ele>
        <time>2020-10-02T15:43:00.000Z</time>
      </trkpt>
      <trkpt lat="44.11835" lon="3.24301">
        <ele>489.79998779297</ele>
        <time>2020-10-02T15:43:02.000Z</time>
      </trkpt>
      <trkpt lat="44.11844" lon="3.24306">
        <ele>488</ele>
        <time>2020-10-02T15:43:04.000Z</time>
      </trkpt>
      <trkpt lat="44.11854" lon="3.24307">
        <ele>486.39999389648</ele>
        <time>2020-10-02T15:43:06.000Z</time>
      </trkpt>
      <trkpt lat="44.1186" lon="3.24309">
        <ele>484.60000610352</ele>
        <time>2020-10-02T15:43:08.000Z</time>
      </trkpt>
      <trkpt lat="44.11862" lon="3.24311">
        <ele>483.39999389648</ele>
        <time>2020-10-02T15:43:09.000Z</time>
      </trkpt>
      <trkpt lat="44.11864" lon="3.24318">
        <ele>482.20001220703</ele>
        <time>2020-10-02T15:43:11.000Z</time>
      </trkpt>
      <trkpt lat="44.11864" lon="3.2432">
        <ele>481.60000610352</ele>
        <time>2020-10-02T15:43:12.000Z</time>
      </trkpt>
      <trkpt lat="44.11865" lon="3.24323">
        <ele>481</ele>
        <time>2020-10-02T15:43:13.000Z</time>
      </trkpt>
      <trkpt lat="44.11865" lon="3.24334">
        <ele>480</ele>
        <time>2020-10-02T15:43:16.000Z</time>
      </trkpt>
      <trkpt lat="44.11863" lon="3.24346">
        <ele>479.79998779297</ele>
        <time>2020-10-02T15:43:19.000Z</time>
      </trkpt>
      <trkpt lat="44.11859" lon="3.24361">
        <ele>478.79998779297</ele>
        <time>2020-10-02T15:43:23.000Z</time>
      </trkpt>
      <trkpt lat="44.11858" lon="3.24364">
        <ele>478.20001220703</ele>
        <time>2020-10-02T15:43:24.000Z</time>
      </trkpt>
      <trkpt lat="44.11858" lon="3.24368">
        <ele>477.60000610352</ele>
        <time>2020-10-02T15:43:25.000Z</time>
      </trkpt>
      <trkpt lat="44.11858" lon="3.24375">
        <ele>475.79998779297</ele>
        <time>2020-10-02T15:43:27.000Z</time>
      </trkpt>
      <trkpt lat="44.11855" lon="3.24381">
        <ele>475.60000610352</ele>
        <time>2020-10-02T15:43:28.000Z</time>
      </trkpt>
      <trkpt lat="44.11856" lon="3.24391">
        <ele>474.79998779297</ele>
        <time>2020-10-02T15:43:30.000Z</time>
      </trkpt>
      <trkpt lat="44.11855" lon="3.24393">
        <ele>474.39999389648</ele>
        <time>2020-10-02T15:43:31.000Z</time>
      </trkpt>
      <trkpt lat="44.11856" lon="3.24393">
        <ele>473.79998779297</ele>
        <time>2020-10-02T15:43:32.000Z</time>
      </trkpt>
      <trkpt lat="44.11857" lon="3.24393">
        <ele>473.20001220703</ele>
        <time>2020-10-02T15:43:33.000Z</time>
      </trkpt>
      <trkpt lat="44.11863" lon="3.24391">
        <ele>471.79998779297</ele>
        <time>2020-10-02T15:43:35.000Z</time>
      </trkpt>
      <trkpt lat="44.11867" lon="3.24389">
        <ele>470.79998779297</ele>
        <time>2020-10-02T15:43:36.000Z</time>
      </trkpt>
      <trkpt lat="44.11872" lon="3.24384">
        <ele>469.60000610352</ele>
        <time>2020-10-02T15:43:37.000Z</time>
      </trkpt>
      <trkpt lat="44.11872" lon="3.24382">
        <ele>468.39999389648</ele>
        <time>2020-10-02T15:43:38.000Z</time>
      </trkpt>
      <trkpt lat="44.11868" lon="3.24386">
        <ele>466.60000610352</ele>
        <time>2020-10-02T15:43:40.000Z</time>
      </trkpt>
      <trkpt lat="44.11868" lon="3.24394">
        <ele>465.60000610352</ele>
        <time>2020-10-02T15:43:42.000Z</time>
      </trkpt>
      <trkpt lat="44.11871" lon="3.24401">
        <ele>464.20001220703</ele>
        <time>2020-10-02T15:43:44.000Z</time>
      </trkpt>
      <trkpt lat="44.11871" lon="3.24408">
        <ele>462.39999389648</ele>
        <time>2020-10-02T15:43:46.000Z</time>
      </trkpt>
      <trkpt lat="44.11878" lon="3.24411">
        <ele>461.20001220703</ele>
        <time>2020-10-02T15:43:48.000Z</time>
      </trkpt>
      <trkpt lat="44.11882" lon="3.2441">
        <ele>460.39999389648</ele>
        <time>2020-10-02T15:43:49.000Z</time>
      </trkpt>
      <trkpt lat="44.11885" lon="3.24409">
        <ele>459.39999389648</ele>
        <time>2020-10-02T15:43:50.000Z</time>
      </trkpt>
      <trkpt lat="44.11888" lon="3.24409">
        <ele>458</ele>
        <time>2020-10-02T15:43:51.000Z</time>
      </trkpt>
      <trkpt lat="44.11889" lon="3.24411">
        <ele>456.79998779297</ele>
        <time>2020-10-02T15:43:52.000Z</time>
      </trkpt>
      <trkpt lat="44.1189" lon="3.24416">
        <ele>455.20001220703</ele>
        <time>2020-10-02T15:43:54.000Z</time>
      </trkpt>
      <trkpt lat="44.11888" lon="3.24417">
        <ele>454.20001220703</ele>
        <time>2020-10-02T15:43:55.000Z</time>
      </trkpt>
      <trkpt lat="44.11887" lon="3.24417">
        <ele>451.79998779297</ele>
        <time>2020-10-02T15:43:56.000Z</time>
      </trkpt>
      <trkpt lat="44.11885" lon="3.24419">
        <ele>450.60000610352</ele>
        <time>2020-10-02T15:43:57.000Z</time>
      </trkpt>
      <trkpt lat="44.11883" lon="3.24428">
        <ele>449</ele>
        <time>2020-10-02T15:43:59.000Z</time>
      </trkpt>
      <trkpt lat="44.11881" lon="3.24433">
        <ele>448</ele>
        <time>2020-10-02T15:44:00.000Z</time>
      </trkpt>
      <trkpt lat="44.1188" lon="3.24437">
        <ele>447.20001220703</ele>
        <time>2020-10-02T15:44:01.000Z</time>
      </trkpt>
      <trkpt lat="44.11877" lon="3.24444">
        <ele>445.39999389648</ele>
        <time>2020-10-02T15:44:03.000Z</time>
      </trkpt>
      <trkpt lat="44.11878" lon="3.24445">
        <ele>444.60000610352</ele>
        <time>2020-10-02T15:44:04.000Z</time>
      </trkpt>
      <trkpt lat="44.11881" lon="3.24445">
        <ele>443.60000610352</ele>
        <time>2020-10-02T15:44:05.000Z</time>
      </trkpt>
      <trkpt lat="44.11885" lon="3.24442">
        <ele>442</ele>
        <time>2020-10-02T15:44:07.000Z</time>
      </trkpt>
      <trkpt lat="44.11887" lon="3.2444">
        <ele>441.39999389648</ele>
        <time>2020-10-02T15:44:08.000Z</time>
      </trkpt>
      <trkpt lat="44.11889" lon="3.24439">
        <ele>440.79998779297</ele>
        <time>2020-10-02T15:44:09.000Z</time>
      </trkpt>
      <trkpt lat="44.11894" lon="3.24433">
        <ele>439.20001220703</ele>
        <time>2020-10-02T15:44:11.000Z</time>
      </trkpt>
      <trkpt lat="44.11897" lon="3.24429">
        <ele>438.39999389648</ele>
        <time>2020-10-02T15:44:12.000Z</time>
      </trkpt>
      <trkpt lat="44.11899" lon="3.24425">
        <ele>437.60000610352</ele>
        <time>2020-10-02T15:44:13.000Z</time>
      </trkpt>
      <trkpt lat="44.11899" lon="3.24419">
        <ele>436.20001220703</ele>
        <time>2020-10-02T15:44:15.000Z</time>
      </trkpt>
      <trkpt lat="44.11898" lon="3.24418">
        <ele>435.60000610352</ele>
        <time>2020-10-02T15:44:16.000Z</time>
      </trkpt>
      <trkpt lat="44.11898" lon="3.24418">
        <ele>434.79998779297</ele>
        <time>2020-10-02T15:44:17.000Z</time>
      </trkpt>
      <trkpt lat="44.11898" lon="3.2442">
        <ele>434</ele>
        <time>2020-10-02T15:44:18.000Z</time>
      </trkpt>
      <trkpt lat="44.11898" lon="3.24422">
        <ele>433.20001220703</ele>
        <time>2020-10-02T15:44:19.000Z</time>
      </trkpt>
      <trkpt lat="44.11895" lon="3.24429">
        <ele>432.20001220703</ele>
        <time>2020-10-02T15:44:20.000Z</time>
      </trkpt>
      <trkpt lat="44.11895" lon="3.24434">
        <ele>431.20001220703</ele>
        <time>2020-10-02T15:44:21.000Z</time>
      </trkpt>
      <trkpt lat="44.11897" lon="3.24447">
        <ele>429.20001220703</ele>
        <time>2020-10-02T15:44:23.000Z</time>
      </trkpt>
      <trkpt lat="44.11897" lon="3.24447">
        <ele>427.39999389648</ele>
        <time>2020-10-02T15:44:24.000Z</time>
      </trkpt>
      <trkpt lat="44.11896" lon="3.24458">
        <ele>426.39999389648</ele>
        <time>2020-10-02T15:44:26.000Z</time>
      </trkpt>
      <trkpt lat="44.11897" lon="3.24465">
        <ele>425</ele>
        <time>2020-10-02T15:44:28.000Z</time>
      </trkpt>
      <trkpt lat="44.11905" lon="3.2447">
        <ele>423.79998779297</ele>
        <time>2020-10-02T15:44:30.000Z</time>
      </trkpt>
      <trkpt lat="44.11909" lon="3.24472">
        <ele>423.20001220703</ele>
        <time>2020-10-02T15:44:31.000Z</time>
      </trkpt>
      <trkpt lat="44.1191" lon="3.24474">
        <ele>422.20001220703</ele>
        <time>2020-10-02T15:44:32.000Z</time>
      </trkpt>
      <trkpt lat="44.11911" lon="3.24475">
        <ele>420.79998779297</ele>
        <time>2020-10-02T15:44:33.000Z</time>
      </trkpt>
      <trkpt lat="44.11912" lon="3.24476">
        <ele>419.20001220703</ele>
        <time>2020-10-02T15:44:35.000Z</time>
      </trkpt>
      <trkpt lat="44.11914" lon="3.24477">
        <ele>418.20001220703</ele>
        <time>2020-10-02T15:44:38.000Z</time>
      </trkpt>
      <trkpt lat="44.11914" lon="3.24476">
        <ele>418</ele>
        <time>2020-10-02T15:44:44.000Z</time>
      </trkpt>
      <trkpt lat="44.11913" lon="3.24476">
        <ele>418.20001220703</ele>
        <time>2020-10-02T15:45:00.000Z</time>
      </trkpt>
      <trkpt lat="44.11912" lon="3.24477">
        <ele>418.20001220703</ele>
        <time>2020-10-02T15:45:12.000Z</time>
      </trkpt>
      <trkpt lat="44.11911" lon="3.24477">
        <ele>418.20001220703</ele>
        <time>2020-10-02T15:45:24.000Z</time>
      </trkpt>
      <trkpt lat="44.11911" lon="3.24477">
        <ele>418.20001220703</ele>
        <time>2020-10-02T15:45:39.000Z</time>
      </trkpt>
      <trkpt lat="44.1191" lon="3.24476">
        <ele>418.20001220703</ele>
        <time>2020-10-02T15:45:53.000Z</time>
      </trkpt>
      <trkpt lat="44.11915" lon="3.24481">
        <ele>418.20001220703</ele>
        <time>2020-10-02T15:46:07.000Z</time>
      </trkpt>
      <trkpt lat="44.11933" lon="3.24489">
        <ele>418.20001220703</ele>
        <time>2020-10-02T15:46:12.000Z</time>
      </trkpt>
      <trkpt lat="44.11943" lon="3.24501">
        <ele>418</ele>
        <time>2020-10-02T15:46:16.000Z</time>
      </trkpt>
      <trkpt lat="44.11946" lon="3.24528">
        <ele>417.39999389648</ele>
        <time>2020-10-02T15:46:21.000Z</time>
      </trkpt>
      <trkpt lat="44.11953" lon="3.24546">
        <ele>417.20001220703</ele>
        <time>2020-10-02T15:46:26.000Z</time>
      </trkpt>
      <trkpt lat="44.11957" lon="3.2455">
        <ele>417.20001220703</ele>
        <time>2020-10-02T15:46:28.000Z</time>
      </trkpt>
      <trkpt lat="44.11956" lon="3.24555">
        <ele>417.20001220703</ele>
        <time>2020-10-02T15:46:30.000Z</time>
      </trkpt>
      <trkpt lat="44.11948" lon="3.24566">
        <ele>417</ele>
        <time>2020-10-02T15:46:34.000Z</time>
      </trkpt>
      <trkpt lat="44.11941" lon="3.24573">
        <ele>417</ele>
        <time>2020-10-02T15:46:37.000Z</time>
      </trkpt>
      <trkpt lat="44.11928" lon="3.24583">
        <ele>416.39999389648</ele>
        <time>2020-10-02T15:46:43.000Z</time>
      </trkpt>
      <trkpt lat="44.11926" lon="3.24584">
        <ele>416.39999389648</ele>
        <time>2020-10-02T15:46:45.000Z</time>
      </trkpt>
      <trkpt lat="44.11924" lon="3.24589">
        <ele>416</ele>
        <time>2020-10-02T15:46:52.000Z</time>
      </trkpt>
      <trkpt lat="44.11923" lon="3.2459">
        <ele>415.39999389648</ele>
        <time>2020-10-02T15:47:05.000Z</time>
      </trkpt>
      <trkpt lat="44.11923" lon="3.2459">
        <ele>415.20001220703</ele>
        <time>2020-10-02T15:47:09.000Z</time>
      </trkpt>
      <trkpt lat="44.11923" lon="3.24591">
        <ele>414</ele>
        <time>2020-10-02T15:47:38.000Z</time>
      </trkpt>
      <trkpt lat="44.11923" lon="3.24591">
        <ele>414</ele>
        <time>2020-10-02T15:47:39.000Z</time>
      </trkpt>
      <trkpt lat="44.11923" lon="3.24592">
        <ele>413</ele>
        <time>2020-10-02T15:47:52.000Z</time>
      </trkpt>
      <trkpt lat="44.11923" lon="3.24592">
        <ele>412.79998779297</ele>
        <time>2020-10-02T15:47:57.000Z</time>
      </trkpt>
      <trkpt lat="44.11923" lon="3.24591">
        <ele>411.79998779297</ele>
        <time>2020-10-02T15:48:11.000Z</time>
      </trkpt>
      <trkpt lat="44.11923" lon="3.24591">
        <ele>411.39999389648</ele>
        <time>2020-10-02T15:48:17.000Z</time>
      </trkpt>
      <trkpt lat="44.11925" lon="3.24592">
        <ele>410.79998779297</ele>
        <time>2020-10-02T15:48:32.000Z</time>
      </trkpt>
      <trkpt lat="44.11924" lon="3.24592">
        <ele>410</ele>
        <time>2020-10-02T15:48:43.000Z</time>
      </trkpt>
      <trkpt lat="44.11925" lon="3.24592">
        <ele>410</ele>
        <time>2020-10-02T15:48:44.000Z</time>
      </trkpt>
    </trkseg>
  </trk>
  <trk>
    <name><![CDATA[MILLAU J2 - Millau VTT]]></name>
    <trkseg>
      <trkpt lat="44.12612" lon="3.15282">
        <ele>947.59997558594</ele>
        <time>2020-10-03T16:27:51.000Z</time>
      </trkpt>
      <trkpt lat="44.1261" lon="3.15285">
        <ele>919.79998779297</ele>
        <time>2020-10-03T16:27:52.000Z</time>
      </trkpt>
      <trkpt lat="44.1261" lon="3.15285">
        <ele>905.40002441406</ele>
        <time>2020-10-03T16:27:53.000Z</time>
      </trkpt>
      <trkpt lat="44.12609" lon="3.15286">
        <ele>898</ele>
        <time>2020-10-03T16:27:54.000Z</time>
      </trkpt>
      <trkpt lat="44.12609" lon="3.15287">
        <ele>894.20001220703</ele>
        <time>2020-10-03T16:27:55.000Z</time>
      </trkpt>
      <trkpt lat="44.12609" lon="3.15288">
        <ele>891.79998779297</ele>
        <time>2020-10-03T16:27:56.000Z</time>
      </trkpt>
      <trkpt lat="44.12603" lon="3.15302">
        <ele>890.79998779297</ele>
        <time>2020-10-03T16:27:57.000Z</time>
      </trkpt>
      <trkpt lat="44.12604" lon="3.15301">
        <ele>889.40002441406</ele>
        <time>2020-10-03T16:27:59.000Z</time>
      </trkpt>
      <trkpt lat="44.12605" lon="3.15301">
        <ele>888.20001220703</ele>
        <time>2020-10-03T16:28:02.000Z</time>
      </trkpt>
      <trkpt lat="44.12602" lon="3.15302">
        <ele>887</ele>
        <time>2020-10-03T16:28:13.000Z</time>
      </trkpt>
      <trkpt lat="44.12602" lon="3.15302">
        <ele>886.59997558594</ele>
        <time>2020-10-03T16:28:14.000Z</time>
      </trkpt>
      <trkpt lat="44.126" lon="3.15302">
        <ele>885.79998779297</ele>
        <time>2020-10-03T16:28:17.000Z</time>
      </trkpt>
      <trkpt lat="44.126" lon="3.15302">
        <ele>885</ele>
        <time>2020-10-03T16:28:20.000Z</time>
      </trkpt>
      <trkpt lat="44.126" lon="3.15301">
        <ele>884.79998779297</ele>
        <time>2020-10-03T16:28:21.000Z</time>
      </trkpt>
      <trkpt lat="44.126" lon="3.153">
        <ele>883.59997558594</ele>
        <time>2020-10-03T16:28:25.000Z</time>
      </trkpt>
      <trkpt lat="44.12599" lon="3.15299">
        <ele>882.20001220703</ele>
        <time>2020-10-03T16:28:29.000Z</time>
      </trkpt>
      <trkpt lat="44.12599" lon="3.15299">
        <ele>882</ele>
        <time>2020-10-03T16:28:30.000Z</time>
      </trkpt>
      <trkpt lat="44.126" lon="3.15297">
        <ele>881.40002441406</ele>
        <time>2020-10-03T16:28:35.000Z</time>
      </trkpt>
      <trkpt lat="44.12601" lon="3.15295">
        <ele>881</ele>
        <time>2020-10-03T16:28:42.000Z</time>
      </trkpt>
      <trkpt lat="44.12605" lon="3.15292">
        <ele>881.20001220703</ele>
        <time>2020-10-03T16:28:56.000Z</time>
      </trkpt>
      <trkpt lat="44.12602" lon="3.15292">
        <ele>881.79998779297</ele>
        <time>2020-10-03T16:29:11.000Z</time>
      </trkpt>
      <trkpt lat="44.12599" lon="3.1529">
        <ele>882.20001220703</ele>
        <time>2020-10-03T16:29:13.000Z</time>
      </trkpt>
      <trkpt lat="44.12591" lon="3.15283">
        <ele>883.59997558594</ele>
        <time>2020-10-03T16:29:17.000Z</time>
      </trkpt>
      <trkpt lat="44.12589" lon="3.1528">
        <ele>884.40002441406</ele>
        <time>2020-10-03T16:29:18.000Z</time>
      </trkpt>
      <trkpt lat="44.12584" lon="3.15274">
        <ele>885</ele>
        <time>2020-10-03T16:29:20.000Z</time>
      </trkpt>
      <trkpt lat="44.12576" lon="3.15266">
        <ele>885.20001220703</ele>
        <time>2020-10-03T16:29:23.000Z</time>
      </trkpt>
      <trkpt lat="44.12557" lon="3.15265">
        <ele>885.20001220703</ele>
        <time>2020-10-03T16:29:29.000Z</time>
      </trkpt>
      <trkpt lat="44.12528" lon="3.15261">
        <ele>885.59997558594</ele>
        <time>2020-10-03T16:29:37.000Z</time>
      </trkpt>
      <trkpt lat="44.12499" lon="3.15253">
        <ele>885.59997558594</ele>
        <time>2020-10-03T16:29:46.000Z</time>
      </trkpt>
      <trkpt lat="44.12477" lon="3.15246">
        <ele>885.59997558594</ele>
        <time>2020-10-03T16:29:53.000Z</time>
      </trkpt>
      <trkpt lat="44.12461" lon="3.15237">
        <ele>885</ele>
        <time>2020-10-03T16:29:59.000Z</time>
      </trkpt>
      <trkpt lat="44.12453" lon="3.15233">
        <ele>884.40002441406</ele>
        <time>2020-10-03T16:30:02.000Z</time>
      </trkpt>
      <trkpt lat="44.1244" lon="3.15225">
        <ele>883.59997558594</ele>
        <time>2020-10-03T16:30:06.000Z</time>
      </trkpt>
      <trkpt lat="44.12426" lon="3.15219">
        <ele>882.40002441406</ele>
        <time>2020-10-03T16:30:10.000Z</time>
      </trkpt>
      <trkpt lat="44.12424" lon="3.15218">
        <ele>882.20001220703</ele>
        <time>2020-10-03T16:30:11.000Z</time>
      </trkpt>
      <trkpt lat="44.12409" lon="3.1521">
        <ele>881.59997558594</ele>
        <time>2020-10-03T16:30:15.000Z</time>
      </trkpt>
      <trkpt lat="44.12402" lon="3.15206">
        <ele>881</ele>
        <time>2020-10-03T16:30:17.000Z</time>
      </trkpt>
      <trkpt lat="44.12393" lon="3.152">
        <ele>880.59997558594</ele>
        <time>2020-10-03T16:30:20.000Z</time>
      </trkpt>
      <trkpt lat="44.12376" lon="3.15191">
        <ele>880.20001220703</ele>
        <time>2020-10-03T16:30:24.000Z</time>
      </trkpt>
      <trkpt lat="44.12352" lon="3.15183">
        <ele>880.20001220703</ele>
        <time>2020-10-03T16:30:29.000Z</time>
      </trkpt>
      <trkpt lat="44.12332" lon="3.15176">
        <ele>880.59997558594</ele>
        <time>2020-10-03T16:30:35.000Z</time>
      </trkpt>
      <trkpt lat="44.12319" lon="3.15169">
        <ele>881</ele>
        <time>2020-10-03T16:30:40.000Z</time>
      </trkpt>
      <trkpt lat="44.12316" lon="3.1516">
        <ele>881.20001220703</ele>
        <time>2020-10-03T16:30:43.000Z</time>
      </trkpt>
      <trkpt lat="44.12317" lon="3.15157">
        <ele>881.20001220703</ele>
        <time>2020-10-03T16:30:44.000Z</time>
      </trkpt>
      <trkpt lat="44.12322" lon="3.15139">
        <ele>881.79998779297</ele>
        <time>2020-10-03T16:30:49.000Z</time>
      </trkpt>
      <trkpt lat="44.12325" lon="3.1512">
        <ele>882</ele>
        <time>2020-10-03T16:30:54.000Z</time>
      </trkpt>
      <trkpt lat="44.12326" lon="3.15113">
        <ele>882</ele>
        <time>2020-10-03T16:30:56.000Z</time>
      </trkpt>
      <trkpt lat="44.1233" lon="3.15078">
        <ele>882.40002441406</ele>
        <time>2020-10-03T16:31:04.000Z</time>
      </trkpt>
      <trkpt lat="44.12334" lon="3.15049">
        <ele>882.79998779297</ele>
        <time>2020-10-03T16:31:11.000Z</time>
      </trkpt>
      <trkpt lat="44.12333" lon="3.15021">
        <ele>882.79998779297</ele>
        <time>2020-10-03T16:31:19.000Z</time>
      </trkpt>
      <trkpt lat="44.12333" lon="3.15005">
        <ele>883</ele>
        <time>2020-10-03T16:31:24.000Z</time>
      </trkpt>
      <trkpt lat="44.12336" lon="3.14978">
        <ele>883.40002441406</ele>
        <time>2020-10-03T16:31:32.000Z</time>
      </trkpt>
      <trkpt lat="44.12333" lon="3.14953">
        <ele>883.20001220703</ele>
        <time>2020-10-03T16:31:39.000Z</time>
      </trkpt>
      <trkpt lat="44.1234" lon="3.14928">
        <ele>883.40002441406</ele>
        <time>2020-10-03T16:31:45.000Z</time>
      </trkpt>
      <trkpt lat="44.12338" lon="3.149">
        <ele>883.40002441406</ele>
        <time>2020-10-03T16:31:52.000Z</time>
      </trkpt>
      <trkpt lat="44.1233" lon="3.14881">
        <ele>883.79998779297</ele>
        <time>2020-10-03T16:31:57.000Z</time>
      </trkpt>
      <trkpt lat="44.12332" lon="3.1487">
        <ele>884.20001220703</ele>
        <time>2020-10-03T16:32:00.000Z</time>
      </trkpt>
      <trkpt lat="44.12325" lon="3.14837">
        <ele>884.59997558594</ele>
        <time>2020-10-03T16:32:08.000Z</time>
      </trkpt>
      <trkpt lat="44.1232" lon="3.14812">
        <ele>884.59997558594</ele>
        <time>2020-10-03T16:32:14.000Z</time>
      </trkpt>
      <trkpt lat="44.12314" lon="3.14787">
        <ele>884.79998779297</ele>
        <time>2020-10-03T16:32:20.000Z</time>
      </trkpt>
      <trkpt lat="44.12287" lon="3.14764">
        <ele>884.79998779297</ele>
        <time>2020-10-03T16:32:26.000Z</time>
      </trkpt>
      <trkpt lat="44.12283" lon="3.14761">
        <ele>884.79998779297</ele>
        <time>2020-10-03T16:32:27.000Z</time>
      </trkpt>
      <trkpt lat="44.12254" lon="3.14743">
        <ele>885</ele>
        <time>2020-10-03T16:32:33.000Z</time>
      </trkpt>
      <trkpt lat="44.12243" lon="3.14734">
        <ele>885</ele>
        <time>2020-10-03T16:32:38.000Z</time>
      </trkpt>
      <trkpt lat="44.1224" lon="3.14731">
        <ele>885.20001220703</ele>
        <time>2020-10-03T16:32:44.000Z</time>
      </trkpt>
      <trkpt lat="44.12236" lon="3.14731">
        <ele>885</ele>
        <time>2020-10-03T16:32:56.000Z</time>
      </trkpt>
      <trkpt lat="44.12237" lon="3.1473">
        <ele>884.79998779297</ele>
        <time>2020-10-03T16:33:09.000Z</time>
      </trkpt>
      <trkpt lat="44.12236" lon="3.14731">
        <ele>884.59997558594</ele>
        <time>2020-10-03T16:33:22.000Z</time>
      </trkpt>
      <trkpt lat="44.12234" lon="3.14732">
        <ele>884.40002441406</ele>
        <time>2020-10-03T16:33:36.000Z</time>
      </trkpt>
      <trkpt lat="44.12231" lon="3.14733">
        <ele>884</ele>
        <time>2020-10-03T16:33:42.000Z</time>
      </trkpt>
      <trkpt lat="44.12232" lon="3.14731">
        <ele>883.79998779297</ele>
        <time>2020-10-03T16:33:50.000Z</time>
      </trkpt>
      <trkpt lat="44.12234" lon="3.1473">
        <ele>883.40002441406</ele>
        <time>2020-10-03T16:34:07.000Z</time>
      </trkpt>
      <trkpt lat="44.12234" lon="3.14729">
        <ele>883.40002441406</ele>
        <time>2020-10-03T16:34:17.000Z</time>
      </trkpt>
      <trkpt lat="44.12234" lon="3.14729">
        <ele>883.40002441406</ele>
        <time>2020-10-03T16:34:20.000Z</time>
      </trkpt>
      <trkpt lat="44.12234" lon="3.14729">
        <ele>882.59997558594</ele>
        <time>2020-10-03T16:34:33.000Z</time>
      </trkpt>
      <trkpt lat="44.12233" lon="3.14729">
        <ele>882.40002441406</ele>
        <time>2020-10-03T16:34:40.000Z</time>
      </trkpt>
      <trkpt lat="44.12232" lon="3.14728">
        <ele>882</ele>
        <time>2020-10-03T16:34:49.000Z</time>
      </trkpt>
      <trkpt lat="44.12232" lon="3.14728">
        <ele>881.40002441406</ele>
        <time>2020-10-03T16:35:00.000Z</time>
      </trkpt>
      <trkpt lat="44.12231" lon="3.14728">
        <ele>881.59997558594</ele>
        <time>2020-10-03T16:35:04.000Z</time>
      </trkpt>
      <trkpt lat="44.12232" lon="3.14729">
        <ele>881</ele>
        <time>2020-10-03T16:35:22.000Z</time>
      </trkpt>
      <trkpt lat="44.12232" lon="3.14729">
        <ele>880.59997558594</ele>
        <time>2020-10-03T16:35:25.000Z</time>
      </trkpt>
      <trkpt lat="44.12232" lon="3.1473">
        <ele>880.20001220703</ele>
        <time>2020-10-03T16:35:38.000Z</time>
      </trkpt>
      <trkpt lat="44.12234" lon="3.14726">
        <ele>880</ele>
        <time>2020-10-03T16:35:46.000Z</time>
      </trkpt>
      <trkpt lat="44.12234" lon="3.14722">
        <ele>879.79998779297</ele>
        <time>2020-10-03T16:35:48.000Z</time>
      </trkpt>
      <trkpt lat="44.12239" lon="3.14706">
        <ele>879.59997558594</ele>
        <time>2020-10-03T16:35:53.000Z</time>
      </trkpt>
      <trkpt lat="44.12238" lon="3.14702">
        <ele>879.59997558594</ele>
        <time>2020-10-03T16:35:54.000Z</time>
      </trkpt>
      <trkpt lat="44.12238" lon="3.1469">
        <ele>879.40002441406</ele>
        <time>2020-10-03T16:35:57.000Z</time>
      </trkpt>
      <trkpt lat="44.12239" lon="3.14689">
        <ele>879.40002441406</ele>
        <time>2020-10-03T16:35:58.000Z</time>
      </trkpt>
      <trkpt lat="44.12247" lon="3.1469">
        <ele>879.40002441406</ele>
        <time>2020-10-03T16:36:00.000Z</time>
      </trkpt>
      <trkpt lat="44.12256" lon="3.14697">
        <ele>879.40002441406</ele>
        <time>2020-10-03T16:36:03.000Z</time>
      </trkpt>
      <trkpt lat="44.12271" lon="3.14695">
        <ele>879.20001220703</ele>
        <time>2020-10-03T16:36:07.000Z</time>
      </trkpt>
      <trkpt lat="44.12275" lon="3.14695">
        <ele>879.20001220703</ele>
        <time>2020-10-03T16:36:08.000Z</time>
      </trkpt>
      <trkpt lat="44.12285" lon="3.14693">
        <ele>879</ele>
        <time>2020-10-03T16:36:11.000Z</time>
      </trkpt>
      <trkpt lat="44.12299" lon="3.14695">
        <ele>879</ele>
        <time>2020-10-03T16:36:15.000Z</time>
      </trkpt>
      <trkpt lat="44.12306" lon="3.14697">
        <ele>878.79998779297</ele>
        <time>2020-10-03T16:36:19.000Z</time>
      </trkpt>
      <trkpt lat="44.12323" lon="3.14686">
        <ele>878.59997558594</ele>
        <time>2020-10-03T16:36:23.000Z</time>
      </trkpt>
      <trkpt lat="44.12328" lon="3.14677">
        <ele>878.40002441406</ele>
        <time>2020-10-03T16:36:25.000Z</time>
      </trkpt>
      <trkpt lat="44.12334" lon="3.1467">
        <ele>878.20001220703</ele>
        <time>2020-10-03T16:36:27.000Z</time>
      </trkpt>
      <trkpt lat="44.12336" lon="3.14667">
        <ele>877.79998779297</ele>
        <time>2020-10-03T16:36:28.000Z</time>
      </trkpt>
      <trkpt lat="44.12349" lon="3.14658">
        <ele>877.40002441406</ele>
        <time>2020-10-03T16:36:32.000Z</time>
      </trkpt>
      <trkpt lat="44.12359" lon="3.14646">
        <ele>877.20001220703</ele>
        <time>2020-10-03T16:36:37.000Z</time>
      </trkpt>
      <trkpt lat="44.12357" lon="3.14646">
        <ele>877.40002441406</ele>
        <time>2020-10-03T16:36:43.000Z</time>
      </trkpt>
      <trkpt lat="44.12357" lon="3.14648">
        <ele>877.20001220703</ele>
        <time>2020-10-03T16:36:47.000Z</time>
      </trkpt>
      <trkpt lat="44.12357" lon="3.14649">
        <ele>877</ele>
        <time>2020-10-03T16:36:50.000Z</time>
      </trkpt>
      <trkpt lat="44.12355" lon="3.14646">
        <ele>876.59997558594</ele>
        <time>2020-10-03T16:36:57.000Z</time>
      </trkpt>
      <trkpt lat="44.12356" lon="3.14644">
        <ele>876.40002441406</ele>
        <time>2020-10-03T16:37:00.000Z</time>
      </trkpt>
      <trkpt lat="44.1236" lon="3.14642">
        <ele>875.59997558594</ele>
        <time>2020-10-03T16:37:03.000Z</time>
      </trkpt>
      <trkpt lat="44.12361" lon="3.14641">
        <ele>875.40002441406</ele>
        <time>2020-10-03T16:37:04.000Z</time>
      </trkpt>
      <trkpt lat="44.12361" lon="3.1464">
        <ele>874.40002441406</ele>
        <time>2020-10-03T16:37:08.000Z</time>
      </trkpt>
      <trkpt lat="44.12361" lon="3.1464">
        <ele>873.79998779297</ele>
        <time>2020-10-03T16:37:10.000Z</time>
      </trkpt>
      <trkpt lat="44.12361" lon="3.1464">
        <ele>873.20001220703</ele>
        <time>2020-10-03T16:37:13.000Z</time>
      </trkpt>
      <trkpt lat="44.12361" lon="3.1464">
        <ele>870</ele>
        <time>2020-10-03T16:37:17.000Z</time>
      </trkpt>
      <trkpt lat="44.12361" lon="3.1464">
        <ele>868.20001220703</ele>
        <time>2020-10-03T16:37:18.000Z</time>
      </trkpt>
      <trkpt lat="44.12362" lon="3.1464">
        <ele>867</ele>
        <time>2020-10-03T16:37:19.000Z</time>
      </trkpt>
      <trkpt lat="44.12361" lon="3.14641">
        <ele>866</ele>
        <time>2020-10-03T16:37:25.000Z</time>
      </trkpt>
      <trkpt lat="44.12361" lon="3.1464">
        <ele>865.79998779297</ele>
        <time>2020-10-03T16:37:54.000Z</time>
      </trkpt>
      <trkpt lat="44.12359" lon="3.1463">
        <ele>866</ele>
        <time>2020-10-03T16:38:01.000Z</time>
      </trkpt>
      <trkpt lat="44.12357" lon="3.14626">
        <ele>866</ele>
        <time>2020-10-03T16:38:03.000Z</time>
      </trkpt>
      <trkpt lat="44.12351" lon="3.14609">
        <ele>866.59997558594</ele>
        <time>2020-10-03T16:38:08.000Z</time>
      </trkpt>
      <trkpt lat="44.12342" lon="3.1459">
        <ele>866.79998779297</ele>
        <time>2020-10-03T16:38:12.000Z</time>
      </trkpt>
      <trkpt lat="44.12339" lon="3.14584">
        <ele>866.79998779297</ele>
        <time>2020-10-03T16:38:13.000Z</time>
      </trkpt>
      <trkpt lat="44.12325" lon="3.14566">
        <ele>867.59997558594</ele>
        <time>2020-10-03T16:38:17.000Z</time>
      </trkpt>
      <trkpt lat="44.12323" lon="3.14552">
        <ele>867.79998779297</ele>
        <time>2020-10-03T16:38:21.000Z</time>
      </trkpt>
      <trkpt lat="44.12316" lon="3.14544">
        <ele>867.79998779297</ele>
        <time>2020-10-03T16:38:25.000Z</time>
      </trkpt>
      <trkpt lat="44.12312" lon="3.14541">
        <ele>868</ele>
        <time>2020-10-03T16:38:29.000Z</time>
      </trkpt>
      <trkpt lat="44.12311" lon="3.14542">
        <ele>868</ele>
        <time>2020-10-03T16:38:34.000Z</time>
      </trkpt>
      <trkpt lat="44.12311" lon="3.1454">
        <ele>868</ele>
        <time>2020-10-03T16:38:39.000Z</time>
      </trkpt>
      <trkpt lat="44.12311" lon="3.14537">
        <ele>868.20001220703</ele>
        <time>2020-10-03T16:38:45.000Z</time>
      </trkpt>
      <trkpt lat="44.12309" lon="3.14534">
        <ele>868.20001220703</ele>
        <time>2020-10-03T16:38:46.000Z</time>
      </trkpt>
      <trkpt lat="44.12304" lon="3.14518">
        <ele>868</ele>
        <time>2020-10-03T16:38:50.000Z</time>
      </trkpt>
      <trkpt lat="44.12304" lon="3.14496">
        <ele>868.20001220703</ele>
        <time>2020-10-03T16:38:55.000Z</time>
      </trkpt>
      <trkpt lat="44.12307" lon="3.14466">
        <ele>868</ele>
        <time>2020-10-03T16:39:01.000Z</time>
      </trkpt>
      <trkpt lat="44.12307" lon="3.14441">
        <ele>868</ele>
        <time>2020-10-03T16:39:06.000Z</time>
      </trkpt>
      <trkpt lat="44.12301" lon="3.14432">
        <ele>868</ele>
        <time>2020-10-03T16:39:08.000Z</time>
      </trkpt>
      <trkpt lat="44.12294" lon="3.14421">
        <ele>868.20001220703</ele>
        <time>2020-10-03T16:39:10.000Z</time>
      </trkpt>
      <trkpt lat="44.12291" lon="3.14394">
        <ele>868</ele>
        <time>2020-10-03T16:39:14.000Z</time>
      </trkpt>
      <trkpt lat="44.12286" lon="3.14381">
        <ele>868</ele>
        <time>2020-10-03T16:39:17.000Z</time>
      </trkpt>
      <trkpt lat="44.12281" lon="3.14374">
        <ele>867.79998779297</ele>
        <time>2020-10-03T16:39:21.000Z</time>
      </trkpt>
      <trkpt lat="44.12278" lon="3.14371">
        <ele>867.79998779297</ele>
        <time>2020-10-03T16:39:22.000Z</time>
      </trkpt>
      <trkpt lat="44.12269" lon="3.14369">
        <ele>856.79998779297</ele>
        <time>2020-10-03T16:39:25.000Z</time>
      </trkpt>
      <trkpt lat="44.12269" lon="3.14369">
        <ele>837.79998779297</ele>
        <time>2020-10-03T16:39:26.000Z</time>
      </trkpt>
      <trkpt lat="44.1227" lon="3.14369">
        <ele>824</ele>
        <time>2020-10-03T16:39:27.000Z</time>
      </trkpt>
      <trkpt lat="44.1227" lon="3.14369">
        <ele>816.20001220703</ele>
        <time>2020-10-03T16:39:28.000Z</time>
      </trkpt>
      <trkpt lat="44.1227" lon="3.14369">
        <ele>812.20001220703</ele>
        <time>2020-10-03T16:39:29.000Z</time>
      </trkpt>
      <trkpt lat="44.1227" lon="3.14368">
        <ele>810.20001220703</ele>
        <time>2020-10-03T16:39:30.000Z</time>
      </trkpt>
      <trkpt lat="44.1227" lon="3.14369">
        <ele>809.20001220703</ele>
        <time>2020-10-03T16:39:31.000Z</time>
      </trkpt>
      <trkpt lat="44.12269" lon="3.14369">
        <ele>808</ele>
        <time>2020-10-03T16:39:34.000Z</time>
      </trkpt>
      <trkpt lat="44.12268" lon="3.14368">
        <ele>807.79998779297</ele>
        <time>2020-10-03T16:39:36.000Z</time>
      </trkpt>
      <trkpt lat="44.12266" lon="3.14357">
        <ele>807.59997558594</ele>
        <time>2020-10-03T16:39:43.000Z</time>
      </trkpt>
      <trkpt lat="44.12261" lon="3.14349">
        <ele>807.59997558594</ele>
        <time>2020-10-03T16:39:45.000Z</time>
      </trkpt>
      <trkpt lat="44.12256" lon="3.14336">
        <ele>807</ele>
        <time>2020-10-03T16:39:49.000Z</time>
      </trkpt>
      <trkpt lat="44.12256" lon="3.14334">
        <ele>806.79998779297</ele>
        <time>2020-10-03T16:39:50.000Z</time>
      </trkpt>
      <trkpt lat="44.12255" lon="3.14329">
        <ele>805.59997558594</ele>
        <time>2020-10-03T16:39:53.000Z</time>
      </trkpt>
      <trkpt lat="44.12255" lon="3.14327">
        <ele>804.59997558594</ele>
        <time>2020-10-03T16:39:54.000Z</time>
      </trkpt>
      <trkpt lat="44.12254" lon="3.14325">
        <ele>804</ele>
        <time>2020-10-03T16:39:55.000Z</time>
      </trkpt>
      <trkpt lat="44.12248" lon="3.1432">
        <ele>803.20001220703</ele>
        <time>2020-10-03T16:39:56.000Z</time>
      </trkpt>
      <trkpt lat="44.12247" lon="3.14321">
        <ele>802.40002441406</ele>
        <time>2020-10-03T16:39:57.000Z</time>
      </trkpt>
      <trkpt lat="44.12246" lon="3.14322">
        <ele>801.79998779297</ele>
        <time>2020-10-03T16:39:58.000Z</time>
      </trkpt>
      <trkpt lat="44.12245" lon="3.14324">
        <ele>801.20001220703</ele>
        <time>2020-10-03T16:39:59.000Z</time>
      </trkpt>
      <trkpt lat="44.12243" lon="3.14327">
        <ele>800.20001220703</ele>
        <time>2020-10-03T16:40:01.000Z</time>
      </trkpt>
      <trkpt lat="44.1224" lon="3.1433">
        <ele>798.59997558594</ele>
        <time>2020-10-03T16:40:03.000Z</time>
      </trkpt>
      <trkpt lat="44.12237" lon="3.1433">
        <ele>797.40002441406</ele>
        <time>2020-10-03T16:40:05.000Z</time>
      </trkpt>
      <trkpt lat="44.12233" lon="3.14328">
        <ele>796.40002441406</ele>
        <time>2020-10-03T16:40:07.000Z</time>
      </trkpt>
      <trkpt lat="44.12232" lon="3.14323">
        <ele>795.79998779297</ele>
        <time>2020-10-03T16:40:09.000Z</time>
      </trkpt>
      <trkpt lat="44.12234" lon="3.14317">
        <ele>795</ele>
        <time>2020-10-03T16:40:11.000Z</time>
      </trkpt>
      <trkpt lat="44.12233" lon="3.14314">
        <ele>794.59997558594</ele>
        <time>2020-10-03T16:40:12.000Z</time>
      </trkpt>
      <trkpt lat="44.12232" lon="3.14312">
        <ele>793.79998779297</ele>
        <time>2020-10-03T16:40:13.000Z</time>
      </trkpt>
      <trkpt lat="44.12229" lon="3.14309">
        <ele>792.79998779297</ele>
        <time>2020-10-03T16:40:15.000Z</time>
      </trkpt>
      <trkpt lat="44.12227" lon="3.14309">
        <ele>790.79998779297</ele>
        <time>2020-10-03T16:40:16.000Z</time>
      </trkpt>
      <trkpt lat="44.12222" lon="3.14312">
        <ele>788.79998779297</ele>
        <time>2020-10-03T16:40:18.000Z</time>
      </trkpt>
      <trkpt lat="44.12217" lon="3.14312">
        <ele>786.59997558594</ele>
        <time>2020-10-03T16:40:20.000Z</time>
      </trkpt>
      <trkpt lat="44.12214" lon="3.14311">
        <ele>785.59997558594</ele>
        <time>2020-10-03T16:40:21.000Z</time>
      </trkpt>
      <trkpt lat="44.12209" lon="3.14311">
        <ele>784</ele>
        <time>2020-10-03T16:40:23.000Z</time>
      </trkpt>
      <trkpt lat="44.12205" lon="3.14311">
        <ele>782.20001220703</ele>
        <time>2020-10-03T16:40:25.000Z</time>
      </trkpt>
      <trkpt lat="44.122" lon="3.14311">
        <ele>781</ele>
        <time>2020-10-03T16:40:27.000Z</time>
      </trkpt>
      <trkpt lat="44.12197" lon="3.14308">
        <ele>778.79998779297</ele>
        <time>2020-10-03T16:40:29.000Z</time>
      </trkpt>
      <trkpt lat="44.12194" lon="3.14307">
        <ele>777.79998779297</ele>
        <time>2020-10-03T16:40:30.000Z</time>
      </trkpt>
      <trkpt lat="44.12189" lon="3.14307">
        <ele>776.79998779297</ele>
        <time>2020-10-03T16:40:31.000Z</time>
      </trkpt>
      <trkpt lat="44.12181" lon="3.14308">
        <ele>775</ele>
        <time>2020-10-03T16:40:33.000Z</time>
      </trkpt>
      <trkpt lat="44.12178" lon="3.14308">
        <ele>774.20001220703</ele>
        <time>2020-10-03T16:40:34.000Z</time>
      </trkpt>
      <trkpt lat="44.12176" lon="3.14309">
        <ele>773.59997558594</ele>
        <time>2020-10-03T16:40:35.000Z</time>
      </trkpt>
      <trkpt lat="44.12174" lon="3.1431">
        <ele>772.79998779297</ele>
        <time>2020-10-03T16:40:36.000Z</time>
      </trkpt>
      <trkpt lat="44.1217" lon="3.14312">
        <ele>771.79998779297</ele>
        <time>2020-10-03T16:40:37.000Z</time>
      </trkpt>
      <trkpt lat="44.12166" lon="3.14313">
        <ele>770.79998779297</ele>
        <time>2020-10-03T16:40:38.000Z</time>
      </trkpt>
      <trkpt lat="44.12162" lon="3.14313">
        <ele>769.59997558594</ele>
        <time>2020-10-03T16:40:39.000Z</time>
      </trkpt>
      <trkpt lat="44.12158" lon="3.14311">
        <ele>768.79998779297</ele>
        <time>2020-10-03T16:40:40.000Z</time>
      </trkpt>
      <trkpt lat="44.12155" lon="3.14309">
        <ele>768</ele>
        <time>2020-10-03T16:40:41.000Z</time>
      </trkpt>
      <trkpt lat="44.12149" lon="3.14305">
        <ele>766.59997558594</ele>
        <time>2020-10-03T16:40:43.000Z</time>
      </trkpt>
      <trkpt lat="44.12143" lon="3.14302">
        <ele>766</ele>
        <time>2020-10-03T16:40:45.000Z</time>
      </trkpt>
      <trkpt lat="44.1214" lon="3.14301">
        <ele>765</ele>
        <time>2020-10-03T16:40:46.000Z</time>
      </trkpt>
      <trkpt lat="44.12133" lon="3.143">
        <ele>763.79998779297</ele>
        <time>2020-10-03T16:40:48.000Z</time>
      </trkpt>
      <trkpt lat="44.12127" lon="3.14298">
        <ele>763.20001220703</ele>
        <time>2020-10-03T16:40:50.000Z</time>
      </trkpt>
      <trkpt lat="44.12116" lon="3.14298">
        <ele>763</ele>
        <time>2020-10-03T16:40:55.000Z</time>
      </trkpt>
      <trkpt lat="44.12115" lon="3.143">
        <ele>763</ele>
        <time>2020-10-03T16:40:59.000Z</time>
      </trkpt>
      <trkpt lat="44.12115" lon="3.14302">
        <ele>763.20001220703</ele>
        <time>2020-10-03T16:41:00.000Z</time>
      </trkpt>
      <trkpt lat="44.12112" lon="3.1431">
        <ele>763.20001220703</ele>
        <time>2020-10-03T16:41:03.000Z</time>
      </trkpt>
      <trkpt lat="44.1211" lon="3.14314">
        <ele>763.20001220703</ele>
        <time>2020-10-03T16:41:04.000Z</time>
      </trkpt>
      <trkpt lat="44.12097" lon="3.14332">
        <ele>763.20001220703</ele>
        <time>2020-10-03T16:41:09.000Z</time>
      </trkpt>
      <trkpt lat="44.12093" lon="3.14337">
        <ele>762.79998779297</ele>
        <time>2020-10-03T16:41:11.000Z</time>
      </trkpt>
      <trkpt lat="44.12085" lon="3.14343">
        <ele>761.79998779297</ele>
        <time>2020-10-03T16:41:14.000Z</time>
      </trkpt>
      <trkpt lat="44.12084" lon="3.14345">
        <ele>761.40002441406</ele>
        <time>2020-10-03T16:41:15.000Z</time>
      </trkpt>
      <trkpt lat="44.12083" lon="3.14346">
        <ele>760.59997558594</ele>
        <time>2020-10-03T16:41:16.000Z</time>
      </trkpt>
      <trkpt lat="44.12078" lon="3.14349">
        <ele>759.20001220703</ele>
        <time>2020-10-03T16:41:18.000Z</time>
      </trkpt>
      <trkpt lat="44.12072" lon="3.14353">
        <ele>757.20001220703</ele>
        <time>2020-10-03T16:41:20.000Z</time>
      </trkpt>
      <trkpt lat="44.12063" lon="3.14353">
        <ele>755.59997558594</ele>
        <time>2020-10-03T16:41:23.000Z</time>
      </trkpt>
      <trkpt lat="44.12058" lon="3.14353">
        <ele>754</ele>
        <time>2020-10-03T16:41:25.000Z</time>
      </trkpt>
      <trkpt lat="44.12055" lon="3.14353">
        <ele>753.20001220703</ele>
        <time>2020-10-03T16:41:26.000Z</time>
      </trkpt>
      <trkpt lat="44.12053" lon="3.14354">
        <ele>752.59997558594</ele>
        <time>2020-10-03T16:41:27.000Z</time>
      </trkpt>
      <trkpt lat="44.12049" lon="3.14354">
        <ele>751.20001220703</ele>
        <time>2020-10-03T16:41:30.000Z</time>
      </trkpt>
      <trkpt lat="44.12044" lon="3.14354">
        <ele>750</ele>
        <time>2020-10-03T16:41:34.000Z</time>
      </trkpt>
      <trkpt lat="44.12037" lon="3.14356">
        <ele>748.79998779297</ele>
        <time>2020-10-03T16:41:39.000Z</time>
      </trkpt>
      <trkpt lat="44.12029" lon="3.14357">
        <ele>747.79998779297</ele>
        <time>2020-10-03T16:41:43.000Z</time>
      </trkpt>
      <trkpt lat="44.12028" lon="3.14357">
        <ele>747.59997558594</ele>
        <time>2020-10-03T16:41:44.000Z</time>
      </trkpt>
      <trkpt lat="44.12021" lon="3.14359">
        <ele>747.40002441406</ele>
        <time>2020-10-03T16:41:52.000Z</time>
      </trkpt>
      <trkpt lat="44.12012" lon="3.14359">
        <ele>748</ele>
        <time>2020-10-03T16:42:03.000Z</time>
      </trkpt>
      <trkpt lat="44.12006" lon="3.1436">
        <ele>748.40002441406</ele>
        <time>2020-10-03T16:42:10.000Z</time>
      </trkpt>
      <trkpt lat="44.12005" lon="3.14359">
        <ele>749</ele>
        <time>2020-10-03T16:42:13.000Z</time>
      </trkpt>
      <trkpt lat="44.12004" lon="3.14358">
        <ele>749.59997558594</ele>
        <time>2020-10-03T16:42:14.000Z</time>
      </trkpt>
      <trkpt lat="44.12002" lon="3.14358">
        <ele>749.59997558594</ele>
        <time>2020-10-03T16:42:15.000Z</time>
      </trkpt>
      <trkpt lat="44.11993" lon="3.14355">
        <ele>749.79998779297</ele>
        <time>2020-10-03T16:42:21.000Z</time>
      </trkpt>
      <trkpt lat="44.1198" lon="3.14357">
        <ele>750.20001220703</ele>
        <time>2020-10-03T16:42:26.000Z</time>
      </trkpt>
      <trkpt lat="44.11967" lon="3.14358">
        <ele>750.40002441406</ele>
        <time>2020-10-03T16:42:31.000Z</time>
      </trkpt>
      <trkpt lat="44.11964" lon="3.14359">
        <ele>750.40002441406</ele>
        <time>2020-10-03T16:42:32.000Z</time>
      </trkpt>
      <trkpt lat="44.11949" lon="3.14362">
        <ele>750.40002441406</ele>
        <time>2020-10-03T16:42:38.000Z</time>
      </trkpt>
      <trkpt lat="44.11938" lon="3.14363">
        <ele>751.79998779297</ele>
        <time>2020-10-03T16:42:43.000Z</time>
      </trkpt>
      <trkpt lat="44.11935" lon="3.14363">
        <ele>752.20001220703</ele>
        <time>2020-10-03T16:42:44.000Z</time>
      </trkpt>
      <trkpt lat="44.11924" lon="3.14364">
        <ele>752.59997558594</ele>
        <time>2020-10-03T16:42:49.000Z</time>
      </trkpt>
      <trkpt lat="44.11918" lon="3.14365">
        <ele>752.59997558594</ele>
        <time>2020-10-03T16:42:53.000Z</time>
      </trkpt>
      <trkpt lat="44.11915" lon="3.14368">
        <ele>752.59997558594</ele>
        <time>2020-10-03T16:42:55.000Z</time>
      </trkpt>
      <trkpt lat="44.11905" lon="3.1437">
        <ele>752.59997558594</ele>
        <time>2020-10-03T16:43:00.000Z</time>
      </trkpt>
      <trkpt lat="44.11898" lon="3.14368">
        <ele>752.40002441406</ele>
        <time>2020-10-03T16:43:06.000Z</time>
      </trkpt>
      <trkpt lat="44.11893" lon="3.1436">
        <ele>751.40002441406</ele>
        <time>2020-10-03T16:43:10.000Z</time>
      </trkpt>
      <trkpt lat="44.11886" lon="3.14354">
        <ele>750.79998779297</ele>
        <time>2020-10-03T16:43:14.000Z</time>
      </trkpt>
      <trkpt lat="44.11883" lon="3.14354">
        <ele>750.40002441406</ele>
        <time>2020-10-03T16:43:15.000Z</time>
      </trkpt>
      <trkpt lat="44.1187" lon="3.14354">
        <ele>750</ele>
        <time>2020-10-03T16:43:21.000Z</time>
      </trkpt>
      <trkpt lat="44.11857" lon="3.14356">
        <ele>749.79998779297</ele>
        <time>2020-10-03T16:43:26.000Z</time>
      </trkpt>
      <trkpt lat="44.11856" lon="3.14357">
        <ele>749.59997558594</ele>
        <time>2020-10-03T16:43:29.000Z</time>
      </trkpt>
      <trkpt lat="44.11854" lon="3.14359">
        <ele>748.40002441406</ele>
        <time>2020-10-03T16:43:33.000Z</time>
      </trkpt>
      <trkpt lat="44.11848" lon="3.14363">
        <ele>747.79998779297</ele>
        <time>2020-10-03T16:43:42.000Z</time>
      </trkpt>
      <trkpt lat="44.1184" lon="3.14376">
        <ele>747.59997558594</ele>
        <time>2020-10-03T16:43:47.000Z</time>
      </trkpt>
      <trkpt lat="44.11839" lon="3.14378">
        <ele>747.40002441406</ele>
        <time>2020-10-03T16:43:48.000Z</time>
      </trkpt>
      <trkpt lat="44.11836" lon="3.14381">
        <ele>746.20001220703</ele>
        <time>2020-10-03T16:43:50.000Z</time>
      </trkpt>
      <trkpt lat="44.11832" lon="3.14384">
        <ele>745.59997558594</ele>
        <time>2020-10-03T16:43:52.000Z</time>
      </trkpt>
      <trkpt lat="44.1183" lon="3.14385">
        <ele>745.20001220703</ele>
        <time>2020-10-03T16:43:53.000Z</time>
      </trkpt>
      <trkpt lat="44.11827" lon="3.14388">
        <ele>744.79998779297</ele>
        <time>2020-10-03T16:43:55.000Z</time>
      </trkpt>
      <trkpt lat="44.11826" lon="3.14391">
        <ele>744.40002441406</ele>
        <time>2020-10-03T16:43:58.000Z</time>
      </trkpt>
      <trkpt lat="44.11826" lon="3.14391">
        <ele>744</ele>
        <time>2020-10-03T16:44:00.000Z</time>
      </trkpt>
      <trkpt lat="44.11822" lon="3.14394">
        <ele>743.20001220703</ele>
        <time>2020-10-03T16:44:04.000Z</time>
      </trkpt>
      <trkpt lat="44.11821" lon="3.14394">
        <ele>743</ele>
        <time>2020-10-03T16:44:05.000Z</time>
      </trkpt>
      <trkpt lat="44.11816" lon="3.14397">
        <ele>742.59997558594</ele>
        <time>2020-10-03T16:44:11.000Z</time>
      </trkpt>
      <trkpt lat="44.11814" lon="3.14397">
        <ele>743.20001220703</ele>
        <time>2020-10-03T16:44:27.000Z</time>
      </trkpt>
      <trkpt lat="44.1181" lon="3.14398">
        <ele>743</ele>
        <time>2020-10-03T16:44:42.000Z</time>
      </trkpt>
      <trkpt lat="44.1181" lon="3.14397">
        <ele>743</ele>
        <time>2020-10-03T16:45:00.000Z</time>
      </trkpt>
      <trkpt lat="44.11814" lon="3.14386">
        <ele>743</ele>
        <time>2020-10-03T16:45:12.000Z</time>
      </trkpt>
      <trkpt lat="44.11822" lon="3.14376">
        <ele>743.40002441406</ele>
        <time>2020-10-03T16:45:23.000Z</time>
      </trkpt>
      <trkpt lat="44.11824" lon="3.14373">
        <ele>743.40002441406</ele>
        <time>2020-10-03T16:45:24.000Z</time>
      </trkpt>
      <trkpt lat="44.11831" lon="3.14358">
        <ele>743.40002441406</ele>
        <time>2020-10-03T16:45:30.000Z</time>
      </trkpt>
      <trkpt lat="44.11844" lon="3.14353">
        <ele>743.79998779297</ele>
        <time>2020-10-03T16:45:37.000Z</time>
      </trkpt>
      <trkpt lat="44.11845" lon="3.14354">
        <ele>745.20001220703</ele>
        <time>2020-10-03T16:45:41.000Z</time>
      </trkpt>
      <trkpt lat="44.11846" lon="3.14354">
        <ele>746</ele>
        <time>2020-10-03T16:45:43.000Z</time>
      </trkpt>
      <trkpt lat="44.11846" lon="3.14354">
        <ele>746.40002441406</ele>
        <time>2020-10-03T16:45:44.000Z</time>
      </trkpt>
      <trkpt lat="44.11854" lon="3.14352">
        <ele>747.20001220703</ele>
        <time>2020-10-03T16:45:49.000Z</time>
      </trkpt>
      <trkpt lat="44.11859" lon="3.14351">
        <ele>747.40002441406</ele>
        <time>2020-10-03T16:45:51.000Z</time>
      </trkpt>
      <trkpt lat="44.11866" lon="3.14349">
        <ele>747.59997558594</ele>
        <time>2020-10-03T16:45:55.000Z</time>
      </trkpt>
      <trkpt lat="44.11868" lon="3.14349">
        <ele>747.59997558594</ele>
        <time>2020-10-03T16:45:56.000Z</time>
      </trkpt>
      <trkpt lat="44.11871" lon="3.14354">
        <ele>748.20001220703</ele>
        <time>2020-10-03T16:45:59.000Z</time>
      </trkpt>
      <trkpt lat="44.11872" lon="3.14356">
        <ele>748.40002441406</ele>
        <time>2020-10-03T16:46:00.000Z</time>
      </trkpt>
      <trkpt lat="44.11872" lon="3.14367">
        <ele>749.20001220703</ele>
        <time>2020-10-03T16:46:04.000Z</time>
      </trkpt>
      <trkpt lat="44.11876" lon="3.14378">
        <ele>749.40002441406</ele>
        <time>2020-10-03T16:46:11.000Z</time>
      </trkpt>
      <trkpt lat="44.1188" lon="3.14377">
        <ele>749.79998779297</ele>
        <time>2020-10-03T16:46:14.000Z</time>
      </trkpt>
      <trkpt lat="44.11882" lon="3.14376">
        <ele>750.59997558594</ele>
        <time>2020-10-03T16:46:17.000Z</time>
      </trkpt>
      <trkpt lat="44.11883" lon="3.14376">
        <ele>750.79998779297</ele>
        <time>2020-10-03T16:46:18.000Z</time>
      </trkpt>
      <trkpt lat="44.11889" lon="3.14374">
        <ele>751.20001220703</ele>
        <time>2020-10-03T16:46:23.000Z</time>
      </trkpt>
      <trkpt lat="44.11901" lon="3.14367">
        <ele>751.79998779297</ele>
        <time>2020-10-03T16:46:28.000Z</time>
      </trkpt>
      <trkpt lat="44.11903" lon="3.14366">
        <ele>751.79998779297</ele>
        <time>2020-10-03T16:46:29.000Z</time>
      </trkpt>
      <trkpt lat="44.11913" lon="3.14362">
        <ele>751.79998779297</ele>
        <time>2020-10-03T16:46:35.000Z</time>
      </trkpt>
      <trkpt lat="44.1192" lon="3.14359">
        <ele>751.59997558594</ele>
        <time>2020-10-03T16:46:42.000Z</time>
      </trkpt>
      <trkpt lat="44.11927" lon="3.14356">
        <ele>751.59997558594</ele>
        <time>2020-10-03T16:46:48.000Z</time>
      </trkpt>
      <trkpt lat="44.11939" lon="3.14357">
        <ele>751.59997558594</ele>
        <time>2020-10-03T16:46:54.000Z</time>
      </trkpt>
      <trkpt lat="44.11945" lon="3.14357">
        <ele>751.79998779297</ele>
        <time>2020-10-03T16:47:00.000Z</time>
      </trkpt>
      <trkpt lat="44.11947" lon="3.14356">
        <ele>751.79998779297</ele>
        <time>2020-10-03T16:47:01.000Z</time>
      </trkpt>
      <trkpt lat="44.11961" lon="3.14354">
        <ele>751.59997558594</ele>
        <time>2020-10-03T16:47:05.000Z</time>
      </trkpt>
      <trkpt lat="44.11975" lon="3.14356">
        <ele>751.20001220703</ele>
        <time>2020-10-03T16:47:10.000Z</time>
      </trkpt>
      <trkpt lat="44.1199" lon="3.14354">
        <ele>750.79998779297</ele>
        <time>2020-10-03T16:47:16.000Z</time>
      </trkpt>
      <trkpt lat="44.12001" lon="3.14358">
        <ele>750.79998779297</ele>
        <time>2020-10-03T16:47:21.000Z</time>
      </trkpt>
      <trkpt lat="44.12004" lon="3.14358">
        <ele>750.79998779297</ele>
        <time>2020-10-03T16:47:23.000Z</time>
      </trkpt>
      <trkpt lat="44.1201" lon="3.14358">
        <ele>750.79998779297</ele>
        <time>2020-10-03T16:47:26.000Z</time>
      </trkpt>
      <trkpt lat="44.12016" lon="3.14358">
        <ele>750.59997558594</ele>
        <time>2020-10-03T16:47:29.000Z</time>
      </trkpt>
      <trkpt lat="44.12018" lon="3.14357">
        <ele>750.79998779297</ele>
        <time>2020-10-03T16:47:30.000Z</time>
      </trkpt>
      <trkpt lat="44.12027" lon="3.14354">
        <ele>749.79998779297</ele>
        <time>2020-10-03T16:47:35.000Z</time>
      </trkpt>
      <trkpt lat="44.12027" lon="3.14354">
        <ele>749.59997558594</ele>
        <time>2020-10-03T16:47:37.000Z</time>
      </trkpt>
      <trkpt lat="44.12031" lon="3.14351">
        <ele>749.40002441406</ele>
        <time>2020-10-03T16:47:48.000Z</time>
      </trkpt>
      <trkpt lat="44.12037" lon="3.14344">
        <ele>748.59997558594</ele>
        <time>2020-10-03T16:48:03.000Z</time>
      </trkpt>
      <trkpt lat="44.12042" lon="3.14338">
        <ele>748.59997558594</ele>
        <time>2020-10-03T16:48:07.000Z</time>
      </trkpt>
      <trkpt lat="44.12045" lon="3.14328">
        <ele>747.40002441406</ele>
        <time>2020-10-03T16:48:10.000Z</time>
      </trkpt>
      <trkpt lat="44.12043" lon="3.14325">
        <ele>746.40002441406</ele>
        <time>2020-10-03T16:48:11.000Z</time>
      </trkpt>
      <trkpt lat="44.12041" lon="3.14321">
        <ele>745</ele>
        <time>2020-10-03T16:48:12.000Z</time>
      </trkpt>
      <trkpt lat="44.12038" lon="3.14321">
        <ele>743.40002441406</ele>
        <time>2020-10-03T16:48:13.000Z</time>
      </trkpt>
      <trkpt lat="44.12036" lon="3.1432">
        <ele>742.20001220703</ele>
        <time>2020-10-03T16:48:14.000Z</time>
      </trkpt>
      <trkpt lat="44.12033" lon="3.14319">
        <ele>741</ele>
        <time>2020-10-03T16:48:15.000Z</time>
      </trkpt>
      <trkpt lat="44.12032" lon="3.14318">
        <ele>739.79998779297</ele>
        <time>2020-10-03T16:48:16.000Z</time>
      </trkpt>
      <trkpt lat="44.12032" lon="3.14316">
        <ele>738.20001220703</ele>
        <time>2020-10-03T16:48:17.000Z</time>
      </trkpt>
      <trkpt lat="44.12031" lon="3.14314">
        <ele>737</ele>
        <time>2020-10-03T16:48:18.000Z</time>
      </trkpt>
      <trkpt lat="44.1203" lon="3.14312">
        <ele>735.59997558594</ele>
        <time>2020-10-03T16:48:19.000Z</time>
      </trkpt>
      <trkpt lat="44.1203" lon="3.1431">
        <ele>734.20001220703</ele>
        <time>2020-10-03T16:48:20.000Z</time>
      </trkpt>
      <trkpt lat="44.1203" lon="3.14309">
        <ele>733.20001220703</ele>
        <time>2020-10-03T16:48:21.000Z</time>
      </trkpt>
      <trkpt lat="44.12028" lon="3.14308">
        <ele>732.40002441406</ele>
        <time>2020-10-03T16:48:22.000Z</time>
      </trkpt>
      <trkpt lat="44.12027" lon="3.14306">
        <ele>731.79998779297</ele>
        <time>2020-10-03T16:48:23.000Z</time>
      </trkpt>
      <trkpt lat="44.12025" lon="3.14305">
        <ele>731</ele>
        <time>2020-10-03T16:48:24.000Z</time>
      </trkpt>
      <trkpt lat="44.12023" lon="3.14304">
        <ele>730.40002441406</ele>
        <time>2020-10-03T16:48:25.000Z</time>
      </trkpt>
      <trkpt lat="44.12019" lon="3.14304">
        <ele>728.79998779297</ele>
        <time>2020-10-03T16:48:27.000Z</time>
      </trkpt>
      <trkpt lat="44.12017" lon="3.14304">
        <ele>727.79998779297</ele>
        <time>2020-10-03T16:48:28.000Z</time>
      </trkpt>
      <trkpt lat="44.12017" lon="3.14304">
        <ele>727</ele>
        <time>2020-10-03T16:48:29.000Z</time>
      </trkpt>
      <trkpt lat="44.12013" lon="3.14305">
        <ele>725.20001220703</ele>
        <time>2020-10-03T16:48:31.000Z</time>
      </trkpt>
      <trkpt lat="44.12012" lon="3.14304">
        <ele>724.59997558594</ele>
        <time>2020-10-03T16:48:32.000Z</time>
      </trkpt>
      <trkpt lat="44.1201" lon="3.14304">
        <ele>723.59997558594</ele>
        <time>2020-10-03T16:48:33.000Z</time>
      </trkpt>
      <trkpt lat="44.12008" lon="3.14301">
        <ele>722</ele>
        <time>2020-10-03T16:48:35.000Z</time>
      </trkpt>
      <trkpt lat="44.12007" lon="3.14299">
        <ele>721.40002441406</ele>
        <time>2020-10-03T16:48:36.000Z</time>
      </trkpt>
      <trkpt lat="44.12005" lon="3.14296">
        <ele>721</ele>
        <time>2020-10-03T16:48:37.000Z</time>
      </trkpt>
      <trkpt lat="44.12003" lon="3.14294">
        <ele>720.59997558594</ele>
        <time>2020-10-03T16:48:38.000Z</time>
      </trkpt>
      <trkpt lat="44.11995" lon="3.14283">
        <ele>719.59997558594</ele>
        <time>2020-10-03T16:48:43.000Z</time>
      </trkpt>
      <trkpt lat="44.1199" lon="3.14276">
        <ele>717.79998779297</ele>
        <time>2020-10-03T16:48:45.000Z</time>
      </trkpt>
      <trkpt lat="44.11986" lon="3.14272">
        <ele>716.79998779297</ele>
        <time>2020-10-03T16:48:46.000Z</time>
      </trkpt>
      <trkpt lat="44.11983" lon="3.14269">
        <ele>715.40002441406</ele>
        <time>2020-10-03T16:48:47.000Z</time>
      </trkpt>
      <trkpt lat="44.11981" lon="3.14267">
        <ele>714.20001220703</ele>
        <time>2020-10-03T16:48:48.000Z</time>
      </trkpt>
      <trkpt lat="44.11978" lon="3.14266">
        <ele>713</ele>
        <time>2020-10-03T16:48:49.000Z</time>
      </trkpt>
      <trkpt lat="44.11977" lon="3.14265">
        <ele>711.59997558594</ele>
        <time>2020-10-03T16:48:50.000Z</time>
      </trkpt>
      <trkpt lat="44.11976" lon="3.14263">
        <ele>710.20001220703</ele>
        <time>2020-10-03T16:48:51.000Z</time>
      </trkpt>
      <trkpt lat="44.11976" lon="3.14261">
        <ele>708.40002441406</ele>
        <time>2020-10-03T16:48:52.000Z</time>
      </trkpt>
      <trkpt lat="44.11977" lon="3.14258">
        <ele>706.59997558594</ele>
        <time>2020-10-03T16:48:53.000Z</time>
      </trkpt>
      <trkpt lat="44.11977" lon="3.14256">
        <ele>705</ele>
        <time>2020-10-03T16:48:54.000Z</time>
      </trkpt>
      <trkpt lat="44.11978" lon="3.14254">
        <ele>703.59997558594</ele>
        <time>2020-10-03T16:48:55.000Z</time>
      </trkpt>
      <trkpt lat="44.11978" lon="3.14252">
        <ele>702.20001220703</ele>
        <time>2020-10-03T16:48:56.000Z</time>
      </trkpt>
      <trkpt lat="44.11978" lon="3.14249">
        <ele>701</ele>
        <time>2020-10-03T16:48:57.000Z</time>
      </trkpt>
      <trkpt lat="44.11977" lon="3.14247">
        <ele>699.59997558594</ele>
        <time>2020-10-03T16:48:58.000Z</time>
      </trkpt>
      <trkpt lat="44.11975" lon="3.14244">
        <ele>698.40002441406</ele>
        <time>2020-10-03T16:48:59.000Z</time>
      </trkpt>
      <trkpt lat="44.11975" lon="3.14242">
        <ele>697.40002441406</ele>
        <time>2020-10-03T16:49:00.000Z</time>
      </trkpt>
      <trkpt lat="44.11974" lon="3.14239">
        <ele>695.79998779297</ele>
        <time>2020-10-03T16:49:01.000Z</time>
      </trkpt>
      <trkpt lat="44.11973" lon="3.14235">
        <ele>694.20001220703</ele>
        <time>2020-10-03T16:49:02.000Z</time>
      </trkpt>
      <trkpt lat="44.11971" lon="3.14231">
        <ele>692.59997558594</ele>
        <time>2020-10-03T16:49:03.000Z</time>
      </trkpt>
      <trkpt lat="44.1197" lon="3.14229">
        <ele>691</ele>
        <time>2020-10-03T16:49:04.000Z</time>
      </trkpt>
      <trkpt lat="44.11969" lon="3.14226">
        <ele>689.59997558594</ele>
        <time>2020-10-03T16:49:05.000Z</time>
      </trkpt>
      <trkpt lat="44.1197" lon="3.14224">
        <ele>687</ele>
        <time>2020-10-03T16:49:06.000Z</time>
      </trkpt>
      <trkpt lat="44.1197" lon="3.14222">
        <ele>685.79998779297</ele>
        <time>2020-10-03T16:49:07.000Z</time>
      </trkpt>
      <trkpt lat="44.11972" lon="3.14217">
        <ele>684.20001220703</ele>
        <time>2020-10-03T16:49:09.000Z</time>
      </trkpt>
      <trkpt lat="44.11971" lon="3.14215">
        <ele>683</ele>
        <time>2020-10-03T16:49:10.000Z</time>
      </trkpt>
      <trkpt lat="44.1197" lon="3.14213">
        <ele>682</ele>
        <time>2020-10-03T16:49:11.000Z</time>
      </trkpt>
      <trkpt lat="44.11969" lon="3.14211">
        <ele>681</ele>
        <time>2020-10-03T16:49:12.000Z</time>
      </trkpt>
      <trkpt lat="44.11968" lon="3.14208">
        <ele>679.79998779297</ele>
        <time>2020-10-03T16:49:13.000Z</time>
      </trkpt>
      <trkpt lat="44.11967" lon="3.14206">
        <ele>678.79998779297</ele>
        <time>2020-10-03T16:49:14.000Z</time>
      </trkpt>
      <trkpt lat="44.11966" lon="3.14203">
        <ele>677.59997558594</ele>
        <time>2020-10-03T16:49:15.000Z</time>
      </trkpt>
      <trkpt lat="44.11964" lon="3.142">
        <ele>676.59997558594</ele>
        <time>2020-10-03T16:49:16.000Z</time>
      </trkpt>
      <trkpt lat="44.11964" lon="3.14197">
        <ele>675.20001220703</ele>
        <time>2020-10-03T16:49:17.000Z</time>
      </trkpt>
      <trkpt lat="44.11963" lon="3.14193">
        <ele>673.79998779297</ele>
        <time>2020-10-03T16:49:18.000Z</time>
      </trkpt>
      <trkpt lat="44.11961" lon="3.14188">
        <ele>672.79998779297</ele>
        <time>2020-10-03T16:49:19.000Z</time>
      </trkpt>
      <trkpt lat="44.1196" lon="3.14182">
        <ele>671.59997558594</ele>
        <time>2020-10-03T16:49:20.000Z</time>
      </trkpt>
      <trkpt lat="44.11958" lon="3.14178">
        <ele>670.40002441406</ele>
        <time>2020-10-03T16:49:21.000Z</time>
      </trkpt>
      <trkpt lat="44.11955" lon="3.14173">
        <ele>669.20001220703</ele>
        <time>2020-10-03T16:49:22.000Z</time>
      </trkpt>
      <trkpt lat="44.11953" lon="3.14168">
        <ele>668</ele>
        <time>2020-10-03T16:49:23.000Z</time>
      </trkpt>
      <trkpt lat="44.1195" lon="3.14163">
        <ele>666.79998779297</ele>
        <time>2020-10-03T16:49:24.000Z</time>
      </trkpt>
      <trkpt lat="44.11946" lon="3.14157">
        <ele>665.59997558594</ele>
        <time>2020-10-03T16:49:25.000Z</time>
      </trkpt>
      <trkpt lat="44.11943" lon="3.14151">
        <ele>664.20001220703</ele>
        <time>2020-10-03T16:49:26.000Z</time>
      </trkpt>
      <trkpt lat="44.11938" lon="3.14145">
        <ele>662.59997558594</ele>
        <time>2020-10-03T16:49:27.000Z</time>
      </trkpt>
      <trkpt lat="44.11933" lon="3.1414">
        <ele>660.79998779297</ele>
        <time>2020-10-03T16:49:28.000Z</time>
      </trkpt>
      <trkpt lat="44.1193" lon="3.14138">
        <ele>659.20001220703</ele>
        <time>2020-10-03T16:49:29.000Z</time>
      </trkpt>
      <trkpt lat="44.11927" lon="3.14135">
        <ele>657.59997558594</ele>
        <time>2020-10-03T16:49:30.000Z</time>
      </trkpt>
      <trkpt lat="44.11924" lon="3.14132">
        <ele>656.20001220703</ele>
        <time>2020-10-03T16:49:31.000Z</time>
      </trkpt>
      <trkpt lat="44.1192" lon="3.14131">
        <ele>654.40002441406</ele>
        <time>2020-10-03T16:49:32.000Z</time>
      </trkpt>
      <trkpt lat="44.11919" lon="3.14131">
        <ele>652.59997558594</ele>
        <time>2020-10-03T16:49:33.000Z</time>
      </trkpt>
      <trkpt lat="44.11918" lon="3.14131">
        <ele>650.40002441406</ele>
        <time>2020-10-03T16:49:34.000Z</time>
      </trkpt>
      <trkpt lat="44.11917" lon="3.14131">
        <ele>648.40002441406</ele>
        <time>2020-10-03T16:49:35.000Z</time>
      </trkpt>
      <trkpt lat="44.11915" lon="3.14131">
        <ele>647.20001220703</ele>
        <time>2020-10-03T16:49:37.000Z</time>
      </trkpt>
      <trkpt lat="44.11914" lon="3.14131">
        <ele>645.59997558594</ele>
        <time>2020-10-03T16:49:39.000Z</time>
      </trkpt>
      <trkpt lat="44.11915" lon="3.14131">
        <ele>644.40002441406</ele>
        <time>2020-10-03T16:49:41.000Z</time>
      </trkpt>
      <trkpt lat="44.11914" lon="3.14131">
        <ele>644</ele>
        <time>2020-10-03T16:49:45.000Z</time>
      </trkpt>
      <trkpt lat="44.11911" lon="3.1413">
        <ele>644</ele>
        <time>2020-10-03T16:49:56.000Z</time>
      </trkpt>
      <trkpt lat="44.11907" lon="3.14134">
        <ele>643.59997558594</ele>
        <time>2020-10-03T16:50:07.000Z</time>
      </trkpt>
      <trkpt lat="44.11894" lon="3.14133">
        <ele>642.79998779297</ele>
        <time>2020-10-03T16:50:13.000Z</time>
      </trkpt>
      <trkpt lat="44.1189" lon="3.14135">
        <ele>641</ele>
        <time>2020-10-03T16:50:15.000Z</time>
      </trkpt>
      <trkpt lat="44.11886" lon="3.14138">
        <ele>639.59997558594</ele>
        <time>2020-10-03T16:50:17.000Z</time>
      </trkpt>
      <trkpt lat="44.11884" lon="3.14136">
        <ele>637.79998779297</ele>
        <time>2020-10-03T16:50:19.000Z</time>
      </trkpt>
      <trkpt lat="44.11882" lon="3.14133">
        <ele>637.20001220703</ele>
        <time>2020-10-03T16:50:20.000Z</time>
      </trkpt>
      <trkpt lat="44.1188" lon="3.14129">
        <ele>636.79998779297</ele>
        <time>2020-10-03T16:50:21.000Z</time>
      </trkpt>
      <trkpt lat="44.11877" lon="3.14127">
        <ele>636.20001220703</ele>
        <time>2020-10-03T16:50:22.000Z</time>
      </trkpt>
      <trkpt lat="44.11871" lon="3.14125">
        <ele>635.59997558594</ele>
        <time>2020-10-03T16:50:23.000Z</time>
      </trkpt>
      <trkpt lat="44.11867" lon="3.14121">
        <ele>635</ele>
        <time>2020-10-03T16:50:24.000Z</time>
      </trkpt>
      <trkpt lat="44.11863" lon="3.14118">
        <ele>634.20001220703</ele>
        <time>2020-10-03T16:50:25.000Z</time>
      </trkpt>
      <trkpt lat="44.11848" lon="3.14112">
        <ele>633</ele>
        <time>2020-10-03T16:50:28.000Z</time>
      </trkpt>
      <trkpt lat="44.11842" lon="3.1411">
        <ele>632.20001220703</ele>
        <time>2020-10-03T16:50:29.000Z</time>
      </trkpt>
      <trkpt lat="44.11836" lon="3.14105">
        <ele>631.40002441406</ele>
        <time>2020-10-03T16:50:30.000Z</time>
      </trkpt>
      <trkpt lat="44.1183" lon="3.14102">
        <ele>630.20001220703</ele>
        <time>2020-10-03T16:50:31.000Z</time>
      </trkpt>
      <trkpt lat="44.11824" lon="3.14098">
        <ele>628.59997558594</ele>
        <time>2020-10-03T16:50:32.000Z</time>
      </trkpt>
      <trkpt lat="44.11819" lon="3.14096">
        <ele>627.20001220703</ele>
        <time>2020-10-03T16:50:33.000Z</time>
      </trkpt>
      <trkpt lat="44.11815" lon="3.14094">
        <ele>625.79998779297</ele>
        <time>2020-10-03T16:50:34.000Z</time>
      </trkpt>
      <trkpt lat="44.11808" lon="3.14092">
        <ele>624.20001220703</ele>
        <time>2020-10-03T16:50:36.000Z</time>
      </trkpt>
      <trkpt lat="44.11803" lon="3.1409">
        <ele>622.79998779297</ele>
        <time>2020-10-03T16:50:38.000Z</time>
      </trkpt>
      <trkpt lat="44.118" lon="3.14089">
        <ele>621.20001220703</ele>
        <time>2020-10-03T16:50:39.000Z</time>
      </trkpt>
      <trkpt lat="44.11798" lon="3.1409">
        <ele>620.20001220703</ele>
        <time>2020-10-03T16:50:40.000Z</time>
      </trkpt>
      <trkpt lat="44.11792" lon="3.1409">
        <ele>618.20001220703</ele>
        <time>2020-10-03T16:50:42.000Z</time>
      </trkpt>
      <trkpt lat="44.1179" lon="3.14088">
        <ele>617.20001220703</ele>
        <time>2020-10-03T16:50:43.000Z</time>
      </trkpt>
      <trkpt lat="44.11788" lon="3.14087">
        <ele>616</ele>
        <time>2020-10-03T16:50:44.000Z</time>
      </trkpt>
      <trkpt lat="44.11786" lon="3.14085">
        <ele>615.20001220703</ele>
        <time>2020-10-03T16:50:45.000Z</time>
      </trkpt>
      <trkpt lat="44.11785" lon="3.14084">
        <ele>614</ele>
        <time>2020-10-03T16:50:46.000Z</time>
      </trkpt>
      <trkpt lat="44.11784" lon="3.14083">
        <ele>613</ele>
        <time>2020-10-03T16:50:47.000Z</time>
      </trkpt>
      <trkpt lat="44.11782" lon="3.14083">
        <ele>611.20001220703</ele>
        <time>2020-10-03T16:50:49.000Z</time>
      </trkpt>
      <trkpt lat="44.11784" lon="3.14082">
        <ele>609.40002441406</ele>
        <time>2020-10-03T16:50:51.000Z</time>
      </trkpt>
      <trkpt lat="44.11785" lon="3.14082">
        <ele>608.40002441406</ele>
        <time>2020-10-03T16:50:52.000Z</time>
      </trkpt>
      <trkpt lat="44.11786" lon="3.14081">
        <ele>607.40002441406</ele>
        <time>2020-10-03T16:50:53.000Z</time>
      </trkpt>
      <trkpt lat="44.11786" lon="3.14079">
        <ele>606.20001220703</ele>
        <time>2020-10-03T16:50:54.000Z</time>
      </trkpt>
      <trkpt lat="44.11787" lon="3.14076">
        <ele>605</ele>
        <time>2020-10-03T16:50:55.000Z</time>
      </trkpt>
      <trkpt lat="44.11787" lon="3.14075">
        <ele>604.20001220703</ele>
        <time>2020-10-03T16:50:56.000Z</time>
      </trkpt>
      <trkpt lat="44.11787" lon="3.14073">
        <ele>603.59997558594</ele>
        <time>2020-10-03T16:50:57.000Z</time>
      </trkpt>
      <trkpt lat="44.11788" lon="3.14068">
        <ele>601.79998779297</ele>
        <time>2020-10-03T16:50:59.000Z</time>
      </trkpt>
      <trkpt lat="44.11788" lon="3.14064">
        <ele>601</ele>
        <time>2020-10-03T16:51:00.000Z</time>
      </trkpt>
      <trkpt lat="44.11787" lon="3.1406">
        <ele>600.20001220703</ele>
        <time>2020-10-03T16:51:01.000Z</time>
      </trkpt>
      <trkpt lat="44.11788" lon="3.14057">
        <ele>598.59997558594</ele>
        <time>2020-10-03T16:51:02.000Z</time>
      </trkpt>
      <trkpt lat="44.11786" lon="3.14049">
        <ele>597.20001220703</ele>
        <time>2020-10-03T16:51:04.000Z</time>
      </trkpt>
      <trkpt lat="44.11782" lon="3.14046">
        <ele>596.40002441406</ele>
        <time>2020-10-03T16:51:05.000Z</time>
      </trkpt>
      <trkpt lat="44.1178" lon="3.14044">
        <ele>595.40002441406</ele>
        <time>2020-10-03T16:51:06.000Z</time>
      </trkpt>
      <trkpt lat="44.11777" lon="3.14039">
        <ele>594.40002441406</ele>
        <time>2020-10-03T16:51:08.000Z</time>
      </trkpt>
      <trkpt lat="44.11771" lon="3.14034">
        <ele>594</ele>
        <time>2020-10-03T16:51:11.000Z</time>
      </trkpt>
      <trkpt lat="44.11753" lon="3.14027">
        <ele>593.59997558594</ele>
        <time>2020-10-03T16:51:15.000Z</time>
      </trkpt>
      <trkpt lat="44.11748" lon="3.14026">
        <ele>593.40002441406</ele>
        <time>2020-10-03T16:51:16.000Z</time>
      </trkpt>
      <trkpt lat="44.11732" lon="3.14024">
        <ele>593.20001220703</ele>
        <time>2020-10-03T16:51:20.000Z</time>
      </trkpt>
      <trkpt lat="44.11722" lon="3.14013">
        <ele>592</ele>
        <time>2020-10-03T16:51:24.000Z</time>
      </trkpt>
      <trkpt lat="44.11718" lon="3.14009">
        <ele>591.59997558594</ele>
        <time>2020-10-03T16:51:25.000Z</time>
      </trkpt>
      <trkpt lat="44.1171" lon="3.13997">
        <ele>591</ele>
        <time>2020-10-03T16:51:28.000Z</time>
      </trkpt>
      <trkpt lat="44.11705" lon="3.13986">
        <ele>589.20001220703</ele>
        <time>2020-10-03T16:51:30.000Z</time>
      </trkpt>
      <trkpt lat="44.11703" lon="3.13981">
        <ele>587</ele>
        <time>2020-10-03T16:51:31.000Z</time>
      </trkpt>
      <trkpt lat="44.117" lon="3.13973">
        <ele>585</ele>
        <time>2020-10-03T16:51:33.000Z</time>
      </trkpt>
      <trkpt lat="44.11699" lon="3.13971">
        <ele>583.79998779297</ele>
        <time>2020-10-03T16:51:34.000Z</time>
      </trkpt>
      <trkpt lat="44.11697" lon="3.1397">
        <ele>582.40002441406</ele>
        <time>2020-10-03T16:51:35.000Z</time>
      </trkpt>
      <trkpt lat="44.11697" lon="3.13972">
        <ele>580.79998779297</ele>
        <time>2020-10-03T16:51:36.000Z</time>
      </trkpt>
      <trkpt lat="44.11694" lon="3.13973">
        <ele>579.40002441406</ele>
        <time>2020-10-03T16:51:37.000Z</time>
      </trkpt>
      <trkpt lat="44.11691" lon="3.13975">
        <ele>577.59997558594</ele>
        <time>2020-10-03T16:51:39.000Z</time>
      </trkpt>
      <trkpt lat="44.1169" lon="3.13974">
        <ele>576.40002441406</ele>
        <time>2020-10-03T16:51:40.000Z</time>
      </trkpt>
      <trkpt lat="44.11689" lon="3.13972">
        <ele>575.40002441406</ele>
        <time>2020-10-03T16:51:41.000Z</time>
      </trkpt>
      <trkpt lat="44.11687" lon="3.13965">
        <ele>573.40002441406</ele>
        <time>2020-10-03T16:51:43.000Z</time>
      </trkpt>
      <trkpt lat="44.11685" lon="3.1396">
        <ele>572.20001220703</ele>
        <time>2020-10-03T16:51:44.000Z</time>
      </trkpt>
      <trkpt lat="44.11684" lon="3.13955">
        <ele>571</ele>
        <time>2020-10-03T16:51:45.000Z</time>
      </trkpt>
      <trkpt lat="44.11682" lon="3.1395">
        <ele>569.59997558594</ele>
        <time>2020-10-03T16:51:46.000Z</time>
      </trkpt>
      <trkpt lat="44.11678" lon="3.13945">
        <ele>568.59997558594</ele>
        <time>2020-10-03T16:51:48.000Z</time>
      </trkpt>
      <trkpt lat="44.11676" lon="3.13944">
        <ele>568.20001220703</ele>
        <time>2020-10-03T16:51:49.000Z</time>
      </trkpt>
      <trkpt lat="44.1167" lon="3.13935">
        <ele>567.40002441406</ele>
        <time>2020-10-03T16:51:53.000Z</time>
      </trkpt>
      <trkpt lat="44.11667" lon="3.13933">
        <ele>567.20001220703</ele>
        <time>2020-10-03T16:51:54.000Z</time>
      </trkpt>
      <trkpt lat="44.11659" lon="3.13924">
        <ele>566.20001220703</ele>
        <time>2020-10-03T16:51:57.000Z</time>
      </trkpt>
      <trkpt lat="44.11651" lon="3.13914">
        <ele>564.79998779297</ele>
        <time>2020-10-03T16:52:00.000Z</time>
      </trkpt>
      <trkpt lat="44.11647" lon="3.13911">
        <ele>563.40002441406</ele>
        <time>2020-10-03T16:52:01.000Z</time>
      </trkpt>
      <trkpt lat="44.1164" lon="3.13906">
        <ele>562</ele>
        <time>2020-10-03T16:52:03.000Z</time>
      </trkpt>
      <trkpt lat="44.11633" lon="3.13904">
        <ele>560.40002441406</ele>
        <time>2020-10-03T16:52:05.000Z</time>
      </trkpt>
      <trkpt lat="44.11625" lon="3.13904">
        <ele>558.79998779297</ele>
        <time>2020-10-03T16:52:07.000Z</time>
      </trkpt>
      <trkpt lat="44.11621" lon="3.13905">
        <ele>558</ele>
        <time>2020-10-03T16:52:08.000Z</time>
      </trkpt>
      <trkpt lat="44.11618" lon="3.13905">
        <ele>556.59997558594</ele>
        <time>2020-10-03T16:52:09.000Z</time>
      </trkpt>
      <trkpt lat="44.1161" lon="3.13908">
        <ele>554.40002441406</ele>
        <time>2020-10-03T16:52:11.000Z</time>
      </trkpt>
      <trkpt lat="44.11604" lon="3.13908">
        <ele>552.79998779297</ele>
        <time>2020-10-03T16:52:13.000Z</time>
      </trkpt>
      <trkpt lat="44.11597" lon="3.13909">
        <ele>550.40002441406</ele>
        <time>2020-10-03T16:52:15.000Z</time>
      </trkpt>
      <trkpt lat="44.11593" lon="3.13909">
        <ele>549.20001220703</ele>
        <time>2020-10-03T16:52:16.000Z</time>
      </trkpt>
      <trkpt lat="44.11588" lon="3.13913">
        <ele>547.79998779297</ele>
        <time>2020-10-03T16:52:18.000Z</time>
      </trkpt>
      <trkpt lat="44.11579" lon="3.1393">
        <ele>546.20001220703</ele>
        <time>2020-10-03T16:52:22.000Z</time>
      </trkpt>
      <trkpt lat="44.11577" lon="3.13939">
        <ele>544.59997558594</ele>
        <time>2020-10-03T16:52:24.000Z</time>
      </trkpt>
      <trkpt lat="44.11572" lon="3.13943">
        <ele>543.79998779297</ele>
        <time>2020-10-03T16:52:25.000Z</time>
      </trkpt>
      <trkpt lat="44.11569" lon="3.13947">
        <ele>543.40002441406</ele>
        <time>2020-10-03T16:52:26.000Z</time>
      </trkpt>
      <trkpt lat="44.11558" lon="3.1397">
        <ele>542.20001220703</ele>
        <time>2020-10-03T16:52:29.000Z</time>
      </trkpt>
      <trkpt lat="44.11547" lon="3.13992">
        <ele>541.20001220703</ele>
        <time>2020-10-03T16:52:32.000Z</time>
      </trkpt>
      <trkpt lat="44.11543" lon="3.14">
        <ele>541</ele>
        <time>2020-10-03T16:52:33.000Z</time>
      </trkpt>
      <trkpt lat="44.11536" lon="3.14022">
        <ele>540</ele>
        <time>2020-10-03T16:52:36.000Z</time>
      </trkpt>
      <trkpt lat="44.11534" lon="3.1403">
        <ele>539.20001220703</ele>
        <time>2020-10-03T16:52:37.000Z</time>
      </trkpt>
      <trkpt lat="44.11533" lon="3.14038">
        <ele>538.40002441406</ele>
        <time>2020-10-03T16:52:38.000Z</time>
      </trkpt>
      <trkpt lat="44.11531" lon="3.14046">
        <ele>537.40002441406</ele>
        <time>2020-10-03T16:52:39.000Z</time>
      </trkpt>
      <trkpt lat="44.11523" lon="3.14062">
        <ele>535.40002441406</ele>
        <time>2020-10-03T16:52:41.000Z</time>
      </trkpt>
      <trkpt lat="44.11515" lon="3.1408">
        <ele>534</ele>
        <time>2020-10-03T16:52:43.000Z</time>
      </trkpt>
      <trkpt lat="44.11507" lon="3.14094">
        <ele>533</ele>
        <time>2020-10-03T16:52:45.000Z</time>
      </trkpt>
      <trkpt lat="44.11502" lon="3.14099">
        <ele>532.79998779297</ele>
        <time>2020-10-03T16:52:46.000Z</time>
      </trkpt>
      <trkpt lat="44.11489" lon="3.14106">
        <ele>531.79998779297</ele>
        <time>2020-10-03T16:52:48.000Z</time>
      </trkpt>
      <trkpt lat="44.11482" lon="3.14109">
        <ele>531.20001220703</ele>
        <time>2020-10-03T16:52:49.000Z</time>
      </trkpt>
      <trkpt lat="44.11478" lon="3.14113">
        <ele>530.59997558594</ele>
        <time>2020-10-03T16:52:50.000Z</time>
      </trkpt>
      <trkpt lat="44.11472" lon="3.14118">
        <ele>528.20001220703</ele>
        <time>2020-10-03T16:52:52.000Z</time>
      </trkpt>
      <trkpt lat="44.11467" lon="3.14119">
        <ele>527</ele>
        <time>2020-10-03T16:52:54.000Z</time>
      </trkpt>
      <trkpt lat="44.11462" lon="3.1412">
        <ele>525.40002441406</ele>
        <time>2020-10-03T16:52:56.000Z</time>
      </trkpt>
      <trkpt lat="44.11459" lon="3.1412">
        <ele>524.59997558594</ele>
        <time>2020-10-03T16:52:57.000Z</time>
      </trkpt>
      <trkpt lat="44.11456" lon="3.1412">
        <ele>524</ele>
        <time>2020-10-03T16:52:58.000Z</time>
      </trkpt>
      <trkpt lat="44.11448" lon="3.14122">
        <ele>521.59997558594</ele>
        <time>2020-10-03T16:53:00.000Z</time>
      </trkpt>
      <trkpt lat="44.11443" lon="3.14123">
        <ele>520.79998779297</ele>
        <time>2020-10-03T16:53:01.000Z</time>
      </trkpt>
      <trkpt lat="44.11438" lon="3.14124">
        <ele>520</ele>
        <time>2020-10-03T16:53:02.000Z</time>
      </trkpt>
      <trkpt lat="44.11433" lon="3.14127">
        <ele>518.40002441406</ele>
        <time>2020-10-03T16:53:04.000Z</time>
      </trkpt>
      <trkpt lat="44.11429" lon="3.14133">
        <ele>516.59997558594</ele>
        <time>2020-10-03T16:53:06.000Z</time>
      </trkpt>
      <trkpt lat="44.11421" lon="3.14136">
        <ele>515</ele>
        <time>2020-10-03T16:53:08.000Z</time>
      </trkpt>
      <trkpt lat="44.11417" lon="3.14137">
        <ele>514.20001220703</ele>
        <time>2020-10-03T16:53:09.000Z</time>
      </trkpt>
      <trkpt lat="44.11415" lon="3.14137">
        <ele>513.79998779297</ele>
        <time>2020-10-03T16:53:10.000Z</time>
      </trkpt>
      <trkpt lat="44.11413" lon="3.14138">
        <ele>513.20001220703</ele>
        <time>2020-10-03T16:53:12.000Z</time>
      </trkpt>
      <trkpt lat="44.11411" lon="3.14139">
        <ele>512.40002441406</ele>
        <time>2020-10-03T16:53:15.000Z</time>
      </trkpt>
      <trkpt lat="44.11411" lon="3.1414">
        <ele>511.39999389648</ele>
        <time>2020-10-03T16:53:19.000Z</time>
      </trkpt>
      <trkpt lat="44.11409" lon="3.14138">
        <ele>510.39999389648</ele>
        <time>2020-10-03T16:53:37.000Z</time>
      </trkpt>
      <trkpt lat="44.114" lon="3.14136">
        <ele>510.20001220703</ele>
        <time>2020-10-03T16:53:41.000Z</time>
      </trkpt>
      <trkpt lat="44.11385" lon="3.14132">
        <ele>510</ele>
        <time>2020-10-03T16:53:45.000Z</time>
      </trkpt>
      <trkpt lat="44.11379" lon="3.1413">
        <ele>510</ele>
        <time>2020-10-03T16:53:46.000Z</time>
      </trkpt>
      <trkpt lat="44.11356" lon="3.14127">
        <ele>509.60000610352</ele>
        <time>2020-10-03T16:53:50.000Z</time>
      </trkpt>
      <trkpt lat="44.11352" lon="3.14127">
        <ele>509.39999389648</ele>
        <time>2020-10-03T16:53:51.000Z</time>
      </trkpt>
      <trkpt lat="44.11339" lon="3.1412">
        <ele>509</ele>
        <time>2020-10-03T16:53:54.000Z</time>
      </trkpt>
      <trkpt lat="44.11334" lon="3.14117">
        <ele>508.20001220703</ele>
        <time>2020-10-03T16:53:55.000Z</time>
      </trkpt>
      <trkpt lat="44.11328" lon="3.14115">
        <ele>507.20001220703</ele>
        <time>2020-10-03T16:53:56.000Z</time>
      </trkpt>
      <trkpt lat="44.11324" lon="3.14112">
        <ele>506</ele>
        <time>2020-10-03T16:53:57.000Z</time>
      </trkpt>
      <trkpt lat="44.11319" lon="3.14109">
        <ele>503.60000610352</ele>
        <time>2020-10-03T16:53:58.000Z</time>
      </trkpt>
      <trkpt lat="44.11315" lon="3.14108">
        <ele>502.60000610352</ele>
        <time>2020-10-03T16:53:59.000Z</time>
      </trkpt>
      <trkpt lat="44.1131" lon="3.14107">
        <ele>501.79998779297</ele>
        <time>2020-10-03T16:54:00.000Z</time>
      </trkpt>
      <trkpt lat="44.11302" lon="3.14103">
        <ele>500</ele>
        <time>2020-10-03T16:54:02.000Z</time>
      </trkpt>
      <trkpt lat="44.11299" lon="3.141">
        <ele>498.79998779297</ele>
        <time>2020-10-03T16:54:03.000Z</time>
      </trkpt>
      <trkpt lat="44.11295" lon="3.14096">
        <ele>497.20001220703</ele>
        <time>2020-10-03T16:54:04.000Z</time>
      </trkpt>
      <trkpt lat="44.11291" lon="3.14089">
        <ele>495.79998779297</ele>
        <time>2020-10-03T16:54:05.000Z</time>
      </trkpt>
      <trkpt lat="44.11287" lon="3.14083">
        <ele>494.39999389648</ele>
        <time>2020-10-03T16:54:06.000Z</time>
      </trkpt>
      <trkpt lat="44.11284" lon="3.14077">
        <ele>493</ele>
        <time>2020-10-03T16:54:07.000Z</time>
      </trkpt>
      <trkpt lat="44.11281" lon="3.14073">
        <ele>491.60000610352</ele>
        <time>2020-10-03T16:54:08.000Z</time>
      </trkpt>
      <trkpt lat="44.11278" lon="3.14069">
        <ele>490.20001220703</ele>
        <time>2020-10-03T16:54:09.000Z</time>
      </trkpt>
      <trkpt lat="44.11274" lon="3.14064">
        <ele>488.60000610352</ele>
        <time>2020-10-03T16:54:10.000Z</time>
      </trkpt>
      <trkpt lat="44.11271" lon="3.14058">
        <ele>487.20001220703</ele>
        <time>2020-10-03T16:54:11.000Z</time>
      </trkpt>
      <trkpt lat="44.11267" lon="3.14051">
        <ele>485.60000610352</ele>
        <time>2020-10-03T16:54:12.000Z</time>
      </trkpt>
      <trkpt lat="44.11263" lon="3.14044">
        <ele>484</ele>
        <time>2020-10-03T16:54:13.000Z</time>
      </trkpt>
      <trkpt lat="44.11258" lon="3.14036">
        <ele>482.20001220703</ele>
        <time>2020-10-03T16:54:14.000Z</time>
      </trkpt>
      <trkpt lat="44.11254" lon="3.1403">
        <ele>480.39999389648</ele>
        <time>2020-10-03T16:54:15.000Z</time>
      </trkpt>
      <trkpt lat="44.1125" lon="3.14025">
        <ele>479</ele>
        <time>2020-10-03T16:54:16.000Z</time>
      </trkpt>
      <trkpt lat="44.11248" lon="3.14026">
        <ele>477.39999389648</ele>
        <time>2020-10-03T16:54:17.000Z</time>
      </trkpt>
      <trkpt lat="44.11247" lon="3.14029">
        <ele>475.79998779297</ele>
        <time>2020-10-03T16:54:18.000Z</time>
      </trkpt>
      <trkpt lat="44.11247" lon="3.14033">
        <ele>474.60000610352</ele>
        <time>2020-10-03T16:54:19.000Z</time>
      </trkpt>
      <trkpt lat="44.11248" lon="3.14037">
        <ele>473.60000610352</ele>
        <time>2020-10-03T16:54:20.000Z</time>
      </trkpt>
      <trkpt lat="44.11249" lon="3.1404">
        <ele>472.39999389648</ele>
        <time>2020-10-03T16:54:21.000Z</time>
      </trkpt>
      <trkpt lat="44.11249" lon="3.14041">
        <ele>471</ele>
        <time>2020-10-03T16:54:22.000Z</time>
      </trkpt>
      <trkpt lat="44.1125" lon="3.14041">
        <ele>469.79998779297</ele>
        <time>2020-10-03T16:54:23.000Z</time>
      </trkpt>
      <trkpt lat="44.11249" lon="3.14042">
        <ele>468.20001220703</ele>
        <time>2020-10-03T16:54:24.000Z</time>
      </trkpt>
      <trkpt lat="44.11249" lon="3.14042">
        <ele>466.60000610352</ele>
        <time>2020-10-03T16:54:25.000Z</time>
      </trkpt>
      <trkpt lat="44.11249" lon="3.14044">
        <ele>465</ele>
        <time>2020-10-03T16:54:27.000Z</time>
      </trkpt>
      <trkpt lat="44.1125" lon="3.14044">
        <ele>463.39999389648</ele>
        <time>2020-10-03T16:54:28.000Z</time>
      </trkpt>
      <trkpt lat="44.11251" lon="3.14046">
        <ele>462.39999389648</ele>
        <time>2020-10-03T16:54:30.000Z</time>
      </trkpt>
      <trkpt lat="44.11252" lon="3.14048">
        <ele>462</ele>
        <time>2020-10-03T16:54:32.000Z</time>
      </trkpt>
      <trkpt lat="44.11253" lon="3.14054">
        <ele>461.79998779297</ele>
        <time>2020-10-03T16:54:34.000Z</time>
      </trkpt>
      <trkpt lat="44.11251" lon="3.14062">
        <ele>461.60000610352</ele>
        <time>2020-10-03T16:54:38.000Z</time>
      </trkpt>
      <trkpt lat="44.11246" lon="3.14055">
        <ele>461.39999389648</ele>
        <time>2020-10-03T16:54:40.000Z</time>
      </trkpt>
      <trkpt lat="44.11239" lon="3.14046">
        <ele>460.79998779297</ele>
        <time>2020-10-03T16:54:42.000Z</time>
      </trkpt>
      <trkpt lat="44.11236" lon="3.14039">
        <ele>460.20001220703</ele>
        <time>2020-10-03T16:54:43.000Z</time>
      </trkpt>
      <trkpt lat="44.11227" lon="3.14023">
        <ele>459</ele>
        <time>2020-10-03T16:54:45.000Z</time>
      </trkpt>
      <trkpt lat="44.11221" lon="3.14015">
        <ele>458.39999389648</ele>
        <time>2020-10-03T16:54:46.000Z</time>
      </trkpt>
      <trkpt lat="44.11216" lon="3.14007">
        <ele>458</ele>
        <time>2020-10-03T16:54:47.000Z</time>
      </trkpt>
      <trkpt lat="44.11203" lon="3.13983">
        <ele>456.60000610352</ele>
        <time>2020-10-03T16:54:50.000Z</time>
      </trkpt>
      <trkpt lat="44.112" lon="3.13975">
        <ele>455.79998779297</ele>
        <time>2020-10-03T16:54:51.000Z</time>
      </trkpt>
      <trkpt lat="44.11196" lon="3.13967">
        <ele>455.20001220703</ele>
        <time>2020-10-03T16:54:52.000Z</time>
      </trkpt>
      <trkpt lat="44.11192" lon="3.13959">
        <ele>454.60000610352</ele>
        <time>2020-10-03T16:54:53.000Z</time>
      </trkpt>
      <trkpt lat="44.11187" lon="3.13952">
        <ele>453.60000610352</ele>
        <time>2020-10-03T16:54:54.000Z</time>
      </trkpt>
      <trkpt lat="44.11182" lon="3.13944">
        <ele>452.39999389648</ele>
        <time>2020-10-03T16:54:55.000Z</time>
      </trkpt>
      <trkpt lat="44.11168" lon="3.13928">
        <ele>448.60000610352</ele>
        <time>2020-10-03T16:54:57.000Z</time>
      </trkpt>
      <trkpt lat="44.1116" lon="3.13919">
        <ele>447.20001220703</ele>
        <time>2020-10-03T16:54:58.000Z</time>
      </trkpt>
      <trkpt lat="44.11151" lon="3.1391">
        <ele>446</ele>
        <time>2020-10-03T16:54:59.000Z</time>
      </trkpt>
      <trkpt lat="44.11131" lon="3.13894">
        <ele>444</ele>
        <time>2020-10-03T16:55:01.000Z</time>
      </trkpt>
      <trkpt lat="44.11121" lon="3.13887">
        <ele>443.20001220703</ele>
        <time>2020-10-03T16:55:02.000Z</time>
      </trkpt>
      <trkpt lat="44.11109" lon="3.1388">
        <ele>442</ele>
        <time>2020-10-03T16:55:03.000Z</time>
      </trkpt>
      <trkpt lat="44.11098" lon="3.13873">
        <ele>440.39999389648</ele>
        <time>2020-10-03T16:55:04.000Z</time>
      </trkpt>
      <trkpt lat="44.11089" lon="3.13868">
        <ele>439.20001220703</ele>
        <time>2020-10-03T16:55:05.000Z</time>
      </trkpt>
      <trkpt lat="44.11081" lon="3.13864">
        <ele>438</ele>
        <time>2020-10-03T16:55:06.000Z</time>
      </trkpt>
      <trkpt lat="44.11069" lon="3.13857">
        <ele>436.20001220703</ele>
        <time>2020-10-03T16:55:08.000Z</time>
      </trkpt>
      <trkpt lat="44.11065" lon="3.13856">
        <ele>435.39999389648</ele>
        <time>2020-10-03T16:55:09.000Z</time>
      </trkpt>
      <trkpt lat="44.11063" lon="3.13855">
        <ele>434.39999389648</ele>
        <time>2020-10-03T16:55:10.000Z</time>
      </trkpt>
      <trkpt lat="44.11061" lon="3.13855">
        <ele>433.39999389648</ele>
        <time>2020-10-03T16:55:11.000Z</time>
      </trkpt>
      <trkpt lat="44.1106" lon="3.13855">
        <ele>432</ele>
        <time>2020-10-03T16:55:12.000Z</time>
      </trkpt>
      <trkpt lat="44.11059" lon="3.13855">
        <ele>431</ele>
        <time>2020-10-03T16:55:13.000Z</time>
      </trkpt>
      <trkpt lat="44.1106" lon="3.13856">
        <ele>429.79998779297</ele>
        <time>2020-10-03T16:55:14.000Z</time>
      </trkpt>
    </trkseg>
  </trk>
  <trk>
    <name><![CDATA[MILLAU J2 - Run 4]]></name>
    <trkseg>
      <trkpt lat="44.12596" lon="3.1529">
        <ele>837.20001220703</ele>
        <time>2020-10-03T15:24:35.000Z</time>
      </trkpt>
      <trkpt lat="44.12596" lon="3.1529">
        <ele>836.79998779297</ele>
        <time>2020-10-03T15:24:37.000Z</time>
      </trkpt>
      <trkpt lat="44.12596" lon="3.1529">
        <ele>836.59997558594</ele>
        <time>2020-10-03T15:24:38.000Z</time>
      </trkpt>
      <trkpt lat="44.12596" lon="3.15291">
        <ele>836.40002441406</ele>
        <time>2020-10-03T15:24:39.000Z</time>
      </trkpt>
      <trkpt lat="44.12597" lon="3.15291">
        <ele>836.40002441406</ele>
        <time>2020-10-03T15:24:41.000Z</time>
      </trkpt>
      <trkpt lat="44.12597" lon="3.15291">
        <ele>836.20001220703</ele>
        <time>2020-10-03T15:24:43.000Z</time>
      </trkpt>
      <trkpt lat="44.12597" lon="3.1529">
        <ele>836.20001220703</ele>
        <time>2020-10-03T15:24:45.000Z</time>
      </trkpt>
      <trkpt lat="44.12598" lon="3.15289">
        <ele>836</ele>
        <time>2020-10-03T15:24:47.000Z</time>
      </trkpt>
      <trkpt lat="44.12598" lon="3.15285">
        <ele>835.79998779297</ele>
        <time>2020-10-03T15:24:49.000Z</time>
      </trkpt>
      <trkpt lat="44.12596" lon="3.15283">
        <ele>835.59997558594</ele>
        <time>2020-10-03T15:24:51.000Z</time>
      </trkpt>
      <trkpt lat="44.12596" lon="3.15282">
        <ele>835.40002441406</ele>
        <time>2020-10-03T15:24:52.000Z</time>
      </trkpt>
      <trkpt lat="44.12595" lon="3.15282">
        <ele>835</ele>
        <time>2020-10-03T15:24:53.000Z</time>
      </trkpt>
      <trkpt lat="44.12592" lon="3.15282">
        <ele>834.59997558594</ele>
        <time>2020-10-03T15:24:55.000Z</time>
      </trkpt>
      <trkpt lat="44.12591" lon="3.15283">
        <ele>834.40002441406</ele>
        <time>2020-10-03T15:24:56.000Z</time>
      </trkpt>
      <trkpt lat="44.12589" lon="3.15284">
        <ele>834.20001220703</ele>
        <time>2020-10-03T15:24:57.000Z</time>
      </trkpt>
      <trkpt lat="44.12589" lon="3.15285">
        <ele>833.59997558594</ele>
        <time>2020-10-03T15:24:59.000Z</time>
      </trkpt>
      <trkpt lat="44.12593" lon="3.15283">
        <ele>833.40002441406</ele>
        <time>2020-10-03T15:25:01.000Z</time>
      </trkpt>
      <trkpt lat="44.12597" lon="3.15279">
        <ele>833.20001220703</ele>
        <time>2020-10-03T15:25:03.000Z</time>
      </trkpt>
      <trkpt lat="44.126" lon="3.15278">
        <ele>832.59997558594</ele>
        <time>2020-10-03T15:25:05.000Z</time>
      </trkpt>
      <trkpt lat="44.12605" lon="3.15279">
        <ele>832.20001220703</ele>
        <time>2020-10-03T15:25:07.000Z</time>
      </trkpt>
      <trkpt lat="44.12609" lon="3.1528">
        <ele>832</ele>
        <time>2020-10-03T15:25:09.000Z</time>
      </trkpt>
      <trkpt lat="44.12613" lon="3.15279">
        <ele>831.79998779297</ele>
        <time>2020-10-03T15:25:11.000Z</time>
      </trkpt>
      <trkpt lat="44.12614" lon="3.15282">
        <ele>831.79998779297</ele>
        <time>2020-10-03T15:25:13.000Z</time>
      </trkpt>
      <trkpt lat="44.12612" lon="3.15283">
        <ele>831.79998779297</ele>
        <time>2020-10-03T15:25:15.000Z</time>
      </trkpt>
      <trkpt lat="44.12609" lon="3.15283">
        <ele>831.79998779297</ele>
        <time>2020-10-03T15:25:16.000Z</time>
      </trkpt>
      <trkpt lat="44.12607" lon="3.15283">
        <ele>831.79998779297</ele>
        <time>2020-10-03T15:25:17.000Z</time>
      </trkpt>
      <trkpt lat="44.12601" lon="3.15281">
        <ele>831.79998779297</ele>
        <time>2020-10-03T15:25:19.000Z</time>
      </trkpt>
      <trkpt lat="44.12595" lon="3.15281">
        <ele>831.79998779297</ele>
        <time>2020-10-03T15:25:21.000Z</time>
      </trkpt>
      <trkpt lat="44.12593" lon="3.15282">
        <ele>831.79998779297</ele>
        <time>2020-10-03T15:25:22.000Z</time>
      </trkpt>
      <trkpt lat="44.12591" lon="3.15283">
        <ele>831.79998779297</ele>
        <time>2020-10-03T15:25:23.000Z</time>
      </trkpt>
      <trkpt lat="44.12589" lon="3.15287">
        <ele>831.79998779297</ele>
        <time>2020-10-03T15:25:25.000Z</time>
      </trkpt>
      <trkpt lat="44.1259" lon="3.15288">
        <ele>831.59997558594</ele>
        <time>2020-10-03T15:25:26.000Z</time>
      </trkpt>
      <trkpt lat="44.1259" lon="3.15288">
        <ele>831.79998779297</ele>
        <time>2020-10-03T15:25:27.000Z</time>
      </trkpt>
      <trkpt lat="44.12594" lon="3.15285">
        <ele>831.79998779297</ele>
        <time>2020-10-03T15:25:30.000Z</time>
      </trkpt>
      <trkpt lat="44.12596" lon="3.15283">
        <ele>831.79998779297</ele>
        <time>2020-10-03T15:25:35.000Z</time>
      </trkpt>
      <trkpt lat="44.12601" lon="3.15281">
        <ele>832.20001220703</ele>
        <time>2020-10-03T15:25:48.000Z</time>
      </trkpt>
      <trkpt lat="44.12611" lon="3.15281">
        <ele>832.20001220703</ele>
        <time>2020-10-03T15:25:52.000Z</time>
      </trkpt>
      <trkpt lat="44.12627" lon="3.1528">
        <ele>832.20001220703</ele>
        <time>2020-10-03T15:25:59.000Z</time>
      </trkpt>
      <trkpt lat="44.12635" lon="3.15275">
        <ele>832.20001220703</ele>
        <time>2020-10-03T15:26:04.000Z</time>
      </trkpt>
      <trkpt lat="44.12636" lon="3.15274">
        <ele>832.20001220703</ele>
        <time>2020-10-03T15:26:05.000Z</time>
      </trkpt>
      <trkpt lat="44.12634" lon="3.15274">
        <ele>832.20001220703</ele>
        <time>2020-10-03T15:26:07.000Z</time>
      </trkpt>
      <trkpt lat="44.12629" lon="3.15275">
        <ele>832.20001220703</ele>
        <time>2020-10-03T15:26:09.000Z</time>
      </trkpt>
      <trkpt lat="44.12603" lon="3.15279">
        <ele>831.59997558594</ele>
        <time>2020-10-03T15:26:17.000Z</time>
      </trkpt>
      <trkpt lat="44.12596" lon="3.15279">
        <ele>830.79998779297</ele>
        <time>2020-10-03T15:26:22.000Z</time>
      </trkpt>
      <trkpt lat="44.12595" lon="3.15282">
        <ele>830.79998779297</ele>
        <time>2020-10-03T15:26:33.000Z</time>
      </trkpt>
      <trkpt lat="44.12594" lon="3.15283">
        <ele>831.59997558594</ele>
        <time>2020-10-03T15:26:46.000Z</time>
      </trkpt>
      <trkpt lat="44.12594" lon="3.15282">
        <ele>831.79998779297</ele>
        <time>2020-10-03T15:26:56.000Z</time>
      </trkpt>
      <trkpt lat="44.12593" lon="3.15282">
        <ele>832</ele>
        <time>2020-10-03T15:27:02.000Z</time>
      </trkpt>
      <trkpt lat="44.12593" lon="3.15282">
        <ele>832.20001220703</ele>
        <time>2020-10-03T15:27:19.000Z</time>
      </trkpt>
      <trkpt lat="44.12593" lon="3.15282">
        <ele>831.79998779297</ele>
        <time>2020-10-03T15:27:30.000Z</time>
      </trkpt>
      <trkpt lat="44.12593" lon="3.15282">
        <ele>831.79998779297</ele>
        <time>2020-10-03T15:27:47.000Z</time>
      </trkpt>
      <trkpt lat="44.12593" lon="3.15282">
        <ele>831.79998779297</ele>
        <time>2020-10-03T15:27:49.000Z</time>
      </trkpt>
      <trkpt lat="44.12588" lon="3.15281">
        <ele>831.79998779297</ele>
        <time>2020-10-03T15:27:53.000Z</time>
      </trkpt>
      <trkpt lat="44.12578" lon="3.15278">
        <ele>831.79998779297</ele>
        <time>2020-10-03T15:27:59.000Z</time>
      </trkpt>
      <trkpt lat="44.12566" lon="3.1528">
        <ele>831.79998779297</ele>
        <time>2020-10-03T15:28:06.000Z</time>
      </trkpt>
      <trkpt lat="44.12552" lon="3.15281">
        <ele>832</ele>
        <time>2020-10-03T15:28:12.000Z</time>
      </trkpt>
      <trkpt lat="44.12543" lon="3.15283">
        <ele>831.79998779297</ele>
        <time>2020-10-03T15:28:17.000Z</time>
      </trkpt>
      <trkpt lat="44.12525" lon="3.15284">
        <ele>831.59997558594</ele>
        <time>2020-10-03T15:28:25.000Z</time>
      </trkpt>
      <trkpt lat="44.12511" lon="3.15285">
        <ele>831.59997558594</ele>
        <time>2020-10-03T15:28:32.000Z</time>
      </trkpt>
      <trkpt lat="44.12494" lon="3.15286">
        <ele>831.79998779297</ele>
        <time>2020-10-03T15:28:39.000Z</time>
      </trkpt>
      <trkpt lat="44.12482" lon="3.15289">
        <ele>831.79998779297</ele>
        <time>2020-10-03T15:28:45.000Z</time>
      </trkpt>
      <trkpt lat="44.1247" lon="3.15292">
        <ele>831.79998779297</ele>
        <time>2020-10-03T15:28:50.000Z</time>
      </trkpt>
      <trkpt lat="44.12455" lon="3.15292">
        <ele>831.59997558594</ele>
        <time>2020-10-03T15:28:56.000Z</time>
      </trkpt>
      <trkpt lat="44.12438" lon="3.15295">
        <ele>831.59997558594</ele>
        <time>2020-10-03T15:29:02.000Z</time>
      </trkpt>
      <trkpt lat="44.12426" lon="3.15296">
        <ele>831.59997558594</ele>
        <time>2020-10-03T15:29:07.000Z</time>
      </trkpt>
      <trkpt lat="44.12397" lon="3.153">
        <ele>831.79998779297</ele>
        <time>2020-10-03T15:29:18.000Z</time>
      </trkpt>
      <trkpt lat="44.12376" lon="3.15303">
        <ele>831.79998779297</ele>
        <time>2020-10-03T15:29:25.000Z</time>
      </trkpt>
      <trkpt lat="44.12352" lon="3.15305">
        <ele>832</ele>
        <time>2020-10-03T15:29:32.000Z</time>
      </trkpt>
      <trkpt lat="44.12324" lon="3.15309">
        <ele>832.20001220703</ele>
        <time>2020-10-03T15:29:40.000Z</time>
      </trkpt>
      <trkpt lat="44.12321" lon="3.15309">
        <ele>832.20001220703</ele>
        <time>2020-10-03T15:29:41.000Z</time>
      </trkpt>
      <trkpt lat="44.12315" lon="3.15309">
        <ele>832.40002441406</ele>
        <time>2020-10-03T15:29:44.000Z</time>
      </trkpt>
      <trkpt lat="44.12313" lon="3.15309">
        <ele>832.40002441406</ele>
        <time>2020-10-03T15:29:50.000Z</time>
      </trkpt>
      <trkpt lat="44.12313" lon="3.15309">
        <ele>833</ele>
        <time>2020-10-03T15:30:03.000Z</time>
      </trkpt>
      <trkpt lat="44.12314" lon="3.1531">
        <ele>833.20001220703</ele>
        <time>2020-10-03T15:30:04.000Z</time>
      </trkpt>
      <trkpt lat="44.12314" lon="3.15309">
        <ele>833.40002441406</ele>
        <time>2020-10-03T15:30:18.000Z</time>
      </trkpt>
      <trkpt lat="44.12314" lon="3.15309">
        <ele>833.20001220703</ele>
        <time>2020-10-03T15:30:33.000Z</time>
      </trkpt>
      <trkpt lat="44.12315" lon="3.15309">
        <ele>833.20001220703</ele>
        <time>2020-10-03T15:30:51.000Z</time>
      </trkpt>
      <trkpt lat="44.12314" lon="3.15309">
        <ele>833.20001220703</ele>
        <time>2020-10-03T15:31:05.000Z</time>
      </trkpt>
      <trkpt lat="44.12315" lon="3.15307">
        <ele>833</ele>
        <time>2020-10-03T15:31:19.000Z</time>
      </trkpt>
      <trkpt lat="44.12317" lon="3.15304">
        <ele>833</ele>
        <time>2020-10-03T15:31:29.000Z</time>
      </trkpt>
      <trkpt lat="44.12319" lon="3.15304">
        <ele>833</ele>
        <time>2020-10-03T15:31:30.000Z</time>
      </trkpt>
      <trkpt lat="44.12327" lon="3.15305">
        <ele>833</ele>
        <time>2020-10-03T15:31:34.000Z</time>
      </trkpt>
      <trkpt lat="44.12343" lon="3.15303">
        <ele>833</ele>
        <time>2020-10-03T15:31:39.000Z</time>
      </trkpt>
      <trkpt lat="44.12365" lon="3.15299">
        <ele>832.40002441406</ele>
        <time>2020-10-03T15:31:46.000Z</time>
      </trkpt>
      <trkpt lat="44.12391" lon="3.15296">
        <ele>832.20001220703</ele>
        <time>2020-10-03T15:31:54.000Z</time>
      </trkpt>
      <trkpt lat="44.12412" lon="3.15293">
        <ele>832.40002441406</ele>
        <time>2020-10-03T15:32:01.000Z</time>
      </trkpt>
      <trkpt lat="44.12422" lon="3.15294">
        <ele>832.59997558594</ele>
        <time>2020-10-03T15:32:06.000Z</time>
      </trkpt>
      <trkpt lat="44.1244" lon="3.15293">
        <ele>832.59997558594</ele>
        <time>2020-10-03T15:32:13.000Z</time>
      </trkpt>
      <trkpt lat="44.12459" lon="3.15291">
        <ele>832.79998779297</ele>
        <time>2020-10-03T15:32:20.000Z</time>
      </trkpt>
      <trkpt lat="44.12482" lon="3.15291">
        <ele>832.59997558594</ele>
        <time>2020-10-03T15:32:27.000Z</time>
      </trkpt>
      <trkpt lat="44.12514" lon="3.15291">
        <ele>832.79998779297</ele>
        <time>2020-10-03T15:32:34.000Z</time>
      </trkpt>
      <trkpt lat="44.1254" lon="3.15285">
        <ele>832.79998779297</ele>
        <time>2020-10-03T15:32:39.000Z</time>
      </trkpt>
      <trkpt lat="44.12558" lon="3.15277">
        <ele>832.79998779297</ele>
        <time>2020-10-03T15:32:43.000Z</time>
      </trkpt>
      <trkpt lat="44.12561" lon="3.15274">
        <ele>832.79998779297</ele>
        <time>2020-10-03T15:32:44.000Z</time>
      </trkpt>
      <trkpt lat="44.12562" lon="3.15268">
        <ele>832.79998779297</ele>
        <time>2020-10-03T15:32:46.000Z</time>
      </trkpt>
      <trkpt lat="44.12552" lon="3.15266">
        <ele>833</ele>
        <time>2020-10-03T15:32:50.000Z</time>
      </trkpt>
      <trkpt lat="44.12548" lon="3.15266">
        <ele>833</ele>
        <time>2020-10-03T15:32:51.000Z</time>
      </trkpt>
      <trkpt lat="44.12532" lon="3.15264">
        <ele>833</ele>
        <time>2020-10-03T15:32:56.000Z</time>
      </trkpt>
      <trkpt lat="44.12512" lon="3.15259">
        <ele>833.20001220703</ele>
        <time>2020-10-03T15:33:03.000Z</time>
      </trkpt>
      <trkpt lat="44.12493" lon="3.15254">
        <ele>833.59997558594</ele>
        <time>2020-10-03T15:33:09.000Z</time>
      </trkpt>
      <trkpt lat="44.12473" lon="3.15247">
        <ele>833.79998779297</ele>
        <time>2020-10-03T15:33:15.000Z</time>
      </trkpt>
      <trkpt lat="44.12449" lon="3.15234">
        <ele>834</ele>
        <time>2020-10-03T15:33:23.000Z</time>
      </trkpt>
      <trkpt lat="44.12431" lon="3.15225">
        <ele>834</ele>
        <time>2020-10-03T15:33:29.000Z</time>
      </trkpt>
      <trkpt lat="44.12416" lon="3.15216">
        <ele>834.20001220703</ele>
        <time>2020-10-03T15:33:35.000Z</time>
      </trkpt>
      <trkpt lat="44.12399" lon="3.15207">
        <ele>834.20001220703</ele>
        <time>2020-10-03T15:33:41.000Z</time>
      </trkpt>
      <trkpt lat="44.12384" lon="3.15199">
        <ele>834.20001220703</ele>
        <time>2020-10-03T15:33:46.000Z</time>
      </trkpt>
      <trkpt lat="44.12366" lon="3.15189">
        <ele>834.40002441406</ele>
        <time>2020-10-03T15:33:51.000Z</time>
      </trkpt>
      <trkpt lat="44.12343" lon="3.1518">
        <ele>834.59997558594</ele>
        <time>2020-10-03T15:33:57.000Z</time>
      </trkpt>
      <trkpt lat="44.12336" lon="3.15178">
        <ele>834.59997558594</ele>
        <time>2020-10-03T15:34:00.000Z</time>
      </trkpt>
      <trkpt lat="44.12331" lon="3.15177">
        <ele>834.59997558594</ele>
        <time>2020-10-03T15:34:02.000Z</time>
      </trkpt>
      <trkpt lat="44.12319" lon="3.1517">
        <ele>834.79998779297</ele>
        <time>2020-10-03T15:34:09.000Z</time>
      </trkpt>
      <trkpt lat="44.12311" lon="3.15167">
        <ele>834.79998779297</ele>
        <time>2020-10-03T15:34:14.000Z</time>
      </trkpt>
      <trkpt lat="44.1231" lon="3.15166">
        <ele>834.79998779297</ele>
        <time>2020-10-03T15:34:15.000Z</time>
      </trkpt>
      <trkpt lat="44.12304" lon="3.15164">
        <ele>835</ele>
        <time>2020-10-03T15:34:22.000Z</time>
      </trkpt>
      <trkpt lat="44.12302" lon="3.15164">
        <ele>835.40002441406</ele>
        <time>2020-10-03T15:34:34.000Z</time>
      </trkpt>
      <trkpt lat="44.12302" lon="3.15164">
        <ele>835.40002441406</ele>
        <time>2020-10-03T15:34:45.000Z</time>
      </trkpt>
      <trkpt lat="44.12301" lon="3.15164">
        <ele>835.20001220703</ele>
        <time>2020-10-03T15:34:57.000Z</time>
      </trkpt>
      <trkpt lat="44.12302" lon="3.15157">
        <ele>834.79998779297</ele>
        <time>2020-10-03T15:35:08.000Z</time>
      </trkpt>
      <trkpt lat="44.12304" lon="3.15141">
        <ele>835</ele>
        <time>2020-10-03T15:35:13.000Z</time>
      </trkpt>
      <trkpt lat="44.12305" lon="3.15133">
        <ele>835.59997558594</ele>
        <time>2020-10-03T15:35:15.000Z</time>
      </trkpt>
      <trkpt lat="44.12307" lon="3.15118">
        <ele>836.20001220703</ele>
        <time>2020-10-03T15:35:19.000Z</time>
      </trkpt>
      <trkpt lat="44.12307" lon="3.151">
        <ele>836.20001220703</ele>
        <time>2020-10-03T15:35:24.000Z</time>
      </trkpt>
      <trkpt lat="44.12307" lon="3.15076">
        <ele>836.20001220703</ele>
        <time>2020-10-03T15:35:30.000Z</time>
      </trkpt>
      <trkpt lat="44.12305" lon="3.15056">
        <ele>836.20001220703</ele>
        <time>2020-10-03T15:35:35.000Z</time>
      </trkpt>
      <trkpt lat="44.12302" lon="3.15039">
        <ele>836.20001220703</ele>
        <time>2020-10-03T15:35:41.000Z</time>
      </trkpt>
      <trkpt lat="44.123" lon="3.15015">
        <ele>836</ele>
        <time>2020-10-03T15:35:50.000Z</time>
      </trkpt>
      <trkpt lat="44.123" lon="3.15002">
        <ele>836</ele>
        <time>2020-10-03T15:35:56.000Z</time>
      </trkpt>
      <trkpt lat="44.12299" lon="3.14996">
        <ele>836</ele>
        <time>2020-10-03T15:35:58.000Z</time>
      </trkpt>
      <trkpt lat="44.12299" lon="3.14989">
        <ele>836</ele>
        <time>2020-10-03T15:36:01.000Z</time>
      </trkpt>
      <trkpt lat="44.123" lon="3.14977">
        <ele>836</ele>
        <time>2020-10-03T15:36:05.000Z</time>
      </trkpt>
      <trkpt lat="44.123" lon="3.14971">
        <ele>836</ele>
        <time>2020-10-03T15:36:07.000Z</time>
      </trkpt>
      <trkpt lat="44.12299" lon="3.14948">
        <ele>835.79998779297</ele>
        <time>2020-10-03T15:36:13.000Z</time>
      </trkpt>
      <trkpt lat="44.12296" lon="3.14927">
        <ele>835.40002441406</ele>
        <time>2020-10-03T15:36:18.000Z</time>
      </trkpt>
      <trkpt lat="44.12294" lon="3.14903">
        <ele>835.40002441406</ele>
        <time>2020-10-03T15:36:25.000Z</time>
      </trkpt>
      <trkpt lat="44.12293" lon="3.14886">
        <ele>835.40002441406</ele>
        <time>2020-10-03T15:36:30.000Z</time>
      </trkpt>
      <trkpt lat="44.12292" lon="3.14863">
        <ele>835.40002441406</ele>
        <time>2020-10-03T15:36:36.000Z</time>
      </trkpt>
      <trkpt lat="44.12289" lon="3.14836">
        <ele>835.40002441406</ele>
        <time>2020-10-03T15:36:43.000Z</time>
      </trkpt>
      <trkpt lat="44.12289" lon="3.14815">
        <ele>835.40002441406</ele>
        <time>2020-10-03T15:36:49.000Z</time>
      </trkpt>
      <trkpt lat="44.12288" lon="3.14792">
        <ele>835.40002441406</ele>
        <time>2020-10-03T15:36:54.000Z</time>
      </trkpt>
      <trkpt lat="44.12281" lon="3.14776">
        <ele>835.40002441406</ele>
        <time>2020-10-03T15:36:59.000Z</time>
      </trkpt>
      <trkpt lat="44.12265" lon="3.14759">
        <ele>835.59997558594</ele>
        <time>2020-10-03T15:37:05.000Z</time>
      </trkpt>
      <trkpt lat="44.12251" lon="3.14747">
        <ele>835.59997558594</ele>
        <time>2020-10-03T15:37:11.000Z</time>
      </trkpt>
      <trkpt lat="44.12244" lon="3.14742">
        <ele>835.59997558594</ele>
        <time>2020-10-03T15:37:16.000Z</time>
      </trkpt>
      <trkpt lat="44.12243" lon="3.1474">
        <ele>835.59997558594</ele>
        <time>2020-10-03T15:37:26.000Z</time>
      </trkpt>
      <trkpt lat="44.12242" lon="3.14739">
        <ele>835.59997558594</ele>
        <time>2020-10-03T15:37:39.000Z</time>
      </trkpt>
      <trkpt lat="44.12242" lon="3.14738">
        <ele>835.20001220703</ele>
        <time>2020-10-03T15:38:01.000Z</time>
      </trkpt>
      <trkpt lat="44.12241" lon="3.14735">
        <ele>834.20001220703</ele>
        <time>2020-10-03T15:38:17.000Z</time>
      </trkpt>
      <trkpt lat="44.12241" lon="3.14732">
        <ele>834.20001220703</ele>
        <time>2020-10-03T15:38:19.000Z</time>
      </trkpt>
      <trkpt lat="44.12242" lon="3.14723">
        <ele>834</ele>
        <time>2020-10-03T15:38:23.000Z</time>
      </trkpt>
      <trkpt lat="44.12246" lon="3.14708">
        <ele>834</ele>
        <time>2020-10-03T15:38:27.000Z</time>
      </trkpt>
      <trkpt lat="44.12244" lon="3.14703">
        <ele>834</ele>
        <time>2020-10-03T15:38:28.000Z</time>
      </trkpt>
      <trkpt lat="44.12245" lon="3.14694">
        <ele>833.79998779297</ele>
        <time>2020-10-03T15:38:30.000Z</time>
      </trkpt>
      <trkpt lat="44.12248" lon="3.14692">
        <ele>833.59997558594</ele>
        <time>2020-10-03T15:38:31.000Z</time>
      </trkpt>
      <trkpt lat="44.12252" lon="3.14691">
        <ele>833.20001220703</ele>
        <time>2020-10-03T15:38:33.000Z</time>
      </trkpt>
      <trkpt lat="44.12261" lon="3.14698">
        <ele>833.20001220703</ele>
        <time>2020-10-03T15:38:36.000Z</time>
      </trkpt>
      <trkpt lat="44.1227" lon="3.147">
        <ele>833</ele>
        <time>2020-10-03T15:38:39.000Z</time>
      </trkpt>
      <trkpt lat="44.12276" lon="3.14693">
        <ele>832.79998779297</ele>
        <time>2020-10-03T15:38:42.000Z</time>
      </trkpt>
      <trkpt lat="44.12278" lon="3.14694">
        <ele>832.79998779297</ele>
        <time>2020-10-03T15:38:43.000Z</time>
      </trkpt>
      <trkpt lat="44.12281" lon="3.14693">
        <ele>832.79998779297</ele>
        <time>2020-10-03T15:38:44.000Z</time>
      </trkpt>
      <trkpt lat="44.12287" lon="3.1469">
        <ele>832.59997558594</ele>
        <time>2020-10-03T15:38:46.000Z</time>
      </trkpt>
      <trkpt lat="44.12295" lon="3.14692">
        <ele>832.40002441406</ele>
        <time>2020-10-03T15:38:49.000Z</time>
      </trkpt>
      <trkpt lat="44.12296" lon="3.14694">
        <ele>832.40002441406</ele>
        <time>2020-10-03T15:38:50.000Z</time>
      </trkpt>
      <trkpt lat="44.123" lon="3.14697">
        <ele>832.20001220703</ele>
        <time>2020-10-03T15:38:52.000Z</time>
      </trkpt>
      <trkpt lat="44.12305" lon="3.14696">
        <ele>832</ele>
        <time>2020-10-03T15:38:54.000Z</time>
      </trkpt>
      <trkpt lat="44.12318" lon="3.14686">
        <ele>831.59997558594</ele>
        <time>2020-10-03T15:38:58.000Z</time>
      </trkpt>
      <trkpt lat="44.12327" lon="3.14672">
        <ele>831.40002441406</ele>
        <time>2020-10-03T15:39:02.000Z</time>
      </trkpt>
      <trkpt lat="44.12329" lon="3.14669">
        <ele>831.40002441406</ele>
        <time>2020-10-03T15:39:03.000Z</time>
      </trkpt>
      <trkpt lat="44.12343" lon="3.14658">
        <ele>831</ele>
        <time>2020-10-03T15:39:07.000Z</time>
      </trkpt>
      <trkpt lat="44.1236" lon="3.14644">
        <ele>830.40002441406</ele>
        <time>2020-10-03T15:39:12.000Z</time>
      </trkpt>
      <trkpt lat="44.12361" lon="3.14637">
        <ele>830.59997558594</ele>
        <time>2020-10-03T15:39:15.000Z</time>
      </trkpt>
      <trkpt lat="44.12361" lon="3.14635">
        <ele>830.59997558594</ele>
        <time>2020-10-03T15:39:16.000Z</time>
      </trkpt>
      <trkpt lat="44.12361" lon="3.14631">
        <ele>830.59997558594</ele>
        <time>2020-10-03T15:39:27.000Z</time>
      </trkpt>
      <trkpt lat="44.12359" lon="3.14633">
        <ele>831</ele>
        <time>2020-10-03T15:39:46.000Z</time>
      </trkpt>
      <trkpt lat="44.12359" lon="3.14632">
        <ele>831</ele>
        <time>2020-10-03T15:39:56.000Z</time>
      </trkpt>
      <trkpt lat="44.12354" lon="3.14617">
        <ele>830.79998779297</ele>
        <time>2020-10-03T15:40:05.000Z</time>
      </trkpt>
      <trkpt lat="44.12344" lon="3.14601">
        <ele>830.59997558594</ele>
        <time>2020-10-03T15:40:10.000Z</time>
      </trkpt>
      <trkpt lat="44.12341" lon="3.14596">
        <ele>830.79998779297</ele>
        <time>2020-10-03T15:40:11.000Z</time>
      </trkpt>
      <trkpt lat="44.12336" lon="3.14585">
        <ele>830.59997558594</ele>
        <time>2020-10-03T15:40:13.000Z</time>
      </trkpt>
      <trkpt lat="44.12333" lon="3.14578">
        <ele>830.20001220703</ele>
        <time>2020-10-03T15:40:15.000Z</time>
      </trkpt>
      <trkpt lat="44.12333" lon="3.14575">
        <ele>830</ele>
        <time>2020-10-03T15:40:16.000Z</time>
      </trkpt>
      <trkpt lat="44.12333" lon="3.14573">
        <ele>829.79998779297</ele>
        <time>2020-10-03T15:40:17.000Z</time>
      </trkpt>
      <trkpt lat="44.12331" lon="3.14569">
        <ele>829.59997558594</ele>
        <time>2020-10-03T15:40:21.000Z</time>
      </trkpt>
      <trkpt lat="44.12327" lon="3.1456">
        <ele>829.59997558594</ele>
        <time>2020-10-03T15:40:29.000Z</time>
      </trkpt>
      <trkpt lat="44.12325" lon="3.14559">
        <ele>829.40002441406</ele>
        <time>2020-10-03T15:40:43.000Z</time>
      </trkpt>
      <trkpt lat="44.12328" lon="3.14555">
        <ele>829.40002441406</ele>
        <time>2020-10-03T15:40:56.000Z</time>
      </trkpt>
      <trkpt lat="44.12327" lon="3.14557">
        <ele>829.40002441406</ele>
        <time>2020-10-03T15:41:08.000Z</time>
      </trkpt>
      <trkpt lat="44.12326" lon="3.1456">
        <ele>829.40002441406</ele>
        <time>2020-10-03T15:41:12.000Z</time>
      </trkpt>
      <trkpt lat="44.12326" lon="3.14561">
        <ele>829.20001220703</ele>
        <time>2020-10-03T15:41:24.000Z</time>
      </trkpt>
      <trkpt lat="44.1233" lon="3.14553">
        <ele>829</ele>
        <time>2020-10-03T15:41:30.000Z</time>
      </trkpt>
      <trkpt lat="44.12331" lon="3.14551">
        <ele>829</ele>
        <time>2020-10-03T15:41:31.000Z</time>
      </trkpt>
      <trkpt lat="44.12341" lon="3.14537">
        <ele>828.59997558594</ele>
        <time>2020-10-03T15:41:36.000Z</time>
      </trkpt>
      <trkpt lat="44.12343" lon="3.14534">
        <ele>828.59997558594</ele>
        <time>2020-10-03T15:41:37.000Z</time>
      </trkpt>
      <trkpt lat="44.1235" lon="3.14516">
        <ele>828.79998779297</ele>
        <time>2020-10-03T15:41:41.000Z</time>
      </trkpt>
      <trkpt lat="44.1236" lon="3.14502">
        <ele>828.59997558594</ele>
        <time>2020-10-03T15:41:45.000Z</time>
      </trkpt>
      <trkpt lat="44.12372" lon="3.14489">
        <ele>828.40002441406</ele>
        <time>2020-10-03T15:41:50.000Z</time>
      </trkpt>
      <trkpt lat="44.12381" lon="3.14466">
        <ele>828.40002441406</ele>
        <time>2020-10-03T15:41:54.000Z</time>
      </trkpt>
      <trkpt lat="44.12382" lon="3.14458">
        <ele>828.40002441406</ele>
        <time>2020-10-03T15:41:55.000Z</time>
      </trkpt>
      <trkpt lat="44.12382" lon="3.14441">
        <ele>828.20001220703</ele>
        <time>2020-10-03T15:41:57.000Z</time>
      </trkpt>
      <trkpt lat="44.12382" lon="3.14433">
        <ele>828.20001220703</ele>
        <time>2020-10-03T15:41:58.000Z</time>
      </trkpt>
      <trkpt lat="44.12388" lon="3.14423">
        <ele>828.20001220703</ele>
        <time>2020-10-03T15:42:00.000Z</time>
      </trkpt>
      <trkpt lat="44.12395" lon="3.14417">
        <ele>828.20001220703</ele>
        <time>2020-10-03T15:42:02.000Z</time>
      </trkpt>
      <trkpt lat="44.12399" lon="3.14414">
        <ele>828.20001220703</ele>
        <time>2020-10-03T15:42:03.000Z</time>
      </trkpt>
      <trkpt lat="44.12402" lon="3.14409">
        <ele>828</ele>
        <time>2020-10-03T15:42:04.000Z</time>
      </trkpt>
      <trkpt lat="44.12412" lon="3.14388">
        <ele>827.59997558594</ele>
        <time>2020-10-03T15:42:07.000Z</time>
      </trkpt>
      <trkpt lat="44.12418" lon="3.14381">
        <ele>827.59997558594</ele>
        <time>2020-10-03T15:42:08.000Z</time>
      </trkpt>
      <trkpt lat="44.12429" lon="3.1437">
        <ele>827.40002441406</ele>
        <time>2020-10-03T15:42:10.000Z</time>
      </trkpt>
      <trkpt lat="44.12436" lon="3.14362">
        <ele>827.20001220703</ele>
        <time>2020-10-03T15:42:12.000Z</time>
      </trkpt>
      <trkpt lat="44.12437" lon="3.14357">
        <ele>827.20001220703</ele>
        <time>2020-10-03T15:42:13.000Z</time>
      </trkpt>
      <trkpt lat="44.12434" lon="3.14341">
        <ele>826.79998779297</ele>
        <time>2020-10-03T15:42:17.000Z</time>
      </trkpt>
      <trkpt lat="44.12435" lon="3.1433">
        <ele>826.79998779297</ele>
        <time>2020-10-03T15:42:20.000Z</time>
      </trkpt>
      <trkpt lat="44.1244" lon="3.14315">
        <ele>826.59997558594</ele>
        <time>2020-10-03T15:42:25.000Z</time>
      </trkpt>
      <trkpt lat="44.12438" lon="3.14315">
        <ele>826.59997558594</ele>
        <time>2020-10-03T15:42:26.000Z</time>
      </trkpt>
      <trkpt lat="44.12433" lon="3.14311">
        <ele>826.59997558594</ele>
        <time>2020-10-03T15:42:28.000Z</time>
      </trkpt>
      <trkpt lat="44.12428" lon="3.14308">
        <ele>826</ele>
        <time>2020-10-03T15:42:30.000Z</time>
      </trkpt>
      <trkpt lat="44.12424" lon="3.14306">
        <ele>825.79998779297</ele>
        <time>2020-10-03T15:42:32.000Z</time>
      </trkpt>
      <trkpt lat="44.12413" lon="3.14303">
        <ele>825.20001220703</ele>
        <time>2020-10-03T15:42:36.000Z</time>
      </trkpt>
      <trkpt lat="44.12411" lon="3.14302">
        <ele>825</ele>
        <time>2020-10-03T15:42:37.000Z</time>
      </trkpt>
      <trkpt lat="44.12408" lon="3.14301">
        <ele>824.79998779297</ele>
        <time>2020-10-03T15:42:39.000Z</time>
      </trkpt>
      <trkpt lat="44.1241" lon="3.14298">
        <ele>824.59997558594</ele>
        <time>2020-10-03T15:42:41.000Z</time>
      </trkpt>
      <trkpt lat="44.12412" lon="3.14294">
        <ele>824.20001220703</ele>
        <time>2020-10-03T15:42:44.000Z</time>
      </trkpt>
      <trkpt lat="44.12409" lon="3.14292">
        <ele>824</ele>
        <time>2020-10-03T15:42:46.000Z</time>
      </trkpt>
      <trkpt lat="44.12408" lon="3.1429">
        <ele>824</ele>
        <time>2020-10-03T15:42:47.000Z</time>
      </trkpt>
      <trkpt lat="44.12404" lon="3.14287">
        <ele>823.79998779297</ele>
        <time>2020-10-03T15:42:49.000Z</time>
      </trkpt>
      <trkpt lat="44.12401" lon="3.14285">
        <ele>824</ele>
        <time>2020-10-03T15:42:50.000Z</time>
      </trkpt>
      <trkpt lat="44.12393" lon="3.14275">
        <ele>823.59997558594</ele>
        <time>2020-10-03T15:42:54.000Z</time>
      </trkpt>
      <trkpt lat="44.12385" lon="3.14269">
        <ele>823.40002441406</ele>
        <time>2020-10-03T15:42:58.000Z</time>
      </trkpt>
      <trkpt lat="44.12383" lon="3.14267">
        <ele>823.20001220703</ele>
        <time>2020-10-03T15:42:59.000Z</time>
      </trkpt>
      <trkpt lat="44.1238" lon="3.14261">
        <ele>822.20001220703</ele>
        <time>2020-10-03T15:43:01.000Z</time>
      </trkpt>
      <trkpt lat="44.12378" lon="3.14258">
        <ele>814.79998779297</ele>
        <time>2020-10-03T15:43:02.000Z</time>
      </trkpt>
      <trkpt lat="44.12376" lon="3.14255">
        <ele>787</ele>
        <time>2020-10-03T15:43:03.000Z</time>
      </trkpt>
      <trkpt lat="44.12372" lon="3.14251">
        <ele>775.79998779297</ele>
        <time>2020-10-03T15:43:04.000Z</time>
      </trkpt>
      <trkpt lat="44.12368" lon="3.14247">
        <ele>767.20001220703</ele>
        <time>2020-10-03T15:43:05.000Z</time>
      </trkpt>
      <trkpt lat="44.12365" lon="3.14242">
        <ele>761</ele>
        <time>2020-10-03T15:43:06.000Z</time>
      </trkpt>
      <trkpt lat="44.12362" lon="3.14237">
        <ele>756.59997558594</ele>
        <time>2020-10-03T15:43:07.000Z</time>
      </trkpt>
      <trkpt lat="44.1236" lon="3.14233">
        <ele>753.40002441406</ele>
        <time>2020-10-03T15:43:08.000Z</time>
      </trkpt>
      <trkpt lat="44.12359" lon="3.1423">
        <ele>751</ele>
        <time>2020-10-03T15:43:09.000Z</time>
      </trkpt>
      <trkpt lat="44.12357" lon="3.14228">
        <ele>749.20001220703</ele>
        <time>2020-10-03T15:43:10.000Z</time>
      </trkpt>
      <trkpt lat="44.12355" lon="3.14226">
        <ele>747.59997558594</ele>
        <time>2020-10-03T15:43:11.000Z</time>
      </trkpt>
      <trkpt lat="44.12354" lon="3.14224">
        <ele>746.59997558594</ele>
        <time>2020-10-03T15:43:12.000Z</time>
      </trkpt>
      <trkpt lat="44.12354" lon="3.14223">
        <ele>745.20001220703</ele>
        <time>2020-10-03T15:43:13.000Z</time>
      </trkpt>
      <trkpt lat="44.12354" lon="3.14221">
        <ele>744</ele>
        <time>2020-10-03T15:43:14.000Z</time>
      </trkpt>
      <trkpt lat="44.12354" lon="3.14219">
        <ele>742.40002441406</ele>
        <time>2020-10-03T15:43:15.000Z</time>
      </trkpt>
      <trkpt lat="44.12352" lon="3.14217">
        <ele>741</ele>
        <time>2020-10-03T15:43:16.000Z</time>
      </trkpt>
      <trkpt lat="44.12351" lon="3.14216">
        <ele>739.79998779297</ele>
        <time>2020-10-03T15:43:17.000Z</time>
      </trkpt>
      <trkpt lat="44.12351" lon="3.14215">
        <ele>738.79998779297</ele>
        <time>2020-10-03T15:43:18.000Z</time>
      </trkpt>
      <trkpt lat="44.1235" lon="3.14214">
        <ele>737.79998779297</ele>
        <time>2020-10-03T15:43:19.000Z</time>
      </trkpt>
      <trkpt lat="44.12345" lon="3.14208">
        <ele>736</ele>
        <time>2020-10-03T15:43:21.000Z</time>
      </trkpt>
      <trkpt lat="44.12343" lon="3.14204">
        <ele>735</ele>
        <time>2020-10-03T15:43:23.000Z</time>
      </trkpt>
      <trkpt lat="44.12342" lon="3.14202">
        <ele>734.40002441406</ele>
        <time>2020-10-03T15:43:24.000Z</time>
      </trkpt>
      <trkpt lat="44.12341" lon="3.14196">
        <ele>733.40002441406</ele>
        <time>2020-10-03T15:43:26.000Z</time>
      </trkpt>
      <trkpt lat="44.12339" lon="3.14189">
        <ele>732.20001220703</ele>
        <time>2020-10-03T15:43:28.000Z</time>
      </trkpt>
      <trkpt lat="44.12335" lon="3.14179">
        <ele>730.59997558594</ele>
        <time>2020-10-03T15:43:31.000Z</time>
      </trkpt>
      <trkpt lat="44.12332" lon="3.14176">
        <ele>729.20001220703</ele>
        <time>2020-10-03T15:43:33.000Z</time>
      </trkpt>
      <trkpt lat="44.12328" lon="3.14171">
        <ele>727.79998779297</ele>
        <time>2020-10-03T15:43:35.000Z</time>
      </trkpt>
      <trkpt lat="44.12323" lon="3.14164">
        <ele>726.20001220703</ele>
        <time>2020-10-03T15:43:37.000Z</time>
      </trkpt>
      <trkpt lat="44.1232" lon="3.14157">
        <ele>724.79998779297</ele>
        <time>2020-10-03T15:43:39.000Z</time>
      </trkpt>
      <trkpt lat="44.12316" lon="3.14151">
        <ele>723.20001220703</ele>
        <time>2020-10-03T15:43:41.000Z</time>
      </trkpt>
      <trkpt lat="44.12312" lon="3.14145">
        <ele>721.59997558594</ele>
        <time>2020-10-03T15:43:43.000Z</time>
      </trkpt>
      <trkpt lat="44.12308" lon="3.14137">
        <ele>719.59997558594</ele>
        <time>2020-10-03T15:43:45.000Z</time>
      </trkpt>
      <trkpt lat="44.12306" lon="3.14135">
        <ele>718.40002441406</ele>
        <time>2020-10-03T15:43:46.000Z</time>
      </trkpt>
      <trkpt lat="44.12303" lon="3.14132">
        <ele>717.40002441406</ele>
        <time>2020-10-03T15:43:47.000Z</time>
      </trkpt>
      <trkpt lat="44.12301" lon="3.1413">
        <ele>716.40002441406</ele>
        <time>2020-10-03T15:43:48.000Z</time>
      </trkpt>
      <trkpt lat="44.12299" lon="3.14127">
        <ele>715.40002441406</ele>
        <time>2020-10-03T15:43:49.000Z</time>
      </trkpt>
      <trkpt lat="44.12296" lon="3.14124">
        <ele>714.20001220703</ele>
        <time>2020-10-03T15:43:50.000Z</time>
      </trkpt>
      <trkpt lat="44.12292" lon="3.14119">
        <ele>712.40002441406</ele>
        <time>2020-10-03T15:43:52.000Z</time>
      </trkpt>
      <trkpt lat="44.12293" lon="3.14112">
        <ele>710.79998779297</ele>
        <time>2020-10-03T15:43:54.000Z</time>
      </trkpt>
      <trkpt lat="44.12294" lon="3.14108">
        <ele>709.79998779297</ele>
        <time>2020-10-03T15:43:55.000Z</time>
      </trkpt>
      <trkpt lat="44.12294" lon="3.14105">
        <ele>708.59997558594</ele>
        <time>2020-10-03T15:43:56.000Z</time>
      </trkpt>
      <trkpt lat="44.12294" lon="3.14103">
        <ele>707.40002441406</ele>
        <time>2020-10-03T15:43:57.000Z</time>
      </trkpt>
      <trkpt lat="44.12293" lon="3.14102">
        <ele>706</ele>
        <time>2020-10-03T15:43:58.000Z</time>
      </trkpt>
      <trkpt lat="44.12292" lon="3.14101">
        <ele>705</ele>
        <time>2020-10-03T15:43:59.000Z</time>
      </trkpt>
      <trkpt lat="44.1229" lon="3.14102">
        <ele>704</ele>
        <time>2020-10-03T15:44:00.000Z</time>
      </trkpt>
      <trkpt lat="44.12288" lon="3.14101">
        <ele>702.20001220703</ele>
        <time>2020-10-03T15:44:01.000Z</time>
      </trkpt>
      <trkpt lat="44.12283" lon="3.141">
        <ele>700.59997558594</ele>
        <time>2020-10-03T15:44:03.000Z</time>
      </trkpt>
      <trkpt lat="44.12281" lon="3.14101">
        <ele>699.59997558594</ele>
        <time>2020-10-03T15:44:04.000Z</time>
      </trkpt>
      <trkpt lat="44.12279" lon="3.14102">
        <ele>698.59997558594</ele>
        <time>2020-10-03T15:44:05.000Z</time>
      </trkpt>
      <trkpt lat="44.12279" lon="3.14102">
        <ele>697.79998779297</ele>
        <time>2020-10-03T15:44:06.000Z</time>
      </trkpt>
      <trkpt lat="44.12277" lon="3.14102">
        <ele>696.20001220703</ele>
        <time>2020-10-03T15:44:08.000Z</time>
      </trkpt>
      <trkpt lat="44.12274" lon="3.14104">
        <ele>695</ele>
        <time>2020-10-03T15:44:10.000Z</time>
      </trkpt>
      <trkpt lat="44.12271" lon="3.14103">
        <ele>693.59997558594</ele>
        <time>2020-10-03T15:44:12.000Z</time>
      </trkpt>
      <trkpt lat="44.12265" lon="3.141">
        <ele>692</ele>
        <time>2020-10-03T15:44:14.000Z</time>
      </trkpt>
      <trkpt lat="44.12257" lon="3.14098">
        <ele>691</ele>
        <time>2020-10-03T15:44:16.000Z</time>
      </trkpt>
      <trkpt lat="44.12247" lon="3.141">
        <ele>689.59997558594</ele>
        <time>2020-10-03T15:44:19.000Z</time>
      </trkpt>
      <trkpt lat="44.1224" lon="3.14102">
        <ele>688.40002441406</ele>
        <time>2020-10-03T15:44:21.000Z</time>
      </trkpt>
      <trkpt lat="44.12233" lon="3.14105">
        <ele>686.79998779297</ele>
        <time>2020-10-03T15:44:23.000Z</time>
      </trkpt>
      <trkpt lat="44.12229" lon="3.14106">
        <ele>686.20001220703</ele>
        <time>2020-10-03T15:44:24.000Z</time>
      </trkpt>
      <trkpt lat="44.12226" lon="3.14107">
        <ele>685.40002441406</ele>
        <time>2020-10-03T15:44:25.000Z</time>
      </trkpt>
      <trkpt lat="44.1222" lon="3.14107">
        <ele>684</ele>
        <time>2020-10-03T15:44:27.000Z</time>
      </trkpt>
      <trkpt lat="44.12217" lon="3.14107">
        <ele>683.40002441406</ele>
        <time>2020-10-03T15:44:28.000Z</time>
      </trkpt>
      <trkpt lat="44.12213" lon="3.14107">
        <ele>683</ele>
        <time>2020-10-03T15:44:29.000Z</time>
      </trkpt>
      <trkpt lat="44.12205" lon="3.14105">
        <ele>681.20001220703</ele>
        <time>2020-10-03T15:44:31.000Z</time>
      </trkpt>
      <trkpt lat="44.12201" lon="3.14103">
        <ele>680.59997558594</ele>
        <time>2020-10-03T15:44:32.000Z</time>
      </trkpt>
      <trkpt lat="44.12194" lon="3.14104">
        <ele>680</ele>
        <time>2020-10-03T15:44:33.000Z</time>
      </trkpt>
      <trkpt lat="44.12188" lon="3.14105">
        <ele>679.79998779297</ele>
        <time>2020-10-03T15:44:34.000Z</time>
      </trkpt>
      <trkpt lat="44.12177" lon="3.14108">
        <ele>679.59997558594</ele>
        <time>2020-10-03T15:44:36.000Z</time>
      </trkpt>
      <trkpt lat="44.12172" lon="3.14109">
        <ele>679.40002441406</ele>
        <time>2020-10-03T15:44:37.000Z</time>
      </trkpt>
      <trkpt lat="44.12161" lon="3.1411">
        <ele>678.79998779297</ele>
        <time>2020-10-03T15:44:39.000Z</time>
      </trkpt>
      <trkpt lat="44.12156" lon="3.1411">
        <ele>678.40002441406</ele>
        <time>2020-10-03T15:44:40.000Z</time>
      </trkpt>
      <trkpt lat="44.12152" lon="3.14109">
        <ele>677.79998779297</ele>
        <time>2020-10-03T15:44:41.000Z</time>
      </trkpt>
      <trkpt lat="44.12145" lon="3.14106">
        <ele>676.20001220703</ele>
        <time>2020-10-03T15:44:43.000Z</time>
      </trkpt>
      <trkpt lat="44.12142" lon="3.14105">
        <ele>675.20001220703</ele>
        <time>2020-10-03T15:44:44.000Z</time>
      </trkpt>
      <trkpt lat="44.12138" lon="3.14103">
        <ele>674.59997558594</ele>
        <time>2020-10-03T15:44:45.000Z</time>
      </trkpt>
      <trkpt lat="44.12134" lon="3.141">
        <ele>673.79998779297</ele>
        <time>2020-10-03T15:44:46.000Z</time>
      </trkpt>
      <trkpt lat="44.1213" lon="3.14099">
        <ele>673</ele>
        <time>2020-10-03T15:44:47.000Z</time>
      </trkpt>
      <trkpt lat="44.12125" lon="3.14098">
        <ele>671.79998779297</ele>
        <time>2020-10-03T15:44:48.000Z</time>
      </trkpt>
      <trkpt lat="44.12121" lon="3.14096">
        <ele>670.59997558594</ele>
        <time>2020-10-03T15:44:49.000Z</time>
      </trkpt>
      <trkpt lat="44.12116" lon="3.14094">
        <ele>669.40002441406</ele>
        <time>2020-10-03T15:44:50.000Z</time>
      </trkpt>
      <trkpt lat="44.12111" lon="3.14092">
        <ele>668.20001220703</ele>
        <time>2020-10-03T15:44:51.000Z</time>
      </trkpt>
      <trkpt lat="44.12108" lon="3.14091">
        <ele>667.20001220703</ele>
        <time>2020-10-03T15:44:52.000Z</time>
      </trkpt>
      <trkpt lat="44.12106" lon="3.1409">
        <ele>666.59997558594</ele>
        <time>2020-10-03T15:44:53.000Z</time>
      </trkpt>
      <trkpt lat="44.12095" lon="3.14086">
        <ele>665</ele>
        <time>2020-10-03T15:44:56.000Z</time>
      </trkpt>
      <trkpt lat="44.1209" lon="3.14084">
        <ele>664.59997558594</ele>
        <time>2020-10-03T15:44:57.000Z</time>
      </trkpt>
      <trkpt lat="44.12079" lon="3.14077">
        <ele>663.40002441406</ele>
        <time>2020-10-03T15:44:59.000Z</time>
      </trkpt>
      <trkpt lat="44.12074" lon="3.14075">
        <ele>663</ele>
        <time>2020-10-03T15:45:00.000Z</time>
      </trkpt>
      <trkpt lat="44.1207" lon="3.14073">
        <ele>662.40002441406</ele>
        <time>2020-10-03T15:45:01.000Z</time>
      </trkpt>
      <trkpt lat="44.12066" lon="3.14073">
        <ele>661.79998779297</ele>
        <time>2020-10-03T15:45:02.000Z</time>
      </trkpt>
      <trkpt lat="44.12059" lon="3.14075">
        <ele>660.40002441406</ele>
        <time>2020-10-03T15:45:04.000Z</time>
      </trkpt>
      <trkpt lat="44.12056" lon="3.14077">
        <ele>660</ele>
        <time>2020-10-03T15:45:05.000Z</time>
      </trkpt>
      <trkpt lat="44.12053" lon="3.14079">
        <ele>659.40002441406</ele>
        <time>2020-10-03T15:45:06.000Z</time>
      </trkpt>
      <trkpt lat="44.12048" lon="3.1408">
        <ele>658.20001220703</ele>
        <time>2020-10-03T15:45:07.000Z</time>
      </trkpt>
      <trkpt lat="44.12044" lon="3.14081">
        <ele>657.20001220703</ele>
        <time>2020-10-03T15:45:08.000Z</time>
      </trkpt>
      <trkpt lat="44.12034" lon="3.14084">
        <ele>655.79998779297</ele>
        <time>2020-10-03T15:45:10.000Z</time>
      </trkpt>
      <trkpt lat="44.12028" lon="3.14084">
        <ele>655</ele>
        <time>2020-10-03T15:45:11.000Z</time>
      </trkpt>
      <trkpt lat="44.12023" lon="3.14085">
        <ele>654.40002441406</ele>
        <time>2020-10-03T15:45:12.000Z</time>
      </trkpt>
      <trkpt lat="44.12016" lon="3.14086">
        <ele>653.20001220703</ele>
        <time>2020-10-03T15:45:14.000Z</time>
      </trkpt>
      <trkpt lat="44.12013" lon="3.14088">
        <ele>652.20001220703</ele>
        <time>2020-10-03T15:45:15.000Z</time>
      </trkpt>
      <trkpt lat="44.12009" lon="3.14089">
        <ele>651.59997558594</ele>
        <time>2020-10-03T15:45:16.000Z</time>
      </trkpt>
      <trkpt lat="44.12004" lon="3.14088">
        <ele>649.79998779297</ele>
        <time>2020-10-03T15:45:18.000Z</time>
      </trkpt>
      <trkpt lat="44.12" lon="3.14088">
        <ele>648.79998779297</ele>
        <time>2020-10-03T15:45:19.000Z</time>
      </trkpt>
      <trkpt lat="44.1199" lon="3.14087">
        <ele>647.40002441406</ele>
        <time>2020-10-03T15:45:21.000Z</time>
      </trkpt>
      <trkpt lat="44.11977" lon="3.14089">
        <ele>646.20001220703</ele>
        <time>2020-10-03T15:45:23.000Z</time>
      </trkpt>
      <trkpt lat="44.11973" lon="3.1409">
        <ele>645.59997558594</ele>
        <time>2020-10-03T15:45:24.000Z</time>
      </trkpt>
      <trkpt lat="44.1197" lon="3.14091">
        <ele>645</ele>
        <time>2020-10-03T15:45:25.000Z</time>
      </trkpt>
      <trkpt lat="44.11969" lon="3.14091">
        <ele>644</ele>
        <time>2020-10-03T15:45:26.000Z</time>
      </trkpt>
      <trkpt lat="44.11969" lon="3.14091">
        <ele>642.59997558594</ele>
        <time>2020-10-03T15:45:27.000Z</time>
      </trkpt>
      <trkpt lat="44.11967" lon="3.14093">
        <ele>640.59997558594</ele>
        <time>2020-10-03T15:45:28.000Z</time>
      </trkpt>
      <trkpt lat="44.11965" lon="3.14094">
        <ele>639</ele>
        <time>2020-10-03T15:45:30.000Z</time>
      </trkpt>
      <trkpt lat="44.11964" lon="3.14095">
        <ele>637.79998779297</ele>
        <time>2020-10-03T15:45:31.000Z</time>
      </trkpt>
      <trkpt lat="44.11963" lon="3.14096">
        <ele>636.79998779297</ele>
        <time>2020-10-03T15:45:32.000Z</time>
      </trkpt>
      <trkpt lat="44.11962" lon="3.14097">
        <ele>635.79998779297</ele>
        <time>2020-10-03T15:45:33.000Z</time>
      </trkpt>
      <trkpt lat="44.11961" lon="3.14098">
        <ele>635</ele>
        <time>2020-10-03T15:45:34.000Z</time>
      </trkpt>
      <trkpt lat="44.11959" lon="3.141">
        <ele>633.79998779297</ele>
        <time>2020-10-03T15:45:37.000Z</time>
      </trkpt>
      <trkpt lat="44.11958" lon="3.141">
        <ele>633.20001220703</ele>
        <time>2020-10-03T15:45:47.000Z</time>
      </trkpt>
      <trkpt lat="44.11958" lon="3.14101">
        <ele>632.79998779297</ele>
        <time>2020-10-03T15:46:05.000Z</time>
      </trkpt>
      <trkpt lat="44.11955" lon="3.14101">
        <ele>632.59997558594</ele>
        <time>2020-10-03T15:46:20.000Z</time>
      </trkpt>
      <trkpt lat="44.11952" lon="3.14103">
        <ele>632.79998779297</ele>
        <time>2020-10-03T15:46:35.000Z</time>
      </trkpt>
      <trkpt lat="44.11951" lon="3.14104">
        <ele>632.79998779297</ele>
        <time>2020-10-03T15:46:36.000Z</time>
      </trkpt>
      <trkpt lat="44.11949" lon="3.14107">
        <ele>633.20001220703</ele>
        <time>2020-10-03T15:46:51.000Z</time>
      </trkpt>
      <trkpt lat="44.11951" lon="3.14105">
        <ele>633</ele>
        <time>2020-10-03T15:47:07.000Z</time>
      </trkpt>
      <trkpt lat="44.1195" lon="3.14104">
        <ele>633.40002441406</ele>
        <time>2020-10-03T15:47:22.000Z</time>
      </trkpt>
      <trkpt lat="44.11948" lon="3.14106">
        <ele>633.40002441406</ele>
        <time>2020-10-03T15:47:36.000Z</time>
      </trkpt>
      <trkpt lat="44.11947" lon="3.14106">
        <ele>633.20001220703</ele>
        <time>2020-10-03T15:47:51.000Z</time>
      </trkpt>
      <trkpt lat="44.1195" lon="3.14104">
        <ele>633</ele>
        <time>2020-10-03T15:48:05.000Z</time>
      </trkpt>
      <trkpt lat="44.11946" lon="3.141">
        <ele>633</ele>
        <time>2020-10-03T15:48:12.000Z</time>
      </trkpt>
      <trkpt lat="44.11943" lon="3.14098">
        <ele>633</ele>
        <time>2020-10-03T15:48:14.000Z</time>
      </trkpt>
      <trkpt lat="44.11933" lon="3.14097">
        <ele>632.79998779297</ele>
        <time>2020-10-03T15:48:18.000Z</time>
      </trkpt>
      <trkpt lat="44.11927" lon="3.14108">
        <ele>631.59997558594</ele>
        <time>2020-10-03T15:48:22.000Z</time>
      </trkpt>
      <trkpt lat="44.11924" lon="3.14112">
        <ele>631.20001220703</ele>
        <time>2020-10-03T15:48:23.000Z</time>
      </trkpt>
      <trkpt lat="44.11921" lon="3.14115">
        <ele>630</ele>
        <time>2020-10-03T15:48:25.000Z</time>
      </trkpt>
      <trkpt lat="44.11918" lon="3.14116">
        <ele>628.79998779297</ele>
        <time>2020-10-03T15:48:27.000Z</time>
      </trkpt>
      <trkpt lat="44.11916" lon="3.14116">
        <ele>627</ele>
        <time>2020-10-03T15:48:29.000Z</time>
      </trkpt>
      <trkpt lat="44.11915" lon="3.14116">
        <ele>625.59997558594</ele>
        <time>2020-10-03T15:48:30.000Z</time>
      </trkpt>
      <trkpt lat="44.11912" lon="3.14117">
        <ele>624.79998779297</ele>
        <time>2020-10-03T15:48:32.000Z</time>
      </trkpt>
      <trkpt lat="44.1191" lon="3.14119">
        <ele>624.20001220703</ele>
        <time>2020-10-03T15:48:36.000Z</time>
      </trkpt>
      <trkpt lat="44.11909" lon="3.14123">
        <ele>623.79998779297</ele>
        <time>2020-10-03T15:48:42.000Z</time>
      </trkpt>
      <trkpt lat="44.11906" lon="3.14127">
        <ele>623.40002441406</ele>
        <time>2020-10-03T15:48:47.000Z</time>
      </trkpt>
      <trkpt lat="44.11904" lon="3.14132">
        <ele>622.59997558594</ele>
        <time>2020-10-03T15:48:54.000Z</time>
      </trkpt>
      <trkpt lat="44.11901" lon="3.14134">
        <ele>622</ele>
        <time>2020-10-03T15:48:56.000Z</time>
      </trkpt>
      <trkpt lat="44.11898" lon="3.14134">
        <ele>621.40002441406</ele>
        <time>2020-10-03T15:48:59.000Z</time>
      </trkpt>
      <trkpt lat="44.11896" lon="3.14135">
        <ele>621.40002441406</ele>
        <time>2020-10-03T15:49:01.000Z</time>
      </trkpt>
      <trkpt lat="44.11893" lon="3.14134">
        <ele>620.20001220703</ele>
        <time>2020-10-03T15:49:06.000Z</time>
      </trkpt>
      <trkpt lat="44.11893" lon="3.14133">
        <ele>619.40002441406</ele>
        <time>2020-10-03T15:49:08.000Z</time>
      </trkpt>
      <trkpt lat="44.11893" lon="3.14133">
        <ele>619</ele>
        <time>2020-10-03T15:49:09.000Z</time>
      </trkpt>
      <trkpt lat="44.11893" lon="3.14132">
        <ele>617.59997558594</ele>
        <time>2020-10-03T15:49:12.000Z</time>
      </trkpt>
      <trkpt lat="44.11892" lon="3.14132">
        <ele>617</ele>
        <time>2020-10-03T15:49:16.000Z</time>
      </trkpt>
      <trkpt lat="44.11891" lon="3.1413">
        <ele>616.79998779297</ele>
        <time>2020-10-03T15:49:28.000Z</time>
      </trkpt>
      <trkpt lat="44.1189" lon="3.14129">
        <ele>616.59997558594</ele>
        <time>2020-10-03T15:49:31.000Z</time>
      </trkpt>
      <trkpt lat="44.11879" lon="3.14126">
        <ele>616.40002441406</ele>
        <time>2020-10-03T15:49:36.000Z</time>
      </trkpt>
      <trkpt lat="44.11873" lon="3.1413">
        <ele>616.20001220703</ele>
        <time>2020-10-03T15:49:39.000Z</time>
      </trkpt>
      <trkpt lat="44.11872" lon="3.14128">
        <ele>616.20001220703</ele>
        <time>2020-10-03T15:49:40.000Z</time>
      </trkpt>
      <trkpt lat="44.11863" lon="3.14114">
        <ele>615.79998779297</ele>
        <time>2020-10-03T15:49:44.000Z</time>
      </trkpt>
      <trkpt lat="44.11853" lon="3.14108">
        <ele>615.40002441406</ele>
        <time>2020-10-03T15:49:46.000Z</time>
      </trkpt>
      <trkpt lat="44.1184" lon="3.14107">
        <ele>613.59997558594</ele>
        <time>2020-10-03T15:49:48.000Z</time>
      </trkpt>
      <trkpt lat="44.11828" lon="3.14103">
        <ele>612</ele>
        <time>2020-10-03T15:49:50.000Z</time>
      </trkpt>
      <trkpt lat="44.11822" lon="3.14101">
        <ele>610.79998779297</ele>
        <time>2020-10-03T15:49:51.000Z</time>
      </trkpt>
      <trkpt lat="44.11816" lon="3.14099">
        <ele>609.79998779297</ele>
        <time>2020-10-03T15:49:52.000Z</time>
      </trkpt>
      <trkpt lat="44.11806" lon="3.14096">
        <ele>607.79998779297</ele>
        <time>2020-10-03T15:49:54.000Z</time>
      </trkpt>
      <trkpt lat="44.11802" lon="3.14096">
        <ele>606.59997558594</ele>
        <time>2020-10-03T15:49:55.000Z</time>
      </trkpt>
      <trkpt lat="44.11799" lon="3.14096">
        <ele>605.59997558594</ele>
        <time>2020-10-03T15:49:56.000Z</time>
      </trkpt>
      <trkpt lat="44.11796" lon="3.14093">
        <ele>604.20001220703</ele>
        <time>2020-10-03T15:49:58.000Z</time>
      </trkpt>
      <trkpt lat="44.11793" lon="3.14092">
        <ele>602.59997558594</ele>
        <time>2020-10-03T15:50:00.000Z</time>
      </trkpt>
      <trkpt lat="44.11791" lon="3.14092">
        <ele>601.59997558594</ele>
        <time>2020-10-03T15:50:01.000Z</time>
      </trkpt>
      <trkpt lat="44.11788" lon="3.14093">
        <ele>600.40002441406</ele>
        <time>2020-10-03T15:50:02.000Z</time>
      </trkpt>
      <trkpt lat="44.11786" lon="3.14093">
        <ele>599.20001220703</ele>
        <time>2020-10-03T15:50:03.000Z</time>
      </trkpt>
      <trkpt lat="44.11784" lon="3.14092">
        <ele>598.20001220703</ele>
        <time>2020-10-03T15:50:04.000Z</time>
      </trkpt>
      <trkpt lat="44.11781" lon="3.1409">
        <ele>596.20001220703</ele>
        <time>2020-10-03T15:50:06.000Z</time>
      </trkpt>
      <trkpt lat="44.1178" lon="3.14089">
        <ele>595.40002441406</ele>
        <time>2020-10-03T15:50:07.000Z</time>
      </trkpt>
      <trkpt lat="44.1178" lon="3.14088">
        <ele>594.40002441406</ele>
        <time>2020-10-03T15:50:08.000Z</time>
      </trkpt>
      <trkpt lat="44.11781" lon="3.14087">
        <ele>593.40002441406</ele>
        <time>2020-10-03T15:50:09.000Z</time>
      </trkpt>
      <trkpt lat="44.11781" lon="3.14086">
        <ele>592.40002441406</ele>
        <time>2020-10-03T15:50:10.000Z</time>
      </trkpt>
      <trkpt lat="44.11783" lon="3.14085">
        <ele>591.20001220703</ele>
        <time>2020-10-03T15:50:11.000Z</time>
      </trkpt>
      <trkpt lat="44.11788" lon="3.14084">
        <ele>589.59997558594</ele>
        <time>2020-10-03T15:50:13.000Z</time>
      </trkpt>
      <trkpt lat="44.11789" lon="3.14083">
        <ele>587.79998779297</ele>
        <time>2020-10-03T15:50:15.000Z</time>
      </trkpt>
      <trkpt lat="44.11788" lon="3.14082">
        <ele>586.59997558594</ele>
        <time>2020-10-03T15:50:16.000Z</time>
      </trkpt>
      <trkpt lat="44.11786" lon="3.14081">
        <ele>584.79998779297</ele>
        <time>2020-10-03T15:50:17.000Z</time>
      </trkpt>
      <trkpt lat="44.11784" lon="3.14079">
        <ele>583.40002441406</ele>
        <time>2020-10-03T15:50:19.000Z</time>
      </trkpt>
      <trkpt lat="44.11784" lon="3.14076">
        <ele>581.79998779297</ele>
        <time>2020-10-03T15:50:21.000Z</time>
      </trkpt>
      <trkpt lat="44.11782" lon="3.14073">
        <ele>580.20001220703</ele>
        <time>2020-10-03T15:50:23.000Z</time>
      </trkpt>
      <trkpt lat="44.11781" lon="3.14072">
        <ele>579.40002441406</ele>
        <time>2020-10-03T15:50:24.000Z</time>
      </trkpt>
      <trkpt lat="44.11781" lon="3.14072">
        <ele>578.40002441406</ele>
        <time>2020-10-03T15:50:25.000Z</time>
      </trkpt>
      <trkpt lat="44.11781" lon="3.14071">
        <ele>576.79998779297</ele>
        <time>2020-10-03T15:50:27.000Z</time>
      </trkpt>
      <trkpt lat="44.11779" lon="3.14068">
        <ele>575.20001220703</ele>
        <time>2020-10-03T15:50:29.000Z</time>
      </trkpt>
      <trkpt lat="44.11777" lon="3.14067">
        <ele>574.40002441406</ele>
        <time>2020-10-03T15:50:30.000Z</time>
      </trkpt>
      <trkpt lat="44.11774" lon="3.14065">
        <ele>574</ele>
        <time>2020-10-03T15:50:31.000Z</time>
      </trkpt>
      <trkpt lat="44.11767" lon="3.14053">
        <ele>573.20001220703</ele>
        <time>2020-10-03T15:50:35.000Z</time>
      </trkpt>
      <trkpt lat="44.11754" lon="3.14037">
        <ele>573</ele>
        <time>2020-10-03T15:50:41.000Z</time>
      </trkpt>
      <trkpt lat="44.11746" lon="3.14031">
        <ele>573</ele>
        <time>2020-10-03T15:50:43.000Z</time>
      </trkpt>
      <trkpt lat="44.11732" lon="3.14025">
        <ele>572.79998779297</ele>
        <time>2020-10-03T15:50:46.000Z</time>
      </trkpt>
      <trkpt lat="44.11715" lon="3.14018">
        <ele>572.40002441406</ele>
        <time>2020-10-03T15:50:51.000Z</time>
      </trkpt>
      <trkpt lat="44.11707" lon="3.14011">
        <ele>571.59997558594</ele>
        <time>2020-10-03T15:50:54.000Z</time>
      </trkpt>
      <trkpt lat="44.11703" lon="3.14003">
        <ele>571</ele>
        <time>2020-10-03T15:50:56.000Z</time>
      </trkpt>
      <trkpt lat="44.11701" lon="3.13999">
        <ele>570.40002441406</ele>
        <time>2020-10-03T15:50:57.000Z</time>
      </trkpt>
      <trkpt lat="44.11698" lon="3.13989">
        <ele>568.59997558594</ele>
        <time>2020-10-03T15:50:59.000Z</time>
      </trkpt>
      <trkpt lat="44.11694" lon="3.13981">
        <ele>566.79998779297</ele>
        <time>2020-10-03T15:51:01.000Z</time>
      </trkpt>
      <trkpt lat="44.11692" lon="3.13978">
        <ele>565.79998779297</ele>
        <time>2020-10-03T15:51:02.000Z</time>
      </trkpt>
      <trkpt lat="44.11691" lon="3.13975">
        <ele>564.40002441406</ele>
        <time>2020-10-03T15:51:03.000Z</time>
      </trkpt>
      <trkpt lat="44.11689" lon="3.13971">
        <ele>563</ele>
        <time>2020-10-03T15:51:04.000Z</time>
      </trkpt>
      <trkpt lat="44.11687" lon="3.13971">
        <ele>562</ele>
        <time>2020-10-03T15:51:05.000Z</time>
      </trkpt>
      <trkpt lat="44.11686" lon="3.13971">
        <ele>560.79998779297</ele>
        <time>2020-10-03T15:51:06.000Z</time>
      </trkpt>
      <trkpt lat="44.11683" lon="3.13974">
        <ele>559.79998779297</ele>
        <time>2020-10-03T15:51:07.000Z</time>
      </trkpt>
      <trkpt lat="44.1168" lon="3.13977">
        <ele>559</ele>
        <time>2020-10-03T15:51:08.000Z</time>
      </trkpt>
      <trkpt lat="44.11678" lon="3.13978">
        <ele>558</ele>
        <time>2020-10-03T15:51:09.000Z</time>
      </trkpt>
      <trkpt lat="44.11674" lon="3.13977">
        <ele>556</ele>
        <time>2020-10-03T15:51:11.000Z</time>
      </trkpt>
      <trkpt lat="44.11671" lon="3.13972">
        <ele>554.40002441406</ele>
        <time>2020-10-03T15:51:13.000Z</time>
      </trkpt>
      <trkpt lat="44.1167" lon="3.13967">
        <ele>553.59997558594</ele>
        <time>2020-10-03T15:51:14.000Z</time>
      </trkpt>
      <trkpt lat="44.11669" lon="3.13961">
        <ele>552.59997558594</ele>
        <time>2020-10-03T15:51:15.000Z</time>
      </trkpt>
      <trkpt lat="44.11667" lon="3.13956">
        <ele>550.40002441406</ele>
        <time>2020-10-03T15:51:16.000Z</time>
      </trkpt>
      <trkpt lat="44.11664" lon="3.13949">
        <ele>549.20001220703</ele>
        <time>2020-10-03T15:51:18.000Z</time>
      </trkpt>
      <trkpt lat="44.11663" lon="3.13948">
        <ele>548.79998779297</ele>
        <time>2020-10-03T15:51:19.000Z</time>
      </trkpt>
      <trkpt lat="44.11661" lon="3.13942">
        <ele>548.20001220703</ele>
        <time>2020-10-03T15:51:22.000Z</time>
      </trkpt>
      <trkpt lat="44.11659" lon="3.13936">
        <ele>548</ele>
        <time>2020-10-03T15:51:24.000Z</time>
      </trkpt>
      <trkpt lat="44.11647" lon="3.13922">
        <ele>546.40002441406</ele>
        <time>2020-10-03T15:51:28.000Z</time>
      </trkpt>
      <trkpt lat="44.11642" lon="3.13919">
        <ele>545.79998779297</ele>
        <time>2020-10-03T15:51:29.000Z</time>
      </trkpt>
      <trkpt lat="44.11636" lon="3.13916">
        <ele>545.40002441406</ele>
        <time>2020-10-03T15:51:30.000Z</time>
      </trkpt>
      <trkpt lat="44.11624" lon="3.13914">
        <ele>543.79998779297</ele>
        <time>2020-10-03T15:51:32.000Z</time>
      </trkpt>
      <trkpt lat="44.11618" lon="3.13913">
        <ele>543</ele>
        <time>2020-10-03T15:51:33.000Z</time>
      </trkpt>
      <trkpt lat="44.11613" lon="3.13911">
        <ele>542.40002441406</ele>
        <time>2020-10-03T15:51:34.000Z</time>
      </trkpt>
      <trkpt lat="44.11605" lon="3.1391">
        <ele>541.20001220703</ele>
        <time>2020-10-03T15:51:36.000Z</time>
      </trkpt>
      <trkpt lat="44.116" lon="3.13909">
        <ele>540.20001220703</ele>
        <time>2020-10-03T15:51:37.000Z</time>
      </trkpt>
      <trkpt lat="44.11596" lon="3.13909">
        <ele>539.20001220703</ele>
        <time>2020-10-03T15:51:38.000Z</time>
      </trkpt>
      <trkpt lat="44.11593" lon="3.13909">
        <ele>537.59997558594</ele>
        <time>2020-10-03T15:51:39.000Z</time>
      </trkpt>
      <trkpt lat="44.11591" lon="3.1391">
        <ele>536.40002441406</ele>
        <time>2020-10-03T15:51:40.000Z</time>
      </trkpt>
      <trkpt lat="44.11588" lon="3.13911">
        <ele>535.40002441406</ele>
        <time>2020-10-03T15:51:41.000Z</time>
      </trkpt>
      <trkpt lat="44.11586" lon="3.13911">
        <ele>534.40002441406</ele>
        <time>2020-10-03T15:51:42.000Z</time>
      </trkpt>
      <trkpt lat="44.11581" lon="3.13913">
        <ele>532.59997558594</ele>
        <time>2020-10-03T15:51:44.000Z</time>
      </trkpt>
      <trkpt lat="44.11578" lon="3.13914">
        <ele>530.40002441406</ele>
        <time>2020-10-03T15:51:45.000Z</time>
      </trkpt>
      <trkpt lat="44.11574" lon="3.13915">
        <ele>528.79998779297</ele>
        <time>2020-10-03T15:51:47.000Z</time>
      </trkpt>
      <trkpt lat="44.11572" lon="3.13917">
        <ele>528.20001220703</ele>
        <time>2020-10-03T15:51:48.000Z</time>
      </trkpt>
      <trkpt lat="44.11568" lon="3.13921">
        <ele>527.79998779297</ele>
        <time>2020-10-03T15:51:50.000Z</time>
      </trkpt>
      <trkpt lat="44.11568" lon="3.13923">
        <ele>527.59997558594</ele>
        <time>2020-10-03T15:51:51.000Z</time>
      </trkpt>
      <trkpt lat="44.11562" lon="3.1394">
        <ele>526</ele>
        <time>2020-10-03T15:51:54.000Z</time>
      </trkpt>
      <trkpt lat="44.1156" lon="3.13944">
        <ele>525.20001220703</ele>
        <time>2020-10-03T15:51:55.000Z</time>
      </trkpt>
      <trkpt lat="44.11558" lon="3.13948">
        <ele>524.20001220703</ele>
        <time>2020-10-03T15:51:56.000Z</time>
      </trkpt>
      <trkpt lat="44.11555" lon="3.13959">
        <ele>523.40002441406</ele>
        <time>2020-10-03T15:51:58.000Z</time>
      </trkpt>
      <trkpt lat="44.11553" lon="3.13965">
        <ele>522.59997558594</ele>
        <time>2020-10-03T15:51:59.000Z</time>
      </trkpt>
      <trkpt lat="44.11551" lon="3.13972">
        <ele>522</ele>
        <time>2020-10-03T15:52:00.000Z</time>
      </trkpt>
      <trkpt lat="44.11548" lon="3.13978">
        <ele>521.59997558594</ele>
        <time>2020-10-03T15:52:01.000Z</time>
      </trkpt>
      <trkpt lat="44.11543" lon="3.13998">
        <ele>521</ele>
        <time>2020-10-03T15:52:04.000Z</time>
      </trkpt>
      <trkpt lat="44.11541" lon="3.14005">
        <ele>521</ele>
        <time>2020-10-03T15:52:05.000Z</time>
      </trkpt>
      <trkpt lat="44.11536" lon="3.14021">
        <ele>520.20001220703</ele>
        <time>2020-10-03T15:52:07.000Z</time>
      </trkpt>
      <trkpt lat="44.11533" lon="3.14036">
        <ele>519</ele>
        <time>2020-10-03T15:52:09.000Z</time>
      </trkpt>
      <trkpt lat="44.1153" lon="3.14045">
        <ele>518.40002441406</ele>
        <time>2020-10-03T15:52:10.000Z</time>
      </trkpt>
      <trkpt lat="44.11527" lon="3.14052">
        <ele>517.59997558594</ele>
        <time>2020-10-03T15:52:11.000Z</time>
      </trkpt>
      <trkpt lat="44.11521" lon="3.14068">
        <ele>516</ele>
        <time>2020-10-03T15:52:13.000Z</time>
      </trkpt>
      <trkpt lat="44.11518" lon="3.14076">
        <ele>514.79998779297</ele>
        <time>2020-10-03T15:52:14.000Z</time>
      </trkpt>
      <trkpt lat="44.11511" lon="3.1409">
        <ele>514</ele>
        <time>2020-10-03T15:52:16.000Z</time>
      </trkpt>
      <trkpt lat="44.11506" lon="3.14095">
        <ele>513.59997558594</ele>
        <time>2020-10-03T15:52:17.000Z</time>
      </trkpt>
      <trkpt lat="44.115" lon="3.14098">
        <ele>513.40002441406</ele>
        <time>2020-10-03T15:52:18.000Z</time>
      </trkpt>
      <trkpt lat="44.11487" lon="3.14105">
        <ele>512.20001220703</ele>
        <time>2020-10-03T15:52:20.000Z</time>
      </trkpt>
      <trkpt lat="44.11481" lon="3.14111">
        <ele>511</ele>
        <time>2020-10-03T15:52:22.000Z</time>
      </trkpt>
      <trkpt lat="44.11474" lon="3.14114">
        <ele>509.39999389648</ele>
        <time>2020-10-03T15:52:24.000Z</time>
      </trkpt>
      <trkpt lat="44.11466" lon="3.14117">
        <ele>507.60000610352</ele>
        <time>2020-10-03T15:52:26.000Z</time>
      </trkpt>
      <trkpt lat="44.11463" lon="3.14115">
        <ele>506.60000610352</ele>
        <time>2020-10-03T15:52:27.000Z</time>
      </trkpt>
      <trkpt lat="44.11455" lon="3.14115">
        <ele>504.79998779297</ele>
        <time>2020-10-03T15:52:29.000Z</time>
      </trkpt>
      <trkpt lat="44.11451" lon="3.14117">
        <ele>504.20001220703</ele>
        <time>2020-10-03T15:52:30.000Z</time>
      </trkpt>
      <trkpt lat="44.11447" lon="3.14119">
        <ele>503.20001220703</ele>
        <time>2020-10-03T15:52:31.000Z</time>
      </trkpt>
      <trkpt lat="44.11439" lon="3.14122">
        <ele>501.60000610352</ele>
        <time>2020-10-03T15:52:33.000Z</time>
      </trkpt>
      <trkpt lat="44.11432" lon="3.14128">
        <ele>499.79998779297</ele>
        <time>2020-10-03T15:52:35.000Z</time>
      </trkpt>
      <trkpt lat="44.1143" lon="3.14131">
        <ele>498.79998779297</ele>
        <time>2020-10-03T15:52:36.000Z</time>
      </trkpt>
      <trkpt lat="44.11426" lon="3.14134">
        <ele>497.79998779297</ele>
        <time>2020-10-03T15:52:37.000Z</time>
      </trkpt>
      <trkpt lat="44.11421" lon="3.14137">
        <ele>496.60000610352</ele>
        <time>2020-10-03T15:52:38.000Z</time>
      </trkpt>
      <trkpt lat="44.11417" lon="3.14138">
        <ele>495.60000610352</ele>
        <time>2020-10-03T15:52:39.000Z</time>
      </trkpt>
      <trkpt lat="44.11414" lon="3.14139">
        <ele>494.60000610352</ele>
        <time>2020-10-03T15:52:40.000Z</time>
      </trkpt>
      <trkpt lat="44.11412" lon="3.1414">
        <ele>493.39999389648</ele>
        <time>2020-10-03T15:52:42.000Z</time>
      </trkpt>
      <trkpt lat="44.11409" lon="3.14142">
        <ele>492.20001220703</ele>
        <time>2020-10-03T15:52:45.000Z</time>
      </trkpt>
      <trkpt lat="44.11408" lon="3.14144">
        <ele>491</ele>
        <time>2020-10-03T15:52:48.000Z</time>
      </trkpt>
      <trkpt lat="44.11407" lon="3.14146">
        <ele>490</ele>
        <time>2020-10-03T15:52:53.000Z</time>
      </trkpt>
      <trkpt lat="44.11405" lon="3.14147">
        <ele>489.79998779297</ele>
        <time>2020-10-03T15:52:59.000Z</time>
      </trkpt>
      <trkpt lat="44.114" lon="3.14155">
        <ele>489.79998779297</ele>
        <time>2020-10-03T15:53:14.000Z</time>
      </trkpt>
      <trkpt lat="44.114" lon="3.14156">
        <ele>489.79998779297</ele>
        <time>2020-10-03T15:53:30.000Z</time>
      </trkpt>
      <trkpt lat="44.114" lon="3.14152">
        <ele>489.79998779297</ele>
        <time>2020-10-03T15:53:46.000Z</time>
      </trkpt>
      <trkpt lat="44.11403" lon="3.14146">
        <ele>489.79998779297</ele>
        <time>2020-10-03T15:53:59.000Z</time>
      </trkpt>
      <trkpt lat="44.11401" lon="3.14149">
        <ele>489.79998779297</ele>
        <time>2020-10-03T15:54:13.000Z</time>
      </trkpt>
      <trkpt lat="44.11399" lon="3.1415">
        <ele>489.60000610352</ele>
        <time>2020-10-03T15:54:29.000Z</time>
      </trkpt>
      <trkpt lat="44.1139" lon="3.14151">
        <ele>489.39999389648</ele>
        <time>2020-10-03T15:54:33.000Z</time>
      </trkpt>
      <trkpt lat="44.11372" lon="3.14145">
        <ele>489.20001220703</ele>
        <time>2020-10-03T15:54:38.000Z</time>
      </trkpt>
      <trkpt lat="44.11369" lon="3.14143">
        <ele>489.20001220703</ele>
        <time>2020-10-03T15:54:39.000Z</time>
      </trkpt>
      <trkpt lat="44.1136" lon="3.1414">
        <ele>488.79998779297</ele>
        <time>2020-10-03T15:54:41.000Z</time>
      </trkpt>
      <trkpt lat="44.11348" lon="3.14137">
        <ele>488.20001220703</ele>
        <time>2020-10-03T15:54:43.000Z</time>
      </trkpt>
      <trkpt lat="44.11343" lon="3.14136">
        <ele>488</ele>
        <time>2020-10-03T15:54:44.000Z</time>
      </trkpt>
      <trkpt lat="44.11337" lon="3.14135">
        <ele>487.39999389648</ele>
        <time>2020-10-03T15:54:46.000Z</time>
      </trkpt>
      <trkpt lat="44.11334" lon="3.14133">
        <ele>487</ele>
        <time>2020-10-03T15:54:47.000Z</time>
      </trkpt>
      <trkpt lat="44.11327" lon="3.14127">
        <ele>485.79998779297</ele>
        <time>2020-10-03T15:54:49.000Z</time>
      </trkpt>
      <trkpt lat="44.11323" lon="3.14123">
        <ele>485</ele>
        <time>2020-10-03T15:54:50.000Z</time>
      </trkpt>
      <trkpt lat="44.11319" lon="3.1412">
        <ele>483.79998779297</ele>
        <time>2020-10-03T15:54:51.000Z</time>
      </trkpt>
      <trkpt lat="44.11316" lon="3.14116">
        <ele>482.60000610352</ele>
        <time>2020-10-03T15:54:52.000Z</time>
      </trkpt>
      <trkpt lat="44.11312" lon="3.14113">
        <ele>481.39999389648</ele>
        <time>2020-10-03T15:54:53.000Z</time>
      </trkpt>
      <trkpt lat="44.11305" lon="3.14109">
        <ele>479.79998779297</ele>
        <time>2020-10-03T15:54:55.000Z</time>
      </trkpt>
      <trkpt lat="44.11302" lon="3.14107">
        <ele>478.79998779297</ele>
        <time>2020-10-03T15:54:56.000Z</time>
      </trkpt>
      <trkpt lat="44.11299" lon="3.14105">
        <ele>477.39999389648</ele>
        <time>2020-10-03T15:54:57.000Z</time>
      </trkpt>
      <trkpt lat="44.11295" lon="3.14101">
        <ele>476.60000610352</ele>
        <time>2020-10-03T15:54:58.000Z</time>
      </trkpt>
      <trkpt lat="44.11291" lon="3.14095">
        <ele>475.39999389648</ele>
        <time>2020-10-03T15:54:59.000Z</time>
      </trkpt>
      <trkpt lat="44.11287" lon="3.14089">
        <ele>474</ele>
        <time>2020-10-03T15:55:00.000Z</time>
      </trkpt>
      <trkpt lat="44.11281" lon="3.14078">
        <ele>471.79998779297</ele>
        <time>2020-10-03T15:55:02.000Z</time>
      </trkpt>
      <trkpt lat="44.11278" lon="3.14072">
        <ele>470.39999389648</ele>
        <time>2020-10-03T15:55:03.000Z</time>
      </trkpt>
      <trkpt lat="44.11274" lon="3.14067">
        <ele>469</ele>
        <time>2020-10-03T15:55:04.000Z</time>
      </trkpt>
      <trkpt lat="44.11271" lon="3.14062">
        <ele>467.60000610352</ele>
        <time>2020-10-03T15:55:05.000Z</time>
      </trkpt>
      <trkpt lat="44.11267" lon="3.14055">
        <ele>466.20001220703</ele>
        <time>2020-10-03T15:55:06.000Z</time>
      </trkpt>
      <trkpt lat="44.11263" lon="3.14048">
        <ele>464.79998779297</ele>
        <time>2020-10-03T15:55:07.000Z</time>
      </trkpt>
      <trkpt lat="44.1126" lon="3.14041">
        <ele>461.79998779297</ele>
        <time>2020-10-03T15:55:08.000Z</time>
      </trkpt>
      <trkpt lat="44.11256" lon="3.14033">
        <ele>460.39999389648</ele>
        <time>2020-10-03T15:55:09.000Z</time>
      </trkpt>
      <trkpt lat="44.11253" lon="3.14026">
        <ele>459</ele>
        <time>2020-10-03T15:55:10.000Z</time>
      </trkpt>
      <trkpt lat="44.11249" lon="3.1402">
        <ele>457.60000610352</ele>
        <time>2020-10-03T15:55:11.000Z</time>
      </trkpt>
      <trkpt lat="44.11246" lon="3.14017">
        <ele>456.20001220703</ele>
        <time>2020-10-03T15:55:12.000Z</time>
      </trkpt>
      <trkpt lat="44.11245" lon="3.14016">
        <ele>454.79998779297</ele>
        <time>2020-10-03T15:55:13.000Z</time>
      </trkpt>
      <trkpt lat="44.11245" lon="3.14023">
        <ele>452.79998779297</ele>
        <time>2020-10-03T15:55:15.000Z</time>
      </trkpt>
      <trkpt lat="44.11245" lon="3.14027">
        <ele>451.20001220703</ele>
        <time>2020-10-03T15:55:16.000Z</time>
      </trkpt>
      <trkpt lat="44.11245" lon="3.14031">
        <ele>450.20001220703</ele>
        <time>2020-10-03T15:55:17.000Z</time>
      </trkpt>
      <trkpt lat="44.11246" lon="3.14033">
        <ele>448.39999389648</ele>
        <time>2020-10-03T15:55:18.000Z</time>
      </trkpt>
      <trkpt lat="44.11246" lon="3.14034">
        <ele>447</ele>
        <time>2020-10-03T15:55:19.000Z</time>
      </trkpt>
      <trkpt lat="44.11246" lon="3.14035">
        <ele>446.20001220703</ele>
        <time>2020-10-03T15:55:20.000Z</time>
      </trkpt>
      <trkpt lat="44.11246" lon="3.14036">
        <ele>445.20001220703</ele>
        <time>2020-10-03T15:55:21.000Z</time>
      </trkpt>
      <trkpt lat="44.11246" lon="3.14037">
        <ele>443.79998779297</ele>
        <time>2020-10-03T15:55:23.000Z</time>
      </trkpt>
      <trkpt lat="44.11246" lon="3.14037">
        <ele>442.39999389648</ele>
        <time>2020-10-03T15:55:25.000Z</time>
      </trkpt>
      <trkpt lat="44.11248" lon="3.14038">
        <ele>441.20001220703</ele>
        <time>2020-10-03T15:55:28.000Z</time>
      </trkpt>
      <trkpt lat="44.11252" lon="3.14043">
        <ele>440.79998779297</ele>
        <time>2020-10-03T15:55:35.000Z</time>
      </trkpt>
      <trkpt lat="44.11248" lon="3.14059">
        <ele>440.20001220703</ele>
        <time>2020-10-03T15:55:40.000Z</time>
      </trkpt>
      <trkpt lat="44.1124" lon="3.14062">
        <ele>439.79998779297</ele>
        <time>2020-10-03T15:55:43.000Z</time>
      </trkpt>
      <trkpt lat="44.11234" lon="3.14054">
        <ele>439.20001220703</ele>
        <time>2020-10-03T15:55:45.000Z</time>
      </trkpt>
      <trkpt lat="44.11231" lon="3.14049">
        <ele>438.79998779297</ele>
        <time>2020-10-03T15:55:46.000Z</time>
      </trkpt>
      <trkpt lat="44.11228" lon="3.14043">
        <ele>438.60000610352</ele>
        <time>2020-10-03T15:55:47.000Z</time>
      </trkpt>
      <trkpt lat="44.11218" lon="3.14028">
        <ele>437.39999389648</ele>
        <time>2020-10-03T15:55:49.000Z</time>
      </trkpt>
      <trkpt lat="44.11212" lon="3.1402">
        <ele>437</ele>
        <time>2020-10-03T15:55:50.000Z</time>
      </trkpt>
      <trkpt lat="44.11206" lon="3.14011">
        <ele>436.39999389648</ele>
        <time>2020-10-03T15:55:51.000Z</time>
      </trkpt>
      <trkpt lat="44.11202" lon="3.14002">
        <ele>436</ele>
        <time>2020-10-03T15:55:52.000Z</time>
      </trkpt>
      <trkpt lat="44.11195" lon="3.13983">
        <ele>435.20001220703</ele>
        <time>2020-10-03T15:55:54.000Z</time>
      </trkpt>
      <trkpt lat="44.11191" lon="3.13974">
        <ele>435</ele>
        <time>2020-10-03T15:55:55.000Z</time>
      </trkpt>
      <trkpt lat="44.11181" lon="3.13957">
        <ele>433.79998779297</ele>
        <time>2020-10-03T15:55:57.000Z</time>
      </trkpt>
      <trkpt lat="44.11175" lon="3.1395">
        <ele>432.79998779297</ele>
        <time>2020-10-03T15:55:58.000Z</time>
      </trkpt>
      <trkpt lat="44.11168" lon="3.13943">
        <ele>431.60000610352</ele>
        <time>2020-10-03T15:55:59.000Z</time>
      </trkpt>
      <trkpt lat="44.11161" lon="3.13935">
        <ele>430.39999389648</ele>
        <time>2020-10-03T15:56:00.000Z</time>
      </trkpt>
      <trkpt lat="44.11153" lon="3.13927">
        <ele>429.20001220703</ele>
        <time>2020-10-03T15:56:01.000Z</time>
      </trkpt>
      <trkpt lat="44.11144" lon="3.13918">
        <ele>427.79998779297</ele>
        <time>2020-10-03T15:56:02.000Z</time>
      </trkpt>
      <trkpt lat="44.11135" lon="3.1391">
        <ele>426.60000610352</ele>
        <time>2020-10-03T15:56:03.000Z</time>
      </trkpt>
      <trkpt lat="44.11125" lon="3.13901">
        <ele>425.60000610352</ele>
        <time>2020-10-03T15:56:04.000Z</time>
      </trkpt>
      <trkpt lat="44.11115" lon="3.13893">
        <ele>424.39999389648</ele>
        <time>2020-10-03T15:56:05.000Z</time>
      </trkpt>
      <trkpt lat="44.11104" lon="3.13884">
        <ele>423.20001220703</ele>
        <time>2020-10-03T15:56:06.000Z</time>
      </trkpt>
      <trkpt lat="44.11094" lon="3.13876">
        <ele>420.79998779297</ele>
        <time>2020-10-03T15:56:07.000Z</time>
      </trkpt>
      <trkpt lat="44.11084" lon="3.1387">
        <ele>419.60000610352</ele>
        <time>2020-10-03T15:56:08.000Z</time>
      </trkpt>
      <trkpt lat="44.1107" lon="3.13864">
        <ele>417.79998779297</ele>
        <time>2020-10-03T15:56:10.000Z</time>
      </trkpt>
      <trkpt lat="44.11066" lon="3.13862">
        <ele>416.79998779297</ele>
        <time>2020-10-03T15:56:11.000Z</time>
      </trkpt>
      <trkpt lat="44.11064" lon="3.13862">
        <ele>416.20001220703</ele>
        <time>2020-10-03T15:56:12.000Z</time>
      </trkpt>
      <trkpt lat="44.11062" lon="3.13863">
        <ele>415</ele>
        <time>2020-10-03T15:56:13.000Z</time>
      </trkpt>
      <trkpt lat="44.11061" lon="3.13864">
        <ele>413.79998779297</ele>
        <time>2020-10-03T15:56:14.000Z</time>
      </trkpt>
      <trkpt lat="44.11061" lon="3.13865">
        <ele>412.39999389648</ele>
        <time>2020-10-03T15:56:15.000Z</time>
      </trkpt>
      <trkpt lat="44.11061" lon="3.13866">
        <ele>411</ele>
        <time>2020-10-03T15:56:16.000Z</time>
      </trkpt>
      <trkpt lat="44.11061" lon="3.13867">
        <ele>409.79998779297</ele>
        <time>2020-10-03T15:56:17.000Z</time>
      </trkpt>
    </trkseg>
  </trk>
  <trk>
    <name><![CDATA[MILLAU J2 - Aguessac  Run1]]></name>
    <trkseg>
      <trkpt lat="44.12287" lon="3.11857">
        <ele>837.79998779297</ele>
        <time>2020-10-03T08:32:59.000Z</time>
      </trkpt>
      <trkpt lat="44.12289" lon="3.11857">
        <ele>834.20001220703</ele>
        <time>2020-10-03T08:33:00.000Z</time>
      </trkpt>
      <trkpt lat="44.12289" lon="3.11858">
        <ele>832.40002441406</ele>
        <time>2020-10-03T08:33:01.000Z</time>
      </trkpt>
      <trkpt lat="44.12289" lon="3.11857">
        <ele>831.20001220703</ele>
        <time>2020-10-03T08:33:02.000Z</time>
      </trkpt>
      <trkpt lat="44.12291" lon="3.11864">
        <ele>830.59997558594</ele>
        <time>2020-10-03T08:33:04.000Z</time>
      </trkpt>
      <trkpt lat="44.12293" lon="3.11862">
        <ele>830.40002441406</ele>
        <time>2020-10-03T08:33:05.000Z</time>
      </trkpt>
      <trkpt lat="44.12296" lon="3.1186">
        <ele>830.40002441406</ele>
        <time>2020-10-03T08:33:06.000Z</time>
      </trkpt>
      <trkpt lat="44.12309" lon="3.11849">
        <ele>830.40002441406</ele>
        <time>2020-10-03T08:33:12.000Z</time>
      </trkpt>
      <trkpt lat="44.1232" lon="3.11849">
        <ele>830.40002441406</ele>
        <time>2020-10-03T08:33:16.000Z</time>
      </trkpt>
      <trkpt lat="44.12337" lon="3.11865">
        <ele>830.40002441406</ele>
        <time>2020-10-03T08:33:21.000Z</time>
      </trkpt>
      <trkpt lat="44.12341" lon="3.11866">
        <ele>830.40002441406</ele>
        <time>2020-10-03T08:33:22.000Z</time>
      </trkpt>
      <trkpt lat="44.12349" lon="3.11866">
        <ele>830.20001220703</ele>
        <time>2020-10-03T08:33:25.000Z</time>
      </trkpt>
      <trkpt lat="44.12358" lon="3.11862">
        <ele>829.20001220703</ele>
        <time>2020-10-03T08:33:28.000Z</time>
      </trkpt>
      <trkpt lat="44.12365" lon="3.11865">
        <ele>828.79998779297</ele>
        <time>2020-10-03T08:33:30.000Z</time>
      </trkpt>
      <trkpt lat="44.12368" lon="3.11868">
        <ele>828.79998779297</ele>
        <time>2020-10-03T08:33:31.000Z</time>
      </trkpt>
      <trkpt lat="44.12379" lon="3.11882">
        <ele>828</ele>
        <time>2020-10-03T08:33:36.000Z</time>
      </trkpt>
      <trkpt lat="44.12381" lon="3.11882">
        <ele>827.79998779297</ele>
        <time>2020-10-03T08:33:37.000Z</time>
      </trkpt>
      <trkpt lat="44.1239" lon="3.11883">
        <ele>826.59997558594</ele>
        <time>2020-10-03T08:33:40.000Z</time>
      </trkpt>
      <trkpt lat="44.12397" lon="3.11882">
        <ele>825.40002441406</ele>
        <time>2020-10-03T08:33:42.000Z</time>
      </trkpt>
      <trkpt lat="44.12402" lon="3.11881">
        <ele>824.59997558594</ele>
        <time>2020-10-03T08:33:43.000Z</time>
      </trkpt>
      <trkpt lat="44.12406" lon="3.11879">
        <ele>824</ele>
        <time>2020-10-03T08:33:44.000Z</time>
      </trkpt>
      <trkpt lat="44.12417" lon="3.11875">
        <ele>822.79998779297</ele>
        <time>2020-10-03T08:33:46.000Z</time>
      </trkpt>
      <trkpt lat="44.12428" lon="3.11871">
        <ele>821.59997558594</ele>
        <time>2020-10-03T08:33:48.000Z</time>
      </trkpt>
      <trkpt lat="44.1244" lon="3.11868">
        <ele>820.40002441406</ele>
        <time>2020-10-03T08:33:50.000Z</time>
      </trkpt>
      <trkpt lat="44.12446" lon="3.11867">
        <ele>818.79998779297</ele>
        <time>2020-10-03T08:33:51.000Z</time>
      </trkpt>
      <trkpt lat="44.12461" lon="3.11865">
        <ele>817.20001220703</ele>
        <time>2020-10-03T08:33:53.000Z</time>
      </trkpt>
      <trkpt lat="44.12468" lon="3.11866">
        <ele>816.20001220703</ele>
        <time>2020-10-03T08:33:54.000Z</time>
      </trkpt>
      <trkpt lat="44.12482" lon="3.11869">
        <ele>814.20001220703</ele>
        <time>2020-10-03T08:33:56.000Z</time>
      </trkpt>
      <trkpt lat="44.12495" lon="3.11875">
        <ele>813</ele>
        <time>2020-10-03T08:33:58.000Z</time>
      </trkpt>
      <trkpt lat="44.12507" lon="3.11881">
        <ele>811.79998779297</ele>
        <time>2020-10-03T08:34:00.000Z</time>
      </trkpt>
      <trkpt lat="44.12512" lon="3.11884">
        <ele>811.20001220703</ele>
        <time>2020-10-03T08:34:01.000Z</time>
      </trkpt>
      <trkpt lat="44.12522" lon="3.1189">
        <ele>810.79998779297</ele>
        <time>2020-10-03T08:34:03.000Z</time>
      </trkpt>
      <trkpt lat="44.1256" lon="3.11915">
        <ele>810.79998779297</ele>
        <time>2020-10-03T08:34:12.000Z</time>
      </trkpt>
      <trkpt lat="44.12588" lon="3.11936">
        <ele>811.20001220703</ele>
        <time>2020-10-03T08:34:20.000Z</time>
      </trkpt>
      <trkpt lat="44.12614" lon="3.11949">
        <ele>811.79998779297</ele>
        <time>2020-10-03T08:34:28.000Z</time>
      </trkpt>
      <trkpt lat="44.12621" lon="3.11954">
        <ele>811.79998779297</ele>
        <time>2020-10-03T08:34:30.000Z</time>
      </trkpt>
      <trkpt lat="44.12627" lon="3.11959">
        <ele>812</ele>
        <time>2020-10-03T08:34:32.000Z</time>
      </trkpt>
      <trkpt lat="44.1263" lon="3.11961">
        <ele>812</ele>
        <time>2020-10-03T08:34:33.000Z</time>
      </trkpt>
      <trkpt lat="44.12632" lon="3.11964">
        <ele>812</ele>
        <time>2020-10-03T08:34:34.000Z</time>
      </trkpt>
      <trkpt lat="44.12639" lon="3.11968">
        <ele>812.20001220703</ele>
        <time>2020-10-03T08:34:36.000Z</time>
      </trkpt>
      <trkpt lat="44.12642" lon="3.11971">
        <ele>812.20001220703</ele>
        <time>2020-10-03T08:34:37.000Z</time>
      </trkpt>
      <trkpt lat="44.12645" lon="3.11973">
        <ele>812.20001220703</ele>
        <time>2020-10-03T08:34:38.000Z</time>
      </trkpt>
      <trkpt lat="44.12652" lon="3.11977">
        <ele>812.40002441406</ele>
        <time>2020-10-03T08:34:40.000Z</time>
      </trkpt>
      <trkpt lat="44.12659" lon="3.11981">
        <ele>812.40002441406</ele>
        <time>2020-10-03T08:34:42.000Z</time>
      </trkpt>
      <trkpt lat="44.12666" lon="3.11984">
        <ele>812.40002441406</ele>
        <time>2020-10-03T08:34:44.000Z</time>
      </trkpt>
      <trkpt lat="44.12674" lon="3.11988">
        <ele>812.40002441406</ele>
        <time>2020-10-03T08:34:46.000Z</time>
      </trkpt>
      <trkpt lat="44.12682" lon="3.11992">
        <ele>812.40002441406</ele>
        <time>2020-10-03T08:34:48.000Z</time>
      </trkpt>
      <trkpt lat="44.12689" lon="3.11995">
        <ele>812.40002441406</ele>
        <time>2020-10-03T08:34:50.000Z</time>
      </trkpt>
      <trkpt lat="44.12696" lon="3.11998">
        <ele>812.40002441406</ele>
        <time>2020-10-03T08:34:52.000Z</time>
      </trkpt>
      <trkpt lat="44.12699" lon="3.12">
        <ele>812.40002441406</ele>
        <time>2020-10-03T08:34:53.000Z</time>
      </trkpt>
      <trkpt lat="44.12702" lon="3.12001">
        <ele>812.40002441406</ele>
        <time>2020-10-03T08:34:54.000Z</time>
      </trkpt>
      <trkpt lat="44.12708" lon="3.12004">
        <ele>812.40002441406</ele>
        <time>2020-10-03T08:34:56.000Z</time>
      </trkpt>
      <trkpt lat="44.12715" lon="3.12006">
        <ele>812.59997558594</ele>
        <time>2020-10-03T08:34:58.000Z</time>
      </trkpt>
      <trkpt lat="44.12719" lon="3.12007">
        <ele>812.59997558594</ele>
        <time>2020-10-03T08:34:59.000Z</time>
      </trkpt>
      <trkpt lat="44.12723" lon="3.12007">
        <ele>812.79998779297</ele>
        <time>2020-10-03T08:35:00.000Z</time>
      </trkpt>
      <trkpt lat="44.12731" lon="3.12009">
        <ele>812.79998779297</ele>
        <time>2020-10-03T08:35:02.000Z</time>
      </trkpt>
      <trkpt lat="44.12738" lon="3.1201">
        <ele>812.79998779297</ele>
        <time>2020-10-03T08:35:04.000Z</time>
      </trkpt>
      <trkpt lat="44.12742" lon="3.12011">
        <ele>812.79998779297</ele>
        <time>2020-10-03T08:35:05.000Z</time>
      </trkpt>
      <trkpt lat="44.12746" lon="3.12013">
        <ele>812.79998779297</ele>
        <time>2020-10-03T08:35:06.000Z</time>
      </trkpt>
      <trkpt lat="44.12754" lon="3.12015">
        <ele>813</ele>
        <time>2020-10-03T08:35:08.000Z</time>
      </trkpt>
      <trkpt lat="44.12761" lon="3.12018">
        <ele>813</ele>
        <time>2020-10-03T08:35:10.000Z</time>
      </trkpt>
      <trkpt lat="44.12768" lon="3.12021">
        <ele>813.40002441406</ele>
        <time>2020-10-03T08:35:12.000Z</time>
      </trkpt>
      <trkpt lat="44.12775" lon="3.12025">
        <ele>813.59997558594</ele>
        <time>2020-10-03T08:35:14.000Z</time>
      </trkpt>
      <trkpt lat="44.12782" lon="3.12029">
        <ele>814.20001220703</ele>
        <time>2020-10-03T08:35:16.000Z</time>
      </trkpt>
      <trkpt lat="44.12789" lon="3.12033">
        <ele>814.59997558594</ele>
        <time>2020-10-03T08:35:18.000Z</time>
      </trkpt>
      <trkpt lat="44.12795" lon="3.12036">
        <ele>814.79998779297</ele>
        <time>2020-10-03T08:35:20.000Z</time>
      </trkpt>
      <trkpt lat="44.12801" lon="3.1204">
        <ele>815</ele>
        <time>2020-10-03T08:35:22.000Z</time>
      </trkpt>
      <trkpt lat="44.12806" lon="3.12044">
        <ele>815</ele>
        <time>2020-10-03T08:35:24.000Z</time>
      </trkpt>
      <trkpt lat="44.12811" lon="3.12048">
        <ele>815.20001220703</ele>
        <time>2020-10-03T08:35:26.000Z</time>
      </trkpt>
      <trkpt lat="44.12817" lon="3.12053">
        <ele>815.40002441406</ele>
        <time>2020-10-03T08:35:28.000Z</time>
      </trkpt>
      <trkpt lat="44.12825" lon="3.1206">
        <ele>815.59997558594</ele>
        <time>2020-10-03T08:35:30.000Z</time>
      </trkpt>
      <trkpt lat="44.12832" lon="3.12067">
        <ele>815.59997558594</ele>
        <time>2020-10-03T08:35:32.000Z</time>
      </trkpt>
      <trkpt lat="44.1284" lon="3.12073">
        <ele>815.79998779297</ele>
        <time>2020-10-03T08:35:34.000Z</time>
      </trkpt>
      <trkpt lat="44.12848" lon="3.12079">
        <ele>815.79998779297</ele>
        <time>2020-10-03T08:35:36.000Z</time>
      </trkpt>
      <trkpt lat="44.12855" lon="3.12085">
        <ele>815.79998779297</ele>
        <time>2020-10-03T08:35:38.000Z</time>
      </trkpt>
      <trkpt lat="44.12864" lon="3.12092">
        <ele>816</ele>
        <time>2020-10-03T08:35:40.000Z</time>
      </trkpt>
      <trkpt lat="44.12872" lon="3.12099">
        <ele>816</ele>
        <time>2020-10-03T08:35:42.000Z</time>
      </trkpt>
      <trkpt lat="44.12881" lon="3.12105">
        <ele>816</ele>
        <time>2020-10-03T08:35:44.000Z</time>
      </trkpt>
      <trkpt lat="44.12889" lon="3.12111">
        <ele>816</ele>
        <time>2020-10-03T08:35:46.000Z</time>
      </trkpt>
      <trkpt lat="44.12897" lon="3.12117">
        <ele>815.79998779297</ele>
        <time>2020-10-03T08:35:48.000Z</time>
      </trkpt>
      <trkpt lat="44.12905" lon="3.12123">
        <ele>815.79998779297</ele>
        <time>2020-10-03T08:35:50.000Z</time>
      </trkpt>
      <trkpt lat="44.12912" lon="3.12129">
        <ele>815.79998779297</ele>
        <time>2020-10-03T08:35:52.000Z</time>
      </trkpt>
      <trkpt lat="44.1292" lon="3.12136">
        <ele>816</ele>
        <time>2020-10-03T08:35:54.000Z</time>
      </trkpt>
      <trkpt lat="44.12923" lon="3.12139">
        <ele>816</ele>
        <time>2020-10-03T08:35:55.000Z</time>
      </trkpt>
      <trkpt lat="44.12927" lon="3.12142">
        <ele>816.20001220703</ele>
        <time>2020-10-03T08:35:56.000Z</time>
      </trkpt>
      <trkpt lat="44.12936" lon="3.12148">
        <ele>816</ele>
        <time>2020-10-03T08:35:58.000Z</time>
      </trkpt>
      <trkpt lat="44.12945" lon="3.12153">
        <ele>816.40002441406</ele>
        <time>2020-10-03T08:36:00.000Z</time>
      </trkpt>
      <trkpt lat="44.12953" lon="3.12157">
        <ele>816.40002441406</ele>
        <time>2020-10-03T08:36:02.000Z</time>
      </trkpt>
      <trkpt lat="44.12961" lon="3.12162">
        <ele>816.59997558594</ele>
        <time>2020-10-03T08:36:04.000Z</time>
      </trkpt>
      <trkpt lat="44.12968" lon="3.12168">
        <ele>816.59997558594</ele>
        <time>2020-10-03T08:36:06.000Z</time>
      </trkpt>
      <trkpt lat="44.12975" lon="3.12173">
        <ele>816.59997558594</ele>
        <time>2020-10-03T08:36:08.000Z</time>
      </trkpt>
      <trkpt lat="44.12979" lon="3.12176">
        <ele>816.79998779297</ele>
        <time>2020-10-03T08:36:09.000Z</time>
      </trkpt>
      <trkpt lat="44.12982" lon="3.1218">
        <ele>816.79998779297</ele>
        <time>2020-10-03T08:36:10.000Z</time>
      </trkpt>
      <trkpt lat="44.12988" lon="3.12187">
        <ele>817</ele>
        <time>2020-10-03T08:36:12.000Z</time>
      </trkpt>
      <trkpt lat="44.12992" lon="3.1219">
        <ele>817.20001220703</ele>
        <time>2020-10-03T08:36:13.000Z</time>
      </trkpt>
      <trkpt lat="44.12995" lon="3.12194">
        <ele>817.20001220703</ele>
        <time>2020-10-03T08:36:14.000Z</time>
      </trkpt>
      <trkpt lat="44.13002" lon="3.12202">
        <ele>817.40002441406</ele>
        <time>2020-10-03T08:36:16.000Z</time>
      </trkpt>
      <trkpt lat="44.1301" lon="3.1221">
        <ele>817.40002441406</ele>
        <time>2020-10-03T08:36:18.000Z</time>
      </trkpt>
      <trkpt lat="44.13017" lon="3.12218">
        <ele>817.59997558594</ele>
        <time>2020-10-03T08:36:20.000Z</time>
      </trkpt>
      <trkpt lat="44.13023" lon="3.12226">
        <ele>817.79998779297</ele>
        <time>2020-10-03T08:36:22.000Z</time>
      </trkpt>
      <trkpt lat="44.13028" lon="3.12234">
        <ele>818</ele>
        <time>2020-10-03T08:36:24.000Z</time>
      </trkpt>
      <trkpt lat="44.13033" lon="3.12242">
        <ele>818.20001220703</ele>
        <time>2020-10-03T08:36:26.000Z</time>
      </trkpt>
      <trkpt lat="44.13038" lon="3.12249">
        <ele>818.20001220703</ele>
        <time>2020-10-03T08:36:28.000Z</time>
      </trkpt>
      <trkpt lat="44.13044" lon="3.12255">
        <ele>818.59997558594</ele>
        <time>2020-10-03T08:36:30.000Z</time>
      </trkpt>
      <trkpt lat="44.1305" lon="3.1226">
        <ele>819.20001220703</ele>
        <time>2020-10-03T08:36:32.000Z</time>
      </trkpt>
      <trkpt lat="44.13057" lon="3.12263">
        <ele>819.40002441406</ele>
        <time>2020-10-03T08:36:34.000Z</time>
      </trkpt>
      <trkpt lat="44.13064" lon="3.12265">
        <ele>819.59997558594</ele>
        <time>2020-10-03T08:36:36.000Z</time>
      </trkpt>
      <trkpt lat="44.13071" lon="3.12266">
        <ele>820</ele>
        <time>2020-10-03T08:36:38.000Z</time>
      </trkpt>
      <trkpt lat="44.13075" lon="3.12267">
        <ele>820.20001220703</ele>
        <time>2020-10-03T08:36:39.000Z</time>
      </trkpt>
      <trkpt lat="44.13079" lon="3.12268">
        <ele>820.20001220703</ele>
        <time>2020-10-03T08:36:40.000Z</time>
      </trkpt>
      <trkpt lat="44.13087" lon="3.1227">
        <ele>820.79998779297</ele>
        <time>2020-10-03T08:36:42.000Z</time>
      </trkpt>
      <trkpt lat="44.1309" lon="3.1227">
        <ele>821.20001220703</ele>
        <time>2020-10-03T08:36:43.000Z</time>
      </trkpt>
      <trkpt lat="44.13094" lon="3.12271">
        <ele>821.40002441406</ele>
        <time>2020-10-03T08:36:44.000Z</time>
      </trkpt>
      <trkpt lat="44.13101" lon="3.12274">
        <ele>821.59997558594</ele>
        <time>2020-10-03T08:36:46.000Z</time>
      </trkpt>
      <trkpt lat="44.13104" lon="3.12275">
        <ele>821.79998779297</ele>
        <time>2020-10-03T08:36:47.000Z</time>
      </trkpt>
      <trkpt lat="44.13107" lon="3.12276">
        <ele>821.79998779297</ele>
        <time>2020-10-03T08:36:48.000Z</time>
      </trkpt>
      <trkpt lat="44.13112" lon="3.12279">
        <ele>822.20001220703</ele>
        <time>2020-10-03T08:36:50.000Z</time>
      </trkpt>
      <trkpt lat="44.13115" lon="3.1228">
        <ele>822.40002441406</ele>
        <time>2020-10-03T08:36:51.000Z</time>
      </trkpt>
      <trkpt lat="44.13118" lon="3.12281">
        <ele>822.59997558594</ele>
        <time>2020-10-03T08:36:52.000Z</time>
      </trkpt>
      <trkpt lat="44.13124" lon="3.12284">
        <ele>823</ele>
        <time>2020-10-03T08:36:54.000Z</time>
      </trkpt>
      <trkpt lat="44.13129" lon="3.12287">
        <ele>823.40002441406</ele>
        <time>2020-10-03T08:36:56.000Z</time>
      </trkpt>
      <trkpt lat="44.13132" lon="3.12289">
        <ele>823.59997558594</ele>
        <time>2020-10-03T08:36:57.000Z</time>
      </trkpt>
      <trkpt lat="44.13135" lon="3.12291">
        <ele>823.79998779297</ele>
        <time>2020-10-03T08:36:58.000Z</time>
      </trkpt>
      <trkpt lat="44.13139" lon="3.12296">
        <ele>824.20001220703</ele>
        <time>2020-10-03T08:37:00.000Z</time>
      </trkpt>
      <trkpt lat="44.13144" lon="3.12301">
        <ele>824.59997558594</ele>
        <time>2020-10-03T08:37:02.000Z</time>
      </trkpt>
      <trkpt lat="44.13149" lon="3.12306">
        <ele>825</ele>
        <time>2020-10-03T08:37:04.000Z</time>
      </trkpt>
      <trkpt lat="44.13154" lon="3.12311">
        <ele>825.59997558594</ele>
        <time>2020-10-03T08:37:06.000Z</time>
      </trkpt>
      <trkpt lat="44.1316" lon="3.12315">
        <ele>826</ele>
        <time>2020-10-03T08:37:08.000Z</time>
      </trkpt>
      <trkpt lat="44.13166" lon="3.12319">
        <ele>826.59997558594</ele>
        <time>2020-10-03T08:37:10.000Z</time>
      </trkpt>
      <trkpt lat="44.13172" lon="3.12322">
        <ele>827.40002441406</ele>
        <time>2020-10-03T08:37:12.000Z</time>
      </trkpt>
      <trkpt lat="44.13178" lon="3.12325">
        <ele>827.79998779297</ele>
        <time>2020-10-03T08:37:14.000Z</time>
      </trkpt>
      <trkpt lat="44.13184" lon="3.12329">
        <ele>828.20001220703</ele>
        <time>2020-10-03T08:37:16.000Z</time>
      </trkpt>
      <trkpt lat="44.1319" lon="3.12332">
        <ele>828.40002441406</ele>
        <time>2020-10-03T08:37:18.000Z</time>
      </trkpt>
      <trkpt lat="44.13197" lon="3.12337">
        <ele>828.59997558594</ele>
        <time>2020-10-03T08:37:20.000Z</time>
      </trkpt>
      <trkpt lat="44.13204" lon="3.12341">
        <ele>828.79998779297</ele>
        <time>2020-10-03T08:37:22.000Z</time>
      </trkpt>
      <trkpt lat="44.13208" lon="3.12343">
        <ele>828.79998779297</ele>
        <time>2020-10-03T08:37:23.000Z</time>
      </trkpt>
      <trkpt lat="44.13212" lon="3.12345">
        <ele>828.79998779297</ele>
        <time>2020-10-03T08:37:24.000Z</time>
      </trkpt>
      <trkpt lat="44.13219" lon="3.12351">
        <ele>829</ele>
        <time>2020-10-03T08:37:26.000Z</time>
      </trkpt>
      <trkpt lat="44.13223" lon="3.12353">
        <ele>829</ele>
        <time>2020-10-03T08:37:27.000Z</time>
      </trkpt>
      <trkpt lat="44.13227" lon="3.12355">
        <ele>829</ele>
        <time>2020-10-03T08:37:28.000Z</time>
      </trkpt>
      <trkpt lat="44.13235" lon="3.12359">
        <ele>829.20001220703</ele>
        <time>2020-10-03T08:37:30.000Z</time>
      </trkpt>
      <trkpt lat="44.13244" lon="3.12364">
        <ele>829.20001220703</ele>
        <time>2020-10-03T08:37:32.000Z</time>
      </trkpt>
      <trkpt lat="44.13252" lon="3.12368">
        <ele>829.20001220703</ele>
        <time>2020-10-03T08:37:34.000Z</time>
      </trkpt>
      <trkpt lat="44.13257" lon="3.1237">
        <ele>829.20001220703</ele>
        <time>2020-10-03T08:37:35.000Z</time>
      </trkpt>
      <trkpt lat="44.13261" lon="3.12371">
        <ele>829.40002441406</ele>
        <time>2020-10-03T08:37:36.000Z</time>
      </trkpt>
      <trkpt lat="44.1327" lon="3.12373">
        <ele>829.40002441406</ele>
        <time>2020-10-03T08:37:38.000Z</time>
      </trkpt>
      <trkpt lat="44.1328" lon="3.12374">
        <ele>829.59997558594</ele>
        <time>2020-10-03T08:37:40.000Z</time>
      </trkpt>
      <trkpt lat="44.1329" lon="3.12374">
        <ele>829.59997558594</ele>
        <time>2020-10-03T08:37:42.000Z</time>
      </trkpt>
      <trkpt lat="44.13301" lon="3.12374">
        <ele>829.59997558594</ele>
        <time>2020-10-03T08:37:44.000Z</time>
      </trkpt>
      <trkpt lat="44.13312" lon="3.12374">
        <ele>829.40002441406</ele>
        <time>2020-10-03T08:37:46.000Z</time>
      </trkpt>
      <trkpt lat="44.13323" lon="3.12374">
        <ele>829.40002441406</ele>
        <time>2020-10-03T08:37:48.000Z</time>
      </trkpt>
      <trkpt lat="44.13332" lon="3.12373">
        <ele>829.40002441406</ele>
        <time>2020-10-03T08:37:50.000Z</time>
      </trkpt>
      <trkpt lat="44.13341" lon="3.12374">
        <ele>829.40002441406</ele>
        <time>2020-10-03T08:37:52.000Z</time>
      </trkpt>
      <trkpt lat="44.1335" lon="3.12374">
        <ele>829.40002441406</ele>
        <time>2020-10-03T08:37:54.000Z</time>
      </trkpt>
      <trkpt lat="44.13359" lon="3.12373">
        <ele>829.40002441406</ele>
        <time>2020-10-03T08:37:56.000Z</time>
      </trkpt>
      <trkpt lat="44.13368" lon="3.1237">
        <ele>829.40002441406</ele>
        <time>2020-10-03T08:37:58.000Z</time>
      </trkpt>
      <trkpt lat="44.13378" lon="3.12367">
        <ele>829.79998779297</ele>
        <time>2020-10-03T08:38:00.000Z</time>
      </trkpt>
      <trkpt lat="44.13382" lon="3.12365">
        <ele>829.79998779297</ele>
        <time>2020-10-03T08:38:01.000Z</time>
      </trkpt>
      <trkpt lat="44.13387" lon="3.12364">
        <ele>830</ele>
        <time>2020-10-03T08:38:02.000Z</time>
      </trkpt>
      <trkpt lat="44.13397" lon="3.12361">
        <ele>830.20001220703</ele>
        <time>2020-10-03T08:38:04.000Z</time>
      </trkpt>
      <trkpt lat="44.13408" lon="3.1236">
        <ele>830.20001220703</ele>
        <time>2020-10-03T08:38:06.000Z</time>
      </trkpt>
      <trkpt lat="44.13418" lon="3.1236">
        <ele>830.40002441406</ele>
        <time>2020-10-03T08:38:08.000Z</time>
      </trkpt>
      <trkpt lat="44.13423" lon="3.12361">
        <ele>830.40002441406</ele>
        <time>2020-10-03T08:38:09.000Z</time>
      </trkpt>
      <trkpt lat="44.13428" lon="3.12363">
        <ele>830.40002441406</ele>
        <time>2020-10-03T08:38:10.000Z</time>
      </trkpt>
      <trkpt lat="44.13433" lon="3.12366">
        <ele>830.40002441406</ele>
        <time>2020-10-03T08:38:11.000Z</time>
      </trkpt>
      <trkpt lat="44.13437" lon="3.12369">
        <ele>830.40002441406</ele>
        <time>2020-10-03T08:38:12.000Z</time>
      </trkpt>
      <trkpt lat="44.13446" lon="3.12378">
        <ele>830.40002441406</ele>
        <time>2020-10-03T08:38:14.000Z</time>
      </trkpt>
      <trkpt lat="44.13452" lon="3.12388">
        <ele>830.20001220703</ele>
        <time>2020-10-03T08:38:16.000Z</time>
      </trkpt>
      <trkpt lat="44.13456" lon="3.12399">
        <ele>830.20001220703</ele>
        <time>2020-10-03T08:38:18.000Z</time>
      </trkpt>
      <trkpt lat="44.13458" lon="3.1241">
        <ele>830.20001220703</ele>
        <time>2020-10-03T08:38:20.000Z</time>
      </trkpt>
      <trkpt lat="44.13458" lon="3.12416">
        <ele>830.20001220703</ele>
        <time>2020-10-03T08:38:21.000Z</time>
      </trkpt>
      <trkpt lat="44.13458" lon="3.12422">
        <ele>830.20001220703</ele>
        <time>2020-10-03T08:38:22.000Z</time>
      </trkpt>
      <trkpt lat="44.13458" lon="3.12428">
        <ele>830.20001220703</ele>
        <time>2020-10-03T08:38:23.000Z</time>
      </trkpt>
      <trkpt lat="44.13458" lon="3.12434">
        <ele>830.20001220703</ele>
        <time>2020-10-03T08:38:24.000Z</time>
      </trkpt>
      <trkpt lat="44.13457" lon="3.12444">
        <ele>830.79998779297</ele>
        <time>2020-10-03T08:38:26.000Z</time>
      </trkpt>
      <trkpt lat="44.13456" lon="3.12448">
        <ele>831</ele>
        <time>2020-10-03T08:38:27.000Z</time>
      </trkpt>
      <trkpt lat="44.13456" lon="3.12453">
        <ele>831.40002441406</ele>
        <time>2020-10-03T08:38:28.000Z</time>
      </trkpt>
      <trkpt lat="44.13455" lon="3.12457">
        <ele>831.79998779297</ele>
        <time>2020-10-03T08:38:29.000Z</time>
      </trkpt>
      <trkpt lat="44.13455" lon="3.12462">
        <ele>832</ele>
        <time>2020-10-03T08:38:30.000Z</time>
      </trkpt>
      <trkpt lat="44.13453" lon="3.1247">
        <ele>832.20001220703</ele>
        <time>2020-10-03T08:38:32.000Z</time>
      </trkpt>
      <trkpt lat="44.13451" lon="3.12478">
        <ele>832.40002441406</ele>
        <time>2020-10-03T08:38:34.000Z</time>
      </trkpt>
      <trkpt lat="44.13449" lon="3.12487">
        <ele>832.59997558594</ele>
        <time>2020-10-03T08:38:36.000Z</time>
      </trkpt>
      <trkpt lat="44.13448" lon="3.12495">
        <ele>832.79998779297</ele>
        <time>2020-10-03T08:38:38.000Z</time>
      </trkpt>
      <trkpt lat="44.13447" lon="3.12503">
        <ele>833.40002441406</ele>
        <time>2020-10-03T08:38:40.000Z</time>
      </trkpt>
      <trkpt lat="44.13447" lon="3.12511">
        <ele>834</ele>
        <time>2020-10-03T08:38:42.000Z</time>
      </trkpt>
      <trkpt lat="44.13446" lon="3.12518">
        <ele>834.40002441406</ele>
        <time>2020-10-03T08:38:44.000Z</time>
      </trkpt>
      <trkpt lat="44.13447" lon="3.12526">
        <ele>834.59997558594</ele>
        <time>2020-10-03T08:38:46.000Z</time>
      </trkpt>
      <trkpt lat="44.13447" lon="3.12534">
        <ele>834.59997558594</ele>
        <time>2020-10-03T08:38:48.000Z</time>
      </trkpt>
      <trkpt lat="44.13447" lon="3.12538">
        <ele>835</ele>
        <time>2020-10-03T08:38:49.000Z</time>
      </trkpt>
      <trkpt lat="44.13448" lon="3.12542">
        <ele>835.20001220703</ele>
        <time>2020-10-03T08:38:50.000Z</time>
      </trkpt>
      <trkpt lat="44.13449" lon="3.1255">
        <ele>835.59997558594</ele>
        <time>2020-10-03T08:38:52.000Z</time>
      </trkpt>
      <trkpt lat="44.13449" lon="3.12553">
        <ele>835.79998779297</ele>
        <time>2020-10-03T08:38:53.000Z</time>
      </trkpt>
      <trkpt lat="44.1345" lon="3.12557">
        <ele>836</ele>
        <time>2020-10-03T08:38:54.000Z</time>
      </trkpt>
      <trkpt lat="44.13451" lon="3.12565">
        <ele>836.40002441406</ele>
        <time>2020-10-03T08:38:56.000Z</time>
      </trkpt>
      <trkpt lat="44.13453" lon="3.12573">
        <ele>836.59997558594</ele>
        <time>2020-10-03T08:38:58.000Z</time>
      </trkpt>
      <trkpt lat="44.13455" lon="3.1258">
        <ele>836.79998779297</ele>
        <time>2020-10-03T08:39:00.000Z</time>
      </trkpt>
      <trkpt lat="44.13456" lon="3.12584">
        <ele>837</ele>
        <time>2020-10-03T08:39:01.000Z</time>
      </trkpt>
      <trkpt lat="44.13457" lon="3.12588">
        <ele>837.40002441406</ele>
        <time>2020-10-03T08:39:02.000Z</time>
      </trkpt>
      <trkpt lat="44.13458" lon="3.12592">
        <ele>837.40002441406</ele>
        <time>2020-10-03T08:39:03.000Z</time>
      </trkpt>
      <trkpt lat="44.1346" lon="3.12596">
        <ele>837.59997558594</ele>
        <time>2020-10-03T08:39:04.000Z</time>
      </trkpt>
      <trkpt lat="44.13462" lon="3.12604">
        <ele>838</ele>
        <time>2020-10-03T08:39:06.000Z</time>
      </trkpt>
      <trkpt lat="44.13464" lon="3.12607">
        <ele>838.20001220703</ele>
        <time>2020-10-03T08:39:07.000Z</time>
      </trkpt>
      <trkpt lat="44.13466" lon="3.12611">
        <ele>838.40002441406</ele>
        <time>2020-10-03T08:39:08.000Z</time>
      </trkpt>
      <trkpt lat="44.1347" lon="3.12618">
        <ele>838.59997558594</ele>
        <time>2020-10-03T08:39:10.000Z</time>
      </trkpt>
      <trkpt lat="44.13475" lon="3.12624">
        <ele>839.40002441406</ele>
        <time>2020-10-03T08:39:12.000Z</time>
      </trkpt>
      <trkpt lat="44.1348" lon="3.1263">
        <ele>839.79998779297</ele>
        <time>2020-10-03T08:39:14.000Z</time>
      </trkpt>
      <trkpt lat="44.13486" lon="3.12634">
        <ele>840.20001220703</ele>
        <time>2020-10-03T08:39:16.000Z</time>
      </trkpt>
      <trkpt lat="44.13491" lon="3.12639">
        <ele>840.40002441406</ele>
        <time>2020-10-03T08:39:18.000Z</time>
      </trkpt>
      <trkpt lat="44.13493" lon="3.12641">
        <ele>840.59997558594</ele>
        <time>2020-10-03T08:39:19.000Z</time>
      </trkpt>
      <trkpt lat="44.13495" lon="3.12643">
        <ele>840.59997558594</ele>
        <time>2020-10-03T08:39:20.000Z</time>
      </trkpt>
      <trkpt lat="44.135" lon="3.12648">
        <ele>841</ele>
        <time>2020-10-03T08:39:22.000Z</time>
      </trkpt>
      <trkpt lat="44.13506" lon="3.12653">
        <ele>841.40002441406</ele>
        <time>2020-10-03T08:39:24.000Z</time>
      </trkpt>
      <trkpt lat="44.13508" lon="3.12656">
        <ele>841.59997558594</ele>
        <time>2020-10-03T08:39:25.000Z</time>
      </trkpt>
      <trkpt lat="44.13511" lon="3.12659">
        <ele>841.79998779297</ele>
        <time>2020-10-03T08:39:26.000Z</time>
      </trkpt>
      <trkpt lat="44.13516" lon="3.12666">
        <ele>842.20001220703</ele>
        <time>2020-10-03T08:39:28.000Z</time>
      </trkpt>
      <trkpt lat="44.13521" lon="3.12673">
        <ele>842.59997558594</ele>
        <time>2020-10-03T08:39:30.000Z</time>
      </trkpt>
      <trkpt lat="44.13523" lon="3.12677">
        <ele>842.79998779297</ele>
        <time>2020-10-03T08:39:31.000Z</time>
      </trkpt>
      <trkpt lat="44.13526" lon="3.1268">
        <ele>843</ele>
        <time>2020-10-03T08:39:32.000Z</time>
      </trkpt>
      <trkpt lat="44.13531" lon="3.12688">
        <ele>843</ele>
        <time>2020-10-03T08:39:34.000Z</time>
      </trkpt>
      <trkpt lat="44.13536" lon="3.12695">
        <ele>843.20001220703</ele>
        <time>2020-10-03T08:39:36.000Z</time>
      </trkpt>
      <trkpt lat="44.13541" lon="3.12702">
        <ele>843.40002441406</ele>
        <time>2020-10-03T08:39:38.000Z</time>
      </trkpt>
      <trkpt lat="44.13547" lon="3.12709">
        <ele>843.79998779297</ele>
        <time>2020-10-03T08:39:40.000Z</time>
      </trkpt>
      <trkpt lat="44.13552" lon="3.12716">
        <ele>844</ele>
        <time>2020-10-03T08:39:42.000Z</time>
      </trkpt>
      <trkpt lat="44.13558" lon="3.12722">
        <ele>844.20001220703</ele>
        <time>2020-10-03T08:39:44.000Z</time>
      </trkpt>
      <trkpt lat="44.13563" lon="3.12727">
        <ele>844.20001220703</ele>
        <time>2020-10-03T08:39:46.000Z</time>
      </trkpt>
      <trkpt lat="44.13565" lon="3.12729">
        <ele>844.20001220703</ele>
        <time>2020-10-03T08:39:47.000Z</time>
      </trkpt>
      <trkpt lat="44.13568" lon="3.12731">
        <ele>844.20001220703</ele>
        <time>2020-10-03T08:39:48.000Z</time>
      </trkpt>
      <trkpt lat="44.13573" lon="3.12735">
        <ele>844.20001220703</ele>
        <time>2020-10-03T08:39:50.000Z</time>
      </trkpt>
      <trkpt lat="44.13578" lon="3.12739">
        <ele>844.20001220703</ele>
        <time>2020-10-03T08:39:52.000Z</time>
      </trkpt>
      <trkpt lat="44.13584" lon="3.12743">
        <ele>844.20001220703</ele>
        <time>2020-10-03T08:39:54.000Z</time>
      </trkpt>
      <trkpt lat="44.1359" lon="3.12747">
        <ele>844</ele>
        <time>2020-10-03T08:39:56.000Z</time>
      </trkpt>
      <trkpt lat="44.13596" lon="3.1275">
        <ele>844</ele>
        <time>2020-10-03T08:39:58.000Z</time>
      </trkpt>
      <trkpt lat="44.13602" lon="3.12754">
        <ele>843.79998779297</ele>
        <time>2020-10-03T08:40:00.000Z</time>
      </trkpt>
      <trkpt lat="44.1361" lon="3.12757">
        <ele>843.40002441406</ele>
        <time>2020-10-03T08:40:02.000Z</time>
      </trkpt>
      <trkpt lat="44.13618" lon="3.1276">
        <ele>843.20001220703</ele>
        <time>2020-10-03T08:40:04.000Z</time>
      </trkpt>
      <trkpt lat="44.13623" lon="3.12761">
        <ele>843.20001220703</ele>
        <time>2020-10-03T08:40:05.000Z</time>
      </trkpt>
      <trkpt lat="44.13628" lon="3.12762">
        <ele>843.20001220703</ele>
        <time>2020-10-03T08:40:06.000Z</time>
      </trkpt>
      <trkpt lat="44.1364" lon="3.12764">
        <ele>842.59997558594</ele>
        <time>2020-10-03T08:40:08.000Z</time>
      </trkpt>
      <trkpt lat="44.13653" lon="3.12766">
        <ele>842.40002441406</ele>
        <time>2020-10-03T08:40:10.000Z</time>
      </trkpt>
      <trkpt lat="44.13659" lon="3.12767">
        <ele>842.20001220703</ele>
        <time>2020-10-03T08:40:11.000Z</time>
      </trkpt>
      <trkpt lat="44.13666" lon="3.12768">
        <ele>842</ele>
        <time>2020-10-03T08:40:12.000Z</time>
      </trkpt>
      <trkpt lat="44.13673" lon="3.12769">
        <ele>841.40002441406</ele>
        <time>2020-10-03T08:40:13.000Z</time>
      </trkpt>
      <trkpt lat="44.1368" lon="3.1277">
        <ele>841</ele>
        <time>2020-10-03T08:40:14.000Z</time>
      </trkpt>
      <trkpt lat="44.13692" lon="3.12772">
        <ele>840.40002441406</ele>
        <time>2020-10-03T08:40:16.000Z</time>
      </trkpt>
      <trkpt lat="44.13698" lon="3.12773">
        <ele>840</ele>
        <time>2020-10-03T08:40:17.000Z</time>
      </trkpt>
      <trkpt lat="44.13703" lon="3.12773">
        <ele>839.59997558594</ele>
        <time>2020-10-03T08:40:18.000Z</time>
      </trkpt>
      <trkpt lat="44.13714" lon="3.12775">
        <ele>839</ele>
        <time>2020-10-03T08:40:20.000Z</time>
      </trkpt>
      <trkpt lat="44.13725" lon="3.12776">
        <ele>838.20001220703</ele>
        <time>2020-10-03T08:40:22.000Z</time>
      </trkpt>
      <trkpt lat="44.1373" lon="3.12777">
        <ele>838</ele>
        <time>2020-10-03T08:40:23.000Z</time>
      </trkpt>
      <trkpt lat="44.13736" lon="3.12778">
        <ele>837.59997558594</ele>
        <time>2020-10-03T08:40:24.000Z</time>
      </trkpt>
      <trkpt lat="44.13748" lon="3.12781">
        <ele>837.20001220703</ele>
        <time>2020-10-03T08:40:26.000Z</time>
      </trkpt>
      <trkpt lat="44.13753" lon="3.12782">
        <ele>836.79998779297</ele>
        <time>2020-10-03T08:40:27.000Z</time>
      </trkpt>
      <trkpt lat="44.13758" lon="3.12782">
        <ele>836.59997558594</ele>
        <time>2020-10-03T08:40:28.000Z</time>
      </trkpt>
      <trkpt lat="44.13767" lon="3.12782">
        <ele>836.20001220703</ele>
        <time>2020-10-03T08:40:30.000Z</time>
      </trkpt>
      <trkpt lat="44.13771" lon="3.12783">
        <ele>835.59997558594</ele>
        <time>2020-10-03T08:40:31.000Z</time>
      </trkpt>
      <trkpt lat="44.13774" lon="3.12783">
        <ele>835.20001220703</ele>
        <time>2020-10-03T08:40:32.000Z</time>
      </trkpt>
      <trkpt lat="44.1378" lon="3.12783">
        <ele>834.79998779297</ele>
        <time>2020-10-03T08:40:34.000Z</time>
      </trkpt>
      <trkpt lat="44.13784" lon="3.12783">
        <ele>834.59997558594</ele>
        <time>2020-10-03T08:40:36.000Z</time>
      </trkpt>
      <trkpt lat="44.13785" lon="3.12783">
        <ele>834.59997558594</ele>
        <time>2020-10-03T08:40:37.000Z</time>
      </trkpt>
      <trkpt lat="44.13787" lon="3.12783">
        <ele>834.59997558594</ele>
        <time>2020-10-03T08:40:38.000Z</time>
      </trkpt>
      <trkpt lat="44.13788" lon="3.12782">
        <ele>834.59997558594</ele>
        <time>2020-10-03T08:40:40.000Z</time>
      </trkpt>
      <trkpt lat="44.13789" lon="3.12781">
        <ele>834.59997558594</ele>
        <time>2020-10-03T08:40:42.000Z</time>
      </trkpt>
      <trkpt lat="44.1379" lon="3.1278">
        <ele>834.59997558594</ele>
        <time>2020-10-03T08:40:44.000Z</time>
      </trkpt>
      <trkpt lat="44.1379" lon="3.1278">
        <ele>834.59997558594</ele>
        <time>2020-10-03T08:40:45.000Z</time>
      </trkpt>
      <trkpt lat="44.1379" lon="3.12779">
        <ele>834.59997558594</ele>
        <time>2020-10-03T08:40:46.000Z</time>
      </trkpt>
      <trkpt lat="44.13791" lon="3.12778">
        <ele>834.59997558594</ele>
        <time>2020-10-03T08:40:48.000Z</time>
      </trkpt>
      <trkpt lat="44.13791" lon="3.12778">
        <ele>834.59997558594</ele>
        <time>2020-10-03T08:40:50.000Z</time>
      </trkpt>
      <trkpt lat="44.13791" lon="3.12777">
        <ele>834.59997558594</ele>
        <time>2020-10-03T08:40:52.000Z</time>
      </trkpt>
      <trkpt lat="44.13791" lon="3.12776">
        <ele>834.40002441406</ele>
        <time>2020-10-03T08:40:54.000Z</time>
      </trkpt>
      <trkpt lat="44.13792" lon="3.12776">
        <ele>834.20001220703</ele>
        <time>2020-10-03T08:40:56.000Z</time>
      </trkpt>
      <trkpt lat="44.13792" lon="3.12777">
        <ele>834.20001220703</ele>
        <time>2020-10-03T08:40:58.000Z</time>
      </trkpt>
      <trkpt lat="44.13792" lon="3.12777">
        <ele>834.20001220703</ele>
        <time>2020-10-03T08:41:00.000Z</time>
      </trkpt>
      <trkpt lat="44.13792" lon="3.12777">
        <ele>834.20001220703</ele>
        <time>2020-10-03T08:41:01.000Z</time>
      </trkpt>
      <trkpt lat="44.13792" lon="3.12777">
        <ele>834.20001220703</ele>
        <time>2020-10-03T08:41:02.000Z</time>
      </trkpt>
      <trkpt lat="44.13792" lon="3.12778">
        <ele>834.20001220703</ele>
        <time>2020-10-03T08:41:04.000Z</time>
      </trkpt>
      <trkpt lat="44.13792" lon="3.12781">
        <ele>834.40002441406</ele>
        <time>2020-10-03T08:41:06.000Z</time>
      </trkpt>
      <trkpt lat="44.13794" lon="3.12781">
        <ele>834.40002441406</ele>
        <time>2020-10-03T08:41:08.000Z</time>
      </trkpt>
      <trkpt lat="44.13794" lon="3.12783">
        <ele>834.40002441406</ele>
        <time>2020-10-03T08:41:10.000Z</time>
      </trkpt>
      <trkpt lat="44.13794" lon="3.12784">
        <ele>834.40002441406</ele>
        <time>2020-10-03T08:41:11.000Z</time>
      </trkpt>
      <trkpt lat="44.13794" lon="3.12784">
        <ele>834.40002441406</ele>
        <time>2020-10-03T08:41:12.000Z</time>
      </trkpt>
      <trkpt lat="44.13795" lon="3.12785">
        <ele>834.40002441406</ele>
        <time>2020-10-03T08:41:14.000Z</time>
      </trkpt>
      <trkpt lat="44.13795" lon="3.12785">
        <ele>834.40002441406</ele>
        <time>2020-10-03T08:41:16.000Z</time>
      </trkpt>
      <trkpt lat="44.13795" lon="3.12785">
        <ele>834.20001220703</ele>
        <time>2020-10-03T08:41:18.000Z</time>
      </trkpt>
      <trkpt lat="44.13795" lon="3.12785">
        <ele>834</ele>
        <time>2020-10-03T08:41:20.000Z</time>
      </trkpt>
      <trkpt lat="44.13796" lon="3.12784">
        <ele>833.79998779297</ele>
        <time>2020-10-03T08:41:22.000Z</time>
      </trkpt>
      <trkpt lat="44.13796" lon="3.12784">
        <ele>833.79998779297</ele>
        <time>2020-10-03T08:41:23.000Z</time>
      </trkpt>
      <trkpt lat="44.13796" lon="3.12784">
        <ele>833.79998779297</ele>
        <time>2020-10-03T08:41:24.000Z</time>
      </trkpt>
      <trkpt lat="44.13796" lon="3.12784">
        <ele>833.79998779297</ele>
        <time>2020-10-03T08:41:26.000Z</time>
      </trkpt>
      <trkpt lat="44.13796" lon="3.12783">
        <ele>833.79998779297</ele>
        <time>2020-10-03T08:41:28.000Z</time>
      </trkpt>
      <trkpt lat="44.13796" lon="3.12783">
        <ele>833.79998779297</ele>
        <time>2020-10-03T08:41:30.000Z</time>
      </trkpt>
      <trkpt lat="44.13796" lon="3.12782">
        <ele>833.59997558594</ele>
        <time>2020-10-03T08:41:32.000Z</time>
      </trkpt>
      <trkpt lat="44.13795" lon="3.12783">
        <ele>833.40002441406</ele>
        <time>2020-10-03T08:41:34.000Z</time>
      </trkpt>
      <trkpt lat="44.13796" lon="3.12783">
        <ele>833.40002441406</ele>
        <time>2020-10-03T08:41:36.000Z</time>
      </trkpt>
      <trkpt lat="44.13796" lon="3.12783">
        <ele>833.40002441406</ele>
        <time>2020-10-03T08:41:38.000Z</time>
      </trkpt>
      <trkpt lat="44.13796" lon="3.12782">
        <ele>833.20001220703</ele>
        <time>2020-10-03T08:41:40.000Z</time>
      </trkpt>
      <trkpt lat="44.13796" lon="3.12781">
        <ele>833.20001220703</ele>
        <time>2020-10-03T08:41:42.000Z</time>
      </trkpt>
      <trkpt lat="44.13797" lon="3.12781">
        <ele>833.20001220703</ele>
        <time>2020-10-03T08:41:44.000Z</time>
      </trkpt>
      <trkpt lat="44.13797" lon="3.1278">
        <ele>833.20001220703</ele>
        <time>2020-10-03T08:41:46.000Z</time>
      </trkpt>
      <trkpt lat="44.13798" lon="3.12779">
        <ele>833.20001220703</ele>
        <time>2020-10-03T08:41:48.000Z</time>
      </trkpt>
      <trkpt lat="44.13798" lon="3.12779">
        <ele>833.20001220703</ele>
        <time>2020-10-03T08:41:50.000Z</time>
      </trkpt>
      <trkpt lat="44.13799" lon="3.12778">
        <ele>833.40002441406</ele>
        <time>2020-10-03T08:41:52.000Z</time>
      </trkpt>
      <trkpt lat="44.13799" lon="3.12778">
        <ele>833.40002441406</ele>
        <time>2020-10-03T08:41:54.000Z</time>
      </trkpt>
      <trkpt lat="44.13799" lon="3.12777">
        <ele>833.59997558594</ele>
        <time>2020-10-03T08:41:56.000Z</time>
      </trkpt>
      <trkpt lat="44.13799" lon="3.12777">
        <ele>833.59997558594</ele>
        <time>2020-10-03T08:41:58.000Z</time>
      </trkpt>
      <trkpt lat="44.13799" lon="3.12778">
        <ele>833.59997558594</ele>
        <time>2020-10-03T08:42:00.000Z</time>
      </trkpt>
      <trkpt lat="44.13798" lon="3.12779">
        <ele>833.59997558594</ele>
        <time>2020-10-03T08:42:02.000Z</time>
      </trkpt>
      <trkpt lat="44.13799" lon="3.12779">
        <ele>833.59997558594</ele>
        <time>2020-10-03T08:42:04.000Z</time>
      </trkpt>
      <trkpt lat="44.13799" lon="3.12779">
        <ele>833.59997558594</ele>
        <time>2020-10-03T08:42:06.000Z</time>
      </trkpt>
      <trkpt lat="44.13799" lon="3.12779">
        <ele>833.59997558594</ele>
        <time>2020-10-03T08:42:08.000Z</time>
      </trkpt>
      <trkpt lat="44.13799" lon="3.12779">
        <ele>833.59997558594</ele>
        <time>2020-10-03T08:42:10.000Z</time>
      </trkpt>
      <trkpt lat="44.13799" lon="3.12779">
        <ele>833.40002441406</ele>
        <time>2020-10-03T08:42:12.000Z</time>
      </trkpt>
      <trkpt lat="44.13799" lon="3.12779">
        <ele>833.40002441406</ele>
        <time>2020-10-03T08:42:14.000Z</time>
      </trkpt>
      <trkpt lat="44.13799" lon="3.12779">
        <ele>833.40002441406</ele>
        <time>2020-10-03T08:42:15.000Z</time>
      </trkpt>
      <trkpt lat="44.13799" lon="3.12779">
        <ele>833.40002441406</ele>
        <time>2020-10-03T08:42:16.000Z</time>
      </trkpt>
      <trkpt lat="44.13799" lon="3.12779">
        <ele>833.40002441406</ele>
        <time>2020-10-03T08:42:18.000Z</time>
      </trkpt>
      <trkpt lat="44.13799" lon="3.12779">
        <ele>833.40002441406</ele>
        <time>2020-10-03T08:42:20.000Z</time>
      </trkpt>
      <trkpt lat="44.13799" lon="3.12779">
        <ele>833.40002441406</ele>
        <time>2020-10-03T08:42:22.000Z</time>
      </trkpt>
      <trkpt lat="44.13799" lon="3.12779">
        <ele>833.40002441406</ele>
        <time>2020-10-03T08:42:24.000Z</time>
      </trkpt>
      <trkpt lat="44.13799" lon="3.12778">
        <ele>833.40002441406</ele>
        <time>2020-10-03T08:42:26.000Z</time>
      </trkpt>
      <trkpt lat="44.13799" lon="3.12778">
        <ele>833.20001220703</ele>
        <time>2020-10-03T08:42:28.000Z</time>
      </trkpt>
      <trkpt lat="44.13799" lon="3.12777">
        <ele>833.20001220703</ele>
        <time>2020-10-03T08:42:30.000Z</time>
      </trkpt>
      <trkpt lat="44.13799" lon="3.12776">
        <ele>833</ele>
        <time>2020-10-03T08:42:32.000Z</time>
      </trkpt>
      <trkpt lat="44.138" lon="3.12775">
        <ele>833</ele>
        <time>2020-10-03T08:42:34.000Z</time>
      </trkpt>
      <trkpt lat="44.138" lon="3.12775">
        <ele>833</ele>
        <time>2020-10-03T08:42:36.000Z</time>
      </trkpt>
      <trkpt lat="44.138" lon="3.12776">
        <ele>833</ele>
        <time>2020-10-03T08:42:38.000Z</time>
      </trkpt>
      <trkpt lat="44.13799" lon="3.12775">
        <ele>833</ele>
        <time>2020-10-03T08:42:40.000Z</time>
      </trkpt>
      <trkpt lat="44.13799" lon="3.12775">
        <ele>833.20001220703</ele>
        <time>2020-10-03T08:42:42.000Z</time>
      </trkpt>
      <trkpt lat="44.13799" lon="3.12774">
        <ele>833.40002441406</ele>
        <time>2020-10-03T08:42:44.000Z</time>
      </trkpt>
      <trkpt lat="44.13798" lon="3.12774">
        <ele>833.40002441406</ele>
        <time>2020-10-03T08:42:46.000Z</time>
      </trkpt>
      <trkpt lat="44.13798" lon="3.12774">
        <ele>833.40002441406</ele>
        <time>2020-10-03T08:42:47.000Z</time>
      </trkpt>
      <trkpt lat="44.13797" lon="3.12775">
        <ele>833.40002441406</ele>
        <time>2020-10-03T08:42:48.000Z</time>
      </trkpt>
      <trkpt lat="44.13798" lon="3.12775">
        <ele>833.40002441406</ele>
        <time>2020-10-03T08:42:50.000Z</time>
      </trkpt>
      <trkpt lat="44.13798" lon="3.12774">
        <ele>833.40002441406</ele>
        <time>2020-10-03T08:42:52.000Z</time>
      </trkpt>
      <trkpt lat="44.13799" lon="3.12773">
        <ele>833.40002441406</ele>
        <time>2020-10-03T08:42:54.000Z</time>
      </trkpt>
      <trkpt lat="44.138" lon="3.12773">
        <ele>833.40002441406</ele>
        <time>2020-10-03T08:42:56.000Z</time>
      </trkpt>
      <trkpt lat="44.13802" lon="3.12772">
        <ele>833.40002441406</ele>
        <time>2020-10-03T08:42:58.000Z</time>
      </trkpt>
      <trkpt lat="44.13802" lon="3.12772">
        <ele>833.40002441406</ele>
        <time>2020-10-03T08:42:59.000Z</time>
      </trkpt>
      <trkpt lat="44.13802" lon="3.12772">
        <ele>833.40002441406</ele>
        <time>2020-10-03T08:43:00.000Z</time>
      </trkpt>
      <trkpt lat="44.13804" lon="3.12773">
        <ele>833.59997558594</ele>
        <time>2020-10-03T08:43:02.000Z</time>
      </trkpt>
      <trkpt lat="44.13805" lon="3.12774">
        <ele>833.59997558594</ele>
        <time>2020-10-03T08:43:03.000Z</time>
      </trkpt>
      <trkpt lat="44.13806" lon="3.12775">
        <ele>833.59997558594</ele>
        <time>2020-10-03T08:43:04.000Z</time>
      </trkpt>
      <trkpt lat="44.13809" lon="3.12777">
        <ele>833.59997558594</ele>
        <time>2020-10-03T08:43:06.000Z</time>
      </trkpt>
      <trkpt lat="44.13812" lon="3.12778">
        <ele>833.59997558594</ele>
        <time>2020-10-03T08:43:08.000Z</time>
      </trkpt>
      <trkpt lat="44.13815" lon="3.12781">
        <ele>833.59997558594</ele>
        <time>2020-10-03T08:43:10.000Z</time>
      </trkpt>
      <trkpt lat="44.13819" lon="3.12785">
        <ele>833.40002441406</ele>
        <time>2020-10-03T08:43:12.000Z</time>
      </trkpt>
      <trkpt lat="44.13823" lon="3.1279">
        <ele>833.20001220703</ele>
        <time>2020-10-03T08:43:14.000Z</time>
      </trkpt>
      <trkpt lat="44.13828" lon="3.12796">
        <ele>833</ele>
        <time>2020-10-03T08:43:16.000Z</time>
      </trkpt>
      <trkpt lat="44.13834" lon="3.12805">
        <ele>832.79998779297</ele>
        <time>2020-10-03T08:43:18.000Z</time>
      </trkpt>
      <trkpt lat="44.13841" lon="3.12815">
        <ele>832.40002441406</ele>
        <time>2020-10-03T08:43:20.000Z</time>
      </trkpt>
      <trkpt lat="44.13851" lon="3.12826">
        <ele>832</ele>
        <time>2020-10-03T08:43:22.000Z</time>
      </trkpt>
      <trkpt lat="44.13856" lon="3.12832">
        <ele>831.40002441406</ele>
        <time>2020-10-03T08:43:23.000Z</time>
      </trkpt>
      <trkpt lat="44.13861" lon="3.12839">
        <ele>830.79998779297</ele>
        <time>2020-10-03T08:43:24.000Z</time>
      </trkpt>
      <trkpt lat="44.13866" lon="3.12845">
        <ele>830.20001220703</ele>
        <time>2020-10-03T08:43:25.000Z</time>
      </trkpt>
      <trkpt lat="44.1387" lon="3.12851">
        <ele>829.79998779297</ele>
        <time>2020-10-03T08:43:26.000Z</time>
      </trkpt>
      <trkpt lat="44.13875" lon="3.12857">
        <ele>829.20001220703</ele>
        <time>2020-10-03T08:43:27.000Z</time>
      </trkpt>
      <trkpt lat="44.13879" lon="3.12862">
        <ele>828.40002441406</ele>
        <time>2020-10-03T08:43:28.000Z</time>
      </trkpt>
      <trkpt lat="44.13884" lon="3.12866">
        <ele>827.59997558594</ele>
        <time>2020-10-03T08:43:29.000Z</time>
      </trkpt>
      <trkpt lat="44.13888" lon="3.12869">
        <ele>827</ele>
        <time>2020-10-03T08:43:30.000Z</time>
      </trkpt>
      <trkpt lat="44.13891" lon="3.12871">
        <ele>826.20001220703</ele>
        <time>2020-10-03T08:43:31.000Z</time>
      </trkpt>
      <trkpt lat="44.13894" lon="3.12874">
        <ele>825.20001220703</ele>
        <time>2020-10-03T08:43:32.000Z</time>
      </trkpt>
      <trkpt lat="44.13897" lon="3.12877">
        <ele>824.40002441406</ele>
        <time>2020-10-03T08:43:33.000Z</time>
      </trkpt>
      <trkpt lat="44.13899" lon="3.1288">
        <ele>823.59997558594</ele>
        <time>2020-10-03T08:43:34.000Z</time>
      </trkpt>
      <trkpt lat="44.13901" lon="3.12882">
        <ele>823</ele>
        <time>2020-10-03T08:43:35.000Z</time>
      </trkpt>
      <trkpt lat="44.13904" lon="3.12885">
        <ele>822.40002441406</ele>
        <time>2020-10-03T08:43:36.000Z</time>
      </trkpt>
      <trkpt lat="44.13909" lon="3.12887">
        <ele>821.79998779297</ele>
        <time>2020-10-03T08:43:38.000Z</time>
      </trkpt>
      <trkpt lat="44.13911" lon="3.12888">
        <ele>821.79998779297</ele>
        <time>2020-10-03T08:43:39.000Z</time>
      </trkpt>
      <trkpt lat="44.13914" lon="3.12888">
        <ele>821.59997558594</ele>
        <time>2020-10-03T08:43:40.000Z</time>
      </trkpt>
      <trkpt lat="44.1392" lon="3.12889">
        <ele>821.40002441406</ele>
        <time>2020-10-03T08:43:42.000Z</time>
      </trkpt>
      <trkpt lat="44.13925" lon="3.1289">
        <ele>821.40002441406</ele>
        <time>2020-10-03T08:43:44.000Z</time>
      </trkpt>
      <trkpt lat="44.1393" lon="3.12891">
        <ele>821.40002441406</ele>
        <time>2020-10-03T08:43:46.000Z</time>
      </trkpt>
      <trkpt lat="44.13936" lon="3.12894">
        <ele>821.40002441406</ele>
        <time>2020-10-03T08:43:48.000Z</time>
      </trkpt>
      <trkpt lat="44.13939" lon="3.12895">
        <ele>821.59997558594</ele>
        <time>2020-10-03T08:43:49.000Z</time>
      </trkpt>
      <trkpt lat="44.13942" lon="3.12897">
        <ele>821.59997558594</ele>
        <time>2020-10-03T08:43:50.000Z</time>
      </trkpt>
      <trkpt lat="44.13949" lon="3.12899">
        <ele>821.59997558594</ele>
        <time>2020-10-03T08:43:52.000Z</time>
      </trkpt>
      <trkpt lat="44.13955" lon="3.12901">
        <ele>821.59997558594</ele>
        <time>2020-10-03T08:43:54.000Z</time>
      </trkpt>
      <trkpt lat="44.13961" lon="3.12902">
        <ele>821.79998779297</ele>
        <time>2020-10-03T08:43:56.000Z</time>
      </trkpt>
      <trkpt lat="44.13966" lon="3.12903">
        <ele>822</ele>
        <time>2020-10-03T08:43:58.000Z</time>
      </trkpt>
      <trkpt lat="44.13972" lon="3.12906">
        <ele>822.20001220703</ele>
        <time>2020-10-03T08:44:00.000Z</time>
      </trkpt>
      <trkpt lat="44.13977" lon="3.1291">
        <ele>822.20001220703</ele>
        <time>2020-10-03T08:44:02.000Z</time>
      </trkpt>
      <trkpt lat="44.1398" lon="3.12912">
        <ele>822.20001220703</ele>
        <time>2020-10-03T08:44:03.000Z</time>
      </trkpt>
      <trkpt lat="44.13982" lon="3.12914">
        <ele>822.20001220703</ele>
        <time>2020-10-03T08:44:04.000Z</time>
      </trkpt>
      <trkpt lat="44.13986" lon="3.12917">
        <ele>822.20001220703</ele>
        <time>2020-10-03T08:44:06.000Z</time>
      </trkpt>
      <trkpt lat="44.1399" lon="3.12918">
        <ele>822.40002441406</ele>
        <time>2020-10-03T08:44:08.000Z</time>
      </trkpt>
      <trkpt lat="44.13995" lon="3.12919">
        <ele>822.40002441406</ele>
        <time>2020-10-03T08:44:10.000Z</time>
      </trkpt>
      <trkpt lat="44.14002" lon="3.1292">
        <ele>822.40002441406</ele>
        <time>2020-10-03T08:44:12.000Z</time>
      </trkpt>
      <trkpt lat="44.1401" lon="3.12922">
        <ele>822.40002441406</ele>
        <time>2020-10-03T08:44:14.000Z</time>
      </trkpt>
      <trkpt lat="44.14019" lon="3.12924">
        <ele>822.40002441406</ele>
        <time>2020-10-03T08:44:16.000Z</time>
      </trkpt>
      <trkpt lat="44.14028" lon="3.12925">
        <ele>822.40002441406</ele>
        <time>2020-10-03T08:44:18.000Z</time>
      </trkpt>
      <trkpt lat="44.14036" lon="3.12926">
        <ele>822.59997558594</ele>
        <time>2020-10-03T08:44:20.000Z</time>
      </trkpt>
      <trkpt lat="44.1404" lon="3.12926">
        <ele>822.59997558594</ele>
        <time>2020-10-03T08:44:21.000Z</time>
      </trkpt>
      <trkpt lat="44.14044" lon="3.12926">
        <ele>822.79998779297</ele>
        <time>2020-10-03T08:44:22.000Z</time>
      </trkpt>
      <trkpt lat="44.14047" lon="3.12926">
        <ele>822.79998779297</ele>
        <time>2020-10-03T08:44:23.000Z</time>
      </trkpt>
      <trkpt lat="44.1405" lon="3.12926">
        <ele>822.79998779297</ele>
        <time>2020-10-03T08:44:24.000Z</time>
      </trkpt>
      <trkpt lat="44.14059" lon="3.12926">
        <ele>823</ele>
        <time>2020-10-03T08:44:26.000Z</time>
      </trkpt>
      <trkpt lat="44.14069" lon="3.12926">
        <ele>823.40002441406</ele>
        <time>2020-10-03T08:44:28.000Z</time>
      </trkpt>
      <trkpt lat="44.14073" lon="3.12926">
        <ele>823.79998779297</ele>
        <time>2020-10-03T08:44:29.000Z</time>
      </trkpt>
      <trkpt lat="44.14076" lon="3.12926">
        <ele>824</ele>
        <time>2020-10-03T08:44:30.000Z</time>
      </trkpt>
      <trkpt lat="44.14083" lon="3.12927">
        <ele>824.40002441406</ele>
        <time>2020-10-03T08:44:32.000Z</time>
      </trkpt>
      <trkpt lat="44.14091" lon="3.12928">
        <ele>824.79998779297</ele>
        <time>2020-10-03T08:44:34.000Z</time>
      </trkpt>
      <trkpt lat="44.14099" lon="3.1293">
        <ele>825.20001220703</ele>
        <time>2020-10-03T08:44:36.000Z</time>
      </trkpt>
      <trkpt lat="44.14106" lon="3.12931">
        <ele>825.59997558594</ele>
        <time>2020-10-03T08:44:38.000Z</time>
      </trkpt>
      <trkpt lat="44.14113" lon="3.12933">
        <ele>825.79998779297</ele>
        <time>2020-10-03T08:44:40.000Z</time>
      </trkpt>
      <trkpt lat="44.14115" lon="3.12933">
        <ele>826</ele>
        <time>2020-10-03T08:44:41.000Z</time>
      </trkpt>
      <trkpt lat="44.14118" lon="3.12934">
        <ele>826.20001220703</ele>
        <time>2020-10-03T08:44:42.000Z</time>
      </trkpt>
      <trkpt lat="44.14122" lon="3.12936">
        <ele>826.40002441406</ele>
        <time>2020-10-03T08:44:44.000Z</time>
      </trkpt>
      <trkpt lat="44.14128" lon="3.12939">
        <ele>826.59997558594</ele>
        <time>2020-10-03T08:44:46.000Z</time>
      </trkpt>
      <trkpt lat="44.14134" lon="3.12945">
        <ele>826.59997558594</ele>
        <time>2020-10-03T08:44:48.000Z</time>
      </trkpt>
      <trkpt lat="44.14139" lon="3.1295">
        <ele>826.59997558594</ele>
        <time>2020-10-03T08:44:50.000Z</time>
      </trkpt>
      <trkpt lat="44.14144" lon="3.12956">
        <ele>826.59997558594</ele>
        <time>2020-10-03T08:44:52.000Z</time>
      </trkpt>
      <trkpt lat="44.14149" lon="3.1296">
        <ele>826.59997558594</ele>
        <time>2020-10-03T08:44:54.000Z</time>
      </trkpt>
      <trkpt lat="44.14151" lon="3.12962">
        <ele>826.59997558594</ele>
        <time>2020-10-03T08:44:55.000Z</time>
      </trkpt>
      <trkpt lat="44.14154" lon="3.12962">
        <ele>826.59997558594</ele>
        <time>2020-10-03T08:44:56.000Z</time>
      </trkpt>
      <trkpt lat="44.14159" lon="3.12963">
        <ele>826.40002441406</ele>
        <time>2020-10-03T08:44:58.000Z</time>
      </trkpt>
      <trkpt lat="44.14163" lon="3.12964">
        <ele>826</ele>
        <time>2020-10-03T08:45:00.000Z</time>
      </trkpt>
      <trkpt lat="44.14169" lon="3.12965">
        <ele>825.59997558594</ele>
        <time>2020-10-03T08:45:02.000Z</time>
      </trkpt>
      <trkpt lat="44.14171" lon="3.12965">
        <ele>825</ele>
        <time>2020-10-03T08:45:03.000Z</time>
      </trkpt>
      <trkpt lat="44.14175" lon="3.12965">
        <ele>824.40002441406</ele>
        <time>2020-10-03T08:45:04.000Z</time>
      </trkpt>
      <trkpt lat="44.14181" lon="3.12966">
        <ele>823.40002441406</ele>
        <time>2020-10-03T08:45:06.000Z</time>
      </trkpt>
      <trkpt lat="44.1419" lon="3.12969">
        <ele>822.59997558594</ele>
        <time>2020-10-03T08:45:08.000Z</time>
      </trkpt>
      <trkpt lat="44.14195" lon="3.12969">
        <ele>822</ele>
        <time>2020-10-03T08:45:09.000Z</time>
      </trkpt>
      <trkpt lat="44.142" lon="3.12969">
        <ele>821.20001220703</ele>
        <time>2020-10-03T08:45:10.000Z</time>
      </trkpt>
      <trkpt lat="44.14204" lon="3.1297">
        <ele>820.59997558594</ele>
        <time>2020-10-03T08:45:11.000Z</time>
      </trkpt>
      <trkpt lat="44.14209" lon="3.1297">
        <ele>820</ele>
        <time>2020-10-03T08:45:12.000Z</time>
      </trkpt>
      <trkpt lat="44.14214" lon="3.12969">
        <ele>819.20001220703</ele>
        <time>2020-10-03T08:45:13.000Z</time>
      </trkpt>
      <trkpt lat="44.14219" lon="3.12969">
        <ele>818</ele>
        <time>2020-10-03T08:45:14.000Z</time>
      </trkpt>
      <trkpt lat="44.1423" lon="3.12968">
        <ele>816.59997558594</ele>
        <time>2020-10-03T08:45:16.000Z</time>
      </trkpt>
      <trkpt lat="44.14236" lon="3.12968">
        <ele>815.59997558594</ele>
        <time>2020-10-03T08:45:17.000Z</time>
      </trkpt>
      <trkpt lat="44.14241" lon="3.12967">
        <ele>814.59997558594</ele>
        <time>2020-10-03T08:45:18.000Z</time>
      </trkpt>
      <trkpt lat="44.14247" lon="3.12964">
        <ele>813.79998779297</ele>
        <time>2020-10-03T08:45:19.000Z</time>
      </trkpt>
      <trkpt lat="44.14252" lon="3.12961">
        <ele>813</ele>
        <time>2020-10-03T08:45:20.000Z</time>
      </trkpt>
      <trkpt lat="44.14263" lon="3.12956">
        <ele>811.40002441406</ele>
        <time>2020-10-03T08:45:22.000Z</time>
      </trkpt>
      <trkpt lat="44.14274" lon="3.12952">
        <ele>810</ele>
        <time>2020-10-03T08:45:24.000Z</time>
      </trkpt>
      <trkpt lat="44.1428" lon="3.12949">
        <ele>809</ele>
        <time>2020-10-03T08:45:25.000Z</time>
      </trkpt>
      <trkpt lat="44.14285" lon="3.12946">
        <ele>808</ele>
        <time>2020-10-03T08:45:26.000Z</time>
      </trkpt>
      <trkpt lat="44.14298" lon="3.1294">
        <ele>806.20001220703</ele>
        <time>2020-10-03T08:45:28.000Z</time>
      </trkpt>
      <trkpt lat="44.14309" lon="3.12933">
        <ele>803.59997558594</ele>
        <time>2020-10-03T08:45:30.000Z</time>
      </trkpt>
      <trkpt lat="44.14316" lon="3.1293">
        <ele>802.20001220703</ele>
        <time>2020-10-03T08:45:31.000Z</time>
      </trkpt>
      <trkpt lat="44.14324" lon="3.12927">
        <ele>801.20001220703</ele>
        <time>2020-10-03T08:45:32.000Z</time>
      </trkpt>
      <trkpt lat="44.1433" lon="3.12924">
        <ele>799.40002441406</ele>
        <time>2020-10-03T08:45:33.000Z</time>
      </trkpt>
      <trkpt lat="44.14336" lon="3.1292">
        <ele>798.40002441406</ele>
        <time>2020-10-03T08:45:34.000Z</time>
      </trkpt>
      <trkpt lat="44.14346" lon="3.12913">
        <ele>796.59997558594</ele>
        <time>2020-10-03T08:45:36.000Z</time>
      </trkpt>
      <trkpt lat="44.1435" lon="3.12909">
        <ele>795.79998779297</ele>
        <time>2020-10-03T08:45:37.000Z</time>
      </trkpt>
      <trkpt lat="44.14353" lon="3.12905">
        <ele>795.20001220703</ele>
        <time>2020-10-03T08:45:38.000Z</time>
      </trkpt>
      <trkpt lat="44.14359" lon="3.12894">
        <ele>793.79998779297</ele>
        <time>2020-10-03T08:45:40.000Z</time>
      </trkpt>
      <trkpt lat="44.14362" lon="3.1289">
        <ele>792.79998779297</ele>
        <time>2020-10-03T08:45:41.000Z</time>
      </trkpt>
      <trkpt lat="44.14365" lon="3.12887">
        <ele>791.40002441406</ele>
        <time>2020-10-03T08:45:42.000Z</time>
      </trkpt>
      <trkpt lat="44.14368" lon="3.12885">
        <ele>790.20001220703</ele>
        <time>2020-10-03T08:45:43.000Z</time>
      </trkpt>
      <trkpt lat="44.14369" lon="3.12884">
        <ele>789.59997558594</ele>
        <time>2020-10-03T08:45:44.000Z</time>
      </trkpt>
      <trkpt lat="44.14371" lon="3.12883">
        <ele>789.20001220703</ele>
        <time>2020-10-03T08:45:45.000Z</time>
      </trkpt>
      <trkpt lat="44.14372" lon="3.12882">
        <ele>788.79998779297</ele>
        <time>2020-10-03T08:45:46.000Z</time>
      </trkpt>
      <trkpt lat="44.14375" lon="3.12881">
        <ele>788.40002441406</ele>
        <time>2020-10-03T08:45:48.000Z</time>
      </trkpt>
      <trkpt lat="44.14377" lon="3.12879">
        <ele>787.79998779297</ele>
        <time>2020-10-03T08:45:50.000Z</time>
      </trkpt>
      <trkpt lat="44.14378" lon="3.12879">
        <ele>787.40002441406</ele>
        <time>2020-10-03T08:45:52.000Z</time>
      </trkpt>
      <trkpt lat="44.14378" lon="3.12878">
        <ele>787.20001220703</ele>
        <time>2020-10-03T08:45:54.000Z</time>
      </trkpt>
      <trkpt lat="44.14379" lon="3.12878">
        <ele>787.20001220703</ele>
        <time>2020-10-03T08:45:55.000Z</time>
      </trkpt>
      <trkpt lat="44.14379" lon="3.12878">
        <ele>787.20001220703</ele>
        <time>2020-10-03T08:45:56.000Z</time>
      </trkpt>
      <trkpt lat="44.1438" lon="3.12878">
        <ele>787.20001220703</ele>
        <time>2020-10-03T08:45:58.000Z</time>
      </trkpt>
      <trkpt lat="44.1438" lon="3.12879">
        <ele>787.20001220703</ele>
        <time>2020-10-03T08:46:00.000Z</time>
      </trkpt>
      <trkpt lat="44.14381" lon="3.12879">
        <ele>787.20001220703</ele>
        <time>2020-10-03T08:46:02.000Z</time>
      </trkpt>
      <trkpt lat="44.14381" lon="3.12879">
        <ele>787.20001220703</ele>
        <time>2020-10-03T08:46:04.000Z</time>
      </trkpt>
      <trkpt lat="44.14381" lon="3.12879">
        <ele>787.20001220703</ele>
        <time>2020-10-03T08:46:06.000Z</time>
      </trkpt>
      <trkpt lat="44.14381" lon="3.12879">
        <ele>787</ele>
        <time>2020-10-03T08:46:08.000Z</time>
      </trkpt>
      <trkpt lat="44.14381" lon="3.12879">
        <ele>787</ele>
        <time>2020-10-03T08:46:10.000Z</time>
      </trkpt>
      <trkpt lat="44.14381" lon="3.12879">
        <ele>787.20001220703</ele>
        <time>2020-10-03T08:46:12.000Z</time>
      </trkpt>
      <trkpt lat="44.14381" lon="3.12879">
        <ele>787.20001220703</ele>
        <time>2020-10-03T08:46:14.000Z</time>
      </trkpt>
      <trkpt lat="44.14381" lon="3.12879">
        <ele>787.20001220703</ele>
        <time>2020-10-03T08:46:16.000Z</time>
      </trkpt>
      <trkpt lat="44.14381" lon="3.12879">
        <ele>787.20001220703</ele>
        <time>2020-10-03T08:46:18.000Z</time>
      </trkpt>
      <trkpt lat="44.14382" lon="3.12878">
        <ele>787.20001220703</ele>
        <time>2020-10-03T08:46:20.000Z</time>
      </trkpt>
      <trkpt lat="44.14382" lon="3.12878">
        <ele>787.20001220703</ele>
        <time>2020-10-03T08:46:22.000Z</time>
      </trkpt>
      <trkpt lat="44.14382" lon="3.12878">
        <ele>787.20001220703</ele>
        <time>2020-10-03T08:46:24.000Z</time>
      </trkpt>
      <trkpt lat="44.14382" lon="3.12878">
        <ele>787.20001220703</ele>
        <time>2020-10-03T08:46:26.000Z</time>
      </trkpt>
      <trkpt lat="44.14382" lon="3.12878">
        <ele>787.20001220703</ele>
        <time>2020-10-03T08:46:28.000Z</time>
      </trkpt>
      <trkpt lat="44.14382" lon="3.12878">
        <ele>787</ele>
        <time>2020-10-03T08:46:30.000Z</time>
      </trkpt>
      <trkpt lat="44.14382" lon="3.12878">
        <ele>787</ele>
        <time>2020-10-03T08:46:32.000Z</time>
      </trkpt>
      <trkpt lat="44.14382" lon="3.12878">
        <ele>787</ele>
        <time>2020-10-03T08:46:34.000Z</time>
      </trkpt>
      <trkpt lat="44.14382" lon="3.12878">
        <ele>787</ele>
        <time>2020-10-03T08:46:36.000Z</time>
      </trkpt>
      <trkpt lat="44.14382" lon="3.12878">
        <ele>787.20001220703</ele>
        <time>2020-10-03T08:46:38.000Z</time>
      </trkpt>
      <trkpt lat="44.14382" lon="3.12878">
        <ele>787.20001220703</ele>
        <time>2020-10-03T08:46:40.000Z</time>
      </trkpt>
      <trkpt lat="44.14382" lon="3.12878">
        <ele>787.20001220703</ele>
        <time>2020-10-03T08:46:42.000Z</time>
      </trkpt>
      <trkpt lat="44.14382" lon="3.12878">
        <ele>787.20001220703</ele>
        <time>2020-10-03T08:46:44.000Z</time>
      </trkpt>
      <trkpt lat="44.14382" lon="3.12878">
        <ele>787.20001220703</ele>
        <time>2020-10-03T08:46:46.000Z</time>
      </trkpt>
      <trkpt lat="44.14382" lon="3.12877">
        <ele>787.20001220703</ele>
        <time>2020-10-03T08:46:48.000Z</time>
      </trkpt>
      <trkpt lat="44.14382" lon="3.12875">
        <ele>787.20001220703</ele>
        <time>2020-10-03T08:46:50.000Z</time>
      </trkpt>
      <trkpt lat="44.14382" lon="3.12873">
        <ele>787</ele>
        <time>2020-10-03T08:46:52.000Z</time>
      </trkpt>
      <trkpt lat="44.14385" lon="3.12869">
        <ele>787</ele>
        <time>2020-10-03T08:46:54.000Z</time>
      </trkpt>
      <trkpt lat="44.14389" lon="3.12866">
        <ele>786.59997558594</ele>
        <time>2020-10-03T08:46:56.000Z</time>
      </trkpt>
      <trkpt lat="44.14392" lon="3.12865">
        <ele>786.40002441406</ele>
        <time>2020-10-03T08:46:57.000Z</time>
      </trkpt>
      <trkpt lat="44.14394" lon="3.12865">
        <ele>786.20001220703</ele>
        <time>2020-10-03T08:46:58.000Z</time>
      </trkpt>
      <trkpt lat="44.144" lon="3.12863">
        <ele>785.40002441406</ele>
        <time>2020-10-03T08:47:00.000Z</time>
      </trkpt>
      <trkpt lat="44.14403" lon="3.12862">
        <ele>784.79998779297</ele>
        <time>2020-10-03T08:47:01.000Z</time>
      </trkpt>
      <trkpt lat="44.14406" lon="3.12862">
        <ele>784</ele>
        <time>2020-10-03T08:47:02.000Z</time>
      </trkpt>
      <trkpt lat="44.14409" lon="3.12862">
        <ele>783.20001220703</ele>
        <time>2020-10-03T08:47:03.000Z</time>
      </trkpt>
      <trkpt lat="44.14411" lon="3.12864">
        <ele>782.59997558594</ele>
        <time>2020-10-03T08:47:04.000Z</time>
      </trkpt>
      <trkpt lat="44.14414" lon="3.12865">
        <ele>781.59997558594</ele>
        <time>2020-10-03T08:47:05.000Z</time>
      </trkpt>
      <trkpt lat="44.14417" lon="3.12867">
        <ele>781</ele>
        <time>2020-10-03T08:47:06.000Z</time>
      </trkpt>
      <trkpt lat="44.14419" lon="3.12869">
        <ele>780.40002441406</ele>
        <time>2020-10-03T08:47:07.000Z</time>
      </trkpt>
      <trkpt lat="44.14421" lon="3.1287">
        <ele>779.59997558594</ele>
        <time>2020-10-03T08:47:08.000Z</time>
      </trkpt>
      <trkpt lat="44.14424" lon="3.12871">
        <ele>778.79998779297</ele>
        <time>2020-10-03T08:47:09.000Z</time>
      </trkpt>
      <trkpt lat="44.14427" lon="3.12871">
        <ele>777.79998779297</ele>
        <time>2020-10-03T08:47:10.000Z</time>
      </trkpt>
      <trkpt lat="44.1443" lon="3.12869">
        <ele>776.40002441406</ele>
        <time>2020-10-03T08:47:11.000Z</time>
      </trkpt>
      <trkpt lat="44.14434" lon="3.12868">
        <ele>775.40002441406</ele>
        <time>2020-10-03T08:47:12.000Z</time>
      </trkpt>
      <trkpt lat="44.14436" lon="3.12866">
        <ele>774.40002441406</ele>
        <time>2020-10-03T08:47:13.000Z</time>
      </trkpt>
      <trkpt lat="44.14438" lon="3.12864">
        <ele>773.20001220703</ele>
        <time>2020-10-03T08:47:14.000Z</time>
      </trkpt>
      <trkpt lat="44.14439" lon="3.12861">
        <ele>772.20001220703</ele>
        <time>2020-10-03T08:47:15.000Z</time>
      </trkpt>
      <trkpt lat="44.1444" lon="3.12858">
        <ele>771.40002441406</ele>
        <time>2020-10-03T08:47:16.000Z</time>
      </trkpt>
      <trkpt lat="44.14441" lon="3.12854">
        <ele>770.59997558594</ele>
        <time>2020-10-03T08:47:17.000Z</time>
      </trkpt>
      <trkpt lat="44.14441" lon="3.1285">
        <ele>769.79998779297</ele>
        <time>2020-10-03T08:47:18.000Z</time>
      </trkpt>
      <trkpt lat="44.1444" lon="3.12845">
        <ele>769</ele>
        <time>2020-10-03T08:47:19.000Z</time>
      </trkpt>
      <trkpt lat="44.1444" lon="3.1284">
        <ele>768</ele>
        <time>2020-10-03T08:47:20.000Z</time>
      </trkpt>
      <trkpt lat="44.14439" lon="3.12835">
        <ele>767.20001220703</ele>
        <time>2020-10-03T08:47:21.000Z</time>
      </trkpt>
      <trkpt lat="44.14438" lon="3.1283">
        <ele>766.40002441406</ele>
        <time>2020-10-03T08:47:22.000Z</time>
      </trkpt>
      <trkpt lat="44.14437" lon="3.12825">
        <ele>765.59997558594</ele>
        <time>2020-10-03T08:47:23.000Z</time>
      </trkpt>
      <trkpt lat="44.14435" lon="3.12821">
        <ele>764.59997558594</ele>
        <time>2020-10-03T08:47:24.000Z</time>
      </trkpt>
      <trkpt lat="44.14433" lon="3.12817">
        <ele>763.59997558594</ele>
        <time>2020-10-03T08:47:25.000Z</time>
      </trkpt>
      <trkpt lat="44.14431" lon="3.12813">
        <ele>763</ele>
        <time>2020-10-03T08:47:26.000Z</time>
      </trkpt>
      <trkpt lat="44.14428" lon="3.1281">
        <ele>762</ele>
        <time>2020-10-03T08:47:27.000Z</time>
      </trkpt>
      <trkpt lat="44.14425" lon="3.12806">
        <ele>761.20001220703</ele>
        <time>2020-10-03T08:47:28.000Z</time>
      </trkpt>
      <trkpt lat="44.14423" lon="3.12802">
        <ele>759</ele>
        <time>2020-10-03T08:47:29.000Z</time>
      </trkpt>
      <trkpt lat="44.14421" lon="3.12797">
        <ele>758.40002441406</ele>
        <time>2020-10-03T08:47:30.000Z</time>
      </trkpt>
      <trkpt lat="44.14419" lon="3.12791">
        <ele>757.40002441406</ele>
        <time>2020-10-03T08:47:31.000Z</time>
      </trkpt>
      <trkpt lat="44.14417" lon="3.12786">
        <ele>756.59997558594</ele>
        <time>2020-10-03T08:47:32.000Z</time>
      </trkpt>
      <trkpt lat="44.14416" lon="3.12781">
        <ele>756</ele>
        <time>2020-10-03T08:47:33.000Z</time>
      </trkpt>
      <trkpt lat="44.14413" lon="3.12775">
        <ele>755</ele>
        <time>2020-10-03T08:47:34.000Z</time>
      </trkpt>
      <trkpt lat="44.14411" lon="3.1277">
        <ele>754</ele>
        <time>2020-10-03T08:47:35.000Z</time>
      </trkpt>
      <trkpt lat="44.14408" lon="3.12766">
        <ele>753.40002441406</ele>
        <time>2020-10-03T08:47:36.000Z</time>
      </trkpt>
      <trkpt lat="44.14406" lon="3.12762">
        <ele>752.40002441406</ele>
        <time>2020-10-03T08:47:37.000Z</time>
      </trkpt>
      <trkpt lat="44.14403" lon="3.12758">
        <ele>751.20001220703</ele>
        <time>2020-10-03T08:47:38.000Z</time>
      </trkpt>
      <trkpt lat="44.144" lon="3.12755">
        <ele>750</ele>
        <time>2020-10-03T08:47:39.000Z</time>
      </trkpt>
      <trkpt lat="44.14398" lon="3.12751">
        <ele>749</ele>
        <time>2020-10-03T08:47:40.000Z</time>
      </trkpt>
      <trkpt lat="44.14394" lon="3.12742">
        <ele>747.59997558594</ele>
        <time>2020-10-03T08:47:42.000Z</time>
      </trkpt>
      <trkpt lat="44.14392" lon="3.12731">
        <ele>746</ele>
        <time>2020-10-03T08:47:44.000Z</time>
      </trkpt>
      <trkpt lat="44.14393" lon="3.12721">
        <ele>744</ele>
        <time>2020-10-03T08:47:46.000Z</time>
      </trkpt>
      <trkpt lat="44.14395" lon="3.12709">
        <ele>742.20001220703</ele>
        <time>2020-10-03T08:47:48.000Z</time>
      </trkpt>
      <trkpt lat="44.14398" lon="3.12699">
        <ele>740.79998779297</ele>
        <time>2020-10-03T08:47:50.000Z</time>
      </trkpt>
      <trkpt lat="44.14398" lon="3.12695">
        <ele>739.59997558594</ele>
        <time>2020-10-03T08:47:51.000Z</time>
      </trkpt>
      <trkpt lat="44.14398" lon="3.1269">
        <ele>738.59997558594</ele>
        <time>2020-10-03T08:47:52.000Z</time>
      </trkpt>
      <trkpt lat="44.14397" lon="3.12685">
        <ele>737.59997558594</ele>
        <time>2020-10-03T08:47:53.000Z</time>
      </trkpt>
      <trkpt lat="44.14396" lon="3.12681">
        <ele>737</ele>
        <time>2020-10-03T08:47:54.000Z</time>
      </trkpt>
      <trkpt lat="44.14394" lon="3.12676">
        <ele>736</ele>
        <time>2020-10-03T08:47:55.000Z</time>
      </trkpt>
      <trkpt lat="44.14393" lon="3.12672">
        <ele>735</ele>
        <time>2020-10-03T08:47:56.000Z</time>
      </trkpt>
      <trkpt lat="44.14389" lon="3.12664">
        <ele>732.59997558594</ele>
        <time>2020-10-03T08:47:58.000Z</time>
      </trkpt>
      <trkpt lat="44.14385" lon="3.12654">
        <ele>730.79998779297</ele>
        <time>2020-10-03T08:48:00.000Z</time>
      </trkpt>
      <trkpt lat="44.14379" lon="3.12646">
        <ele>729</ele>
        <time>2020-10-03T08:48:02.000Z</time>
      </trkpt>
      <trkpt lat="44.14372" lon="3.12638">
        <ele>727.40002441406</ele>
        <time>2020-10-03T08:48:04.000Z</time>
      </trkpt>
      <trkpt lat="44.14366" lon="3.12631">
        <ele>725.79998779297</ele>
        <time>2020-10-03T08:48:06.000Z</time>
      </trkpt>
      <trkpt lat="44.14363" lon="3.12628">
        <ele>724.59997558594</ele>
        <time>2020-10-03T08:48:07.000Z</time>
      </trkpt>
      <trkpt lat="44.14361" lon="3.12625">
        <ele>723.20001220703</ele>
        <time>2020-10-03T08:48:08.000Z</time>
      </trkpt>
      <trkpt lat="44.14358" lon="3.12622">
        <ele>722.20001220703</ele>
        <time>2020-10-03T08:48:09.000Z</time>
      </trkpt>
      <trkpt lat="44.14356" lon="3.1262">
        <ele>721.59997558594</ele>
        <time>2020-10-03T08:48:10.000Z</time>
      </trkpt>
      <trkpt lat="44.14355" lon="3.12616">
        <ele>721</ele>
        <time>2020-10-03T08:48:11.000Z</time>
      </trkpt>
      <trkpt lat="44.14353" lon="3.12613">
        <ele>720.40002441406</ele>
        <time>2020-10-03T08:48:12.000Z</time>
      </trkpt>
      <trkpt lat="44.14352" lon="3.1261">
        <ele>719.79998779297</ele>
        <time>2020-10-03T08:48:13.000Z</time>
      </trkpt>
      <trkpt lat="44.1435" lon="3.12607">
        <ele>719.20001220703</ele>
        <time>2020-10-03T08:48:14.000Z</time>
      </trkpt>
      <trkpt lat="44.14349" lon="3.12605">
        <ele>718.59997558594</ele>
        <time>2020-10-03T08:48:15.000Z</time>
      </trkpt>
      <trkpt lat="44.14348" lon="3.12602">
        <ele>717.79998779297</ele>
        <time>2020-10-03T08:48:16.000Z</time>
      </trkpt>
      <trkpt lat="44.14348" lon="3.126">
        <ele>716.79998779297</ele>
        <time>2020-10-03T08:48:17.000Z</time>
      </trkpt>
      <trkpt lat="44.14348" lon="3.12598">
        <ele>715.79998779297</ele>
        <time>2020-10-03T08:48:18.000Z</time>
      </trkpt>
      <trkpt lat="44.14348" lon="3.12596">
        <ele>714.79998779297</ele>
        <time>2020-10-03T08:48:19.000Z</time>
      </trkpt>
      <trkpt lat="44.14347" lon="3.12593">
        <ele>713.79998779297</ele>
        <time>2020-10-03T08:48:20.000Z</time>
      </trkpt>
      <trkpt lat="44.14347" lon="3.1259">
        <ele>712.79998779297</ele>
        <time>2020-10-03T08:48:21.000Z</time>
      </trkpt>
      <trkpt lat="44.14346" lon="3.12587">
        <ele>711.79998779297</ele>
        <time>2020-10-03T08:48:22.000Z</time>
      </trkpt>
      <trkpt lat="44.14344" lon="3.12585">
        <ele>711</ele>
        <time>2020-10-03T08:48:23.000Z</time>
      </trkpt>
      <trkpt lat="44.14343" lon="3.12583">
        <ele>710.20001220703</ele>
        <time>2020-10-03T08:48:24.000Z</time>
      </trkpt>
      <trkpt lat="44.14341" lon="3.1258">
        <ele>709.40002441406</ele>
        <time>2020-10-03T08:48:25.000Z</time>
      </trkpt>
      <trkpt lat="44.1434" lon="3.12578">
        <ele>708.40002441406</ele>
        <time>2020-10-03T08:48:26.000Z</time>
      </trkpt>
      <trkpt lat="44.14339" lon="3.12576">
        <ele>707.59997558594</ele>
        <time>2020-10-03T08:48:27.000Z</time>
      </trkpt>
      <trkpt lat="44.14338" lon="3.12574">
        <ele>705.59997558594</ele>
        <time>2020-10-03T08:48:28.000Z</time>
      </trkpt>
      <trkpt lat="44.14339" lon="3.12573">
        <ele>704.59997558594</ele>
        <time>2020-10-03T08:48:29.000Z</time>
      </trkpt>
      <trkpt lat="44.1434" lon="3.12572">
        <ele>703.40002441406</ele>
        <time>2020-10-03T08:48:30.000Z</time>
      </trkpt>
      <trkpt lat="44.14341" lon="3.1257">
        <ele>702.40002441406</ele>
        <time>2020-10-03T08:48:31.000Z</time>
      </trkpt>
      <trkpt lat="44.14341" lon="3.12569">
        <ele>701.40002441406</ele>
        <time>2020-10-03T08:48:32.000Z</time>
      </trkpt>
      <trkpt lat="44.14341" lon="3.12562">
        <ele>699.79998779297</ele>
        <time>2020-10-03T08:48:34.000Z</time>
      </trkpt>
      <trkpt lat="44.14338" lon="3.12553">
        <ele>698</ele>
        <time>2020-10-03T08:48:36.000Z</time>
      </trkpt>
      <trkpt lat="44.14335" lon="3.12544">
        <ele>696.40002441406</ele>
        <time>2020-10-03T08:48:38.000Z</time>
      </trkpt>
      <trkpt lat="44.14334" lon="3.1254">
        <ele>695.59997558594</ele>
        <time>2020-10-03T08:48:39.000Z</time>
      </trkpt>
      <trkpt lat="44.14333" lon="3.12535">
        <ele>695.20001220703</ele>
        <time>2020-10-03T08:48:40.000Z</time>
      </trkpt>
      <trkpt lat="44.1433" lon="3.12527">
        <ele>694.59997558594</ele>
        <time>2020-10-03T08:48:42.000Z</time>
      </trkpt>
      <trkpt lat="44.14331" lon="3.12518">
        <ele>694.40002441406</ele>
        <time>2020-10-03T08:48:44.000Z</time>
      </trkpt>
      <trkpt lat="44.14335" lon="3.12511">
        <ele>694.20001220703</ele>
        <time>2020-10-03T08:48:46.000Z</time>
      </trkpt>
      <trkpt lat="44.14339" lon="3.12508">
        <ele>694.20001220703</ele>
        <time>2020-10-03T08:48:47.000Z</time>
      </trkpt>
      <trkpt lat="44.14343" lon="3.12504">
        <ele>693.79998779297</ele>
        <time>2020-10-03T08:48:48.000Z</time>
      </trkpt>
      <trkpt lat="44.14347" lon="3.125">
        <ele>693.79998779297</ele>
        <time>2020-10-03T08:48:49.000Z</time>
      </trkpt>
      <trkpt lat="44.1435" lon="3.12496">
        <ele>693.59997558594</ele>
        <time>2020-10-03T08:48:50.000Z</time>
      </trkpt>
      <trkpt lat="44.14353" lon="3.12491">
        <ele>693.40002441406</ele>
        <time>2020-10-03T08:48:51.000Z</time>
      </trkpt>
      <trkpt lat="44.14355" lon="3.12485">
        <ele>693.20001220703</ele>
        <time>2020-10-03T08:48:52.000Z</time>
      </trkpt>
      <trkpt lat="44.14361" lon="3.12475">
        <ele>692.40002441406</ele>
        <time>2020-10-03T08:48:54.000Z</time>
      </trkpt>
      <trkpt lat="44.14365" lon="3.12464">
        <ele>690.59997558594</ele>
        <time>2020-10-03T08:48:56.000Z</time>
      </trkpt>
      <trkpt lat="44.14367" lon="3.12458">
        <ele>688.79998779297</ele>
        <time>2020-10-03T08:48:57.000Z</time>
      </trkpt>
      <trkpt lat="44.14368" lon="3.12453">
        <ele>688</ele>
        <time>2020-10-03T08:48:58.000Z</time>
      </trkpt>
      <trkpt lat="44.14369" lon="3.12448">
        <ele>687.20001220703</ele>
        <time>2020-10-03T08:48:59.000Z</time>
      </trkpt>
      <trkpt lat="44.1437" lon="3.12442">
        <ele>686</ele>
        <time>2020-10-03T08:49:00.000Z</time>
      </trkpt>
      <trkpt lat="44.1437" lon="3.12434">
        <ele>684.59997558594</ele>
        <time>2020-10-03T08:49:02.000Z</time>
      </trkpt>
      <trkpt lat="44.1437" lon="3.12425">
        <ele>683.59997558594</ele>
        <time>2020-10-03T08:49:04.000Z</time>
      </trkpt>
      <trkpt lat="44.14369" lon="3.1242">
        <ele>683.40002441406</ele>
        <time>2020-10-03T08:49:05.000Z</time>
      </trkpt>
      <trkpt lat="44.14369" lon="3.12415">
        <ele>683.20001220703</ele>
        <time>2020-10-03T08:49:06.000Z</time>
      </trkpt>
      <trkpt lat="44.14367" lon="3.12404">
        <ele>683</ele>
        <time>2020-10-03T08:49:08.000Z</time>
      </trkpt>
      <trkpt lat="44.14366" lon="3.12394">
        <ele>682.59997558594</ele>
        <time>2020-10-03T08:49:10.000Z</time>
      </trkpt>
      <trkpt lat="44.14364" lon="3.12383">
        <ele>682.40002441406</ele>
        <time>2020-10-03T08:49:12.000Z</time>
      </trkpt>
      <trkpt lat="44.14363" lon="3.12378">
        <ele>682.40002441406</ele>
        <time>2020-10-03T08:49:13.000Z</time>
      </trkpt>
      <trkpt lat="44.14363" lon="3.12371">
        <ele>682.20001220703</ele>
        <time>2020-10-03T08:49:14.000Z</time>
      </trkpt>
      <trkpt lat="44.14364" lon="3.12364">
        <ele>682</ele>
        <time>2020-10-03T08:49:15.000Z</time>
      </trkpt>
      <trkpt lat="44.14364" lon="3.12357">
        <ele>681.79998779297</ele>
        <time>2020-10-03T08:49:16.000Z</time>
      </trkpt>
      <trkpt lat="44.14365" lon="3.1235">
        <ele>681.59997558594</ele>
        <time>2020-10-03T08:49:17.000Z</time>
      </trkpt>
      <trkpt lat="44.14365" lon="3.12343">
        <ele>681.40002441406</ele>
        <time>2020-10-03T08:49:18.000Z</time>
      </trkpt>
      <trkpt lat="44.14362" lon="3.12328">
        <ele>680.59997558594</ele>
        <time>2020-10-03T08:49:20.000Z</time>
      </trkpt>
      <trkpt lat="44.14361" lon="3.12319">
        <ele>680.59997558594</ele>
        <time>2020-10-03T08:49:21.000Z</time>
      </trkpt>
      <trkpt lat="44.14359" lon="3.12309">
        <ele>680.20001220703</ele>
        <time>2020-10-03T08:49:22.000Z</time>
      </trkpt>
      <trkpt lat="44.14356" lon="3.12299">
        <ele>679.59997558594</ele>
        <time>2020-10-03T08:49:23.000Z</time>
      </trkpt>
      <trkpt lat="44.14355" lon="3.12291">
        <ele>678.59997558594</ele>
        <time>2020-10-03T08:49:24.000Z</time>
      </trkpt>
      <trkpt lat="44.14352" lon="3.12284">
        <ele>677.20001220703</ele>
        <time>2020-10-03T08:49:25.000Z</time>
      </trkpt>
      <trkpt lat="44.14351" lon="3.12278">
        <ele>674.59997558594</ele>
        <time>2020-10-03T08:49:26.000Z</time>
      </trkpt>
      <trkpt lat="44.1435" lon="3.12273">
        <ele>673.59997558594</ele>
        <time>2020-10-03T08:49:27.000Z</time>
      </trkpt>
      <trkpt lat="44.1435" lon="3.12269">
        <ele>672.79998779297</ele>
        <time>2020-10-03T08:49:28.000Z</time>
      </trkpt>
      <trkpt lat="44.14349" lon="3.12265">
        <ele>672.40002441406</ele>
        <time>2020-10-03T08:49:29.000Z</time>
      </trkpt>
      <trkpt lat="44.14348" lon="3.12262">
        <ele>672.20001220703</ele>
        <time>2020-10-03T08:49:30.000Z</time>
      </trkpt>
      <trkpt lat="44.14347" lon="3.12255">
        <ele>672</ele>
        <time>2020-10-03T08:49:32.000Z</time>
      </trkpt>
      <trkpt lat="44.14347" lon="3.12248">
        <ele>671.79998779297</ele>
        <time>2020-10-03T08:49:34.000Z</time>
      </trkpt>
      <trkpt lat="44.14346" lon="3.12241">
        <ele>671.79998779297</ele>
        <time>2020-10-03T08:49:36.000Z</time>
      </trkpt>
      <trkpt lat="44.14346" lon="3.12233">
        <ele>671.79998779297</ele>
        <time>2020-10-03T08:49:38.000Z</time>
      </trkpt>
      <trkpt lat="44.14347" lon="3.12224">
        <ele>672.40002441406</ele>
        <time>2020-10-03T08:49:40.000Z</time>
      </trkpt>
      <trkpt lat="44.14349" lon="3.12215">
        <ele>673</ele>
        <time>2020-10-03T08:49:42.000Z</time>
      </trkpt>
      <trkpt lat="44.1435" lon="3.12207">
        <ele>673.20001220703</ele>
        <time>2020-10-03T08:49:44.000Z</time>
      </trkpt>
      <trkpt lat="44.14351" lon="3.12198">
        <ele>673.40002441406</ele>
        <time>2020-10-03T08:49:46.000Z</time>
      </trkpt>
      <trkpt lat="44.14351" lon="3.12189">
        <ele>673.59997558594</ele>
        <time>2020-10-03T08:49:48.000Z</time>
      </trkpt>
      <trkpt lat="44.1435" lon="3.12181">
        <ele>673.59997558594</ele>
        <time>2020-10-03T08:49:50.000Z</time>
      </trkpt>
      <trkpt lat="44.1435" lon="3.12173">
        <ele>673.79998779297</ele>
        <time>2020-10-03T08:49:52.000Z</time>
      </trkpt>
      <trkpt lat="44.14349" lon="3.12166">
        <ele>673.79998779297</ele>
        <time>2020-10-03T08:49:54.000Z</time>
      </trkpt>
      <trkpt lat="44.14348" lon="3.1216">
        <ele>674.20001220703</ele>
        <time>2020-10-03T08:49:56.000Z</time>
      </trkpt>
      <trkpt lat="44.14348" lon="3.12154">
        <ele>674.40002441406</ele>
        <time>2020-10-03T08:49:58.000Z</time>
      </trkpt>
      <trkpt lat="44.14347" lon="3.12148">
        <ele>674.59997558594</ele>
        <time>2020-10-03T08:50:00.000Z</time>
      </trkpt>
      <trkpt lat="44.14347" lon="3.12142">
        <ele>675.40002441406</ele>
        <time>2020-10-03T08:50:02.000Z</time>
      </trkpt>
      <trkpt lat="44.14347" lon="3.12136">
        <ele>676.40002441406</ele>
        <time>2020-10-03T08:50:04.000Z</time>
      </trkpt>
      <trkpt lat="44.14346" lon="3.12132">
        <ele>677.20001220703</ele>
        <time>2020-10-03T08:50:06.000Z</time>
      </trkpt>
      <trkpt lat="44.14346" lon="3.12129">
        <ele>677.79998779297</ele>
        <time>2020-10-03T08:50:07.000Z</time>
      </trkpt>
      <trkpt lat="44.14346" lon="3.12127">
        <ele>678.40002441406</ele>
        <time>2020-10-03T08:50:08.000Z</time>
      </trkpt>
      <trkpt lat="44.14347" lon="3.12124">
        <ele>678.79998779297</ele>
        <time>2020-10-03T08:50:09.000Z</time>
      </trkpt>
      <trkpt lat="44.14348" lon="3.12122">
        <ele>679</ele>
        <time>2020-10-03T08:50:10.000Z</time>
      </trkpt>
      <trkpt lat="44.14348" lon="3.12119">
        <ele>679.20001220703</ele>
        <time>2020-10-03T08:50:11.000Z</time>
      </trkpt>
      <trkpt lat="44.14349" lon="3.12117">
        <ele>679.20001220703</ele>
        <time>2020-10-03T08:50:12.000Z</time>
      </trkpt>
      <trkpt lat="44.14352" lon="3.12113">
        <ele>679.40002441406</ele>
        <time>2020-10-03T08:50:14.000Z</time>
      </trkpt>
      <trkpt lat="44.14353" lon="3.12109">
        <ele>679.40002441406</ele>
        <time>2020-10-03T08:50:16.000Z</time>
      </trkpt>
      <trkpt lat="44.14355" lon="3.12105">
        <ele>679.59997558594</ele>
        <time>2020-10-03T08:50:18.000Z</time>
      </trkpt>
      <trkpt lat="44.14357" lon="3.12101">
        <ele>679.79998779297</ele>
        <time>2020-10-03T08:50:20.000Z</time>
      </trkpt>
      <trkpt lat="44.14359" lon="3.121">
        <ele>679.79998779297</ele>
        <time>2020-10-03T08:50:21.000Z</time>
      </trkpt>
      <trkpt lat="44.1436" lon="3.12098">
        <ele>679.79998779297</ele>
        <time>2020-10-03T08:50:22.000Z</time>
      </trkpt>
      <trkpt lat="44.14363" lon="3.12095">
        <ele>680</ele>
        <time>2020-10-03T08:50:24.000Z</time>
      </trkpt>
      <trkpt lat="44.14366" lon="3.12093">
        <ele>680.40002441406</ele>
        <time>2020-10-03T08:50:26.000Z</time>
      </trkpt>
      <trkpt lat="44.14368" lon="3.12091">
        <ele>680.79998779297</ele>
        <time>2020-10-03T08:50:28.000Z</time>
      </trkpt>
      <trkpt lat="44.1437" lon="3.12089">
        <ele>681.20001220703</ele>
        <time>2020-10-03T08:50:30.000Z</time>
      </trkpt>
      <trkpt lat="44.14372" lon="3.12088">
        <ele>681.79998779297</ele>
        <time>2020-10-03T08:50:32.000Z</time>
      </trkpt>
      <trkpt lat="44.14373" lon="3.12087">
        <ele>682</ele>
        <time>2020-10-03T08:50:33.000Z</time>
      </trkpt>
      <trkpt lat="44.14374" lon="3.12086">
        <ele>682.20001220703</ele>
        <time>2020-10-03T08:50:34.000Z</time>
      </trkpt>
      <trkpt lat="44.14376" lon="3.12084">
        <ele>682.59997558594</ele>
        <time>2020-10-03T08:50:36.000Z</time>
      </trkpt>
      <trkpt lat="44.14377" lon="3.12082">
        <ele>683</ele>
        <time>2020-10-03T08:50:38.000Z</time>
      </trkpt>
      <trkpt lat="44.14378" lon="3.12079">
        <ele>683.40002441406</ele>
        <time>2020-10-03T08:50:40.000Z</time>
      </trkpt>
      <trkpt lat="44.14378" lon="3.12076">
        <ele>683.59997558594</ele>
        <time>2020-10-03T08:50:42.000Z</time>
      </trkpt>
      <trkpt lat="44.14378" lon="3.12073">
        <ele>683.79998779297</ele>
        <time>2020-10-03T08:50:43.000Z</time>
      </trkpt>
      <trkpt lat="44.14378" lon="3.12072">
        <ele>684</ele>
        <time>2020-10-03T08:50:44.000Z</time>
      </trkpt>
      <trkpt lat="44.14377" lon="3.12067">
        <ele>684</ele>
        <time>2020-10-03T08:50:46.000Z</time>
      </trkpt>
      <trkpt lat="44.14375" lon="3.12063">
        <ele>684.20001220703</ele>
        <time>2020-10-03T08:50:48.000Z</time>
      </trkpt>
      <trkpt lat="44.14373" lon="3.1206">
        <ele>684.59997558594</ele>
        <time>2020-10-03T08:50:50.000Z</time>
      </trkpt>
      <trkpt lat="44.14373" lon="3.12059">
        <ele>684.59997558594</ele>
        <time>2020-10-03T08:50:52.000Z</time>
      </trkpt>
      <trkpt lat="44.14373" lon="3.12059">
        <ele>684.79998779297</ele>
        <time>2020-10-03T08:50:54.000Z</time>
      </trkpt>
      <trkpt lat="44.14373" lon="3.12059">
        <ele>684.79998779297</ele>
        <time>2020-10-03T08:50:55.000Z</time>
      </trkpt>
      <trkpt lat="44.14373" lon="3.12059">
        <ele>684.79998779297</ele>
        <time>2020-10-03T08:50:56.000Z</time>
      </trkpt>
      <trkpt lat="44.14373" lon="3.12059">
        <ele>684.79998779297</ele>
        <time>2020-10-03T08:50:58.000Z</time>
      </trkpt>
      <trkpt lat="44.14373" lon="3.12059">
        <ele>684.79998779297</ele>
        <time>2020-10-03T08:51:00.000Z</time>
      </trkpt>
      <trkpt lat="44.14373" lon="3.12059">
        <ele>684.79998779297</ele>
        <time>2020-10-03T08:51:02.000Z</time>
      </trkpt>
      <trkpt lat="44.14373" lon="3.12058">
        <ele>684.79998779297</ele>
        <time>2020-10-03T08:51:04.000Z</time>
      </trkpt>
      <trkpt lat="44.14373" lon="3.12058">
        <ele>684.79998779297</ele>
        <time>2020-10-03T08:51:06.000Z</time>
      </trkpt>
      <trkpt lat="44.14373" lon="3.12058">
        <ele>685</ele>
        <time>2020-10-03T08:51:08.000Z</time>
      </trkpt>
      <trkpt lat="44.14373" lon="3.12058">
        <ele>685</ele>
        <time>2020-10-03T08:51:10.000Z</time>
      </trkpt>
      <trkpt lat="44.14373" lon="3.12058">
        <ele>685</ele>
        <time>2020-10-03T08:51:12.000Z</time>
      </trkpt>
      <trkpt lat="44.14373" lon="3.12058">
        <ele>684.79998779297</ele>
        <time>2020-10-03T08:51:14.000Z</time>
      </trkpt>
      <trkpt lat="44.14373" lon="3.12058">
        <ele>684.79998779297</ele>
        <time>2020-10-03T08:51:16.000Z</time>
      </trkpt>
      <trkpt lat="44.14373" lon="3.12058">
        <ele>684.79998779297</ele>
        <time>2020-10-03T08:51:18.000Z</time>
      </trkpt>
      <trkpt lat="44.14373" lon="3.12058">
        <ele>684.79998779297</ele>
        <time>2020-10-03T08:51:20.000Z</time>
      </trkpt>
      <trkpt lat="44.14373" lon="3.12058">
        <ele>684.59997558594</ele>
        <time>2020-10-03T08:51:22.000Z</time>
      </trkpt>
      <trkpt lat="44.14373" lon="3.12058">
        <ele>684.59997558594</ele>
        <time>2020-10-03T08:51:24.000Z</time>
      </trkpt>
      <trkpt lat="44.14373" lon="3.12058">
        <ele>684.59997558594</ele>
        <time>2020-10-03T08:51:26.000Z</time>
      </trkpt>
      <trkpt lat="44.14373" lon="3.12058">
        <ele>684.59997558594</ele>
        <time>2020-10-03T08:51:28.000Z</time>
      </trkpt>
      <trkpt lat="44.14373" lon="3.12058">
        <ele>684.59997558594</ele>
        <time>2020-10-03T08:51:30.000Z</time>
      </trkpt>
      <trkpt lat="44.14373" lon="3.12058">
        <ele>684.59997558594</ele>
        <time>2020-10-03T08:51:32.000Z</time>
      </trkpt>
      <trkpt lat="44.14373" lon="3.12059">
        <ele>684.40002441406</ele>
        <time>2020-10-03T08:51:34.000Z</time>
      </trkpt>
      <trkpt lat="44.14373" lon="3.12059">
        <ele>684.40002441406</ele>
        <time>2020-10-03T08:51:36.000Z</time>
      </trkpt>
      <trkpt lat="44.14373" lon="3.12059">
        <ele>684.40002441406</ele>
        <time>2020-10-03T08:51:38.000Z</time>
      </trkpt>
      <trkpt lat="44.14373" lon="3.12059">
        <ele>684.40002441406</ele>
        <time>2020-10-03T08:51:40.000Z</time>
      </trkpt>
      <trkpt lat="44.14373" lon="3.12059">
        <ele>684.59997558594</ele>
        <time>2020-10-03T08:51:42.000Z</time>
      </trkpt>
      <trkpt lat="44.14373" lon="3.12059">
        <ele>684.59997558594</ele>
        <time>2020-10-03T08:51:44.000Z</time>
      </trkpt>
      <trkpt lat="44.14373" lon="3.12059">
        <ele>684.59997558594</ele>
        <time>2020-10-03T08:51:46.000Z</time>
      </trkpt>
      <trkpt lat="44.14373" lon="3.12059">
        <ele>684.59997558594</ele>
        <time>2020-10-03T08:51:48.000Z</time>
      </trkpt>
      <trkpt lat="44.14373" lon="3.12059">
        <ele>684.40002441406</ele>
        <time>2020-10-03T08:51:50.000Z</time>
      </trkpt>
      <trkpt lat="44.14373" lon="3.12059">
        <ele>684.40002441406</ele>
        <time>2020-10-03T08:51:52.000Z</time>
      </trkpt>
      <trkpt lat="44.14373" lon="3.12059">
        <ele>684.40002441406</ele>
        <time>2020-10-03T08:51:54.000Z</time>
      </trkpt>
      <trkpt lat="44.14373" lon="3.12059">
        <ele>684.59997558594</ele>
        <time>2020-10-03T08:51:56.000Z</time>
      </trkpt>
      <trkpt lat="44.14373" lon="3.12059">
        <ele>684.59997558594</ele>
        <time>2020-10-03T08:51:57.000Z</time>
      </trkpt>
      <trkpt lat="44.14373" lon="3.12059">
        <ele>684.59997558594</ele>
        <time>2020-10-03T08:51:58.000Z</time>
      </trkpt>
      <trkpt lat="44.14373" lon="3.12059">
        <ele>684.79998779297</ele>
        <time>2020-10-03T08:52:00.000Z</time>
      </trkpt>
      <trkpt lat="44.14373" lon="3.12059">
        <ele>684.79998779297</ele>
        <time>2020-10-03T08:52:02.000Z</time>
      </trkpt>
      <trkpt lat="44.14373" lon="3.12059">
        <ele>685</ele>
        <time>2020-10-03T08:52:04.000Z</time>
      </trkpt>
      <trkpt lat="44.14373" lon="3.12059">
        <ele>685</ele>
        <time>2020-10-03T08:52:06.000Z</time>
      </trkpt>
      <trkpt lat="44.14373" lon="3.12059">
        <ele>685</ele>
        <time>2020-10-03T08:52:08.000Z</time>
      </trkpt>
      <trkpt lat="44.14373" lon="3.12059">
        <ele>685</ele>
        <time>2020-10-03T08:52:10.000Z</time>
      </trkpt>
      <trkpt lat="44.14373" lon="3.12059">
        <ele>685.20001220703</ele>
        <time>2020-10-03T08:52:12.000Z</time>
      </trkpt>
      <trkpt lat="44.14373" lon="3.12059">
        <ele>685.20001220703</ele>
        <time>2020-10-03T08:52:14.000Z</time>
      </trkpt>
      <trkpt lat="44.14373" lon="3.12059">
        <ele>685.20001220703</ele>
        <time>2020-10-03T08:52:16.000Z</time>
      </trkpt>
      <trkpt lat="44.14373" lon="3.12058">
        <ele>685.20001220703</ele>
        <time>2020-10-03T08:52:18.000Z</time>
      </trkpt>
      <trkpt lat="44.14374" lon="3.12057">
        <ele>685.20001220703</ele>
        <time>2020-10-03T08:52:20.000Z</time>
      </trkpt>
      <trkpt lat="44.14375" lon="3.12056">
        <ele>685.20001220703</ele>
        <time>2020-10-03T08:52:22.000Z</time>
      </trkpt>
      <trkpt lat="44.14375" lon="3.12056">
        <ele>685.20001220703</ele>
        <time>2020-10-03T08:52:23.000Z</time>
      </trkpt>
      <trkpt lat="44.14376" lon="3.12055">
        <ele>685.20001220703</ele>
        <time>2020-10-03T08:52:24.000Z</time>
      </trkpt>
      <trkpt lat="44.14376" lon="3.12054">
        <ele>685.20001220703</ele>
        <time>2020-10-03T08:52:26.000Z</time>
      </trkpt>
      <trkpt lat="44.14377" lon="3.12053">
        <ele>685</ele>
        <time>2020-10-03T08:52:28.000Z</time>
      </trkpt>
      <trkpt lat="44.14377" lon="3.12051">
        <ele>685</ele>
        <time>2020-10-03T08:52:30.000Z</time>
      </trkpt>
      <trkpt lat="44.14376" lon="3.1205">
        <ele>685</ele>
        <time>2020-10-03T08:52:32.000Z</time>
      </trkpt>
      <trkpt lat="44.14377" lon="3.1205">
        <ele>684.79998779297</ele>
        <time>2020-10-03T08:52:34.000Z</time>
      </trkpt>
      <trkpt lat="44.14377" lon="3.12049">
        <ele>684.59997558594</ele>
        <time>2020-10-03T08:52:36.000Z</time>
      </trkpt>
      <trkpt lat="44.14378" lon="3.12049">
        <ele>684.59997558594</ele>
        <time>2020-10-03T08:52:38.000Z</time>
      </trkpt>
      <trkpt lat="44.14378" lon="3.12049">
        <ele>684.59997558594</ele>
        <time>2020-10-03T08:52:39.000Z</time>
      </trkpt>
      <trkpt lat="44.14378" lon="3.12049">
        <ele>684.59997558594</ele>
        <time>2020-10-03T08:52:40.000Z</time>
      </trkpt>
      <trkpt lat="44.14378" lon="3.12048">
        <ele>684.59997558594</ele>
        <time>2020-10-03T08:52:42.000Z</time>
      </trkpt>
      <trkpt lat="44.14379" lon="3.12048">
        <ele>684.59997558594</ele>
        <time>2020-10-03T08:52:44.000Z</time>
      </trkpt>
      <trkpt lat="44.14379" lon="3.12047">
        <ele>684.59997558594</ele>
        <time>2020-10-03T08:52:46.000Z</time>
      </trkpt>
      <trkpt lat="44.14379" lon="3.12047">
        <ele>684.59997558594</ele>
        <time>2020-10-03T08:52:48.000Z</time>
      </trkpt>
      <trkpt lat="44.14379" lon="3.12047">
        <ele>684.59997558594</ele>
        <time>2020-10-03T08:52:50.000Z</time>
      </trkpt>
      <trkpt lat="44.14379" lon="3.12047">
        <ele>684.59997558594</ele>
        <time>2020-10-03T08:52:52.000Z</time>
      </trkpt>
      <trkpt lat="44.14379" lon="3.12047">
        <ele>684.59997558594</ele>
        <time>2020-10-03T08:52:54.000Z</time>
      </trkpt>
      <trkpt lat="44.14379" lon="3.12046">
        <ele>684.59997558594</ele>
        <time>2020-10-03T08:52:56.000Z</time>
      </trkpt>
      <trkpt lat="44.1438" lon="3.12046">
        <ele>684.59997558594</ele>
        <time>2020-10-03T08:52:58.000Z</time>
      </trkpt>
      <trkpt lat="44.1438" lon="3.12046">
        <ele>684.40002441406</ele>
        <time>2020-10-03T08:53:00.000Z</time>
      </trkpt>
      <trkpt lat="44.1438" lon="3.12046">
        <ele>684.40002441406</ele>
        <time>2020-10-03T08:53:02.000Z</time>
      </trkpt>
      <trkpt lat="44.1438" lon="3.12046">
        <ele>684.40002441406</ele>
        <time>2020-10-03T08:53:04.000Z</time>
      </trkpt>
      <trkpt lat="44.1438" lon="3.12046">
        <ele>684</ele>
        <time>2020-10-03T08:53:06.000Z</time>
      </trkpt>
      <trkpt lat="44.1438" lon="3.12046">
        <ele>683.79998779297</ele>
        <time>2020-10-03T08:53:08.000Z</time>
      </trkpt>
      <trkpt lat="44.1438" lon="3.12046">
        <ele>683.40002441406</ele>
        <time>2020-10-03T08:53:10.000Z</time>
      </trkpt>
      <trkpt lat="44.1438" lon="3.12046">
        <ele>683</ele>
        <time>2020-10-03T08:53:11.000Z</time>
      </trkpt>
      <trkpt lat="44.1438" lon="3.12046">
        <ele>683</ele>
        <time>2020-10-03T08:53:12.000Z</time>
      </trkpt>
      <trkpt lat="44.14381" lon="3.12046">
        <ele>682.79998779297</ele>
        <time>2020-10-03T08:53:14.000Z</time>
      </trkpt>
      <trkpt lat="44.14381" lon="3.12046">
        <ele>682.59997558594</ele>
        <time>2020-10-03T08:53:16.000Z</time>
      </trkpt>
      <trkpt lat="44.14381" lon="3.12046">
        <ele>682.59997558594</ele>
        <time>2020-10-03T08:53:18.000Z</time>
      </trkpt>
      <trkpt lat="44.14381" lon="3.12046">
        <ele>682.59997558594</ele>
        <time>2020-10-03T08:53:20.000Z</time>
      </trkpt>
      <trkpt lat="44.14382" lon="3.12046">
        <ele>682.59997558594</ele>
        <time>2020-10-03T08:53:22.000Z</time>
      </trkpt>
      <trkpt lat="44.14382" lon="3.12046">
        <ele>682.59997558594</ele>
        <time>2020-10-03T08:53:24.000Z</time>
      </trkpt>
      <trkpt lat="44.14382" lon="3.12046">
        <ele>682.79998779297</ele>
        <time>2020-10-03T08:53:26.000Z</time>
      </trkpt>
      <trkpt lat="44.14382" lon="3.12046">
        <ele>683</ele>
        <time>2020-10-03T08:53:28.000Z</time>
      </trkpt>
      <trkpt lat="44.14382" lon="3.12046">
        <ele>683.20001220703</ele>
        <time>2020-10-03T08:53:30.000Z</time>
      </trkpt>
      <trkpt lat="44.14383" lon="3.12046">
        <ele>683.40002441406</ele>
        <time>2020-10-03T08:53:32.000Z</time>
      </trkpt>
      <trkpt lat="44.14383" lon="3.12046">
        <ele>683.40002441406</ele>
        <time>2020-10-03T08:53:34.000Z</time>
      </trkpt>
      <trkpt lat="44.14384" lon="3.12046">
        <ele>683.40002441406</ele>
        <time>2020-10-03T08:53:36.000Z</time>
      </trkpt>
      <trkpt lat="44.14384" lon="3.12046">
        <ele>683.40002441406</ele>
        <time>2020-10-03T08:53:38.000Z</time>
      </trkpt>
      <trkpt lat="44.14385" lon="3.12046">
        <ele>683.59997558594</ele>
        <time>2020-10-03T08:53:40.000Z</time>
      </trkpt>
      <trkpt lat="44.14385" lon="3.12046">
        <ele>683.79998779297</ele>
        <time>2020-10-03T08:53:42.000Z</time>
      </trkpt>
      <trkpt lat="44.14385" lon="3.12046">
        <ele>684</ele>
        <time>2020-10-03T08:53:44.000Z</time>
      </trkpt>
      <trkpt lat="44.14385" lon="3.12045">
        <ele>684.20001220703</ele>
        <time>2020-10-03T08:53:46.000Z</time>
      </trkpt>
      <trkpt lat="44.14385" lon="3.12044">
        <ele>684</ele>
        <time>2020-10-03T08:53:48.000Z</time>
      </trkpt>
      <trkpt lat="44.14385" lon="3.12044">
        <ele>684</ele>
        <time>2020-10-03T08:53:50.000Z</time>
      </trkpt>
      <trkpt lat="44.14385" lon="3.12044">
        <ele>684</ele>
        <time>2020-10-03T08:53:52.000Z</time>
      </trkpt>
      <trkpt lat="44.14385" lon="3.12044">
        <ele>684</ele>
        <time>2020-10-03T08:53:54.000Z</time>
      </trkpt>
      <trkpt lat="44.14385" lon="3.12044">
        <ele>684</ele>
        <time>2020-10-03T08:53:55.000Z</time>
      </trkpt>
      <trkpt lat="44.14385" lon="3.12044">
        <ele>684</ele>
        <time>2020-10-03T08:53:56.000Z</time>
      </trkpt>
      <trkpt lat="44.14385" lon="3.12044">
        <ele>684</ele>
        <time>2020-10-03T08:53:58.000Z</time>
      </trkpt>
      <trkpt lat="44.14386" lon="3.12044">
        <ele>684</ele>
        <time>2020-10-03T08:54:00.000Z</time>
      </trkpt>
      <trkpt lat="44.14386" lon="3.12044">
        <ele>684</ele>
        <time>2020-10-03T08:54:02.000Z</time>
      </trkpt>
      <trkpt lat="44.14386" lon="3.12044">
        <ele>684</ele>
        <time>2020-10-03T08:54:04.000Z</time>
      </trkpt>
      <trkpt lat="44.14386" lon="3.12044">
        <ele>684.20001220703</ele>
        <time>2020-10-03T08:54:06.000Z</time>
      </trkpt>
      <trkpt lat="44.14386" lon="3.12044">
        <ele>684.20001220703</ele>
        <time>2020-10-03T08:54:08.000Z</time>
      </trkpt>
      <trkpt lat="44.14386" lon="3.12043">
        <ele>684.20001220703</ele>
        <time>2020-10-03T08:54:10.000Z</time>
      </trkpt>
      <trkpt lat="44.14386" lon="3.12043">
        <ele>684.20001220703</ele>
        <time>2020-10-03T08:54:12.000Z</time>
      </trkpt>
      <trkpt lat="44.14386" lon="3.12043">
        <ele>684</ele>
        <time>2020-10-03T08:54:14.000Z</time>
      </trkpt>
      <trkpt lat="44.14386" lon="3.12043">
        <ele>684</ele>
        <time>2020-10-03T08:54:16.000Z</time>
      </trkpt>
      <trkpt lat="44.14386" lon="3.12043">
        <ele>684</ele>
        <time>2020-10-03T08:54:18.000Z</time>
      </trkpt>
      <trkpt lat="44.14386" lon="3.12042">
        <ele>684</ele>
        <time>2020-10-03T08:54:20.000Z</time>
      </trkpt>
      <trkpt lat="44.14386" lon="3.12042">
        <ele>684</ele>
        <time>2020-10-03T08:54:22.000Z</time>
      </trkpt>
      <trkpt lat="44.14387" lon="3.12042">
        <ele>684</ele>
        <time>2020-10-03T08:54:24.000Z</time>
      </trkpt>
      <trkpt lat="44.14387" lon="3.12042">
        <ele>684</ele>
        <time>2020-10-03T08:54:26.000Z</time>
      </trkpt>
      <trkpt lat="44.14387" lon="3.12042">
        <ele>684</ele>
        <time>2020-10-03T08:54:28.000Z</time>
      </trkpt>
      <trkpt lat="44.14387" lon="3.12042">
        <ele>684</ele>
        <time>2020-10-03T08:54:30.000Z</time>
      </trkpt>
      <trkpt lat="44.14387" lon="3.12042">
        <ele>684</ele>
        <time>2020-10-03T08:54:32.000Z</time>
      </trkpt>
      <trkpt lat="44.14387" lon="3.12042">
        <ele>684</ele>
        <time>2020-10-03T08:54:34.000Z</time>
      </trkpt>
      <trkpt lat="44.14388" lon="3.12042">
        <ele>684</ele>
        <time>2020-10-03T08:54:35.000Z</time>
      </trkpt>
      <trkpt lat="44.14388" lon="3.12042">
        <ele>684</ele>
        <time>2020-10-03T08:54:36.000Z</time>
      </trkpt>
      <trkpt lat="44.14388" lon="3.12043">
        <ele>683.79998779297</ele>
        <time>2020-10-03T08:54:38.000Z</time>
      </trkpt>
      <trkpt lat="44.14388" lon="3.12042">
        <ele>684</ele>
        <time>2020-10-03T08:54:40.000Z</time>
      </trkpt>
      <trkpt lat="44.14388" lon="3.12042">
        <ele>684</ele>
        <time>2020-10-03T08:54:42.000Z</time>
      </trkpt>
      <trkpt lat="44.14388" lon="3.12042">
        <ele>684.20001220703</ele>
        <time>2020-10-03T08:54:44.000Z</time>
      </trkpt>
      <trkpt lat="44.14388" lon="3.12043">
        <ele>684.20001220703</ele>
        <time>2020-10-03T08:54:46.000Z</time>
      </trkpt>
      <trkpt lat="44.14388" lon="3.12043">
        <ele>684.40002441406</ele>
        <time>2020-10-03T08:54:48.000Z</time>
      </trkpt>
      <trkpt lat="44.14388" lon="3.12042">
        <ele>684.40002441406</ele>
        <time>2020-10-03T08:54:50.000Z</time>
      </trkpt>
      <trkpt lat="44.14389" lon="3.12038">
        <ele>684.40002441406</ele>
        <time>2020-10-03T08:54:52.000Z</time>
      </trkpt>
      <trkpt lat="44.14389" lon="3.12036">
        <ele>684.40002441406</ele>
        <time>2020-10-03T08:54:53.000Z</time>
      </trkpt>
      <trkpt lat="44.14388" lon="3.12032">
        <ele>684.40002441406</ele>
        <time>2020-10-03T08:54:54.000Z</time>
      </trkpt>
      <trkpt lat="44.14386" lon="3.12022">
        <ele>684.40002441406</ele>
        <time>2020-10-03T08:54:56.000Z</time>
      </trkpt>
      <trkpt lat="44.14385" lon="3.12017">
        <ele>684.40002441406</ele>
        <time>2020-10-03T08:54:57.000Z</time>
      </trkpt>
      <trkpt lat="44.14384" lon="3.12011">
        <ele>684.40002441406</ele>
        <time>2020-10-03T08:54:58.000Z</time>
      </trkpt>
      <trkpt lat="44.14383" lon="3.12005">
        <ele>684.20001220703</ele>
        <time>2020-10-03T08:54:59.000Z</time>
      </trkpt>
      <trkpt lat="44.14382" lon="3.11999">
        <ele>684</ele>
        <time>2020-10-03T08:55:00.000Z</time>
      </trkpt>
      <trkpt lat="44.14383" lon="3.11984">
        <ele>682</ele>
        <time>2020-10-03T08:55:02.000Z</time>
      </trkpt>
      <trkpt lat="44.14384" lon="3.1197">
        <ele>681</ele>
        <time>2020-10-03T08:55:04.000Z</time>
      </trkpt>
      <trkpt lat="44.14387" lon="3.11957">
        <ele>680.20001220703</ele>
        <time>2020-10-03T08:55:06.000Z</time>
      </trkpt>
      <trkpt lat="44.14389" lon="3.11951">
        <ele>679.59997558594</ele>
        <time>2020-10-03T08:55:07.000Z</time>
      </trkpt>
      <trkpt lat="44.1439" lon="3.11945">
        <ele>678.59997558594</ele>
        <time>2020-10-03T08:55:08.000Z</time>
      </trkpt>
      <trkpt lat="44.14391" lon="3.1194">
        <ele>677.59997558594</ele>
        <time>2020-10-03T08:55:09.000Z</time>
      </trkpt>
      <trkpt lat="44.14392" lon="3.11935">
        <ele>676.79998779297</ele>
        <time>2020-10-03T08:55:10.000Z</time>
      </trkpt>
      <trkpt lat="44.14393" lon="3.1193">
        <ele>676</ele>
        <time>2020-10-03T08:55:11.000Z</time>
      </trkpt>
      <trkpt lat="44.14394" lon="3.11924">
        <ele>675.20001220703</ele>
        <time>2020-10-03T08:55:12.000Z</time>
      </trkpt>
      <trkpt lat="44.14396" lon="3.11919">
        <ele>673.59997558594</ele>
        <time>2020-10-03T08:55:13.000Z</time>
      </trkpt>
      <trkpt lat="44.14398" lon="3.11915">
        <ele>672.59997558594</ele>
        <time>2020-10-03T08:55:14.000Z</time>
      </trkpt>
      <trkpt lat="44.144" lon="3.11911">
        <ele>671.79998779297</ele>
        <time>2020-10-03T08:55:15.000Z</time>
      </trkpt>
      <trkpt lat="44.14401" lon="3.11908">
        <ele>671</ele>
        <time>2020-10-03T08:55:16.000Z</time>
      </trkpt>
      <trkpt lat="44.14401" lon="3.11904">
        <ele>670</ele>
        <time>2020-10-03T08:55:17.000Z</time>
      </trkpt>
      <trkpt lat="44.14401" lon="3.11901">
        <ele>669</ele>
        <time>2020-10-03T08:55:18.000Z</time>
      </trkpt>
      <trkpt lat="44.144" lon="3.11897">
        <ele>667.79998779297</ele>
        <time>2020-10-03T08:55:19.000Z</time>
      </trkpt>
      <trkpt lat="44.14398" lon="3.11894">
        <ele>666.79998779297</ele>
        <time>2020-10-03T08:55:20.000Z</time>
      </trkpt>
      <trkpt lat="44.14394" lon="3.11888">
        <ele>665.59997558594</ele>
        <time>2020-10-03T08:55:22.000Z</time>
      </trkpt>
      <trkpt lat="44.14391" lon="3.11885">
        <ele>664.59997558594</ele>
        <time>2020-10-03T08:55:24.000Z</time>
      </trkpt>
      <trkpt lat="44.14389" lon="3.11885">
        <ele>664.20001220703</ele>
        <time>2020-10-03T08:55:25.000Z</time>
      </trkpt>
      <trkpt lat="44.14387" lon="3.11887">
        <ele>663.40002441406</ele>
        <time>2020-10-03T08:55:26.000Z</time>
      </trkpt>
      <trkpt lat="44.14384" lon="3.11889">
        <ele>662.79998779297</ele>
        <time>2020-10-03T08:55:27.000Z</time>
      </trkpt>
      <trkpt lat="44.14382" lon="3.11891">
        <ele>662.20001220703</ele>
        <time>2020-10-03T08:55:28.000Z</time>
      </trkpt>
      <trkpt lat="44.14379" lon="3.11893">
        <ele>661.59997558594</ele>
        <time>2020-10-03T08:55:29.000Z</time>
      </trkpt>
      <trkpt lat="44.14376" lon="3.11893">
        <ele>660.79998779297</ele>
        <time>2020-10-03T08:55:30.000Z</time>
      </trkpt>
      <trkpt lat="44.14374" lon="3.11892">
        <ele>660.40002441406</ele>
        <time>2020-10-03T08:55:31.000Z</time>
      </trkpt>
      <trkpt lat="44.14372" lon="3.11889">
        <ele>659.79998779297</ele>
        <time>2020-10-03T08:55:32.000Z</time>
      </trkpt>
      <trkpt lat="44.14369" lon="3.11885">
        <ele>659.20001220703</ele>
        <time>2020-10-03T08:55:33.000Z</time>
      </trkpt>
      <trkpt lat="44.14367" lon="3.11882">
        <ele>658.59997558594</ele>
        <time>2020-10-03T08:55:34.000Z</time>
      </trkpt>
      <trkpt lat="44.14364" lon="3.11878">
        <ele>657.20001220703</ele>
        <time>2020-10-03T08:55:35.000Z</time>
      </trkpt>
      <trkpt lat="44.1436" lon="3.11874">
        <ele>656.20001220703</ele>
        <time>2020-10-03T08:55:36.000Z</time>
      </trkpt>
      <trkpt lat="44.14357" lon="3.1187">
        <ele>655.40002441406</ele>
        <time>2020-10-03T08:55:37.000Z</time>
      </trkpt>
      <trkpt lat="44.14353" lon="3.11865">
        <ele>654.59997558594</ele>
        <time>2020-10-03T08:55:38.000Z</time>
      </trkpt>
      <trkpt lat="44.14344" lon="3.11856">
        <ele>653</ele>
        <time>2020-10-03T08:55:40.000Z</time>
      </trkpt>
      <trkpt lat="44.14339" lon="3.11853">
        <ele>652</ele>
        <time>2020-10-03T08:55:41.000Z</time>
      </trkpt>
      <trkpt lat="44.14333" lon="3.11849">
        <ele>649.59997558594</ele>
        <time>2020-10-03T08:55:42.000Z</time>
      </trkpt>
      <trkpt lat="44.14329" lon="3.11846">
        <ele>648.40002441406</ele>
        <time>2020-10-03T08:55:43.000Z</time>
      </trkpt>
      <trkpt lat="44.14326" lon="3.11842">
        <ele>647.20001220703</ele>
        <time>2020-10-03T08:55:44.000Z</time>
      </trkpt>
      <trkpt lat="44.14323" lon="3.11839">
        <ele>646.20001220703</ele>
        <time>2020-10-03T08:55:45.000Z</time>
      </trkpt>
      <trkpt lat="44.1432" lon="3.11836">
        <ele>645</ele>
        <time>2020-10-03T08:55:46.000Z</time>
      </trkpt>
      <trkpt lat="44.14316" lon="3.11832">
        <ele>643.59997558594</ele>
        <time>2020-10-03T08:55:47.000Z</time>
      </trkpt>
      <trkpt lat="44.14312" lon="3.11829">
        <ele>642</ele>
        <time>2020-10-03T08:55:48.000Z</time>
      </trkpt>
      <trkpt lat="44.14308" lon="3.11824">
        <ele>640.40002441406</ele>
        <time>2020-10-03T08:55:49.000Z</time>
      </trkpt>
      <trkpt lat="44.14304" lon="3.11818">
        <ele>638.79998779297</ele>
        <time>2020-10-03T08:55:50.000Z</time>
      </trkpt>
      <trkpt lat="44.143" lon="3.11811">
        <ele>637.40002441406</ele>
        <time>2020-10-03T08:55:51.000Z</time>
      </trkpt>
      <trkpt lat="44.14296" lon="3.11802">
        <ele>636.40002441406</ele>
        <time>2020-10-03T08:55:52.000Z</time>
      </trkpt>
      <trkpt lat="44.14292" lon="3.11792">
        <ele>635.79998779297</ele>
        <time>2020-10-03T08:55:53.000Z</time>
      </trkpt>
      <trkpt lat="44.14289" lon="3.11782">
        <ele>634.79998779297</ele>
        <time>2020-10-03T08:55:54.000Z</time>
      </trkpt>
      <trkpt lat="44.14286" lon="3.11773">
        <ele>633.40002441406</ele>
        <time>2020-10-03T08:55:55.000Z</time>
      </trkpt>
      <trkpt lat="44.14284" lon="3.11765">
        <ele>632</ele>
        <time>2020-10-03T08:55:56.000Z</time>
      </trkpt>
      <trkpt lat="44.14283" lon="3.11759">
        <ele>631</ele>
        <time>2020-10-03T08:55:57.000Z</time>
      </trkpt>
      <trkpt lat="44.14281" lon="3.11756">
        <ele>629.59997558594</ele>
        <time>2020-10-03T08:55:58.000Z</time>
      </trkpt>
      <trkpt lat="44.1428" lon="3.11755">
        <ele>628.40002441406</ele>
        <time>2020-10-03T08:55:59.000Z</time>
      </trkpt>
      <trkpt lat="44.14279" lon="3.11756">
        <ele>627.20001220703</ele>
        <time>2020-10-03T08:56:00.000Z</time>
      </trkpt>
      <trkpt lat="44.14278" lon="3.11758">
        <ele>626</ele>
        <time>2020-10-03T08:56:01.000Z</time>
      </trkpt>
      <trkpt lat="44.14277" lon="3.11762">
        <ele>624.79998779297</ele>
        <time>2020-10-03T08:56:02.000Z</time>
      </trkpt>
      <trkpt lat="44.14276" lon="3.11773">
        <ele>623.20001220703</ele>
        <time>2020-10-03T08:56:04.000Z</time>
      </trkpt>
      <trkpt lat="44.14275" lon="3.11779">
        <ele>622.20001220703</ele>
        <time>2020-10-03T08:56:05.000Z</time>
      </trkpt>
      <trkpt lat="44.14274" lon="3.11784">
        <ele>621.40002441406</ele>
        <time>2020-10-03T08:56:06.000Z</time>
      </trkpt>
      <trkpt lat="44.1427" lon="3.11794">
        <ele>620.40002441406</ele>
        <time>2020-10-03T08:56:08.000Z</time>
      </trkpt>
      <trkpt lat="44.14268" lon="3.11803">
        <ele>618.20001220703</ele>
        <time>2020-10-03T08:56:10.000Z</time>
      </trkpt>
      <trkpt lat="44.14268" lon="3.11808">
        <ele>615.79998779297</ele>
        <time>2020-10-03T08:56:11.000Z</time>
      </trkpt>
      <trkpt lat="44.14267" lon="3.11813">
        <ele>614.59997558594</ele>
        <time>2020-10-03T08:56:12.000Z</time>
      </trkpt>
      <trkpt lat="44.14266" lon="3.11826">
        <ele>612.59997558594</ele>
        <time>2020-10-03T08:56:14.000Z</time>
      </trkpt>
      <trkpt lat="44.14266" lon="3.11833">
        <ele>611.79998779297</ele>
        <time>2020-10-03T08:56:15.000Z</time>
      </trkpt>
      <trkpt lat="44.14267" lon="3.1184">
        <ele>610.59997558594</ele>
        <time>2020-10-03T08:56:16.000Z</time>
      </trkpt>
      <trkpt lat="44.14267" lon="3.11853">
        <ele>608.79998779297</ele>
        <time>2020-10-03T08:56:18.000Z</time>
      </trkpt>
      <trkpt lat="44.14268" lon="3.11867">
        <ele>606.79998779297</ele>
        <time>2020-10-03T08:56:20.000Z</time>
      </trkpt>
      <trkpt lat="44.14269" lon="3.11874">
        <ele>605.59997558594</ele>
        <time>2020-10-03T08:56:21.000Z</time>
      </trkpt>
      <trkpt lat="44.14269" lon="3.11879">
        <ele>604</ele>
        <time>2020-10-03T08:56:22.000Z</time>
      </trkpt>
      <trkpt lat="44.14269" lon="3.11884">
        <ele>602.79998779297</ele>
        <time>2020-10-03T08:56:23.000Z</time>
      </trkpt>
      <trkpt lat="44.14268" lon="3.11888">
        <ele>601.59997558594</ele>
        <time>2020-10-03T08:56:24.000Z</time>
      </trkpt>
      <trkpt lat="44.14265" lon="3.11892">
        <ele>600.20001220703</ele>
        <time>2020-10-03T08:56:25.000Z</time>
      </trkpt>
      <trkpt lat="44.14263" lon="3.11897">
        <ele>598.79998779297</ele>
        <time>2020-10-03T08:56:26.000Z</time>
      </trkpt>
      <trkpt lat="44.1426" lon="3.11902">
        <ele>597.20001220703</ele>
        <time>2020-10-03T08:56:27.000Z</time>
      </trkpt>
      <trkpt lat="44.14259" lon="3.11906">
        <ele>595.79998779297</ele>
        <time>2020-10-03T08:56:28.000Z</time>
      </trkpt>
      <trkpt lat="44.14258" lon="3.1191">
        <ele>594.40002441406</ele>
        <time>2020-10-03T08:56:29.000Z</time>
      </trkpt>
      <trkpt lat="44.14255" lon="3.11916">
        <ele>593.40002441406</ele>
        <time>2020-10-03T08:56:30.000Z</time>
      </trkpt>
      <trkpt lat="44.14252" lon="3.11919">
        <ele>592.40002441406</ele>
        <time>2020-10-03T08:56:31.000Z</time>
      </trkpt>
      <trkpt lat="44.14251" lon="3.11919">
        <ele>591.40002441406</ele>
        <time>2020-10-03T08:56:32.000Z</time>
      </trkpt>
      <trkpt lat="44.1425" lon="3.11917">
        <ele>590.20001220703</ele>
        <time>2020-10-03T08:56:33.000Z</time>
      </trkpt>
      <trkpt lat="44.14249" lon="3.11913">
        <ele>589</ele>
        <time>2020-10-03T08:56:34.000Z</time>
      </trkpt>
      <trkpt lat="44.14249" lon="3.11908">
        <ele>587.79998779297</ele>
        <time>2020-10-03T08:56:35.000Z</time>
      </trkpt>
      <trkpt lat="44.14247" lon="3.11901">
        <ele>586.40002441406</ele>
        <time>2020-10-03T08:56:36.000Z</time>
      </trkpt>
      <trkpt lat="44.14244" lon="3.11895">
        <ele>585.20001220703</ele>
        <time>2020-10-03T08:56:37.000Z</time>
      </trkpt>
      <trkpt lat="44.1424" lon="3.11889">
        <ele>584</ele>
        <time>2020-10-03T08:56:38.000Z</time>
      </trkpt>
      <trkpt lat="44.14236" lon="3.11883">
        <ele>582.59997558594</ele>
        <time>2020-10-03T08:56:39.000Z</time>
      </trkpt>
      <trkpt lat="44.14232" lon="3.11878">
        <ele>580.20001220703</ele>
        <time>2020-10-03T08:56:40.000Z</time>
      </trkpt>
      <trkpt lat="44.14228" lon="3.11868">
        <ele>578</ele>
        <time>2020-10-03T08:56:42.000Z</time>
      </trkpt>
      <trkpt lat="44.14226" lon="3.11865">
        <ele>577</ele>
        <time>2020-10-03T08:56:43.000Z</time>
      </trkpt>
      <trkpt lat="44.14224" lon="3.11862">
        <ele>576.40002441406</ele>
        <time>2020-10-03T08:56:44.000Z</time>
      </trkpt>
      <trkpt lat="44.14221" lon="3.1186">
        <ele>575.20001220703</ele>
        <time>2020-10-03T08:56:45.000Z</time>
      </trkpt>
      <trkpt lat="44.14217" lon="3.11858">
        <ele>574.20001220703</ele>
        <time>2020-10-03T08:56:46.000Z</time>
      </trkpt>
      <trkpt lat="44.14213" lon="3.11854">
        <ele>573.20001220703</ele>
        <time>2020-10-03T08:56:47.000Z</time>
      </trkpt>
      <trkpt lat="44.14211" lon="3.11851">
        <ele>572.20001220703</ele>
        <time>2020-10-03T08:56:48.000Z</time>
      </trkpt>
      <trkpt lat="44.14208" lon="3.11848">
        <ele>571</ele>
        <time>2020-10-03T08:56:49.000Z</time>
      </trkpt>
      <trkpt lat="44.14204" lon="3.11844">
        <ele>569.59997558594</ele>
        <time>2020-10-03T08:56:50.000Z</time>
      </trkpt>
      <trkpt lat="44.14199" lon="3.11839">
        <ele>568.59997558594</ele>
        <time>2020-10-03T08:56:51.000Z</time>
      </trkpt>
      <trkpt lat="44.14195" lon="3.11833">
        <ele>567.59997558594</ele>
        <time>2020-10-03T08:56:52.000Z</time>
      </trkpt>
      <trkpt lat="44.14189" lon="3.11821">
        <ele>566</ele>
        <time>2020-10-03T08:56:54.000Z</time>
      </trkpt>
      <trkpt lat="44.14185" lon="3.11816">
        <ele>565</ele>
        <time>2020-10-03T08:56:55.000Z</time>
      </trkpt>
      <trkpt lat="44.14182" lon="3.11812">
        <ele>564</ele>
        <time>2020-10-03T08:56:56.000Z</time>
      </trkpt>
      <trkpt lat="44.14179" lon="3.11808">
        <ele>563.40002441406</ele>
        <time>2020-10-03T08:56:57.000Z</time>
      </trkpt>
      <trkpt lat="44.14177" lon="3.11804">
        <ele>562.59997558594</ele>
        <time>2020-10-03T08:56:58.000Z</time>
      </trkpt>
      <trkpt lat="44.14175" lon="3.118">
        <ele>561.59997558594</ele>
        <time>2020-10-03T08:56:59.000Z</time>
      </trkpt>
      <trkpt lat="44.14174" lon="3.11797">
        <ele>561</ele>
        <time>2020-10-03T08:57:00.000Z</time>
      </trkpt>
      <trkpt lat="44.14174" lon="3.11794">
        <ele>560.20001220703</ele>
        <time>2020-10-03T08:57:01.000Z</time>
      </trkpt>
      <trkpt lat="44.14174" lon="3.11792">
        <ele>559.59997558594</ele>
        <time>2020-10-03T08:57:02.000Z</time>
      </trkpt>
      <trkpt lat="44.14173" lon="3.11789">
        <ele>558.59997558594</ele>
        <time>2020-10-03T08:57:03.000Z</time>
      </trkpt>
      <trkpt lat="44.14171" lon="3.11786">
        <ele>557.79998779297</ele>
        <time>2020-10-03T08:57:04.000Z</time>
      </trkpt>
      <trkpt lat="44.1417" lon="3.11782">
        <ele>556.79998779297</ele>
        <time>2020-10-03T08:57:05.000Z</time>
      </trkpt>
      <trkpt lat="44.14168" lon="3.11779">
        <ele>555.59997558594</ele>
        <time>2020-10-03T08:57:06.000Z</time>
      </trkpt>
      <trkpt lat="44.14164" lon="3.11773">
        <ele>554.40002441406</ele>
        <time>2020-10-03T08:57:08.000Z</time>
      </trkpt>
      <trkpt lat="44.14162" lon="3.1177">
        <ele>552.79998779297</ele>
        <time>2020-10-03T08:57:09.000Z</time>
      </trkpt>
      <trkpt lat="44.14158" lon="3.11768">
        <ele>552.20001220703</ele>
        <time>2020-10-03T08:57:10.000Z</time>
      </trkpt>
      <trkpt lat="44.14154" lon="3.11767">
        <ele>551.59997558594</ele>
        <time>2020-10-03T08:57:11.000Z</time>
      </trkpt>
      <trkpt lat="44.1415" lon="3.11766">
        <ele>551.40002441406</ele>
        <time>2020-10-03T08:57:12.000Z</time>
      </trkpt>
      <trkpt lat="44.1414" lon="3.11763">
        <ele>551</ele>
        <time>2020-10-03T08:57:14.000Z</time>
      </trkpt>
      <trkpt lat="44.14131" lon="3.1176">
        <ele>550.59997558594</ele>
        <time>2020-10-03T08:57:16.000Z</time>
      </trkpt>
      <trkpt lat="44.14123" lon="3.11755">
        <ele>549.20001220703</ele>
        <time>2020-10-03T08:57:18.000Z</time>
      </trkpt>
      <trkpt lat="44.14114" lon="3.1175">
        <ele>548</ele>
        <time>2020-10-03T08:57:20.000Z</time>
      </trkpt>
      <trkpt lat="44.14107" lon="3.11744">
        <ele>546.79998779297</ele>
        <time>2020-10-03T08:57:22.000Z</time>
      </trkpt>
      <trkpt lat="44.14101" lon="3.11735">
        <ele>545.79998779297</ele>
        <time>2020-10-03T08:57:24.000Z</time>
      </trkpt>
      <trkpt lat="44.14099" lon="3.11728">
        <ele>545.20001220703</ele>
        <time>2020-10-03T08:57:25.000Z</time>
      </trkpt>
      <trkpt lat="44.14098" lon="3.1172">
        <ele>544.20001220703</ele>
        <time>2020-10-03T08:57:26.000Z</time>
      </trkpt>
      <trkpt lat="44.14096" lon="3.11711">
        <ele>543.20001220703</ele>
        <time>2020-10-03T08:57:27.000Z</time>
      </trkpt>
      <trkpt lat="44.14095" lon="3.11701">
        <ele>542.20001220703</ele>
        <time>2020-10-03T08:57:28.000Z</time>
      </trkpt>
      <trkpt lat="44.14093" lon="3.11692">
        <ele>541.20001220703</ele>
        <time>2020-10-03T08:57:29.000Z</time>
      </trkpt>
      <trkpt lat="44.14092" lon="3.11681">
        <ele>540.40002441406</ele>
        <time>2020-10-03T08:57:30.000Z</time>
      </trkpt>
      <trkpt lat="44.1409" lon="3.11669">
        <ele>539.20001220703</ele>
        <time>2020-10-03T08:57:31.000Z</time>
      </trkpt>
      <trkpt lat="44.14088" lon="3.11657">
        <ele>538.20001220703</ele>
        <time>2020-10-03T08:57:32.000Z</time>
      </trkpt>
      <trkpt lat="44.14087" lon="3.11645">
        <ele>537.20001220703</ele>
        <time>2020-10-03T08:57:33.000Z</time>
      </trkpt>
      <trkpt lat="44.14085" lon="3.11634">
        <ele>536</ele>
        <time>2020-10-03T08:57:34.000Z</time>
      </trkpt>
      <trkpt lat="44.14082" lon="3.11611">
        <ele>534</ele>
        <time>2020-10-03T08:57:36.000Z</time>
      </trkpt>
      <trkpt lat="44.1408" lon="3.1159">
        <ele>531</ele>
        <time>2020-10-03T08:57:38.000Z</time>
      </trkpt>
      <trkpt lat="44.1408" lon="3.1158">
        <ele>530.20001220703</ele>
        <time>2020-10-03T08:57:39.000Z</time>
      </trkpt>
      <trkpt lat="44.14081" lon="3.1157">
        <ele>529</ele>
        <time>2020-10-03T08:57:40.000Z</time>
      </trkpt>
      <trkpt lat="44.14081" lon="3.1156">
        <ele>527.79998779297</ele>
        <time>2020-10-03T08:57:41.000Z</time>
      </trkpt>
      <trkpt lat="44.14081" lon="3.11549">
        <ele>526.40002441406</ele>
        <time>2020-10-03T08:57:42.000Z</time>
      </trkpt>
      <trkpt lat="44.1408" lon="3.1154">
        <ele>524.59997558594</ele>
        <time>2020-10-03T08:57:43.000Z</time>
      </trkpt>
      <trkpt lat="44.14079" lon="3.1153">
        <ele>523.40002441406</ele>
        <time>2020-10-03T08:57:44.000Z</time>
      </trkpt>
      <trkpt lat="44.14079" lon="3.11519">
        <ele>521.40002441406</ele>
        <time>2020-10-03T08:57:45.000Z</time>
      </trkpt>
      <trkpt lat="44.14079" lon="3.11509">
        <ele>519.40002441406</ele>
        <time>2020-10-03T08:57:46.000Z</time>
      </trkpt>
      <trkpt lat="44.1408" lon="3.11498">
        <ele>518.20001220703</ele>
        <time>2020-10-03T08:57:47.000Z</time>
      </trkpt>
      <trkpt lat="44.1408" lon="3.11488">
        <ele>516.79998779297</ele>
        <time>2020-10-03T08:57:48.000Z</time>
      </trkpt>
      <trkpt lat="44.1408" lon="3.11477">
        <ele>515.40002441406</ele>
        <time>2020-10-03T08:57:49.000Z</time>
      </trkpt>
      <trkpt lat="44.14079" lon="3.11467">
        <ele>513.59997558594</ele>
        <time>2020-10-03T08:57:50.000Z</time>
      </trkpt>
      <trkpt lat="44.14078" lon="3.11458">
        <ele>512.20001220703</ele>
        <time>2020-10-03T08:57:51.000Z</time>
      </trkpt>
      <trkpt lat="44.14078" lon="3.11451">
        <ele>510.20001220703</ele>
        <time>2020-10-03T08:57:52.000Z</time>
      </trkpt>
      <trkpt lat="44.14077" lon="3.11442">
        <ele>508.60000610352</ele>
        <time>2020-10-03T08:57:53.000Z</time>
      </trkpt>
      <trkpt lat="44.14077" lon="3.11435">
        <ele>506.79998779297</ele>
        <time>2020-10-03T08:57:54.000Z</time>
      </trkpt>
      <trkpt lat="44.14077" lon="3.11427">
        <ele>505.20001220703</ele>
        <time>2020-10-03T08:57:55.000Z</time>
      </trkpt>
      <trkpt lat="44.14076" lon="3.11421">
        <ele>503.60000610352</ele>
        <time>2020-10-03T08:57:56.000Z</time>
      </trkpt>
      <trkpt lat="44.14075" lon="3.11416">
        <ele>502.20001220703</ele>
        <time>2020-10-03T08:57:57.000Z</time>
      </trkpt>
      <trkpt lat="44.14074" lon="3.11413">
        <ele>500.79998779297</ele>
        <time>2020-10-03T08:57:58.000Z</time>
      </trkpt>
      <trkpt lat="44.14072" lon="3.11409">
        <ele>499.60000610352</ele>
        <time>2020-10-03T08:57:59.000Z</time>
      </trkpt>
      <trkpt lat="44.14071" lon="3.11406">
        <ele>498.79998779297</ele>
        <time>2020-10-03T08:58:00.000Z</time>
      </trkpt>
      <trkpt lat="44.1407" lon="3.11403">
        <ele>497.39999389648</ele>
        <time>2020-10-03T08:58:01.000Z</time>
      </trkpt>
      <trkpt lat="44.14069" lon="3.114">
        <ele>496.39999389648</ele>
        <time>2020-10-03T08:58:02.000Z</time>
      </trkpt>
      <trkpt lat="44.14069" lon="3.11396">
        <ele>495</ele>
        <time>2020-10-03T08:58:03.000Z</time>
      </trkpt>
      <trkpt lat="44.14068" lon="3.11394">
        <ele>493.79998779297</ele>
        <time>2020-10-03T08:58:04.000Z</time>
      </trkpt>
      <trkpt lat="44.14068" lon="3.11389">
        <ele>492.79998779297</ele>
        <time>2020-10-03T08:58:06.000Z</time>
      </trkpt>
      <trkpt lat="44.14067" lon="3.11386">
        <ele>492.60000610352</ele>
        <time>2020-10-03T08:58:08.000Z</time>
      </trkpt>
      <trkpt lat="44.14067" lon="3.11384">
        <ele>492.60000610352</ele>
        <time>2020-10-03T08:58:10.000Z</time>
      </trkpt>
      <trkpt lat="44.14065" lon="3.11379">
        <ele>492.60000610352</ele>
        <time>2020-10-03T08:58:12.000Z</time>
      </trkpt>
      <trkpt lat="44.14064" lon="3.11371">
        <ele>492.60000610352</ele>
        <time>2020-10-03T08:58:14.000Z</time>
      </trkpt>
      <trkpt lat="44.14065" lon="3.11361">
        <ele>492.60000610352</ele>
        <time>2020-10-03T08:58:16.000Z</time>
      </trkpt>
      <trkpt lat="44.14068" lon="3.11356">
        <ele>492.60000610352</ele>
        <time>2020-10-03T08:58:17.000Z</time>
      </trkpt>
      <trkpt lat="44.14071" lon="3.11353">
        <ele>492.60000610352</ele>
        <time>2020-10-03T08:58:18.000Z</time>
      </trkpt>
      <trkpt lat="44.14077" lon="3.11344">
        <ele>492.39999389648</ele>
        <time>2020-10-03T08:58:20.000Z</time>
      </trkpt>
      <trkpt lat="44.14079" lon="3.11339">
        <ele>492.20001220703</ele>
        <time>2020-10-03T08:58:21.000Z</time>
      </trkpt>
      <trkpt lat="44.14081" lon="3.11333">
        <ele>491.60000610352</ele>
        <time>2020-10-03T08:58:22.000Z</time>
      </trkpt>
      <trkpt lat="44.14085" lon="3.11322">
        <ele>489.60000610352</ele>
        <time>2020-10-03T08:58:24.000Z</time>
      </trkpt>
      <trkpt lat="44.14087" lon="3.11306">
        <ele>488.60000610352</ele>
        <time>2020-10-03T08:58:26.000Z</time>
      </trkpt>
      <trkpt lat="44.14087" lon="3.11298">
        <ele>487.20001220703</ele>
        <time>2020-10-03T08:58:27.000Z</time>
      </trkpt>
      <trkpt lat="44.14087" lon="3.11292">
        <ele>486</ele>
        <time>2020-10-03T08:58:28.000Z</time>
      </trkpt>
      <trkpt lat="44.14089" lon="3.11286">
        <ele>484.79998779297</ele>
        <time>2020-10-03T08:58:29.000Z</time>
      </trkpt>
      <trkpt lat="44.14089" lon="3.11282">
        <ele>484</ele>
        <time>2020-10-03T08:58:30.000Z</time>
      </trkpt>
      <trkpt lat="44.14089" lon="3.1128">
        <ele>483</ele>
        <time>2020-10-03T08:58:31.000Z</time>
      </trkpt>
      <trkpt lat="44.14089" lon="3.11278">
        <ele>482</ele>
        <time>2020-10-03T08:58:32.000Z</time>
      </trkpt>
      <trkpt lat="44.14089" lon="3.11276">
        <ele>481.20001220703</ele>
        <time>2020-10-03T08:58:33.000Z</time>
      </trkpt>
      <trkpt lat="44.14088" lon="3.11275">
        <ele>480.39999389648</ele>
        <time>2020-10-03T08:58:34.000Z</time>
      </trkpt>
      <trkpt lat="44.14087" lon="3.11273">
        <ele>479.39999389648</ele>
        <time>2020-10-03T08:58:35.000Z</time>
      </trkpt>
      <trkpt lat="44.14087" lon="3.11272">
        <ele>478.20001220703</ele>
        <time>2020-10-03T08:58:36.000Z</time>
      </trkpt>
      <trkpt lat="44.14085" lon="3.1127">
        <ele>477.20001220703</ele>
        <time>2020-10-03T08:58:38.000Z</time>
      </trkpt>
      <trkpt lat="44.14085" lon="3.11269">
        <ele>477.20001220703</ele>
        <time>2020-10-03T08:58:39.000Z</time>
      </trkpt>
      <trkpt lat="44.14084" lon="3.1127">
        <ele>477</ele>
        <time>2020-10-03T08:58:40.000Z</time>
      </trkpt>
      <trkpt lat="44.14083" lon="3.1127">
        <ele>476.79998779297</ele>
        <time>2020-10-03T08:58:42.000Z</time>
      </trkpt>
      <trkpt lat="44.14082" lon="3.11271">
        <ele>476.79998779297</ele>
        <time>2020-10-03T08:58:44.000Z</time>
      </trkpt>
      <trkpt lat="44.14081" lon="3.11271">
        <ele>476.60000610352</ele>
        <time>2020-10-03T08:58:46.000Z</time>
      </trkpt>
      <trkpt lat="44.14081" lon="3.11271">
        <ele>476.60000610352</ele>
        <time>2020-10-03T08:58:48.000Z</time>
      </trkpt>
      <trkpt lat="44.14081" lon="3.11271">
        <ele>476.60000610352</ele>
        <time>2020-10-03T08:58:50.000Z</time>
      </trkpt>
      <trkpt lat="44.14081" lon="3.11271">
        <ele>476.60000610352</ele>
        <time>2020-10-03T08:58:52.000Z</time>
      </trkpt>
      <trkpt lat="44.14081" lon="3.11271">
        <ele>476.60000610352</ele>
        <time>2020-10-03T08:58:54.000Z</time>
      </trkpt>
      <trkpt lat="44.14081" lon="3.11271">
        <ele>476.60000610352</ele>
        <time>2020-10-03T08:58:56.000Z</time>
      </trkpt>
      <trkpt lat="44.14081" lon="3.11271">
        <ele>476.60000610352</ele>
        <time>2020-10-03T08:58:58.000Z</time>
      </trkpt>
      <trkpt lat="44.14081" lon="3.11271">
        <ele>476.79998779297</ele>
        <time>2020-10-03T08:59:00.000Z</time>
      </trkpt>
      <trkpt lat="44.14081" lon="3.11271">
        <ele>476.79998779297</ele>
        <time>2020-10-03T08:59:02.000Z</time>
      </trkpt>
      <trkpt lat="44.14081" lon="3.11271">
        <ele>476.79998779297</ele>
        <time>2020-10-03T08:59:04.000Z</time>
      </trkpt>
      <trkpt lat="44.14081" lon="3.11271">
        <ele>476.60000610352</ele>
        <time>2020-10-03T08:59:06.000Z</time>
      </trkpt>
      <trkpt lat="44.14081" lon="3.11271">
        <ele>476.60000610352</ele>
        <time>2020-10-03T08:59:08.000Z</time>
      </trkpt>
      <trkpt lat="44.14081" lon="3.11271">
        <ele>476.60000610352</ele>
        <time>2020-10-03T08:59:10.000Z</time>
      </trkpt>
      <trkpt lat="44.14081" lon="3.11271">
        <ele>476.60000610352</ele>
        <time>2020-10-03T08:59:12.000Z</time>
      </trkpt>
      <trkpt lat="44.14081" lon="3.11272">
        <ele>476.60000610352</ele>
        <time>2020-10-03T08:59:14.000Z</time>
      </trkpt>
      <trkpt lat="44.14081" lon="3.11272">
        <ele>476.60000610352</ele>
        <time>2020-10-03T08:59:16.000Z</time>
      </trkpt>
      <trkpt lat="44.1408" lon="3.11272">
        <ele>476.60000610352</ele>
        <time>2020-10-03T08:59:18.000Z</time>
      </trkpt>
      <trkpt lat="44.14081" lon="3.11272">
        <ele>476.79998779297</ele>
        <time>2020-10-03T08:59:20.000Z</time>
      </trkpt>
      <trkpt lat="44.14081" lon="3.11271">
        <ele>476.79998779297</ele>
        <time>2020-10-03T08:59:22.000Z</time>
      </trkpt>
      <trkpt lat="44.1408" lon="3.11271">
        <ele>476.79998779297</ele>
        <time>2020-10-03T08:59:24.000Z</time>
      </trkpt>
      <trkpt lat="44.1408" lon="3.11271">
        <ele>476.79998779297</ele>
        <time>2020-10-03T08:59:26.000Z</time>
      </trkpt>
      <trkpt lat="44.14081" lon="3.11271">
        <ele>477</ele>
        <time>2020-10-03T08:59:28.000Z</time>
      </trkpt>
      <trkpt lat="44.14081" lon="3.11271">
        <ele>477</ele>
        <time>2020-10-03T08:59:30.000Z</time>
      </trkpt>
      <trkpt lat="44.14081" lon="3.11271">
        <ele>477</ele>
        <time>2020-10-03T08:59:32.000Z</time>
      </trkpt>
      <trkpt lat="44.1408" lon="3.11271">
        <ele>477</ele>
        <time>2020-10-03T08:59:34.000Z</time>
      </trkpt>
      <trkpt lat="44.14081" lon="3.11271">
        <ele>476.79998779297</ele>
        <time>2020-10-03T08:59:36.000Z</time>
      </trkpt>
      <trkpt lat="44.14081" lon="3.11271">
        <ele>476.79998779297</ele>
        <time>2020-10-03T08:59:38.000Z</time>
      </trkpt>
      <trkpt lat="44.14081" lon="3.11271">
        <ele>476.79998779297</ele>
        <time>2020-10-03T08:59:40.000Z</time>
      </trkpt>
      <trkpt lat="44.14081" lon="3.11271">
        <ele>476.79998779297</ele>
        <time>2020-10-03T08:59:42.000Z</time>
      </trkpt>
      <trkpt lat="44.14081" lon="3.11271">
        <ele>476.79998779297</ele>
        <time>2020-10-03T08:59:44.000Z</time>
      </trkpt>
      <trkpt lat="44.14081" lon="3.11271">
        <ele>476.79998779297</ele>
        <time>2020-10-03T08:59:46.000Z</time>
      </trkpt>
      <trkpt lat="44.14081" lon="3.11271">
        <ele>476.79998779297</ele>
        <time>2020-10-03T08:59:48.000Z</time>
      </trkpt>
      <trkpt lat="44.14081" lon="3.11271">
        <ele>476.79998779297</ele>
        <time>2020-10-03T08:59:50.000Z</time>
      </trkpt>
      <trkpt lat="44.14081" lon="3.11271">
        <ele>477</ele>
        <time>2020-10-03T08:59:52.000Z</time>
      </trkpt>
      <trkpt lat="44.14081" lon="3.1127">
        <ele>476.79998779297</ele>
        <time>2020-10-03T08:59:54.000Z</time>
      </trkpt>
      <trkpt lat="44.14081" lon="3.1127">
        <ele>476.79998779297</ele>
        <time>2020-10-03T08:59:56.000Z</time>
      </trkpt>
      <trkpt lat="44.14081" lon="3.1127">
        <ele>476.79998779297</ele>
        <time>2020-10-03T08:59:58.000Z</time>
      </trkpt>
      <trkpt lat="44.14082" lon="3.11269">
        <ele>477</ele>
        <time>2020-10-03T09:00:00.000Z</time>
      </trkpt>
      <trkpt lat="44.14082" lon="3.11269">
        <ele>477</ele>
        <time>2020-10-03T09:00:02.000Z</time>
      </trkpt>
      <trkpt lat="44.14082" lon="3.11269">
        <ele>476.79998779297</ele>
        <time>2020-10-03T09:00:04.000Z</time>
      </trkpt>
      <trkpt lat="44.14083" lon="3.11269">
        <ele>476.79998779297</ele>
        <time>2020-10-03T09:00:06.000Z</time>
      </trkpt>
      <trkpt lat="44.14083" lon="3.11269">
        <ele>476.79998779297</ele>
        <time>2020-10-03T09:00:08.000Z</time>
      </trkpt>
      <trkpt lat="44.14083" lon="3.11269">
        <ele>477</ele>
        <time>2020-10-03T09:00:10.000Z</time>
      </trkpt>
      <trkpt lat="44.14083" lon="3.11269">
        <ele>477</ele>
        <time>2020-10-03T09:00:12.000Z</time>
      </trkpt>
      <trkpt lat="44.14083" lon="3.11269">
        <ele>477.20001220703</ele>
        <time>2020-10-03T09:00:14.000Z</time>
      </trkpt>
      <trkpt lat="44.14083" lon="3.11269">
        <ele>477.20001220703</ele>
        <time>2020-10-03T09:00:16.000Z</time>
      </trkpt>
      <trkpt lat="44.14084" lon="3.11269">
        <ele>477</ele>
        <time>2020-10-03T09:00:18.000Z</time>
      </trkpt>
      <trkpt lat="44.14084" lon="3.11268">
        <ele>477.20001220703</ele>
        <time>2020-10-03T09:00:19.000Z</time>
      </trkpt>
      <trkpt lat="44.14088" lon="3.11268">
        <ele>477.20001220703</ele>
        <time>2020-10-03T09:00:20.000Z</time>
      </trkpt>
      <trkpt lat="44.1409" lon="3.11267">
        <ele>477.20001220703</ele>
        <time>2020-10-03T09:00:22.000Z</time>
      </trkpt>
      <trkpt lat="44.14092" lon="3.11265">
        <ele>477.20001220703</ele>
        <time>2020-10-03T09:00:24.000Z</time>
      </trkpt>
      <trkpt lat="44.14094" lon="3.11264">
        <ele>477.20001220703</ele>
        <time>2020-10-03T09:00:26.000Z</time>
      </trkpt>
      <trkpt lat="44.14095" lon="3.11264">
        <ele>477.20001220703</ele>
        <time>2020-10-03T09:00:28.000Z</time>
      </trkpt>
      <trkpt lat="44.14095" lon="3.11264">
        <ele>477.20001220703</ele>
        <time>2020-10-03T09:00:30.000Z</time>
      </trkpt>
      <trkpt lat="44.14094" lon="3.11264">
        <ele>477.20001220703</ele>
        <time>2020-10-03T09:00:32.000Z</time>
      </trkpt>
      <trkpt lat="44.14095" lon="3.11264">
        <ele>477.20001220703</ele>
        <time>2020-10-03T09:00:34.000Z</time>
      </trkpt>
      <trkpt lat="44.14094" lon="3.11263">
        <ele>477</ele>
        <time>2020-10-03T09:00:36.000Z</time>
      </trkpt>
      <trkpt lat="44.14093" lon="3.11263">
        <ele>477</ele>
        <time>2020-10-03T09:00:38.000Z</time>
      </trkpt>
      <trkpt lat="44.14093" lon="3.11263">
        <ele>477</ele>
        <time>2020-10-03T09:00:39.000Z</time>
      </trkpt>
      <trkpt lat="44.14093" lon="3.11263">
        <ele>477</ele>
        <time>2020-10-03T09:00:40.000Z</time>
      </trkpt>
      <trkpt lat="44.14092" lon="3.11264">
        <ele>477</ele>
        <time>2020-10-03T09:00:42.000Z</time>
      </trkpt>
      <trkpt lat="44.14092" lon="3.11264">
        <ele>477</ele>
        <time>2020-10-03T09:00:44.000Z</time>
      </trkpt>
      <trkpt lat="44.14092" lon="3.11264">
        <ele>477</ele>
        <time>2020-10-03T09:00:46.000Z</time>
      </trkpt>
      <trkpt lat="44.14091" lon="3.11265">
        <ele>476.79998779297</ele>
        <time>2020-10-03T09:00:48.000Z</time>
      </trkpt>
      <trkpt lat="44.1409" lon="3.11266">
        <ele>476.79998779297</ele>
        <time>2020-10-03T09:00:50.000Z</time>
      </trkpt>
      <trkpt lat="44.14088" lon="3.11267">
        <ele>477</ele>
        <time>2020-10-03T09:00:52.000Z</time>
      </trkpt>
      <trkpt lat="44.14089" lon="3.11265">
        <ele>477</ele>
        <time>2020-10-03T09:00:54.000Z</time>
      </trkpt>
      <trkpt lat="44.14091" lon="3.11262">
        <ele>477</ele>
        <time>2020-10-03T09:00:55.000Z</time>
      </trkpt>
      <trkpt lat="44.14093" lon="3.11259">
        <ele>477</ele>
        <time>2020-10-03T09:00:56.000Z</time>
      </trkpt>
      <trkpt lat="44.14097" lon="3.1125">
        <ele>477</ele>
        <time>2020-10-03T09:00:58.000Z</time>
      </trkpt>
      <trkpt lat="44.14103" lon="3.11239">
        <ele>477</ele>
        <time>2020-10-03T09:01:00.000Z</time>
      </trkpt>
      <trkpt lat="44.14107" lon="3.11232">
        <ele>477</ele>
        <time>2020-10-03T09:01:01.000Z</time>
      </trkpt>
      <trkpt lat="44.1411" lon="3.11222">
        <ele>477</ele>
        <time>2020-10-03T09:01:02.000Z</time>
      </trkpt>
      <trkpt lat="44.14116" lon="3.112">
        <ele>476.20001220703</ele>
        <time>2020-10-03T09:01:04.000Z</time>
      </trkpt>
      <trkpt lat="44.14118" lon="3.1119">
        <ele>475.79998779297</ele>
        <time>2020-10-03T09:01:05.000Z</time>
      </trkpt>
      <trkpt lat="44.1412" lon="3.11181">
        <ele>475.20001220703</ele>
        <time>2020-10-03T09:01:06.000Z</time>
      </trkpt>
      <trkpt lat="44.14123" lon="3.11162">
        <ele>473.60000610352</ele>
        <time>2020-10-03T09:01:08.000Z</time>
      </trkpt>
      <trkpt lat="44.14124" lon="3.11145">
        <ele>471.60000610352</ele>
        <time>2020-10-03T09:01:10.000Z</time>
      </trkpt>
      <trkpt lat="44.14124" lon="3.11137">
        <ele>470.20001220703</ele>
        <time>2020-10-03T09:01:11.000Z</time>
      </trkpt>
      <trkpt lat="44.14125" lon="3.11129">
        <ele>469</ele>
        <time>2020-10-03T09:01:12.000Z</time>
      </trkpt>
      <trkpt lat="44.14127" lon="3.11122">
        <ele>468</ele>
        <time>2020-10-03T09:01:13.000Z</time>
      </trkpt>
      <trkpt lat="44.1413" lon="3.11115">
        <ele>466.79998779297</ele>
        <time>2020-10-03T09:01:14.000Z</time>
      </trkpt>
      <trkpt lat="44.14136" lon="3.11099">
        <ele>465</ele>
        <time>2020-10-03T09:01:16.000Z</time>
      </trkpt>
      <trkpt lat="44.14142" lon="3.11078">
        <ele>463.20001220703</ele>
        <time>2020-10-03T09:01:18.000Z</time>
      </trkpt>
      <trkpt lat="44.14149" lon="3.11053">
        <ele>462</ele>
        <time>2020-10-03T09:01:20.000Z</time>
      </trkpt>
      <trkpt lat="44.14156" lon="3.11024">
        <ele>460.39999389648</ele>
        <time>2020-10-03T09:01:22.000Z</time>
      </trkpt>
      <trkpt lat="44.14159" lon="3.11008">
        <ele>459.39999389648</ele>
        <time>2020-10-03T09:01:23.000Z</time>
      </trkpt>
      <trkpt lat="44.14161" lon="3.10991">
        <ele>458.60000610352</ele>
        <time>2020-10-03T09:01:24.000Z</time>
      </trkpt>
      <trkpt lat="44.14163" lon="3.10974">
        <ele>457.60000610352</ele>
        <time>2020-10-03T09:01:25.000Z</time>
      </trkpt>
      <trkpt lat="44.14164" lon="3.10957">
        <ele>456.39999389648</ele>
        <time>2020-10-03T09:01:26.000Z</time>
      </trkpt>
      <trkpt lat="44.14165" lon="3.1094">
        <ele>455.39999389648</ele>
        <time>2020-10-03T09:01:27.000Z</time>
      </trkpt>
      <trkpt lat="44.14165" lon="3.10922">
        <ele>454.20001220703</ele>
        <time>2020-10-03T09:01:28.000Z</time>
      </trkpt>
      <trkpt lat="44.14166" lon="3.10905">
        <ele>453</ele>
        <time>2020-10-03T09:01:29.000Z</time>
      </trkpt>
      <trkpt lat="44.14168" lon="3.10888">
        <ele>451.39999389648</ele>
        <time>2020-10-03T09:01:30.000Z</time>
      </trkpt>
      <trkpt lat="44.1417" lon="3.1087">
        <ele>449.60000610352</ele>
        <time>2020-10-03T09:01:31.000Z</time>
      </trkpt>
      <trkpt lat="44.14172" lon="3.10851">
        <ele>446</ele>
        <time>2020-10-03T09:01:32.000Z</time>
      </trkpt>
      <trkpt lat="44.14175" lon="3.10833">
        <ele>444.20001220703</ele>
        <time>2020-10-03T09:01:33.000Z</time>
      </trkpt>
      <trkpt lat="44.14178" lon="3.10816">
        <ele>442.20001220703</ele>
        <time>2020-10-03T09:01:34.000Z</time>
      </trkpt>
      <trkpt lat="44.14181" lon="3.10803">
        <ele>440</ele>
        <time>2020-10-03T09:01:35.000Z</time>
      </trkpt>
      <trkpt lat="44.14184" lon="3.10792">
        <ele>438</ele>
        <time>2020-10-03T09:01:36.000Z</time>
      </trkpt>
      <trkpt lat="44.14186" lon="3.10785">
        <ele>436.20001220703</ele>
        <time>2020-10-03T09:01:37.000Z</time>
      </trkpt>
      <trkpt lat="44.14188" lon="3.10779">
        <ele>434.39999389648</ele>
        <time>2020-10-03T09:01:38.000Z</time>
      </trkpt>
      <trkpt lat="44.1419" lon="3.10774">
        <ele>432.39999389648</ele>
        <time>2020-10-03T09:01:39.000Z</time>
      </trkpt>
      <trkpt lat="44.14192" lon="3.10769">
        <ele>430.20001220703</ele>
        <time>2020-10-03T09:01:40.000Z</time>
      </trkpt>
      <trkpt lat="44.14195" lon="3.10764">
        <ele>428.20001220703</ele>
        <time>2020-10-03T09:01:41.000Z</time>
      </trkpt>
      <trkpt lat="44.14197" lon="3.1076">
        <ele>426.39999389648</ele>
        <time>2020-10-03T09:01:42.000Z</time>
      </trkpt>
      <trkpt lat="44.142" lon="3.10754">
        <ele>424.39999389648</ele>
        <time>2020-10-03T09:01:43.000Z</time>
      </trkpt>
      <trkpt lat="44.14202" lon="3.10747">
        <ele>422.60000610352</ele>
        <time>2020-10-03T09:01:44.000Z</time>
      </trkpt>
      <trkpt lat="44.14205" lon="3.10739">
        <ele>421</ele>
        <time>2020-10-03T09:01:45.000Z</time>
      </trkpt>
      <trkpt lat="44.14209" lon="3.1073">
        <ele>419.79998779297</ele>
        <time>2020-10-03T09:01:46.000Z</time>
      </trkpt>
      <trkpt lat="44.14213" lon="3.10719">
        <ele>418.79998779297</ele>
        <time>2020-10-03T09:01:47.000Z</time>
      </trkpt>
      <trkpt lat="44.14217" lon="3.10708">
        <ele>418</ele>
        <time>2020-10-03T09:01:48.000Z</time>
      </trkpt>
      <trkpt lat="44.14224" lon="3.10684">
        <ele>416.60000610352</ele>
        <time>2020-10-03T09:01:50.000Z</time>
      </trkpt>
      <trkpt lat="44.14227" lon="3.10669">
        <ele>416</ele>
        <time>2020-10-03T09:01:51.000Z</time>
      </trkpt>
      <trkpt lat="44.14229" lon="3.10653">
        <ele>415.39999389648</ele>
        <time>2020-10-03T09:01:52.000Z</time>
      </trkpt>
      <trkpt lat="44.14231" lon="3.10636">
        <ele>414.60000610352</ele>
        <time>2020-10-03T09:01:53.000Z</time>
      </trkpt>
      <trkpt lat="44.14232" lon="3.10618">
        <ele>413.79998779297</ele>
        <time>2020-10-03T09:01:54.000Z</time>
      </trkpt>
      <trkpt lat="44.14231" lon="3.10599">
        <ele>412.60000610352</ele>
        <time>2020-10-03T09:01:55.000Z</time>
      </trkpt>
      <trkpt lat="44.14231" lon="3.10579">
        <ele>411.39999389648</ele>
        <time>2020-10-03T09:01:56.000Z</time>
      </trkpt>
      <trkpt lat="44.1423" lon="3.10558">
        <ele>410.20001220703</ele>
        <time>2020-10-03T09:01:57.000Z</time>
      </trkpt>
      <trkpt lat="44.14231" lon="3.10536">
        <ele>408.79998779297</ele>
        <time>2020-10-03T09:01:58.000Z</time>
      </trkpt>
      <trkpt lat="44.14232" lon="3.10515">
        <ele>407.60000610352</ele>
        <time>2020-10-03T09:01:59.000Z</time>
      </trkpt>
      <trkpt lat="44.14234" lon="3.10493">
        <ele>406</ele>
        <time>2020-10-03T09:02:00.000Z</time>
      </trkpt>
      <trkpt lat="44.14235" lon="3.10474">
        <ele>402.60000610352</ele>
        <time>2020-10-03T09:02:01.000Z</time>
      </trkpt>
      <trkpt lat="44.14236" lon="3.10455">
        <ele>400.60000610352</ele>
        <time>2020-10-03T09:02:02.000Z</time>
      </trkpt>
      <trkpt lat="44.14236" lon="3.10438">
        <ele>398.39999389648</ele>
        <time>2020-10-03T09:02:03.000Z</time>
      </trkpt>
      <trkpt lat="44.14235" lon="3.10422">
        <ele>396.20001220703</ele>
        <time>2020-10-03T09:02:04.000Z</time>
      </trkpt>
      <trkpt lat="44.14236" lon="3.10406">
        <ele>393.79998779297</ele>
        <time>2020-10-03T09:02:05.000Z</time>
      </trkpt>
      <trkpt lat="44.14237" lon="3.10391">
        <ele>391.60000610352</ele>
        <time>2020-10-03T09:02:06.000Z</time>
      </trkpt>
      <trkpt lat="44.14239" lon="3.10377">
        <ele>389.20001220703</ele>
        <time>2020-10-03T09:02:07.000Z</time>
      </trkpt>
      <trkpt lat="44.14241" lon="3.10366">
        <ele>387.20001220703</ele>
        <time>2020-10-03T09:02:08.000Z</time>
      </trkpt>
      <trkpt lat="44.14243" lon="3.10357">
        <ele>385.20001220703</ele>
        <time>2020-10-03T09:02:09.000Z</time>
      </trkpt>
      <trkpt lat="44.14245" lon="3.10349">
        <ele>383.39999389648</ele>
        <time>2020-10-03T09:02:10.000Z</time>
      </trkpt>
      <trkpt lat="44.14247" lon="3.10342">
        <ele>382</ele>
        <time>2020-10-03T09:02:11.000Z</time>
      </trkpt>
      <trkpt lat="44.14248" lon="3.10335">
        <ele>380.60000610352</ele>
        <time>2020-10-03T09:02:12.000Z</time>
      </trkpt>
      <trkpt lat="44.1425" lon="3.10328">
        <ele>379.20001220703</ele>
        <time>2020-10-03T09:02:13.000Z</time>
      </trkpt>
      <trkpt lat="44.14252" lon="3.10324">
        <ele>377.79998779297</ele>
        <time>2020-10-03T09:02:14.000Z</time>
      </trkpt>
      <trkpt lat="44.14253" lon="3.10319">
        <ele>376.39999389648</ele>
        <time>2020-10-03T09:02:15.000Z</time>
      </trkpt>
      <trkpt lat="44.14254" lon="3.10315">
        <ele>375</ele>
        <time>2020-10-03T09:02:16.000Z</time>
      </trkpt>
      <trkpt lat="44.14255" lon="3.10311">
        <ele>373.79998779297</ele>
        <time>2020-10-03T09:02:17.000Z</time>
      </trkpt>
      <trkpt lat="44.14256" lon="3.10306">
        <ele>372.39999389648</ele>
        <time>2020-10-03T09:02:18.000Z</time>
      </trkpt>
      <trkpt lat="44.14257" lon="3.103">
        <ele>371.39999389648</ele>
        <time>2020-10-03T09:02:19.000Z</time>
      </trkpt>
      <trkpt lat="44.14258" lon="3.10293">
        <ele>370.60000610352</ele>
        <time>2020-10-03T09:02:20.000Z</time>
      </trkpt>
      <trkpt lat="44.1426" lon="3.10284">
        <ele>369.79998779297</ele>
        <time>2020-10-03T09:02:21.000Z</time>
      </trkpt>
      <trkpt lat="44.14262" lon="3.10274">
        <ele>369</ele>
        <time>2020-10-03T09:02:22.000Z</time>
      </trkpt>
      <trkpt lat="44.14264" lon="3.10263">
        <ele>368.39999389648</ele>
        <time>2020-10-03T09:02:23.000Z</time>
      </trkpt>
      <trkpt lat="44.14267" lon="3.10253">
        <ele>368</ele>
        <time>2020-10-03T09:02:24.000Z</time>
      </trkpt>
      <trkpt lat="44.14268" lon="3.10244">
        <ele>367.60000610352</ele>
        <time>2020-10-03T09:02:25.000Z</time>
      </trkpt>
      <trkpt lat="44.1427" lon="3.10238">
        <ele>367.20001220703</ele>
        <time>2020-10-03T09:02:26.000Z</time>
      </trkpt>
      <trkpt lat="44.14273" lon="3.10232">
        <ele>366.60000610352</ele>
        <time>2020-10-03T09:02:28.000Z</time>
      </trkpt>
      <trkpt lat="44.14275" lon="3.10233">
        <ele>366</ele>
        <time>2020-10-03T09:02:29.000Z</time>
      </trkpt>
      <trkpt lat="44.14276" lon="3.10233">
        <ele>365</ele>
        <time>2020-10-03T09:02:30.000Z</time>
      </trkpt>
      <trkpt lat="44.14277" lon="3.10234">
        <ele>362.60000610352</ele>
        <time>2020-10-03T09:02:31.000Z</time>
      </trkpt>
      <trkpt lat="44.14277" lon="3.10235">
        <ele>361.39999389648</ele>
        <time>2020-10-03T09:02:32.000Z</time>
      </trkpt>
      <trkpt lat="44.14277" lon="3.10235">
        <ele>360.20001220703</ele>
        <time>2020-10-03T09:02:33.000Z</time>
      </trkpt>
      <trkpt lat="44.14278" lon="3.10236">
        <ele>359.20001220703</ele>
        <time>2020-10-03T09:02:34.000Z</time>
      </trkpt>
    </trkseg>
  </trk>
  <trk>
    <name><![CDATA[MILLAU J2 - Chemin des ânes Run 2]]></name>
    <trkseg>
      <trkpt lat="44.12294" lon="3.12487">
        <ele>830.20001220703</ele>
        <time>2020-10-03T10:25:27.000Z</time>
      </trkpt>
      <trkpt lat="44.12288" lon="3.12501">
        <ele>828.59997558594</ele>
        <time>2020-10-03T10:25:28.000Z</time>
      </trkpt>
      <trkpt lat="44.12289" lon="3.12501">
        <ele>827.59997558594</ele>
        <time>2020-10-03T10:25:30.000Z</time>
      </trkpt>
      <trkpt lat="44.1229" lon="3.125">
        <ele>827.20001220703</ele>
        <time>2020-10-03T10:25:40.000Z</time>
      </trkpt>
      <trkpt lat="44.1229" lon="3.125">
        <ele>827.40002441406</ele>
        <time>2020-10-03T10:25:53.000Z</time>
      </trkpt>
      <trkpt lat="44.1229" lon="3.12499">
        <ele>827.20001220703</ele>
        <time>2020-10-03T10:25:56.000Z</time>
      </trkpt>
      <trkpt lat="44.12292" lon="3.12494">
        <ele>827.40002441406</ele>
        <time>2020-10-03T10:26:12.000Z</time>
      </trkpt>
      <trkpt lat="44.12292" lon="3.12492">
        <ele>827.79998779297</ele>
        <time>2020-10-03T10:26:17.000Z</time>
      </trkpt>
      <trkpt lat="44.12292" lon="3.12492">
        <ele>827.79998779297</ele>
        <time>2020-10-03T10:26:19.000Z</time>
      </trkpt>
      <trkpt lat="44.12292" lon="3.12492">
        <ele>827.79998779297</ele>
        <time>2020-10-03T10:26:21.000Z</time>
      </trkpt>
      <trkpt lat="44.12291" lon="3.12491">
        <ele>828</ele>
        <time>2020-10-03T10:26:23.000Z</time>
      </trkpt>
      <trkpt lat="44.12291" lon="3.12491">
        <ele>828</ele>
        <time>2020-10-03T10:26:25.000Z</time>
      </trkpt>
      <trkpt lat="44.12291" lon="3.12491">
        <ele>828</ele>
        <time>2020-10-03T10:26:27.000Z</time>
      </trkpt>
      <trkpt lat="44.12291" lon="3.12491">
        <ele>828</ele>
        <time>2020-10-03T10:26:29.000Z</time>
      </trkpt>
      <trkpt lat="44.12291" lon="3.12491">
        <ele>828</ele>
        <time>2020-10-03T10:26:31.000Z</time>
      </trkpt>
      <trkpt lat="44.12291" lon="3.12491">
        <ele>828</ele>
        <time>2020-10-03T10:26:33.000Z</time>
      </trkpt>
      <trkpt lat="44.12291" lon="3.1249">
        <ele>828</ele>
        <time>2020-10-03T10:26:35.000Z</time>
      </trkpt>
      <trkpt lat="44.12291" lon="3.1249">
        <ele>828</ele>
        <time>2020-10-03T10:26:37.000Z</time>
      </trkpt>
      <trkpt lat="44.12291" lon="3.12489">
        <ele>828</ele>
        <time>2020-10-03T10:26:39.000Z</time>
      </trkpt>
      <trkpt lat="44.1229" lon="3.1249">
        <ele>827.79998779297</ele>
        <time>2020-10-03T10:26:41.000Z</time>
      </trkpt>
      <trkpt lat="44.1229" lon="3.1249">
        <ele>827.59997558594</ele>
        <time>2020-10-03T10:26:43.000Z</time>
      </trkpt>
      <trkpt lat="44.1229" lon="3.12491">
        <ele>827.59997558594</ele>
        <time>2020-10-03T10:26:45.000Z</time>
      </trkpt>
      <trkpt lat="44.1229" lon="3.12491">
        <ele>827.59997558594</ele>
        <time>2020-10-03T10:26:47.000Z</time>
      </trkpt>
      <trkpt lat="44.12289" lon="3.12492">
        <ele>827.59997558594</ele>
        <time>2020-10-03T10:26:49.000Z</time>
      </trkpt>
      <trkpt lat="44.12289" lon="3.12492">
        <ele>827.59997558594</ele>
        <time>2020-10-03T10:26:51.000Z</time>
      </trkpt>
      <trkpt lat="44.12289" lon="3.12492">
        <ele>827.59997558594</ele>
        <time>2020-10-03T10:26:52.000Z</time>
      </trkpt>
      <trkpt lat="44.12289" lon="3.12493">
        <ele>827.59997558594</ele>
        <time>2020-10-03T10:26:53.000Z</time>
      </trkpt>
      <trkpt lat="44.12289" lon="3.12493">
        <ele>827.59997558594</ele>
        <time>2020-10-03T10:26:55.000Z</time>
      </trkpt>
      <trkpt lat="44.12289" lon="3.12493">
        <ele>827.59997558594</ele>
        <time>2020-10-03T10:26:57.000Z</time>
      </trkpt>
      <trkpt lat="44.12289" lon="3.12493">
        <ele>827.59997558594</ele>
        <time>2020-10-03T10:26:59.000Z</time>
      </trkpt>
      <trkpt lat="44.12289" lon="3.12493">
        <ele>827.79998779297</ele>
        <time>2020-10-03T10:27:01.000Z</time>
      </trkpt>
      <trkpt lat="44.12289" lon="3.12493">
        <ele>827.59997558594</ele>
        <time>2020-10-03T10:27:03.000Z</time>
      </trkpt>
      <trkpt lat="44.12289" lon="3.12493">
        <ele>827.59997558594</ele>
        <time>2020-10-03T10:27:05.000Z</time>
      </trkpt>
      <trkpt lat="44.12289" lon="3.12493">
        <ele>827.59997558594</ele>
        <time>2020-10-03T10:27:06.000Z</time>
      </trkpt>
      <trkpt lat="44.12289" lon="3.12493">
        <ele>827.59997558594</ele>
        <time>2020-10-03T10:27:07.000Z</time>
      </trkpt>
      <trkpt lat="44.12289" lon="3.12493">
        <ele>827.59997558594</ele>
        <time>2020-10-03T10:27:09.000Z</time>
      </trkpt>
      <trkpt lat="44.12289" lon="3.12493">
        <ele>827.59997558594</ele>
        <time>2020-10-03T10:27:10.000Z</time>
      </trkpt>
      <trkpt lat="44.12289" lon="3.12493">
        <ele>827.59997558594</ele>
        <time>2020-10-03T10:27:11.000Z</time>
      </trkpt>
      <trkpt lat="44.12289" lon="3.12493">
        <ele>827.59997558594</ele>
        <time>2020-10-03T10:27:13.000Z</time>
      </trkpt>
      <trkpt lat="44.12289" lon="3.12493">
        <ele>827.59997558594</ele>
        <time>2020-10-03T10:27:15.000Z</time>
      </trkpt>
      <trkpt lat="44.12289" lon="3.12492">
        <ele>827.59997558594</ele>
        <time>2020-10-03T10:27:17.000Z</time>
      </trkpt>
      <trkpt lat="44.12289" lon="3.12492">
        <ele>827.40002441406</ele>
        <time>2020-10-03T10:27:19.000Z</time>
      </trkpt>
      <trkpt lat="44.12289" lon="3.12492">
        <ele>827.20001220703</ele>
        <time>2020-10-03T10:27:21.000Z</time>
      </trkpt>
      <trkpt lat="44.12289" lon="3.12493">
        <ele>827.20001220703</ele>
        <time>2020-10-03T10:27:23.000Z</time>
      </trkpt>
      <trkpt lat="44.12289" lon="3.12493">
        <ele>827.20001220703</ele>
        <time>2020-10-03T10:27:25.000Z</time>
      </trkpt>
      <trkpt lat="44.12288" lon="3.12493">
        <ele>827.20001220703</ele>
        <time>2020-10-03T10:27:27.000Z</time>
      </trkpt>
      <trkpt lat="44.12288" lon="3.12492">
        <ele>827.20001220703</ele>
        <time>2020-10-03T10:27:29.000Z</time>
      </trkpt>
      <trkpt lat="44.12288" lon="3.12492">
        <ele>827.20001220703</ele>
        <time>2020-10-03T10:27:31.000Z</time>
      </trkpt>
      <trkpt lat="44.12288" lon="3.12491">
        <ele>827.20001220703</ele>
        <time>2020-10-03T10:27:33.000Z</time>
      </trkpt>
      <trkpt lat="44.12289" lon="3.12491">
        <ele>827.20001220703</ele>
        <time>2020-10-03T10:27:35.000Z</time>
      </trkpt>
      <trkpt lat="44.12289" lon="3.12491">
        <ele>827.20001220703</ele>
        <time>2020-10-03T10:27:37.000Z</time>
      </trkpt>
      <trkpt lat="44.12288" lon="3.12491">
        <ele>827.40002441406</ele>
        <time>2020-10-03T10:27:39.000Z</time>
      </trkpt>
      <trkpt lat="44.12288" lon="3.12491">
        <ele>827.40002441406</ele>
        <time>2020-10-03T10:27:41.000Z</time>
      </trkpt>
      <trkpt lat="44.12289" lon="3.12492">
        <ele>827.79998779297</ele>
        <time>2020-10-03T10:27:43.000Z</time>
      </trkpt>
      <trkpt lat="44.12289" lon="3.12494">
        <ele>828</ele>
        <time>2020-10-03T10:27:45.000Z</time>
      </trkpt>
      <trkpt lat="44.12291" lon="3.12497">
        <ele>828.20001220703</ele>
        <time>2020-10-03T10:27:47.000Z</time>
      </trkpt>
      <trkpt lat="44.12291" lon="3.125">
        <ele>828.20001220703</ele>
        <time>2020-10-03T10:27:49.000Z</time>
      </trkpt>
      <trkpt lat="44.12291" lon="3.12501">
        <ele>828.20001220703</ele>
        <time>2020-10-03T10:27:50.000Z</time>
      </trkpt>
      <trkpt lat="44.12291" lon="3.12502">
        <ele>828.40002441406</ele>
        <time>2020-10-03T10:27:51.000Z</time>
      </trkpt>
      <trkpt lat="44.12291" lon="3.12506">
        <ele>828.40002441406</ele>
        <time>2020-10-03T10:27:53.000Z</time>
      </trkpt>
      <trkpt lat="44.12292" lon="3.12508">
        <ele>828.59997558594</ele>
        <time>2020-10-03T10:27:54.000Z</time>
      </trkpt>
      <trkpt lat="44.12292" lon="3.1251">
        <ele>828.79998779297</ele>
        <time>2020-10-03T10:27:55.000Z</time>
      </trkpt>
      <trkpt lat="44.12292" lon="3.12514">
        <ele>829</ele>
        <time>2020-10-03T10:27:57.000Z</time>
      </trkpt>
      <trkpt lat="44.12292" lon="3.12518">
        <ele>829</ele>
        <time>2020-10-03T10:27:59.000Z</time>
      </trkpt>
      <trkpt lat="44.12292" lon="3.12524">
        <ele>829</ele>
        <time>2020-10-03T10:28:01.000Z</time>
      </trkpt>
      <trkpt lat="44.12292" lon="3.12529">
        <ele>829.20001220703</ele>
        <time>2020-10-03T10:28:03.000Z</time>
      </trkpt>
      <trkpt lat="44.12293" lon="3.12536">
        <ele>829.20001220703</ele>
        <time>2020-10-03T10:28:05.000Z</time>
      </trkpt>
      <trkpt lat="44.12294" lon="3.12543">
        <ele>829.40002441406</ele>
        <time>2020-10-03T10:28:07.000Z</time>
      </trkpt>
      <trkpt lat="44.12294" lon="3.1255">
        <ele>829.79998779297</ele>
        <time>2020-10-03T10:28:09.000Z</time>
      </trkpt>
      <trkpt lat="44.12293" lon="3.12556">
        <ele>830.20001220703</ele>
        <time>2020-10-03T10:28:11.000Z</time>
      </trkpt>
      <trkpt lat="44.12294" lon="3.12563">
        <ele>830.59997558594</ele>
        <time>2020-10-03T10:28:13.000Z</time>
      </trkpt>
      <trkpt lat="44.12295" lon="3.1257">
        <ele>830.59997558594</ele>
        <time>2020-10-03T10:28:15.000Z</time>
      </trkpt>
      <trkpt lat="44.12295" lon="3.12574">
        <ele>830.59997558594</ele>
        <time>2020-10-03T10:28:16.000Z</time>
      </trkpt>
      <trkpt lat="44.12294" lon="3.12578">
        <ele>830.79998779297</ele>
        <time>2020-10-03T10:28:17.000Z</time>
      </trkpt>
      <trkpt lat="44.12294" lon="3.12586">
        <ele>831</ele>
        <time>2020-10-03T10:28:19.000Z</time>
      </trkpt>
      <trkpt lat="44.12294" lon="3.1259">
        <ele>831</ele>
        <time>2020-10-03T10:28:20.000Z</time>
      </trkpt>
      <trkpt lat="44.12293" lon="3.12594">
        <ele>831.40002441406</ele>
        <time>2020-10-03T10:28:21.000Z</time>
      </trkpt>
      <trkpt lat="44.12292" lon="3.12601">
        <ele>831.79998779297</ele>
        <time>2020-10-03T10:28:23.000Z</time>
      </trkpt>
      <trkpt lat="44.1229" lon="3.12607">
        <ele>832</ele>
        <time>2020-10-03T10:28:25.000Z</time>
      </trkpt>
      <trkpt lat="44.12288" lon="3.12614">
        <ele>832.59997558594</ele>
        <time>2020-10-03T10:28:27.000Z</time>
      </trkpt>
      <trkpt lat="44.12286" lon="3.12622">
        <ele>833</ele>
        <time>2020-10-03T10:28:29.000Z</time>
      </trkpt>
      <trkpt lat="44.12285" lon="3.12627">
        <ele>833.20001220703</ele>
        <time>2020-10-03T10:28:30.000Z</time>
      </trkpt>
      <trkpt lat="44.12285" lon="3.12631">
        <ele>833.40002441406</ele>
        <time>2020-10-03T10:28:31.000Z</time>
      </trkpt>
      <trkpt lat="44.12283" lon="3.1264">
        <ele>833.59997558594</ele>
        <time>2020-10-03T10:28:33.000Z</time>
      </trkpt>
      <trkpt lat="44.12281" lon="3.12647">
        <ele>834.20001220703</ele>
        <time>2020-10-03T10:28:35.000Z</time>
      </trkpt>
      <trkpt lat="44.1228" lon="3.12651">
        <ele>834.20001220703</ele>
        <time>2020-10-03T10:28:36.000Z</time>
      </trkpt>
      <trkpt lat="44.1228" lon="3.12655">
        <ele>834.40002441406</ele>
        <time>2020-10-03T10:28:37.000Z</time>
      </trkpt>
      <trkpt lat="44.12279" lon="3.12662">
        <ele>834.59997558594</ele>
        <time>2020-10-03T10:28:39.000Z</time>
      </trkpt>
      <trkpt lat="44.12277" lon="3.12669">
        <ele>835</ele>
        <time>2020-10-03T10:28:41.000Z</time>
      </trkpt>
      <trkpt lat="44.12277" lon="3.12676">
        <ele>835.20001220703</ele>
        <time>2020-10-03T10:28:43.000Z</time>
      </trkpt>
      <trkpt lat="44.12276" lon="3.12679">
        <ele>835.20001220703</ele>
        <time>2020-10-03T10:28:44.000Z</time>
      </trkpt>
      <trkpt lat="44.12275" lon="3.12682">
        <ele>835.59997558594</ele>
        <time>2020-10-03T10:28:45.000Z</time>
      </trkpt>
      <trkpt lat="44.12273" lon="3.12686">
        <ele>835.40002441406</ele>
        <time>2020-10-03T10:28:47.000Z</time>
      </trkpt>
      <trkpt lat="44.12272" lon="3.12692">
        <ele>835.59997558594</ele>
        <time>2020-10-03T10:28:49.000Z</time>
      </trkpt>
      <trkpt lat="44.1227" lon="3.12695">
        <ele>835.59997558594</ele>
        <time>2020-10-03T10:28:50.000Z</time>
      </trkpt>
      <trkpt lat="44.12269" lon="3.12698">
        <ele>835.79998779297</ele>
        <time>2020-10-03T10:28:51.000Z</time>
      </trkpt>
      <trkpt lat="44.12263" lon="3.12701">
        <ele>835.59997558594</ele>
        <time>2020-10-03T10:28:53.000Z</time>
      </trkpt>
      <trkpt lat="44.12259" lon="3.12704">
        <ele>835.79998779297</ele>
        <time>2020-10-03T10:28:55.000Z</time>
      </trkpt>
      <trkpt lat="44.12257" lon="3.12705">
        <ele>836</ele>
        <time>2020-10-03T10:28:56.000Z</time>
      </trkpt>
      <trkpt lat="44.12255" lon="3.12707">
        <ele>836.20001220703</ele>
        <time>2020-10-03T10:28:57.000Z</time>
      </trkpt>
      <trkpt lat="44.12254" lon="3.12708">
        <ele>836.40002441406</ele>
        <time>2020-10-03T10:28:58.000Z</time>
      </trkpt>
      <trkpt lat="44.12252" lon="3.12709">
        <ele>836.59997558594</ele>
        <time>2020-10-03T10:28:59.000Z</time>
      </trkpt>
      <trkpt lat="44.12249" lon="3.12712">
        <ele>837.20001220703</ele>
        <time>2020-10-03T10:29:01.000Z</time>
      </trkpt>
      <trkpt lat="44.12249" lon="3.12714">
        <ele>837.40002441406</ele>
        <time>2020-10-03T10:29:02.000Z</time>
      </trkpt>
      <trkpt lat="44.12248" lon="3.12715">
        <ele>837.40002441406</ele>
        <time>2020-10-03T10:29:03.000Z</time>
      </trkpt>
      <trkpt lat="44.12247" lon="3.12716">
        <ele>838</ele>
        <time>2020-10-03T10:29:04.000Z</time>
      </trkpt>
      <trkpt lat="44.12246" lon="3.12716">
        <ele>838.20001220703</ele>
        <time>2020-10-03T10:29:05.000Z</time>
      </trkpt>
      <trkpt lat="44.12246" lon="3.12717">
        <ele>838.40002441406</ele>
        <time>2020-10-03T10:29:06.000Z</time>
      </trkpt>
      <trkpt lat="44.12245" lon="3.12717">
        <ele>838.59997558594</ele>
        <time>2020-10-03T10:29:07.000Z</time>
      </trkpt>
      <trkpt lat="44.12244" lon="3.1272">
        <ele>838.79998779297</ele>
        <time>2020-10-03T10:29:09.000Z</time>
      </trkpt>
      <trkpt lat="44.12243" lon="3.12722">
        <ele>839</ele>
        <time>2020-10-03T10:29:10.000Z</time>
      </trkpt>
      <trkpt lat="44.12242" lon="3.12724">
        <ele>839.40002441406</ele>
        <time>2020-10-03T10:29:11.000Z</time>
      </trkpt>
      <trkpt lat="44.12239" lon="3.12726">
        <ele>839.79998779297</ele>
        <time>2020-10-03T10:29:13.000Z</time>
      </trkpt>
      <trkpt lat="44.12237" lon="3.1273">
        <ele>840.20001220703</ele>
        <time>2020-10-03T10:29:15.000Z</time>
      </trkpt>
      <trkpt lat="44.12237" lon="3.12732">
        <ele>840.40002441406</ele>
        <time>2020-10-03T10:29:16.000Z</time>
      </trkpt>
      <trkpt lat="44.12236" lon="3.12735">
        <ele>840.59997558594</ele>
        <time>2020-10-03T10:29:17.000Z</time>
      </trkpt>
      <trkpt lat="44.12233" lon="3.12739">
        <ele>840.79998779297</ele>
        <time>2020-10-03T10:29:19.000Z</time>
      </trkpt>
      <trkpt lat="44.1223" lon="3.12743">
        <ele>841</ele>
        <time>2020-10-03T10:29:21.000Z</time>
      </trkpt>
      <trkpt lat="44.12227" lon="3.12748">
        <ele>841.40002441406</ele>
        <time>2020-10-03T10:29:23.000Z</time>
      </trkpt>
      <trkpt lat="44.12224" lon="3.12753">
        <ele>841.59997558594</ele>
        <time>2020-10-03T10:29:25.000Z</time>
      </trkpt>
      <trkpt lat="44.12221" lon="3.12758">
        <ele>842.20001220703</ele>
        <time>2020-10-03T10:29:27.000Z</time>
      </trkpt>
      <trkpt lat="44.12217" lon="3.12762">
        <ele>842.40002441406</ele>
        <time>2020-10-03T10:29:29.000Z</time>
      </trkpt>
      <trkpt lat="44.12213" lon="3.12766">
        <ele>842.79998779297</ele>
        <time>2020-10-03T10:29:31.000Z</time>
      </trkpt>
      <trkpt lat="44.12209" lon="3.12768">
        <ele>843.20001220703</ele>
        <time>2020-10-03T10:29:33.000Z</time>
      </trkpt>
      <trkpt lat="44.12205" lon="3.1277">
        <ele>843.40002441406</ele>
        <time>2020-10-03T10:29:35.000Z</time>
      </trkpt>
      <trkpt lat="44.12203" lon="3.12771">
        <ele>843.59997558594</ele>
        <time>2020-10-03T10:29:36.000Z</time>
      </trkpt>
      <trkpt lat="44.12201" lon="3.12772">
        <ele>843.79998779297</ele>
        <time>2020-10-03T10:29:37.000Z</time>
      </trkpt>
      <trkpt lat="44.12196" lon="3.12773">
        <ele>844.20001220703</ele>
        <time>2020-10-03T10:29:39.000Z</time>
      </trkpt>
      <trkpt lat="44.12193" lon="3.12776">
        <ele>844.40002441406</ele>
        <time>2020-10-03T10:29:41.000Z</time>
      </trkpt>
      <trkpt lat="44.12189" lon="3.12778">
        <ele>844.79998779297</ele>
        <time>2020-10-03T10:29:43.000Z</time>
      </trkpt>
      <trkpt lat="44.12186" lon="3.12782">
        <ele>845</ele>
        <time>2020-10-03T10:29:45.000Z</time>
      </trkpt>
      <trkpt lat="44.12184" lon="3.12784">
        <ele>845</ele>
        <time>2020-10-03T10:29:46.000Z</time>
      </trkpt>
      <trkpt lat="44.12182" lon="3.12786">
        <ele>845</ele>
        <time>2020-10-03T10:29:47.000Z</time>
      </trkpt>
      <trkpt lat="44.12176" lon="3.1279">
        <ele>845.20001220703</ele>
        <time>2020-10-03T10:29:49.000Z</time>
      </trkpt>
      <trkpt lat="44.1217" lon="3.12794">
        <ele>845.20001220703</ele>
        <time>2020-10-03T10:29:51.000Z</time>
      </trkpt>
      <trkpt lat="44.12164" lon="3.12797">
        <ele>845.40002441406</ele>
        <time>2020-10-03T10:29:53.000Z</time>
      </trkpt>
      <trkpt lat="44.12162" lon="3.12799">
        <ele>845.40002441406</ele>
        <time>2020-10-03T10:29:54.000Z</time>
      </trkpt>
      <trkpt lat="44.12159" lon="3.12801">
        <ele>845.40002441406</ele>
        <time>2020-10-03T10:29:55.000Z</time>
      </trkpt>
      <trkpt lat="44.12155" lon="3.12804">
        <ele>845.40002441406</ele>
        <time>2020-10-03T10:29:57.000Z</time>
      </trkpt>
      <trkpt lat="44.12151" lon="3.12807">
        <ele>845.40002441406</ele>
        <time>2020-10-03T10:29:59.000Z</time>
      </trkpt>
      <trkpt lat="44.1215" lon="3.1281">
        <ele>845.20001220703</ele>
        <time>2020-10-03T10:30:00.000Z</time>
      </trkpt>
      <trkpt lat="44.12147" lon="3.12811">
        <ele>845.20001220703</ele>
        <time>2020-10-03T10:30:01.000Z</time>
      </trkpt>
      <trkpt lat="44.12143" lon="3.12811">
        <ele>845</ele>
        <time>2020-10-03T10:30:03.000Z</time>
      </trkpt>
      <trkpt lat="44.12139" lon="3.12812">
        <ele>844.79998779297</ele>
        <time>2020-10-03T10:30:05.000Z</time>
      </trkpt>
      <trkpt lat="44.12133" lon="3.12813">
        <ele>844.59997558594</ele>
        <time>2020-10-03T10:30:07.000Z</time>
      </trkpt>
      <trkpt lat="44.12129" lon="3.12813">
        <ele>844.59997558594</ele>
        <time>2020-10-03T10:30:09.000Z</time>
      </trkpt>
      <trkpt lat="44.12124" lon="3.12814">
        <ele>844.59997558594</ele>
        <time>2020-10-03T10:30:11.000Z</time>
      </trkpt>
      <trkpt lat="44.12121" lon="3.12815">
        <ele>844.40002441406</ele>
        <time>2020-10-03T10:30:13.000Z</time>
      </trkpt>
      <trkpt lat="44.12119" lon="3.12816">
        <ele>844.40002441406</ele>
        <time>2020-10-03T10:30:14.000Z</time>
      </trkpt>
      <trkpt lat="44.12117" lon="3.12817">
        <ele>844.40002441406</ele>
        <time>2020-10-03T10:30:15.000Z</time>
      </trkpt>
      <trkpt lat="44.12112" lon="3.12819">
        <ele>844.40002441406</ele>
        <time>2020-10-03T10:30:17.000Z</time>
      </trkpt>
      <trkpt lat="44.12107" lon="3.12821">
        <ele>844.20001220703</ele>
        <time>2020-10-03T10:30:19.000Z</time>
      </trkpt>
      <trkpt lat="44.12103" lon="3.12821">
        <ele>844</ele>
        <time>2020-10-03T10:30:21.000Z</time>
      </trkpt>
      <trkpt lat="44.12101" lon="3.12822">
        <ele>844</ele>
        <time>2020-10-03T10:30:23.000Z</time>
      </trkpt>
      <trkpt lat="44.121" lon="3.12823">
        <ele>844</ele>
        <time>2020-10-03T10:30:25.000Z</time>
      </trkpt>
      <trkpt lat="44.121" lon="3.12824">
        <ele>844</ele>
        <time>2020-10-03T10:30:27.000Z</time>
      </trkpt>
      <trkpt lat="44.12101" lon="3.12824">
        <ele>844</ele>
        <time>2020-10-03T10:30:29.000Z</time>
      </trkpt>
      <trkpt lat="44.12102" lon="3.12824">
        <ele>844</ele>
        <time>2020-10-03T10:30:31.000Z</time>
      </trkpt>
      <trkpt lat="44.12102" lon="3.12824">
        <ele>843.79998779297</ele>
        <time>2020-10-03T10:30:33.000Z</time>
      </trkpt>
      <trkpt lat="44.12103" lon="3.12825">
        <ele>844</ele>
        <time>2020-10-03T10:30:35.000Z</time>
      </trkpt>
      <trkpt lat="44.12102" lon="3.12824">
        <ele>843.79998779297</ele>
        <time>2020-10-03T10:30:37.000Z</time>
      </trkpt>
      <trkpt lat="44.12102" lon="3.12824">
        <ele>843.79998779297</ele>
        <time>2020-10-03T10:30:39.000Z</time>
      </trkpt>
      <trkpt lat="44.12101" lon="3.12824">
        <ele>843.79998779297</ele>
        <time>2020-10-03T10:30:41.000Z</time>
      </trkpt>
      <trkpt lat="44.12101" lon="3.12823">
        <ele>843.59997558594</ele>
        <time>2020-10-03T10:30:43.000Z</time>
      </trkpt>
      <trkpt lat="44.121" lon="3.12823">
        <ele>843.59997558594</ele>
        <time>2020-10-03T10:30:45.000Z</time>
      </trkpt>
      <trkpt lat="44.12099" lon="3.12824">
        <ele>843.59997558594</ele>
        <time>2020-10-03T10:30:47.000Z</time>
      </trkpt>
      <trkpt lat="44.12099" lon="3.12824">
        <ele>843.59997558594</ele>
        <time>2020-10-03T10:30:49.000Z</time>
      </trkpt>
      <trkpt lat="44.12098" lon="3.12824">
        <ele>843.59997558594</ele>
        <time>2020-10-03T10:30:51.000Z</time>
      </trkpt>
      <trkpt lat="44.12098" lon="3.12825">
        <ele>843.59997558594</ele>
        <time>2020-10-03T10:30:53.000Z</time>
      </trkpt>
      <trkpt lat="44.12098" lon="3.12825">
        <ele>843.59997558594</ele>
        <time>2020-10-03T10:30:54.000Z</time>
      </trkpt>
      <trkpt lat="44.12097" lon="3.12825">
        <ele>843.59997558594</ele>
        <time>2020-10-03T10:30:55.000Z</time>
      </trkpt>
      <trkpt lat="44.12096" lon="3.12824">
        <ele>843.59997558594</ele>
        <time>2020-10-03T10:30:57.000Z</time>
      </trkpt>
      <trkpt lat="44.12096" lon="3.12825">
        <ele>843.59997558594</ele>
        <time>2020-10-03T10:30:59.000Z</time>
      </trkpt>
      <trkpt lat="44.12096" lon="3.12825">
        <ele>843.59997558594</ele>
        <time>2020-10-03T10:31:01.000Z</time>
      </trkpt>
      <trkpt lat="44.12095" lon="3.12825">
        <ele>843.59997558594</ele>
        <time>2020-10-03T10:31:02.000Z</time>
      </trkpt>
      <trkpt lat="44.12095" lon="3.12825">
        <ele>843.59997558594</ele>
        <time>2020-10-03T10:31:03.000Z</time>
      </trkpt>
      <trkpt lat="44.12094" lon="3.12824">
        <ele>843.59997558594</ele>
        <time>2020-10-03T10:31:05.000Z</time>
      </trkpt>
      <trkpt lat="44.12093" lon="3.12824">
        <ele>843.59997558594</ele>
        <time>2020-10-03T10:31:07.000Z</time>
      </trkpt>
      <trkpt lat="44.12092" lon="3.12824">
        <ele>843.59997558594</ele>
        <time>2020-10-03T10:31:09.000Z</time>
      </trkpt>
      <trkpt lat="44.12092" lon="3.12824">
        <ele>843.59997558594</ele>
        <time>2020-10-03T10:31:11.000Z</time>
      </trkpt>
      <trkpt lat="44.12093" lon="3.12824">
        <ele>843.20001220703</ele>
        <time>2020-10-03T10:31:13.000Z</time>
      </trkpt>
      <trkpt lat="44.12093" lon="3.12824">
        <ele>843.20001220703</ele>
        <time>2020-10-03T10:31:15.000Z</time>
      </trkpt>
      <trkpt lat="44.12094" lon="3.12824">
        <ele>843.20001220703</ele>
        <time>2020-10-03T10:31:17.000Z</time>
      </trkpt>
      <trkpt lat="44.12093" lon="3.12823">
        <ele>843.20001220703</ele>
        <time>2020-10-03T10:31:19.000Z</time>
      </trkpt>
      <trkpt lat="44.12093" lon="3.12823">
        <ele>843.20001220703</ele>
        <time>2020-10-03T10:31:21.000Z</time>
      </trkpt>
      <trkpt lat="44.12092" lon="3.12826">
        <ele>843.20001220703</ele>
        <time>2020-10-03T10:31:22.000Z</time>
      </trkpt>
      <trkpt lat="44.1209" lon="3.12829">
        <ele>843.20001220703</ele>
        <time>2020-10-03T10:31:23.000Z</time>
      </trkpt>
      <trkpt lat="44.12086" lon="3.12835">
        <ele>843.20001220703</ele>
        <time>2020-10-03T10:31:25.000Z</time>
      </trkpt>
      <trkpt lat="44.12084" lon="3.12838">
        <ele>843.20001220703</ele>
        <time>2020-10-03T10:31:26.000Z</time>
      </trkpt>
      <trkpt lat="44.12082" lon="3.12843">
        <ele>843.20001220703</ele>
        <time>2020-10-03T10:31:27.000Z</time>
      </trkpt>
      <trkpt lat="44.12081" lon="3.12847">
        <ele>843.20001220703</ele>
        <time>2020-10-03T10:31:28.000Z</time>
      </trkpt>
      <trkpt lat="44.12079" lon="3.12853">
        <ele>843</ele>
        <time>2020-10-03T10:31:29.000Z</time>
      </trkpt>
      <trkpt lat="44.12077" lon="3.12866">
        <ele>842.59997558594</ele>
        <time>2020-10-03T10:31:31.000Z</time>
      </trkpt>
      <trkpt lat="44.12077" lon="3.12881">
        <ele>841.79998779297</ele>
        <time>2020-10-03T10:31:33.000Z</time>
      </trkpt>
      <trkpt lat="44.12078" lon="3.12893">
        <ele>841</ele>
        <time>2020-10-03T10:31:35.000Z</time>
      </trkpt>
      <trkpt lat="44.1208" lon="3.12901">
        <ele>840.59997558594</ele>
        <time>2020-10-03T10:31:36.000Z</time>
      </trkpt>
      <trkpt lat="44.12081" lon="3.12909">
        <ele>840</ele>
        <time>2020-10-03T10:31:37.000Z</time>
      </trkpt>
      <trkpt lat="44.12083" lon="3.12919">
        <ele>839.59997558594</ele>
        <time>2020-10-03T10:31:38.000Z</time>
      </trkpt>
      <trkpt lat="44.12084" lon="3.12928">
        <ele>839</ele>
        <time>2020-10-03T10:31:39.000Z</time>
      </trkpt>
      <trkpt lat="44.12088" lon="3.12944">
        <ele>838</ele>
        <time>2020-10-03T10:31:41.000Z</time>
      </trkpt>
      <trkpt lat="44.1209" lon="3.1295">
        <ele>837.40002441406</ele>
        <time>2020-10-03T10:31:42.000Z</time>
      </trkpt>
      <trkpt lat="44.12093" lon="3.12955">
        <ele>837</ele>
        <time>2020-10-03T10:31:43.000Z</time>
      </trkpt>
      <trkpt lat="44.12099" lon="3.12961">
        <ele>836.20001220703</ele>
        <time>2020-10-03T10:31:45.000Z</time>
      </trkpt>
      <trkpt lat="44.12103" lon="3.12965">
        <ele>836</ele>
        <time>2020-10-03T10:31:46.000Z</time>
      </trkpt>
      <trkpt lat="44.12107" lon="3.1297">
        <ele>835.40002441406</ele>
        <time>2020-10-03T10:31:47.000Z</time>
      </trkpt>
      <trkpt lat="44.12111" lon="3.12974">
        <ele>834.79998779297</ele>
        <time>2020-10-03T10:31:48.000Z</time>
      </trkpt>
      <trkpt lat="44.12114" lon="3.12979">
        <ele>834.59997558594</ele>
        <time>2020-10-03T10:31:49.000Z</time>
      </trkpt>
      <trkpt lat="44.12121" lon="3.12987">
        <ele>834.20001220703</ele>
        <time>2020-10-03T10:31:51.000Z</time>
      </trkpt>
      <trkpt lat="44.12129" lon="3.12994">
        <ele>834.20001220703</ele>
        <time>2020-10-03T10:31:53.000Z</time>
      </trkpt>
      <trkpt lat="44.12132" lon="3.12997">
        <ele>834</ele>
        <time>2020-10-03T10:31:54.000Z</time>
      </trkpt>
      <trkpt lat="44.12136" lon="3.13003">
        <ele>834</ele>
        <time>2020-10-03T10:31:55.000Z</time>
      </trkpt>
      <trkpt lat="44.12143" lon="3.13012">
        <ele>833.79998779297</ele>
        <time>2020-10-03T10:31:57.000Z</time>
      </trkpt>
      <trkpt lat="44.12145" lon="3.13019">
        <ele>833.79998779297</ele>
        <time>2020-10-03T10:31:58.000Z</time>
      </trkpt>
      <trkpt lat="44.12147" lon="3.13027">
        <ele>833.79998779297</ele>
        <time>2020-10-03T10:31:59.000Z</time>
      </trkpt>
      <trkpt lat="44.12147" lon="3.13043">
        <ele>833.59997558594</ele>
        <time>2020-10-03T10:32:01.000Z</time>
      </trkpt>
      <trkpt lat="44.12148" lon="3.13053">
        <ele>833.20001220703</ele>
        <time>2020-10-03T10:32:02.000Z</time>
      </trkpt>
      <trkpt lat="44.12149" lon="3.13059">
        <ele>833</ele>
        <time>2020-10-03T10:32:03.000Z</time>
      </trkpt>
      <trkpt lat="44.1215" lon="3.13064">
        <ele>832.40002441406</ele>
        <time>2020-10-03T10:32:04.000Z</time>
      </trkpt>
      <trkpt lat="44.12152" lon="3.13069">
        <ele>831.40002441406</ele>
        <time>2020-10-03T10:32:05.000Z</time>
      </trkpt>
      <trkpt lat="44.12154" lon="3.13073">
        <ele>830.59997558594</ele>
        <time>2020-10-03T10:32:06.000Z</time>
      </trkpt>
      <trkpt lat="44.12157" lon="3.13078">
        <ele>829.79998779297</ele>
        <time>2020-10-03T10:32:07.000Z</time>
      </trkpt>
      <trkpt lat="44.1216" lon="3.13084">
        <ele>829.20001220703</ele>
        <time>2020-10-03T10:32:08.000Z</time>
      </trkpt>
      <trkpt lat="44.12162" lon="3.1309">
        <ele>828.59997558594</ele>
        <time>2020-10-03T10:32:09.000Z</time>
      </trkpt>
      <trkpt lat="44.12166" lon="3.13095">
        <ele>827.79998779297</ele>
        <time>2020-10-03T10:32:10.000Z</time>
      </trkpt>
      <trkpt lat="44.1217" lon="3.13101">
        <ele>827</ele>
        <time>2020-10-03T10:32:11.000Z</time>
      </trkpt>
      <trkpt lat="44.12175" lon="3.13107">
        <ele>826.40002441406</ele>
        <time>2020-10-03T10:32:12.000Z</time>
      </trkpt>
      <trkpt lat="44.12179" lon="3.13112">
        <ele>826</ele>
        <time>2020-10-03T10:32:13.000Z</time>
      </trkpt>
      <trkpt lat="44.12183" lon="3.13119">
        <ele>825.40002441406</ele>
        <time>2020-10-03T10:32:14.000Z</time>
      </trkpt>
      <trkpt lat="44.12188" lon="3.13128">
        <ele>824.79998779297</ele>
        <time>2020-10-03T10:32:15.000Z</time>
      </trkpt>
      <trkpt lat="44.12195" lon="3.13144">
        <ele>824</ele>
        <time>2020-10-03T10:32:17.000Z</time>
      </trkpt>
      <trkpt lat="44.12197" lon="3.1315">
        <ele>823.20001220703</ele>
        <time>2020-10-03T10:32:18.000Z</time>
      </trkpt>
      <trkpt lat="44.12198" lon="3.13158">
        <ele>822.79998779297</ele>
        <time>2020-10-03T10:32:19.000Z</time>
      </trkpt>
      <trkpt lat="44.12197" lon="3.13172">
        <ele>821.40002441406</ele>
        <time>2020-10-03T10:32:21.000Z</time>
      </trkpt>
      <trkpt lat="44.12194" lon="3.13188">
        <ele>820.20001220703</ele>
        <time>2020-10-03T10:32:23.000Z</time>
      </trkpt>
      <trkpt lat="44.12192" lon="3.13196">
        <ele>819.59997558594</ele>
        <time>2020-10-03T10:32:24.000Z</time>
      </trkpt>
      <trkpt lat="44.1219" lon="3.13203">
        <ele>818.40002441406</ele>
        <time>2020-10-03T10:32:25.000Z</time>
      </trkpt>
      <trkpt lat="44.12188" lon="3.13211">
        <ele>817.79998779297</ele>
        <time>2020-10-03T10:32:26.000Z</time>
      </trkpt>
      <trkpt lat="44.12185" lon="3.13219">
        <ele>817.40002441406</ele>
        <time>2020-10-03T10:32:27.000Z</time>
      </trkpt>
      <trkpt lat="44.12183" lon="3.13228">
        <ele>816.79998779297</ele>
        <time>2020-10-03T10:32:28.000Z</time>
      </trkpt>
      <trkpt lat="44.12183" lon="3.1324">
        <ele>816.40002441406</ele>
        <time>2020-10-03T10:32:29.000Z</time>
      </trkpt>
      <trkpt lat="44.12182" lon="3.1325">
        <ele>816</ele>
        <time>2020-10-03T10:32:30.000Z</time>
      </trkpt>
      <trkpt lat="44.12183" lon="3.1326">
        <ele>815.40002441406</ele>
        <time>2020-10-03T10:32:31.000Z</time>
      </trkpt>
      <trkpt lat="44.12185" lon="3.13269">
        <ele>814.79998779297</ele>
        <time>2020-10-03T10:32:32.000Z</time>
      </trkpt>
      <trkpt lat="44.12187" lon="3.13277">
        <ele>814.40002441406</ele>
        <time>2020-10-03T10:32:33.000Z</time>
      </trkpt>
      <trkpt lat="44.12192" lon="3.13286">
        <ele>814</ele>
        <time>2020-10-03T10:32:34.000Z</time>
      </trkpt>
      <trkpt lat="44.12196" lon="3.13294">
        <ele>813.59997558594</ele>
        <time>2020-10-03T10:32:35.000Z</time>
      </trkpt>
      <trkpt lat="44.122" lon="3.13301">
        <ele>813</ele>
        <time>2020-10-03T10:32:36.000Z</time>
      </trkpt>
      <trkpt lat="44.12204" lon="3.1331">
        <ele>812.40002441406</ele>
        <time>2020-10-03T10:32:37.000Z</time>
      </trkpt>
      <trkpt lat="44.1221" lon="3.13326">
        <ele>811.20001220703</ele>
        <time>2020-10-03T10:32:39.000Z</time>
      </trkpt>
      <trkpt lat="44.12214" lon="3.13342">
        <ele>810.40002441406</ele>
        <time>2020-10-03T10:32:41.000Z</time>
      </trkpt>
      <trkpt lat="44.12216" lon="3.1335">
        <ele>810</ele>
        <time>2020-10-03T10:32:42.000Z</time>
      </trkpt>
      <trkpt lat="44.12217" lon="3.13356">
        <ele>809.59997558594</ele>
        <time>2020-10-03T10:32:43.000Z</time>
      </trkpt>
      <trkpt lat="44.12219" lon="3.13368">
        <ele>809.20001220703</ele>
        <time>2020-10-03T10:32:45.000Z</time>
      </trkpt>
      <trkpt lat="44.12221" lon="3.13379">
        <ele>808.79998779297</ele>
        <time>2020-10-03T10:32:47.000Z</time>
      </trkpt>
      <trkpt lat="44.12225" lon="3.13391">
        <ele>808.79998779297</ele>
        <time>2020-10-03T10:32:49.000Z</time>
      </trkpt>
      <trkpt lat="44.12228" lon="3.13397">
        <ele>808.79998779297</ele>
        <time>2020-10-03T10:32:50.000Z</time>
      </trkpt>
      <trkpt lat="44.1223" lon="3.13402">
        <ele>808.79998779297</ele>
        <time>2020-10-03T10:32:51.000Z</time>
      </trkpt>
      <trkpt lat="44.12235" lon="3.13412">
        <ele>808.79998779297</ele>
        <time>2020-10-03T10:32:53.000Z</time>
      </trkpt>
      <trkpt lat="44.12239" lon="3.1342">
        <ele>808.79998779297</ele>
        <time>2020-10-03T10:32:55.000Z</time>
      </trkpt>
      <trkpt lat="44.12243" lon="3.13428">
        <ele>809</ele>
        <time>2020-10-03T10:32:57.000Z</time>
      </trkpt>
      <trkpt lat="44.12247" lon="3.13434">
        <ele>809</ele>
        <time>2020-10-03T10:32:59.000Z</time>
      </trkpt>
      <trkpt lat="44.12252" lon="3.13441">
        <ele>809.20001220703</ele>
        <time>2020-10-03T10:33:01.000Z</time>
      </trkpt>
      <trkpt lat="44.12257" lon="3.13447">
        <ele>809.20001220703</ele>
        <time>2020-10-03T10:33:03.000Z</time>
      </trkpt>
      <trkpt lat="44.12262" lon="3.13453">
        <ele>809.20001220703</ele>
        <time>2020-10-03T10:33:05.000Z</time>
      </trkpt>
      <trkpt lat="44.12267" lon="3.13461">
        <ele>809.20001220703</ele>
        <time>2020-10-03T10:33:07.000Z</time>
      </trkpt>
      <trkpt lat="44.12271" lon="3.1347">
        <ele>809</ele>
        <time>2020-10-03T10:33:09.000Z</time>
      </trkpt>
      <trkpt lat="44.12273" lon="3.13475">
        <ele>809</ele>
        <time>2020-10-03T10:33:10.000Z</time>
      </trkpt>
      <trkpt lat="44.12274" lon="3.13478">
        <ele>809</ele>
        <time>2020-10-03T10:33:11.000Z</time>
      </trkpt>
      <trkpt lat="44.12275" lon="3.13482">
        <ele>808.79998779297</ele>
        <time>2020-10-03T10:33:13.000Z</time>
      </trkpt>
      <trkpt lat="44.12276" lon="3.13484">
        <ele>808.59997558594</ele>
        <time>2020-10-03T10:33:14.000Z</time>
      </trkpt>
      <trkpt lat="44.12276" lon="3.13485">
        <ele>808.40002441406</ele>
        <time>2020-10-03T10:33:15.000Z</time>
      </trkpt>
      <trkpt lat="44.12276" lon="3.13486">
        <ele>807.79998779297</ele>
        <time>2020-10-03T10:33:17.000Z</time>
      </trkpt>
      <trkpt lat="44.12277" lon="3.13486">
        <ele>807.40002441406</ele>
        <time>2020-10-03T10:33:18.000Z</time>
      </trkpt>
      <trkpt lat="44.12276" lon="3.13486">
        <ele>807.20001220703</ele>
        <time>2020-10-03T10:33:19.000Z</time>
      </trkpt>
      <trkpt lat="44.12276" lon="3.13486">
        <ele>807.20001220703</ele>
        <time>2020-10-03T10:33:21.000Z</time>
      </trkpt>
      <trkpt lat="44.12277" lon="3.13486">
        <ele>807</ele>
        <time>2020-10-03T10:33:23.000Z</time>
      </trkpt>
      <trkpt lat="44.12277" lon="3.13487">
        <ele>807</ele>
        <time>2020-10-03T10:33:25.000Z</time>
      </trkpt>
      <trkpt lat="44.12277" lon="3.13492">
        <ele>807</ele>
        <time>2020-10-03T10:33:27.000Z</time>
      </trkpt>
      <trkpt lat="44.12277" lon="3.13496">
        <ele>807</ele>
        <time>2020-10-03T10:33:28.000Z</time>
      </trkpt>
      <trkpt lat="44.12277" lon="3.135">
        <ele>807</ele>
        <time>2020-10-03T10:33:29.000Z</time>
      </trkpt>
      <trkpt lat="44.12277" lon="3.13509">
        <ele>807</ele>
        <time>2020-10-03T10:33:31.000Z</time>
      </trkpt>
      <trkpt lat="44.12274" lon="3.13514">
        <ele>806.79998779297</ele>
        <time>2020-10-03T10:33:33.000Z</time>
      </trkpt>
      <trkpt lat="44.12271" lon="3.13517">
        <ele>806.40002441406</ele>
        <time>2020-10-03T10:33:35.000Z</time>
      </trkpt>
      <trkpt lat="44.12266" lon="3.13522">
        <ele>805.59997558594</ele>
        <time>2020-10-03T10:33:37.000Z</time>
      </trkpt>
      <trkpt lat="44.12263" lon="3.13527">
        <ele>805.40002441406</ele>
        <time>2020-10-03T10:33:38.000Z</time>
      </trkpt>
      <trkpt lat="44.1226" lon="3.13534">
        <ele>805.20001220703</ele>
        <time>2020-10-03T10:33:39.000Z</time>
      </trkpt>
      <trkpt lat="44.12253" lon="3.13546">
        <ele>804.79998779297</ele>
        <time>2020-10-03T10:33:41.000Z</time>
      </trkpt>
      <trkpt lat="44.12245" lon="3.13564">
        <ele>804.79998779297</ele>
        <time>2020-10-03T10:33:43.000Z</time>
      </trkpt>
      <trkpt lat="44.12237" lon="3.1358">
        <ele>804.59997558594</ele>
        <time>2020-10-03T10:33:45.000Z</time>
      </trkpt>
      <trkpt lat="44.1223" lon="3.13593">
        <ele>804.20001220703</ele>
        <time>2020-10-03T10:33:47.000Z</time>
      </trkpt>
      <trkpt lat="44.12226" lon="3.13601">
        <ele>803.79998779297</ele>
        <time>2020-10-03T10:33:48.000Z</time>
      </trkpt>
      <trkpt lat="44.12223" lon="3.13609">
        <ele>803.20001220703</ele>
        <time>2020-10-03T10:33:49.000Z</time>
      </trkpt>
      <trkpt lat="44.12221" lon="3.13616">
        <ele>802.79998779297</ele>
        <time>2020-10-03T10:33:50.000Z</time>
      </trkpt>
      <trkpt lat="44.12219" lon="3.13622">
        <ele>802</ele>
        <time>2020-10-03T10:33:51.000Z</time>
      </trkpt>
      <trkpt lat="44.12218" lon="3.13629">
        <ele>801.59997558594</ele>
        <time>2020-10-03T10:33:52.000Z</time>
      </trkpt>
      <trkpt lat="44.12217" lon="3.13637">
        <ele>801.20001220703</ele>
        <time>2020-10-03T10:33:53.000Z</time>
      </trkpt>
      <trkpt lat="44.12215" lon="3.13647">
        <ele>800</ele>
        <time>2020-10-03T10:33:55.000Z</time>
      </trkpt>
      <trkpt lat="44.12211" lon="3.13654">
        <ele>798.79998779297</ele>
        <time>2020-10-03T10:33:57.000Z</time>
      </trkpt>
      <trkpt lat="44.12208" lon="3.13656">
        <ele>798</ele>
        <time>2020-10-03T10:33:58.000Z</time>
      </trkpt>
      <trkpt lat="44.12204" lon="3.13659">
        <ele>797</ele>
        <time>2020-10-03T10:33:59.000Z</time>
      </trkpt>
      <trkpt lat="44.12197" lon="3.13663">
        <ele>795.59997558594</ele>
        <time>2020-10-03T10:34:01.000Z</time>
      </trkpt>
      <trkpt lat="44.12192" lon="3.13667">
        <ele>795</ele>
        <time>2020-10-03T10:34:02.000Z</time>
      </trkpt>
      <trkpt lat="44.12189" lon="3.13673">
        <ele>794.20001220703</ele>
        <time>2020-10-03T10:34:03.000Z</time>
      </trkpt>
      <trkpt lat="44.12182" lon="3.13683">
        <ele>793.59997558594</ele>
        <time>2020-10-03T10:34:05.000Z</time>
      </trkpt>
      <trkpt lat="44.12178" lon="3.13686">
        <ele>793.40002441406</ele>
        <time>2020-10-03T10:34:06.000Z</time>
      </trkpt>
      <trkpt lat="44.12175" lon="3.13689">
        <ele>793.20001220703</ele>
        <time>2020-10-03T10:34:07.000Z</time>
      </trkpt>
      <trkpt lat="44.12172" lon="3.1369">
        <ele>792.79998779297</ele>
        <time>2020-10-03T10:34:08.000Z</time>
      </trkpt>
      <trkpt lat="44.12169" lon="3.1369">
        <ele>792.40002441406</ele>
        <time>2020-10-03T10:34:09.000Z</time>
      </trkpt>
      <trkpt lat="44.12166" lon="3.1369">
        <ele>791.79998779297</ele>
        <time>2020-10-03T10:34:10.000Z</time>
      </trkpt>
      <trkpt lat="44.12162" lon="3.13692">
        <ele>791.20001220703</ele>
        <time>2020-10-03T10:34:11.000Z</time>
      </trkpt>
      <trkpt lat="44.12159" lon="3.13693">
        <ele>790.59997558594</ele>
        <time>2020-10-03T10:34:12.000Z</time>
      </trkpt>
      <trkpt lat="44.12155" lon="3.13693">
        <ele>789.79998779297</ele>
        <time>2020-10-03T10:34:13.000Z</time>
      </trkpt>
      <trkpt lat="44.12149" lon="3.13693">
        <ele>789</ele>
        <time>2020-10-03T10:34:14.000Z</time>
      </trkpt>
      <trkpt lat="44.12142" lon="3.13695">
        <ele>788</ele>
        <time>2020-10-03T10:34:15.000Z</time>
      </trkpt>
      <trkpt lat="44.12135" lon="3.13698">
        <ele>787.59997558594</ele>
        <time>2020-10-03T10:34:16.000Z</time>
      </trkpt>
      <trkpt lat="44.12131" lon="3.137">
        <ele>787.20001220703</ele>
        <time>2020-10-03T10:34:17.000Z</time>
      </trkpt>
      <trkpt lat="44.12123" lon="3.1371">
        <ele>786.20001220703</ele>
        <time>2020-10-03T10:34:19.000Z</time>
      </trkpt>
      <trkpt lat="44.12117" lon="3.13719">
        <ele>785.59997558594</ele>
        <time>2020-10-03T10:34:21.000Z</time>
      </trkpt>
      <trkpt lat="44.12112" lon="3.13721">
        <ele>785.20001220703</ele>
        <time>2020-10-03T10:34:22.000Z</time>
      </trkpt>
      <trkpt lat="44.12107" lon="3.13722">
        <ele>784.59997558594</ele>
        <time>2020-10-03T10:34:23.000Z</time>
      </trkpt>
      <trkpt lat="44.121" lon="3.1373">
        <ele>782.79998779297</ele>
        <time>2020-10-03T10:34:25.000Z</time>
      </trkpt>
      <trkpt lat="44.12097" lon="3.13735">
        <ele>781.79998779297</ele>
        <time>2020-10-03T10:34:26.000Z</time>
      </trkpt>
      <trkpt lat="44.12092" lon="3.13738">
        <ele>781</ele>
        <time>2020-10-03T10:34:27.000Z</time>
      </trkpt>
      <trkpt lat="44.12087" lon="3.1374">
        <ele>780</ele>
        <time>2020-10-03T10:34:28.000Z</time>
      </trkpt>
      <trkpt lat="44.1208" lon="3.13741">
        <ele>778.79998779297</ele>
        <time>2020-10-03T10:34:29.000Z</time>
      </trkpt>
      <trkpt lat="44.12073" lon="3.13744">
        <ele>777.79998779297</ele>
        <time>2020-10-03T10:34:30.000Z</time>
      </trkpt>
      <trkpt lat="44.12066" lon="3.13745">
        <ele>777</ele>
        <time>2020-10-03T10:34:31.000Z</time>
      </trkpt>
      <trkpt lat="44.12061" lon="3.13746">
        <ele>776.59997558594</ele>
        <time>2020-10-03T10:34:32.000Z</time>
      </trkpt>
      <trkpt lat="44.12057" lon="3.13745">
        <ele>776</ele>
        <time>2020-10-03T10:34:33.000Z</time>
      </trkpt>
      <trkpt lat="44.12055" lon="3.13744">
        <ele>775.20001220703</ele>
        <time>2020-10-03T10:34:34.000Z</time>
      </trkpt>
      <trkpt lat="44.12053" lon="3.13744">
        <ele>774.40002441406</ele>
        <time>2020-10-03T10:34:35.000Z</time>
      </trkpt>
      <trkpt lat="44.12052" lon="3.13746">
        <ele>773.59997558594</ele>
        <time>2020-10-03T10:34:36.000Z</time>
      </trkpt>
      <trkpt lat="44.12052" lon="3.13747">
        <ele>772.59997558594</ele>
        <time>2020-10-03T10:34:37.000Z</time>
      </trkpt>
      <trkpt lat="44.12051" lon="3.13748">
        <ele>771.59997558594</ele>
        <time>2020-10-03T10:34:38.000Z</time>
      </trkpt>
      <trkpt lat="44.12051" lon="3.13748">
        <ele>770.40002441406</ele>
        <time>2020-10-03T10:34:39.000Z</time>
      </trkpt>
      <trkpt lat="44.12051" lon="3.13748">
        <ele>769</ele>
        <time>2020-10-03T10:34:40.000Z</time>
      </trkpt>
      <trkpt lat="44.12051" lon="3.13748">
        <ele>767.79998779297</ele>
        <time>2020-10-03T10:34:41.000Z</time>
      </trkpt>
      <trkpt lat="44.12051" lon="3.13748">
        <ele>766.59997558594</ele>
        <time>2020-10-03T10:34:42.000Z</time>
      </trkpt>
      <trkpt lat="44.12051" lon="3.13748">
        <ele>766</ele>
        <time>2020-10-03T10:34:43.000Z</time>
      </trkpt>
      <trkpt lat="44.12051" lon="3.13748">
        <ele>765.40002441406</ele>
        <time>2020-10-03T10:34:45.000Z</time>
      </trkpt>
      <trkpt lat="44.12051" lon="3.13748">
        <ele>765.40002441406</ele>
        <time>2020-10-03T10:34:46.000Z</time>
      </trkpt>
      <trkpt lat="44.12051" lon="3.13749">
        <ele>765.20001220703</ele>
        <time>2020-10-03T10:34:47.000Z</time>
      </trkpt>
      <trkpt lat="44.12052" lon="3.1375">
        <ele>765.20001220703</ele>
        <time>2020-10-03T10:34:49.000Z</time>
      </trkpt>
      <trkpt lat="44.12052" lon="3.13751">
        <ele>765</ele>
        <time>2020-10-03T10:34:51.000Z</time>
      </trkpt>
      <trkpt lat="44.12052" lon="3.13751">
        <ele>765</ele>
        <time>2020-10-03T10:34:53.000Z</time>
      </trkpt>
      <trkpt lat="44.12052" lon="3.13751">
        <ele>765</ele>
        <time>2020-10-03T10:34:54.000Z</time>
      </trkpt>
      <trkpt lat="44.12052" lon="3.13752">
        <ele>765</ele>
        <time>2020-10-03T10:34:55.000Z</time>
      </trkpt>
      <trkpt lat="44.12052" lon="3.13753">
        <ele>765</ele>
        <time>2020-10-03T10:34:57.000Z</time>
      </trkpt>
      <trkpt lat="44.12052" lon="3.13754">
        <ele>764.79998779297</ele>
        <time>2020-10-03T10:34:59.000Z</time>
      </trkpt>
      <trkpt lat="44.12052" lon="3.13755">
        <ele>764.79998779297</ele>
        <time>2020-10-03T10:35:01.000Z</time>
      </trkpt>
      <trkpt lat="44.12052" lon="3.13755">
        <ele>764.79998779297</ele>
        <time>2020-10-03T10:35:03.000Z</time>
      </trkpt>
      <trkpt lat="44.12052" lon="3.13755">
        <ele>764.79998779297</ele>
        <time>2020-10-03T10:35:04.000Z</time>
      </trkpt>
      <trkpt lat="44.12052" lon="3.13755">
        <ele>764.79998779297</ele>
        <time>2020-10-03T10:35:05.000Z</time>
      </trkpt>
      <trkpt lat="44.12052" lon="3.13755">
        <ele>764.79998779297</ele>
        <time>2020-10-03T10:35:07.000Z</time>
      </trkpt>
      <trkpt lat="44.12052" lon="3.13755">
        <ele>764.79998779297</ele>
        <time>2020-10-03T10:35:09.000Z</time>
      </trkpt>
      <trkpt lat="44.12052" lon="3.13755">
        <ele>764.79998779297</ele>
        <time>2020-10-03T10:35:11.000Z</time>
      </trkpt>
      <trkpt lat="44.12052" lon="3.13755">
        <ele>765</ele>
        <time>2020-10-03T10:35:13.000Z</time>
      </trkpt>
      <trkpt lat="44.12052" lon="3.13755">
        <ele>765</ele>
        <time>2020-10-03T10:35:15.000Z</time>
      </trkpt>
      <trkpt lat="44.12052" lon="3.13755">
        <ele>765</ele>
        <time>2020-10-03T10:35:17.000Z</time>
      </trkpt>
      <trkpt lat="44.12052" lon="3.13755">
        <ele>765.20001220703</ele>
        <time>2020-10-03T10:35:19.000Z</time>
      </trkpt>
      <trkpt lat="44.12052" lon="3.13755">
        <ele>765.20001220703</ele>
        <time>2020-10-03T10:35:21.000Z</time>
      </trkpt>
      <trkpt lat="44.12052" lon="3.13755">
        <ele>765.20001220703</ele>
        <time>2020-10-03T10:35:23.000Z</time>
      </trkpt>
      <trkpt lat="44.12052" lon="3.13755">
        <ele>765.40002441406</ele>
        <time>2020-10-03T10:35:25.000Z</time>
      </trkpt>
      <trkpt lat="44.12053" lon="3.13756">
        <ele>765.40002441406</ele>
        <time>2020-10-03T10:35:27.000Z</time>
      </trkpt>
      <trkpt lat="44.12054" lon="3.1376">
        <ele>765.59997558594</ele>
        <time>2020-10-03T10:35:29.000Z</time>
      </trkpt>
      <trkpt lat="44.12056" lon="3.13766">
        <ele>765.40002441406</ele>
        <time>2020-10-03T10:35:31.000Z</time>
      </trkpt>
      <trkpt lat="44.12059" lon="3.13774">
        <ele>765.59997558594</ele>
        <time>2020-10-03T10:35:33.000Z</time>
      </trkpt>
      <trkpt lat="44.1206" lon="3.1378">
        <ele>765.59997558594</ele>
        <time>2020-10-03T10:35:34.000Z</time>
      </trkpt>
      <trkpt lat="44.12061" lon="3.13787">
        <ele>765.59997558594</ele>
        <time>2020-10-03T10:35:35.000Z</time>
      </trkpt>
      <trkpt lat="44.12064" lon="3.13803">
        <ele>765.40002441406</ele>
        <time>2020-10-03T10:35:37.000Z</time>
      </trkpt>
      <trkpt lat="44.12069" lon="3.13818">
        <ele>765.20001220703</ele>
        <time>2020-10-03T10:35:39.000Z</time>
      </trkpt>
      <trkpt lat="44.12072" lon="3.13832">
        <ele>765</ele>
        <time>2020-10-03T10:35:41.000Z</time>
      </trkpt>
      <trkpt lat="44.12073" lon="3.1384">
        <ele>764.79998779297</ele>
        <time>2020-10-03T10:35:42.000Z</time>
      </trkpt>
      <trkpt lat="44.12073" lon="3.13848">
        <ele>764.59997558594</ele>
        <time>2020-10-03T10:35:43.000Z</time>
      </trkpt>
      <trkpt lat="44.12072" lon="3.13856">
        <ele>764</ele>
        <time>2020-10-03T10:35:44.000Z</time>
      </trkpt>
      <trkpt lat="44.1207" lon="3.13864">
        <ele>762.59997558594</ele>
        <time>2020-10-03T10:35:45.000Z</time>
      </trkpt>
      <trkpt lat="44.12073" lon="3.13875">
        <ele>762</ele>
        <time>2020-10-03T10:35:47.000Z</time>
      </trkpt>
      <trkpt lat="44.12075" lon="3.13879">
        <ele>761.79998779297</ele>
        <time>2020-10-03T10:35:48.000Z</time>
      </trkpt>
      <trkpt lat="44.12077" lon="3.13883">
        <ele>761.59997558594</ele>
        <time>2020-10-03T10:35:49.000Z</time>
      </trkpt>
      <trkpt lat="44.1208" lon="3.13886">
        <ele>761.20001220703</ele>
        <time>2020-10-03T10:35:50.000Z</time>
      </trkpt>
      <trkpt lat="44.12083" lon="3.1389">
        <ele>760.40002441406</ele>
        <time>2020-10-03T10:35:51.000Z</time>
      </trkpt>
      <trkpt lat="44.12085" lon="3.13895">
        <ele>759.40002441406</ele>
        <time>2020-10-03T10:35:52.000Z</time>
      </trkpt>
      <trkpt lat="44.12087" lon="3.13899">
        <ele>758.59997558594</ele>
        <time>2020-10-03T10:35:53.000Z</time>
      </trkpt>
      <trkpt lat="44.12088" lon="3.13903">
        <ele>758</ele>
        <time>2020-10-03T10:35:54.000Z</time>
      </trkpt>
      <trkpt lat="44.12088" lon="3.13906">
        <ele>757.79998779297</ele>
        <time>2020-10-03T10:35:55.000Z</time>
      </trkpt>
      <trkpt lat="44.12088" lon="3.13907">
        <ele>757.40002441406</ele>
        <time>2020-10-03T10:35:56.000Z</time>
      </trkpt>
      <trkpt lat="44.12086" lon="3.13908">
        <ele>757</ele>
        <time>2020-10-03T10:35:57.000Z</time>
      </trkpt>
      <trkpt lat="44.12083" lon="3.13909">
        <ele>756.79998779297</ele>
        <time>2020-10-03T10:35:58.000Z</time>
      </trkpt>
      <trkpt lat="44.12079" lon="3.13909">
        <ele>756.40002441406</ele>
        <time>2020-10-03T10:35:59.000Z</time>
      </trkpt>
      <trkpt lat="44.12071" lon="3.13908">
        <ele>755.40002441406</ele>
        <time>2020-10-03T10:36:01.000Z</time>
      </trkpt>
      <trkpt lat="44.12062" lon="3.13907">
        <ele>754.40002441406</ele>
        <time>2020-10-03T10:36:03.000Z</time>
      </trkpt>
      <trkpt lat="44.12058" lon="3.13906">
        <ele>754</ele>
        <time>2020-10-03T10:36:04.000Z</time>
      </trkpt>
      <trkpt lat="44.12057" lon="3.13906">
        <ele>753.59997558594</ele>
        <time>2020-10-03T10:36:05.000Z</time>
      </trkpt>
      <trkpt lat="44.12055" lon="3.13906">
        <ele>752.20001220703</ele>
        <time>2020-10-03T10:36:07.000Z</time>
      </trkpt>
      <trkpt lat="44.12054" lon="3.13906">
        <ele>751.40002441406</ele>
        <time>2020-10-03T10:36:08.000Z</time>
      </trkpt>
      <trkpt lat="44.12053" lon="3.13906">
        <ele>751</ele>
        <time>2020-10-03T10:36:09.000Z</time>
      </trkpt>
      <trkpt lat="44.12051" lon="3.13906">
        <ele>750.20001220703</ele>
        <time>2020-10-03T10:36:11.000Z</time>
      </trkpt>
      <trkpt lat="44.12049" lon="3.13906">
        <ele>749.79998779297</ele>
        <time>2020-10-03T10:36:12.000Z</time>
      </trkpt>
      <trkpt lat="44.12047" lon="3.13907">
        <ele>749.20001220703</ele>
        <time>2020-10-03T10:36:13.000Z</time>
      </trkpt>
      <trkpt lat="44.12045" lon="3.13907">
        <ele>748.40002441406</ele>
        <time>2020-10-03T10:36:14.000Z</time>
      </trkpt>
      <trkpt lat="44.12043" lon="3.13907">
        <ele>748.20001220703</ele>
        <time>2020-10-03T10:36:15.000Z</time>
      </trkpt>
      <trkpt lat="44.12042" lon="3.13905">
        <ele>747.79998779297</ele>
        <time>2020-10-03T10:36:17.000Z</time>
      </trkpt>
      <trkpt lat="44.1204" lon="3.13899">
        <ele>747.59997558594</ele>
        <time>2020-10-03T10:36:19.000Z</time>
      </trkpt>
      <trkpt lat="44.12039" lon="3.13896">
        <ele>747.20001220703</ele>
        <time>2020-10-03T10:36:20.000Z</time>
      </trkpt>
      <trkpt lat="44.12038" lon="3.13893">
        <ele>746.79998779297</ele>
        <time>2020-10-03T10:36:21.000Z</time>
      </trkpt>
      <trkpt lat="44.12035" lon="3.13889">
        <ele>745.79998779297</ele>
        <time>2020-10-03T10:36:23.000Z</time>
      </trkpt>
      <trkpt lat="44.12033" lon="3.13891">
        <ele>744.79998779297</ele>
        <time>2020-10-03T10:36:25.000Z</time>
      </trkpt>
      <trkpt lat="44.12031" lon="3.13893">
        <ele>744</ele>
        <time>2020-10-03T10:36:26.000Z</time>
      </trkpt>
      <trkpt lat="44.1203" lon="3.13895">
        <ele>743.40002441406</ele>
        <time>2020-10-03T10:36:27.000Z</time>
      </trkpt>
      <trkpt lat="44.12029" lon="3.13896">
        <ele>742.79998779297</ele>
        <time>2020-10-03T10:36:28.000Z</time>
      </trkpt>
      <trkpt lat="44.12028" lon="3.13897">
        <ele>742</ele>
        <time>2020-10-03T10:36:29.000Z</time>
      </trkpt>
      <trkpt lat="44.12028" lon="3.13898">
        <ele>741.40002441406</ele>
        <time>2020-10-03T10:36:30.000Z</time>
      </trkpt>
      <trkpt lat="44.12028" lon="3.13899">
        <ele>740.59997558594</ele>
        <time>2020-10-03T10:36:31.000Z</time>
      </trkpt>
      <trkpt lat="44.12028" lon="3.139">
        <ele>739.79998779297</ele>
        <time>2020-10-03T10:36:32.000Z</time>
      </trkpt>
      <trkpt lat="44.12028" lon="3.139">
        <ele>739.20001220703</ele>
        <time>2020-10-03T10:36:33.000Z</time>
      </trkpt>
      <trkpt lat="44.12028" lon="3.13901">
        <ele>739</ele>
        <time>2020-10-03T10:36:34.000Z</time>
      </trkpt>
      <trkpt lat="44.12027" lon="3.13903">
        <ele>738.40002441406</ele>
        <time>2020-10-03T10:36:35.000Z</time>
      </trkpt>
      <trkpt lat="44.12027" lon="3.13904">
        <ele>737.59997558594</ele>
        <time>2020-10-03T10:36:36.000Z</time>
      </trkpt>
      <trkpt lat="44.12027" lon="3.13906">
        <ele>737</ele>
        <time>2020-10-03T10:36:37.000Z</time>
      </trkpt>
      <trkpt lat="44.12026" lon="3.13908">
        <ele>736.20001220703</ele>
        <time>2020-10-03T10:36:39.000Z</time>
      </trkpt>
      <trkpt lat="44.12024" lon="3.13909">
        <ele>735.79998779297</ele>
        <time>2020-10-03T10:36:41.000Z</time>
      </trkpt>
      <trkpt lat="44.12023" lon="3.13911">
        <ele>735.59997558594</ele>
        <time>2020-10-03T10:36:43.000Z</time>
      </trkpt>
      <trkpt lat="44.12022" lon="3.13912">
        <ele>735.40002441406</ele>
        <time>2020-10-03T10:36:44.000Z</time>
      </trkpt>
      <trkpt lat="44.12022" lon="3.13912">
        <ele>735.40002441406</ele>
        <time>2020-10-03T10:36:45.000Z</time>
      </trkpt>
      <trkpt lat="44.12022" lon="3.13912">
        <ele>735.20001220703</ele>
        <time>2020-10-03T10:36:46.000Z</time>
      </trkpt>
      <trkpt lat="44.12022" lon="3.13911">
        <ele>734.79998779297</ele>
        <time>2020-10-03T10:36:47.000Z</time>
      </trkpt>
      <trkpt lat="44.12023" lon="3.13909">
        <ele>734.59997558594</ele>
        <time>2020-10-03T10:36:48.000Z</time>
      </trkpt>
      <trkpt lat="44.12023" lon="3.13907">
        <ele>734</ele>
        <time>2020-10-03T10:36:49.000Z</time>
      </trkpt>
      <trkpt lat="44.12024" lon="3.13904">
        <ele>733.20001220703</ele>
        <time>2020-10-03T10:36:51.000Z</time>
      </trkpt>
      <trkpt lat="44.12024" lon="3.13897">
        <ele>732.59997558594</ele>
        <time>2020-10-03T10:36:53.000Z</time>
      </trkpt>
      <trkpt lat="44.12024" lon="3.13894">
        <ele>732.40002441406</ele>
        <time>2020-10-03T10:36:54.000Z</time>
      </trkpt>
      <trkpt lat="44.12024" lon="3.13891">
        <ele>732.20001220703</ele>
        <time>2020-10-03T10:36:55.000Z</time>
      </trkpt>
      <trkpt lat="44.12024" lon="3.13886">
        <ele>732.20001220703</ele>
        <time>2020-10-03T10:36:56.000Z</time>
      </trkpt>
      <trkpt lat="44.12023" lon="3.13883">
        <ele>731.79998779297</ele>
        <time>2020-10-03T10:36:57.000Z</time>
      </trkpt>
      <trkpt lat="44.12022" lon="3.13882">
        <ele>731.59997558594</ele>
        <time>2020-10-03T10:36:58.000Z</time>
      </trkpt>
      <trkpt lat="44.12021" lon="3.13883">
        <ele>731.20001220703</ele>
        <time>2020-10-03T10:36:59.000Z</time>
      </trkpt>
      <trkpt lat="44.12021" lon="3.13884">
        <ele>730.40002441406</ele>
        <time>2020-10-03T10:37:00.000Z</time>
      </trkpt>
      <trkpt lat="44.1202" lon="3.13885">
        <ele>729.59997558594</ele>
        <time>2020-10-03T10:37:01.000Z</time>
      </trkpt>
      <trkpt lat="44.12019" lon="3.13887">
        <ele>728.59997558594</ele>
        <time>2020-10-03T10:37:02.000Z</time>
      </trkpt>
      <trkpt lat="44.12019" lon="3.13888">
        <ele>728</ele>
        <time>2020-10-03T10:37:03.000Z</time>
      </trkpt>
      <trkpt lat="44.12018" lon="3.13888">
        <ele>727.40002441406</ele>
        <time>2020-10-03T10:37:04.000Z</time>
      </trkpt>
      <trkpt lat="44.12018" lon="3.13889">
        <ele>726.59997558594</ele>
        <time>2020-10-03T10:37:05.000Z</time>
      </trkpt>
      <trkpt lat="44.12018" lon="3.13888">
        <ele>725.59997558594</ele>
        <time>2020-10-03T10:37:06.000Z</time>
      </trkpt>
      <trkpt lat="44.12017" lon="3.1389">
        <ele>725.20001220703</ele>
        <time>2020-10-03T10:37:07.000Z</time>
      </trkpt>
      <trkpt lat="44.12017" lon="3.13891">
        <ele>724.59997558594</ele>
        <time>2020-10-03T10:37:08.000Z</time>
      </trkpt>
      <trkpt lat="44.12018" lon="3.13892">
        <ele>724</ele>
        <time>2020-10-03T10:37:09.000Z</time>
      </trkpt>
      <trkpt lat="44.12017" lon="3.13894">
        <ele>722.79998779297</ele>
        <time>2020-10-03T10:37:11.000Z</time>
      </trkpt>
      <trkpt lat="44.12015" lon="3.13894">
        <ele>722.20001220703</ele>
        <time>2020-10-03T10:37:13.000Z</time>
      </trkpt>
      <trkpt lat="44.12014" lon="3.13895">
        <ele>722</ele>
        <time>2020-10-03T10:37:15.000Z</time>
      </trkpt>
      <trkpt lat="44.12014" lon="3.13896">
        <ele>722</ele>
        <time>2020-10-03T10:37:17.000Z</time>
      </trkpt>
      <trkpt lat="44.12013" lon="3.13895">
        <ele>721.79998779297</ele>
        <time>2020-10-03T10:37:19.000Z</time>
      </trkpt>
      <trkpt lat="44.12013" lon="3.13896">
        <ele>721.59997558594</ele>
        <time>2020-10-03T10:37:20.000Z</time>
      </trkpt>
      <trkpt lat="44.12013" lon="3.13896">
        <ele>721.40002441406</ele>
        <time>2020-10-03T10:37:21.000Z</time>
      </trkpt>
      <trkpt lat="44.12013" lon="3.13897">
        <ele>721.20001220703</ele>
        <time>2020-10-03T10:37:23.000Z</time>
      </trkpt>
      <trkpt lat="44.12013" lon="3.13897">
        <ele>721</ele>
        <time>2020-10-03T10:37:25.000Z</time>
      </trkpt>
      <trkpt lat="44.12012" lon="3.13899">
        <ele>721</ele>
        <time>2020-10-03T10:37:27.000Z</time>
      </trkpt>
      <trkpt lat="44.12012" lon="3.13899">
        <ele>721</ele>
        <time>2020-10-03T10:37:29.000Z</time>
      </trkpt>
      <trkpt lat="44.12012" lon="3.13899">
        <ele>720.79998779297</ele>
        <time>2020-10-03T10:37:31.000Z</time>
      </trkpt>
      <trkpt lat="44.12012" lon="3.139">
        <ele>720.59997558594</ele>
        <time>2020-10-03T10:37:33.000Z</time>
      </trkpt>
      <trkpt lat="44.12011" lon="3.139">
        <ele>720.59997558594</ele>
        <time>2020-10-03T10:37:35.000Z</time>
      </trkpt>
      <trkpt lat="44.12011" lon="3.13901">
        <ele>720.79998779297</ele>
        <time>2020-10-03T10:37:37.000Z</time>
      </trkpt>
      <trkpt lat="44.12011" lon="3.139">
        <ele>720.79998779297</ele>
        <time>2020-10-03T10:37:39.000Z</time>
      </trkpt>
      <trkpt lat="44.1201" lon="3.139">
        <ele>720.79998779297</ele>
        <time>2020-10-03T10:37:41.000Z</time>
      </trkpt>
      <trkpt lat="44.1201" lon="3.139">
        <ele>720.79998779297</ele>
        <time>2020-10-03T10:37:42.000Z</time>
      </trkpt>
      <trkpt lat="44.12011" lon="3.13899">
        <ele>720.79998779297</ele>
        <time>2020-10-03T10:37:43.000Z</time>
      </trkpt>
      <trkpt lat="44.1201" lon="3.13894">
        <ele>720.79998779297</ele>
        <time>2020-10-03T10:37:45.000Z</time>
      </trkpt>
      <trkpt lat="44.12009" lon="3.13889">
        <ele>720.79998779297</ele>
        <time>2020-10-03T10:37:46.000Z</time>
      </trkpt>
      <trkpt lat="44.12008" lon="3.13884">
        <ele>720.79998779297</ele>
        <time>2020-10-03T10:37:47.000Z</time>
      </trkpt>
      <trkpt lat="44.12003" lon="3.13875">
        <ele>720.79998779297</ele>
        <time>2020-10-03T10:37:49.000Z</time>
      </trkpt>
      <trkpt lat="44.12" lon="3.13873">
        <ele>720.79998779297</ele>
        <time>2020-10-03T10:37:50.000Z</time>
      </trkpt>
      <trkpt lat="44.11999" lon="3.13873">
        <ele>720.79998779297</ele>
        <time>2020-10-03T10:37:51.000Z</time>
      </trkpt>
      <trkpt lat="44.11998" lon="3.13874">
        <ele>720.20001220703</ele>
        <time>2020-10-03T10:37:52.000Z</time>
      </trkpt>
      <trkpt lat="44.11997" lon="3.13876">
        <ele>719.40002441406</ele>
        <time>2020-10-03T10:37:53.000Z</time>
      </trkpt>
      <trkpt lat="44.11997" lon="3.13878">
        <ele>718.59997558594</ele>
        <time>2020-10-03T10:37:54.000Z</time>
      </trkpt>
      <trkpt lat="44.11996" lon="3.1388">
        <ele>717.40002441406</ele>
        <time>2020-10-03T10:37:55.000Z</time>
      </trkpt>
      <trkpt lat="44.11995" lon="3.13882">
        <ele>716.79998779297</ele>
        <time>2020-10-03T10:37:56.000Z</time>
      </trkpt>
      <trkpt lat="44.11994" lon="3.13885">
        <ele>716</ele>
        <time>2020-10-03T10:37:57.000Z</time>
      </trkpt>
      <trkpt lat="44.11991" lon="3.13888">
        <ele>714.59997558594</ele>
        <time>2020-10-03T10:37:59.000Z</time>
      </trkpt>
      <trkpt lat="44.1199" lon="3.13888">
        <ele>714.20001220703</ele>
        <time>2020-10-03T10:38:00.000Z</time>
      </trkpt>
      <trkpt lat="44.11989" lon="3.13888">
        <ele>713.59997558594</ele>
        <time>2020-10-03T10:38:01.000Z</time>
      </trkpt>
      <trkpt lat="44.11988" lon="3.13888">
        <ele>713.20001220703</ele>
        <time>2020-10-03T10:38:02.000Z</time>
      </trkpt>
      <trkpt lat="44.11988" lon="3.13889">
        <ele>713</ele>
        <time>2020-10-03T10:38:03.000Z</time>
      </trkpt>
      <trkpt lat="44.11988" lon="3.13888">
        <ele>712</ele>
        <time>2020-10-03T10:38:05.000Z</time>
      </trkpt>
      <trkpt lat="44.11989" lon="3.13885">
        <ele>711.40002441406</ele>
        <time>2020-10-03T10:38:06.000Z</time>
      </trkpt>
      <trkpt lat="44.11989" lon="3.13884">
        <ele>710.59997558594</ele>
        <time>2020-10-03T10:38:07.000Z</time>
      </trkpt>
      <trkpt lat="44.11988" lon="3.13881">
        <ele>709.59997558594</ele>
        <time>2020-10-03T10:38:08.000Z</time>
      </trkpt>
      <trkpt lat="44.11986" lon="3.1388">
        <ele>708.59997558594</ele>
        <time>2020-10-03T10:38:09.000Z</time>
      </trkpt>
      <trkpt lat="44.11983" lon="3.13881">
        <ele>708</ele>
        <time>2020-10-03T10:38:11.000Z</time>
      </trkpt>
      <trkpt lat="44.11981" lon="3.13884">
        <ele>707.79998779297</ele>
        <time>2020-10-03T10:38:13.000Z</time>
      </trkpt>
      <trkpt lat="44.1198" lon="3.13885">
        <ele>707.40002441406</ele>
        <time>2020-10-03T10:38:14.000Z</time>
      </trkpt>
      <trkpt lat="44.11979" lon="3.13885">
        <ele>707.20001220703</ele>
        <time>2020-10-03T10:38:15.000Z</time>
      </trkpt>
      <trkpt lat="44.1198" lon="3.13884">
        <ele>706.20001220703</ele>
        <time>2020-10-03T10:38:16.000Z</time>
      </trkpt>
      <trkpt lat="44.11979" lon="3.13882">
        <ele>705.59997558594</ele>
        <time>2020-10-03T10:38:17.000Z</time>
      </trkpt>
      <trkpt lat="44.11978" lon="3.1388">
        <ele>705</ele>
        <time>2020-10-03T10:38:18.000Z</time>
      </trkpt>
      <trkpt lat="44.11976" lon="3.13877">
        <ele>704.59997558594</ele>
        <time>2020-10-03T10:38:19.000Z</time>
      </trkpt>
      <trkpt lat="44.11972" lon="3.13875">
        <ele>703.79998779297</ele>
        <time>2020-10-03T10:38:21.000Z</time>
      </trkpt>
      <trkpt lat="44.11972" lon="3.13876">
        <ele>703</ele>
        <time>2020-10-03T10:38:23.000Z</time>
      </trkpt>
      <trkpt lat="44.11972" lon="3.13879">
        <ele>702.59997558594</ele>
        <time>2020-10-03T10:38:24.000Z</time>
      </trkpt>
      <trkpt lat="44.11971" lon="3.13881">
        <ele>702.20001220703</ele>
        <time>2020-10-03T10:38:25.000Z</time>
      </trkpt>
      <trkpt lat="44.11972" lon="3.13884">
        <ele>701.40002441406</ele>
        <time>2020-10-03T10:38:27.000Z</time>
      </trkpt>
      <trkpt lat="44.11972" lon="3.13884">
        <ele>700.79998779297</ele>
        <time>2020-10-03T10:38:28.000Z</time>
      </trkpt>
      <trkpt lat="44.11972" lon="3.13884">
        <ele>700.20001220703</ele>
        <time>2020-10-03T10:38:29.000Z</time>
      </trkpt>
      <trkpt lat="44.11971" lon="3.13887">
        <ele>699.59997558594</ele>
        <time>2020-10-03T10:38:31.000Z</time>
      </trkpt>
      <trkpt lat="44.11969" lon="3.1389">
        <ele>699.20001220703</ele>
        <time>2020-10-03T10:38:32.000Z</time>
      </trkpt>
      <trkpt lat="44.11968" lon="3.13893">
        <ele>698.79998779297</ele>
        <time>2020-10-03T10:38:33.000Z</time>
      </trkpt>
      <trkpt lat="44.11961" lon="3.139">
        <ele>697.79998779297</ele>
        <time>2020-10-03T10:38:35.000Z</time>
      </trkpt>
      <trkpt lat="44.11954" lon="3.13903">
        <ele>697</ele>
        <time>2020-10-03T10:38:37.000Z</time>
      </trkpt>
      <trkpt lat="44.11953" lon="3.13903">
        <ele>695.79998779297</ele>
        <time>2020-10-03T10:38:38.000Z</time>
      </trkpt>
      <trkpt lat="44.11951" lon="3.13904">
        <ele>695.40002441406</ele>
        <time>2020-10-03T10:38:39.000Z</time>
      </trkpt>
      <trkpt lat="44.11945" lon="3.13908">
        <ele>694.20001220703</ele>
        <time>2020-10-03T10:38:41.000Z</time>
      </trkpt>
      <trkpt lat="44.11938" lon="3.13912">
        <ele>692.59997558594</ele>
        <time>2020-10-03T10:38:43.000Z</time>
      </trkpt>
      <trkpt lat="44.11932" lon="3.13914">
        <ele>691</ele>
        <time>2020-10-03T10:38:45.000Z</time>
      </trkpt>
      <trkpt lat="44.11931" lon="3.13913">
        <ele>690.40002441406</ele>
        <time>2020-10-03T10:38:46.000Z</time>
      </trkpt>
      <trkpt lat="44.11931" lon="3.13912">
        <ele>689.79998779297</ele>
        <time>2020-10-03T10:38:47.000Z</time>
      </trkpt>
      <trkpt lat="44.11932" lon="3.1391">
        <ele>688.20001220703</ele>
        <time>2020-10-03T10:38:49.000Z</time>
      </trkpt>
      <trkpt lat="44.11935" lon="3.13908">
        <ele>687.59997558594</ele>
        <time>2020-10-03T10:38:50.000Z</time>
      </trkpt>
      <trkpt lat="44.11938" lon="3.13906">
        <ele>686.79998779297</ele>
        <time>2020-10-03T10:38:51.000Z</time>
      </trkpt>
      <trkpt lat="44.11939" lon="3.13902">
        <ele>686</ele>
        <time>2020-10-03T10:38:52.000Z</time>
      </trkpt>
      <trkpt lat="44.1194" lon="3.13896">
        <ele>684.59997558594</ele>
        <time>2020-10-03T10:38:53.000Z</time>
      </trkpt>
      <trkpt lat="44.11941" lon="3.13892">
        <ele>683.40002441406</ele>
        <time>2020-10-03T10:38:54.000Z</time>
      </trkpt>
      <trkpt lat="44.11943" lon="3.13887">
        <ele>682.79998779297</ele>
        <time>2020-10-03T10:38:55.000Z</time>
      </trkpt>
      <trkpt lat="44.11943" lon="3.13884">
        <ele>682.40002441406</ele>
        <time>2020-10-03T10:38:56.000Z</time>
      </trkpt>
      <trkpt lat="44.11944" lon="3.13882">
        <ele>682</ele>
        <time>2020-10-03T10:38:57.000Z</time>
      </trkpt>
      <trkpt lat="44.11944" lon="3.13882">
        <ele>681.59997558594</ele>
        <time>2020-10-03T10:38:58.000Z</time>
      </trkpt>
      <trkpt lat="44.11943" lon="3.13883">
        <ele>681.20001220703</ele>
        <time>2020-10-03T10:38:59.000Z</time>
      </trkpt>
      <trkpt lat="44.11938" lon="3.13884">
        <ele>680</ele>
        <time>2020-10-03T10:39:01.000Z</time>
      </trkpt>
      <trkpt lat="44.11936" lon="3.13885">
        <ele>678.79998779297</ele>
        <time>2020-10-03T10:39:02.000Z</time>
      </trkpt>
      <trkpt lat="44.11934" lon="3.13888">
        <ele>678</ele>
        <time>2020-10-03T10:39:03.000Z</time>
      </trkpt>
      <trkpt lat="44.11932" lon="3.13889">
        <ele>677</ele>
        <time>2020-10-03T10:39:04.000Z</time>
      </trkpt>
      <trkpt lat="44.11931" lon="3.13889">
        <ele>676.20001220703</ele>
        <time>2020-10-03T10:39:05.000Z</time>
      </trkpt>
      <trkpt lat="44.11931" lon="3.13888">
        <ele>675.79998779297</ele>
        <time>2020-10-03T10:39:06.000Z</time>
      </trkpt>
      <trkpt lat="44.11931" lon="3.13888">
        <ele>675</ele>
        <time>2020-10-03T10:39:07.000Z</time>
      </trkpt>
      <trkpt lat="44.11931" lon="3.13886">
        <ele>674.40002441406</ele>
        <time>2020-10-03T10:39:08.000Z</time>
      </trkpt>
      <trkpt lat="44.1193" lon="3.13885">
        <ele>673.59997558594</ele>
        <time>2020-10-03T10:39:09.000Z</time>
      </trkpt>
      <trkpt lat="44.11929" lon="3.13883">
        <ele>672.79998779297</ele>
        <time>2020-10-03T10:39:10.000Z</time>
      </trkpt>
      <trkpt lat="44.11928" lon="3.13882">
        <ele>672</ele>
        <time>2020-10-03T10:39:11.000Z</time>
      </trkpt>
      <trkpt lat="44.11927" lon="3.13881">
        <ele>671.20001220703</ele>
        <time>2020-10-03T10:39:12.000Z</time>
      </trkpt>
      <trkpt lat="44.11926" lon="3.13881">
        <ele>670.59997558594</ele>
        <time>2020-10-03T10:39:13.000Z</time>
      </trkpt>
      <trkpt lat="44.11925" lon="3.13879">
        <ele>670</ele>
        <time>2020-10-03T10:39:14.000Z</time>
      </trkpt>
      <trkpt lat="44.11924" lon="3.13878">
        <ele>669.79998779297</ele>
        <time>2020-10-03T10:39:15.000Z</time>
      </trkpt>
      <trkpt lat="44.11923" lon="3.13878">
        <ele>669.20001220703</ele>
        <time>2020-10-03T10:39:16.000Z</time>
      </trkpt>
      <trkpt lat="44.11921" lon="3.13878">
        <ele>668.79998779297</ele>
        <time>2020-10-03T10:39:17.000Z</time>
      </trkpt>
      <trkpt lat="44.11916" lon="3.13877">
        <ele>667.59997558594</ele>
        <time>2020-10-03T10:39:19.000Z</time>
      </trkpt>
      <trkpt lat="44.11908" lon="3.1388">
        <ele>666.59997558594</ele>
        <time>2020-10-03T10:39:21.000Z</time>
      </trkpt>
      <trkpt lat="44.119" lon="3.13883">
        <ele>665.40002441406</ele>
        <time>2020-10-03T10:39:23.000Z</time>
      </trkpt>
      <trkpt lat="44.11899" lon="3.13883">
        <ele>664.79998779297</ele>
        <time>2020-10-03T10:39:24.000Z</time>
      </trkpt>
      <trkpt lat="44.11897" lon="3.13884">
        <ele>664.20001220703</ele>
        <time>2020-10-03T10:39:25.000Z</time>
      </trkpt>
      <trkpt lat="44.11896" lon="3.13882">
        <ele>662.59997558594</ele>
        <time>2020-10-03T10:39:27.000Z</time>
      </trkpt>
      <trkpt lat="44.11897" lon="3.13874">
        <ele>660.59997558594</ele>
        <time>2020-10-03T10:39:29.000Z</time>
      </trkpt>
      <trkpt lat="44.11897" lon="3.13862">
        <ele>658.59997558594</ele>
        <time>2020-10-03T10:39:31.000Z</time>
      </trkpt>
      <trkpt lat="44.11895" lon="3.13851">
        <ele>656.79998779297</ele>
        <time>2020-10-03T10:39:33.000Z</time>
      </trkpt>
      <trkpt lat="44.11894" lon="3.13849">
        <ele>656</ele>
        <time>2020-10-03T10:39:34.000Z</time>
      </trkpt>
      <trkpt lat="44.11892" lon="3.13848">
        <ele>655.20001220703</ele>
        <time>2020-10-03T10:39:35.000Z</time>
      </trkpt>
      <trkpt lat="44.1189" lon="3.13847">
        <ele>654</ele>
        <time>2020-10-03T10:39:36.000Z</time>
      </trkpt>
      <trkpt lat="44.11889" lon="3.13845">
        <ele>653.40002441406</ele>
        <time>2020-10-03T10:39:37.000Z</time>
      </trkpt>
      <trkpt lat="44.11888" lon="3.13843">
        <ele>652.59997558594</ele>
        <time>2020-10-03T10:39:38.000Z</time>
      </trkpt>
      <trkpt lat="44.11888" lon="3.1384">
        <ele>651.79998779297</ele>
        <time>2020-10-03T10:39:39.000Z</time>
      </trkpt>
      <trkpt lat="44.11887" lon="3.13836">
        <ele>650.59997558594</ele>
        <time>2020-10-03T10:39:40.000Z</time>
      </trkpt>
      <trkpt lat="44.11885" lon="3.13835">
        <ele>649.79998779297</ele>
        <time>2020-10-03T10:39:41.000Z</time>
      </trkpt>
      <trkpt lat="44.11885" lon="3.13837">
        <ele>649.40002441406</ele>
        <time>2020-10-03T10:39:42.000Z</time>
      </trkpt>
      <trkpt lat="44.11884" lon="3.13839">
        <ele>649</ele>
        <time>2020-10-03T10:39:43.000Z</time>
      </trkpt>
      <trkpt lat="44.11884" lon="3.13841">
        <ele>648.20001220703</ele>
        <time>2020-10-03T10:39:44.000Z</time>
      </trkpt>
      <trkpt lat="44.11884" lon="3.13842">
        <ele>647.79998779297</ele>
        <time>2020-10-03T10:39:45.000Z</time>
      </trkpt>
      <trkpt lat="44.11883" lon="3.13841">
        <ele>647</ele>
        <time>2020-10-03T10:39:47.000Z</time>
      </trkpt>
      <trkpt lat="44.11883" lon="3.13841">
        <ele>645.59997558594</ele>
        <time>2020-10-03T10:39:49.000Z</time>
      </trkpt>
      <trkpt lat="44.11883" lon="3.1384">
        <ele>644.40002441406</ele>
        <time>2020-10-03T10:39:51.000Z</time>
      </trkpt>
      <trkpt lat="44.11882" lon="3.13839">
        <ele>643.20001220703</ele>
        <time>2020-10-03T10:39:53.000Z</time>
      </trkpt>
      <trkpt lat="44.11882" lon="3.13838">
        <ele>642.40002441406</ele>
        <time>2020-10-03T10:39:55.000Z</time>
      </trkpt>
      <trkpt lat="44.11881" lon="3.13837">
        <ele>642.20001220703</ele>
        <time>2020-10-03T10:39:56.000Z</time>
      </trkpt>
      <trkpt lat="44.11881" lon="3.13838">
        <ele>642</ele>
        <time>2020-10-03T10:39:57.000Z</time>
      </trkpt>
      <trkpt lat="44.11878" lon="3.13843">
        <ele>641.79998779297</ele>
        <time>2020-10-03T10:39:59.000Z</time>
      </trkpt>
      <trkpt lat="44.11875" lon="3.13848">
        <ele>641.59997558594</ele>
        <time>2020-10-03T10:40:01.000Z</time>
      </trkpt>
      <trkpt lat="44.11872" lon="3.13851">
        <ele>641.59997558594</ele>
        <time>2020-10-03T10:40:03.000Z</time>
      </trkpt>
      <trkpt lat="44.11871" lon="3.13849">
        <ele>641.20001220703</ele>
        <time>2020-10-03T10:40:05.000Z</time>
      </trkpt>
      <trkpt lat="44.11869" lon="3.13845">
        <ele>641</ele>
        <time>2020-10-03T10:40:06.000Z</time>
      </trkpt>
      <trkpt lat="44.11867" lon="3.13843">
        <ele>640.40002441406</ele>
        <time>2020-10-03T10:40:07.000Z</time>
      </trkpt>
      <trkpt lat="44.11866" lon="3.13842">
        <ele>639.79998779297</ele>
        <time>2020-10-03T10:40:08.000Z</time>
      </trkpt>
      <trkpt lat="44.11864" lon="3.13841">
        <ele>639</ele>
        <time>2020-10-03T10:40:09.000Z</time>
      </trkpt>
      <trkpt lat="44.11863" lon="3.13839">
        <ele>638.20001220703</ele>
        <time>2020-10-03T10:40:10.000Z</time>
      </trkpt>
      <trkpt lat="44.11862" lon="3.13835">
        <ele>637.40002441406</ele>
        <time>2020-10-03T10:40:11.000Z</time>
      </trkpt>
      <trkpt lat="44.1186" lon="3.13832">
        <ele>636.59997558594</ele>
        <time>2020-10-03T10:40:12.000Z</time>
      </trkpt>
      <trkpt lat="44.11859" lon="3.13827">
        <ele>636</ele>
        <time>2020-10-03T10:40:13.000Z</time>
      </trkpt>
      <trkpt lat="44.11857" lon="3.13823">
        <ele>635.59997558594</ele>
        <time>2020-10-03T10:40:14.000Z</time>
      </trkpt>
      <trkpt lat="44.11856" lon="3.1382">
        <ele>635.20001220703</ele>
        <time>2020-10-03T10:40:15.000Z</time>
      </trkpt>
      <trkpt lat="44.11852" lon="3.13815">
        <ele>634.20001220703</ele>
        <time>2020-10-03T10:40:17.000Z</time>
      </trkpt>
      <trkpt lat="44.11851" lon="3.13814">
        <ele>633.79998779297</ele>
        <time>2020-10-03T10:40:18.000Z</time>
      </trkpt>
      <trkpt lat="44.11849" lon="3.13812">
        <ele>633.20001220703</ele>
        <time>2020-10-03T10:40:19.000Z</time>
      </trkpt>
      <trkpt lat="44.11842" lon="3.1381">
        <ele>632</ele>
        <time>2020-10-03T10:40:21.000Z</time>
      </trkpt>
      <trkpt lat="44.11837" lon="3.13809">
        <ele>631.59997558594</ele>
        <time>2020-10-03T10:40:22.000Z</time>
      </trkpt>
      <trkpt lat="44.11832" lon="3.13808">
        <ele>631.40002441406</ele>
        <time>2020-10-03T10:40:23.000Z</time>
      </trkpt>
      <trkpt lat="44.11821" lon="3.13805">
        <ele>631.20001220703</ele>
        <time>2020-10-03T10:40:25.000Z</time>
      </trkpt>
      <trkpt lat="44.1181" lon="3.13802">
        <ele>630.79998779297</ele>
        <time>2020-10-03T10:40:27.000Z</time>
      </trkpt>
      <trkpt lat="44.11806" lon="3.13801">
        <ele>630.79998779297</ele>
        <time>2020-10-03T10:40:28.000Z</time>
      </trkpt>
      <trkpt lat="44.11803" lon="3.13801">
        <ele>630.79998779297</ele>
        <time>2020-10-03T10:40:29.000Z</time>
      </trkpt>
      <trkpt lat="44.11796" lon="3.13798">
        <ele>629.79998779297</ele>
        <time>2020-10-03T10:40:31.000Z</time>
      </trkpt>
      <trkpt lat="44.11791" lon="3.13798">
        <ele>629.20001220703</ele>
        <time>2020-10-03T10:40:32.000Z</time>
      </trkpt>
      <trkpt lat="44.11786" lon="3.13797">
        <ele>628.59997558594</ele>
        <time>2020-10-03T10:40:33.000Z</time>
      </trkpt>
      <trkpt lat="44.11781" lon="3.13795">
        <ele>627</ele>
        <time>2020-10-03T10:40:34.000Z</time>
      </trkpt>
      <trkpt lat="44.11777" lon="3.13794">
        <ele>625.79998779297</ele>
        <time>2020-10-03T10:40:35.000Z</time>
      </trkpt>
      <trkpt lat="44.11772" lon="3.13792">
        <ele>624.59997558594</ele>
        <time>2020-10-03T10:40:36.000Z</time>
      </trkpt>
      <trkpt lat="44.11768" lon="3.13793">
        <ele>623.20001220703</ele>
        <time>2020-10-03T10:40:37.000Z</time>
      </trkpt>
      <trkpt lat="44.11766" lon="3.13793">
        <ele>622</ele>
        <time>2020-10-03T10:40:38.000Z</time>
      </trkpt>
      <trkpt lat="44.11764" lon="3.13792">
        <ele>621</ele>
        <time>2020-10-03T10:40:39.000Z</time>
      </trkpt>
      <trkpt lat="44.11763" lon="3.13792">
        <ele>619.59997558594</ele>
        <time>2020-10-03T10:40:40.000Z</time>
      </trkpt>
      <trkpt lat="44.11761" lon="3.13793">
        <ele>618</ele>
        <time>2020-10-03T10:40:41.000Z</time>
      </trkpt>
      <trkpt lat="44.11758" lon="3.13793">
        <ele>616.79998779297</ele>
        <time>2020-10-03T10:40:42.000Z</time>
      </trkpt>
      <trkpt lat="44.11755" lon="3.13792">
        <ele>615.59997558594</ele>
        <time>2020-10-03T10:40:43.000Z</time>
      </trkpt>
      <trkpt lat="44.11751" lon="3.1379">
        <ele>614.40002441406</ele>
        <time>2020-10-03T10:40:44.000Z</time>
      </trkpt>
      <trkpt lat="44.11746" lon="3.13788">
        <ele>613</ele>
        <time>2020-10-03T10:40:45.000Z</time>
      </trkpt>
      <trkpt lat="44.11741" lon="3.13787">
        <ele>612</ele>
        <time>2020-10-03T10:40:46.000Z</time>
      </trkpt>
      <trkpt lat="44.11737" lon="3.13787">
        <ele>611</ele>
        <time>2020-10-03T10:40:47.000Z</time>
      </trkpt>
      <trkpt lat="44.11734" lon="3.13786">
        <ele>610.20001220703</ele>
        <time>2020-10-03T10:40:48.000Z</time>
      </trkpt>
      <trkpt lat="44.11732" lon="3.13786">
        <ele>609.59997558594</ele>
        <time>2020-10-03T10:40:49.000Z</time>
      </trkpt>
      <trkpt lat="44.11729" lon="3.13787">
        <ele>608.59997558594</ele>
        <time>2020-10-03T10:40:50.000Z</time>
      </trkpt>
      <trkpt lat="44.11723" lon="3.1379">
        <ele>607.79998779297</ele>
        <time>2020-10-03T10:40:51.000Z</time>
      </trkpt>
      <trkpt lat="44.11717" lon="3.13793">
        <ele>607.20001220703</ele>
        <time>2020-10-03T10:40:52.000Z</time>
      </trkpt>
      <trkpt lat="44.11711" lon="3.13795">
        <ele>606.59997558594</ele>
        <time>2020-10-03T10:40:53.000Z</time>
      </trkpt>
      <trkpt lat="44.11706" lon="3.13798">
        <ele>606</ele>
        <time>2020-10-03T10:40:54.000Z</time>
      </trkpt>
      <trkpt lat="44.11702" lon="3.13798">
        <ele>605.20001220703</ele>
        <time>2020-10-03T10:40:55.000Z</time>
      </trkpt>
      <trkpt lat="44.117" lon="3.13796">
        <ele>604.20001220703</ele>
        <time>2020-10-03T10:40:56.000Z</time>
      </trkpt>
      <trkpt lat="44.11697" lon="3.13795">
        <ele>603</ele>
        <time>2020-10-03T10:40:57.000Z</time>
      </trkpt>
      <trkpt lat="44.11695" lon="3.13793">
        <ele>602</ele>
        <time>2020-10-03T10:40:58.000Z</time>
      </trkpt>
      <trkpt lat="44.11693" lon="3.13793">
        <ele>601</ele>
        <time>2020-10-03T10:40:59.000Z</time>
      </trkpt>
      <trkpt lat="44.11691" lon="3.13791">
        <ele>600</ele>
        <time>2020-10-03T10:41:00.000Z</time>
      </trkpt>
      <trkpt lat="44.11688" lon="3.13791">
        <ele>598.40002441406</ele>
        <time>2020-10-03T10:41:01.000Z</time>
      </trkpt>
      <trkpt lat="44.11684" lon="3.1379">
        <ele>596.79998779297</ele>
        <time>2020-10-03T10:41:02.000Z</time>
      </trkpt>
      <trkpt lat="44.1168" lon="3.13789">
        <ele>594.59997558594</ele>
        <time>2020-10-03T10:41:03.000Z</time>
      </trkpt>
      <trkpt lat="44.11671" lon="3.13787">
        <ele>593.40002441406</ele>
        <time>2020-10-03T10:41:05.000Z</time>
      </trkpt>
      <trkpt lat="44.11661" lon="3.13783">
        <ele>593.20001220703</ele>
        <time>2020-10-03T10:41:07.000Z</time>
      </trkpt>
      <trkpt lat="44.11652" lon="3.13778">
        <ele>592.40002441406</ele>
        <time>2020-10-03T10:41:09.000Z</time>
      </trkpt>
      <trkpt lat="44.11647" lon="3.13775">
        <ele>592</ele>
        <time>2020-10-03T10:41:10.000Z</time>
      </trkpt>
      <trkpt lat="44.11642" lon="3.13771">
        <ele>591.59997558594</ele>
        <time>2020-10-03T10:41:11.000Z</time>
      </trkpt>
      <trkpt lat="44.11639" lon="3.13769">
        <ele>591.20001220703</ele>
        <time>2020-10-03T10:41:12.000Z</time>
      </trkpt>
      <trkpt lat="44.11635" lon="3.13766">
        <ele>590.59997558594</ele>
        <time>2020-10-03T10:41:13.000Z</time>
      </trkpt>
      <trkpt lat="44.11632" lon="3.13763">
        <ele>589.79998779297</ele>
        <time>2020-10-03T10:41:14.000Z</time>
      </trkpt>
      <trkpt lat="44.11629" lon="3.13761">
        <ele>588.79998779297</ele>
        <time>2020-10-03T10:41:15.000Z</time>
      </trkpt>
      <trkpt lat="44.11627" lon="3.13761">
        <ele>588</ele>
        <time>2020-10-03T10:41:16.000Z</time>
      </trkpt>
      <trkpt lat="44.11626" lon="3.1376">
        <ele>587</ele>
        <time>2020-10-03T10:41:17.000Z</time>
      </trkpt>
      <trkpt lat="44.11625" lon="3.1376">
        <ele>585.79998779297</ele>
        <time>2020-10-03T10:41:18.000Z</time>
      </trkpt>
      <trkpt lat="44.11626" lon="3.1376">
        <ele>584.79998779297</ele>
        <time>2020-10-03T10:41:19.000Z</time>
      </trkpt>
      <trkpt lat="44.11626" lon="3.13761">
        <ele>583.59997558594</ele>
        <time>2020-10-03T10:41:20.000Z</time>
      </trkpt>
      <trkpt lat="44.11626" lon="3.13761">
        <ele>583</ele>
        <time>2020-10-03T10:41:21.000Z</time>
      </trkpt>
      <trkpt lat="44.11627" lon="3.13761">
        <ele>582.40002441406</ele>
        <time>2020-10-03T10:41:22.000Z</time>
      </trkpt>
      <trkpt lat="44.11627" lon="3.13761">
        <ele>582</ele>
        <time>2020-10-03T10:41:23.000Z</time>
      </trkpt>
      <trkpt lat="44.11627" lon="3.13761">
        <ele>581.40002441406</ele>
        <time>2020-10-03T10:41:24.000Z</time>
      </trkpt>
      <trkpt lat="44.11627" lon="3.13761">
        <ele>581.20001220703</ele>
        <time>2020-10-03T10:41:25.000Z</time>
      </trkpt>
      <trkpt lat="44.11627" lon="3.13761">
        <ele>580.79998779297</ele>
        <time>2020-10-03T10:41:26.000Z</time>
      </trkpt>
      <trkpt lat="44.11628" lon="3.13761">
        <ele>580.79998779297</ele>
        <time>2020-10-03T10:41:27.000Z</time>
      </trkpt>
      <trkpt lat="44.11628" lon="3.1376">
        <ele>580.59997558594</ele>
        <time>2020-10-03T10:41:29.000Z</time>
      </trkpt>
      <trkpt lat="44.11629" lon="3.1376">
        <ele>580.79998779297</ele>
        <time>2020-10-03T10:41:31.000Z</time>
      </trkpt>
      <trkpt lat="44.11629" lon="3.1376">
        <ele>580.59997558594</ele>
        <time>2020-10-03T10:41:33.000Z</time>
      </trkpt>
      <trkpt lat="44.11629" lon="3.1376">
        <ele>580.59997558594</ele>
        <time>2020-10-03T10:41:35.000Z</time>
      </trkpt>
      <trkpt lat="44.11628" lon="3.1376">
        <ele>580.40002441406</ele>
        <time>2020-10-03T10:41:36.000Z</time>
      </trkpt>
      <trkpt lat="44.11628" lon="3.1376">
        <ele>580.40002441406</ele>
        <time>2020-10-03T10:41:37.000Z</time>
      </trkpt>
      <trkpt lat="44.11627" lon="3.1376">
        <ele>580.40002441406</ele>
        <time>2020-10-03T10:41:39.000Z</time>
      </trkpt>
      <trkpt lat="44.11627" lon="3.13761">
        <ele>580.40002441406</ele>
        <time>2020-10-03T10:41:41.000Z</time>
      </trkpt>
      <trkpt lat="44.11626" lon="3.13761">
        <ele>580.40002441406</ele>
        <time>2020-10-03T10:41:43.000Z</time>
      </trkpt>
      <trkpt lat="44.11624" lon="3.13761">
        <ele>580.40002441406</ele>
        <time>2020-10-03T10:41:45.000Z</time>
      </trkpt>
      <trkpt lat="44.11624" lon="3.1376">
        <ele>580.40002441406</ele>
        <time>2020-10-03T10:41:47.000Z</time>
      </trkpt>
      <trkpt lat="44.11623" lon="3.13759">
        <ele>580.40002441406</ele>
        <time>2020-10-03T10:41:49.000Z</time>
      </trkpt>
      <trkpt lat="44.11623" lon="3.13759">
        <ele>580.59997558594</ele>
        <time>2020-10-03T10:41:51.000Z</time>
      </trkpt>
      <trkpt lat="44.11623" lon="3.13759">
        <ele>580.40002441406</ele>
        <time>2020-10-03T10:41:53.000Z</time>
      </trkpt>
      <trkpt lat="44.11623" lon="3.13759">
        <ele>580.40002441406</ele>
        <time>2020-10-03T10:41:55.000Z</time>
      </trkpt>
      <trkpt lat="44.11624" lon="3.13759">
        <ele>580.59997558594</ele>
        <time>2020-10-03T10:41:57.000Z</time>
      </trkpt>
      <trkpt lat="44.11624" lon="3.13759">
        <ele>580.59997558594</ele>
        <time>2020-10-03T10:41:59.000Z</time>
      </trkpt>
      <trkpt lat="44.11624" lon="3.13758">
        <ele>580.59997558594</ele>
        <time>2020-10-03T10:42:01.000Z</time>
      </trkpt>
      <trkpt lat="44.11624" lon="3.13758">
        <ele>580.59997558594</ele>
        <time>2020-10-03T10:42:03.000Z</time>
      </trkpt>
      <trkpt lat="44.11625" lon="3.13758">
        <ele>580.79998779297</ele>
        <time>2020-10-03T10:42:05.000Z</time>
      </trkpt>
      <trkpt lat="44.11625" lon="3.13758">
        <ele>580.79998779297</ele>
        <time>2020-10-03T10:42:07.000Z</time>
      </trkpt>
      <trkpt lat="44.11625" lon="3.13758">
        <ele>580.79998779297</ele>
        <time>2020-10-03T10:42:09.000Z</time>
      </trkpt>
      <trkpt lat="44.11625" lon="3.13757">
        <ele>580.79998779297</ele>
        <time>2020-10-03T10:42:11.000Z</time>
      </trkpt>
      <trkpt lat="44.11625" lon="3.13757">
        <ele>580.79998779297</ele>
        <time>2020-10-03T10:42:13.000Z</time>
      </trkpt>
      <trkpt lat="44.11625" lon="3.13757">
        <ele>580.79998779297</ele>
        <time>2020-10-03T10:42:15.000Z</time>
      </trkpt>
      <trkpt lat="44.11625" lon="3.13757">
        <ele>580.79998779297</ele>
        <time>2020-10-03T10:42:17.000Z</time>
      </trkpt>
      <trkpt lat="44.11625" lon="3.13756">
        <ele>580.79998779297</ele>
        <time>2020-10-03T10:42:19.000Z</time>
      </trkpt>
      <trkpt lat="44.11625" lon="3.13756">
        <ele>580.79998779297</ele>
        <time>2020-10-03T10:42:21.000Z</time>
      </trkpt>
      <trkpt lat="44.11625" lon="3.13755">
        <ele>580.79998779297</ele>
        <time>2020-10-03T10:42:22.000Z</time>
      </trkpt>
      <trkpt lat="44.11625" lon="3.13755">
        <ele>580.79998779297</ele>
        <time>2020-10-03T10:42:23.000Z</time>
      </trkpt>
      <trkpt lat="44.11625" lon="3.13755">
        <ele>580.79998779297</ele>
        <time>2020-10-03T10:42:25.000Z</time>
      </trkpt>
      <trkpt lat="44.11625" lon="3.13754">
        <ele>580.79998779297</ele>
        <time>2020-10-03T10:42:27.000Z</time>
      </trkpt>
      <trkpt lat="44.11625" lon="3.13754">
        <ele>580.79998779297</ele>
        <time>2020-10-03T10:42:29.000Z</time>
      </trkpt>
      <trkpt lat="44.11625" lon="3.13755">
        <ele>580.59997558594</ele>
        <time>2020-10-03T10:42:31.000Z</time>
      </trkpt>
      <trkpt lat="44.11625" lon="3.13755">
        <ele>580.79998779297</ele>
        <time>2020-10-03T10:42:33.000Z</time>
      </trkpt>
      <trkpt lat="44.11625" lon="3.13755">
        <ele>580.79998779297</ele>
        <time>2020-10-03T10:42:35.000Z</time>
      </trkpt>
      <trkpt lat="44.11625" lon="3.13755">
        <ele>580.79998779297</ele>
        <time>2020-10-03T10:42:37.000Z</time>
      </trkpt>
      <trkpt lat="44.11625" lon="3.13755">
        <ele>580.79998779297</ele>
        <time>2020-10-03T10:42:38.000Z</time>
      </trkpt>
      <trkpt lat="44.11625" lon="3.13755">
        <ele>580.79998779297</ele>
        <time>2020-10-03T10:42:39.000Z</time>
      </trkpt>
      <trkpt lat="44.11625" lon="3.13755">
        <ele>581</ele>
        <time>2020-10-03T10:42:41.000Z</time>
      </trkpt>
      <trkpt lat="44.11626" lon="3.13755">
        <ele>581</ele>
        <time>2020-10-03T10:42:43.000Z</time>
      </trkpt>
      <trkpt lat="44.11626" lon="3.13756">
        <ele>581</ele>
        <time>2020-10-03T10:42:45.000Z</time>
      </trkpt>
      <trkpt lat="44.11626" lon="3.13757">
        <ele>581</ele>
        <time>2020-10-03T10:42:47.000Z</time>
      </trkpt>
      <trkpt lat="44.11625" lon="3.13757">
        <ele>581</ele>
        <time>2020-10-03T10:42:49.000Z</time>
      </trkpt>
      <trkpt lat="44.11624" lon="3.13757">
        <ele>581</ele>
        <time>2020-10-03T10:42:51.000Z</time>
      </trkpt>
      <trkpt lat="44.11622" lon="3.13755">
        <ele>581</ele>
        <time>2020-10-03T10:42:52.000Z</time>
      </trkpt>
      <trkpt lat="44.11619" lon="3.13754">
        <ele>581</ele>
        <time>2020-10-03T10:42:53.000Z</time>
      </trkpt>
      <trkpt lat="44.11612" lon="3.13747">
        <ele>580.79998779297</ele>
        <time>2020-10-03T10:42:55.000Z</time>
      </trkpt>
      <trkpt lat="44.11605" lon="3.13736">
        <ele>580.79998779297</ele>
        <time>2020-10-03T10:42:57.000Z</time>
      </trkpt>
      <trkpt lat="44.11597" lon="3.13725">
        <ele>580.79998779297</ele>
        <time>2020-10-03T10:42:59.000Z</time>
      </trkpt>
      <trkpt lat="44.11594" lon="3.1372">
        <ele>580.40002441406</ele>
        <time>2020-10-03T10:43:00.000Z</time>
      </trkpt>
      <trkpt lat="44.1159" lon="3.13717">
        <ele>580</ele>
        <time>2020-10-03T10:43:01.000Z</time>
      </trkpt>
      <trkpt lat="44.11587" lon="3.13717">
        <ele>579.20001220703</ele>
        <time>2020-10-03T10:43:02.000Z</time>
      </trkpt>
      <trkpt lat="44.11583" lon="3.13719">
        <ele>578.59997558594</ele>
        <time>2020-10-03T10:43:03.000Z</time>
      </trkpt>
      <trkpt lat="44.11581" lon="3.13721">
        <ele>578.20001220703</ele>
        <time>2020-10-03T10:43:04.000Z</time>
      </trkpt>
      <trkpt lat="44.11578" lon="3.13724">
        <ele>577.79998779297</ele>
        <time>2020-10-03T10:43:05.000Z</time>
      </trkpt>
      <trkpt lat="44.11575" lon="3.13727">
        <ele>577.40002441406</ele>
        <time>2020-10-03T10:43:06.000Z</time>
      </trkpt>
      <trkpt lat="44.1157" lon="3.1373">
        <ele>576.59997558594</ele>
        <time>2020-10-03T10:43:07.000Z</time>
      </trkpt>
      <trkpt lat="44.11564" lon="3.13732">
        <ele>576.20001220703</ele>
        <time>2020-10-03T10:43:08.000Z</time>
      </trkpt>
      <trkpt lat="44.11559" lon="3.13735">
        <ele>575.40002441406</ele>
        <time>2020-10-03T10:43:09.000Z</time>
      </trkpt>
      <trkpt lat="44.11554" lon="3.13739">
        <ele>574.40002441406</ele>
        <time>2020-10-03T10:43:10.000Z</time>
      </trkpt>
      <trkpt lat="44.11549" lon="3.13743">
        <ele>573.40002441406</ele>
        <time>2020-10-03T10:43:11.000Z</time>
      </trkpt>
      <trkpt lat="44.11544" lon="3.13749">
        <ele>572.20001220703</ele>
        <time>2020-10-03T10:43:12.000Z</time>
      </trkpt>
      <trkpt lat="44.1154" lon="3.13758">
        <ele>571.20001220703</ele>
        <time>2020-10-03T10:43:13.000Z</time>
      </trkpt>
      <trkpt lat="44.11537" lon="3.13769">
        <ele>570</ele>
        <time>2020-10-03T10:43:14.000Z</time>
      </trkpt>
      <trkpt lat="44.11534" lon="3.13781">
        <ele>568.59997558594</ele>
        <time>2020-10-03T10:43:15.000Z</time>
      </trkpt>
      <trkpt lat="44.11534" lon="3.13793">
        <ele>567</ele>
        <time>2020-10-03T10:43:16.000Z</time>
      </trkpt>
      <trkpt lat="44.11532" lon="3.13804">
        <ele>565.40002441406</ele>
        <time>2020-10-03T10:43:17.000Z</time>
      </trkpt>
      <trkpt lat="44.11529" lon="3.13812">
        <ele>563.59997558594</ele>
        <time>2020-10-03T10:43:18.000Z</time>
      </trkpt>
      <trkpt lat="44.11525" lon="3.13817">
        <ele>562.20001220703</ele>
        <time>2020-10-03T10:43:19.000Z</time>
      </trkpt>
      <trkpt lat="44.1152" lon="3.13821">
        <ele>560.59997558594</ele>
        <time>2020-10-03T10:43:20.000Z</time>
      </trkpt>
      <trkpt lat="44.11513" lon="3.13825">
        <ele>559</ele>
        <time>2020-10-03T10:43:21.000Z</time>
      </trkpt>
      <trkpt lat="44.11505" lon="3.1383">
        <ele>557.79998779297</ele>
        <time>2020-10-03T10:43:22.000Z</time>
      </trkpt>
      <trkpt lat="44.11499" lon="3.13835">
        <ele>556.40002441406</ele>
        <time>2020-10-03T10:43:23.000Z</time>
      </trkpt>
      <trkpt lat="44.11494" lon="3.13841">
        <ele>554.79998779297</ele>
        <time>2020-10-03T10:43:24.000Z</time>
      </trkpt>
      <trkpt lat="44.11494" lon="3.13845">
        <ele>553.59997558594</ele>
        <time>2020-10-03T10:43:25.000Z</time>
      </trkpt>
      <trkpt lat="44.11494" lon="3.13848">
        <ele>552.59997558594</ele>
        <time>2020-10-03T10:43:26.000Z</time>
      </trkpt>
      <trkpt lat="44.11497" lon="3.13851">
        <ele>552</ele>
        <time>2020-10-03T10:43:27.000Z</time>
      </trkpt>
      <trkpt lat="44.11502" lon="3.13851">
        <ele>551</ele>
        <time>2020-10-03T10:43:28.000Z</time>
      </trkpt>
      <trkpt lat="44.11508" lon="3.13851">
        <ele>548.59997558594</ele>
        <time>2020-10-03T10:43:29.000Z</time>
      </trkpt>
      <trkpt lat="44.11519" lon="3.13851">
        <ele>547.40002441406</ele>
        <time>2020-10-03T10:43:31.000Z</time>
      </trkpt>
      <trkpt lat="44.11523" lon="3.13852">
        <ele>546.79998779297</ele>
        <time>2020-10-03T10:43:32.000Z</time>
      </trkpt>
      <trkpt lat="44.11526" lon="3.13855">
        <ele>545.79998779297</ele>
        <time>2020-10-03T10:43:33.000Z</time>
      </trkpt>
      <trkpt lat="44.11525" lon="3.13867">
        <ele>544</ele>
        <time>2020-10-03T10:43:35.000Z</time>
      </trkpt>
      <trkpt lat="44.1152" lon="3.13883">
        <ele>542.40002441406</ele>
        <time>2020-10-03T10:43:37.000Z</time>
      </trkpt>
      <trkpt lat="44.11517" lon="3.13893">
        <ele>541.59997558594</ele>
        <time>2020-10-03T10:43:38.000Z</time>
      </trkpt>
      <trkpt lat="44.11514" lon="3.13903">
        <ele>541</ele>
        <time>2020-10-03T10:43:39.000Z</time>
      </trkpt>
      <trkpt lat="44.11506" lon="3.13927">
        <ele>539.20001220703</ele>
        <time>2020-10-03T10:43:41.000Z</time>
      </trkpt>
      <trkpt lat="44.11501" lon="3.13938">
        <ele>538.20001220703</ele>
        <time>2020-10-03T10:43:42.000Z</time>
      </trkpt>
      <trkpt lat="44.11495" lon="3.13948">
        <ele>537.59997558594</ele>
        <time>2020-10-03T10:43:43.000Z</time>
      </trkpt>
      <trkpt lat="44.11486" lon="3.13967">
        <ele>536.20001220703</ele>
        <time>2020-10-03T10:43:45.000Z</time>
      </trkpt>
      <trkpt lat="44.11482" lon="3.13978">
        <ele>535.20001220703</ele>
        <time>2020-10-03T10:43:46.000Z</time>
      </trkpt>
      <trkpt lat="44.11478" lon="3.13987">
        <ele>534</ele>
        <time>2020-10-03T10:43:47.000Z</time>
      </trkpt>
      <trkpt lat="44.11473" lon="3.13995">
        <ele>532.20001220703</ele>
        <time>2020-10-03T10:43:48.000Z</time>
      </trkpt>
      <trkpt lat="44.11466" lon="3.13999">
        <ele>530.20001220703</ele>
        <time>2020-10-03T10:43:49.000Z</time>
      </trkpt>
      <trkpt lat="44.11458" lon="3.14">
        <ele>528.59997558594</ele>
        <time>2020-10-03T10:43:50.000Z</time>
      </trkpt>
      <trkpt lat="44.1145" lon="3.14">
        <ele>526.79998779297</ele>
        <time>2020-10-03T10:43:51.000Z</time>
      </trkpt>
      <trkpt lat="44.11441" lon="3.13999">
        <ele>525.20001220703</ele>
        <time>2020-10-03T10:43:52.000Z</time>
      </trkpt>
      <trkpt lat="44.11432" lon="3.13999">
        <ele>523.40002441406</ele>
        <time>2020-10-03T10:43:53.000Z</time>
      </trkpt>
      <trkpt lat="44.11424" lon="3.13999">
        <ele>522</ele>
        <time>2020-10-03T10:43:54.000Z</time>
      </trkpt>
      <trkpt lat="44.11418" lon="3.14001">
        <ele>520.20001220703</ele>
        <time>2020-10-03T10:43:55.000Z</time>
      </trkpt>
      <trkpt lat="44.11414" lon="3.14005">
        <ele>518.59997558594</ele>
        <time>2020-10-03T10:43:56.000Z</time>
      </trkpt>
      <trkpt lat="44.11413" lon="3.14009">
        <ele>517</ele>
        <time>2020-10-03T10:43:57.000Z</time>
      </trkpt>
      <trkpt lat="44.11415" lon="3.14015">
        <ele>514</ele>
        <time>2020-10-03T10:43:58.000Z</time>
      </trkpt>
      <trkpt lat="44.11417" lon="3.14022">
        <ele>512.79998779297</ele>
        <time>2020-10-03T10:43:59.000Z</time>
      </trkpt>
      <trkpt lat="44.11419" lon="3.1403">
        <ele>511.60000610352</ele>
        <time>2020-10-03T10:44:00.000Z</time>
      </trkpt>
      <trkpt lat="44.11419" lon="3.14038">
        <ele>510.60000610352</ele>
        <time>2020-10-03T10:44:01.000Z</time>
      </trkpt>
      <trkpt lat="44.11417" lon="3.14048">
        <ele>509.79998779297</ele>
        <time>2020-10-03T10:44:02.000Z</time>
      </trkpt>
      <trkpt lat="44.11414" lon="3.14057">
        <ele>509.20001220703</ele>
        <time>2020-10-03T10:44:03.000Z</time>
      </trkpt>
      <trkpt lat="44.11409" lon="3.14065">
        <ele>508.39999389648</ele>
        <time>2020-10-03T10:44:04.000Z</time>
      </trkpt>
      <trkpt lat="44.11404" lon="3.14072">
        <ele>507.60000610352</ele>
        <time>2020-10-03T10:44:05.000Z</time>
      </trkpt>
      <trkpt lat="44.11397" lon="3.14076">
        <ele>507</ele>
        <time>2020-10-03T10:44:06.000Z</time>
      </trkpt>
      <trkpt lat="44.11388" lon="3.14077">
        <ele>506.39999389648</ele>
        <time>2020-10-03T10:44:07.000Z</time>
      </trkpt>
      <trkpt lat="44.1138" lon="3.14079">
        <ele>506</ele>
        <time>2020-10-03T10:44:08.000Z</time>
      </trkpt>
      <trkpt lat="44.11372" lon="3.1408">
        <ele>505.60000610352</ele>
        <time>2020-10-03T10:44:09.000Z</time>
      </trkpt>
      <trkpt lat="44.11365" lon="3.1408">
        <ele>505</ele>
        <time>2020-10-03T10:44:10.000Z</time>
      </trkpt>
      <trkpt lat="44.11358" lon="3.14076">
        <ele>503.79998779297</ele>
        <time>2020-10-03T10:44:11.000Z</time>
      </trkpt>
      <trkpt lat="44.11352" lon="3.14071">
        <ele>502.39999389648</ele>
        <time>2020-10-03T10:44:12.000Z</time>
      </trkpt>
      <trkpt lat="44.11348" lon="3.14066">
        <ele>501.20001220703</ele>
        <time>2020-10-03T10:44:13.000Z</time>
      </trkpt>
      <trkpt lat="44.11345" lon="3.14065">
        <ele>500</ele>
        <time>2020-10-03T10:44:14.000Z</time>
      </trkpt>
      <trkpt lat="44.11343" lon="3.14067">
        <ele>499</ele>
        <time>2020-10-03T10:44:15.000Z</time>
      </trkpt>
      <trkpt lat="44.11344" lon="3.14072">
        <ele>497.79998779297</ele>
        <time>2020-10-03T10:44:16.000Z</time>
      </trkpt>
      <trkpt lat="44.11344" lon="3.14078">
        <ele>496.39999389648</ele>
        <time>2020-10-03T10:44:17.000Z</time>
      </trkpt>
      <trkpt lat="44.11345" lon="3.14086">
        <ele>495</ele>
        <time>2020-10-03T10:44:18.000Z</time>
      </trkpt>
      <trkpt lat="44.11344" lon="3.14094">
        <ele>493.79998779297</ele>
        <time>2020-10-03T10:44:19.000Z</time>
      </trkpt>
      <trkpt lat="44.11345" lon="3.14102">
        <ele>492.60000610352</ele>
        <time>2020-10-03T10:44:20.000Z</time>
      </trkpt>
      <trkpt lat="44.11347" lon="3.1411">
        <ele>491.60000610352</ele>
        <time>2020-10-03T10:44:21.000Z</time>
      </trkpt>
      <trkpt lat="44.11352" lon="3.14116">
        <ele>490.39999389648</ele>
        <time>2020-10-03T10:44:22.000Z</time>
      </trkpt>
      <trkpt lat="44.11357" lon="3.14122">
        <ele>489.39999389648</ele>
        <time>2020-10-03T10:44:23.000Z</time>
      </trkpt>
      <trkpt lat="44.11362" lon="3.14126">
        <ele>488.79998779297</ele>
        <time>2020-10-03T10:44:24.000Z</time>
      </trkpt>
      <trkpt lat="44.11368" lon="3.14131">
        <ele>488</ele>
        <time>2020-10-03T10:44:25.000Z</time>
      </trkpt>
      <trkpt lat="44.11374" lon="3.14135">
        <ele>487</ele>
        <time>2020-10-03T10:44:26.000Z</time>
      </trkpt>
      <trkpt lat="44.1138" lon="3.14139">
        <ele>486.20001220703</ele>
        <time>2020-10-03T10:44:27.000Z</time>
      </trkpt>
      <trkpt lat="44.11386" lon="3.14142">
        <ele>485.39999389648</ele>
        <time>2020-10-03T10:44:28.000Z</time>
      </trkpt>
      <trkpt lat="44.11392" lon="3.14144">
        <ele>484.79998779297</ele>
        <time>2020-10-03T10:44:29.000Z</time>
      </trkpt>
      <trkpt lat="44.11398" lon="3.14147">
        <ele>484</ele>
        <time>2020-10-03T10:44:30.000Z</time>
      </trkpt>
      <trkpt lat="44.11402" lon="3.14149">
        <ele>483.39999389648</ele>
        <time>2020-10-03T10:44:31.000Z</time>
      </trkpt>
      <trkpt lat="44.11403" lon="3.14151">
        <ele>483</ele>
        <time>2020-10-03T10:44:32.000Z</time>
      </trkpt>
      <trkpt lat="44.11403" lon="3.14153">
        <ele>482.60000610352</ele>
        <time>2020-10-03T10:44:33.000Z</time>
      </trkpt>
      <trkpt lat="44.11403" lon="3.14153">
        <ele>481.79998779297</ele>
        <time>2020-10-03T10:44:34.000Z</time>
      </trkpt>
      <trkpt lat="44.11402" lon="3.14153">
        <ele>481.20001220703</ele>
        <time>2020-10-03T10:44:35.000Z</time>
      </trkpt>
      <trkpt lat="44.11402" lon="3.14152">
        <ele>480.60000610352</ele>
        <time>2020-10-03T10:44:36.000Z</time>
      </trkpt>
      <trkpt lat="44.11402" lon="3.14151">
        <ele>480.20001220703</ele>
        <time>2020-10-03T10:44:37.000Z</time>
      </trkpt>
      <trkpt lat="44.11401" lon="3.1415">
        <ele>479.20001220703</ele>
        <time>2020-10-03T10:44:38.000Z</time>
      </trkpt>
      <trkpt lat="44.11401" lon="3.14149">
        <ele>478</ele>
        <time>2020-10-03T10:44:39.000Z</time>
      </trkpt>
      <trkpt lat="44.11401" lon="3.14149">
        <ele>476.79998779297</ele>
        <time>2020-10-03T10:44:41.000Z</time>
      </trkpt>
      <trkpt lat="44.11401" lon="3.14148">
        <ele>476.39999389648</ele>
        <time>2020-10-03T10:44:43.000Z</time>
      </trkpt>
      <trkpt lat="44.11401" lon="3.14148">
        <ele>476.20001220703</ele>
        <time>2020-10-03T10:44:45.000Z</time>
      </trkpt>
      <trkpt lat="44.11401" lon="3.14147">
        <ele>476.20001220703</ele>
        <time>2020-10-03T10:44:47.000Z</time>
      </trkpt>
      <trkpt lat="44.114" lon="3.14147">
        <ele>476.20001220703</ele>
        <time>2020-10-03T10:44:48.000Z</time>
      </trkpt>
      <trkpt lat="44.11399" lon="3.14147">
        <ele>476.20001220703</ele>
        <time>2020-10-03T10:44:49.000Z</time>
      </trkpt>
      <trkpt lat="44.11394" lon="3.14147">
        <ele>476.20001220703</ele>
        <time>2020-10-03T10:44:51.000Z</time>
      </trkpt>
      <trkpt lat="44.11392" lon="3.14147">
        <ele>476.20001220703</ele>
        <time>2020-10-03T10:44:52.000Z</time>
      </trkpt>
      <trkpt lat="44.11389" lon="3.14146">
        <ele>476.20001220703</ele>
        <time>2020-10-03T10:44:53.000Z</time>
      </trkpt>
      <trkpt lat="44.11382" lon="3.14145">
        <ele>476.20001220703</ele>
        <time>2020-10-03T10:44:55.000Z</time>
      </trkpt>
      <trkpt lat="44.11375" lon="3.14143">
        <ele>476</ele>
        <time>2020-10-03T10:44:57.000Z</time>
      </trkpt>
      <trkpt lat="44.11366" lon="3.14138">
        <ele>475.60000610352</ele>
        <time>2020-10-03T10:44:59.000Z</time>
      </trkpt>
      <trkpt lat="44.1136" lon="3.14136">
        <ele>475.60000610352</ele>
        <time>2020-10-03T10:45:00.000Z</time>
      </trkpt>
      <trkpt lat="44.11355" lon="3.14135">
        <ele>475.39999389648</ele>
        <time>2020-10-03T10:45:01.000Z</time>
      </trkpt>
      <trkpt lat="44.11348" lon="3.14133">
        <ele>474.79998779297</ele>
        <time>2020-10-03T10:45:03.000Z</time>
      </trkpt>
      <trkpt lat="44.11346" lon="3.14133">
        <ele>474.60000610352</ele>
        <time>2020-10-03T10:45:04.000Z</time>
      </trkpt>
      <trkpt lat="44.11344" lon="3.14133">
        <ele>474.20001220703</ele>
        <time>2020-10-03T10:45:05.000Z</time>
      </trkpt>
      <trkpt lat="44.11344" lon="3.14132">
        <ele>474</ele>
        <time>2020-10-03T10:45:06.000Z</time>
      </trkpt>
      <trkpt lat="44.11343" lon="3.14132">
        <ele>472.79998779297</ele>
        <time>2020-10-03T10:45:07.000Z</time>
      </trkpt>
      <trkpt lat="44.11343" lon="3.14132">
        <ele>471</ele>
        <time>2020-10-03T10:45:09.000Z</time>
      </trkpt>
      <trkpt lat="44.11344" lon="3.14132">
        <ele>469.20001220703</ele>
        <time>2020-10-03T10:45:11.000Z</time>
      </trkpt>
      <trkpt lat="44.11345" lon="3.14132">
        <ele>467.60000610352</ele>
        <time>2020-10-03T10:45:13.000Z</time>
      </trkpt>
      <trkpt lat="44.11345" lon="3.14133">
        <ele>466.79998779297</ele>
        <time>2020-10-03T10:45:15.000Z</time>
      </trkpt>
      <trkpt lat="44.11346" lon="3.14133">
        <ele>466.60000610352</ele>
        <time>2020-10-03T10:45:16.000Z</time>
      </trkpt>
      <trkpt lat="44.11346" lon="3.14133">
        <ele>466.39999389648</ele>
        <time>2020-10-03T10:45:17.000Z</time>
      </trkpt>
      <trkpt lat="44.11347" lon="3.14133">
        <ele>466.39999389648</ele>
        <time>2020-10-03T10:45:19.000Z</time>
      </trkpt>
      <trkpt lat="44.11347" lon="3.14133">
        <ele>466.20001220703</ele>
        <time>2020-10-03T10:45:21.000Z</time>
      </trkpt>
      <trkpt lat="44.11348" lon="3.14133">
        <ele>466.20001220703</ele>
        <time>2020-10-03T10:45:23.000Z</time>
      </trkpt>
      <trkpt lat="44.11348" lon="3.14133">
        <ele>466.20001220703</ele>
        <time>2020-10-03T10:45:25.000Z</time>
      </trkpt>
      <trkpt lat="44.11348" lon="3.14133">
        <ele>466.20001220703</ele>
        <time>2020-10-03T10:45:27.000Z</time>
      </trkpt>
      <trkpt lat="44.11347" lon="3.14133">
        <ele>466.20001220703</ele>
        <time>2020-10-03T10:45:29.000Z</time>
      </trkpt>
      <trkpt lat="44.11344" lon="3.14132">
        <ele>466.20001220703</ele>
        <time>2020-10-03T10:45:31.000Z</time>
      </trkpt>
      <trkpt lat="44.11342" lon="3.1413">
        <ele>466.20001220703</ele>
        <time>2020-10-03T10:45:32.000Z</time>
      </trkpt>
      <trkpt lat="44.11338" lon="3.14127">
        <ele>466.20001220703</ele>
        <time>2020-10-03T10:45:33.000Z</time>
      </trkpt>
      <trkpt lat="44.1133" lon="3.14121">
        <ele>466.20001220703</ele>
        <time>2020-10-03T10:45:35.000Z</time>
      </trkpt>
      <trkpt lat="44.11326" lon="3.14117">
        <ele>466.20001220703</ele>
        <time>2020-10-03T10:45:36.000Z</time>
      </trkpt>
      <trkpt lat="44.11322" lon="3.14114">
        <ele>466</ele>
        <time>2020-10-03T10:45:37.000Z</time>
      </trkpt>
      <trkpt lat="44.11318" lon="3.14112">
        <ele>466</ele>
        <time>2020-10-03T10:45:38.000Z</time>
      </trkpt>
      <trkpt lat="44.11314" lon="3.14112">
        <ele>466</ele>
        <time>2020-10-03T10:45:39.000Z</time>
      </trkpt>
      <trkpt lat="44.11311" lon="3.14111">
        <ele>465.39999389648</ele>
        <time>2020-10-03T10:45:40.000Z</time>
      </trkpt>
      <trkpt lat="44.11307" lon="3.1411">
        <ele>464.60000610352</ele>
        <time>2020-10-03T10:45:41.000Z</time>
      </trkpt>
      <trkpt lat="44.11303" lon="3.14108">
        <ele>463.39999389648</ele>
        <time>2020-10-03T10:45:42.000Z</time>
      </trkpt>
      <trkpt lat="44.11299" lon="3.14103">
        <ele>462</ele>
        <time>2020-10-03T10:45:43.000Z</time>
      </trkpt>
      <trkpt lat="44.11295" lon="3.14098">
        <ele>460.60000610352</ele>
        <time>2020-10-03T10:45:44.000Z</time>
      </trkpt>
      <trkpt lat="44.11291" lon="3.14091">
        <ele>459.39999389648</ele>
        <time>2020-10-03T10:45:45.000Z</time>
      </trkpt>
      <trkpt lat="44.11288" lon="3.14085">
        <ele>458</ele>
        <time>2020-10-03T10:45:46.000Z</time>
      </trkpt>
      <trkpt lat="44.11286" lon="3.14082">
        <ele>456.60000610352</ele>
        <time>2020-10-03T10:45:47.000Z</time>
      </trkpt>
      <trkpt lat="44.11282" lon="3.14078">
        <ele>455.20001220703</ele>
        <time>2020-10-03T10:45:48.000Z</time>
      </trkpt>
      <trkpt lat="44.11278" lon="3.14073">
        <ele>453.79998779297</ele>
        <time>2020-10-03T10:45:49.000Z</time>
      </trkpt>
      <trkpt lat="44.11275" lon="3.14066">
        <ele>452.39999389648</ele>
        <time>2020-10-03T10:45:50.000Z</time>
      </trkpt>
      <trkpt lat="44.11271" lon="3.14059">
        <ele>450.79998779297</ele>
        <time>2020-10-03T10:45:51.000Z</time>
      </trkpt>
      <trkpt lat="44.11267" lon="3.14052">
        <ele>449</ele>
        <time>2020-10-03T10:45:52.000Z</time>
      </trkpt>
      <trkpt lat="44.11263" lon="3.14044">
        <ele>446.20001220703</ele>
        <time>2020-10-03T10:45:53.000Z</time>
      </trkpt>
      <trkpt lat="44.11259" lon="3.14037">
        <ele>444.79998779297</ele>
        <time>2020-10-03T10:45:54.000Z</time>
      </trkpt>
      <trkpt lat="44.11254" lon="3.14029">
        <ele>443.60000610352</ele>
        <time>2020-10-03T10:45:55.000Z</time>
      </trkpt>
      <trkpt lat="44.11251" lon="3.14025">
        <ele>442.39999389648</ele>
        <time>2020-10-03T10:45:56.000Z</time>
      </trkpt>
      <trkpt lat="44.11249" lon="3.14025">
        <ele>440.79998779297</ele>
        <time>2020-10-03T10:45:57.000Z</time>
      </trkpt>
      <trkpt lat="44.11248" lon="3.14028">
        <ele>439.39999389648</ele>
        <time>2020-10-03T10:45:58.000Z</time>
      </trkpt>
      <trkpt lat="44.1125" lon="3.14032">
        <ele>438.60000610352</ele>
        <time>2020-10-03T10:45:59.000Z</time>
      </trkpt>
      <trkpt lat="44.11252" lon="3.14036">
        <ele>437.39999389648</ele>
        <time>2020-10-03T10:46:00.000Z</time>
      </trkpt>
      <trkpt lat="44.11252" lon="3.14038">
        <ele>436.20001220703</ele>
        <time>2020-10-03T10:46:01.000Z</time>
      </trkpt>
      <trkpt lat="44.11253" lon="3.14039">
        <ele>434.79998779297</ele>
        <time>2020-10-03T10:46:02.000Z</time>
      </trkpt>
      <trkpt lat="44.11253" lon="3.14039">
        <ele>433.39999389648</ele>
        <time>2020-10-03T10:46:03.000Z</time>
      </trkpt>
      <trkpt lat="44.11254" lon="3.1404">
        <ele>431.79998779297</ele>
        <time>2020-10-03T10:46:04.000Z</time>
      </trkpt>
      <trkpt lat="44.11254" lon="3.1404">
        <ele>430.79998779297</ele>
        <time>2020-10-03T10:46:05.000Z</time>
      </trkpt>
      <trkpt lat="44.11254" lon="3.14041">
        <ele>430.20001220703</ele>
        <time>2020-10-03T10:46:06.000Z</time>
      </trkpt>
      <trkpt lat="44.11255" lon="3.14042">
        <ele>429.60000610352</ele>
        <time>2020-10-03T10:46:07.000Z</time>
      </trkpt>
      <trkpt lat="44.11255" lon="3.14043">
        <ele>429.20001220703</ele>
        <time>2020-10-03T10:46:08.000Z</time>
      </trkpt>
      <trkpt lat="44.11255" lon="3.14044">
        <ele>428.60000610352</ele>
        <time>2020-10-03T10:46:09.000Z</time>
      </trkpt>
      <trkpt lat="44.11256" lon="3.14044">
        <ele>428.20001220703</ele>
        <time>2020-10-03T10:46:10.000Z</time>
      </trkpt>
      <trkpt lat="44.11256" lon="3.14045">
        <ele>427.79998779297</ele>
        <time>2020-10-03T10:46:11.000Z</time>
      </trkpt>
      <trkpt lat="44.11256" lon="3.14046">
        <ele>427.60000610352</ele>
        <time>2020-10-03T10:46:13.000Z</time>
      </trkpt>
      <trkpt lat="44.11257" lon="3.14048">
        <ele>427.60000610352</ele>
        <time>2020-10-03T10:46:14.000Z</time>
      </trkpt>
      <trkpt lat="44.11257" lon="3.1405">
        <ele>427.60000610352</ele>
        <time>2020-10-03T10:46:15.000Z</time>
      </trkpt>
      <trkpt lat="44.11258" lon="3.14059">
        <ele>427.20001220703</ele>
        <time>2020-10-03T10:46:17.000Z</time>
      </trkpt>
      <trkpt lat="44.11258" lon="3.14063">
        <ele>427.20001220703</ele>
        <time>2020-10-03T10:46:18.000Z</time>
      </trkpt>
      <trkpt lat="44.11255" lon="3.14068">
        <ele>427.20001220703</ele>
        <time>2020-10-03T10:46:19.000Z</time>
      </trkpt>
      <trkpt lat="44.11253" lon="3.14071">
        <ele>427.20001220703</ele>
        <time>2020-10-03T10:46:20.000Z</time>
      </trkpt>
      <trkpt lat="44.1125" lon="3.14072">
        <ele>427</ele>
        <time>2020-10-03T10:46:21.000Z</time>
      </trkpt>
      <trkpt lat="44.11242" lon="3.14069">
        <ele>426.39999389648</ele>
        <time>2020-10-03T10:46:23.000Z</time>
      </trkpt>
      <trkpt lat="44.11239" lon="3.14065">
        <ele>426.20001220703</ele>
        <time>2020-10-03T10:46:24.000Z</time>
      </trkpt>
      <trkpt lat="44.11235" lon="3.14061">
        <ele>426</ele>
        <time>2020-10-03T10:46:25.000Z</time>
      </trkpt>
      <trkpt lat="44.11231" lon="3.14055">
        <ele>425.20001220703</ele>
        <time>2020-10-03T10:46:26.000Z</time>
      </trkpt>
      <trkpt lat="44.11227" lon="3.14048">
        <ele>424.39999389648</ele>
        <time>2020-10-03T10:46:27.000Z</time>
      </trkpt>
      <trkpt lat="44.11223" lon="3.1404">
        <ele>424</ele>
        <time>2020-10-03T10:46:28.000Z</time>
      </trkpt>
      <trkpt lat="44.11219" lon="3.14032">
        <ele>423.60000610352</ele>
        <time>2020-10-03T10:46:29.000Z</time>
      </trkpt>
      <trkpt lat="44.11209" lon="3.14019">
        <ele>423</ele>
        <time>2020-10-03T10:46:31.000Z</time>
      </trkpt>
      <trkpt lat="44.11205" lon="3.14013">
        <ele>422.60000610352</ele>
        <time>2020-10-03T10:46:32.000Z</time>
      </trkpt>
      <trkpt lat="44.11202" lon="3.14007">
        <ele>422</ele>
        <time>2020-10-03T10:46:33.000Z</time>
      </trkpt>
      <trkpt lat="44.11199" lon="3.14001">
        <ele>421.20001220703</ele>
        <time>2020-10-03T10:46:34.000Z</time>
      </trkpt>
      <trkpt lat="44.11198" lon="3.13995">
        <ele>420.79998779297</ele>
        <time>2020-10-03T10:46:35.000Z</time>
      </trkpt>
      <trkpt lat="44.11197" lon="3.13989">
        <ele>420</ele>
        <time>2020-10-03T10:46:36.000Z</time>
      </trkpt>
      <trkpt lat="44.11196" lon="3.13983">
        <ele>419</ele>
        <time>2020-10-03T10:46:37.000Z</time>
      </trkpt>
      <trkpt lat="44.11194" lon="3.13978">
        <ele>418.20001220703</ele>
        <time>2020-10-03T10:46:38.000Z</time>
      </trkpt>
      <trkpt lat="44.11191" lon="3.13973">
        <ele>417</ele>
        <time>2020-10-03T10:46:39.000Z</time>
      </trkpt>
      <trkpt lat="44.11186" lon="3.13967">
        <ele>415.79998779297</ele>
        <time>2020-10-03T10:46:40.000Z</time>
      </trkpt>
      <trkpt lat="44.11181" lon="3.13962">
        <ele>414.79998779297</ele>
        <time>2020-10-03T10:46:41.000Z</time>
      </trkpt>
      <trkpt lat="44.11175" lon="3.13956">
        <ele>413.60000610352</ele>
        <time>2020-10-03T10:46:42.000Z</time>
      </trkpt>
      <trkpt lat="44.11169" lon="3.13951">
        <ele>412.79998779297</ele>
        <time>2020-10-03T10:46:43.000Z</time>
      </trkpt>
      <trkpt lat="44.11163" lon="3.13945">
        <ele>411.79998779297</ele>
        <time>2020-10-03T10:46:44.000Z</time>
      </trkpt>
      <trkpt lat="44.11157" lon="3.13939">
        <ele>410.79998779297</ele>
        <time>2020-10-03T10:46:45.000Z</time>
      </trkpt>
      <trkpt lat="44.11144" lon="3.13925">
        <ele>409.20001220703</ele>
        <time>2020-10-03T10:46:47.000Z</time>
      </trkpt>
      <trkpt lat="44.11137" lon="3.13918">
        <ele>408.60000610352</ele>
        <time>2020-10-03T10:46:48.000Z</time>
      </trkpt>
      <trkpt lat="44.11131" lon="3.13912">
        <ele>408.20001220703</ele>
        <time>2020-10-03T10:46:49.000Z</time>
      </trkpt>
      <trkpt lat="44.11124" lon="3.13905">
        <ele>407.39999389648</ele>
        <time>2020-10-03T10:46:50.000Z</time>
      </trkpt>
      <trkpt lat="44.11117" lon="3.13899">
        <ele>405.60000610352</ele>
        <time>2020-10-03T10:46:51.000Z</time>
      </trkpt>
      <trkpt lat="44.11109" lon="3.13893">
        <ele>404.39999389648</ele>
        <time>2020-10-03T10:46:52.000Z</time>
      </trkpt>
      <trkpt lat="44.11102" lon="3.13888">
        <ele>403.79998779297</ele>
        <time>2020-10-03T10:46:53.000Z</time>
      </trkpt>
      <trkpt lat="44.11093" lon="3.13882">
        <ele>403</ele>
        <time>2020-10-03T10:46:54.000Z</time>
      </trkpt>
      <trkpt lat="44.11085" lon="3.13878">
        <ele>402.20001220703</ele>
        <time>2020-10-03T10:46:55.000Z</time>
      </trkpt>
      <trkpt lat="44.11078" lon="3.13874">
        <ele>401.60000610352</ele>
        <time>2020-10-03T10:46:56.000Z</time>
      </trkpt>
      <trkpt lat="44.11069" lon="3.13869">
        <ele>400.79998779297</ele>
        <time>2020-10-03T10:46:57.000Z</time>
      </trkpt>
      <trkpt lat="44.11059" lon="3.13864">
        <ele>400</ele>
        <time>2020-10-03T10:46:58.000Z</time>
      </trkpt>
      <trkpt lat="44.11051" lon="3.13858">
        <ele>399.20001220703</ele>
        <time>2020-10-03T10:46:59.000Z</time>
      </trkpt>
      <trkpt lat="44.11043" lon="3.13852">
        <ele>398.20001220703</ele>
        <time>2020-10-03T10:47:00.000Z</time>
      </trkpt>
      <trkpt lat="44.11035" lon="3.13846">
        <ele>397.39999389648</ele>
        <time>2020-10-03T10:47:01.000Z</time>
      </trkpt>
      <trkpt lat="44.11029" lon="3.13841">
        <ele>396.20001220703</ele>
        <time>2020-10-03T10:47:02.000Z</time>
      </trkpt>
      <trkpt lat="44.11022" lon="3.13837">
        <ele>395.39999389648</ele>
        <time>2020-10-03T10:47:03.000Z</time>
      </trkpt>
      <trkpt lat="44.11016" lon="3.13836">
        <ele>394.60000610352</ele>
        <time>2020-10-03T10:47:04.000Z</time>
      </trkpt>
      <trkpt lat="44.11009" lon="3.13838">
        <ele>393.60000610352</ele>
        <time>2020-10-03T10:47:05.000Z</time>
      </trkpt>
      <trkpt lat="44.11002" lon="3.13842">
        <ele>392.60000610352</ele>
        <time>2020-10-03T10:47:06.000Z</time>
      </trkpt>
      <trkpt lat="44.10995" lon="3.13845">
        <ele>391.60000610352</ele>
        <time>2020-10-03T10:47:07.000Z</time>
      </trkpt>
      <trkpt lat="44.10988" lon="3.13848">
        <ele>390.79998779297</ele>
        <time>2020-10-03T10:47:08.000Z</time>
      </trkpt>
      <trkpt lat="44.10981" lon="3.13851">
        <ele>390</ele>
        <time>2020-10-03T10:47:09.000Z</time>
      </trkpt>
      <trkpt lat="44.10975" lon="3.13854">
        <ele>389</ele>
        <time>2020-10-03T10:47:10.000Z</time>
      </trkpt>
      <trkpt lat="44.10967" lon="3.13857">
        <ele>388.20001220703</ele>
        <time>2020-10-03T10:47:11.000Z</time>
      </trkpt>
      <trkpt lat="44.10959" lon="3.13858">
        <ele>387.39999389648</ele>
        <time>2020-10-03T10:47:12.000Z</time>
      </trkpt>
      <trkpt lat="44.10952" lon="3.13858">
        <ele>386.79998779297</ele>
        <time>2020-10-03T10:47:13.000Z</time>
      </trkpt>
      <trkpt lat="44.10946" lon="3.13857">
        <ele>386</ele>
        <time>2020-10-03T10:47:14.000Z</time>
      </trkpt>
      <trkpt lat="44.10941" lon="3.13856">
        <ele>385.39999389648</ele>
        <time>2020-10-03T10:47:15.000Z</time>
      </trkpt>
      <trkpt lat="44.10936" lon="3.13854">
        <ele>384.79998779297</ele>
        <time>2020-10-03T10:47:16.000Z</time>
      </trkpt>
      <trkpt lat="44.10931" lon="3.13853">
        <ele>384</ele>
        <time>2020-10-03T10:47:17.000Z</time>
      </trkpt>
      <trkpt lat="44.10926" lon="3.13852">
        <ele>383.39999389648</ele>
        <time>2020-10-03T10:47:18.000Z</time>
      </trkpt>
      <trkpt lat="44.10921" lon="3.1385">
        <ele>382.39999389648</ele>
        <time>2020-10-03T10:47:19.000Z</time>
      </trkpt>
      <trkpt lat="44.10917" lon="3.13848">
        <ele>381</ele>
        <time>2020-10-03T10:47:20.000Z</time>
      </trkpt>
      <trkpt lat="44.10913" lon="3.13846">
        <ele>380.20001220703</ele>
        <time>2020-10-03T10:47:21.000Z</time>
      </trkpt>
      <trkpt lat="44.10909" lon="3.13844">
        <ele>379.39999389648</ele>
        <time>2020-10-03T10:47:22.000Z</time>
      </trkpt>
      <trkpt lat="44.10905" lon="3.13843">
        <ele>378.79998779297</ele>
        <time>2020-10-03T10:47:23.000Z</time>
      </trkpt>
      <trkpt lat="44.10902" lon="3.13843">
        <ele>378</ele>
        <time>2020-10-03T10:47:24.000Z</time>
      </trkpt>
      <trkpt lat="44.109" lon="3.13842">
        <ele>377.39999389648</ele>
        <time>2020-10-03T10:47:25.000Z</time>
      </trkpt>
      <trkpt lat="44.10898" lon="3.13842">
        <ele>376.79998779297</ele>
        <time>2020-10-03T10:47:26.000Z</time>
      </trkpt>
      <trkpt lat="44.10897" lon="3.13842">
        <ele>376.20001220703</ele>
        <time>2020-10-03T10:47:27.000Z</time>
      </trkpt>
      <trkpt lat="44.10896" lon="3.13841">
        <ele>375.60000610352</ele>
        <time>2020-10-03T10:47:28.000Z</time>
      </trkpt>
      <trkpt lat="44.10896" lon="3.13842">
        <ele>375</ele>
        <time>2020-10-03T10:47:29.000Z</time>
      </trkpt>
      <trkpt lat="44.10896" lon="3.13841">
        <ele>374.60000610352</ele>
        <time>2020-10-03T10:47:30.000Z</time>
      </trkpt>
      <trkpt lat="44.10897" lon="3.13841">
        <ele>374.20001220703</ele>
        <time>2020-10-03T10:47:31.000Z</time>
      </trkpt>
      <trkpt lat="44.10897" lon="3.13841">
        <ele>373.39999389648</ele>
        <time>2020-10-03T10:47:33.000Z</time>
      </trkpt>
      <trkpt lat="44.10897" lon="3.13841">
        <ele>372.79998779297</ele>
        <time>2020-10-03T10:47:35.000Z</time>
      </trkpt>
      <trkpt lat="44.10896" lon="3.13841">
        <ele>372.20001220703</ele>
        <time>2020-10-03T10:47:37.000Z</time>
      </trkpt>
      <trkpt lat="44.10896" lon="3.13841">
        <ele>372</ele>
        <time>2020-10-03T10:47:39.000Z</time>
      </trkpt>
      <trkpt lat="44.10897" lon="3.13841">
        <ele>372</ele>
        <time>2020-10-03T10:47:41.000Z</time>
      </trkpt>
      <trkpt lat="44.10897" lon="3.13841">
        <ele>372</ele>
        <time>2020-10-03T10:47:43.000Z</time>
      </trkpt>
      <trkpt lat="44.10897" lon="3.13841">
        <ele>372</ele>
        <time>2020-10-03T10:47:45.000Z</time>
      </trkpt>
      <trkpt lat="44.10897" lon="3.13841">
        <ele>372</ele>
        <time>2020-10-03T10:47:47.000Z</time>
      </trkpt>
      <trkpt lat="44.10897" lon="3.13841">
        <ele>372</ele>
        <time>2020-10-03T10:47:49.000Z</time>
      </trkpt>
      <trkpt lat="44.10897" lon="3.13841">
        <ele>372</ele>
        <time>2020-10-03T10:47:51.000Z</time>
      </trkpt>
      <trkpt lat="44.10897" lon="3.13841">
        <ele>372</ele>
        <time>2020-10-03T10:47:53.000Z</time>
      </trkpt>
      <trkpt lat="44.10897" lon="3.13841">
        <ele>372</ele>
        <time>2020-10-03T10:47:55.000Z</time>
      </trkpt>
      <trkpt lat="44.10897" lon="3.13841">
        <ele>372</ele>
        <time>2020-10-03T10:47:57.000Z</time>
      </trkpt>
      <trkpt lat="44.10897" lon="3.13841">
        <ele>372</ele>
        <time>2020-10-03T10:47:59.000Z</time>
      </trkpt>
      <trkpt lat="44.10897" lon="3.13841">
        <ele>372</ele>
        <time>2020-10-03T10:48:01.000Z</time>
      </trkpt>
      <trkpt lat="44.10897" lon="3.13841">
        <ele>372</ele>
        <time>2020-10-03T10:48:03.000Z</time>
      </trkpt>
      <trkpt lat="44.10897" lon="3.13841">
        <ele>371.79998779297</ele>
        <time>2020-10-03T10:48:05.000Z</time>
      </trkpt>
      <trkpt lat="44.10897" lon="3.13841">
        <ele>371.79998779297</ele>
        <time>2020-10-03T10:48:07.000Z</time>
      </trkpt>
      <trkpt lat="44.10897" lon="3.13841">
        <ele>371.79998779297</ele>
        <time>2020-10-03T10:48:09.000Z</time>
      </trkpt>
      <trkpt lat="44.10897" lon="3.13841">
        <ele>371.79998779297</ele>
        <time>2020-10-03T10:48:11.000Z</time>
      </trkpt>
      <trkpt lat="44.10897" lon="3.13841">
        <ele>371.79998779297</ele>
        <time>2020-10-03T10:48:13.000Z</time>
      </trkpt>
      <trkpt lat="44.10897" lon="3.13841">
        <ele>371.79998779297</ele>
        <time>2020-10-03T10:48:15.000Z</time>
      </trkpt>
      <trkpt lat="44.10897" lon="3.13841">
        <ele>372</ele>
        <time>2020-10-03T10:48:17.000Z</time>
      </trkpt>
      <trkpt lat="44.10897" lon="3.13841">
        <ele>372</ele>
        <time>2020-10-03T10:48:19.000Z</time>
      </trkpt>
      <trkpt lat="44.10897" lon="3.13841">
        <ele>372.20001220703</ele>
        <time>2020-10-03T10:48:21.000Z</time>
      </trkpt>
      <trkpt lat="44.10897" lon="3.13841">
        <ele>372.20001220703</ele>
        <time>2020-10-03T10:48:23.000Z</time>
      </trkpt>
      <trkpt lat="44.10897" lon="3.13841">
        <ele>372.39999389648</ele>
        <time>2020-10-03T10:48:25.000Z</time>
      </trkpt>
      <trkpt lat="44.10897" lon="3.1384">
        <ele>372.60000610352</ele>
        <time>2020-10-03T10:48:27.000Z</time>
      </trkpt>
      <trkpt lat="44.10897" lon="3.13841">
        <ele>372.79998779297</ele>
        <time>2020-10-03T10:48:29.000Z</time>
      </trkpt>
      <trkpt lat="44.10897" lon="3.13841">
        <ele>372.79998779297</ele>
        <time>2020-10-03T10:48:31.000Z</time>
      </trkpt>
      <trkpt lat="44.10897" lon="3.13842">
        <ele>372.79998779297</ele>
        <time>2020-10-03T10:48:33.000Z</time>
      </trkpt>
      <trkpt lat="44.10897" lon="3.13842">
        <ele>373</ele>
        <time>2020-10-03T10:48:35.000Z</time>
      </trkpt>
      <trkpt lat="44.10897" lon="3.13842">
        <ele>373</ele>
        <time>2020-10-03T10:48:37.000Z</time>
      </trkpt>
      <trkpt lat="44.10897" lon="3.13842">
        <ele>373</ele>
        <time>2020-10-03T10:48:38.000Z</time>
      </trkpt>
      <trkpt lat="44.10897" lon="3.13842">
        <ele>373</ele>
        <time>2020-10-03T10:48:39.000Z</time>
      </trkpt>
      <trkpt lat="44.10897" lon="3.13842">
        <ele>372.60000610352</ele>
        <time>2020-10-03T10:48:41.000Z</time>
      </trkpt>
    </trkseg>
  </trk>
  <trk>
    <name><![CDATA[MILLAU J2 - Ravin de la Millière du Doul Run 3]]></name>
    <trkseg>
      <trkpt lat="44.14208" lon="3.20215">
        <ele>821.20001220703</ele>
        <time>2020-10-03T14:24:11.000Z</time>
      </trkpt>
      <trkpt lat="44.14208" lon="3.20214">
        <ele>821.20001220703</ele>
        <time>2020-10-03T14:24:12.000Z</time>
      </trkpt>
      <trkpt lat="44.14208" lon="3.20215">
        <ele>821.20001220703</ele>
        <time>2020-10-03T14:24:13.000Z</time>
      </trkpt>
      <trkpt lat="44.14208" lon="3.20215">
        <ele>821.40002441406</ele>
        <time>2020-10-03T14:24:15.000Z</time>
      </trkpt>
      <trkpt lat="44.14207" lon="3.20215">
        <ele>821.40002441406</ele>
        <time>2020-10-03T14:24:17.000Z</time>
      </trkpt>
      <trkpt lat="44.14207" lon="3.20216">
        <ele>821.40002441406</ele>
        <time>2020-10-03T14:24:19.000Z</time>
      </trkpt>
      <trkpt lat="44.14207" lon="3.20215">
        <ele>821.40002441406</ele>
        <time>2020-10-03T14:24:21.000Z</time>
      </trkpt>
      <trkpt lat="44.14206" lon="3.20215">
        <ele>821.40002441406</ele>
        <time>2020-10-03T14:24:23.000Z</time>
      </trkpt>
      <trkpt lat="44.14205" lon="3.20216">
        <ele>821.40002441406</ele>
        <time>2020-10-03T14:24:24.000Z</time>
      </trkpt>
      <trkpt lat="44.14203" lon="3.20215">
        <ele>821.40002441406</ele>
        <time>2020-10-03T14:24:26.000Z</time>
      </trkpt>
      <trkpt lat="44.14201" lon="3.20215">
        <ele>821.59997558594</ele>
        <time>2020-10-03T14:24:28.000Z</time>
      </trkpt>
      <trkpt lat="44.14198" lon="3.20215">
        <ele>821.59997558594</ele>
        <time>2020-10-03T14:24:30.000Z</time>
      </trkpt>
      <trkpt lat="44.14196" lon="3.20215">
        <ele>821.59997558594</ele>
        <time>2020-10-03T14:24:32.000Z</time>
      </trkpt>
      <trkpt lat="44.14194" lon="3.20215">
        <ele>821.59997558594</ele>
        <time>2020-10-03T14:24:33.000Z</time>
      </trkpt>
      <trkpt lat="44.14192" lon="3.20215">
        <ele>821.59997558594</ele>
        <time>2020-10-03T14:24:34.000Z</time>
      </trkpt>
      <trkpt lat="44.14188" lon="3.20214">
        <ele>821.59997558594</ele>
        <time>2020-10-03T14:24:36.000Z</time>
      </trkpt>
      <trkpt lat="44.14187" lon="3.20214">
        <ele>821.59997558594</ele>
        <time>2020-10-03T14:24:37.000Z</time>
      </trkpt>
      <trkpt lat="44.14186" lon="3.20215">
        <ele>821.59997558594</ele>
        <time>2020-10-03T14:24:38.000Z</time>
      </trkpt>
      <trkpt lat="44.14186" lon="3.20218">
        <ele>821.59997558594</ele>
        <time>2020-10-03T14:24:39.000Z</time>
      </trkpt>
      <trkpt lat="44.14187" lon="3.20219">
        <ele>821.40002441406</ele>
        <time>2020-10-03T14:24:40.000Z</time>
      </trkpt>
      <trkpt lat="44.14189" lon="3.20219">
        <ele>821.40002441406</ele>
        <time>2020-10-03T14:24:42.000Z</time>
      </trkpt>
      <trkpt lat="44.1419" lon="3.20219">
        <ele>821.40002441406</ele>
        <time>2020-10-03T14:24:43.000Z</time>
      </trkpt>
      <trkpt lat="44.14191" lon="3.20218">
        <ele>821.40002441406</ele>
        <time>2020-10-03T14:24:44.000Z</time>
      </trkpt>
      <trkpt lat="44.14193" lon="3.20218">
        <ele>821.40002441406</ele>
        <time>2020-10-03T14:24:45.000Z</time>
      </trkpt>
      <trkpt lat="44.14194" lon="3.20218">
        <ele>821.40002441406</ele>
        <time>2020-10-03T14:24:46.000Z</time>
      </trkpt>
      <trkpt lat="44.14198" lon="3.20218">
        <ele>821.40002441406</ele>
        <time>2020-10-03T14:24:48.000Z</time>
      </trkpt>
      <trkpt lat="44.14201" lon="3.20218">
        <ele>821.40002441406</ele>
        <time>2020-10-03T14:24:50.000Z</time>
      </trkpt>
      <trkpt lat="44.14203" lon="3.20217">
        <ele>821.40002441406</ele>
        <time>2020-10-03T14:24:51.000Z</time>
      </trkpt>
      <trkpt lat="44.14205" lon="3.20217">
        <ele>821.40002441406</ele>
        <time>2020-10-03T14:24:52.000Z</time>
      </trkpt>
      <trkpt lat="44.14209" lon="3.20218">
        <ele>821.20001220703</ele>
        <time>2020-10-03T14:24:54.000Z</time>
      </trkpt>
      <trkpt lat="44.1421" lon="3.20218">
        <ele>821.20001220703</ele>
        <time>2020-10-03T14:24:55.000Z</time>
      </trkpt>
      <trkpt lat="44.14212" lon="3.20218">
        <ele>821</ele>
        <time>2020-10-03T14:24:56.000Z</time>
      </trkpt>
      <trkpt lat="44.14213" lon="3.20218">
        <ele>821</ele>
        <time>2020-10-03T14:24:57.000Z</time>
      </trkpt>
      <trkpt lat="44.14215" lon="3.20218">
        <ele>821</ele>
        <time>2020-10-03T14:24:58.000Z</time>
      </trkpt>
      <trkpt lat="44.14217" lon="3.20217">
        <ele>821</ele>
        <time>2020-10-03T14:24:59.000Z</time>
      </trkpt>
      <trkpt lat="44.14217" lon="3.20215">
        <ele>820.79998779297</ele>
        <time>2020-10-03T14:25:00.000Z</time>
      </trkpt>
      <trkpt lat="44.14216" lon="3.20215">
        <ele>820.79998779297</ele>
        <time>2020-10-03T14:25:01.000Z</time>
      </trkpt>
      <trkpt lat="44.14214" lon="3.20216">
        <ele>820.79998779297</ele>
        <time>2020-10-03T14:25:02.000Z</time>
      </trkpt>
      <trkpt lat="44.1421" lon="3.20219">
        <ele>820.79998779297</ele>
        <time>2020-10-03T14:25:04.000Z</time>
      </trkpt>
      <trkpt lat="44.14208" lon="3.2022">
        <ele>820.79998779297</ele>
        <time>2020-10-03T14:25:05.000Z</time>
      </trkpt>
      <trkpt lat="44.14205" lon="3.2022">
        <ele>820.79998779297</ele>
        <time>2020-10-03T14:25:06.000Z</time>
      </trkpt>
      <trkpt lat="44.14202" lon="3.20219">
        <ele>820.79998779297</ele>
        <time>2020-10-03T14:25:08.000Z</time>
      </trkpt>
      <trkpt lat="44.142" lon="3.20219">
        <ele>820.79998779297</ele>
        <time>2020-10-03T14:25:10.000Z</time>
      </trkpt>
      <trkpt lat="44.14199" lon="3.20219">
        <ele>820.79998779297</ele>
        <time>2020-10-03T14:25:11.000Z</time>
      </trkpt>
      <trkpt lat="44.14198" lon="3.20219">
        <ele>820.79998779297</ele>
        <time>2020-10-03T14:25:12.000Z</time>
      </trkpt>
      <trkpt lat="44.14197" lon="3.2022">
        <ele>820.79998779297</ele>
        <time>2020-10-03T14:25:14.000Z</time>
      </trkpt>
      <trkpt lat="44.14196" lon="3.2022">
        <ele>821</ele>
        <time>2020-10-03T14:25:16.000Z</time>
      </trkpt>
      <trkpt lat="44.14195" lon="3.20221">
        <ele>821</ele>
        <time>2020-10-03T14:25:17.000Z</time>
      </trkpt>
      <trkpt lat="44.14194" lon="3.20221">
        <ele>821.20001220703</ele>
        <time>2020-10-03T14:25:18.000Z</time>
      </trkpt>
      <trkpt lat="44.14192" lon="3.20221">
        <ele>821.20001220703</ele>
        <time>2020-10-03T14:25:20.000Z</time>
      </trkpt>
      <trkpt lat="44.1419" lon="3.2022">
        <ele>821.20001220703</ele>
        <time>2020-10-03T14:25:22.000Z</time>
      </trkpt>
      <trkpt lat="44.14189" lon="3.20221">
        <ele>821.20001220703</ele>
        <time>2020-10-03T14:25:24.000Z</time>
      </trkpt>
      <trkpt lat="44.14191" lon="3.20217">
        <ele>821.20001220703</ele>
        <time>2020-10-03T14:25:25.000Z</time>
      </trkpt>
      <trkpt lat="44.14192" lon="3.20215">
        <ele>821.20001220703</ele>
        <time>2020-10-03T14:25:26.000Z</time>
      </trkpt>
      <trkpt lat="44.14191" lon="3.20213">
        <ele>821.20001220703</ele>
        <time>2020-10-03T14:25:28.000Z</time>
      </trkpt>
      <trkpt lat="44.1419" lon="3.2021">
        <ele>821.20001220703</ele>
        <time>2020-10-03T14:25:30.000Z</time>
      </trkpt>
      <trkpt lat="44.14189" lon="3.20207">
        <ele>821.20001220703</ele>
        <time>2020-10-03T14:25:32.000Z</time>
      </trkpt>
      <trkpt lat="44.14189" lon="3.20205">
        <ele>821.59997558594</ele>
        <time>2020-10-03T14:25:34.000Z</time>
      </trkpt>
      <trkpt lat="44.14189" lon="3.20201">
        <ele>821.79998779297</ele>
        <time>2020-10-03T14:25:36.000Z</time>
      </trkpt>
      <trkpt lat="44.1419" lon="3.20198">
        <ele>822</ele>
        <time>2020-10-03T14:25:38.000Z</time>
      </trkpt>
      <trkpt lat="44.14189" lon="3.20194">
        <ele>822.20001220703</ele>
        <time>2020-10-03T14:25:40.000Z</time>
      </trkpt>
      <trkpt lat="44.14189" lon="3.20192">
        <ele>822.40002441406</ele>
        <time>2020-10-03T14:25:41.000Z</time>
      </trkpt>
      <trkpt lat="44.1419" lon="3.2019">
        <ele>822.59997558594</ele>
        <time>2020-10-03T14:25:42.000Z</time>
      </trkpt>
      <trkpt lat="44.14189" lon="3.20187">
        <ele>822.79998779297</ele>
        <time>2020-10-03T14:25:44.000Z</time>
      </trkpt>
      <trkpt lat="44.14189" lon="3.20183">
        <ele>823.20001220703</ele>
        <time>2020-10-03T14:25:46.000Z</time>
      </trkpt>
      <trkpt lat="44.14188" lon="3.2018">
        <ele>823.40002441406</ele>
        <time>2020-10-03T14:25:48.000Z</time>
      </trkpt>
      <trkpt lat="44.14188" lon="3.20177">
        <ele>823.59997558594</ele>
        <time>2020-10-03T14:25:50.000Z</time>
      </trkpt>
      <trkpt lat="44.14189" lon="3.20175">
        <ele>823.59997558594</ele>
        <time>2020-10-03T14:25:51.000Z</time>
      </trkpt>
      <trkpt lat="44.14189" lon="3.20174">
        <ele>823.79998779297</ele>
        <time>2020-10-03T14:25:52.000Z</time>
      </trkpt>
      <trkpt lat="44.1419" lon="3.20171">
        <ele>823.79998779297</ele>
        <time>2020-10-03T14:25:54.000Z</time>
      </trkpt>
      <trkpt lat="44.1419" lon="3.20166">
        <ele>824</ele>
        <time>2020-10-03T14:25:56.000Z</time>
      </trkpt>
      <trkpt lat="44.1419" lon="3.20162">
        <ele>824</ele>
        <time>2020-10-03T14:25:58.000Z</time>
      </trkpt>
      <trkpt lat="44.1419" lon="3.20159">
        <ele>824</ele>
        <time>2020-10-03T14:26:00.000Z</time>
      </trkpt>
      <trkpt lat="44.1419" lon="3.20155">
        <ele>824</ele>
        <time>2020-10-03T14:26:02.000Z</time>
      </trkpt>
      <trkpt lat="44.14192" lon="3.2015">
        <ele>824</ele>
        <time>2020-10-03T14:26:04.000Z</time>
      </trkpt>
      <trkpt lat="44.14196" lon="3.20143">
        <ele>824</ele>
        <time>2020-10-03T14:26:06.000Z</time>
      </trkpt>
      <trkpt lat="44.14198" lon="3.2014">
        <ele>824</ele>
        <time>2020-10-03T14:26:07.000Z</time>
      </trkpt>
      <trkpt lat="44.14199" lon="3.20135">
        <ele>823.79998779297</ele>
        <time>2020-10-03T14:26:08.000Z</time>
      </trkpt>
      <trkpt lat="44.14199" lon="3.2013">
        <ele>823.79998779297</ele>
        <time>2020-10-03T14:26:09.000Z</time>
      </trkpt>
      <trkpt lat="44.14199" lon="3.20125">
        <ele>823.59997558594</ele>
        <time>2020-10-03T14:26:10.000Z</time>
      </trkpt>
      <trkpt lat="44.14199" lon="3.20122">
        <ele>823.40002441406</ele>
        <time>2020-10-03T14:26:11.000Z</time>
      </trkpt>
      <trkpt lat="44.142" lon="3.2012">
        <ele>823.40002441406</ele>
        <time>2020-10-03T14:26:12.000Z</time>
      </trkpt>
      <trkpt lat="44.14203" lon="3.20114">
        <ele>823.20001220703</ele>
        <time>2020-10-03T14:26:14.000Z</time>
      </trkpt>
      <trkpt lat="44.14203" lon="3.20108">
        <ele>823</ele>
        <time>2020-10-03T14:26:15.000Z</time>
      </trkpt>
      <trkpt lat="44.14203" lon="3.20103">
        <ele>822.59997558594</ele>
        <time>2020-10-03T14:26:16.000Z</time>
      </trkpt>
      <trkpt lat="44.14204" lon="3.20091">
        <ele>822</ele>
        <time>2020-10-03T14:26:18.000Z</time>
      </trkpt>
      <trkpt lat="44.14205" lon="3.20078">
        <ele>821</ele>
        <time>2020-10-03T14:26:20.000Z</time>
      </trkpt>
      <trkpt lat="44.14205" lon="3.20071">
        <ele>820.79998779297</ele>
        <time>2020-10-03T14:26:21.000Z</time>
      </trkpt>
      <trkpt lat="44.14206" lon="3.20063">
        <ele>820.59997558594</ele>
        <time>2020-10-03T14:26:22.000Z</time>
      </trkpt>
      <trkpt lat="44.14207" lon="3.20055">
        <ele>820.40002441406</ele>
        <time>2020-10-03T14:26:23.000Z</time>
      </trkpt>
      <trkpt lat="44.14208" lon="3.20048">
        <ele>820.20001220703</ele>
        <time>2020-10-03T14:26:24.000Z</time>
      </trkpt>
      <trkpt lat="44.14209" lon="3.20043">
        <ele>820</ele>
        <time>2020-10-03T14:26:25.000Z</time>
      </trkpt>
      <trkpt lat="44.1421" lon="3.20039">
        <ele>819.40002441406</ele>
        <time>2020-10-03T14:26:26.000Z</time>
      </trkpt>
      <trkpt lat="44.14212" lon="3.2003">
        <ele>818.40002441406</ele>
        <time>2020-10-03T14:26:28.000Z</time>
      </trkpt>
      <trkpt lat="44.14213" lon="3.20024">
        <ele>818.20001220703</ele>
        <time>2020-10-03T14:26:29.000Z</time>
      </trkpt>
      <trkpt lat="44.14214" lon="3.20019">
        <ele>817.79998779297</ele>
        <time>2020-10-03T14:26:30.000Z</time>
      </trkpt>
      <trkpt lat="44.14213" lon="3.2001">
        <ele>817.40002441406</ele>
        <time>2020-10-03T14:26:32.000Z</time>
      </trkpt>
      <trkpt lat="44.14215" lon="3.19997">
        <ele>816.79998779297</ele>
        <time>2020-10-03T14:26:34.000Z</time>
      </trkpt>
      <trkpt lat="44.14216" lon="3.19988">
        <ele>816.59997558594</ele>
        <time>2020-10-03T14:26:35.000Z</time>
      </trkpt>
      <trkpt lat="44.14217" lon="3.19979">
        <ele>816.40002441406</ele>
        <time>2020-10-03T14:26:36.000Z</time>
      </trkpt>
      <trkpt lat="44.14213" lon="3.19961">
        <ele>815.59997558594</ele>
        <time>2020-10-03T14:26:38.000Z</time>
      </trkpt>
      <trkpt lat="44.1421" lon="3.19956">
        <ele>815.40002441406</ele>
        <time>2020-10-03T14:26:39.000Z</time>
      </trkpt>
      <trkpt lat="44.14206" lon="3.19951">
        <ele>814.79998779297</ele>
        <time>2020-10-03T14:26:40.000Z</time>
      </trkpt>
      <trkpt lat="44.14202" lon="3.19948">
        <ele>814.40002441406</ele>
        <time>2020-10-03T14:26:41.000Z</time>
      </trkpt>
      <trkpt lat="44.142" lon="3.19949">
        <ele>813.79998779297</ele>
        <time>2020-10-03T14:26:42.000Z</time>
      </trkpt>
      <trkpt lat="44.14199" lon="3.1995">
        <ele>813.59997558594</ele>
        <time>2020-10-03T14:26:43.000Z</time>
      </trkpt>
      <trkpt lat="44.14199" lon="3.19952">
        <ele>813.40002441406</ele>
        <time>2020-10-03T14:26:44.000Z</time>
      </trkpt>
      <trkpt lat="44.14197" lon="3.19955">
        <ele>812.79998779297</ele>
        <time>2020-10-03T14:26:46.000Z</time>
      </trkpt>
      <trkpt lat="44.14195" lon="3.19958">
        <ele>812</ele>
        <time>2020-10-03T14:26:47.000Z</time>
      </trkpt>
      <trkpt lat="44.14194" lon="3.1996">
        <ele>811.20001220703</ele>
        <time>2020-10-03T14:26:48.000Z</time>
      </trkpt>
      <trkpt lat="44.14191" lon="3.19962">
        <ele>810.40002441406</ele>
        <time>2020-10-03T14:26:49.000Z</time>
      </trkpt>
      <trkpt lat="44.14189" lon="3.19963">
        <ele>809.79998779297</ele>
        <time>2020-10-03T14:26:50.000Z</time>
      </trkpt>
      <trkpt lat="44.14186" lon="3.19962">
        <ele>809.40002441406</ele>
        <time>2020-10-03T14:26:51.000Z</time>
      </trkpt>
      <trkpt lat="44.14183" lon="3.19961">
        <ele>809.20001220703</ele>
        <time>2020-10-03T14:26:52.000Z</time>
      </trkpt>
      <trkpt lat="44.14179" lon="3.19958">
        <ele>808.59997558594</ele>
        <time>2020-10-03T14:26:54.000Z</time>
      </trkpt>
      <trkpt lat="44.14177" lon="3.19958">
        <ele>807.59997558594</ele>
        <time>2020-10-03T14:26:55.000Z</time>
      </trkpt>
      <trkpt lat="44.14173" lon="3.19959">
        <ele>806.79998779297</ele>
        <time>2020-10-03T14:26:56.000Z</time>
      </trkpt>
      <trkpt lat="44.14168" lon="3.1996">
        <ele>806</ele>
        <time>2020-10-03T14:26:57.000Z</time>
      </trkpt>
      <trkpt lat="44.14164" lon="3.19962">
        <ele>805</ele>
        <time>2020-10-03T14:26:58.000Z</time>
      </trkpt>
      <trkpt lat="44.14159" lon="3.19962">
        <ele>804.40002441406</ele>
        <time>2020-10-03T14:26:59.000Z</time>
      </trkpt>
      <trkpt lat="44.14154" lon="3.19962">
        <ele>804</ele>
        <time>2020-10-03T14:27:00.000Z</time>
      </trkpt>
      <trkpt lat="44.1415" lon="3.1996">
        <ele>803.20001220703</ele>
        <time>2020-10-03T14:27:01.000Z</time>
      </trkpt>
      <trkpt lat="44.14146" lon="3.1996">
        <ele>802.40002441406</ele>
        <time>2020-10-03T14:27:02.000Z</time>
      </trkpt>
      <trkpt lat="44.14142" lon="3.19961">
        <ele>801.40002441406</ele>
        <time>2020-10-03T14:27:03.000Z</time>
      </trkpt>
      <trkpt lat="44.14137" lon="3.19962">
        <ele>800.40002441406</ele>
        <time>2020-10-03T14:27:04.000Z</time>
      </trkpt>
      <trkpt lat="44.14132" lon="3.19963">
        <ele>799.40002441406</ele>
        <time>2020-10-03T14:27:05.000Z</time>
      </trkpt>
      <trkpt lat="44.14127" lon="3.19965">
        <ele>798.79998779297</ele>
        <time>2020-10-03T14:27:06.000Z</time>
      </trkpt>
      <trkpt lat="44.14122" lon="3.19967">
        <ele>798</ele>
        <time>2020-10-03T14:27:07.000Z</time>
      </trkpt>
      <trkpt lat="44.14116" lon="3.19969">
        <ele>796.40002441406</ele>
        <time>2020-10-03T14:27:08.000Z</time>
      </trkpt>
      <trkpt lat="44.14111" lon="3.1997">
        <ele>795.20001220703</ele>
        <time>2020-10-03T14:27:09.000Z</time>
      </trkpt>
      <trkpt lat="44.14106" lon="3.1997">
        <ele>793.79998779297</ele>
        <time>2020-10-03T14:27:10.000Z</time>
      </trkpt>
      <trkpt lat="44.14102" lon="3.19972">
        <ele>792.79998779297</ele>
        <time>2020-10-03T14:27:11.000Z</time>
      </trkpt>
      <trkpt lat="44.14098" lon="3.19974">
        <ele>791.40002441406</ele>
        <time>2020-10-03T14:27:12.000Z</time>
      </trkpt>
      <trkpt lat="44.1409" lon="3.19974">
        <ele>789.59997558594</ele>
        <time>2020-10-03T14:27:14.000Z</time>
      </trkpt>
      <trkpt lat="44.14085" lon="3.19974">
        <ele>788.40002441406</ele>
        <time>2020-10-03T14:27:15.000Z</time>
      </trkpt>
      <trkpt lat="44.14082" lon="3.19975">
        <ele>786.79998779297</ele>
        <time>2020-10-03T14:27:16.000Z</time>
      </trkpt>
      <trkpt lat="44.14079" lon="3.19977">
        <ele>785.20001220703</ele>
        <time>2020-10-03T14:27:17.000Z</time>
      </trkpt>
      <trkpt lat="44.14075" lon="3.19979">
        <ele>783.79998779297</ele>
        <time>2020-10-03T14:27:18.000Z</time>
      </trkpt>
      <trkpt lat="44.14071" lon="3.1998">
        <ele>782.59997558594</ele>
        <time>2020-10-03T14:27:19.000Z</time>
      </trkpt>
      <trkpt lat="44.14067" lon="3.1998">
        <ele>781.79998779297</ele>
        <time>2020-10-03T14:27:20.000Z</time>
      </trkpt>
      <trkpt lat="44.14063" lon="3.1998">
        <ele>781</ele>
        <time>2020-10-03T14:27:21.000Z</time>
      </trkpt>
      <trkpt lat="44.14057" lon="3.1998">
        <ele>780.40002441406</ele>
        <time>2020-10-03T14:27:22.000Z</time>
      </trkpt>
      <trkpt lat="44.14052" lon="3.19979">
        <ele>779.79998779297</ele>
        <time>2020-10-03T14:27:23.000Z</time>
      </trkpt>
      <trkpt lat="44.14047" lon="3.19977">
        <ele>779.40002441406</ele>
        <time>2020-10-03T14:27:24.000Z</time>
      </trkpt>
      <trkpt lat="44.14036" lon="3.19974">
        <ele>779</ele>
        <time>2020-10-03T14:27:26.000Z</time>
      </trkpt>
      <trkpt lat="44.1403" lon="3.19974">
        <ele>778.40002441406</ele>
        <time>2020-10-03T14:27:27.000Z</time>
      </trkpt>
      <trkpt lat="44.14024" lon="3.19976">
        <ele>778.20001220703</ele>
        <time>2020-10-03T14:27:28.000Z</time>
      </trkpt>
      <trkpt lat="44.14012" lon="3.19977">
        <ele>777.79998779297</ele>
        <time>2020-10-03T14:27:30.000Z</time>
      </trkpt>
      <trkpt lat="44.14003" lon="3.19978">
        <ele>777.59997558594</ele>
        <time>2020-10-03T14:27:32.000Z</time>
      </trkpt>
      <trkpt lat="44.13993" lon="3.1998">
        <ele>777.20001220703</ele>
        <time>2020-10-03T14:27:34.000Z</time>
      </trkpt>
      <trkpt lat="44.13984" lon="3.19982">
        <ele>776.40002441406</ele>
        <time>2020-10-03T14:27:36.000Z</time>
      </trkpt>
      <trkpt lat="44.13978" lon="3.19982">
        <ele>775.59997558594</ele>
        <time>2020-10-03T14:27:37.000Z</time>
      </trkpt>
      <trkpt lat="44.13973" lon="3.19981">
        <ele>775.20001220703</ele>
        <time>2020-10-03T14:27:38.000Z</time>
      </trkpt>
      <trkpt lat="44.13961" lon="3.19981">
        <ele>774.40002441406</ele>
        <time>2020-10-03T14:27:40.000Z</time>
      </trkpt>
      <trkpt lat="44.13951" lon="3.19979">
        <ele>773.79998779297</ele>
        <time>2020-10-03T14:27:42.000Z</time>
      </trkpt>
      <trkpt lat="44.13946" lon="3.19979">
        <ele>773.40002441406</ele>
        <time>2020-10-03T14:27:43.000Z</time>
      </trkpt>
      <trkpt lat="44.13942" lon="3.19978">
        <ele>773.20001220703</ele>
        <time>2020-10-03T14:27:44.000Z</time>
      </trkpt>
      <trkpt lat="44.13933" lon="3.19976">
        <ele>772.79998779297</ele>
        <time>2020-10-03T14:27:46.000Z</time>
      </trkpt>
      <trkpt lat="44.13923" lon="3.19971">
        <ele>772.20001220703</ele>
        <time>2020-10-03T14:27:48.000Z</time>
      </trkpt>
      <trkpt lat="44.13914" lon="3.19965">
        <ele>771.20001220703</ele>
        <time>2020-10-03T14:27:50.000Z</time>
      </trkpt>
      <trkpt lat="44.13908" lon="3.19962">
        <ele>770.79998779297</ele>
        <time>2020-10-03T14:27:51.000Z</time>
      </trkpt>
      <trkpt lat="44.13903" lon="3.1996">
        <ele>770</ele>
        <time>2020-10-03T14:27:52.000Z</time>
      </trkpt>
      <trkpt lat="44.13898" lon="3.19959">
        <ele>769.79998779297</ele>
        <time>2020-10-03T14:27:53.000Z</time>
      </trkpt>
      <trkpt lat="44.13891" lon="3.19958">
        <ele>769.40002441406</ele>
        <time>2020-10-03T14:27:54.000Z</time>
      </trkpt>
      <trkpt lat="44.13878" lon="3.19956">
        <ele>769.20001220703</ele>
        <time>2020-10-03T14:27:56.000Z</time>
      </trkpt>
      <trkpt lat="44.13865" lon="3.19954">
        <ele>769</ele>
        <time>2020-10-03T14:27:58.000Z</time>
      </trkpt>
      <trkpt lat="44.13852" lon="3.19951">
        <ele>768.79998779297</ele>
        <time>2020-10-03T14:28:00.000Z</time>
      </trkpt>
      <trkpt lat="44.13846" lon="3.1995">
        <ele>768.59997558594</ele>
        <time>2020-10-03T14:28:01.000Z</time>
      </trkpt>
      <trkpt lat="44.1384" lon="3.19948">
        <ele>768.40002441406</ele>
        <time>2020-10-03T14:28:02.000Z</time>
      </trkpt>
      <trkpt lat="44.13829" lon="3.19944">
        <ele>768.20001220703</ele>
        <time>2020-10-03T14:28:04.000Z</time>
      </trkpt>
      <trkpt lat="44.1382" lon="3.19943">
        <ele>768</ele>
        <time>2020-10-03T14:28:06.000Z</time>
      </trkpt>
      <trkpt lat="44.13818" lon="3.19942">
        <ele>767.79998779297</ele>
        <time>2020-10-03T14:28:07.000Z</time>
      </trkpt>
      <trkpt lat="44.13815" lon="3.19943">
        <ele>767.59997558594</ele>
        <time>2020-10-03T14:28:08.000Z</time>
      </trkpt>
      <trkpt lat="44.13812" lon="3.19943">
        <ele>767.40002441406</ele>
        <time>2020-10-03T14:28:09.000Z</time>
      </trkpt>
      <trkpt lat="44.1381" lon="3.19943">
        <ele>767.20001220703</ele>
        <time>2020-10-03T14:28:10.000Z</time>
      </trkpt>
      <trkpt lat="44.13807" lon="3.19943">
        <ele>767</ele>
        <time>2020-10-03T14:28:12.000Z</time>
      </trkpt>
      <trkpt lat="44.13804" lon="3.19942">
        <ele>767</ele>
        <time>2020-10-03T14:28:14.000Z</time>
      </trkpt>
      <trkpt lat="44.13801" lon="3.19942">
        <ele>767.20001220703</ele>
        <time>2020-10-03T14:28:15.000Z</time>
      </trkpt>
      <trkpt lat="44.13798" lon="3.19942">
        <ele>767.20001220703</ele>
        <time>2020-10-03T14:28:16.000Z</time>
      </trkpt>
      <trkpt lat="44.13793" lon="3.19945">
        <ele>767.59997558594</ele>
        <time>2020-10-03T14:28:18.000Z</time>
      </trkpt>
      <trkpt lat="44.13788" lon="3.19946">
        <ele>767.79998779297</ele>
        <time>2020-10-03T14:28:20.000Z</time>
      </trkpt>
      <trkpt lat="44.13785" lon="3.19946">
        <ele>768.79998779297</ele>
        <time>2020-10-03T14:28:22.000Z</time>
      </trkpt>
      <trkpt lat="44.13784" lon="3.19946">
        <ele>769.20001220703</ele>
        <time>2020-10-03T14:28:23.000Z</time>
      </trkpt>
      <trkpt lat="44.13782" lon="3.19946">
        <ele>769.79998779297</ele>
        <time>2020-10-03T14:28:24.000Z</time>
      </trkpt>
      <trkpt lat="44.13779" lon="3.19948">
        <ele>770.20001220703</ele>
        <time>2020-10-03T14:28:26.000Z</time>
      </trkpt>
      <trkpt lat="44.13775" lon="3.19948">
        <ele>770.59997558594</ele>
        <time>2020-10-03T14:28:28.000Z</time>
      </trkpt>
      <trkpt lat="44.13769" lon="3.19946">
        <ele>770.79998779297</ele>
        <time>2020-10-03T14:28:30.000Z</time>
      </trkpt>
      <trkpt lat="44.13766" lon="3.19946">
        <ele>770.79998779297</ele>
        <time>2020-10-03T14:28:31.000Z</time>
      </trkpt>
      <trkpt lat="44.13763" lon="3.19946">
        <ele>770.79998779297</ele>
        <time>2020-10-03T14:28:32.000Z</time>
      </trkpt>
      <trkpt lat="44.13758" lon="3.19948">
        <ele>770.79998779297</ele>
        <time>2020-10-03T14:28:34.000Z</time>
      </trkpt>
      <trkpt lat="44.13756" lon="3.19949">
        <ele>770.79998779297</ele>
        <time>2020-10-03T14:28:35.000Z</time>
      </trkpt>
      <trkpt lat="44.13755" lon="3.19948">
        <ele>770.79998779297</ele>
        <time>2020-10-03T14:28:36.000Z</time>
      </trkpt>
      <trkpt lat="44.13753" lon="3.19946">
        <ele>770.79998779297</ele>
        <time>2020-10-03T14:28:38.000Z</time>
      </trkpt>
      <trkpt lat="44.13752" lon="3.19947">
        <ele>770.79998779297</ele>
        <time>2020-10-03T14:28:40.000Z</time>
      </trkpt>
      <trkpt lat="44.13751" lon="3.19949">
        <ele>770.79998779297</ele>
        <time>2020-10-03T14:28:42.000Z</time>
      </trkpt>
      <trkpt lat="44.13751" lon="3.19948">
        <ele>770.40002441406</ele>
        <time>2020-10-03T14:28:43.000Z</time>
      </trkpt>
      <trkpt lat="44.13751" lon="3.19948">
        <ele>770.40002441406</ele>
        <time>2020-10-03T14:28:44.000Z</time>
      </trkpt>
      <trkpt lat="44.1375" lon="3.19948">
        <ele>770.20001220703</ele>
        <time>2020-10-03T14:28:46.000Z</time>
      </trkpt>
      <trkpt lat="44.1375" lon="3.19947">
        <ele>770.20001220703</ele>
        <time>2020-10-03T14:28:48.000Z</time>
      </trkpt>
      <trkpt lat="44.1375" lon="3.19947">
        <ele>770</ele>
        <time>2020-10-03T14:28:50.000Z</time>
      </trkpt>
      <trkpt lat="44.1375" lon="3.19947">
        <ele>769.79998779297</ele>
        <time>2020-10-03T14:28:52.000Z</time>
      </trkpt>
      <trkpt lat="44.1375" lon="3.19947">
        <ele>769.79998779297</ele>
        <time>2020-10-03T14:28:53.000Z</time>
      </trkpt>
      <trkpt lat="44.1375" lon="3.19947">
        <ele>769.59997558594</ele>
        <time>2020-10-03T14:28:54.000Z</time>
      </trkpt>
      <trkpt lat="44.1375" lon="3.19947">
        <ele>769.59997558594</ele>
        <time>2020-10-03T14:28:56.000Z</time>
      </trkpt>
      <trkpt lat="44.1375" lon="3.19946">
        <ele>769.40002441406</ele>
        <time>2020-10-03T14:28:58.000Z</time>
      </trkpt>
      <trkpt lat="44.13749" lon="3.19946">
        <ele>769.20001220703</ele>
        <time>2020-10-03T14:29:00.000Z</time>
      </trkpt>
      <trkpt lat="44.13749" lon="3.19946">
        <ele>769</ele>
        <time>2020-10-03T14:29:02.000Z</time>
      </trkpt>
      <trkpt lat="44.13749" lon="3.19947">
        <ele>769</ele>
        <time>2020-10-03T14:29:04.000Z</time>
      </trkpt>
      <trkpt lat="44.13749" lon="3.19947">
        <ele>769</ele>
        <time>2020-10-03T14:29:05.000Z</time>
      </trkpt>
      <trkpt lat="44.13749" lon="3.19947">
        <ele>769</ele>
        <time>2020-10-03T14:29:06.000Z</time>
      </trkpt>
      <trkpt lat="44.13749" lon="3.19947">
        <ele>768.79998779297</ele>
        <time>2020-10-03T14:29:08.000Z</time>
      </trkpt>
      <trkpt lat="44.13749" lon="3.19947">
        <ele>768.79998779297</ele>
        <time>2020-10-03T14:29:09.000Z</time>
      </trkpt>
      <trkpt lat="44.13749" lon="3.19947">
        <ele>768.79998779297</ele>
        <time>2020-10-03T14:29:10.000Z</time>
      </trkpt>
      <trkpt lat="44.13749" lon="3.19947">
        <ele>768.59997558594</ele>
        <time>2020-10-03T14:29:12.000Z</time>
      </trkpt>
      <trkpt lat="44.13748" lon="3.19948">
        <ele>768.59997558594</ele>
        <time>2020-10-03T14:29:14.000Z</time>
      </trkpt>
      <trkpt lat="44.13749" lon="3.19947">
        <ele>768.59997558594</ele>
        <time>2020-10-03T14:29:16.000Z</time>
      </trkpt>
      <trkpt lat="44.13748" lon="3.19946">
        <ele>768.79998779297</ele>
        <time>2020-10-03T14:29:18.000Z</time>
      </trkpt>
      <trkpt lat="44.13748" lon="3.19946">
        <ele>768.79998779297</ele>
        <time>2020-10-03T14:29:20.000Z</time>
      </trkpt>
      <trkpt lat="44.13748" lon="3.19945">
        <ele>768.79998779297</ele>
        <time>2020-10-03T14:29:21.000Z</time>
      </trkpt>
      <trkpt lat="44.13748" lon="3.19945">
        <ele>768.79998779297</ele>
        <time>2020-10-03T14:29:22.000Z</time>
      </trkpt>
      <trkpt lat="44.13748" lon="3.19945">
        <ele>768.79998779297</ele>
        <time>2020-10-03T14:29:24.000Z</time>
      </trkpt>
      <trkpt lat="44.13747" lon="3.19946">
        <ele>768.79998779297</ele>
        <time>2020-10-03T14:29:26.000Z</time>
      </trkpt>
      <trkpt lat="44.13747" lon="3.19947">
        <ele>768.79998779297</ele>
        <time>2020-10-03T14:29:28.000Z</time>
      </trkpt>
      <trkpt lat="44.13746" lon="3.19947">
        <ele>768.79998779297</ele>
        <time>2020-10-03T14:29:30.000Z</time>
      </trkpt>
      <trkpt lat="44.13746" lon="3.19947">
        <ele>768.79998779297</ele>
        <time>2020-10-03T14:29:31.000Z</time>
      </trkpt>
      <trkpt lat="44.13746" lon="3.19946">
        <ele>768.79998779297</ele>
        <time>2020-10-03T14:29:32.000Z</time>
      </trkpt>
      <trkpt lat="44.13746" lon="3.19946">
        <ele>768.79998779297</ele>
        <time>2020-10-03T14:29:34.000Z</time>
      </trkpt>
      <trkpt lat="44.13746" lon="3.19946">
        <ele>768.79998779297</ele>
        <time>2020-10-03T14:29:36.000Z</time>
      </trkpt>
      <trkpt lat="44.13746" lon="3.19947">
        <ele>768.79998779297</ele>
        <time>2020-10-03T14:29:38.000Z</time>
      </trkpt>
      <trkpt lat="44.13746" lon="3.19947">
        <ele>768.79998779297</ele>
        <time>2020-10-03T14:29:40.000Z</time>
      </trkpt>
      <trkpt lat="44.13746" lon="3.19948">
        <ele>769</ele>
        <time>2020-10-03T14:29:42.000Z</time>
      </trkpt>
      <trkpt lat="44.13745" lon="3.19948">
        <ele>769</ele>
        <time>2020-10-03T14:29:43.000Z</time>
      </trkpt>
      <trkpt lat="44.13745" lon="3.19948">
        <ele>769.20001220703</ele>
        <time>2020-10-03T14:29:44.000Z</time>
      </trkpt>
      <trkpt lat="44.13745" lon="3.19948">
        <ele>769.40002441406</ele>
        <time>2020-10-03T14:29:46.000Z</time>
      </trkpt>
      <trkpt lat="44.13745" lon="3.19949">
        <ele>769.59997558594</ele>
        <time>2020-10-03T14:29:48.000Z</time>
      </trkpt>
      <trkpt lat="44.13744" lon="3.1995">
        <ele>769.79998779297</ele>
        <time>2020-10-03T14:29:50.000Z</time>
      </trkpt>
      <trkpt lat="44.13744" lon="3.1995">
        <ele>769.79998779297</ele>
        <time>2020-10-03T14:29:52.000Z</time>
      </trkpt>
      <trkpt lat="44.13744" lon="3.1995">
        <ele>769.79998779297</ele>
        <time>2020-10-03T14:29:54.000Z</time>
      </trkpt>
      <trkpt lat="44.13744" lon="3.19951">
        <ele>769.79998779297</ele>
        <time>2020-10-03T14:29:56.000Z</time>
      </trkpt>
      <trkpt lat="44.13744" lon="3.19952">
        <ele>769.79998779297</ele>
        <time>2020-10-03T14:29:58.000Z</time>
      </trkpt>
      <trkpt lat="44.13744" lon="3.19952">
        <ele>769.59997558594</ele>
        <time>2020-10-03T14:30:00.000Z</time>
      </trkpt>
      <trkpt lat="44.13744" lon="3.19952">
        <ele>769.59997558594</ele>
        <time>2020-10-03T14:30:02.000Z</time>
      </trkpt>
      <trkpt lat="44.13743" lon="3.19953">
        <ele>769.59997558594</ele>
        <time>2020-10-03T14:30:04.000Z</time>
      </trkpt>
      <trkpt lat="44.13743" lon="3.19953">
        <ele>769.59997558594</ele>
        <time>2020-10-03T14:30:06.000Z</time>
      </trkpt>
      <trkpt lat="44.13743" lon="3.19953">
        <ele>769.40002441406</ele>
        <time>2020-10-03T14:30:08.000Z</time>
      </trkpt>
      <trkpt lat="44.13742" lon="3.19953">
        <ele>769.20001220703</ele>
        <time>2020-10-03T14:30:10.000Z</time>
      </trkpt>
      <trkpt lat="44.13737" lon="3.19954">
        <ele>769</ele>
        <time>2020-10-03T14:30:12.000Z</time>
      </trkpt>
      <trkpt lat="44.13735" lon="3.19955">
        <ele>769</ele>
        <time>2020-10-03T14:30:13.000Z</time>
      </trkpt>
      <trkpt lat="44.13732" lon="3.19958">
        <ele>768.79998779297</ele>
        <time>2020-10-03T14:30:14.000Z</time>
      </trkpt>
      <trkpt lat="44.13725" lon="3.19962">
        <ele>768.59997558594</ele>
        <time>2020-10-03T14:30:16.000Z</time>
      </trkpt>
      <trkpt lat="44.13722" lon="3.19964">
        <ele>768.40002441406</ele>
        <time>2020-10-03T14:30:17.000Z</time>
      </trkpt>
      <trkpt lat="44.13719" lon="3.19965">
        <ele>768.20001220703</ele>
        <time>2020-10-03T14:30:18.000Z</time>
      </trkpt>
      <trkpt lat="44.13713" lon="3.19968">
        <ele>767.40002441406</ele>
        <time>2020-10-03T14:30:20.000Z</time>
      </trkpt>
      <trkpt lat="44.13706" lon="3.19972">
        <ele>765.40002441406</ele>
        <time>2020-10-03T14:30:22.000Z</time>
      </trkpt>
      <trkpt lat="44.13703" lon="3.19974">
        <ele>764.40002441406</ele>
        <time>2020-10-03T14:30:23.000Z</time>
      </trkpt>
      <trkpt lat="44.13701" lon="3.19975">
        <ele>763.59997558594</ele>
        <time>2020-10-03T14:30:24.000Z</time>
      </trkpt>
      <trkpt lat="44.13698" lon="3.19977">
        <ele>763.20001220703</ele>
        <time>2020-10-03T14:30:25.000Z</time>
      </trkpt>
      <trkpt lat="44.13696" lon="3.19979">
        <ele>762.59997558594</ele>
        <time>2020-10-03T14:30:26.000Z</time>
      </trkpt>
      <trkpt lat="44.13693" lon="3.1998">
        <ele>762</ele>
        <time>2020-10-03T14:30:27.000Z</time>
      </trkpt>
      <trkpt lat="44.13691" lon="3.19982">
        <ele>761.59997558594</ele>
        <time>2020-10-03T14:30:28.000Z</time>
      </trkpt>
      <trkpt lat="44.13686" lon="3.19986">
        <ele>760.59997558594</ele>
        <time>2020-10-03T14:30:30.000Z</time>
      </trkpt>
      <trkpt lat="44.13684" lon="3.19988">
        <ele>760.20001220703</ele>
        <time>2020-10-03T14:30:31.000Z</time>
      </trkpt>
      <trkpt lat="44.13682" lon="3.19988">
        <ele>759.59997558594</ele>
        <time>2020-10-03T14:30:32.000Z</time>
      </trkpt>
      <trkpt lat="44.1368" lon="3.19988">
        <ele>759</ele>
        <time>2020-10-03T14:30:33.000Z</time>
      </trkpt>
      <trkpt lat="44.13677" lon="3.19987">
        <ele>758.20001220703</ele>
        <time>2020-10-03T14:30:34.000Z</time>
      </trkpt>
      <trkpt lat="44.13673" lon="3.19986">
        <ele>757.40002441406</ele>
        <time>2020-10-03T14:30:35.000Z</time>
      </trkpt>
      <trkpt lat="44.13669" lon="3.19984">
        <ele>756.40002441406</ele>
        <time>2020-10-03T14:30:36.000Z</time>
      </trkpt>
      <trkpt lat="44.13665" lon="3.19984">
        <ele>755.20001220703</ele>
        <time>2020-10-03T14:30:37.000Z</time>
      </trkpt>
      <trkpt lat="44.13661" lon="3.19985">
        <ele>754</ele>
        <time>2020-10-03T14:30:38.000Z</time>
      </trkpt>
      <trkpt lat="44.13658" lon="3.19985">
        <ele>753</ele>
        <time>2020-10-03T14:30:39.000Z</time>
      </trkpt>
      <trkpt lat="44.13655" lon="3.19986">
        <ele>751.79998779297</ele>
        <time>2020-10-03T14:30:40.000Z</time>
      </trkpt>
      <trkpt lat="44.13651" lon="3.19988">
        <ele>750.59997558594</ele>
        <time>2020-10-03T14:30:42.000Z</time>
      </trkpt>
      <trkpt lat="44.13646" lon="3.19987">
        <ele>750</ele>
        <time>2020-10-03T14:30:44.000Z</time>
      </trkpt>
      <trkpt lat="44.13639" lon="3.19984">
        <ele>749.40002441406</ele>
        <time>2020-10-03T14:30:46.000Z</time>
      </trkpt>
      <trkpt lat="44.13634" lon="3.19981">
        <ele>749.20001220703</ele>
        <time>2020-10-03T14:30:47.000Z</time>
      </trkpt>
      <trkpt lat="44.13629" lon="3.1998">
        <ele>749</ele>
        <time>2020-10-03T14:30:48.000Z</time>
      </trkpt>
      <trkpt lat="44.13622" lon="3.19979">
        <ele>748.40002441406</ele>
        <time>2020-10-03T14:30:50.000Z</time>
      </trkpt>
      <trkpt lat="44.13618" lon="3.19979">
        <ele>748.20001220703</ele>
        <time>2020-10-03T14:30:51.000Z</time>
      </trkpt>
      <trkpt lat="44.13614" lon="3.19977">
        <ele>748</ele>
        <time>2020-10-03T14:30:52.000Z</time>
      </trkpt>
      <trkpt lat="44.13608" lon="3.19972">
        <ele>747.40002441406</ele>
        <time>2020-10-03T14:30:54.000Z</time>
      </trkpt>
      <trkpt lat="44.13605" lon="3.19971">
        <ele>747.20001220703</ele>
        <time>2020-10-03T14:30:55.000Z</time>
      </trkpt>
      <trkpt lat="44.13602" lon="3.19969">
        <ele>747</ele>
        <time>2020-10-03T14:30:56.000Z</time>
      </trkpt>
      <trkpt lat="44.13596" lon="3.19965">
        <ele>746.79998779297</ele>
        <time>2020-10-03T14:30:58.000Z</time>
      </trkpt>
      <trkpt lat="44.1359" lon="3.1996">
        <ele>746.40002441406</ele>
        <time>2020-10-03T14:31:00.000Z</time>
      </trkpt>
      <trkpt lat="44.13584" lon="3.19958">
        <ele>745.40002441406</ele>
        <time>2020-10-03T14:31:01.000Z</time>
      </trkpt>
      <trkpt lat="44.13579" lon="3.19958">
        <ele>744.79998779297</ele>
        <time>2020-10-03T14:31:02.000Z</time>
      </trkpt>
      <trkpt lat="44.1357" lon="3.19958">
        <ele>744</ele>
        <time>2020-10-03T14:31:04.000Z</time>
      </trkpt>
      <trkpt lat="44.13562" lon="3.19959">
        <ele>742.79998779297</ele>
        <time>2020-10-03T14:31:06.000Z</time>
      </trkpt>
      <trkpt lat="44.13555" lon="3.19957">
        <ele>741.59997558594</ele>
        <time>2020-10-03T14:31:08.000Z</time>
      </trkpt>
      <trkpt lat="44.13552" lon="3.19956">
        <ele>741.20001220703</ele>
        <time>2020-10-03T14:31:09.000Z</time>
      </trkpt>
      <trkpt lat="44.13548" lon="3.19956">
        <ele>741.20001220703</ele>
        <time>2020-10-03T14:31:10.000Z</time>
      </trkpt>
      <trkpt lat="44.1354" lon="3.19954">
        <ele>741</ele>
        <time>2020-10-03T14:31:12.000Z</time>
      </trkpt>
      <trkpt lat="44.13532" lon="3.19951">
        <ele>740.59997558594</ele>
        <time>2020-10-03T14:31:14.000Z</time>
      </trkpt>
      <trkpt lat="44.13529" lon="3.1995">
        <ele>740.40002441406</ele>
        <time>2020-10-03T14:31:15.000Z</time>
      </trkpt>
      <trkpt lat="44.13525" lon="3.1995">
        <ele>740</ele>
        <time>2020-10-03T14:31:16.000Z</time>
      </trkpt>
      <trkpt lat="44.13518" lon="3.19948">
        <ele>738.40002441406</ele>
        <time>2020-10-03T14:31:18.000Z</time>
      </trkpt>
      <trkpt lat="44.1351" lon="3.19945">
        <ele>737.59997558594</ele>
        <time>2020-10-03T14:31:20.000Z</time>
      </trkpt>
      <trkpt lat="44.13502" lon="3.19942">
        <ele>737.40002441406</ele>
        <time>2020-10-03T14:31:22.000Z</time>
      </trkpt>
      <trkpt lat="44.13494" lon="3.19939">
        <ele>737.20001220703</ele>
        <time>2020-10-03T14:31:24.000Z</time>
      </trkpt>
      <trkpt lat="44.13487" lon="3.19935">
        <ele>736.79998779297</ele>
        <time>2020-10-03T14:31:26.000Z</time>
      </trkpt>
      <trkpt lat="44.13478" lon="3.19929">
        <ele>736.20001220703</ele>
        <time>2020-10-03T14:31:28.000Z</time>
      </trkpt>
      <trkpt lat="44.13474" lon="3.19925">
        <ele>736</ele>
        <time>2020-10-03T14:31:29.000Z</time>
      </trkpt>
      <trkpt lat="44.13471" lon="3.1992">
        <ele>735.79998779297</ele>
        <time>2020-10-03T14:31:30.000Z</time>
      </trkpt>
      <trkpt lat="44.13469" lon="3.19916">
        <ele>735.79998779297</ele>
        <time>2020-10-03T14:31:31.000Z</time>
      </trkpt>
      <trkpt lat="44.13468" lon="3.19913">
        <ele>735.79998779297</ele>
        <time>2020-10-03T14:31:32.000Z</time>
      </trkpt>
      <trkpt lat="44.13466" lon="3.19908">
        <ele>735.59997558594</ele>
        <time>2020-10-03T14:31:34.000Z</time>
      </trkpt>
      <trkpt lat="44.13461" lon="3.19902">
        <ele>735.59997558594</ele>
        <time>2020-10-03T14:31:36.000Z</time>
      </trkpt>
      <trkpt lat="44.13458" lon="3.19901">
        <ele>735.59997558594</ele>
        <time>2020-10-03T14:31:38.000Z</time>
      </trkpt>
      <trkpt lat="44.13455" lon="3.19899">
        <ele>735.79998779297</ele>
        <time>2020-10-03T14:31:40.000Z</time>
      </trkpt>
      <trkpt lat="44.13454" lon="3.19898">
        <ele>736.20001220703</ele>
        <time>2020-10-03T14:31:41.000Z</time>
      </trkpt>
      <trkpt lat="44.13453" lon="3.19897">
        <ele>736.40002441406</ele>
        <time>2020-10-03T14:31:42.000Z</time>
      </trkpt>
      <trkpt lat="44.13451" lon="3.19895">
        <ele>737</ele>
        <time>2020-10-03T14:31:44.000Z</time>
      </trkpt>
      <trkpt lat="44.13449" lon="3.19894">
        <ele>737.20001220703</ele>
        <time>2020-10-03T14:31:45.000Z</time>
      </trkpt>
      <trkpt lat="44.13448" lon="3.19893">
        <ele>737.59997558594</ele>
        <time>2020-10-03T14:31:46.000Z</time>
      </trkpt>
      <trkpt lat="44.13446" lon="3.19891">
        <ele>738.40002441406</ele>
        <time>2020-10-03T14:31:48.000Z</time>
      </trkpt>
      <trkpt lat="44.13444" lon="3.19891">
        <ele>739</ele>
        <time>2020-10-03T14:31:50.000Z</time>
      </trkpt>
      <trkpt lat="44.13443" lon="3.1989">
        <ele>739.20001220703</ele>
        <time>2020-10-03T14:31:51.000Z</time>
      </trkpt>
      <trkpt lat="44.13442" lon="3.1989">
        <ele>739.40002441406</ele>
        <time>2020-10-03T14:31:52.000Z</time>
      </trkpt>
      <trkpt lat="44.1344" lon="3.1989">
        <ele>739.59997558594</ele>
        <time>2020-10-03T14:31:54.000Z</time>
      </trkpt>
      <trkpt lat="44.13436" lon="3.19888">
        <ele>739.79998779297</ele>
        <time>2020-10-03T14:31:56.000Z</time>
      </trkpt>
      <trkpt lat="44.13432" lon="3.19887">
        <ele>740.20001220703</ele>
        <time>2020-10-03T14:31:58.000Z</time>
      </trkpt>
      <trkpt lat="44.1343" lon="3.19887">
        <ele>740.59997558594</ele>
        <time>2020-10-03T14:31:59.000Z</time>
      </trkpt>
      <trkpt lat="44.13428" lon="3.19886">
        <ele>741</ele>
        <time>2020-10-03T14:32:00.000Z</time>
      </trkpt>
      <trkpt lat="44.13426" lon="3.19885">
        <ele>741.20001220703</ele>
        <time>2020-10-03T14:32:01.000Z</time>
      </trkpt>
      <trkpt lat="44.13424" lon="3.19884">
        <ele>741.40002441406</ele>
        <time>2020-10-03T14:32:02.000Z</time>
      </trkpt>
      <trkpt lat="44.1342" lon="3.19882">
        <ele>741.59997558594</ele>
        <time>2020-10-03T14:32:04.000Z</time>
      </trkpt>
      <trkpt lat="44.13419" lon="3.19881">
        <ele>741.79998779297</ele>
        <time>2020-10-03T14:32:05.000Z</time>
      </trkpt>
      <trkpt lat="44.13417" lon="3.19881">
        <ele>742.40002441406</ele>
        <time>2020-10-03T14:32:06.000Z</time>
      </trkpt>
      <trkpt lat="44.13416" lon="3.19881">
        <ele>743</ele>
        <time>2020-10-03T14:32:07.000Z</time>
      </trkpt>
      <trkpt lat="44.13414" lon="3.19881">
        <ele>743.59997558594</ele>
        <time>2020-10-03T14:32:08.000Z</time>
      </trkpt>
      <trkpt lat="44.13412" lon="3.1988">
        <ele>744</ele>
        <time>2020-10-03T14:32:10.000Z</time>
      </trkpt>
      <trkpt lat="44.13411" lon="3.1988">
        <ele>744.20001220703</ele>
        <time>2020-10-03T14:32:11.000Z</time>
      </trkpt>
      <trkpt lat="44.1341" lon="3.19879">
        <ele>745.20001220703</ele>
        <time>2020-10-03T14:32:12.000Z</time>
      </trkpt>
      <trkpt lat="44.13408" lon="3.19878">
        <ele>745.59997558594</ele>
        <time>2020-10-03T14:32:13.000Z</time>
      </trkpt>
      <trkpt lat="44.13407" lon="3.19878">
        <ele>745.79998779297</ele>
        <time>2020-10-03T14:32:14.000Z</time>
      </trkpt>
      <trkpt lat="44.13404" lon="3.19876">
        <ele>746</ele>
        <time>2020-10-03T14:32:16.000Z</time>
      </trkpt>
      <trkpt lat="44.13402" lon="3.19873">
        <ele>746.20001220703</ele>
        <time>2020-10-03T14:32:18.000Z</time>
      </trkpt>
      <trkpt lat="44.13402" lon="3.19871">
        <ele>746.40002441406</ele>
        <time>2020-10-03T14:32:20.000Z</time>
      </trkpt>
      <trkpt lat="44.13402" lon="3.19868">
        <ele>746.59997558594</ele>
        <time>2020-10-03T14:32:22.000Z</time>
      </trkpt>
      <trkpt lat="44.13402" lon="3.19868">
        <ele>746.59997558594</ele>
        <time>2020-10-03T14:32:24.000Z</time>
      </trkpt>
      <trkpt lat="44.13402" lon="3.19867">
        <ele>747</ele>
        <time>2020-10-03T14:32:26.000Z</time>
      </trkpt>
      <trkpt lat="44.13402" lon="3.19866">
        <ele>747.40002441406</ele>
        <time>2020-10-03T14:32:27.000Z</time>
      </trkpt>
      <trkpt lat="44.13401" lon="3.19866">
        <ele>747.59997558594</ele>
        <time>2020-10-03T14:32:28.000Z</time>
      </trkpt>
      <trkpt lat="44.13401" lon="3.19865">
        <ele>748</ele>
        <time>2020-10-03T14:32:30.000Z</time>
      </trkpt>
      <trkpt lat="44.134" lon="3.19865">
        <ele>748</ele>
        <time>2020-10-03T14:32:32.000Z</time>
      </trkpt>
      <trkpt lat="44.13399" lon="3.19864">
        <ele>748</ele>
        <time>2020-10-03T14:32:34.000Z</time>
      </trkpt>
      <trkpt lat="44.13399" lon="3.19865">
        <ele>748</ele>
        <time>2020-10-03T14:32:35.000Z</time>
      </trkpt>
      <trkpt lat="44.13398" lon="3.19865">
        <ele>748</ele>
        <time>2020-10-03T14:32:36.000Z</time>
      </trkpt>
      <trkpt lat="44.13398" lon="3.19866">
        <ele>748.20001220703</ele>
        <time>2020-10-03T14:32:38.000Z</time>
      </trkpt>
      <trkpt lat="44.13398" lon="3.19867">
        <ele>748.20001220703</ele>
        <time>2020-10-03T14:32:40.000Z</time>
      </trkpt>
      <trkpt lat="44.13398" lon="3.19866">
        <ele>748.40002441406</ele>
        <time>2020-10-03T14:32:42.000Z</time>
      </trkpt>
      <trkpt lat="44.13397" lon="3.19866">
        <ele>748.40002441406</ele>
        <time>2020-10-03T14:32:43.000Z</time>
      </trkpt>
      <trkpt lat="44.13397" lon="3.19866">
        <ele>748.40002441406</ele>
        <time>2020-10-03T14:32:44.000Z</time>
      </trkpt>
      <trkpt lat="44.13396" lon="3.19865">
        <ele>748.40002441406</ele>
        <time>2020-10-03T14:32:46.000Z</time>
      </trkpt>
      <trkpt lat="44.13393" lon="3.19864">
        <ele>748.40002441406</ele>
        <time>2020-10-03T14:32:48.000Z</time>
      </trkpt>
      <trkpt lat="44.13392" lon="3.19864">
        <ele>748.59997558594</ele>
        <time>2020-10-03T14:32:49.000Z</time>
      </trkpt>
      <trkpt lat="44.13391" lon="3.19863">
        <ele>748.59997558594</ele>
        <time>2020-10-03T14:32:50.000Z</time>
      </trkpt>
      <trkpt lat="44.13391" lon="3.19862">
        <ele>748.59997558594</ele>
        <time>2020-10-03T14:32:52.000Z</time>
      </trkpt>
      <trkpt lat="44.13392" lon="3.1986">
        <ele>748.79998779297</ele>
        <time>2020-10-03T14:32:54.000Z</time>
      </trkpt>
      <trkpt lat="44.13394" lon="3.19859">
        <ele>748.79998779297</ele>
        <time>2020-10-03T14:32:56.000Z</time>
      </trkpt>
      <trkpt lat="44.13395" lon="3.19859">
        <ele>748.79998779297</ele>
        <time>2020-10-03T14:32:57.000Z</time>
      </trkpt>
      <trkpt lat="44.13396" lon="3.19859">
        <ele>748.79998779297</ele>
        <time>2020-10-03T14:32:58.000Z</time>
      </trkpt>
      <trkpt lat="44.13398" lon="3.19857">
        <ele>748.79998779297</ele>
        <time>2020-10-03T14:33:00.000Z</time>
      </trkpt>
      <trkpt lat="44.13399" lon="3.19856">
        <ele>748.79998779297</ele>
        <time>2020-10-03T14:33:01.000Z</time>
      </trkpt>
      <trkpt lat="44.13399" lon="3.19856">
        <ele>748.79998779297</ele>
        <time>2020-10-03T14:33:02.000Z</time>
      </trkpt>
      <trkpt lat="44.134" lon="3.19853">
        <ele>749</ele>
        <time>2020-10-03T14:33:04.000Z</time>
      </trkpt>
      <trkpt lat="44.13401" lon="3.19851">
        <ele>749.20001220703</ele>
        <time>2020-10-03T14:33:06.000Z</time>
      </trkpt>
      <trkpt lat="44.13402" lon="3.1985">
        <ele>749.20001220703</ele>
        <time>2020-10-03T14:33:07.000Z</time>
      </trkpt>
      <trkpt lat="44.13402" lon="3.19849">
        <ele>749.20001220703</ele>
        <time>2020-10-03T14:33:08.000Z</time>
      </trkpt>
      <trkpt lat="44.13403" lon="3.19848">
        <ele>749.20001220703</ele>
        <time>2020-10-03T14:33:10.000Z</time>
      </trkpt>
      <trkpt lat="44.13403" lon="3.19848">
        <ele>749.20001220703</ele>
        <time>2020-10-03T14:33:12.000Z</time>
      </trkpt>
      <trkpt lat="44.13404" lon="3.19848">
        <ele>749.40002441406</ele>
        <time>2020-10-03T14:33:14.000Z</time>
      </trkpt>
      <trkpt lat="44.13404" lon="3.19848">
        <ele>749.40002441406</ele>
        <time>2020-10-03T14:33:15.000Z</time>
      </trkpt>
      <trkpt lat="44.13404" lon="3.19847">
        <ele>749.40002441406</ele>
        <time>2020-10-03T14:33:16.000Z</time>
      </trkpt>
      <trkpt lat="44.13404" lon="3.19847">
        <ele>749.40002441406</ele>
        <time>2020-10-03T14:33:18.000Z</time>
      </trkpt>
      <trkpt lat="44.13404" lon="3.19846">
        <ele>749.40002441406</ele>
        <time>2020-10-03T14:33:20.000Z</time>
      </trkpt>
      <trkpt lat="44.13403" lon="3.19846">
        <ele>749.59997558594</ele>
        <time>2020-10-03T14:33:22.000Z</time>
      </trkpt>
      <trkpt lat="44.13403" lon="3.19846">
        <ele>749.79998779297</ele>
        <time>2020-10-03T14:33:24.000Z</time>
      </trkpt>
      <trkpt lat="44.13403" lon="3.19846">
        <ele>749.79998779297</ele>
        <time>2020-10-03T14:33:26.000Z</time>
      </trkpt>
      <trkpt lat="44.13403" lon="3.19846">
        <ele>749.79998779297</ele>
        <time>2020-10-03T14:33:28.000Z</time>
      </trkpt>
      <trkpt lat="44.13403" lon="3.19845">
        <ele>749.79998779297</ele>
        <time>2020-10-03T14:33:30.000Z</time>
      </trkpt>
      <trkpt lat="44.13403" lon="3.19844">
        <ele>749.79998779297</ele>
        <time>2020-10-03T14:33:32.000Z</time>
      </trkpt>
      <trkpt lat="44.13403" lon="3.19843">
        <ele>749.79998779297</ele>
        <time>2020-10-03T14:33:34.000Z</time>
      </trkpt>
      <trkpt lat="44.13403" lon="3.19844">
        <ele>749.79998779297</ele>
        <time>2020-10-03T14:33:36.000Z</time>
      </trkpt>
      <trkpt lat="44.13403" lon="3.19844">
        <ele>749.59997558594</ele>
        <time>2020-10-03T14:33:38.000Z</time>
      </trkpt>
      <trkpt lat="44.13403" lon="3.19844">
        <ele>749.59997558594</ele>
        <time>2020-10-03T14:33:39.000Z</time>
      </trkpt>
      <trkpt lat="44.13403" lon="3.19844">
        <ele>749.59997558594</ele>
        <time>2020-10-03T14:33:40.000Z</time>
      </trkpt>
      <trkpt lat="44.13403" lon="3.19844">
        <ele>749.59997558594</ele>
        <time>2020-10-03T14:33:42.000Z</time>
      </trkpt>
      <trkpt lat="44.13403" lon="3.19843">
        <ele>749.59997558594</ele>
        <time>2020-10-03T14:33:44.000Z</time>
      </trkpt>
      <trkpt lat="44.13402" lon="3.19842">
        <ele>749.59997558594</ele>
        <time>2020-10-03T14:33:46.000Z</time>
      </trkpt>
      <trkpt lat="44.13402" lon="3.19842">
        <ele>749.79998779297</ele>
        <time>2020-10-03T14:33:48.000Z</time>
      </trkpt>
      <trkpt lat="44.13402" lon="3.19842">
        <ele>750</ele>
        <time>2020-10-03T14:33:50.000Z</time>
      </trkpt>
      <trkpt lat="44.13402" lon="3.19842">
        <ele>750.20001220703</ele>
        <time>2020-10-03T14:33:52.000Z</time>
      </trkpt>
      <trkpt lat="44.13402" lon="3.19842">
        <ele>750.20001220703</ele>
        <time>2020-10-03T14:33:53.000Z</time>
      </trkpt>
      <trkpt lat="44.13403" lon="3.19843">
        <ele>750.20001220703</ele>
        <time>2020-10-03T14:33:54.000Z</time>
      </trkpt>
      <trkpt lat="44.13403" lon="3.19842">
        <ele>750.20001220703</ele>
        <time>2020-10-03T14:33:56.000Z</time>
      </trkpt>
      <trkpt lat="44.13403" lon="3.19843">
        <ele>750.20001220703</ele>
        <time>2020-10-03T14:33:58.000Z</time>
      </trkpt>
      <trkpt lat="44.13404" lon="3.19846">
        <ele>750.20001220703</ele>
        <time>2020-10-03T14:34:00.000Z</time>
      </trkpt>
      <trkpt lat="44.13403" lon="3.19846">
        <ele>750</ele>
        <time>2020-10-03T14:34:02.000Z</time>
      </trkpt>
      <trkpt lat="44.13403" lon="3.19845">
        <ele>749.79998779297</ele>
        <time>2020-10-03T14:34:04.000Z</time>
      </trkpt>
      <trkpt lat="44.13403" lon="3.19845">
        <ele>749.59997558594</ele>
        <time>2020-10-03T14:34:06.000Z</time>
      </trkpt>
      <trkpt lat="44.13404" lon="3.19845">
        <ele>749.59997558594</ele>
        <time>2020-10-03T14:34:08.000Z</time>
      </trkpt>
      <trkpt lat="44.13404" lon="3.19845">
        <ele>749.59997558594</ele>
        <time>2020-10-03T14:34:09.000Z</time>
      </trkpt>
      <trkpt lat="44.13404" lon="3.19846">
        <ele>749.59997558594</ele>
        <time>2020-10-03T14:34:10.000Z</time>
      </trkpt>
      <trkpt lat="44.13404" lon="3.19846">
        <ele>749.59997558594</ele>
        <time>2020-10-03T14:34:12.000Z</time>
      </trkpt>
      <trkpt lat="44.13404" lon="3.19846">
        <ele>749.40002441406</ele>
        <time>2020-10-03T14:34:14.000Z</time>
      </trkpt>
      <trkpt lat="44.13404" lon="3.19847">
        <ele>749.40002441406</ele>
        <time>2020-10-03T14:34:16.000Z</time>
      </trkpt>
      <trkpt lat="44.13404" lon="3.19847">
        <ele>749.59997558594</ele>
        <time>2020-10-03T14:34:18.000Z</time>
      </trkpt>
      <trkpt lat="44.13404" lon="3.19848">
        <ele>749.59997558594</ele>
        <time>2020-10-03T14:34:20.000Z</time>
      </trkpt>
      <trkpt lat="44.13404" lon="3.19848">
        <ele>749.59997558594</ele>
        <time>2020-10-03T14:34:22.000Z</time>
      </trkpt>
      <trkpt lat="44.13404" lon="3.19849">
        <ele>749.79998779297</ele>
        <time>2020-10-03T14:34:24.000Z</time>
      </trkpt>
      <trkpt lat="44.13403" lon="3.19848">
        <ele>749.79998779297</ele>
        <time>2020-10-03T14:34:26.000Z</time>
      </trkpt>
      <trkpt lat="44.13402" lon="3.19848">
        <ele>750</ele>
        <time>2020-10-03T14:34:28.000Z</time>
      </trkpt>
      <trkpt lat="44.13402" lon="3.19848">
        <ele>750.20001220703</ele>
        <time>2020-10-03T14:34:30.000Z</time>
      </trkpt>
      <trkpt lat="44.13402" lon="3.19848">
        <ele>750.20001220703</ele>
        <time>2020-10-03T14:34:32.000Z</time>
      </trkpt>
      <trkpt lat="44.13401" lon="3.19847">
        <ele>750.20001220703</ele>
        <time>2020-10-03T14:34:34.000Z</time>
      </trkpt>
      <trkpt lat="44.13401" lon="3.19847">
        <ele>750.20001220703</ele>
        <time>2020-10-03T14:34:36.000Z</time>
      </trkpt>
      <trkpt lat="44.13402" lon="3.19847">
        <ele>750</ele>
        <time>2020-10-03T14:34:38.000Z</time>
      </trkpt>
      <trkpt lat="44.13402" lon="3.19847">
        <ele>750</ele>
        <time>2020-10-03T14:34:40.000Z</time>
      </trkpt>
      <trkpt lat="44.13402" lon="3.19847">
        <ele>750</ele>
        <time>2020-10-03T14:34:42.000Z</time>
      </trkpt>
      <trkpt lat="44.13403" lon="3.19847">
        <ele>750</ele>
        <time>2020-10-03T14:34:44.000Z</time>
      </trkpt>
      <trkpt lat="44.13404" lon="3.19846">
        <ele>749.79998779297</ele>
        <time>2020-10-03T14:34:46.000Z</time>
      </trkpt>
      <trkpt lat="44.13405" lon="3.19844">
        <ele>749.59997558594</ele>
        <time>2020-10-03T14:34:48.000Z</time>
      </trkpt>
      <trkpt lat="44.13406" lon="3.19843">
        <ele>749.59997558594</ele>
        <time>2020-10-03T14:34:50.000Z</time>
      </trkpt>
      <trkpt lat="44.1341" lon="3.19841">
        <ele>749.59997558594</ele>
        <time>2020-10-03T14:34:52.000Z</time>
      </trkpt>
      <trkpt lat="44.13412" lon="3.1984">
        <ele>749.40002441406</ele>
        <time>2020-10-03T14:34:54.000Z</time>
      </trkpt>
      <trkpt lat="44.13413" lon="3.19838">
        <ele>749.40002441406</ele>
        <time>2020-10-03T14:34:55.000Z</time>
      </trkpt>
      <trkpt lat="44.13413" lon="3.19837">
        <ele>749.40002441406</ele>
        <time>2020-10-03T14:34:56.000Z</time>
      </trkpt>
      <trkpt lat="44.13412" lon="3.19835">
        <ele>749.20001220703</ele>
        <time>2020-10-03T14:34:58.000Z</time>
      </trkpt>
      <trkpt lat="44.13408" lon="3.1983">
        <ele>749</ele>
        <time>2020-10-03T14:35:00.000Z</time>
      </trkpt>
      <trkpt lat="44.13405" lon="3.19828">
        <ele>748.79998779297</ele>
        <time>2020-10-03T14:35:01.000Z</time>
      </trkpt>
      <trkpt lat="44.13403" lon="3.19826">
        <ele>748.20001220703</ele>
        <time>2020-10-03T14:35:02.000Z</time>
      </trkpt>
      <trkpt lat="44.13401" lon="3.19823">
        <ele>746.59997558594</ele>
        <time>2020-10-03T14:35:04.000Z</time>
      </trkpt>
      <trkpt lat="44.13399" lon="3.19821">
        <ele>744.79998779297</ele>
        <time>2020-10-03T14:35:06.000Z</time>
      </trkpt>
      <trkpt lat="44.13397" lon="3.19819">
        <ele>743</ele>
        <time>2020-10-03T14:35:08.000Z</time>
      </trkpt>
      <trkpt lat="44.13396" lon="3.19818">
        <ele>742</ele>
        <time>2020-10-03T14:35:09.000Z</time>
      </trkpt>
      <trkpt lat="44.13396" lon="3.19818">
        <ele>740.79998779297</ele>
        <time>2020-10-03T14:35:10.000Z</time>
      </trkpt>
      <trkpt lat="44.13395" lon="3.19818">
        <ele>739.79998779297</ele>
        <time>2020-10-03T14:35:11.000Z</time>
      </trkpt>
      <trkpt lat="44.13395" lon="3.19817">
        <ele>739</ele>
        <time>2020-10-03T14:35:12.000Z</time>
      </trkpt>
      <trkpt lat="44.13394" lon="3.19817">
        <ele>738.40002441406</ele>
        <time>2020-10-03T14:35:13.000Z</time>
      </trkpt>
      <trkpt lat="44.13394" lon="3.19816">
        <ele>738</ele>
        <time>2020-10-03T14:35:14.000Z</time>
      </trkpt>
      <trkpt lat="44.13393" lon="3.19816">
        <ele>737.20001220703</ele>
        <time>2020-10-03T14:35:16.000Z</time>
      </trkpt>
      <trkpt lat="44.13392" lon="3.19815">
        <ele>736.79998779297</ele>
        <time>2020-10-03T14:35:18.000Z</time>
      </trkpt>
      <trkpt lat="44.13392" lon="3.19815">
        <ele>736.79998779297</ele>
        <time>2020-10-03T14:35:20.000Z</time>
      </trkpt>
      <trkpt lat="44.13392" lon="3.19813">
        <ele>736.79998779297</ele>
        <time>2020-10-03T14:35:22.000Z</time>
      </trkpt>
      <trkpt lat="44.13391" lon="3.19813">
        <ele>736.40002441406</ele>
        <time>2020-10-03T14:35:24.000Z</time>
      </trkpt>
      <trkpt lat="44.13391" lon="3.19812">
        <ele>736.40002441406</ele>
        <time>2020-10-03T14:35:26.000Z</time>
      </trkpt>
      <trkpt lat="44.13391" lon="3.19811">
        <ele>736.40002441406</ele>
        <time>2020-10-03T14:35:27.000Z</time>
      </trkpt>
      <trkpt lat="44.13391" lon="3.1981">
        <ele>736.59997558594</ele>
        <time>2020-10-03T14:35:28.000Z</time>
      </trkpt>
      <trkpt lat="44.1339" lon="3.1981">
        <ele>736.59997558594</ele>
        <time>2020-10-03T14:35:30.000Z</time>
      </trkpt>
      <trkpt lat="44.13389" lon="3.1981">
        <ele>736.59997558594</ele>
        <time>2020-10-03T14:35:32.000Z</time>
      </trkpt>
      <trkpt lat="44.13387" lon="3.1981">
        <ele>736.59997558594</ele>
        <time>2020-10-03T14:35:34.000Z</time>
      </trkpt>
      <trkpt lat="44.13387" lon="3.19811">
        <ele>736.59997558594</ele>
        <time>2020-10-03T14:35:35.000Z</time>
      </trkpt>
      <trkpt lat="44.13386" lon="3.19811">
        <ele>736.59997558594</ele>
        <time>2020-10-03T14:35:36.000Z</time>
      </trkpt>
      <trkpt lat="44.13385" lon="3.19811">
        <ele>736.59997558594</ele>
        <time>2020-10-03T14:35:38.000Z</time>
      </trkpt>
      <trkpt lat="44.13384" lon="3.19811">
        <ele>736.40002441406</ele>
        <time>2020-10-03T14:35:40.000Z</time>
      </trkpt>
      <trkpt lat="44.13383" lon="3.19811">
        <ele>735.79998779297</ele>
        <time>2020-10-03T14:35:42.000Z</time>
      </trkpt>
      <trkpt lat="44.13382" lon="3.19811">
        <ele>734.59997558594</ele>
        <time>2020-10-03T14:35:44.000Z</time>
      </trkpt>
      <trkpt lat="44.13381" lon="3.19811">
        <ele>733.79998779297</ele>
        <time>2020-10-03T14:35:46.000Z</time>
      </trkpt>
      <trkpt lat="44.13381" lon="3.19811">
        <ele>733.59997558594</ele>
        <time>2020-10-03T14:35:47.000Z</time>
      </trkpt>
      <trkpt lat="44.13381" lon="3.1981">
        <ele>733.40002441406</ele>
        <time>2020-10-03T14:35:48.000Z</time>
      </trkpt>
      <trkpt lat="44.13381" lon="3.1981">
        <ele>732.79998779297</ele>
        <time>2020-10-03T14:35:50.000Z</time>
      </trkpt>
      <trkpt lat="44.13381" lon="3.1981">
        <ele>732.40002441406</ele>
        <time>2020-10-03T14:35:51.000Z</time>
      </trkpt>
      <trkpt lat="44.13381" lon="3.1981">
        <ele>732</ele>
        <time>2020-10-03T14:35:52.000Z</time>
      </trkpt>
      <trkpt lat="44.1338" lon="3.19811">
        <ele>731.40002441406</ele>
        <time>2020-10-03T14:35:53.000Z</time>
      </trkpt>
      <trkpt lat="44.1338" lon="3.19811">
        <ele>730.79998779297</ele>
        <time>2020-10-03T14:35:54.000Z</time>
      </trkpt>
      <trkpt lat="44.1338" lon="3.19812">
        <ele>730.20001220703</ele>
        <time>2020-10-03T14:35:55.000Z</time>
      </trkpt>
      <trkpt lat="44.13381" lon="3.19812">
        <ele>729.79998779297</ele>
        <time>2020-10-03T14:35:56.000Z</time>
      </trkpt>
      <trkpt lat="44.13381" lon="3.19812">
        <ele>729.79998779297</ele>
        <time>2020-10-03T14:35:57.000Z</time>
      </trkpt>
      <trkpt lat="44.13381" lon="3.19813">
        <ele>729.59997558594</ele>
        <time>2020-10-03T14:35:58.000Z</time>
      </trkpt>
      <trkpt lat="44.1338" lon="3.19813">
        <ele>729.20001220703</ele>
        <time>2020-10-03T14:36:00.000Z</time>
      </trkpt>
      <trkpt lat="44.13381" lon="3.19813">
        <ele>729.20001220703</ele>
        <time>2020-10-03T14:36:01.000Z</time>
      </trkpt>
      <trkpt lat="44.1338" lon="3.19812">
        <ele>729.20001220703</ele>
        <time>2020-10-03T14:36:02.000Z</time>
      </trkpt>
      <trkpt lat="44.1338" lon="3.19813">
        <ele>728.79998779297</ele>
        <time>2020-10-03T14:36:04.000Z</time>
      </trkpt>
      <trkpt lat="44.1338" lon="3.19812">
        <ele>728.59997558594</ele>
        <time>2020-10-03T14:36:06.000Z</time>
      </trkpt>
      <trkpt lat="44.1338" lon="3.19813">
        <ele>728.59997558594</ele>
        <time>2020-10-03T14:36:07.000Z</time>
      </trkpt>
      <trkpt lat="44.1338" lon="3.19813">
        <ele>728.20001220703</ele>
        <time>2020-10-03T14:36:08.000Z</time>
      </trkpt>
      <trkpt lat="44.13379" lon="3.19813">
        <ele>727.79998779297</ele>
        <time>2020-10-03T14:36:09.000Z</time>
      </trkpt>
      <trkpt lat="44.13379" lon="3.19812">
        <ele>727.40002441406</ele>
        <time>2020-10-03T14:36:10.000Z</time>
      </trkpt>
      <trkpt lat="44.13379" lon="3.19812">
        <ele>726.79998779297</ele>
        <time>2020-10-03T14:36:12.000Z</time>
      </trkpt>
      <trkpt lat="44.13379" lon="3.19813">
        <ele>726.79998779297</ele>
        <time>2020-10-03T14:36:13.000Z</time>
      </trkpt>
      <trkpt lat="44.13379" lon="3.19813">
        <ele>726.79998779297</ele>
        <time>2020-10-03T14:36:14.000Z</time>
      </trkpt>
      <trkpt lat="44.13378" lon="3.19814">
        <ele>726.59997558594</ele>
        <time>2020-10-03T14:36:16.000Z</time>
      </trkpt>
      <trkpt lat="44.13376" lon="3.19814">
        <ele>726.59997558594</ele>
        <time>2020-10-03T14:36:18.000Z</time>
      </trkpt>
      <trkpt lat="44.13376" lon="3.19817">
        <ele>726.59997558594</ele>
        <time>2020-10-03T14:36:19.000Z</time>
      </trkpt>
      <trkpt lat="44.13376" lon="3.19818">
        <ele>726.40002441406</ele>
        <time>2020-10-03T14:36:20.000Z</time>
      </trkpt>
      <trkpt lat="44.13375" lon="3.1982">
        <ele>726.40002441406</ele>
        <time>2020-10-03T14:36:22.000Z</time>
      </trkpt>
      <trkpt lat="44.13375" lon="3.19823">
        <ele>725.79998779297</ele>
        <time>2020-10-03T14:36:24.000Z</time>
      </trkpt>
      <trkpt lat="44.13376" lon="3.19824">
        <ele>725.40002441406</ele>
        <time>2020-10-03T14:36:25.000Z</time>
      </trkpt>
      <trkpt lat="44.13376" lon="3.19825">
        <ele>725</ele>
        <time>2020-10-03T14:36:26.000Z</time>
      </trkpt>
      <trkpt lat="44.13374" lon="3.19822">
        <ele>723.79998779297</ele>
        <time>2020-10-03T14:36:28.000Z</time>
      </trkpt>
      <trkpt lat="44.13373" lon="3.1982">
        <ele>722.20001220703</ele>
        <time>2020-10-03T14:36:30.000Z</time>
      </trkpt>
      <trkpt lat="44.13374" lon="3.1982">
        <ele>721</ele>
        <time>2020-10-03T14:36:32.000Z</time>
      </trkpt>
      <trkpt lat="44.13373" lon="3.19821">
        <ele>719.20001220703</ele>
        <time>2020-10-03T14:36:34.000Z</time>
      </trkpt>
      <trkpt lat="44.13371" lon="3.19821">
        <ele>718.20001220703</ele>
        <time>2020-10-03T14:36:35.000Z</time>
      </trkpt>
      <trkpt lat="44.1337" lon="3.1982">
        <ele>717.59997558594</ele>
        <time>2020-10-03T14:36:36.000Z</time>
      </trkpt>
      <trkpt lat="44.13369" lon="3.19819">
        <ele>717</ele>
        <time>2020-10-03T14:36:38.000Z</time>
      </trkpt>
      <trkpt lat="44.13367" lon="3.19819">
        <ele>716.79998779297</ele>
        <time>2020-10-03T14:36:39.000Z</time>
      </trkpt>
      <trkpt lat="44.13365" lon="3.19819">
        <ele>716.59997558594</ele>
        <time>2020-10-03T14:36:40.000Z</time>
      </trkpt>
      <trkpt lat="44.1336" lon="3.19816">
        <ele>716.40002441406</ele>
        <time>2020-10-03T14:36:42.000Z</time>
      </trkpt>
      <trkpt lat="44.13358" lon="3.19815">
        <ele>716.20001220703</ele>
        <time>2020-10-03T14:36:43.000Z</time>
      </trkpt>
      <trkpt lat="44.13357" lon="3.19814">
        <ele>715.40002441406</ele>
        <time>2020-10-03T14:36:44.000Z</time>
      </trkpt>
      <trkpt lat="44.13352" lon="3.19814">
        <ele>714</ele>
        <time>2020-10-03T14:36:46.000Z</time>
      </trkpt>
      <trkpt lat="44.1335" lon="3.19813">
        <ele>712.59997558594</ele>
        <time>2020-10-03T14:36:48.000Z</time>
      </trkpt>
      <trkpt lat="44.13348" lon="3.19812">
        <ele>711.40002441406</ele>
        <time>2020-10-03T14:36:49.000Z</time>
      </trkpt>
      <trkpt lat="44.13346" lon="3.19811">
        <ele>710.40002441406</ele>
        <time>2020-10-03T14:36:50.000Z</time>
      </trkpt>
      <trkpt lat="44.13345" lon="3.1981">
        <ele>709.79998779297</ele>
        <time>2020-10-03T14:36:51.000Z</time>
      </trkpt>
      <trkpt lat="44.13344" lon="3.1981">
        <ele>709.20001220703</ele>
        <time>2020-10-03T14:36:52.000Z</time>
      </trkpt>
      <trkpt lat="44.13343" lon="3.19809">
        <ele>708.79998779297</ele>
        <time>2020-10-03T14:36:53.000Z</time>
      </trkpt>
      <trkpt lat="44.13342" lon="3.19808">
        <ele>708.40002441406</ele>
        <time>2020-10-03T14:36:54.000Z</time>
      </trkpt>
      <trkpt lat="44.13341" lon="3.19808">
        <ele>708</ele>
        <time>2020-10-03T14:36:55.000Z</time>
      </trkpt>
      <trkpt lat="44.1334" lon="3.19808">
        <ele>707.40002441406</ele>
        <time>2020-10-03T14:36:56.000Z</time>
      </trkpt>
      <trkpt lat="44.1334" lon="3.19806">
        <ele>705.79998779297</ele>
        <time>2020-10-03T14:36:58.000Z</time>
      </trkpt>
      <trkpt lat="44.13338" lon="3.19803">
        <ele>705.40002441406</ele>
        <time>2020-10-03T14:37:00.000Z</time>
      </trkpt>
      <trkpt lat="44.13336" lon="3.19799">
        <ele>705</ele>
        <time>2020-10-03T14:37:02.000Z</time>
      </trkpt>
      <trkpt lat="44.13335" lon="3.19798">
        <ele>704.79998779297</ele>
        <time>2020-10-03T14:37:04.000Z</time>
      </trkpt>
      <trkpt lat="44.13334" lon="3.19798">
        <ele>704.59997558594</ele>
        <time>2020-10-03T14:37:05.000Z</time>
      </trkpt>
      <trkpt lat="44.13333" lon="3.19798">
        <ele>704.40002441406</ele>
        <time>2020-10-03T14:37:06.000Z</time>
      </trkpt>
      <trkpt lat="44.13332" lon="3.19799">
        <ele>704.20001220703</ele>
        <time>2020-10-03T14:37:07.000Z</time>
      </trkpt>
      <trkpt lat="44.1333" lon="3.19799">
        <ele>703.59997558594</ele>
        <time>2020-10-03T14:37:08.000Z</time>
      </trkpt>
      <trkpt lat="44.13328" lon="3.19798">
        <ele>702.59997558594</ele>
        <time>2020-10-03T14:37:09.000Z</time>
      </trkpt>
      <trkpt lat="44.13326" lon="3.19797">
        <ele>701.79998779297</ele>
        <time>2020-10-03T14:37:10.000Z</time>
      </trkpt>
      <trkpt lat="44.13324" lon="3.19796">
        <ele>701</ele>
        <time>2020-10-03T14:37:11.000Z</time>
      </trkpt>
      <trkpt lat="44.13323" lon="3.19795">
        <ele>700.59997558594</ele>
        <time>2020-10-03T14:37:12.000Z</time>
      </trkpt>
      <trkpt lat="44.13321" lon="3.19794">
        <ele>700</ele>
        <time>2020-10-03T14:37:14.000Z</time>
      </trkpt>
      <trkpt lat="44.1332" lon="3.19793">
        <ele>699</ele>
        <time>2020-10-03T14:37:16.000Z</time>
      </trkpt>
      <trkpt lat="44.13319" lon="3.19794">
        <ele>697.20001220703</ele>
        <time>2020-10-03T14:37:18.000Z</time>
      </trkpt>
      <trkpt lat="44.1332" lon="3.19793">
        <ele>695.79998779297</ele>
        <time>2020-10-03T14:37:20.000Z</time>
      </trkpt>
      <trkpt lat="44.1332" lon="3.19793">
        <ele>694.40002441406</ele>
        <time>2020-10-03T14:37:22.000Z</time>
      </trkpt>
      <trkpt lat="44.13319" lon="3.19792">
        <ele>693.40002441406</ele>
        <time>2020-10-03T14:37:24.000Z</time>
      </trkpt>
      <trkpt lat="44.13316" lon="3.19791">
        <ele>693.20001220703</ele>
        <time>2020-10-03T14:37:26.000Z</time>
      </trkpt>
      <trkpt lat="44.13316" lon="3.19791">
        <ele>693.20001220703</ele>
        <time>2020-10-03T14:37:27.000Z</time>
      </trkpt>
      <trkpt lat="44.13315" lon="3.19792">
        <ele>693.20001220703</ele>
        <time>2020-10-03T14:37:28.000Z</time>
      </trkpt>
      <trkpt lat="44.13315" lon="3.19791">
        <ele>693.20001220703</ele>
        <time>2020-10-03T14:37:30.000Z</time>
      </trkpt>
      <trkpt lat="44.13314" lon="3.19791">
        <ele>693</ele>
        <time>2020-10-03T14:37:32.000Z</time>
      </trkpt>
      <trkpt lat="44.13313" lon="3.1979">
        <ele>692.59997558594</ele>
        <time>2020-10-03T14:37:34.000Z</time>
      </trkpt>
      <trkpt lat="44.13312" lon="3.19789">
        <ele>692.59997558594</ele>
        <time>2020-10-03T14:37:36.000Z</time>
      </trkpt>
      <trkpt lat="44.13311" lon="3.19789">
        <ele>692.59997558594</ele>
        <time>2020-10-03T14:37:38.000Z</time>
      </trkpt>
      <trkpt lat="44.1331" lon="3.19789">
        <ele>692.59997558594</ele>
        <time>2020-10-03T14:37:40.000Z</time>
      </trkpt>
      <trkpt lat="44.13309" lon="3.19789">
        <ele>692.59997558594</ele>
        <time>2020-10-03T14:37:42.000Z</time>
      </trkpt>
      <trkpt lat="44.13309" lon="3.19789">
        <ele>692.59997558594</ele>
        <time>2020-10-03T14:37:44.000Z</time>
      </trkpt>
      <trkpt lat="44.13309" lon="3.19789">
        <ele>692.59997558594</ele>
        <time>2020-10-03T14:37:46.000Z</time>
      </trkpt>
      <trkpt lat="44.13309" lon="3.19788">
        <ele>692.59997558594</ele>
        <time>2020-10-03T14:37:48.000Z</time>
      </trkpt>
      <trkpt lat="44.13308" lon="3.19789">
        <ele>692.79998779297</ele>
        <time>2020-10-03T14:37:50.000Z</time>
      </trkpt>
      <trkpt lat="44.13308" lon="3.19788">
        <ele>692.79998779297</ele>
        <time>2020-10-03T14:37:51.000Z</time>
      </trkpt>
      <trkpt lat="44.13308" lon="3.19788">
        <ele>693</ele>
        <time>2020-10-03T14:37:52.000Z</time>
      </trkpt>
      <trkpt lat="44.13308" lon="3.19788">
        <ele>693.40002441406</ele>
        <time>2020-10-03T14:37:54.000Z</time>
      </trkpt>
      <trkpt lat="44.13308" lon="3.19788">
        <ele>693.59997558594</ele>
        <time>2020-10-03T14:37:56.000Z</time>
      </trkpt>
      <trkpt lat="44.13308" lon="3.19788">
        <ele>693.59997558594</ele>
        <time>2020-10-03T14:37:58.000Z</time>
      </trkpt>
      <trkpt lat="44.13308" lon="3.19787">
        <ele>693.59997558594</ele>
        <time>2020-10-03T14:38:00.000Z</time>
      </trkpt>
      <trkpt lat="44.13308" lon="3.19786">
        <ele>693.59997558594</ele>
        <time>2020-10-03T14:38:02.000Z</time>
      </trkpt>
      <trkpt lat="44.13308" lon="3.19785">
        <ele>693.59997558594</ele>
        <time>2020-10-03T14:38:04.000Z</time>
      </trkpt>
      <trkpt lat="44.13308" lon="3.19785">
        <ele>693.40002441406</ele>
        <time>2020-10-03T14:38:06.000Z</time>
      </trkpt>
      <trkpt lat="44.13309" lon="3.19785">
        <ele>693.20001220703</ele>
        <time>2020-10-03T14:38:08.000Z</time>
      </trkpt>
      <trkpt lat="44.13309" lon="3.19784">
        <ele>693.20001220703</ele>
        <time>2020-10-03T14:38:10.000Z</time>
      </trkpt>
      <trkpt lat="44.13311" lon="3.19783">
        <ele>693</ele>
        <time>2020-10-03T14:38:12.000Z</time>
      </trkpt>
      <trkpt lat="44.13311" lon="3.19784">
        <ele>693</ele>
        <time>2020-10-03T14:38:14.000Z</time>
      </trkpt>
      <trkpt lat="44.13311" lon="3.19784">
        <ele>693</ele>
        <time>2020-10-03T14:38:16.000Z</time>
      </trkpt>
      <trkpt lat="44.13311" lon="3.19784">
        <ele>693</ele>
        <time>2020-10-03T14:38:18.000Z</time>
      </trkpt>
      <trkpt lat="44.13311" lon="3.19784">
        <ele>693</ele>
        <time>2020-10-03T14:38:19.000Z</time>
      </trkpt>
      <trkpt lat="44.13311" lon="3.19784">
        <ele>693</ele>
        <time>2020-10-03T14:38:20.000Z</time>
      </trkpt>
      <trkpt lat="44.13311" lon="3.19784">
        <ele>693.20001220703</ele>
        <time>2020-10-03T14:38:22.000Z</time>
      </trkpt>
      <trkpt lat="44.13311" lon="3.19784">
        <ele>693.40002441406</ele>
        <time>2020-10-03T14:38:23.000Z</time>
      </trkpt>
      <trkpt lat="44.13311" lon="3.19784">
        <ele>693.40002441406</ele>
        <time>2020-10-03T14:38:24.000Z</time>
      </trkpt>
      <trkpt lat="44.13311" lon="3.19785">
        <ele>693.59997558594</ele>
        <time>2020-10-03T14:38:26.000Z</time>
      </trkpt>
      <trkpt lat="44.13311" lon="3.19785">
        <ele>693.79998779297</ele>
        <time>2020-10-03T14:38:28.000Z</time>
      </trkpt>
      <trkpt lat="44.1331" lon="3.19786">
        <ele>694</ele>
        <time>2020-10-03T14:38:29.000Z</time>
      </trkpt>
      <trkpt lat="44.1331" lon="3.19786">
        <ele>694</ele>
        <time>2020-10-03T14:38:30.000Z</time>
      </trkpt>
      <trkpt lat="44.1331" lon="3.19787">
        <ele>694</ele>
        <time>2020-10-03T14:38:32.000Z</time>
      </trkpt>
      <trkpt lat="44.1331" lon="3.19788">
        <ele>694</ele>
        <time>2020-10-03T14:38:34.000Z</time>
      </trkpt>
      <trkpt lat="44.13311" lon="3.19789">
        <ele>694</ele>
        <time>2020-10-03T14:38:36.000Z</time>
      </trkpt>
      <trkpt lat="44.13311" lon="3.19789">
        <ele>693.79998779297</ele>
        <time>2020-10-03T14:38:38.000Z</time>
      </trkpt>
      <trkpt lat="44.13311" lon="3.19788">
        <ele>693.79998779297</ele>
        <time>2020-10-03T14:38:40.000Z</time>
      </trkpt>
      <trkpt lat="44.13309" lon="3.19786">
        <ele>693.59997558594</ele>
        <time>2020-10-03T14:38:42.000Z</time>
      </trkpt>
      <trkpt lat="44.13307" lon="3.19783">
        <ele>693.59997558594</ele>
        <time>2020-10-03T14:38:44.000Z</time>
      </trkpt>
      <trkpt lat="44.13305" lon="3.19775">
        <ele>693.40002441406</ele>
        <time>2020-10-03T14:38:46.000Z</time>
      </trkpt>
      <trkpt lat="44.13303" lon="3.19766">
        <ele>693.20001220703</ele>
        <time>2020-10-03T14:38:48.000Z</time>
      </trkpt>
      <trkpt lat="44.13301" lon="3.19759">
        <ele>693</ele>
        <time>2020-10-03T14:38:50.000Z</time>
      </trkpt>
      <trkpt lat="44.13296" lon="3.19752">
        <ele>692.20001220703</ele>
        <time>2020-10-03T14:38:52.000Z</time>
      </trkpt>
      <trkpt lat="44.13296" lon="3.19748">
        <ele>691.59997558594</ele>
        <time>2020-10-03T14:38:53.000Z</time>
      </trkpt>
      <trkpt lat="44.13296" lon="3.19744">
        <ele>690.59997558594</ele>
        <time>2020-10-03T14:38:54.000Z</time>
      </trkpt>
      <trkpt lat="44.13296" lon="3.19742">
        <ele>689.40002441406</ele>
        <time>2020-10-03T14:38:55.000Z</time>
      </trkpt>
      <trkpt lat="44.13298" lon="3.1974">
        <ele>688.79998779297</ele>
        <time>2020-10-03T14:38:56.000Z</time>
      </trkpt>
      <trkpt lat="44.13299" lon="3.19737">
        <ele>688.20001220703</ele>
        <time>2020-10-03T14:38:57.000Z</time>
      </trkpt>
      <trkpt lat="44.13301" lon="3.19734">
        <ele>688</ele>
        <time>2020-10-03T14:38:58.000Z</time>
      </trkpt>
      <trkpt lat="44.13302" lon="3.1973">
        <ele>687.20001220703</ele>
        <time>2020-10-03T14:38:59.000Z</time>
      </trkpt>
      <trkpt lat="44.13302" lon="3.19726">
        <ele>686.79998779297</ele>
        <time>2020-10-03T14:39:00.000Z</time>
      </trkpt>
      <trkpt lat="44.13303" lon="3.1972">
        <ele>686.59997558594</ele>
        <time>2020-10-03T14:39:02.000Z</time>
      </trkpt>
      <trkpt lat="44.13303" lon="3.19713">
        <ele>686.40002441406</ele>
        <time>2020-10-03T14:39:04.000Z</time>
      </trkpt>
      <trkpt lat="44.13301" lon="3.19706">
        <ele>686.20001220703</ele>
        <time>2020-10-03T14:39:06.000Z</time>
      </trkpt>
      <trkpt lat="44.13301" lon="3.19702">
        <ele>686.20001220703</ele>
        <time>2020-10-03T14:39:07.000Z</time>
      </trkpt>
      <trkpt lat="44.133" lon="3.197">
        <ele>686</ele>
        <time>2020-10-03T14:39:08.000Z</time>
      </trkpt>
      <trkpt lat="44.13299" lon="3.19701">
        <ele>685.40002441406</ele>
        <time>2020-10-03T14:39:10.000Z</time>
      </trkpt>
      <trkpt lat="44.13297" lon="3.197">
        <ele>684.79998779297</ele>
        <time>2020-10-03T14:39:12.000Z</time>
      </trkpt>
      <trkpt lat="44.13294" lon="3.19698">
        <ele>684</ele>
        <time>2020-10-03T14:39:14.000Z</time>
      </trkpt>
      <trkpt lat="44.13293" lon="3.19698">
        <ele>683.59997558594</ele>
        <time>2020-10-03T14:39:15.000Z</time>
      </trkpt>
      <trkpt lat="44.13292" lon="3.19697">
        <ele>683.40002441406</ele>
        <time>2020-10-03T14:39:16.000Z</time>
      </trkpt>
      <trkpt lat="44.1329" lon="3.19694">
        <ele>683.20001220703</ele>
        <time>2020-10-03T14:39:18.000Z</time>
      </trkpt>
      <trkpt lat="44.13291" lon="3.1969">
        <ele>682.79998779297</ele>
        <time>2020-10-03T14:39:20.000Z</time>
      </trkpt>
      <trkpt lat="44.13291" lon="3.19688">
        <ele>682.59997558594</ele>
        <time>2020-10-03T14:39:21.000Z</time>
      </trkpt>
      <trkpt lat="44.13291" lon="3.19687">
        <ele>682.20001220703</ele>
        <time>2020-10-03T14:39:22.000Z</time>
      </trkpt>
      <trkpt lat="44.13289" lon="3.19684">
        <ele>681.79998779297</ele>
        <time>2020-10-03T14:39:24.000Z</time>
      </trkpt>
      <trkpt lat="44.13283" lon="3.19681">
        <ele>681.40002441406</ele>
        <time>2020-10-03T14:39:26.000Z</time>
      </trkpt>
      <trkpt lat="44.1328" lon="3.19679">
        <ele>680.79998779297</ele>
        <time>2020-10-03T14:39:27.000Z</time>
      </trkpt>
      <trkpt lat="44.13279" lon="3.19679">
        <ele>680</ele>
        <time>2020-10-03T14:39:28.000Z</time>
      </trkpt>
      <trkpt lat="44.13279" lon="3.19679">
        <ele>679.20001220703</ele>
        <time>2020-10-03T14:39:29.000Z</time>
      </trkpt>
      <trkpt lat="44.13279" lon="3.1968">
        <ele>678.79998779297</ele>
        <time>2020-10-03T14:39:30.000Z</time>
      </trkpt>
      <trkpt lat="44.13278" lon="3.1968">
        <ele>677.79998779297</ele>
        <time>2020-10-03T14:39:32.000Z</time>
      </trkpt>
      <trkpt lat="44.13279" lon="3.1968">
        <ele>677</ele>
        <time>2020-10-03T14:39:33.000Z</time>
      </trkpt>
      <trkpt lat="44.1328" lon="3.19679">
        <ele>675.79998779297</ele>
        <time>2020-10-03T14:39:34.000Z</time>
      </trkpt>
      <trkpt lat="44.1328" lon="3.19678">
        <ele>674.40002441406</ele>
        <time>2020-10-03T14:39:35.000Z</time>
      </trkpt>
      <trkpt lat="44.13279" lon="3.19678">
        <ele>673.40002441406</ele>
        <time>2020-10-03T14:39:36.000Z</time>
      </trkpt>
      <trkpt lat="44.13279" lon="3.19679">
        <ele>672.79998779297</ele>
        <time>2020-10-03T14:39:37.000Z</time>
      </trkpt>
      <trkpt lat="44.13278" lon="3.19679">
        <ele>672.59997558594</ele>
        <time>2020-10-03T14:39:38.000Z</time>
      </trkpt>
      <trkpt lat="44.13278" lon="3.19678">
        <ele>672.40002441406</ele>
        <time>2020-10-03T14:39:39.000Z</time>
      </trkpt>
      <trkpt lat="44.13278" lon="3.19678">
        <ele>672.40002441406</ele>
        <time>2020-10-03T14:39:40.000Z</time>
      </trkpt>
      <trkpt lat="44.13277" lon="3.19677">
        <ele>672.20001220703</ele>
        <time>2020-10-03T14:39:42.000Z</time>
      </trkpt>
      <trkpt lat="44.13274" lon="3.19675">
        <ele>672.20001220703</ele>
        <time>2020-10-03T14:39:44.000Z</time>
      </trkpt>
      <trkpt lat="44.13272" lon="3.19674">
        <ele>672.20001220703</ele>
        <time>2020-10-03T14:39:46.000Z</time>
      </trkpt>
      <trkpt lat="44.1327" lon="3.19672">
        <ele>672.20001220703</ele>
        <time>2020-10-03T14:39:48.000Z</time>
      </trkpt>
      <trkpt lat="44.13269" lon="3.19669">
        <ele>672.20001220703</ele>
        <time>2020-10-03T14:39:50.000Z</time>
      </trkpt>
      <trkpt lat="44.13267" lon="3.19669">
        <ele>672.20001220703</ele>
        <time>2020-10-03T14:39:52.000Z</time>
      </trkpt>
      <trkpt lat="44.13266" lon="3.19669">
        <ele>672.20001220703</ele>
        <time>2020-10-03T14:39:53.000Z</time>
      </trkpt>
      <trkpt lat="44.13265" lon="3.19668">
        <ele>672.20001220703</ele>
        <time>2020-10-03T14:39:54.000Z</time>
      </trkpt>
      <trkpt lat="44.13264" lon="3.19669">
        <ele>671.40002441406</ele>
        <time>2020-10-03T14:39:56.000Z</time>
      </trkpt>
      <trkpt lat="44.13264" lon="3.19669">
        <ele>671.40002441406</ele>
        <time>2020-10-03T14:39:58.000Z</time>
      </trkpt>
      <trkpt lat="44.13263" lon="3.1967">
        <ele>671.20001220703</ele>
        <time>2020-10-03T14:40:00.000Z</time>
      </trkpt>
      <trkpt lat="44.13263" lon="3.19669">
        <ele>671</ele>
        <time>2020-10-03T14:40:02.000Z</time>
      </trkpt>
      <trkpt lat="44.13264" lon="3.19669">
        <ele>671</ele>
        <time>2020-10-03T14:40:04.000Z</time>
      </trkpt>
      <trkpt lat="44.13263" lon="3.1967">
        <ele>671</ele>
        <time>2020-10-03T14:40:06.000Z</time>
      </trkpt>
      <trkpt lat="44.13262" lon="3.19671">
        <ele>671.20001220703</ele>
        <time>2020-10-03T14:40:08.000Z</time>
      </trkpt>
      <trkpt lat="44.13261" lon="3.19675">
        <ele>671.20001220703</ele>
        <time>2020-10-03T14:40:10.000Z</time>
      </trkpt>
      <trkpt lat="44.1326" lon="3.19676">
        <ele>671.20001220703</ele>
        <time>2020-10-03T14:40:12.000Z</time>
      </trkpt>
      <trkpt lat="44.1326" lon="3.19676">
        <ele>671.20001220703</ele>
        <time>2020-10-03T14:40:14.000Z</time>
      </trkpt>
      <trkpt lat="44.1326" lon="3.19678">
        <ele>671.20001220703</ele>
        <time>2020-10-03T14:40:16.000Z</time>
      </trkpt>
      <trkpt lat="44.13259" lon="3.19678">
        <ele>671.20001220703</ele>
        <time>2020-10-03T14:40:18.000Z</time>
      </trkpt>
      <trkpt lat="44.13259" lon="3.1968">
        <ele>671.20001220703</ele>
        <time>2020-10-03T14:40:20.000Z</time>
      </trkpt>
      <trkpt lat="44.13257" lon="3.19682">
        <ele>671.20001220703</ele>
        <time>2020-10-03T14:40:22.000Z</time>
      </trkpt>
      <trkpt lat="44.13255" lon="3.19685">
        <ele>671.40002441406</ele>
        <time>2020-10-03T14:40:24.000Z</time>
      </trkpt>
      <trkpt lat="44.13254" lon="3.19686">
        <ele>671.40002441406</ele>
        <time>2020-10-03T14:40:25.000Z</time>
      </trkpt>
      <trkpt lat="44.13254" lon="3.19687">
        <ele>671.40002441406</ele>
        <time>2020-10-03T14:40:26.000Z</time>
      </trkpt>
      <trkpt lat="44.13254" lon="3.19687">
        <ele>671.40002441406</ele>
        <time>2020-10-03T14:40:28.000Z</time>
      </trkpt>
      <trkpt lat="44.13252" lon="3.19688">
        <ele>671.40002441406</ele>
        <time>2020-10-03T14:40:30.000Z</time>
      </trkpt>
      <trkpt lat="44.13252" lon="3.19688">
        <ele>671.40002441406</ele>
        <time>2020-10-03T14:40:31.000Z</time>
      </trkpt>
      <trkpt lat="44.13251" lon="3.19688">
        <ele>671.40002441406</ele>
        <time>2020-10-03T14:40:32.000Z</time>
      </trkpt>
      <trkpt lat="44.1325" lon="3.19689">
        <ele>671.40002441406</ele>
        <time>2020-10-03T14:40:34.000Z</time>
      </trkpt>
      <trkpt lat="44.13249" lon="3.19689">
        <ele>671.40002441406</ele>
        <time>2020-10-03T14:40:36.000Z</time>
      </trkpt>
      <trkpt lat="44.13249" lon="3.19689">
        <ele>671.40002441406</ele>
        <time>2020-10-03T14:40:38.000Z</time>
      </trkpt>
      <trkpt lat="44.13249" lon="3.19688">
        <ele>671.40002441406</ele>
        <time>2020-10-03T14:40:40.000Z</time>
      </trkpt>
      <trkpt lat="44.1325" lon="3.19687">
        <ele>671.40002441406</ele>
        <time>2020-10-03T14:40:42.000Z</time>
      </trkpt>
      <trkpt lat="44.13251" lon="3.19686">
        <ele>671.40002441406</ele>
        <time>2020-10-03T14:40:44.000Z</time>
      </trkpt>
      <trkpt lat="44.13251" lon="3.19685">
        <ele>671.40002441406</ele>
        <time>2020-10-03T14:40:45.000Z</time>
      </trkpt>
      <trkpt lat="44.13252" lon="3.19684">
        <ele>671.40002441406</ele>
        <time>2020-10-03T14:40:46.000Z</time>
      </trkpt>
      <trkpt lat="44.13255" lon="3.19681">
        <ele>671.40002441406</ele>
        <time>2020-10-03T14:40:48.000Z</time>
      </trkpt>
      <trkpt lat="44.13257" lon="3.19679">
        <ele>671.40002441406</ele>
        <time>2020-10-03T14:40:50.000Z</time>
      </trkpt>
      <trkpt lat="44.13258" lon="3.19677">
        <ele>671.40002441406</ele>
        <time>2020-10-03T14:40:52.000Z</time>
      </trkpt>
      <trkpt lat="44.13259" lon="3.19676">
        <ele>671.40002441406</ele>
        <time>2020-10-03T14:40:54.000Z</time>
      </trkpt>
      <trkpt lat="44.13259" lon="3.19675">
        <ele>671.59997558594</ele>
        <time>2020-10-03T14:40:56.000Z</time>
      </trkpt>
      <trkpt lat="44.13258" lon="3.19675">
        <ele>671.59997558594</ele>
        <time>2020-10-03T14:40:58.000Z</time>
      </trkpt>
      <trkpt lat="44.13258" lon="3.19676">
        <ele>671.59997558594</ele>
        <time>2020-10-03T14:41:00.000Z</time>
      </trkpt>
      <trkpt lat="44.13258" lon="3.19676">
        <ele>671.59997558594</ele>
        <time>2020-10-03T14:41:02.000Z</time>
      </trkpt>
      <trkpt lat="44.13258" lon="3.19677">
        <ele>671.59997558594</ele>
        <time>2020-10-03T14:41:04.000Z</time>
      </trkpt>
      <trkpt lat="44.13259" lon="3.19677">
        <ele>671.59997558594</ele>
        <time>2020-10-03T14:41:06.000Z</time>
      </trkpt>
      <trkpt lat="44.13259" lon="3.19677">
        <ele>671.59997558594</ele>
        <time>2020-10-03T14:41:08.000Z</time>
      </trkpt>
      <trkpt lat="44.13259" lon="3.19677">
        <ele>671.40002441406</ele>
        <time>2020-10-03T14:41:10.000Z</time>
      </trkpt>
      <trkpt lat="44.13259" lon="3.19677">
        <ele>671.40002441406</ele>
        <time>2020-10-03T14:41:12.000Z</time>
      </trkpt>
      <trkpt lat="44.1326" lon="3.19675">
        <ele>671.40002441406</ele>
        <time>2020-10-03T14:41:14.000Z</time>
      </trkpt>
      <trkpt lat="44.13259" lon="3.19675">
        <ele>671.40002441406</ele>
        <time>2020-10-03T14:41:15.000Z</time>
      </trkpt>
      <trkpt lat="44.1326" lon="3.19674">
        <ele>671.40002441406</ele>
        <time>2020-10-03T14:41:16.000Z</time>
      </trkpt>
      <trkpt lat="44.1326" lon="3.19673">
        <ele>671.40002441406</ele>
        <time>2020-10-03T14:41:18.000Z</time>
      </trkpt>
      <trkpt lat="44.1326" lon="3.19672">
        <ele>671.40002441406</ele>
        <time>2020-10-03T14:41:20.000Z</time>
      </trkpt>
      <trkpt lat="44.1326" lon="3.19673">
        <ele>671.59997558594</ele>
        <time>2020-10-03T14:41:22.000Z</time>
      </trkpt>
      <trkpt lat="44.1326" lon="3.19673">
        <ele>671.40002441406</ele>
        <time>2020-10-03T14:41:23.000Z</time>
      </trkpt>
      <trkpt lat="44.1326" lon="3.19673">
        <ele>671.40002441406</ele>
        <time>2020-10-03T14:41:24.000Z</time>
      </trkpt>
      <trkpt lat="44.13261" lon="3.19674">
        <ele>671.59997558594</ele>
        <time>2020-10-03T14:41:26.000Z</time>
      </trkpt>
      <trkpt lat="44.13261" lon="3.19674">
        <ele>671.59997558594</ele>
        <time>2020-10-03T14:41:28.000Z</time>
      </trkpt>
      <trkpt lat="44.13261" lon="3.19673">
        <ele>671.79998779297</ele>
        <time>2020-10-03T14:41:30.000Z</time>
      </trkpt>
      <trkpt lat="44.13261" lon="3.19674">
        <ele>671.79998779297</ele>
        <time>2020-10-03T14:41:32.000Z</time>
      </trkpt>
      <trkpt lat="44.13259" lon="3.19674">
        <ele>671.79998779297</ele>
        <time>2020-10-03T14:41:33.000Z</time>
      </trkpt>
      <trkpt lat="44.13257" lon="3.19675">
        <ele>671.79998779297</ele>
        <time>2020-10-03T14:41:34.000Z</time>
      </trkpt>
      <trkpt lat="44.13256" lon="3.19677">
        <ele>671.79998779297</ele>
        <time>2020-10-03T14:41:36.000Z</time>
      </trkpt>
      <trkpt lat="44.13254" lon="3.19677">
        <ele>671.79998779297</ele>
        <time>2020-10-03T14:41:37.000Z</time>
      </trkpt>
      <trkpt lat="44.13253" lon="3.19677">
        <ele>671.79998779297</ele>
        <time>2020-10-03T14:41:38.000Z</time>
      </trkpt>
      <trkpt lat="44.13251" lon="3.19677">
        <ele>671.79998779297</ele>
        <time>2020-10-03T14:41:39.000Z</time>
      </trkpt>
      <trkpt lat="44.13248" lon="3.19676">
        <ele>671.79998779297</ele>
        <time>2020-10-03T14:41:40.000Z</time>
      </trkpt>
      <trkpt lat="44.1324" lon="3.19677">
        <ele>671.79998779297</ele>
        <time>2020-10-03T14:41:42.000Z</time>
      </trkpt>
      <trkpt lat="44.13236" lon="3.19679">
        <ele>671.79998779297</ele>
        <time>2020-10-03T14:41:43.000Z</time>
      </trkpt>
      <trkpt lat="44.13232" lon="3.19681">
        <ele>671.59997558594</ele>
        <time>2020-10-03T14:41:44.000Z</time>
      </trkpt>
      <trkpt lat="44.13223" lon="3.19682">
        <ele>671</ele>
        <time>2020-10-03T14:41:46.000Z</time>
      </trkpt>
      <trkpt lat="44.13219" lon="3.19682">
        <ele>669.59997558594</ele>
        <time>2020-10-03T14:41:47.000Z</time>
      </trkpt>
      <trkpt lat="44.13217" lon="3.19682">
        <ele>668.79998779297</ele>
        <time>2020-10-03T14:41:48.000Z</time>
      </trkpt>
      <trkpt lat="44.13215" lon="3.19682">
        <ele>667.79998779297</ele>
        <time>2020-10-03T14:41:49.000Z</time>
      </trkpt>
      <trkpt lat="44.13213" lon="3.19683">
        <ele>667.20001220703</ele>
        <time>2020-10-03T14:41:50.000Z</time>
      </trkpt>
      <trkpt lat="44.13212" lon="3.19683">
        <ele>666.59997558594</ele>
        <time>2020-10-03T14:41:51.000Z</time>
      </trkpt>
      <trkpt lat="44.13209" lon="3.19682">
        <ele>666.20001220703</ele>
        <time>2020-10-03T14:41:52.000Z</time>
      </trkpt>
      <trkpt lat="44.13205" lon="3.19679">
        <ele>665.40002441406</ele>
        <time>2020-10-03T14:41:54.000Z</time>
      </trkpt>
      <trkpt lat="44.13203" lon="3.19676">
        <ele>664.79998779297</ele>
        <time>2020-10-03T14:41:56.000Z</time>
      </trkpt>
      <trkpt lat="44.132" lon="3.19675">
        <ele>664.59997558594</ele>
        <time>2020-10-03T14:41:57.000Z</time>
      </trkpt>
      <trkpt lat="44.13197" lon="3.19673">
        <ele>664.40002441406</ele>
        <time>2020-10-03T14:41:58.000Z</time>
      </trkpt>
      <trkpt lat="44.13191" lon="3.19671">
        <ele>664.20001220703</ele>
        <time>2020-10-03T14:42:00.000Z</time>
      </trkpt>
      <trkpt lat="44.13187" lon="3.19666">
        <ele>664.20001220703</ele>
        <time>2020-10-03T14:42:02.000Z</time>
      </trkpt>
      <trkpt lat="44.13185" lon="3.19663">
        <ele>664.20001220703</ele>
        <time>2020-10-03T14:42:03.000Z</time>
      </trkpt>
      <trkpt lat="44.13184" lon="3.19659">
        <ele>664</ele>
        <time>2020-10-03T14:42:04.000Z</time>
      </trkpt>
      <trkpt lat="44.13184" lon="3.19659">
        <ele>663.40002441406</ele>
        <time>2020-10-03T14:42:05.000Z</time>
      </trkpt>
      <trkpt lat="44.13184" lon="3.19657">
        <ele>662.59997558594</ele>
        <time>2020-10-03T14:42:06.000Z</time>
      </trkpt>
      <trkpt lat="44.13184" lon="3.19656">
        <ele>661.59997558594</ele>
        <time>2020-10-03T14:42:07.000Z</time>
      </trkpt>
      <trkpt lat="44.13184" lon="3.19655">
        <ele>660.59997558594</ele>
        <time>2020-10-03T14:42:08.000Z</time>
      </trkpt>
      <trkpt lat="44.13183" lon="3.19654">
        <ele>659.79998779297</ele>
        <time>2020-10-03T14:42:09.000Z</time>
      </trkpt>
      <trkpt lat="44.13182" lon="3.19654">
        <ele>658.79998779297</ele>
        <time>2020-10-03T14:42:10.000Z</time>
      </trkpt>
      <trkpt lat="44.13181" lon="3.19655">
        <ele>657.79998779297</ele>
        <time>2020-10-03T14:42:11.000Z</time>
      </trkpt>
      <trkpt lat="44.13181" lon="3.19654">
        <ele>657</ele>
        <time>2020-10-03T14:42:12.000Z</time>
      </trkpt>
      <trkpt lat="44.13179" lon="3.19652">
        <ele>656.20001220703</ele>
        <time>2020-10-03T14:42:13.000Z</time>
      </trkpt>
      <trkpt lat="44.13178" lon="3.19648">
        <ele>655.40002441406</ele>
        <time>2020-10-03T14:42:14.000Z</time>
      </trkpt>
      <trkpt lat="44.13176" lon="3.19644">
        <ele>654.59997558594</ele>
        <time>2020-10-03T14:42:15.000Z</time>
      </trkpt>
      <trkpt lat="44.13174" lon="3.19639">
        <ele>653.40002441406</ele>
        <time>2020-10-03T14:42:16.000Z</time>
      </trkpt>
      <trkpt lat="44.13169" lon="3.19631">
        <ele>652.59997558594</ele>
        <time>2020-10-03T14:42:18.000Z</time>
      </trkpt>
      <trkpt lat="44.13166" lon="3.1963">
        <ele>652.40002441406</ele>
        <time>2020-10-03T14:42:19.000Z</time>
      </trkpt>
      <trkpt lat="44.13163" lon="3.1963">
        <ele>652.20001220703</ele>
        <time>2020-10-03T14:42:20.000Z</time>
      </trkpt>
      <trkpt lat="44.13158" lon="3.1963">
        <ele>651.20001220703</ele>
        <time>2020-10-03T14:42:22.000Z</time>
      </trkpt>
      <trkpt lat="44.13155" lon="3.1963">
        <ele>650.40002441406</ele>
        <time>2020-10-03T14:42:23.000Z</time>
      </trkpt>
      <trkpt lat="44.13152" lon="3.19631">
        <ele>649.20001220703</ele>
        <time>2020-10-03T14:42:24.000Z</time>
      </trkpt>
      <trkpt lat="44.1315" lon="3.1963">
        <ele>648.59997558594</ele>
        <time>2020-10-03T14:42:25.000Z</time>
      </trkpt>
      <trkpt lat="44.13148" lon="3.19631">
        <ele>648.40002441406</ele>
        <time>2020-10-03T14:42:26.000Z</time>
      </trkpt>
      <trkpt lat="44.13141" lon="3.19634">
        <ele>648</ele>
        <time>2020-10-03T14:42:28.000Z</time>
      </trkpt>
      <trkpt lat="44.13136" lon="3.19639">
        <ele>648</ele>
        <time>2020-10-03T14:42:30.000Z</time>
      </trkpt>
      <trkpt lat="44.13132" lon="3.19645">
        <ele>648</ele>
        <time>2020-10-03T14:42:32.000Z</time>
      </trkpt>
      <trkpt lat="44.13127" lon="3.19654">
        <ele>647.59997558594</ele>
        <time>2020-10-03T14:42:34.000Z</time>
      </trkpt>
      <trkpt lat="44.1312" lon="3.1966">
        <ele>647.59997558594</ele>
        <time>2020-10-03T14:42:36.000Z</time>
      </trkpt>
      <trkpt lat="44.13117" lon="3.19663">
        <ele>647.59997558594</ele>
        <time>2020-10-03T14:42:37.000Z</time>
      </trkpt>
      <trkpt lat="44.13114" lon="3.19663">
        <ele>647.59997558594</ele>
        <time>2020-10-03T14:42:38.000Z</time>
      </trkpt>
      <trkpt lat="44.13111" lon="3.19662">
        <ele>647.59997558594</ele>
        <time>2020-10-03T14:42:39.000Z</time>
      </trkpt>
      <trkpt lat="44.13108" lon="3.19663">
        <ele>647.59997558594</ele>
        <time>2020-10-03T14:42:40.000Z</time>
      </trkpt>
      <trkpt lat="44.13099" lon="3.19661">
        <ele>647.59997558594</ele>
        <time>2020-10-03T14:42:42.000Z</time>
      </trkpt>
      <trkpt lat="44.13096" lon="3.19661">
        <ele>647.40002441406</ele>
        <time>2020-10-03T14:42:43.000Z</time>
      </trkpt>
      <trkpt lat="44.13092" lon="3.1966">
        <ele>647.20001220703</ele>
        <time>2020-10-03T14:42:44.000Z</time>
      </trkpt>
      <trkpt lat="44.13081" lon="3.19658">
        <ele>646.79998779297</ele>
        <time>2020-10-03T14:42:46.000Z</time>
      </trkpt>
      <trkpt lat="44.13078" lon="3.19657">
        <ele>646.59997558594</ele>
        <time>2020-10-03T14:42:47.000Z</time>
      </trkpt>
      <trkpt lat="44.13074" lon="3.19655">
        <ele>646.40002441406</ele>
        <time>2020-10-03T14:42:48.000Z</time>
      </trkpt>
      <trkpt lat="44.13071" lon="3.19653">
        <ele>646</ele>
        <time>2020-10-03T14:42:49.000Z</time>
      </trkpt>
      <trkpt lat="44.13066" lon="3.19652">
        <ele>645.40002441406</ele>
        <time>2020-10-03T14:42:50.000Z</time>
      </trkpt>
      <trkpt lat="44.13062" lon="3.1965">
        <ele>644.79998779297</ele>
        <time>2020-10-03T14:42:51.000Z</time>
      </trkpt>
      <trkpt lat="44.13059" lon="3.19649">
        <ele>644.40002441406</ele>
        <time>2020-10-03T14:42:52.000Z</time>
      </trkpt>
      <trkpt lat="44.13056" lon="3.19648">
        <ele>643.20001220703</ele>
        <time>2020-10-03T14:42:54.000Z</time>
      </trkpt>
      <trkpt lat="44.13055" lon="3.19647">
        <ele>642.59997558594</ele>
        <time>2020-10-03T14:42:55.000Z</time>
      </trkpt>
      <trkpt lat="44.13055" lon="3.19647">
        <ele>642.20001220703</ele>
        <time>2020-10-03T14:42:56.000Z</time>
      </trkpt>
      <trkpt lat="44.13058" lon="3.19646">
        <ele>641.20001220703</ele>
        <time>2020-10-03T14:42:58.000Z</time>
      </trkpt>
      <trkpt lat="44.1306" lon="3.19644">
        <ele>640.59997558594</ele>
        <time>2020-10-03T14:42:59.000Z</time>
      </trkpt>
      <trkpt lat="44.13062" lon="3.19645">
        <ele>640</ele>
        <time>2020-10-03T14:43:00.000Z</time>
      </trkpt>
      <trkpt lat="44.13065" lon="3.19645">
        <ele>639.20001220703</ele>
        <time>2020-10-03T14:43:01.000Z</time>
      </trkpt>
      <trkpt lat="44.13067" lon="3.19645">
        <ele>638.20001220703</ele>
        <time>2020-10-03T14:43:02.000Z</time>
      </trkpt>
      <trkpt lat="44.13069" lon="3.19644">
        <ele>637.40002441406</ele>
        <time>2020-10-03T14:43:03.000Z</time>
      </trkpt>
      <trkpt lat="44.1307" lon="3.19642">
        <ele>636.79998779297</ele>
        <time>2020-10-03T14:43:04.000Z</time>
      </trkpt>
      <trkpt lat="44.13068" lon="3.19638">
        <ele>636.20001220703</ele>
        <time>2020-10-03T14:43:06.000Z</time>
      </trkpt>
      <trkpt lat="44.13065" lon="3.19636">
        <ele>635.79998779297</ele>
        <time>2020-10-03T14:43:07.000Z</time>
      </trkpt>
      <trkpt lat="44.13063" lon="3.19633">
        <ele>635.20001220703</ele>
        <time>2020-10-03T14:43:08.000Z</time>
      </trkpt>
      <trkpt lat="44.13061" lon="3.1963">
        <ele>634.79998779297</ele>
        <time>2020-10-03T14:43:09.000Z</time>
      </trkpt>
      <trkpt lat="44.13058" lon="3.19627">
        <ele>634.20001220703</ele>
        <time>2020-10-03T14:43:10.000Z</time>
      </trkpt>
      <trkpt lat="44.13055" lon="3.19625">
        <ele>633.79998779297</ele>
        <time>2020-10-03T14:43:11.000Z</time>
      </trkpt>
      <trkpt lat="44.13051" lon="3.19622">
        <ele>632.79998779297</ele>
        <time>2020-10-03T14:43:12.000Z</time>
      </trkpt>
      <trkpt lat="44.13045" lon="3.19617">
        <ele>632.40002441406</ele>
        <time>2020-10-03T14:43:14.000Z</time>
      </trkpt>
      <trkpt lat="44.13037" lon="3.19613">
        <ele>632.20001220703</ele>
        <time>2020-10-03T14:43:16.000Z</time>
      </trkpt>
      <trkpt lat="44.1303" lon="3.19611">
        <ele>632</ele>
        <time>2020-10-03T14:43:18.000Z</time>
      </trkpt>
      <trkpt lat="44.13024" lon="3.19607">
        <ele>631.59997558594</ele>
        <time>2020-10-03T14:43:20.000Z</time>
      </trkpt>
      <trkpt lat="44.13018" lon="3.19602">
        <ele>630.59997558594</ele>
        <time>2020-10-03T14:43:22.000Z</time>
      </trkpt>
      <trkpt lat="44.13013" lon="3.196">
        <ele>630</ele>
        <time>2020-10-03T14:43:23.000Z</time>
      </trkpt>
      <trkpt lat="44.13008" lon="3.19598">
        <ele>628.59997558594</ele>
        <time>2020-10-03T14:43:24.000Z</time>
      </trkpt>
      <trkpt lat="44.13005" lon="3.19596">
        <ele>627.59997558594</ele>
        <time>2020-10-03T14:43:25.000Z</time>
      </trkpt>
      <trkpt lat="44.13002" lon="3.19595">
        <ele>626.79998779297</ele>
        <time>2020-10-03T14:43:26.000Z</time>
      </trkpt>
      <trkpt lat="44.12998" lon="3.19594">
        <ele>626</ele>
        <time>2020-10-03T14:43:27.000Z</time>
      </trkpt>
      <trkpt lat="44.12995" lon="3.19593">
        <ele>625.20001220703</ele>
        <time>2020-10-03T14:43:28.000Z</time>
      </trkpt>
      <trkpt lat="44.12993" lon="3.19595">
        <ele>624.40002441406</ele>
        <time>2020-10-03T14:43:29.000Z</time>
      </trkpt>
      <trkpt lat="44.12991" lon="3.19597">
        <ele>623.79998779297</ele>
        <time>2020-10-03T14:43:30.000Z</time>
      </trkpt>
      <trkpt lat="44.1299" lon="3.19598">
        <ele>623.40002441406</ele>
        <time>2020-10-03T14:43:31.000Z</time>
      </trkpt>
      <trkpt lat="44.12989" lon="3.19598">
        <ele>623.20001220703</ele>
        <time>2020-10-03T14:43:32.000Z</time>
      </trkpt>
      <trkpt lat="44.12986" lon="3.19597">
        <ele>622.79998779297</ele>
        <time>2020-10-03T14:43:34.000Z</time>
      </trkpt>
      <trkpt lat="44.12984" lon="3.19596">
        <ele>622.40002441406</ele>
        <time>2020-10-03T14:43:35.000Z</time>
      </trkpt>
      <trkpt lat="44.12981" lon="3.19597">
        <ele>622</ele>
        <time>2020-10-03T14:43:36.000Z</time>
      </trkpt>
      <trkpt lat="44.12975" lon="3.19594">
        <ele>620.40002441406</ele>
        <time>2020-10-03T14:43:38.000Z</time>
      </trkpt>
      <trkpt lat="44.1297" lon="3.19592">
        <ele>619.59997558594</ele>
        <time>2020-10-03T14:43:39.000Z</time>
      </trkpt>
      <trkpt lat="44.12964" lon="3.19591">
        <ele>618.79998779297</ele>
        <time>2020-10-03T14:43:40.000Z</time>
      </trkpt>
      <trkpt lat="44.12958" lon="3.19588">
        <ele>616.59997558594</ele>
        <time>2020-10-03T14:43:41.000Z</time>
      </trkpt>
      <trkpt lat="44.12952" lon="3.19585">
        <ele>615.79998779297</ele>
        <time>2020-10-03T14:43:42.000Z</time>
      </trkpt>
      <trkpt lat="44.12948" lon="3.19584">
        <ele>615.40002441406</ele>
        <time>2020-10-03T14:43:43.000Z</time>
      </trkpt>
      <trkpt lat="44.12946" lon="3.19584">
        <ele>615</ele>
        <time>2020-10-03T14:43:44.000Z</time>
      </trkpt>
      <trkpt lat="44.12945" lon="3.19586">
        <ele>614.79998779297</ele>
        <time>2020-10-03T14:43:46.000Z</time>
      </trkpt>
      <trkpt lat="44.12944" lon="3.19587">
        <ele>614.59997558594</ele>
        <time>2020-10-03T14:43:47.000Z</time>
      </trkpt>
      <trkpt lat="44.12943" lon="3.19589">
        <ele>613.40002441406</ele>
        <time>2020-10-03T14:43:48.000Z</time>
      </trkpt>
      <trkpt lat="44.12937" lon="3.19594">
        <ele>611</ele>
        <time>2020-10-03T14:43:50.000Z</time>
      </trkpt>
      <trkpt lat="44.12935" lon="3.19596">
        <ele>609.59997558594</ele>
        <time>2020-10-03T14:43:51.000Z</time>
      </trkpt>
      <trkpt lat="44.12932" lon="3.19598">
        <ele>608.59997558594</ele>
        <time>2020-10-03T14:43:52.000Z</time>
      </trkpt>
      <trkpt lat="44.12926" lon="3.19602">
        <ele>606.59997558594</ele>
        <time>2020-10-03T14:43:54.000Z</time>
      </trkpt>
      <trkpt lat="44.12919" lon="3.19606">
        <ele>605.40002441406</ele>
        <time>2020-10-03T14:43:56.000Z</time>
      </trkpt>
      <trkpt lat="44.12912" lon="3.19607">
        <ele>604.59997558594</ele>
        <time>2020-10-03T14:43:58.000Z</time>
      </trkpt>
      <trkpt lat="44.12909" lon="3.19605">
        <ele>604.20001220703</ele>
        <time>2020-10-03T14:43:59.000Z</time>
      </trkpt>
      <trkpt lat="44.12906" lon="3.19603">
        <ele>604.20001220703</ele>
        <time>2020-10-03T14:44:00.000Z</time>
      </trkpt>
      <trkpt lat="44.12901" lon="3.19601">
        <ele>604</ele>
        <time>2020-10-03T14:44:02.000Z</time>
      </trkpt>
      <trkpt lat="44.129" lon="3.19599">
        <ele>603.79998779297</ele>
        <time>2020-10-03T14:44:04.000Z</time>
      </trkpt>
      <trkpt lat="44.12902" lon="3.19599">
        <ele>603.40002441406</ele>
        <time>2020-10-03T14:44:05.000Z</time>
      </trkpt>
      <trkpt lat="44.12903" lon="3.19598">
        <ele>602.59997558594</ele>
        <time>2020-10-03T14:44:06.000Z</time>
      </trkpt>
      <trkpt lat="44.12906" lon="3.19595">
        <ele>601</ele>
        <time>2020-10-03T14:44:08.000Z</time>
      </trkpt>
      <trkpt lat="44.12906" lon="3.19595">
        <ele>599.79998779297</ele>
        <time>2020-10-03T14:44:09.000Z</time>
      </trkpt>
      <trkpt lat="44.12905" lon="3.19595">
        <ele>597.20001220703</ele>
        <time>2020-10-03T14:44:10.000Z</time>
      </trkpt>
      <trkpt lat="44.12903" lon="3.19595">
        <ele>596</ele>
        <time>2020-10-03T14:44:11.000Z</time>
      </trkpt>
      <trkpt lat="44.12902" lon="3.19595">
        <ele>594.79998779297</ele>
        <time>2020-10-03T14:44:12.000Z</time>
      </trkpt>
      <trkpt lat="44.12898" lon="3.19594">
        <ele>593.79998779297</ele>
        <time>2020-10-03T14:44:13.000Z</time>
      </trkpt>
      <trkpt lat="44.12893" lon="3.19593">
        <ele>592.79998779297</ele>
        <time>2020-10-03T14:44:14.000Z</time>
      </trkpt>
      <trkpt lat="44.12888" lon="3.19592">
        <ele>592.20001220703</ele>
        <time>2020-10-03T14:44:15.000Z</time>
      </trkpt>
      <trkpt lat="44.12882" lon="3.19591">
        <ele>591.40002441406</ele>
        <time>2020-10-03T14:44:16.000Z</time>
      </trkpt>
      <trkpt lat="44.12878" lon="3.19589">
        <ele>590.79998779297</ele>
        <time>2020-10-03T14:44:17.000Z</time>
      </trkpt>
      <trkpt lat="44.12875" lon="3.19589">
        <ele>590.40002441406</ele>
        <time>2020-10-03T14:44:18.000Z</time>
      </trkpt>
      <trkpt lat="44.12866" lon="3.19589">
        <ele>589.40002441406</ele>
        <time>2020-10-03T14:44:20.000Z</time>
      </trkpt>
      <trkpt lat="44.12857" lon="3.19589">
        <ele>588</ele>
        <time>2020-10-03T14:44:22.000Z</time>
      </trkpt>
      <trkpt lat="44.12853" lon="3.19589">
        <ele>586.79998779297</ele>
        <time>2020-10-03T14:44:23.000Z</time>
      </trkpt>
      <trkpt lat="44.12848" lon="3.19589">
        <ele>585.59997558594</ele>
        <time>2020-10-03T14:44:24.000Z</time>
      </trkpt>
      <trkpt lat="44.12844" lon="3.19589">
        <ele>584.40002441406</ele>
        <time>2020-10-03T14:44:25.000Z</time>
      </trkpt>
      <trkpt lat="44.1284" lon="3.19589">
        <ele>582.79998779297</ele>
        <time>2020-10-03T14:44:26.000Z</time>
      </trkpt>
      <trkpt lat="44.12835" lon="3.19589">
        <ele>581.40002441406</ele>
        <time>2020-10-03T14:44:27.000Z</time>
      </trkpt>
      <trkpt lat="44.1283" lon="3.19588">
        <ele>580</ele>
        <time>2020-10-03T14:44:28.000Z</time>
      </trkpt>
      <trkpt lat="44.12825" lon="3.19588">
        <ele>578.79998779297</ele>
        <time>2020-10-03T14:44:29.000Z</time>
      </trkpt>
      <trkpt lat="44.1282" lon="3.19589">
        <ele>577.40002441406</ele>
        <time>2020-10-03T14:44:30.000Z</time>
      </trkpt>
      <trkpt lat="44.12817" lon="3.19588">
        <ele>576</ele>
        <time>2020-10-03T14:44:31.000Z</time>
      </trkpt>
      <trkpt lat="44.12814" lon="3.19586">
        <ele>574.59997558594</ele>
        <time>2020-10-03T14:44:32.000Z</time>
      </trkpt>
      <trkpt lat="44.12812" lon="3.19584">
        <ele>572.79998779297</ele>
        <time>2020-10-03T14:44:33.000Z</time>
      </trkpt>
      <trkpt lat="44.12811" lon="3.19583">
        <ele>571.40002441406</ele>
        <time>2020-10-03T14:44:34.000Z</time>
      </trkpt>
      <trkpt lat="44.12811" lon="3.19581">
        <ele>570</ele>
        <time>2020-10-03T14:44:35.000Z</time>
      </trkpt>
      <trkpt lat="44.1281" lon="3.19578">
        <ele>568</ele>
        <time>2020-10-03T14:44:36.000Z</time>
      </trkpt>
      <trkpt lat="44.12809" lon="3.19575">
        <ele>566.20001220703</ele>
        <time>2020-10-03T14:44:37.000Z</time>
      </trkpt>
      <trkpt lat="44.12807" lon="3.19573">
        <ele>564.79998779297</ele>
        <time>2020-10-03T14:44:38.000Z</time>
      </trkpt>
      <trkpt lat="44.12803" lon="3.19572">
        <ele>562.59997558594</ele>
        <time>2020-10-03T14:44:39.000Z</time>
      </trkpt>
      <trkpt lat="44.12799" lon="3.19571">
        <ele>561.20001220703</ele>
        <time>2020-10-03T14:44:40.000Z</time>
      </trkpt>
      <trkpt lat="44.12793" lon="3.1957">
        <ele>559.40002441406</ele>
        <time>2020-10-03T14:44:41.000Z</time>
      </trkpt>
      <trkpt lat="44.1279" lon="3.19569">
        <ele>557.79998779297</ele>
        <time>2020-10-03T14:44:42.000Z</time>
      </trkpt>
      <trkpt lat="44.12786" lon="3.19567">
        <ele>556.59997558594</ele>
        <time>2020-10-03T14:44:43.000Z</time>
      </trkpt>
      <trkpt lat="44.12782" lon="3.19565">
        <ele>555.59997558594</ele>
        <time>2020-10-03T14:44:44.000Z</time>
      </trkpt>
      <trkpt lat="44.12778" lon="3.19562">
        <ele>554.40002441406</ele>
        <time>2020-10-03T14:44:45.000Z</time>
      </trkpt>
      <trkpt lat="44.12773" lon="3.1956">
        <ele>553.40002441406</ele>
        <time>2020-10-03T14:44:46.000Z</time>
      </trkpt>
      <trkpt lat="44.12769" lon="3.19557">
        <ele>552.20001220703</ele>
        <time>2020-10-03T14:44:47.000Z</time>
      </trkpt>
      <trkpt lat="44.12765" lon="3.19556">
        <ele>551</ele>
        <time>2020-10-03T14:44:48.000Z</time>
      </trkpt>
      <trkpt lat="44.12762" lon="3.19554">
        <ele>549.79998779297</ele>
        <time>2020-10-03T14:44:49.000Z</time>
      </trkpt>
      <trkpt lat="44.1276" lon="3.19553">
        <ele>549</ele>
        <time>2020-10-03T14:44:50.000Z</time>
      </trkpt>
      <trkpt lat="44.12756" lon="3.19551">
        <ele>548.40002441406</ele>
        <time>2020-10-03T14:44:51.000Z</time>
      </trkpt>
      <trkpt lat="44.12752" lon="3.19548">
        <ele>547.40002441406</ele>
        <time>2020-10-03T14:44:52.000Z</time>
      </trkpt>
      <trkpt lat="44.12747" lon="3.19546">
        <ele>546.20001220703</ele>
        <time>2020-10-03T14:44:53.000Z</time>
      </trkpt>
      <trkpt lat="44.12742" lon="3.19545">
        <ele>544.59997558594</ele>
        <time>2020-10-03T14:44:54.000Z</time>
      </trkpt>
      <trkpt lat="44.12737" lon="3.19542">
        <ele>542.59997558594</ele>
        <time>2020-10-03T14:44:55.000Z</time>
      </trkpt>
      <trkpt lat="44.12733" lon="3.19539">
        <ele>541</ele>
        <time>2020-10-03T14:44:56.000Z</time>
      </trkpt>
      <trkpt lat="44.1273" lon="3.19537">
        <ele>539.40002441406</ele>
        <time>2020-10-03T14:44:57.000Z</time>
      </trkpt>
      <trkpt lat="44.12727" lon="3.19534">
        <ele>537.59997558594</ele>
        <time>2020-10-03T14:44:58.000Z</time>
      </trkpt>
      <trkpt lat="44.12725" lon="3.19532">
        <ele>536.20001220703</ele>
        <time>2020-10-03T14:44:59.000Z</time>
      </trkpt>
      <trkpt lat="44.12723" lon="3.19528">
        <ele>534.79998779297</ele>
        <time>2020-10-03T14:45:00.000Z</time>
      </trkpt>
      <trkpt lat="44.12721" lon="3.19525">
        <ele>533</ele>
        <time>2020-10-03T14:45:01.000Z</time>
      </trkpt>
      <trkpt lat="44.12718" lon="3.19523">
        <ele>531.20001220703</ele>
        <time>2020-10-03T14:45:02.000Z</time>
      </trkpt>
      <trkpt lat="44.12715" lon="3.19522">
        <ele>530.20001220703</ele>
        <time>2020-10-03T14:45:03.000Z</time>
      </trkpt>
      <trkpt lat="44.12711" lon="3.19521">
        <ele>529</ele>
        <time>2020-10-03T14:45:04.000Z</time>
      </trkpt>
      <trkpt lat="44.12706" lon="3.1952">
        <ele>527.79998779297</ele>
        <time>2020-10-03T14:45:05.000Z</time>
      </trkpt>
      <trkpt lat="44.12699" lon="3.19517">
        <ele>526.40002441406</ele>
        <time>2020-10-03T14:45:06.000Z</time>
      </trkpt>
      <trkpt lat="44.12693" lon="3.19517">
        <ele>523.59997558594</ele>
        <time>2020-10-03T14:45:07.000Z</time>
      </trkpt>
      <trkpt lat="44.12687" lon="3.19516">
        <ele>522</ele>
        <time>2020-10-03T14:45:08.000Z</time>
      </trkpt>
      <trkpt lat="44.12682" lon="3.19515">
        <ele>520.20001220703</ele>
        <time>2020-10-03T14:45:09.000Z</time>
      </trkpt>
      <trkpt lat="44.12676" lon="3.19512">
        <ele>518.79998779297</ele>
        <time>2020-10-03T14:45:10.000Z</time>
      </trkpt>
      <trkpt lat="44.12669" lon="3.1951">
        <ele>517.40002441406</ele>
        <time>2020-10-03T14:45:12.000Z</time>
      </trkpt>
      <trkpt lat="44.12666" lon="3.19509">
        <ele>516.59997558594</ele>
        <time>2020-10-03T14:45:13.000Z</time>
      </trkpt>
      <trkpt lat="44.12662" lon="3.19508">
        <ele>515.40002441406</ele>
        <time>2020-10-03T14:45:14.000Z</time>
      </trkpt>
      <trkpt lat="44.12658" lon="3.19506">
        <ele>513.79998779297</ele>
        <time>2020-10-03T14:45:15.000Z</time>
      </trkpt>
      <trkpt lat="44.12653" lon="3.19503">
        <ele>512.59997558594</ele>
        <time>2020-10-03T14:45:16.000Z</time>
      </trkpt>
      <trkpt lat="44.12649" lon="3.195">
        <ele>511.20001220703</ele>
        <time>2020-10-03T14:45:17.000Z</time>
      </trkpt>
      <trkpt lat="44.12645" lon="3.19499">
        <ele>510</ele>
        <time>2020-10-03T14:45:18.000Z</time>
      </trkpt>
      <trkpt lat="44.1264" lon="3.19498">
        <ele>508.79998779297</ele>
        <time>2020-10-03T14:45:19.000Z</time>
      </trkpt>
      <trkpt lat="44.12634" lon="3.19499">
        <ele>508</ele>
        <time>2020-10-03T14:45:20.000Z</time>
      </trkpt>
      <trkpt lat="44.12628" lon="3.19498">
        <ele>507.39999389648</ele>
        <time>2020-10-03T14:45:21.000Z</time>
      </trkpt>
      <trkpt lat="44.12624" lon="3.19498">
        <ele>506.60000610352</ele>
        <time>2020-10-03T14:45:22.000Z</time>
      </trkpt>
      <trkpt lat="44.12619" lon="3.195">
        <ele>505.79998779297</ele>
        <time>2020-10-03T14:45:23.000Z</time>
      </trkpt>
      <trkpt lat="44.12615" lon="3.195">
        <ele>505</ele>
        <time>2020-10-03T14:45:24.000Z</time>
      </trkpt>
      <trkpt lat="44.12611" lon="3.19501">
        <ele>504.60000610352</ele>
        <time>2020-10-03T14:45:25.000Z</time>
      </trkpt>
      <trkpt lat="44.12607" lon="3.19502">
        <ele>504.20001220703</ele>
        <time>2020-10-03T14:45:26.000Z</time>
      </trkpt>
      <trkpt lat="44.12599" lon="3.19503">
        <ele>503.39999389648</ele>
        <time>2020-10-03T14:45:28.000Z</time>
      </trkpt>
      <trkpt lat="44.12596" lon="3.19503">
        <ele>502.39999389648</ele>
        <time>2020-10-03T14:45:29.000Z</time>
      </trkpt>
      <trkpt lat="44.12593" lon="3.19505">
        <ele>501.20001220703</ele>
        <time>2020-10-03T14:45:30.000Z</time>
      </trkpt>
      <trkpt lat="44.1259" lon="3.19507">
        <ele>500</ele>
        <time>2020-10-03T14:45:31.000Z</time>
      </trkpt>
      <trkpt lat="44.12588" lon="3.19509">
        <ele>499.39999389648</ele>
        <time>2020-10-03T14:45:32.000Z</time>
      </trkpt>
      <trkpt lat="44.12582" lon="3.19517">
        <ele>499</ele>
        <time>2020-10-03T14:45:34.000Z</time>
      </trkpt>
      <trkpt lat="44.12578" lon="3.19527">
        <ele>498.79998779297</ele>
        <time>2020-10-03T14:45:36.000Z</time>
      </trkpt>
      <trkpt lat="44.12573" lon="3.1954">
        <ele>498.60000610352</ele>
        <time>2020-10-03T14:45:38.000Z</time>
      </trkpt>
      <trkpt lat="44.1257" lon="3.19546">
        <ele>498.60000610352</ele>
        <time>2020-10-03T14:45:39.000Z</time>
      </trkpt>
      <trkpt lat="44.12567" lon="3.19553">
        <ele>498.60000610352</ele>
        <time>2020-10-03T14:45:40.000Z</time>
      </trkpt>
      <trkpt lat="44.12559" lon="3.19565">
        <ele>498.39999389648</ele>
        <time>2020-10-03T14:45:42.000Z</time>
      </trkpt>
      <trkpt lat="44.12554" lon="3.19571">
        <ele>498.39999389648</ele>
        <time>2020-10-03T14:45:43.000Z</time>
      </trkpt>
      <trkpt lat="44.1255" lon="3.19577">
        <ele>498.39999389648</ele>
        <time>2020-10-03T14:45:44.000Z</time>
      </trkpt>
      <trkpt lat="44.12544" lon="3.19591">
        <ele>498.20001220703</ele>
        <time>2020-10-03T14:45:46.000Z</time>
      </trkpt>
      <trkpt lat="44.1253" lon="3.196">
        <ele>497.79998779297</ele>
        <time>2020-10-03T14:45:48.000Z</time>
      </trkpt>
      <trkpt lat="44.12522" lon="3.19605">
        <ele>497.60000610352</ele>
        <time>2020-10-03T14:45:49.000Z</time>
      </trkpt>
      <trkpt lat="44.12515" lon="3.1961">
        <ele>497</ele>
        <time>2020-10-03T14:45:50.000Z</time>
      </trkpt>
      <trkpt lat="44.12507" lon="3.19616">
        <ele>496.20001220703</ele>
        <time>2020-10-03T14:45:51.000Z</time>
      </trkpt>
      <trkpt lat="44.12502" lon="3.19622">
        <ele>495.60000610352</ele>
        <time>2020-10-03T14:45:52.000Z</time>
      </trkpt>
      <trkpt lat="44.12496" lon="3.19629">
        <ele>494.79998779297</ele>
        <time>2020-10-03T14:45:53.000Z</time>
      </trkpt>
      <trkpt lat="44.12489" lon="3.19635">
        <ele>493.79998779297</ele>
        <time>2020-10-03T14:45:54.000Z</time>
      </trkpt>
      <trkpt lat="44.12483" lon="3.1964">
        <ele>492.79998779297</ele>
        <time>2020-10-03T14:45:55.000Z</time>
      </trkpt>
      <trkpt lat="44.12478" lon="3.19644">
        <ele>491.39999389648</ele>
        <time>2020-10-03T14:45:56.000Z</time>
      </trkpt>
      <trkpt lat="44.12472" lon="3.19648">
        <ele>489.79998779297</ele>
        <time>2020-10-03T14:45:57.000Z</time>
      </trkpt>
      <trkpt lat="44.12466" lon="3.19651">
        <ele>488.60000610352</ele>
        <time>2020-10-03T14:45:58.000Z</time>
      </trkpt>
      <trkpt lat="44.12461" lon="3.19654">
        <ele>487.60000610352</ele>
        <time>2020-10-03T14:45:59.000Z</time>
      </trkpt>
      <trkpt lat="44.12456" lon="3.19655">
        <ele>486.60000610352</ele>
        <time>2020-10-03T14:46:00.000Z</time>
      </trkpt>
      <trkpt lat="44.1245" lon="3.19657">
        <ele>486</ele>
        <time>2020-10-03T14:46:01.000Z</time>
      </trkpt>
      <trkpt lat="44.12445" lon="3.19658">
        <ele>485.60000610352</ele>
        <time>2020-10-03T14:46:02.000Z</time>
      </trkpt>
      <trkpt lat="44.12439" lon="3.1966">
        <ele>485</ele>
        <time>2020-10-03T14:46:03.000Z</time>
      </trkpt>
      <trkpt lat="44.12433" lon="3.19661">
        <ele>484</ele>
        <time>2020-10-03T14:46:04.000Z</time>
      </trkpt>
      <trkpt lat="44.1242" lon="3.19662">
        <ele>483</ele>
        <time>2020-10-03T14:46:06.000Z</time>
      </trkpt>
      <trkpt lat="44.12413" lon="3.19664">
        <ele>482.39999389648</ele>
        <time>2020-10-03T14:46:07.000Z</time>
      </trkpt>
      <trkpt lat="44.12406" lon="3.19668">
        <ele>481.39999389648</ele>
        <time>2020-10-03T14:46:08.000Z</time>
      </trkpt>
      <trkpt lat="44.124" lon="3.19672">
        <ele>480.20001220703</ele>
        <time>2020-10-03T14:46:09.000Z</time>
      </trkpt>
      <trkpt lat="44.12394" lon="3.19676">
        <ele>479.20001220703</ele>
        <time>2020-10-03T14:46:10.000Z</time>
      </trkpt>
      <trkpt lat="44.12387" lon="3.1968">
        <ele>477.60000610352</ele>
        <time>2020-10-03T14:46:11.000Z</time>
      </trkpt>
      <trkpt lat="44.1238" lon="3.19683">
        <ele>475.79998779297</ele>
        <time>2020-10-03T14:46:12.000Z</time>
      </trkpt>
      <trkpt lat="44.12374" lon="3.19686">
        <ele>474</ele>
        <time>2020-10-03T14:46:13.000Z</time>
      </trkpt>
      <trkpt lat="44.12369" lon="3.1969">
        <ele>473.20001220703</ele>
        <time>2020-10-03T14:46:14.000Z</time>
      </trkpt>
      <trkpt lat="44.12365" lon="3.19694">
        <ele>471.39999389648</ele>
        <time>2020-10-03T14:46:15.000Z</time>
      </trkpt>
      <trkpt lat="44.12363" lon="3.19698">
        <ele>470</ele>
        <time>2020-10-03T14:46:16.000Z</time>
      </trkpt>
      <trkpt lat="44.12364" lon="3.19701">
        <ele>468.79998779297</ele>
        <time>2020-10-03T14:46:17.000Z</time>
      </trkpt>
      <trkpt lat="44.12365" lon="3.19705">
        <ele>468</ele>
        <time>2020-10-03T14:46:18.000Z</time>
      </trkpt>
      <trkpt lat="44.12367" lon="3.19709">
        <ele>467.60000610352</ele>
        <time>2020-10-03T14:46:19.000Z</time>
      </trkpt>
      <trkpt lat="44.12367" lon="3.19714">
        <ele>467.20001220703</ele>
        <time>2020-10-03T14:46:20.000Z</time>
      </trkpt>
      <trkpt lat="44.12366" lon="3.19724">
        <ele>466.79998779297</ele>
        <time>2020-10-03T14:46:22.000Z</time>
      </trkpt>
      <trkpt lat="44.12365" lon="3.19729">
        <ele>466.39999389648</ele>
        <time>2020-10-03T14:46:23.000Z</time>
      </trkpt>
      <trkpt lat="44.12365" lon="3.19734">
        <ele>466</ele>
        <time>2020-10-03T14:46:24.000Z</time>
      </trkpt>
      <trkpt lat="44.12367" lon="3.19745">
        <ele>465.39999389648</ele>
        <time>2020-10-03T14:46:26.000Z</time>
      </trkpt>
      <trkpt lat="44.12366" lon="3.19751">
        <ele>465.20001220703</ele>
        <time>2020-10-03T14:46:27.000Z</time>
      </trkpt>
      <trkpt lat="44.12365" lon="3.19757">
        <ele>465</ele>
        <time>2020-10-03T14:46:28.000Z</time>
      </trkpt>
      <trkpt lat="44.12364" lon="3.19767">
        <ele>464.39999389648</ele>
        <time>2020-10-03T14:46:30.000Z</time>
      </trkpt>
      <trkpt lat="44.12365" lon="3.19772">
        <ele>464.20001220703</ele>
        <time>2020-10-03T14:46:31.000Z</time>
      </trkpt>
      <trkpt lat="44.12369" lon="3.19777">
        <ele>463.60000610352</ele>
        <time>2020-10-03T14:46:32.000Z</time>
      </trkpt>
      <trkpt lat="44.12373" lon="3.19783">
        <ele>463</ele>
        <time>2020-10-03T14:46:33.000Z</time>
      </trkpt>
      <trkpt lat="44.12377" lon="3.19788">
        <ele>462.79998779297</ele>
        <time>2020-10-03T14:46:34.000Z</time>
      </trkpt>
      <trkpt lat="44.12381" lon="3.19794">
        <ele>461.79998779297</ele>
        <time>2020-10-03T14:46:35.000Z</time>
      </trkpt>
      <trkpt lat="44.12385" lon="3.19799">
        <ele>460.79998779297</ele>
        <time>2020-10-03T14:46:36.000Z</time>
      </trkpt>
      <trkpt lat="44.12388" lon="3.19804">
        <ele>459.79998779297</ele>
        <time>2020-10-03T14:46:37.000Z</time>
      </trkpt>
      <trkpt lat="44.12391" lon="3.19809">
        <ele>458.79998779297</ele>
        <time>2020-10-03T14:46:38.000Z</time>
      </trkpt>
      <trkpt lat="44.12394" lon="3.19814">
        <ele>458.20001220703</ele>
        <time>2020-10-03T14:46:39.000Z</time>
      </trkpt>
      <trkpt lat="44.12398" lon="3.19815">
        <ele>457.20001220703</ele>
        <time>2020-10-03T14:46:40.000Z</time>
      </trkpt>
      <trkpt lat="44.12406" lon="3.19815">
        <ele>455.20001220703</ele>
        <time>2020-10-03T14:46:42.000Z</time>
      </trkpt>
      <trkpt lat="44.12411" lon="3.19814">
        <ele>454</ele>
        <time>2020-10-03T14:46:43.000Z</time>
      </trkpt>
      <trkpt lat="44.12416" lon="3.19815">
        <ele>453.20001220703</ele>
        <time>2020-10-03T14:46:44.000Z</time>
      </trkpt>
      <trkpt lat="44.1242" lon="3.19819">
        <ele>452.20001220703</ele>
        <time>2020-10-03T14:46:45.000Z</time>
      </trkpt>
      <trkpt lat="44.12424" lon="3.19823">
        <ele>451</ele>
        <time>2020-10-03T14:46:46.000Z</time>
      </trkpt>
      <trkpt lat="44.12426" lon="3.19827">
        <ele>449.79998779297</ele>
        <time>2020-10-03T14:46:47.000Z</time>
      </trkpt>
      <trkpt lat="44.12427" lon="3.1983">
        <ele>448.79998779297</ele>
        <time>2020-10-03T14:46:48.000Z</time>
      </trkpt>
      <trkpt lat="44.12427" lon="3.19832">
        <ele>447.60000610352</ele>
        <time>2020-10-03T14:46:49.000Z</time>
      </trkpt>
      <trkpt lat="44.12425" lon="3.19833">
        <ele>446.20001220703</ele>
        <time>2020-10-03T14:46:50.000Z</time>
      </trkpt>
      <trkpt lat="44.12422" lon="3.19832">
        <ele>445.39999389648</ele>
        <time>2020-10-03T14:46:51.000Z</time>
      </trkpt>
      <trkpt lat="44.12418" lon="3.19832">
        <ele>444.60000610352</ele>
        <time>2020-10-03T14:46:52.000Z</time>
      </trkpt>
      <trkpt lat="44.12411" lon="3.1983">
        <ele>442.60000610352</ele>
        <time>2020-10-03T14:46:54.000Z</time>
      </trkpt>
      <trkpt lat="44.12407" lon="3.19831">
        <ele>441.60000610352</ele>
        <time>2020-10-03T14:46:55.000Z</time>
      </trkpt>
      <trkpt lat="44.12404" lon="3.19831">
        <ele>440.60000610352</ele>
        <time>2020-10-03T14:46:56.000Z</time>
      </trkpt>
      <trkpt lat="44.12403" lon="3.19832">
        <ele>439.79998779297</ele>
        <time>2020-10-03T14:46:57.000Z</time>
      </trkpt>
      <trkpt lat="44.12401" lon="3.19831">
        <ele>438.79998779297</ele>
        <time>2020-10-03T14:46:58.000Z</time>
      </trkpt>
      <trkpt lat="44.12396" lon="3.1983">
        <ele>438</ele>
        <time>2020-10-03T14:46:59.000Z</time>
      </trkpt>
      <trkpt lat="44.12392" lon="3.19831">
        <ele>437</ele>
        <time>2020-10-03T14:47:00.000Z</time>
      </trkpt>
      <trkpt lat="44.12387" lon="3.1983">
        <ele>434.20001220703</ele>
        <time>2020-10-03T14:47:01.000Z</time>
      </trkpt>
      <trkpt lat="44.12383" lon="3.1983">
        <ele>433.20001220703</ele>
        <time>2020-10-03T14:47:02.000Z</time>
      </trkpt>
      <trkpt lat="44.12378" lon="3.19828">
        <ele>431.79998779297</ele>
        <time>2020-10-03T14:47:03.000Z</time>
      </trkpt>
      <trkpt lat="44.12373" lon="3.19826">
        <ele>430.39999389648</ele>
        <time>2020-10-03T14:47:04.000Z</time>
      </trkpt>
      <trkpt lat="44.12369" lon="3.19824">
        <ele>429.20001220703</ele>
        <time>2020-10-03T14:47:05.000Z</time>
      </trkpt>
      <trkpt lat="44.12366" lon="3.19822">
        <ele>428</ele>
        <time>2020-10-03T14:47:06.000Z</time>
      </trkpt>
      <trkpt lat="44.12363" lon="3.19821">
        <ele>426.60000610352</ele>
        <time>2020-10-03T14:47:07.000Z</time>
      </trkpt>
      <trkpt lat="44.12357" lon="3.19819">
        <ele>425.39999389648</ele>
        <time>2020-10-03T14:47:08.000Z</time>
      </trkpt>
      <trkpt lat="44.12353" lon="3.19818">
        <ele>424.20001220703</ele>
        <time>2020-10-03T14:47:09.000Z</time>
      </trkpt>
      <trkpt lat="44.1235" lon="3.19821">
        <ele>422.60000610352</ele>
        <time>2020-10-03T14:47:10.000Z</time>
      </trkpt>
      <trkpt lat="44.12349" lon="3.19823">
        <ele>421.20001220703</ele>
        <time>2020-10-03T14:47:11.000Z</time>
      </trkpt>
      <trkpt lat="44.12349" lon="3.19822">
        <ele>419.79998779297</ele>
        <time>2020-10-03T14:47:12.000Z</time>
      </trkpt>
      <trkpt lat="44.12348" lon="3.19824">
        <ele>418.60000610352</ele>
        <time>2020-10-03T14:47:13.000Z</time>
      </trkpt>
      <trkpt lat="44.12346" lon="3.19828">
        <ele>417.39999389648</ele>
        <time>2020-10-03T14:47:14.000Z</time>
      </trkpt>
      <trkpt lat="44.12343" lon="3.19833">
        <ele>415.79998779297</ele>
        <time>2020-10-03T14:47:15.000Z</time>
      </trkpt>
      <trkpt lat="44.12339" lon="3.19834">
        <ele>414.60000610352</ele>
        <time>2020-10-03T14:47:16.000Z</time>
      </trkpt>
      <trkpt lat="44.12336" lon="3.19835">
        <ele>413.39999389648</ele>
        <time>2020-10-03T14:47:17.000Z</time>
      </trkpt>
      <trkpt lat="44.12331" lon="3.19835">
        <ele>412.39999389648</ele>
        <time>2020-10-03T14:47:18.000Z</time>
      </trkpt>
      <trkpt lat="44.12327" lon="3.19837">
        <ele>411.39999389648</ele>
        <time>2020-10-03T14:47:19.000Z</time>
      </trkpt>
      <trkpt lat="44.12321" lon="3.19838">
        <ele>410.39999389648</ele>
        <time>2020-10-03T14:47:20.000Z</time>
      </trkpt>
      <trkpt lat="44.12315" lon="3.19838">
        <ele>409.39999389648</ele>
        <time>2020-10-03T14:47:21.000Z</time>
      </trkpt>
      <trkpt lat="44.12309" lon="3.19839">
        <ele>408.60000610352</ele>
        <time>2020-10-03T14:47:22.000Z</time>
      </trkpt>
      <trkpt lat="44.12303" lon="3.19841">
        <ele>407.39999389648</ele>
        <time>2020-10-03T14:47:23.000Z</time>
      </trkpt>
      <trkpt lat="44.12297" lon="3.19842">
        <ele>406.39999389648</ele>
        <time>2020-10-03T14:47:24.000Z</time>
      </trkpt>
      <trkpt lat="44.12292" lon="3.19843">
        <ele>405.39999389648</ele>
        <time>2020-10-03T14:47:25.000Z</time>
      </trkpt>
      <trkpt lat="44.12286" lon="3.19845">
        <ele>404</ele>
        <time>2020-10-03T14:47:26.000Z</time>
      </trkpt>
      <trkpt lat="44.12281" lon="3.19848">
        <ele>403</ele>
        <time>2020-10-03T14:47:27.000Z</time>
      </trkpt>
      <trkpt lat="44.12276" lon="3.1985">
        <ele>401.60000610352</ele>
        <time>2020-10-03T14:47:28.000Z</time>
      </trkpt>
      <trkpt lat="44.12273" lon="3.19849">
        <ele>400</ele>
        <time>2020-10-03T14:47:29.000Z</time>
      </trkpt>
      <trkpt lat="44.1227" lon="3.19847">
        <ele>397.60000610352</ele>
        <time>2020-10-03T14:47:30.000Z</time>
      </trkpt>
      <trkpt lat="44.12267" lon="3.19843">
        <ele>396.60000610352</ele>
        <time>2020-10-03T14:47:31.000Z</time>
      </trkpt>
      <trkpt lat="44.12266" lon="3.19839">
        <ele>395.39999389648</ele>
        <time>2020-10-03T14:47:32.000Z</time>
      </trkpt>
      <trkpt lat="44.12265" lon="3.19835">
        <ele>394</ele>
        <time>2020-10-03T14:47:33.000Z</time>
      </trkpt>
      <trkpt lat="44.12265" lon="3.19831">
        <ele>392.79998779297</ele>
        <time>2020-10-03T14:47:34.000Z</time>
      </trkpt>
      <trkpt lat="44.12267" lon="3.19827">
        <ele>391.79998779297</ele>
        <time>2020-10-03T14:47:35.000Z</time>
      </trkpt>
      <trkpt lat="44.12268" lon="3.19823">
        <ele>390.60000610352</ele>
        <time>2020-10-03T14:47:36.000Z</time>
      </trkpt>
      <trkpt lat="44.1227" lon="3.19818">
        <ele>389.60000610352</ele>
        <time>2020-10-03T14:47:37.000Z</time>
      </trkpt>
      <trkpt lat="44.12271" lon="3.19814">
        <ele>389</ele>
        <time>2020-10-03T14:47:38.000Z</time>
      </trkpt>
      <trkpt lat="44.12273" lon="3.19804">
        <ele>388</ele>
        <time>2020-10-03T14:47:40.000Z</time>
      </trkpt>
      <trkpt lat="44.12273" lon="3.19795">
        <ele>387.60000610352</ele>
        <time>2020-10-03T14:47:42.000Z</time>
      </trkpt>
      <trkpt lat="44.12273" lon="3.19788">
        <ele>387.39999389648</ele>
        <time>2020-10-03T14:47:44.000Z</time>
      </trkpt>
      <trkpt lat="44.12274" lon="3.19781">
        <ele>387.39999389648</ele>
        <time>2020-10-03T14:47:46.000Z</time>
      </trkpt>
    </trkseg>
  </trk>
</gpx>